<?xml version="1.0" encoding="UTF-8"?>
<gpx version="1.1" creator="https://www.youtrack.es" xsi:schemaLocation="http://www.topografix.com/GPX/1/1 http://www.topografix.com/GPX/1/1/gpx.xsd http://www.garmin.com/xmlschemas/GpxExtensions/v3 http://www.garmin.com/xmlschemas/GpxExtensionsv3.xsd http://www.garmin.com/xmlschemas/TrackPointExtension/v1 http://www.garmin.com/xmlschemas/TrackPointExtensionv1.xsd" xmlns:gpxtpx="http://www.garmin.com/xmlschemas/TrackPointExtension/v1" xmlns:gpxx="http://www.garmin.com/xmlschemas/GpxExtensions/v3" xmlns:xsi="http://www.w3.org/2001/XMLSchema-instance">
  <metadata>
    <author>
      <name>Pau Benejam</name>
      <email id="paubenejam" domain="gmail.com"/>
    </author>
    <link href="https://www.youtrack.es">
      <text>YouTrack.es</text>
    </link>
    <time>2026-05-09T00:44:58Z</time>
  </metadata>
  <trk>
    <src>https://www.youtrack.es</src>
    <link href="https://www.youtrack.es/ruta/24212-bonii">
      <text>YouTrack.es</text>
    </link>
    <trkseg>
      <trkpt lat="39.8439020" lon="3.1334950">
        <ele>6.4</ele>
        <time>2021-07-25T08:21:41Z</time>
      </trkpt>
      <trkpt lat="39.8439460" lon="3.1334540">
        <ele>6.3</ele>
        <time>2021-07-25T08:21:43Z</time>
      </trkpt>
      <trkpt lat="39.8443650" lon="3.1330110">
        <ele>5.7</ele>
        <time>2021-07-25T08:21:58Z</time>
      </trkpt>
      <trkpt lat="39.8447780" lon="3.1325500">
        <ele>5.1</ele>
        <time>2021-07-25T08:22:10Z</time>
      </trkpt>
      <trkpt lat="39.8450300" lon="3.1322820">
        <ele>4.7</ele>
        <time>2021-07-25T08:22:16Z</time>
      </trkpt>
      <trkpt lat="39.8454860" lon="3.1318030">
        <ele>4.5</ele>
        <time>2021-07-25T08:22:27Z</time>
      </trkpt>
      <trkpt lat="39.8459170" lon="3.1313540">
        <ele>4.6</ele>
        <time>2021-07-25T08:22:37Z</time>
      </trkpt>
      <trkpt lat="39.8460380" lon="3.1312300">
        <ele>4.4</ele>
        <time>2021-07-25T08:22:40Z</time>
      </trkpt>
      <trkpt lat="39.8461240" lon="3.1311880">
        <ele>4.4</ele>
        <time>2021-07-25T08:22:42Z</time>
      </trkpt>
      <trkpt lat="39.8462130" lon="3.1311580">
        <ele>4.4</ele>
        <time>2021-07-25T08:22:44Z</time>
      </trkpt>
      <trkpt lat="39.8462920" lon="3.1310860">
        <ele>4.4</ele>
        <time>2021-07-25T08:22:46Z</time>
      </trkpt>
      <trkpt lat="39.8464520" lon="3.1308100">
        <ele>4.2</ele>
        <time>2021-07-25T08:22:51Z</time>
      </trkpt>
      <trkpt lat="39.8469110" lon="3.1303690">
        <ele>4.0</ele>
        <time>2021-07-25T08:23:01Z</time>
      </trkpt>
      <trkpt lat="39.8473660" lon="3.1299090">
        <ele>4.1</ele>
        <time>2021-07-25T08:23:11Z</time>
      </trkpt>
      <trkpt lat="39.8478030" lon="3.1294610">
        <ele>4.5</ele>
        <time>2021-07-25T08:23:21Z</time>
      </trkpt>
      <trkpt lat="39.8482670" lon="3.1289790">
        <ele>5.2</ele>
        <time>2021-07-25T08:23:32Z</time>
      </trkpt>
      <trkpt lat="39.8487230" lon="3.1285200">
        <ele>6.0</ele>
        <time>2021-07-25T08:23:42Z</time>
      </trkpt>
      <trkpt lat="39.8491710" lon="3.1280450">
        <ele>7.0</ele>
        <time>2021-07-25T08:23:54Z</time>
      </trkpt>
      <trkpt lat="39.8496280" lon="3.1275820">
        <ele>8.1</ele>
        <time>2021-07-25T08:24:05Z</time>
      </trkpt>
      <trkpt lat="39.8500830" lon="3.1271000">
        <ele>9.1</ele>
        <time>2021-07-25T08:24:17Z</time>
      </trkpt>
      <trkpt lat="39.8505100" lon="3.1266140">
        <ele>10.1</ele>
        <time>2021-07-25T08:24:29Z</time>
      </trkpt>
      <trkpt lat="39.8505770" lon="3.1265490">
        <ele>10.3</ele>
        <time>2021-07-25T08:24:33Z</time>
      </trkpt>
      <trkpt lat="39.8510420" lon="3.1261320">
        <ele>11.4</ele>
        <time>2021-07-25T08:24:55Z</time>
      </trkpt>
      <trkpt lat="39.8515070" lon="3.1257290">
        <ele>12.4</ele>
        <time>2021-07-25T08:25:06Z</time>
      </trkpt>
      <trkpt lat="39.8515480" lon="3.1256870">
        <ele>12.5</ele>
        <time>2021-07-25T08:25:07Z</time>
      </trkpt>
      <trkpt lat="39.8515890" lon="3.1256470">
        <ele>12.6</ele>
        <time>2021-07-25T08:25:08Z</time>
      </trkpt>
      <trkpt lat="39.8516620" lon="3.1255650">
        <ele>12.7</ele>
        <time>2021-07-25T08:25:10Z</time>
      </trkpt>
      <trkpt lat="39.8517000" lon="3.1255260">
        <ele>12.8</ele>
        <time>2021-07-25T08:25:11Z</time>
      </trkpt>
      <trkpt lat="39.8517340" lon="3.1254920">
        <ele>12.9</ele>
        <time>2021-07-25T08:25:12Z</time>
      </trkpt>
      <trkpt lat="39.8517900" lon="3.1254490">
        <ele>12.9</ele>
        <time>2021-07-25T08:25:14Z</time>
      </trkpt>
      <trkpt lat="39.8518420" lon="3.1254100">
        <ele>13.0</ele>
        <time>2021-07-25T08:25:17Z</time>
      </trkpt>
      <trkpt lat="39.8518660" lon="3.1253850">
        <ele>13.0</ele>
        <time>2021-07-25T08:25:19Z</time>
      </trkpt>
      <trkpt lat="39.8518850" lon="3.1253660">
        <ele>13.0</ele>
        <time>2021-07-25T08:25:25Z</time>
      </trkpt>
      <trkpt lat="39.8518670" lon="3.1253540">
        <ele>13.1</ele>
        <time>2021-07-25T08:25:29Z</time>
      </trkpt>
      <trkpt lat="39.8518530" lon="3.1253530">
        <ele>13.1</ele>
        <time>2021-07-25T08:25:34Z</time>
      </trkpt>
      <trkpt lat="39.8518530" lon="3.1253530">
        <ele>13.1</ele>
        <time>2021-07-25T08:25:35Z</time>
      </trkpt>
      <trkpt lat="39.8518460" lon="3.1253470">
        <ele>13.1</ele>
        <time>2021-07-25T08:25:37Z</time>
      </trkpt>
      <trkpt lat="39.8518450" lon="3.1253460">
        <ele>13.1</ele>
        <time>2021-07-25T08:25:40Z</time>
      </trkpt>
      <trkpt lat="39.8518460" lon="3.1253470">
        <ele>13.1</ele>
        <time>2021-07-25T08:25:41Z</time>
      </trkpt>
      <trkpt lat="39.8518280" lon="3.1253320">
        <ele>13.1</ele>
        <time>2021-07-25T08:25:49Z</time>
      </trkpt>
      <trkpt lat="39.8518220" lon="3.1253230">
        <ele>13.1</ele>
        <time>2021-07-25T08:25:51Z</time>
      </trkpt>
      <trkpt lat="39.8519650" lon="3.1244050">
        <ele>12.3</ele>
        <time>2021-07-25T08:26:43Z</time>
      </trkpt>
      <trkpt lat="39.8519450" lon="3.1243240">
        <ele>12.2</ele>
        <time>2021-07-25T08:26:44Z</time>
      </trkpt>
      <trkpt lat="39.8518100" lon="3.1237980">
        <ele>12.1</ele>
        <time>2021-07-25T08:26:50Z</time>
      </trkpt>
      <trkpt lat="39.8517880" lon="3.1237080">
        <ele>12.1</ele>
        <time>2021-07-25T08:26:51Z</time>
      </trkpt>
      <trkpt lat="39.8517330" lon="3.1234510">
        <ele>12.2</ele>
        <time>2021-07-25T08:26:54Z</time>
      </trkpt>
      <trkpt lat="39.8517190" lon="3.1233750">
        <ele>12.3</ele>
        <time>2021-07-25T08:26:55Z</time>
      </trkpt>
      <trkpt lat="39.8517070" lon="3.1233060">
        <ele>12.3</ele>
        <time>2021-07-25T08:26:56Z</time>
      </trkpt>
      <trkpt lat="39.8516930" lon="3.1232470">
        <ele>12.4</ele>
        <time>2021-07-25T08:26:57Z</time>
      </trkpt>
      <trkpt lat="39.8516660" lon="3.1231500">
        <ele>12.5</ele>
        <time>2021-07-25T08:26:59Z</time>
      </trkpt>
      <trkpt lat="39.8516360" lon="3.1230510">
        <ele>12.6</ele>
        <time>2021-07-25T08:27:01Z</time>
      </trkpt>
      <trkpt lat="39.8516110" lon="3.1229520">
        <ele>12.7</ele>
        <time>2021-07-25T08:27:03Z</time>
      </trkpt>
      <trkpt lat="39.8516020" lon="3.1229080">
        <ele>12.8</ele>
        <time>2021-07-25T08:27:04Z</time>
      </trkpt>
      <trkpt lat="39.8515930" lon="3.1228700">
        <ele>12.8</ele>
        <time>2021-07-25T08:27:05Z</time>
      </trkpt>
      <trkpt lat="39.8515050" lon="3.1223990">
        <ele>13.4</ele>
        <time>2021-07-25T08:27:15Z</time>
      </trkpt>
      <trkpt lat="39.8514550" lon="3.1220910">
        <ele>13.9</ele>
        <time>2021-07-25T08:27:20Z</time>
      </trkpt>
      <trkpt lat="39.8514430" lon="3.1220310">
        <ele>14.0</ele>
        <time>2021-07-25T08:27:21Z</time>
      </trkpt>
      <trkpt lat="39.8514310" lon="3.1219700">
        <ele>14.1</ele>
        <time>2021-07-25T08:27:22Z</time>
      </trkpt>
      <trkpt lat="39.8514160" lon="3.1219070">
        <ele>14.2</ele>
        <time>2021-07-25T08:27:23Z</time>
      </trkpt>
      <trkpt lat="39.8514000" lon="3.1218480">
        <ele>14.3</ele>
        <time>2021-07-25T08:27:24Z</time>
      </trkpt>
      <trkpt lat="39.8513860" lon="3.1217880">
        <ele>14.4</ele>
        <time>2021-07-25T08:27:25Z</time>
      </trkpt>
      <trkpt lat="39.8512990" lon="3.1213020">
        <ele>15.3</ele>
        <time>2021-07-25T08:27:33Z</time>
      </trkpt>
      <trkpt lat="39.8512340" lon="3.1209870">
        <ele>15.9</ele>
        <time>2021-07-25T08:27:38Z</time>
      </trkpt>
      <trkpt lat="39.8512010" lon="3.1207870">
        <ele>16.2</ele>
        <time>2021-07-25T08:27:41Z</time>
      </trkpt>
      <trkpt lat="39.8511900" lon="3.1207200">
        <ele>16.4</ele>
        <time>2021-07-25T08:27:42Z</time>
      </trkpt>
      <trkpt lat="39.8511820" lon="3.1205790">
        <ele>16.6</ele>
        <time>2021-07-25T08:27:44Z</time>
      </trkpt>
      <trkpt lat="39.8512000" lon="3.1204470">
        <ele>16.6</ele>
        <time>2021-07-25T08:27:46Z</time>
      </trkpt>
      <trkpt lat="39.8512520" lon="3.1203440">
        <ele>16.6</ele>
        <time>2021-07-25T08:27:48Z</time>
      </trkpt>
      <trkpt lat="39.8513300" lon="3.1202700">
        <ele>16.5</ele>
        <time>2021-07-25T08:27:50Z</time>
      </trkpt>
      <trkpt lat="39.8518370" lon="3.1199260">
        <ele>15.3</ele>
        <time>2021-07-25T08:28:00Z</time>
      </trkpt>
      <trkpt lat="39.8521280" lon="3.1197050">
        <ele>14.3</ele>
        <time>2021-07-25T08:28:05Z</time>
      </trkpt>
      <trkpt lat="39.8522370" lon="3.1195880">
        <ele>13.9</ele>
        <time>2021-07-25T08:28:07Z</time>
      </trkpt>
      <trkpt lat="39.8522900" lon="3.1195220">
        <ele>13.7</ele>
        <time>2021-07-25T08:28:08Z</time>
      </trkpt>
      <trkpt lat="39.8523410" lon="3.1194500">
        <ele>13.6</ele>
        <time>2021-07-25T08:28:09Z</time>
      </trkpt>
      <trkpt lat="39.8523860" lon="3.1193710">
        <ele>13.5</ele>
        <time>2021-07-25T08:28:10Z</time>
      </trkpt>
      <trkpt lat="39.8524310" lon="3.1192910">
        <ele>13.4</ele>
        <time>2021-07-25T08:28:11Z</time>
      </trkpt>
      <trkpt lat="39.8524740" lon="3.1192060">
        <ele>13.3</ele>
        <time>2021-07-25T08:28:12Z</time>
      </trkpt>
      <trkpt lat="39.8526160" lon="3.1189610">
        <ele>13.3</ele>
        <time>2021-07-25T08:28:15Z</time>
      </trkpt>
      <trkpt lat="39.8526680" lon="3.1188920">
        <ele>13.2</ele>
        <time>2021-07-25T08:28:16Z</time>
      </trkpt>
      <trkpt lat="39.8527930" lon="3.1188050">
        <ele>13.3</ele>
        <time>2021-07-25T08:28:18Z</time>
      </trkpt>
      <trkpt lat="39.8529270" lon="3.1187700">
        <ele>13.4</ele>
        <time>2021-07-25T08:28:20Z</time>
      </trkpt>
      <trkpt lat="39.8530520" lon="3.1187330">
        <ele>13.3</ele>
        <time>2021-07-25T08:28:22Z</time>
      </trkpt>
      <trkpt lat="39.8531570" lon="3.1186440">
        <ele>13.2</ele>
        <time>2021-07-25T08:28:24Z</time>
      </trkpt>
      <trkpt lat="39.8531790" lon="3.1183960">
        <ele>13.1</ele>
        <time>2021-07-25T08:28:27Z</time>
      </trkpt>
      <trkpt lat="39.8531130" lon="3.1182300">
        <ele>13.0</ele>
        <time>2021-07-25T08:28:29Z</time>
      </trkpt>
      <trkpt lat="39.8527900" lon="3.1176510">
        <ele>12.5</ele>
        <time>2021-07-25T08:28:36Z</time>
      </trkpt>
      <trkpt lat="39.8524520" lon="3.1170580">
        <ele>11.2</ele>
        <time>2021-07-25T08:28:43Z</time>
      </trkpt>
      <trkpt lat="39.8521260" lon="3.1164780">
        <ele>9.8</ele>
        <time>2021-07-25T08:28:51Z</time>
      </trkpt>
      <trkpt lat="39.8518960" lon="3.1160460">
        <ele>9.0</ele>
        <time>2021-07-25T08:28:59Z</time>
      </trkpt>
      <trkpt lat="39.8517900" lon="3.1157580">
        <ele>8.6</ele>
        <time>2021-07-25T08:29:03Z</time>
      </trkpt>
      <trkpt lat="39.8517890" lon="3.1156090">
        <ele>8.5</ele>
        <time>2021-07-25T08:29:05Z</time>
      </trkpt>
      <trkpt lat="39.8518100" lon="3.1154920">
        <ele>8.4</ele>
        <time>2021-07-25T08:29:07Z</time>
      </trkpt>
      <trkpt lat="39.8521340" lon="3.1149040">
        <ele>7.7</ele>
        <time>2021-07-25T08:29:17Z</time>
      </trkpt>
      <trkpt lat="39.8523420" lon="3.1146350">
        <ele>7.8</ele>
        <time>2021-07-25T08:29:22Z</time>
      </trkpt>
      <trkpt lat="39.8527180" lon="3.1141200">
        <ele>7.4</ele>
        <time>2021-07-25T08:29:31Z</time>
      </trkpt>
      <trkpt lat="39.8530790" lon="3.1135960">
        <ele>6.9</ele>
        <time>2021-07-25T08:29:40Z</time>
      </trkpt>
      <trkpt lat="39.8534730" lon="3.1130260">
        <ele>6.6</ele>
        <time>2021-07-25T08:29:49Z</time>
      </trkpt>
      <trkpt lat="39.8537860" lon="3.1125500">
        <ele>6.3</ele>
        <time>2021-07-25T08:29:56Z</time>
      </trkpt>
      <trkpt lat="39.8541540" lon="3.1119940">
        <ele>5.8</ele>
        <time>2021-07-25T08:30:04Z</time>
      </trkpt>
      <trkpt lat="39.8544790" lon="3.1114130">
        <ele>5.4</ele>
        <time>2021-07-25T08:30:12Z</time>
      </trkpt>
      <trkpt lat="39.8547720" lon="3.1108120">
        <ele>4.9</ele>
        <time>2021-07-25T08:30:20Z</time>
      </trkpt>
      <trkpt lat="39.8550540" lon="3.1101770">
        <ele>4.5</ele>
        <time>2021-07-25T08:30:28Z</time>
      </trkpt>
      <trkpt lat="39.8552190" lon="3.1097720">
        <ele>4.3</ele>
        <time>2021-07-25T08:30:33Z</time>
      </trkpt>
      <trkpt lat="39.8554860" lon="3.1091480">
        <ele>4.2</ele>
        <time>2021-07-25T08:30:41Z</time>
      </trkpt>
      <trkpt lat="39.8556170" lon="3.1088360">
        <ele>4.1</ele>
        <time>2021-07-25T08:30:45Z</time>
      </trkpt>
      <trkpt lat="39.8556480" lon="3.1087590">
        <ele>4.1</ele>
        <time>2021-07-25T08:30:46Z</time>
      </trkpt>
      <trkpt lat="39.8557130" lon="3.1086060">
        <ele>4.1</ele>
        <time>2021-07-25T08:30:48Z</time>
      </trkpt>
      <trkpt lat="39.8557440" lon="3.1085300">
        <ele>4.0</ele>
        <time>2021-07-25T08:30:49Z</time>
      </trkpt>
      <trkpt lat="39.8558460" lon="3.1082960">
        <ele>4.1</ele>
        <time>2021-07-25T08:30:52Z</time>
      </trkpt>
      <trkpt lat="39.8561390" lon="3.1076090">
        <ele>4.1</ele>
        <time>2021-07-25T08:31:01Z</time>
      </trkpt>
      <trkpt lat="39.8563360" lon="3.1071630">
        <ele>4.0</ele>
        <time>2021-07-25T08:31:07Z</time>
      </trkpt>
      <trkpt lat="39.8564650" lon="3.1068620">
        <ele>3.9</ele>
        <time>2021-07-25T08:31:11Z</time>
      </trkpt>
      <trkpt lat="39.8565320" lon="3.1067140">
        <ele>3.9</ele>
        <time>2021-07-25T08:31:13Z</time>
      </trkpt>
      <trkpt lat="39.8568290" lon="3.1060390">
        <ele>3.8</ele>
        <time>2021-07-25T08:31:22Z</time>
      </trkpt>
      <trkpt lat="39.8570000" lon="3.1056650">
        <ele>3.8</ele>
        <time>2021-07-25T08:31:27Z</time>
      </trkpt>
      <trkpt lat="39.8572380" lon="3.1051290">
        <ele>3.9</ele>
        <time>2021-07-25T08:31:34Z</time>
      </trkpt>
      <trkpt lat="39.8573440" lon="3.1048930">
        <ele>3.9</ele>
        <time>2021-07-25T08:31:37Z</time>
      </trkpt>
      <trkpt lat="39.8576370" lon="3.1042290">
        <ele>4.1</ele>
        <time>2021-07-25T08:31:46Z</time>
      </trkpt>
      <trkpt lat="39.8578980" lon="3.1036210">
        <ele>4.3</ele>
        <time>2021-07-25T08:31:55Z</time>
      </trkpt>
      <trkpt lat="39.8580960" lon="3.1029160">
        <ele>4.1</ele>
        <time>2021-07-25T08:32:04Z</time>
      </trkpt>
      <trkpt lat="39.8582780" lon="3.1022150">
        <ele>4.2</ele>
        <time>2021-07-25T08:32:13Z</time>
      </trkpt>
      <trkpt lat="39.8583640" lon="3.1018950">
        <ele>4.2</ele>
        <time>2021-07-25T08:32:17Z</time>
      </trkpt>
      <trkpt lat="39.8585320" lon="3.1012440">
        <ele>4.2</ele>
        <time>2021-07-25T08:32:25Z</time>
      </trkpt>
      <trkpt lat="39.8586360" lon="3.1005390">
        <ele>4.1</ele>
        <time>2021-07-25T08:32:33Z</time>
      </trkpt>
      <trkpt lat="39.8587540" lon="3.0998550">
        <ele>4.2</ele>
        <time>2021-07-25T08:32:41Z</time>
      </trkpt>
      <trkpt lat="39.8590240" lon="3.0991800">
        <ele>4.2</ele>
        <time>2021-07-25T08:32:50Z</time>
      </trkpt>
      <trkpt lat="39.8594310" lon="3.0986990">
        <ele>4.4</ele>
        <time>2021-07-25T08:33:01Z</time>
      </trkpt>
      <trkpt lat="39.8599440" lon="3.0983290">
        <ele>4.5</ele>
        <time>2021-07-25T08:33:11Z</time>
      </trkpt>
      <trkpt lat="39.8604230" lon="3.0979650">
        <ele>4.5</ele>
        <time>2021-07-25T08:33:20Z</time>
      </trkpt>
      <trkpt lat="39.8608130" lon="3.0976590">
        <ele>4.4</ele>
        <time>2021-07-25T08:33:27Z</time>
      </trkpt>
      <trkpt lat="39.8609260" lon="3.0975700">
        <ele>4.4</ele>
        <time>2021-07-25T08:33:29Z</time>
      </trkpt>
      <trkpt lat="39.8613870" lon="3.0971310">
        <ele>4.4</ele>
        <time>2021-07-25T08:33:38Z</time>
      </trkpt>
      <trkpt lat="39.8616650" lon="3.0967790">
        <ele>4.4</ele>
        <time>2021-07-25T08:33:44Z</time>
      </trkpt>
      <trkpt lat="39.8620600" lon="3.0962130">
        <ele>4.4</ele>
        <time>2021-07-25T08:33:53Z</time>
      </trkpt>
      <trkpt lat="39.8624470" lon="3.0956860">
        <ele>4.3</ele>
        <time>2021-07-25T08:34:02Z</time>
      </trkpt>
      <trkpt lat="39.8628580" lon="3.0951350">
        <ele>4.3</ele>
        <time>2021-07-25T08:34:12Z</time>
      </trkpt>
      <trkpt lat="39.8632680" lon="3.0945770">
        <ele>4.2</ele>
        <time>2021-07-25T08:34:22Z</time>
      </trkpt>
      <trkpt lat="39.8635310" lon="3.0941640">
        <ele>4.2</ele>
        <time>2021-07-25T08:34:29Z</time>
      </trkpt>
      <trkpt lat="39.8636050" lon="3.0940500">
        <ele>4.2</ele>
        <time>2021-07-25T08:34:31Z</time>
      </trkpt>
      <trkpt lat="39.8636750" lon="3.0939340">
        <ele>4.2</ele>
        <time>2021-07-25T08:34:33Z</time>
      </trkpt>
      <trkpt lat="39.8640410" lon="3.0933140">
        <ele>4.3</ele>
        <time>2021-07-25T08:34:43Z</time>
      </trkpt>
      <trkpt lat="39.8641650" lon="3.0931200">
        <ele>4.3</ele>
        <time>2021-07-25T08:34:46Z</time>
      </trkpt>
      <trkpt lat="39.8642840" lon="3.0929130">
        <ele>4.3</ele>
        <time>2021-07-25T08:34:49Z</time>
      </trkpt>
      <trkpt lat="39.8645160" lon="3.0924950">
        <ele>4.3</ele>
        <time>2021-07-25T08:34:55Z</time>
      </trkpt>
      <trkpt lat="39.8646740" lon="3.0922210">
        <ele>4.3</ele>
        <time>2021-07-25T08:34:59Z</time>
      </trkpt>
      <trkpt lat="39.8648710" lon="3.0918800">
        <ele>4.3</ele>
        <time>2021-07-25T08:35:04Z</time>
      </trkpt>
      <trkpt lat="39.8650360" lon="3.0916090">
        <ele>4.3</ele>
        <time>2021-07-25T08:35:08Z</time>
      </trkpt>
      <trkpt lat="39.8650780" lon="3.0915420">
        <ele>4.3</ele>
        <time>2021-07-25T08:35:09Z</time>
      </trkpt>
      <trkpt lat="39.8651210" lon="3.0914750">
        <ele>4.3</ele>
        <time>2021-07-25T08:35:10Z</time>
      </trkpt>
      <trkpt lat="39.8651650" lon="3.0914070">
        <ele>4.3</ele>
        <time>2021-07-25T08:35:11Z</time>
      </trkpt>
      <trkpt lat="39.8652070" lon="3.0913380">
        <ele>4.3</ele>
        <time>2021-07-25T08:35:12Z</time>
      </trkpt>
      <trkpt lat="39.8652910" lon="3.0911990">
        <ele>4.3</ele>
        <time>2021-07-25T08:35:14Z</time>
      </trkpt>
      <trkpt lat="39.8655980" lon="3.0907410">
        <ele>4.3</ele>
        <time>2021-07-25T08:35:21Z</time>
      </trkpt>
      <trkpt lat="39.8657990" lon="3.0905070">
        <ele>4.2</ele>
        <time>2021-07-25T08:35:25Z</time>
      </trkpt>
      <trkpt lat="39.8662210" lon="3.0900650">
        <ele>4.0</ele>
        <time>2021-07-25T08:35:33Z</time>
      </trkpt>
      <trkpt lat="39.8663830" lon="3.0899110">
        <ele>4.0</ele>
        <time>2021-07-25T08:35:36Z</time>
      </trkpt>
      <trkpt lat="39.8664390" lon="3.0898610">
        <ele>4.0</ele>
        <time>2021-07-25T08:35:37Z</time>
      </trkpt>
      <trkpt lat="39.8666050" lon="3.0897140">
        <ele>4.0</ele>
        <time>2021-07-25T08:35:40Z</time>
      </trkpt>
      <trkpt lat="39.8666600" lon="3.0896660">
        <ele>4.0</ele>
        <time>2021-07-25T08:35:41Z</time>
      </trkpt>
      <trkpt lat="39.8667160" lon="3.0896180">
        <ele>4.0</ele>
        <time>2021-07-25T08:35:42Z</time>
      </trkpt>
      <trkpt lat="39.8669910" lon="3.0893880">
        <ele>4.0</ele>
        <time>2021-07-25T08:35:47Z</time>
      </trkpt>
      <trkpt lat="39.8672060" lon="3.0892130">
        <ele>4.1</ele>
        <time>2021-07-25T08:35:51Z</time>
      </trkpt>
      <trkpt lat="39.8674220" lon="3.0890320">
        <ele>4.1</ele>
        <time>2021-07-25T08:35:55Z</time>
      </trkpt>
      <trkpt lat="39.8676490" lon="3.0888410">
        <ele>4.1</ele>
        <time>2021-07-25T08:35:59Z</time>
      </trkpt>
      <trkpt lat="39.8677070" lon="3.0887930">
        <ele>4.2</ele>
        <time>2021-07-25T08:36:00Z</time>
      </trkpt>
      <trkpt lat="39.8678220" lon="3.0886960">
        <ele>4.2</ele>
        <time>2021-07-25T08:36:01Z</time>
      </trkpt>
      <trkpt lat="39.8682950" lon="3.0883110">
        <ele>4.1</ele>
        <time>2021-07-25T08:36:10Z</time>
      </trkpt>
      <trkpt lat="39.8687880" lon="3.0879230">
        <ele>4.0</ele>
        <time>2021-07-25T08:36:18Z</time>
      </trkpt>
      <trkpt lat="39.8692470" lon="3.0875460">
        <ele>4.0</ele>
        <time>2021-07-25T08:36:26Z</time>
      </trkpt>
      <trkpt lat="39.8697110" lon="3.0871730">
        <ele>4.0</ele>
        <time>2021-07-25T08:36:34Z</time>
      </trkpt>
      <trkpt lat="39.8701790" lon="3.0867950">
        <ele>3.9</ele>
        <time>2021-07-25T08:36:42Z</time>
      </trkpt>
      <trkpt lat="39.8706630" lon="3.0864720">
        <ele>3.8</ele>
        <time>2021-07-25T08:36:50Z</time>
      </trkpt>
      <trkpt lat="39.8711590" lon="3.0861690">
        <ele>3.9</ele>
        <time>2021-07-25T08:36:58Z</time>
      </trkpt>
      <trkpt lat="39.8716590" lon="3.0858620">
        <ele>3.8</ele>
        <time>2021-07-25T08:37:06Z</time>
      </trkpt>
      <trkpt lat="39.8721610" lon="3.0855590">
        <ele>3.8</ele>
        <time>2021-07-25T08:37:14Z</time>
      </trkpt>
      <trkpt lat="39.8726520" lon="3.0852590">
        <ele>3.9</ele>
        <time>2021-07-25T08:37:22Z</time>
      </trkpt>
      <trkpt lat="39.8731430" lon="3.0849420">
        <ele>4.0</ele>
        <time>2021-07-25T08:37:30Z</time>
      </trkpt>
      <trkpt lat="39.8736340" lon="3.0846310">
        <ele>3.9</ele>
        <time>2021-07-25T08:37:38Z</time>
      </trkpt>
      <trkpt lat="39.8741450" lon="3.0843280">
        <ele>4.1</ele>
        <time>2021-07-25T08:37:46Z</time>
      </trkpt>
      <trkpt lat="39.8744680" lon="3.0841460">
        <ele>4.1</ele>
        <time>2021-07-25T08:37:51Z</time>
      </trkpt>
      <trkpt lat="39.8749160" lon="3.0838890">
        <ele>4.2</ele>
        <time>2021-07-25T08:37:58Z</time>
      </trkpt>
      <trkpt lat="39.8754740" lon="3.0835750">
        <ele>4.2</ele>
        <time>2021-07-25T08:38:07Z</time>
      </trkpt>
      <trkpt lat="39.8758480" lon="3.0833720">
        <ele>4.1</ele>
        <time>2021-07-25T08:38:13Z</time>
      </trkpt>
      <trkpt lat="39.8764060" lon="3.0830640">
        <ele>4.2</ele>
        <time>2021-07-25T08:38:22Z</time>
      </trkpt>
      <trkpt lat="39.8767160" lon="3.0829040">
        <ele>4.2</ele>
        <time>2021-07-25T08:38:27Z</time>
      </trkpt>
      <trkpt lat="39.8772770" lon="3.0826160">
        <ele>4.3</ele>
        <time>2021-07-25T08:38:36Z</time>
      </trkpt>
      <trkpt lat="39.8777870" lon="3.0823470">
        <ele>4.3</ele>
        <time>2021-07-25T08:38:44Z</time>
      </trkpt>
      <trkpt lat="39.8782990" lon="3.0820850">
        <ele>4.2</ele>
        <time>2021-07-25T08:38:52Z</time>
      </trkpt>
      <trkpt lat="39.8788540" lon="3.0818070">
        <ele>4.1</ele>
        <time>2021-07-25T08:39:01Z</time>
      </trkpt>
      <trkpt lat="39.8794280" lon="3.0815640">
        <ele>4.0</ele>
        <time>2021-07-25T08:39:10Z</time>
      </trkpt>
      <trkpt lat="39.8799970" lon="3.0813380">
        <ele>3.9</ele>
        <time>2021-07-25T08:39:19Z</time>
      </trkpt>
      <trkpt lat="39.8805670" lon="3.0811400">
        <ele>4.0</ele>
        <time>2021-07-25T08:39:28Z</time>
      </trkpt>
      <trkpt lat="39.8810010" lon="3.0809760">
        <ele>4.1</ele>
        <time>2021-07-25T08:39:35Z</time>
      </trkpt>
      <trkpt lat="39.8810640" lon="3.0809520">
        <ele>4.1</ele>
        <time>2021-07-25T08:39:36Z</time>
      </trkpt>
      <trkpt lat="39.8811280" lon="3.0809280">
        <ele>4.1</ele>
        <time>2021-07-25T08:39:37Z</time>
      </trkpt>
      <trkpt lat="39.8811920" lon="3.0809050">
        <ele>4.1</ele>
        <time>2021-07-25T08:39:38Z</time>
      </trkpt>
      <trkpt lat="39.8817570" lon="3.0806890">
        <ele>4.5</ele>
        <time>2021-07-25T08:39:47Z</time>
      </trkpt>
      <trkpt lat="39.8823120" lon="3.0805030">
        <ele>5.2</ele>
        <time>2021-07-25T08:39:56Z</time>
      </trkpt>
      <trkpt lat="39.8822350" lon="3.0805130">
        <ele>-1.4</ele>
        <time>2021-07-25T08:39:49Z</time>
      </trkpt>
      <trkpt lat="39.8822350" lon="3.0805130">
        <ele>-1.8</ele>
        <time>2021-07-25T08:39:55Z</time>
      </trkpt>
      <trkpt lat="39.8824810" lon="3.0804210">
        <ele>-2.4</ele>
        <time>2021-07-25T08:39:59Z</time>
      </trkpt>
      <trkpt lat="39.8825400" lon="3.0804000">
        <ele>-2.4</ele>
        <time>2021-07-25T08:40:00Z</time>
      </trkpt>
      <trkpt lat="39.8827700" lon="3.0803170">
        <ele>-2.2</ele>
        <time>2021-07-25T08:40:04Z</time>
      </trkpt>
      <trkpt lat="39.8830480" lon="3.0801900">
        <ele>-2.8</ele>
        <time>2021-07-25T08:40:09Z</time>
      </trkpt>
      <trkpt lat="39.8830980" lon="3.0801520">
        <ele>-2.8</ele>
        <time>2021-07-25T08:40:10Z</time>
      </trkpt>
      <trkpt lat="39.8833060" lon="3.0799620">
        <ele>-3.0</ele>
        <time>2021-07-25T08:40:14Z</time>
      </trkpt>
      <trkpt lat="39.8834150" lon="3.0798470">
        <ele>-3.0</ele>
        <time>2021-07-25T08:40:16Z</time>
      </trkpt>
      <trkpt lat="39.8835310" lon="3.0797340">
        <ele>-3.2</ele>
        <time>2021-07-25T08:40:18Z</time>
      </trkpt>
      <trkpt lat="39.8836610" lon="3.0796580">
        <ele>-4.0</ele>
        <time>2021-07-25T08:40:20Z</time>
      </trkpt>
      <trkpt lat="39.8839390" lon="3.0796310">
        <ele>-4.2</ele>
        <time>2021-07-25T08:40:24Z</time>
      </trkpt>
      <trkpt lat="39.8840080" lon="3.0796490">
        <ele>-4.0</ele>
        <time>2021-07-25T08:40:25Z</time>
      </trkpt>
      <trkpt lat="39.8843400" lon="3.0796870">
        <ele>-3.4</ele>
        <time>2021-07-25T08:40:30Z</time>
      </trkpt>
      <trkpt lat="39.8847130" lon="3.0795880">
        <ele>-3.8</ele>
        <time>2021-07-25T08:40:36Z</time>
      </trkpt>
      <trkpt lat="39.8852650" lon="3.0793870">
        <ele>-4.4</ele>
        <time>2021-07-25T08:40:45Z</time>
      </trkpt>
      <trkpt lat="39.8858130" lon="3.0791880">
        <ele>-4.0</ele>
        <time>2021-07-25T08:40:54Z</time>
      </trkpt>
      <trkpt lat="39.8863730" lon="3.0789870">
        <ele>-4.0</ele>
        <time>2021-07-25T08:41:03Z</time>
      </trkpt>
      <trkpt lat="39.8865010" lon="3.0789400">
        <ele>-4.0</ele>
        <time>2021-07-25T08:41:05Z</time>
      </trkpt>
      <trkpt lat="39.8870720" lon="3.0787150">
        <ele>-4.2</ele>
        <time>2021-07-25T08:41:14Z</time>
      </trkpt>
      <trkpt lat="39.8874410" lon="3.0785650">
        <ele>-4.4</ele>
        <time>2021-07-25T08:41:20Z</time>
      </trkpt>
      <trkpt lat="39.8879270" lon="3.0784110">
        <ele>-4.4</ele>
        <time>2021-07-25T08:41:28Z</time>
      </trkpt>
      <trkpt lat="39.8884920" lon="3.0782850">
        <ele>-4.4</ele>
        <time>2021-07-25T08:41:37Z</time>
      </trkpt>
      <trkpt lat="39.8889850" lon="3.0782520">
        <ele>-4.2</ele>
        <time>2021-07-25T08:41:45Z</time>
      </trkpt>
      <trkpt lat="39.8892980" lon="3.0782450">
        <ele>-4.4</ele>
        <time>2021-07-25T08:41:50Z</time>
      </trkpt>
      <trkpt lat="39.8893620" lon="3.0782480">
        <ele>-4.4</ele>
        <time>2021-07-25T08:41:51Z</time>
      </trkpt>
      <trkpt lat="39.8898650" lon="3.0782550">
        <ele>-4.6</ele>
        <time>2021-07-25T08:41:59Z</time>
      </trkpt>
      <trkpt lat="39.8903700" lon="3.0782580">
        <ele>-4.6</ele>
        <time>2021-07-25T08:42:07Z</time>
      </trkpt>
      <trkpt lat="39.8907370" lon="3.0782460">
        <ele>-4.8</ele>
        <time>2021-07-25T08:42:13Z</time>
      </trkpt>
      <trkpt lat="39.8912920" lon="3.0782500">
        <ele>-5.0</ele>
        <time>2021-07-25T08:42:22Z</time>
      </trkpt>
      <trkpt lat="39.8917260" lon="3.0782620">
        <ele>-5.0</ele>
        <time>2021-07-25T08:42:29Z</time>
      </trkpt>
      <trkpt lat="39.8921630" lon="3.0782560">
        <ele>-4.8</ele>
        <time>2021-07-25T08:42:36Z</time>
      </trkpt>
      <trkpt lat="39.8926170" lon="3.0782830">
        <ele>-5.0</ele>
        <time>2021-07-25T08:42:43Z</time>
      </trkpt>
      <trkpt lat="39.8926810" lon="3.0782850">
        <ele>-5.2</ele>
        <time>2021-07-25T08:42:44Z</time>
      </trkpt>
      <trkpt lat="39.8932420" lon="3.0782840">
        <ele>-5.4</ele>
        <time>2021-07-25T08:42:53Z</time>
      </trkpt>
      <trkpt lat="39.8938140" lon="3.0782840">
        <ele>-5.2</ele>
        <time>2021-07-25T08:43:02Z</time>
      </trkpt>
      <trkpt lat="39.8941890" lon="3.0782920">
        <ele>-5.4</ele>
        <time>2021-07-25T08:43:08Z</time>
      </trkpt>
      <trkpt lat="39.8946190" lon="3.0783050">
        <ele>-5.4</ele>
        <time>2021-07-25T08:43:15Z</time>
      </trkpt>
      <trkpt lat="39.8950000" lon="3.0783090">
        <ele>-5.8</ele>
        <time>2021-07-25T08:43:21Z</time>
      </trkpt>
      <trkpt lat="39.8953070" lon="3.0783280">
        <ele>-5.8</ele>
        <time>2021-07-25T08:43:26Z</time>
      </trkpt>
      <trkpt lat="39.8956140" lon="3.0783890">
        <ele>-6.0</ele>
        <time>2021-07-25T08:43:31Z</time>
      </trkpt>
      <trkpt lat="39.8959080" lon="3.0784630">
        <ele>-6.0</ele>
        <time>2021-07-25T08:43:36Z</time>
      </trkpt>
      <trkpt lat="39.8963270" lon="3.0785550">
        <ele>-6.2</ele>
        <time>2021-07-25T08:43:43Z</time>
      </trkpt>
      <trkpt lat="39.8968070" lon="3.0786850">
        <ele>-6.0</ele>
        <time>2021-07-25T08:43:51Z</time>
      </trkpt>
      <trkpt lat="39.8972220" lon="3.0787920">
        <ele>-5.8</ele>
        <time>2021-07-25T08:43:58Z</time>
      </trkpt>
      <trkpt lat="39.8976330" lon="3.0789070">
        <ele>-5.6</ele>
        <time>2021-07-25T08:44:05Z</time>
      </trkpt>
      <trkpt lat="39.8977450" lon="3.0789370">
        <ele>-5.6</ele>
        <time>2021-07-25T08:44:07Z</time>
      </trkpt>
      <trkpt lat="39.8979850" lon="3.0789840">
        <ele>-5.8</ele>
        <time>2021-07-25T08:44:11Z</time>
      </trkpt>
      <trkpt lat="39.8983930" lon="3.0791030">
        <ele>-5.8</ele>
        <time>2021-07-25T08:44:18Z</time>
      </trkpt>
      <trkpt lat="39.8987310" lon="3.0791960">
        <ele>-5.4</ele>
        <time>2021-07-25T08:44:24Z</time>
      </trkpt>
      <trkpt lat="39.8990790" lon="3.0792670">
        <ele>-5.2</ele>
        <time>2021-07-25T08:44:30Z</time>
      </trkpt>
      <trkpt lat="39.8993630" lon="3.0793180">
        <ele>-5.2</ele>
        <time>2021-07-25T08:44:35Z</time>
      </trkpt>
      <trkpt lat="39.8996570" lon="3.0793650">
        <ele>-5.2</ele>
        <time>2021-07-25T08:44:40Z</time>
      </trkpt>
      <trkpt lat="39.9000780" lon="3.0794220">
        <ele>-5.6</ele>
        <time>2021-07-25T08:44:47Z</time>
      </trkpt>
      <trkpt lat="39.9003780" lon="3.0794610">
        <ele>-6.0</ele>
        <time>2021-07-25T08:44:52Z</time>
      </trkpt>
      <trkpt lat="39.9006120" lon="3.0795100">
        <ele>-5.8</ele>
        <time>2021-07-25T08:44:56Z</time>
      </trkpt>
      <trkpt lat="39.9009720" lon="3.0795510">
        <ele>-6.2</ele>
        <time>2021-07-25T08:45:02Z</time>
      </trkpt>
      <trkpt lat="39.9013110" lon="3.0796100">
        <ele>-6.2</ele>
        <time>2021-07-25T08:45:08Z</time>
      </trkpt>
      <trkpt lat="39.9017660" lon="3.0797430">
        <ele>-5.8</ele>
        <time>2021-07-25T08:45:16Z</time>
      </trkpt>
      <trkpt lat="39.9020990" lon="3.0798900">
        <ele>-5.8</ele>
        <time>2021-07-25T08:45:22Z</time>
      </trkpt>
      <trkpt lat="39.9024480" lon="3.0800220">
        <ele>-5.0</ele>
        <time>2021-07-25T08:45:28Z</time>
      </trkpt>
      <trkpt lat="39.9027170" lon="3.0801600">
        <ele>-5.6</ele>
        <time>2021-07-25T08:45:33Z</time>
      </trkpt>
      <trkpt lat="39.9030320" lon="3.0803790">
        <ele>-5.8</ele>
        <time>2021-07-25T08:45:39Z</time>
      </trkpt>
      <trkpt lat="39.9030890" lon="3.0804160">
        <ele>-5.8</ele>
        <time>2021-07-25T08:45:40Z</time>
      </trkpt>
      <trkpt lat="39.9034670" lon="3.0806740">
        <ele>-5.8</ele>
        <time>2021-07-25T08:45:47Z</time>
      </trkpt>
      <trkpt lat="39.9037720" lon="3.0808990">
        <ele>-5.8</ele>
        <time>2021-07-25T08:45:53Z</time>
      </trkpt>
      <trkpt lat="39.9040300" lon="3.0810910">
        <ele>-5.6</ele>
        <time>2021-07-25T08:45:58Z</time>
      </trkpt>
      <trkpt lat="39.9043270" lon="3.0813250">
        <ele>-5.6</ele>
        <time>2021-07-25T08:46:04Z</time>
      </trkpt>
      <trkpt lat="39.9046840" lon="3.0815910">
        <ele>-5.8</ele>
        <time>2021-07-25T08:46:11Z</time>
      </trkpt>
      <trkpt lat="39.9049560" lon="3.0817630">
        <ele>-6.0</ele>
        <time>2021-07-25T08:46:16Z</time>
      </trkpt>
      <trkpt lat="39.9053230" lon="3.0820050">
        <ele>-5.8</ele>
        <time>2021-07-25T08:46:23Z</time>
      </trkpt>
      <trkpt lat="39.9053720" lon="3.0820350">
        <ele>-6.0</ele>
        <time>2021-07-25T08:46:24Z</time>
      </trkpt>
      <trkpt lat="39.9056250" lon="3.0821920">
        <ele>-6.0</ele>
        <time>2021-07-25T08:46:29Z</time>
      </trkpt>
      <trkpt lat="39.9058290" lon="3.0823380">
        <ele>-6.4</ele>
        <time>2021-07-25T08:46:33Z</time>
      </trkpt>
      <trkpt lat="39.9058850" lon="3.0823770">
        <ele>-6.4</ele>
        <time>2021-07-25T08:46:34Z</time>
      </trkpt>
      <trkpt lat="39.9059840" lon="3.0824740">
        <ele>-6.0</ele>
        <time>2021-07-25T08:46:36Z</time>
      </trkpt>
      <trkpt lat="39.9062010" lon="3.0827560">
        <ele>-5.8</ele>
        <time>2021-07-25T08:46:41Z</time>
      </trkpt>
      <trkpt lat="39.9062800" lon="3.0828490">
        <ele>-6.0</ele>
        <time>2021-07-25T08:46:43Z</time>
      </trkpt>
      <trkpt lat="39.9063710" lon="3.0828860">
        <ele>-6.0</ele>
        <time>2021-07-25T08:46:45Z</time>
      </trkpt>
      <trkpt lat="39.9064970" lon="3.0827670">
        <ele>-6.0</ele>
        <time>2021-07-25T08:46:48Z</time>
      </trkpt>
      <trkpt lat="39.9065290" lon="3.0827200">
        <ele>-5.8</ele>
        <time>2021-07-25T08:46:49Z</time>
      </trkpt>
      <trkpt lat="39.9065860" lon="3.0826180">
        <ele>-5.6</ele>
        <time>2021-07-25T08:46:52Z</time>
      </trkpt>
      <trkpt lat="39.9067040" lon="3.0825040">
        <ele>-5.8</ele>
        <time>2021-07-25T08:46:57Z</time>
      </trkpt>
      <trkpt lat="39.9068560" lon="3.0824000">
        <ele>-6.0</ele>
        <time>2021-07-25T08:47:03Z</time>
      </trkpt>
      <trkpt lat="39.9068740" lon="3.0823950">
        <ele>-6.0</ele>
        <time>2021-07-25T08:47:05Z</time>
      </trkpt>
      <trkpt lat="39.9069070" lon="3.0823820">
        <ele>-6.0</ele>
        <time>2021-07-25T08:47:07Z</time>
      </trkpt>
      <trkpt lat="39.9069920" lon="3.0823780">
        <ele>-5.8</ele>
        <time>2021-07-25T08:47:11Z</time>
      </trkpt>
      <trkpt lat="39.9070240" lon="3.0824080">
        <ele>-5.8</ele>
        <time>2021-07-25T08:47:12Z</time>
      </trkpt>
      <trkpt lat="39.9071960" lon="3.0825880">
        <ele>-5.6</ele>
        <time>2021-07-25T08:47:17Z</time>
      </trkpt>
      <trkpt lat="39.9073570" lon="3.0827780">
        <ele>-5.4</ele>
        <time>2021-07-25T08:47:22Z</time>
      </trkpt>
      <trkpt lat="39.9073920" lon="3.0828110">
        <ele>-5.4</ele>
        <time>2021-07-25T08:47:23Z</time>
      </trkpt>
      <trkpt lat="39.9075830" lon="3.0830160">
        <ele>-5.2</ele>
        <time>2021-07-25T08:47:29Z</time>
      </trkpt>
      <trkpt lat="39.9077700" lon="3.0832070">
        <ele>-5.4</ele>
        <time>2021-07-25T08:47:34Z</time>
      </trkpt>
      <trkpt lat="39.9081090" lon="3.0834870">
        <ele>-5.4</ele>
        <time>2021-07-25T08:47:42Z</time>
      </trkpt>
      <trkpt lat="39.9082520" lon="3.0836460">
        <ele>-5.4</ele>
        <time>2021-07-25T08:47:46Z</time>
      </trkpt>
      <trkpt lat="39.9082990" lon="3.0836820">
        <ele>-5.4</ele>
        <time>2021-07-25T08:47:47Z</time>
      </trkpt>
      <trkpt lat="39.9084340" lon="3.0838170">
        <ele>-6.4</ele>
        <time>2021-07-25T08:47:50Z</time>
      </trkpt>
      <trkpt lat="39.9085610" lon="3.0839670">
        <ele>-6.8</ele>
        <time>2021-07-25T08:47:53Z</time>
      </trkpt>
      <trkpt lat="39.9088830" lon="3.0843250">
        <ele>-6.0</ele>
        <time>2021-07-25T08:48:00Z</time>
      </trkpt>
      <trkpt lat="39.9092140" lon="3.0846090">
        <ele>-5.4</ele>
        <time>2021-07-25T08:48:06Z</time>
      </trkpt>
      <trkpt lat="39.9095410" lon="3.0849620">
        <ele>-6.2</ele>
        <time>2021-07-25T08:48:13Z</time>
      </trkpt>
      <trkpt lat="39.9098140" lon="3.0852490">
        <ele>-6.0</ele>
        <time>2021-07-25T08:48:19Z</time>
      </trkpt>
      <trkpt lat="39.9100760" lon="3.0855760">
        <ele>-6.4</ele>
        <time>2021-07-25T08:48:25Z</time>
      </trkpt>
      <trkpt lat="39.9102940" lon="3.0858750">
        <ele>-5.6</ele>
        <time>2021-07-25T08:48:30Z</time>
      </trkpt>
      <trkpt lat="39.9103310" lon="3.0859430">
        <ele>-5.6</ele>
        <time>2021-07-25T08:48:31Z</time>
      </trkpt>
      <trkpt lat="39.9105410" lon="3.0862340">
        <ele>-5.8</ele>
        <time>2021-07-25T08:48:36Z</time>
      </trkpt>
      <trkpt lat="39.9106690" lon="3.0864150">
        <ele>-5.6</ele>
        <time>2021-07-25T08:48:39Z</time>
      </trkpt>
      <trkpt lat="39.9107500" lon="3.0865430">
        <ele>-5.6</ele>
        <time>2021-07-25T08:48:41Z</time>
      </trkpt>
      <trkpt lat="39.9109960" lon="3.0869370">
        <ele>-6.0</ele>
        <time>2021-07-25T08:48:47Z</time>
      </trkpt>
      <trkpt lat="39.9112070" lon="3.0873480">
        <ele>-6.0</ele>
        <time>2021-07-25T08:48:53Z</time>
      </trkpt>
      <trkpt lat="39.9113450" lon="3.0876890">
        <ele>-5.6</ele>
        <time>2021-07-25T08:48:58Z</time>
      </trkpt>
      <trkpt lat="39.9114260" lon="3.0880680">
        <ele>-5.6</ele>
        <time>2021-07-25T08:49:03Z</time>
      </trkpt>
      <trkpt lat="39.9115770" lon="3.0885190">
        <ele>-5.6</ele>
        <time>2021-07-25T08:49:09Z</time>
      </trkpt>
      <trkpt lat="39.9116880" lon="3.0889980">
        <ele>-5.6</ele>
        <time>2021-07-25T08:49:15Z</time>
      </trkpt>
      <trkpt lat="39.9117020" lon="3.0890800">
        <ele>-5.6</ele>
        <time>2021-07-25T08:49:16Z</time>
      </trkpt>
      <trkpt lat="39.9117040" lon="3.0893180">
        <ele>-5.8</ele>
        <time>2021-07-25T08:49:19Z</time>
      </trkpt>
      <trkpt lat="39.9117230" lon="3.0899750">
        <ele>-5.8</ele>
        <time>2021-07-25T08:49:27Z</time>
      </trkpt>
      <trkpt lat="39.9117260" lon="3.0902250">
        <ele>-6.0</ele>
        <time>2021-07-25T08:49:30Z</time>
      </trkpt>
      <trkpt lat="39.9117240" lon="3.0904780">
        <ele>-5.8</ele>
        <time>2021-07-25T08:49:33Z</time>
      </trkpt>
      <trkpt lat="39.9117440" lon="3.0911380">
        <ele>-5.4</ele>
        <time>2021-07-25T08:49:41Z</time>
      </trkpt>
      <trkpt lat="39.9117460" lon="3.0918070">
        <ele>-5.6</ele>
        <time>2021-07-25T08:49:49Z</time>
      </trkpt>
      <trkpt lat="39.9117110" lon="3.0919740">
        <ele>-5.2</ele>
        <time>2021-07-25T08:49:51Z</time>
      </trkpt>
      <trkpt lat="39.9116540" lon="3.0922300">
        <ele>-5.0</ele>
        <time>2021-07-25T08:49:54Z</time>
      </trkpt>
      <trkpt lat="39.9115050" lon="3.0928970">
        <ele>-5.4</ele>
        <time>2021-07-25T08:50:02Z</time>
      </trkpt>
      <trkpt lat="39.9113700" lon="3.0934750">
        <ele>-4.8</ele>
        <time>2021-07-25T08:50:09Z</time>
      </trkpt>
      <trkpt lat="39.9112380" lon="3.0940680">
        <ele>-4.6</ele>
        <time>2021-07-25T08:50:16Z</time>
      </trkpt>
      <trkpt lat="39.9111880" lon="3.0943220">
        <ele>-4.4</ele>
        <time>2021-07-25T08:50:19Z</time>
      </trkpt>
      <trkpt lat="39.9111350" lon="3.0945590">
        <ele>-4.4</ele>
        <time>2021-07-25T08:50:22Z</time>
      </trkpt>
      <trkpt lat="39.9110250" lon="3.0951360">
        <ele>-4.2</ele>
        <time>2021-07-25T08:50:29Z</time>
      </trkpt>
      <trkpt lat="39.9109030" lon="3.0956990">
        <ele>-3.8</ele>
        <time>2021-07-25T08:50:36Z</time>
      </trkpt>
      <trkpt lat="39.9107750" lon="3.0962630">
        <ele>-3.6</ele>
        <time>2021-07-25T08:50:43Z</time>
      </trkpt>
      <trkpt lat="39.9107570" lon="3.0963450">
        <ele>-3.4</ele>
        <time>2021-07-25T08:50:44Z</time>
      </trkpt>
      <trkpt lat="39.9106590" lon="3.0968190">
        <ele>-3.4</ele>
        <time>2021-07-25T08:50:50Z</time>
      </trkpt>
      <trkpt lat="39.9105650" lon="3.0973290">
        <ele>-3.2</ele>
        <time>2021-07-25T08:50:56Z</time>
      </trkpt>
      <trkpt lat="39.9104730" lon="3.0980410">
        <ele>-3.8</ele>
        <time>2021-07-25T08:51:04Z</time>
      </trkpt>
      <trkpt lat="39.9104340" lon="3.0984720">
        <ele>-4.2</ele>
        <time>2021-07-25T08:51:09Z</time>
      </trkpt>
      <trkpt lat="39.9104470" lon="3.0985540">
        <ele>-4.2</ele>
        <time>2021-07-25T08:51:10Z</time>
      </trkpt>
      <trkpt lat="39.9105650" lon="3.0987120">
        <ele>-4.2</ele>
        <time>2021-07-25T08:51:13Z</time>
      </trkpt>
      <trkpt lat="39.9106160" lon="3.0987490">
        <ele>-4.0</ele>
        <time>2021-07-25T08:51:14Z</time>
      </trkpt>
      <trkpt lat="39.9108450" lon="3.0988580">
        <ele>-3.6</ele>
        <time>2021-07-25T08:51:18Z</time>
      </trkpt>
      <trkpt lat="39.9110830" lon="3.0989630">
        <ele>-3.0</ele>
        <time>2021-07-25T08:51:23Z</time>
      </trkpt>
      <trkpt lat="39.9111650" lon="3.0990000">
        <ele>-2.6</ele>
        <time>2021-07-25T08:51:25Z</time>
      </trkpt>
      <trkpt lat="39.9112140" lon="3.0990110">
        <ele>-2.4</ele>
        <time>2021-07-25T08:51:26Z</time>
      </trkpt>
      <trkpt lat="39.9113340" lon="3.0990380">
        <ele>-2.0</ele>
        <time>2021-07-25T08:51:28Z</time>
      </trkpt>
      <trkpt lat="39.9115060" lon="3.0991220">
        <ele>-1.6</ele>
        <time>2021-07-25T08:51:31Z</time>
      </trkpt>
      <trkpt lat="39.9116670" lon="3.0991830">
        <ele>-1.0</ele>
        <time>2021-07-25T08:51:34Z</time>
      </trkpt>
      <trkpt lat="39.9118300" lon="3.0992520">
        <ele>-0.6</ele>
        <time>2021-07-25T08:51:37Z</time>
      </trkpt>
      <trkpt lat="39.9119710" lon="3.0993010">
        <ele>0.0</ele>
        <time>2021-07-25T08:51:40Z</time>
      </trkpt>
      <trkpt lat="39.9121070" lon="3.0993690">
        <ele>0.6</ele>
        <time>2021-07-25T08:51:43Z</time>
      </trkpt>
      <trkpt lat="39.9122880" lon="3.0994460">
        <ele>1.2</ele>
        <time>2021-07-25T08:51:46Z</time>
      </trkpt>
      <trkpt lat="39.9124090" lon="3.0995090">
        <ele>1.4</ele>
        <time>2021-07-25T08:51:48Z</time>
      </trkpt>
      <trkpt lat="39.9125260" lon="3.0995840">
        <ele>1.6</ele>
        <time>2021-07-25T08:51:50Z</time>
      </trkpt>
      <trkpt lat="39.9125820" lon="3.0996290">
        <ele>1.8</ele>
        <time>2021-07-25T08:51:51Z</time>
      </trkpt>
      <trkpt lat="39.9126450" lon="3.0997540">
        <ele>2.4</ele>
        <time>2021-07-25T08:51:53Z</time>
      </trkpt>
      <trkpt lat="39.9126330" lon="3.0999720">
        <ele>2.6</ele>
        <time>2021-07-25T08:51:56Z</time>
      </trkpt>
      <trkpt lat="39.9125540" lon="3.1004840">
        <ele>1.6</ele>
        <time>2021-07-25T08:52:03Z</time>
      </trkpt>
      <trkpt lat="39.9124430" lon="3.1010440">
        <ele>2.2</ele>
        <time>2021-07-25T08:52:10Z</time>
      </trkpt>
      <trkpt lat="39.9123170" lon="3.1016750">
        <ele>2.4</ele>
        <time>2021-07-25T08:52:18Z</time>
      </trkpt>
      <trkpt lat="39.9122680" lon="3.1020520">
        <ele>2.6</ele>
        <time>2021-07-25T08:52:23Z</time>
      </trkpt>
      <trkpt lat="39.9122730" lon="3.1022020">
        <ele>2.6</ele>
        <time>2021-07-25T08:52:25Z</time>
      </trkpt>
      <trkpt lat="39.9122860" lon="3.1022760">
        <ele>2.8</ele>
        <time>2021-07-25T08:52:26Z</time>
      </trkpt>
      <trkpt lat="39.9123590" lon="3.1024790">
        <ele>3.4</ele>
        <time>2021-07-25T08:52:29Z</time>
      </trkpt>
      <trkpt lat="39.9123920" lon="3.1025400">
        <ele>3.8</ele>
        <time>2021-07-25T08:52:30Z</time>
      </trkpt>
      <trkpt lat="39.9125050" lon="3.1026780">
        <ele>4.4</ele>
        <time>2021-07-25T08:52:33Z</time>
      </trkpt>
      <trkpt lat="39.9125880" lon="3.1027450">
        <ele>4.8</ele>
        <time>2021-07-25T08:52:35Z</time>
      </trkpt>
      <trkpt lat="39.9127930" lon="3.1028860">
        <ele>5.8</ele>
        <time>2021-07-25T08:52:40Z</time>
      </trkpt>
      <trkpt lat="39.9128330" lon="3.1029150">
        <ele>6.0</ele>
        <time>2021-07-25T08:52:41Z</time>
      </trkpt>
      <trkpt lat="39.9129510" lon="3.1029970">
        <ele>7.0</ele>
        <time>2021-07-25T08:52:44Z</time>
      </trkpt>
      <trkpt lat="39.9130710" lon="3.1030780">
        <ele>7.6</ele>
        <time>2021-07-25T08:52:47Z</time>
      </trkpt>
      <trkpt lat="39.9131110" lon="3.1031030">
        <ele>8.0</ele>
        <time>2021-07-25T08:52:48Z</time>
      </trkpt>
      <trkpt lat="39.9132170" lon="3.1031780">
        <ele>9.2</ele>
        <time>2021-07-25T08:52:51Z</time>
      </trkpt>
      <trkpt lat="39.9133790" lon="3.1032970">
        <ele>9.8</ele>
        <time>2021-07-25T08:52:55Z</time>
      </trkpt>
      <trkpt lat="39.9134530" lon="3.1033510">
        <ele>10.2</ele>
        <time>2021-07-25T08:52:57Z</time>
      </trkpt>
      <trkpt lat="39.9135940" lon="3.1034430">
        <ele>11.0</ele>
        <time>2021-07-25T08:53:01Z</time>
      </trkpt>
      <trkpt lat="39.9138150" lon="3.1035830">
        <ele>12.0</ele>
        <time>2021-07-25T08:53:07Z</time>
      </trkpt>
      <trkpt lat="39.9138840" lon="3.1036300">
        <ele>12.2</ele>
        <time>2021-07-25T08:53:09Z</time>
      </trkpt>
      <trkpt lat="39.9140200" lon="3.1037360">
        <ele>13.4</ele>
        <time>2021-07-25T08:53:13Z</time>
      </trkpt>
      <trkpt lat="39.9140550" lon="3.1037560">
        <ele>13.6</ele>
        <time>2021-07-25T08:53:14Z</time>
      </trkpt>
      <trkpt lat="39.9141890" lon="3.1038420">
        <ele>14.4</ele>
        <time>2021-07-25T08:53:18Z</time>
      </trkpt>
      <trkpt lat="39.9143140" lon="3.1039470">
        <ele>15.2</ele>
        <time>2021-07-25T08:53:22Z</time>
      </trkpt>
      <trkpt lat="39.9143790" lon="3.1039900">
        <ele>15.6</ele>
        <time>2021-07-25T08:53:24Z</time>
      </trkpt>
      <trkpt lat="39.9145290" lon="3.1040960">
        <ele>16.8</ele>
        <time>2021-07-25T08:53:29Z</time>
      </trkpt>
      <trkpt lat="39.9145570" lon="3.1041180">
        <ele>17.2</ele>
        <time>2021-07-25T08:53:30Z</time>
      </trkpt>
      <trkpt lat="39.9146440" lon="3.1041830">
        <ele>18.0</ele>
        <time>2021-07-25T08:53:33Z</time>
      </trkpt>
      <trkpt lat="39.9147440" lon="3.1042560">
        <ele>19.2</ele>
        <time>2021-07-25T08:53:37Z</time>
      </trkpt>
      <trkpt lat="39.9148390" lon="3.1043360">
        <ele>20.4</ele>
        <time>2021-07-25T08:53:41Z</time>
      </trkpt>
      <trkpt lat="39.9148930" lon="3.1044280">
        <ele>21.2</ele>
        <time>2021-07-25T08:53:44Z</time>
      </trkpt>
      <trkpt lat="39.9148980" lon="3.1044630">
        <ele>21.6</ele>
        <time>2021-07-25T08:53:45Z</time>
      </trkpt>
      <trkpt lat="39.9148660" lon="3.1046020">
        <ele>22.6</ele>
        <time>2021-07-25T08:53:49Z</time>
      </trkpt>
      <trkpt lat="39.9147650" lon="3.1046750">
        <ele>23.8</ele>
        <time>2021-07-25T08:53:53Z</time>
      </trkpt>
      <trkpt lat="39.9147190" lon="3.1046700">
        <ele>24.0</ele>
        <time>2021-07-25T08:53:54Z</time>
      </trkpt>
      <trkpt lat="39.9146300" lon="3.1046470">
        <ele>24.6</ele>
        <time>2021-07-25T08:53:56Z</time>
      </trkpt>
      <trkpt lat="39.9145470" lon="3.1046190">
        <ele>25.0</ele>
        <time>2021-07-25T08:53:58Z</time>
      </trkpt>
      <trkpt lat="39.9144080" lon="3.1045690">
        <ele>25.6</ele>
        <time>2021-07-25T08:54:01Z</time>
      </trkpt>
      <trkpt lat="39.9143100" lon="3.1045430">
        <ele>26.0</ele>
        <time>2021-07-25T08:54:03Z</time>
      </trkpt>
      <trkpt lat="39.9141280" lon="3.1044950">
        <ele>27.0</ele>
        <time>2021-07-25T08:54:07Z</time>
      </trkpt>
      <trkpt lat="39.9139540" lon="3.1044500">
        <ele>28.2</ele>
        <time>2021-07-25T08:54:11Z</time>
      </trkpt>
      <trkpt lat="39.9137420" lon="3.1043870">
        <ele>29.4</ele>
        <time>2021-07-25T08:54:16Z</time>
      </trkpt>
      <trkpt lat="39.9136530" lon="3.1043610">
        <ele>29.8</ele>
        <time>2021-07-25T08:54:18Z</time>
      </trkpt>
      <trkpt lat="39.9134660" lon="3.1043210">
        <ele>30.6</ele>
        <time>2021-07-25T08:54:22Z</time>
      </trkpt>
      <trkpt lat="39.9133220" lon="3.1042870">
        <ele>31.4</ele>
        <time>2021-07-25T08:54:25Z</time>
      </trkpt>
      <trkpt lat="39.9132230" lon="3.1042650">
        <ele>31.6</ele>
        <time>2021-07-25T08:54:27Z</time>
      </trkpt>
      <trkpt lat="39.9129920" lon="3.1042040">
        <ele>32.2</ele>
        <time>2021-07-25T08:54:32Z</time>
      </trkpt>
      <trkpt lat="39.9129470" lon="3.1041920">
        <ele>32.4</ele>
        <time>2021-07-25T08:54:33Z</time>
      </trkpt>
      <trkpt lat="39.9129030" lon="3.1041810">
        <ele>32.6</ele>
        <time>2021-07-25T08:54:34Z</time>
      </trkpt>
      <trkpt lat="39.9128140" lon="3.1041570">
        <ele>33.0</ele>
        <time>2021-07-25T08:54:36Z</time>
      </trkpt>
      <trkpt lat="39.9126300" lon="3.1041060">
        <ele>33.4</ele>
        <time>2021-07-25T08:54:40Z</time>
      </trkpt>
      <trkpt lat="39.9124830" lon="3.1040870">
        <ele>33.8</ele>
        <time>2021-07-25T08:54:43Z</time>
      </trkpt>
      <trkpt lat="39.9122970" lon="3.1040680">
        <ele>34.4</ele>
        <time>2021-07-25T08:54:47Z</time>
      </trkpt>
      <trkpt lat="39.9121160" lon="3.1040710">
        <ele>35.0</ele>
        <time>2021-07-25T08:54:51Z</time>
      </trkpt>
      <trkpt lat="39.9119540" lon="3.1040860">
        <ele>35.6</ele>
        <time>2021-07-25T08:54:55Z</time>
      </trkpt>
      <trkpt lat="39.9118690" lon="3.1040920">
        <ele>36.0</ele>
        <time>2021-07-25T08:54:57Z</time>
      </trkpt>
      <trkpt lat="39.9117100" lon="3.1040950">
        <ele>36.4</ele>
        <time>2021-07-25T08:55:01Z</time>
      </trkpt>
      <trkpt lat="39.9116360" lon="3.1040990">
        <ele>37.0</ele>
        <time>2021-07-25T08:55:03Z</time>
      </trkpt>
      <trkpt lat="39.9115990" lon="3.1041110">
        <ele>37.2</ele>
        <time>2021-07-25T08:55:04Z</time>
      </trkpt>
      <trkpt lat="39.9115420" lon="3.1041870">
        <ele>37.6</ele>
        <time>2021-07-25T08:55:06Z</time>
      </trkpt>
      <trkpt lat="39.9115380" lon="3.1043410">
        <ele>38.2</ele>
        <time>2021-07-25T08:55:09Z</time>
      </trkpt>
      <trkpt lat="39.9116580" lon="3.1044360">
        <ele>39.0</ele>
        <time>2021-07-25T08:55:12Z</time>
      </trkpt>
      <trkpt lat="39.9117100" lon="3.1044540">
        <ele>39.0</ele>
        <time>2021-07-25T08:55:13Z</time>
      </trkpt>
      <trkpt lat="39.9117640" lon="3.1044730">
        <ele>39.2</ele>
        <time>2021-07-25T08:55:14Z</time>
      </trkpt>
      <trkpt lat="39.9118670" lon="3.1045090">
        <ele>39.6</ele>
        <time>2021-07-25T08:55:16Z</time>
      </trkpt>
      <trkpt lat="39.9120140" lon="3.1045780">
        <ele>40.4</ele>
        <time>2021-07-25T08:55:19Z</time>
      </trkpt>
      <trkpt lat="39.9121460" lon="3.1046030">
        <ele>41.8</ele>
        <time>2021-07-25T08:55:22Z</time>
      </trkpt>
      <trkpt lat="39.9122920" lon="3.1045480">
        <ele>42.8</ele>
        <time>2021-07-25T08:55:26Z</time>
      </trkpt>
      <trkpt lat="39.9123370" lon="3.1045620">
        <ele>42.8</ele>
        <time>2021-07-25T08:55:27Z</time>
      </trkpt>
      <trkpt lat="39.9124420" lon="3.1044980">
        <ele>43.6</ele>
        <time>2021-07-25T08:55:31Z</time>
      </trkpt>
      <trkpt lat="39.9124730" lon="3.1045030">
        <ele>43.8</ele>
        <time>2021-07-25T08:55:32Z</time>
      </trkpt>
      <trkpt lat="39.9126330" lon="3.1045660">
        <ele>45.2</ele>
        <time>2021-07-25T08:55:37Z</time>
      </trkpt>
      <trkpt lat="39.9126630" lon="3.1045820">
        <ele>45.4</ele>
        <time>2021-07-25T08:55:38Z</time>
      </trkpt>
      <trkpt lat="39.9127530" lon="3.1046240">
        <ele>46.4</ele>
        <time>2021-07-25T08:55:41Z</time>
      </trkpt>
      <trkpt lat="39.9128250" lon="3.1046970">
        <ele>47.2</ele>
        <time>2021-07-25T08:55:44Z</time>
      </trkpt>
      <trkpt lat="39.9128670" lon="3.1047420">
        <ele>47.8</ele>
        <time>2021-07-25T08:55:46Z</time>
      </trkpt>
      <trkpt lat="39.9129930" lon="3.1048650">
        <ele>49.2</ele>
        <time>2021-07-25T08:55:51Z</time>
      </trkpt>
      <trkpt lat="39.9130210" lon="3.1048900">
        <ele>49.4</ele>
        <time>2021-07-25T08:55:52Z</time>
      </trkpt>
      <trkpt lat="39.9131320" lon="3.1049530">
        <ele>50.2</ele>
        <time>2021-07-25T08:55:56Z</time>
      </trkpt>
      <trkpt lat="39.9131880" lon="3.1049650">
        <ele>51.0</ele>
        <time>2021-07-25T08:55:58Z</time>
      </trkpt>
      <trkpt lat="39.9132850" lon="3.1049760">
        <ele>51.6</ele>
        <time>2021-07-25T08:56:01Z</time>
      </trkpt>
      <trkpt lat="39.9134100" lon="3.1050050">
        <ele>52.6</ele>
        <time>2021-07-25T08:56:05Z</time>
      </trkpt>
      <trkpt lat="39.9134420" lon="3.1050140">
        <ele>52.8</ele>
        <time>2021-07-25T08:56:06Z</time>
      </trkpt>
      <trkpt lat="39.9136330" lon="3.1051040">
        <ele>53.8</ele>
        <time>2021-07-25T08:56:12Z</time>
      </trkpt>
      <trkpt lat="39.9136640" lon="3.1051220">
        <ele>54.0</ele>
        <time>2021-07-25T08:56:13Z</time>
      </trkpt>
      <trkpt lat="39.9137340" lon="3.1051790">
        <ele>55.0</ele>
        <time>2021-07-25T08:56:16Z</time>
      </trkpt>
      <trkpt lat="39.9137570" lon="3.1051980">
        <ele>55.2</ele>
        <time>2021-07-25T08:56:17Z</time>
      </trkpt>
      <trkpt lat="39.9138880" lon="3.1053150">
        <ele>56.2</ele>
        <time>2021-07-25T08:56:22Z</time>
      </trkpt>
      <trkpt lat="39.9139290" lon="3.1053630">
        <ele>56.8</ele>
        <time>2021-07-25T08:56:24Z</time>
      </trkpt>
      <trkpt lat="39.9140200" lon="3.1054460">
        <ele>57.4</ele>
        <time>2021-07-25T08:56:28Z</time>
      </trkpt>
      <trkpt lat="39.9141160" lon="3.1055080">
        <ele>57.8</ele>
        <time>2021-07-25T08:56:31Z</time>
      </trkpt>
      <trkpt lat="39.9142660" lon="3.1056130">
        <ele>58.6</ele>
        <time>2021-07-25T08:56:36Z</time>
      </trkpt>
      <trkpt lat="39.9142920" lon="3.1056350">
        <ele>59.0</ele>
        <time>2021-07-25T08:56:37Z</time>
      </trkpt>
      <trkpt lat="39.9143730" lon="3.1056990">
        <ele>59.6</ele>
        <time>2021-07-25T08:56:40Z</time>
      </trkpt>
      <trkpt lat="39.9145070" lon="3.1058240">
        <ele>60.8</ele>
        <time>2021-07-25T08:56:45Z</time>
      </trkpt>
      <trkpt lat="39.9146270" lon="3.1059520">
        <ele>62.0</ele>
        <time>2021-07-25T08:56:50Z</time>
      </trkpt>
      <trkpt lat="39.9146710" lon="3.1060050">
        <ele>62.4</ele>
        <time>2021-07-25T08:56:52Z</time>
      </trkpt>
      <trkpt lat="39.9147610" lon="3.1061290">
        <ele>63.2</ele>
        <time>2021-07-25T08:56:56Z</time>
      </trkpt>
      <trkpt lat="39.9148140" lon="3.1062200">
        <ele>63.8</ele>
        <time>2021-07-25T08:56:59Z</time>
      </trkpt>
      <trkpt lat="39.9148820" lon="3.1063200">
        <ele>64.4</ele>
        <time>2021-07-25T08:57:02Z</time>
      </trkpt>
      <trkpt lat="39.9149600" lon="3.1064270">
        <ele>65.0</ele>
        <time>2021-07-25T08:57:05Z</time>
      </trkpt>
      <trkpt lat="39.9150250" lon="3.1064870">
        <ele>65.6</ele>
        <time>2021-07-25T08:57:07Z</time>
      </trkpt>
      <trkpt lat="39.9151090" lon="3.1065760">
        <ele>66.2</ele>
        <time>2021-07-25T08:57:10Z</time>
      </trkpt>
      <trkpt lat="39.9151640" lon="3.1066360">
        <ele>66.6</ele>
        <time>2021-07-25T08:57:12Z</time>
      </trkpt>
      <trkpt lat="39.9152660" lon="3.1067300">
        <ele>67.8</ele>
        <time>2021-07-25T08:57:16Z</time>
      </trkpt>
      <trkpt lat="39.9153960" lon="3.1068670">
        <ele>69.0</ele>
        <time>2021-07-25T08:57:21Z</time>
      </trkpt>
      <trkpt lat="39.9154170" lon="3.1068950">
        <ele>69.4</ele>
        <time>2021-07-25T08:57:22Z</time>
      </trkpt>
      <trkpt lat="39.9154990" lon="3.1069820">
        <ele>70.2</ele>
        <time>2021-07-25T08:57:25Z</time>
      </trkpt>
      <trkpt lat="39.9155780" lon="3.1070590">
        <ele>71.0</ele>
        <time>2021-07-25T08:57:28Z</time>
      </trkpt>
      <trkpt lat="39.9155900" lon="3.1070830">
        <ele>71.2</ele>
        <time>2021-07-25T08:57:29Z</time>
      </trkpt>
      <trkpt lat="39.9156890" lon="3.1071950">
        <ele>72.0</ele>
        <time>2021-07-25T08:57:33Z</time>
      </trkpt>
      <trkpt lat="39.9157150" lon="3.1072180">
        <ele>72.4</ele>
        <time>2021-07-25T08:57:34Z</time>
      </trkpt>
      <trkpt lat="39.9157770" lon="3.1073020">
        <ele>73.0</ele>
        <time>2021-07-25T08:57:37Z</time>
      </trkpt>
      <trkpt lat="39.9158270" lon="3.1073600">
        <ele>73.6</ele>
        <time>2021-07-25T08:57:39Z</time>
      </trkpt>
      <trkpt lat="39.9158970" lon="3.1074400">
        <ele>74.0</ele>
        <time>2021-07-25T08:57:42Z</time>
      </trkpt>
      <trkpt lat="39.9160240" lon="3.1075850">
        <ele>75.4</ele>
        <time>2021-07-25T08:57:47Z</time>
      </trkpt>
      <trkpt lat="39.9161180" lon="3.1077110">
        <ele>76.6</ele>
        <time>2021-07-25T08:57:52Z</time>
      </trkpt>
      <trkpt lat="39.9161600" lon="3.1077640">
        <ele>76.8</ele>
        <time>2021-07-25T08:57:54Z</time>
      </trkpt>
      <trkpt lat="39.9162320" lon="3.1078650">
        <ele>77.8</ele>
        <time>2021-07-25T08:57:58Z</time>
      </trkpt>
      <trkpt lat="39.9162950" lon="3.1079500">
        <ele>78.4</ele>
        <time>2021-07-25T08:58:01Z</time>
      </trkpt>
      <trkpt lat="39.9163440" lon="3.1079930">
        <ele>79.0</ele>
        <time>2021-07-25T08:58:03Z</time>
      </trkpt>
      <trkpt lat="39.9164390" lon="3.1080110">
        <ele>79.8</ele>
        <time>2021-07-25T08:58:06Z</time>
      </trkpt>
      <trkpt lat="39.9165080" lon="3.1080050">
        <ele>80.0</ele>
        <time>2021-07-25T08:58:08Z</time>
      </trkpt>
      <trkpt lat="39.9166070" lon="3.1079520">
        <ele>80.4</ele>
        <time>2021-07-25T08:58:11Z</time>
      </trkpt>
      <trkpt lat="39.9167130" lon="3.1078350">
        <ele>80.8</ele>
        <time>2021-07-25T08:58:15Z</time>
      </trkpt>
      <trkpt lat="39.9167620" lon="3.1077670">
        <ele>81.0</ele>
        <time>2021-07-25T08:58:17Z</time>
      </trkpt>
      <trkpt lat="39.9168290" lon="3.1076700">
        <ele>82.0</ele>
        <time>2021-07-25T08:58:20Z</time>
      </trkpt>
      <trkpt lat="39.9169030" lon="3.1075760">
        <ele>82.4</ele>
        <time>2021-07-25T08:58:23Z</time>
      </trkpt>
      <trkpt lat="39.9169510" lon="3.1075140">
        <ele>83.0</ele>
        <time>2021-07-25T08:58:25Z</time>
      </trkpt>
      <trkpt lat="39.9170840" lon="3.1073230">
        <ele>84.2</ele>
        <time>2021-07-25T08:58:31Z</time>
      </trkpt>
      <trkpt lat="39.9171070" lon="3.1072900">
        <ele>84.4</ele>
        <time>2021-07-25T08:58:32Z</time>
      </trkpt>
      <trkpt lat="39.9171730" lon="3.1071910">
        <ele>85.2</ele>
        <time>2021-07-25T08:58:35Z</time>
      </trkpt>
      <trkpt lat="39.9172550" lon="3.1070590">
        <ele>86.4</ele>
        <time>2021-07-25T08:58:39Z</time>
      </trkpt>
      <trkpt lat="39.9172740" lon="3.1070230">
        <ele>86.6</ele>
        <time>2021-07-25T08:58:40Z</time>
      </trkpt>
      <trkpt lat="39.9173180" lon="3.1068700">
        <ele>87.2</ele>
        <time>2021-07-25T08:58:44Z</time>
      </trkpt>
      <trkpt lat="39.9173200" lon="3.1068290">
        <ele>87.4</ele>
        <time>2021-07-25T08:58:45Z</time>
      </trkpt>
      <trkpt lat="39.9172920" lon="3.1066050">
        <ele>88.6</ele>
        <time>2021-07-25T08:58:50Z</time>
      </trkpt>
      <trkpt lat="39.9172790" lon="3.1065610">
        <ele>88.6</ele>
        <time>2021-07-25T08:58:51Z</time>
      </trkpt>
      <trkpt lat="39.9172320" lon="3.1063920">
        <ele>89.6</ele>
        <time>2021-07-25T08:58:55Z</time>
      </trkpt>
      <trkpt lat="39.9172010" lon="3.1062190">
        <ele>90.4</ele>
        <time>2021-07-25T08:58:59Z</time>
      </trkpt>
      <trkpt lat="39.9171950" lon="3.1061770">
        <ele>90.8</ele>
        <time>2021-07-25T08:59:00Z</time>
      </trkpt>
      <trkpt lat="39.9171940" lon="3.1059490">
        <ele>91.6</ele>
        <time>2021-07-25T08:59:05Z</time>
      </trkpt>
      <trkpt lat="39.9172030" lon="3.1058980">
        <ele>92.0</ele>
        <time>2021-07-25T08:59:06Z</time>
      </trkpt>
      <trkpt lat="39.9172730" lon="3.1057250">
        <ele>92.8</ele>
        <time>2021-07-25T08:59:10Z</time>
      </trkpt>
      <trkpt lat="39.9172960" lon="3.1056980">
        <ele>93.0</ele>
        <time>2021-07-25T08:59:11Z</time>
      </trkpt>
      <trkpt lat="39.9173990" lon="3.1056630">
        <ele>93.6</ele>
        <time>2021-07-25T08:59:14Z</time>
      </trkpt>
      <trkpt lat="39.9174490" lon="3.1056740">
        <ele>94.0</ele>
        <time>2021-07-25T08:59:15Z</time>
      </trkpt>
      <trkpt lat="39.9175710" lon="3.1056790">
        <ele>94.8</ele>
        <time>2021-07-25T08:59:18Z</time>
      </trkpt>
      <trkpt lat="39.9176780" lon="3.1057250">
        <ele>95.6</ele>
        <time>2021-07-25T08:59:21Z</time>
      </trkpt>
      <trkpt lat="39.9177120" lon="3.1057350">
        <ele>96.0</ele>
        <time>2021-07-25T08:59:22Z</time>
      </trkpt>
      <trkpt lat="39.9178420" lon="3.1057920">
        <ele>96.8</ele>
        <time>2021-07-25T08:59:26Z</time>
      </trkpt>
      <trkpt lat="39.9178740" lon="3.1058090">
        <ele>97.0</ele>
        <time>2021-07-25T08:59:27Z</time>
      </trkpt>
      <trkpt lat="39.9179460" lon="3.1058760">
        <ele>98.2</ele>
        <time>2021-07-25T08:59:30Z</time>
      </trkpt>
      <trkpt lat="39.9180160" lon="3.1059350">
        <ele>99.2</ele>
        <time>2021-07-25T08:59:33Z</time>
      </trkpt>
      <trkpt lat="39.9181340" lon="3.1060250">
        <ele>100.0</ele>
        <time>2021-07-25T08:59:38Z</time>
      </trkpt>
      <trkpt lat="39.9181590" lon="3.1060440">
        <ele>100.2</ele>
        <time>2021-07-25T08:59:39Z</time>
      </trkpt>
      <trkpt lat="39.9182730" lon="3.1061130">
        <ele>101.0</ele>
        <time>2021-07-25T08:59:43Z</time>
      </trkpt>
      <trkpt lat="39.9183220" lon="3.1061470">
        <ele>101.4</ele>
        <time>2021-07-25T08:59:45Z</time>
      </trkpt>
      <trkpt lat="39.9184070" lon="3.1062090">
        <ele>102.0</ele>
        <time>2021-07-25T08:59:48Z</time>
      </trkpt>
      <trkpt lat="39.9184990" lon="3.1062620">
        <ele>102.6</ele>
        <time>2021-07-25T08:59:51Z</time>
      </trkpt>
      <trkpt lat="39.9185260" lon="3.1062810">
        <ele>103.0</ele>
        <time>2021-07-25T08:59:52Z</time>
      </trkpt>
      <trkpt lat="39.9185890" lon="3.1063430">
        <ele>104.2</ele>
        <time>2021-07-25T08:59:55Z</time>
      </trkpt>
      <trkpt lat="39.9186630" lon="3.1063960">
        <ele>104.6</ele>
        <time>2021-07-25T08:59:58Z</time>
      </trkpt>
      <trkpt lat="39.9187460" lon="3.1064470">
        <ele>105.2</ele>
        <time>2021-07-25T09:00:01Z</time>
      </trkpt>
      <trkpt lat="39.9188310" lon="3.1064980">
        <ele>106.0</ele>
        <time>2021-07-25T09:00:04Z</time>
      </trkpt>
      <trkpt lat="39.9188610" lon="3.1065110">
        <ele>106.2</ele>
        <time>2021-07-25T09:00:05Z</time>
      </trkpt>
      <trkpt lat="39.9190090" lon="3.1065870">
        <ele>107.4</ele>
        <time>2021-07-25T09:00:10Z</time>
      </trkpt>
      <trkpt lat="39.9191610" lon="3.1066790">
        <ele>108.0</ele>
        <time>2021-07-25T09:00:15Z</time>
      </trkpt>
      <trkpt lat="39.9191890" lon="3.1066970">
        <ele>108.4</ele>
        <time>2021-07-25T09:00:16Z</time>
      </trkpt>
      <trkpt lat="39.9193010" lon="3.1068040">
        <ele>109.2</ele>
        <time>2021-07-25T09:00:21Z</time>
      </trkpt>
      <trkpt lat="39.9194100" lon="3.1068780">
        <ele>110.4</ele>
        <time>2021-07-25T09:00:25Z</time>
      </trkpt>
      <trkpt lat="39.9194560" lon="3.1069080">
        <ele>111.0</ele>
        <time>2021-07-25T09:00:27Z</time>
      </trkpt>
      <trkpt lat="39.9194820" lon="3.1069230">
        <ele>111.4</ele>
        <time>2021-07-25T09:00:28Z</time>
      </trkpt>
      <trkpt lat="39.9195970" lon="3.1069800">
        <ele>112.4</ele>
        <time>2021-07-25T09:00:32Z</time>
      </trkpt>
      <trkpt lat="39.9196190" lon="3.1069940">
        <ele>112.6</ele>
        <time>2021-07-25T09:00:33Z</time>
      </trkpt>
      <trkpt lat="39.9197300" lon="3.1070480">
        <ele>113.6</ele>
        <time>2021-07-25T09:00:37Z</time>
      </trkpt>
      <trkpt lat="39.9197560" lon="3.1070590">
        <ele>114.0</ele>
        <time>2021-07-25T09:00:38Z</time>
      </trkpt>
      <trkpt lat="39.9198060" lon="3.1070710">
        <ele>114.6</ele>
        <time>2021-07-25T09:00:40Z</time>
      </trkpt>
      <trkpt lat="39.9199010" lon="3.1070550">
        <ele>115.0</ele>
        <time>2021-07-25T09:00:43Z</time>
      </trkpt>
      <trkpt lat="39.9199580" lon="3.1070440">
        <ele>115.6</ele>
        <time>2021-07-25T09:00:45Z</time>
      </trkpt>
      <trkpt lat="39.9200550" lon="3.1070490">
        <ele>116.2</ele>
        <time>2021-07-25T09:00:48Z</time>
      </trkpt>
      <trkpt lat="39.9200820" lon="3.1070440">
        <ele>116.6</ele>
        <time>2021-07-25T09:00:49Z</time>
      </trkpt>
      <trkpt lat="39.9201900" lon="3.1070290">
        <ele>117.4</ele>
        <time>2021-07-25T09:00:53Z</time>
      </trkpt>
      <trkpt lat="39.9202170" lon="3.1070300">
        <ele>117.8</ele>
        <time>2021-07-25T09:00:54Z</time>
      </trkpt>
      <trkpt lat="39.9203390" lon="3.1070490">
        <ele>118.6</ele>
        <time>2021-07-25T09:00:58Z</time>
      </trkpt>
      <trkpt lat="39.9203730" lon="3.1070560">
        <ele>119.0</ele>
        <time>2021-07-25T09:00:59Z</time>
      </trkpt>
      <trkpt lat="39.9204560" lon="3.1070550">
        <ele>119.8</ele>
        <time>2021-07-25T09:01:02Z</time>
      </trkpt>
      <trkpt lat="39.9205570" lon="3.1070380">
        <ele>120.8</ele>
        <time>2021-07-25T09:01:06Z</time>
      </trkpt>
      <trkpt lat="39.9206560" lon="3.1070650">
        <ele>121.8</ele>
        <time>2021-07-25T09:01:09Z</time>
      </trkpt>
      <trkpt lat="39.9207190" lon="3.1070650">
        <ele>122.4</ele>
        <time>2021-07-25T09:01:11Z</time>
      </trkpt>
      <trkpt lat="39.9208030" lon="3.1070660">
        <ele>122.8</ele>
        <time>2021-07-25T09:01:14Z</time>
      </trkpt>
      <trkpt lat="39.9209190" lon="3.1070700">
        <ele>123.8</ele>
        <time>2021-07-25T09:01:18Z</time>
      </trkpt>
      <trkpt lat="39.9209480" lon="3.1070750">
        <ele>124.2</ele>
        <time>2021-07-25T09:01:19Z</time>
      </trkpt>
      <trkpt lat="39.9210310" lon="3.1070850">
        <ele>125.0</ele>
        <time>2021-07-25T09:01:22Z</time>
      </trkpt>
      <trkpt lat="39.9211790" lon="3.1071040">
        <ele>126.0</ele>
        <time>2021-07-25T09:01:27Z</time>
      </trkpt>
      <trkpt lat="39.9212620" lon="3.1071340">
        <ele>127.0</ele>
        <time>2021-07-25T09:01:30Z</time>
      </trkpt>
      <trkpt lat="39.9213620" lon="3.1071810">
        <ele>127.8</ele>
        <time>2021-07-25T09:01:34Z</time>
      </trkpt>
      <trkpt lat="39.9214130" lon="3.1072030">
        <ele>128.4</ele>
        <time>2021-07-25T09:01:36Z</time>
      </trkpt>
      <trkpt lat="39.9215480" lon="3.1072490">
        <ele>129.4</ele>
        <time>2021-07-25T09:01:40Z</time>
      </trkpt>
      <trkpt lat="39.9215780" lon="3.1072630">
        <ele>129.8</ele>
        <time>2021-07-25T09:01:41Z</time>
      </trkpt>
      <trkpt lat="39.9217010" lon="3.1073090">
        <ele>130.6</ele>
        <time>2021-07-25T09:01:45Z</time>
      </trkpt>
      <trkpt lat="39.9217870" lon="3.1073300">
        <ele>130.8</ele>
        <time>2021-07-25T09:01:48Z</time>
      </trkpt>
      <trkpt lat="39.9219050" lon="3.1073510">
        <ele>131.4</ele>
        <time>2021-07-25T09:01:52Z</time>
      </trkpt>
      <trkpt lat="39.9220550" lon="3.1073700">
        <ele>132.4</ele>
        <time>2021-07-25T09:01:57Z</time>
      </trkpt>
      <trkpt lat="39.9220860" lon="3.1073740">
        <ele>132.6</ele>
        <time>2021-07-25T09:01:58Z</time>
      </trkpt>
      <trkpt lat="39.9222480" lon="3.1074100">
        <ele>133.6</ele>
        <time>2021-07-25T09:02:03Z</time>
      </trkpt>
      <trkpt lat="39.9223430" lon="3.1074390">
        <ele>134.2</ele>
        <time>2021-07-25T09:02:06Z</time>
      </trkpt>
      <trkpt lat="39.9224020" lon="3.1074660">
        <ele>134.8</ele>
        <time>2021-07-25T09:02:08Z</time>
      </trkpt>
      <trkpt lat="39.9225070" lon="3.1075340">
        <ele>135.8</ele>
        <time>2021-07-25T09:02:12Z</time>
      </trkpt>
      <trkpt lat="39.9225320" lon="3.1075480">
        <ele>136.0</ele>
        <time>2021-07-25T09:02:13Z</time>
      </trkpt>
      <trkpt lat="39.9226480" lon="3.1076010">
        <ele>137.0</ele>
        <time>2021-07-25T09:02:17Z</time>
      </trkpt>
      <trkpt lat="39.9227610" lon="3.1076520">
        <ele>138.0</ele>
        <time>2021-07-25T09:02:20Z</time>
      </trkpt>
      <trkpt lat="39.9228700" lon="3.1076980">
        <ele>139.2</ele>
        <time>2021-07-25T09:02:23Z</time>
      </trkpt>
      <trkpt lat="39.9230270" lon="3.1077490">
        <ele>140.0</ele>
        <time>2021-07-25T09:02:27Z</time>
      </trkpt>
      <trkpt lat="39.9231010" lon="3.1077650">
        <ele>140.6</ele>
        <time>2021-07-25T09:02:29Z</time>
      </trkpt>
      <trkpt lat="39.9231730" lon="3.1077920">
        <ele>141.2</ele>
        <time>2021-07-25T09:02:31Z</time>
      </trkpt>
      <trkpt lat="39.9232900" lon="3.1078230">
        <ele>142.2</ele>
        <time>2021-07-25T09:02:34Z</time>
      </trkpt>
      <trkpt lat="39.9233280" lon="3.1078310">
        <ele>142.6</ele>
        <time>2021-07-25T09:02:35Z</time>
      </trkpt>
      <trkpt lat="39.9234830" lon="3.1078530">
        <ele>143.6</ele>
        <time>2021-07-25T09:02:39Z</time>
      </trkpt>
      <trkpt lat="39.9235580" lon="3.1078620">
        <ele>144.2</ele>
        <time>2021-07-25T09:02:41Z</time>
      </trkpt>
      <trkpt lat="39.9236740" lon="3.1078660">
        <ele>144.8</ele>
        <time>2021-07-25T09:02:44Z</time>
      </trkpt>
      <trkpt lat="39.9237840" lon="3.1078250">
        <ele>145.0</ele>
        <time>2021-07-25T09:02:47Z</time>
      </trkpt>
      <trkpt lat="39.9238220" lon="3.1078080">
        <ele>145.6</ele>
        <time>2021-07-25T09:02:48Z</time>
      </trkpt>
      <trkpt lat="39.9240040" lon="3.1077220">
        <ele>146.8</ele>
        <time>2021-07-25T09:02:53Z</time>
      </trkpt>
      <trkpt lat="39.9240390" lon="3.1077080">
        <ele>147.0</ele>
        <time>2021-07-25T09:02:54Z</time>
      </trkpt>
      <trkpt lat="39.9241770" lon="3.1076410">
        <ele>148.0</ele>
        <time>2021-07-25T09:02:58Z</time>
      </trkpt>
      <trkpt lat="39.9242660" lon="3.1075900">
        <ele>149.0</ele>
        <time>2021-07-25T09:03:01Z</time>
      </trkpt>
      <trkpt lat="39.9242960" lon="3.1075720">
        <ele>149.4</ele>
        <time>2021-07-25T09:03:02Z</time>
      </trkpt>
      <trkpt lat="39.9244160" lon="3.1075310">
        <ele>150.6</ele>
        <time>2021-07-25T09:03:06Z</time>
      </trkpt>
      <trkpt lat="39.9244500" lon="3.1075460">
        <ele>151.0</ele>
        <time>2021-07-25T09:03:07Z</time>
      </trkpt>
      <trkpt lat="39.9244820" lon="3.1075670">
        <ele>151.6</ele>
        <time>2021-07-25T09:03:08Z</time>
      </trkpt>
      <trkpt lat="39.9245740" lon="3.1076930">
        <ele>152.8</ele>
        <time>2021-07-25T09:03:12Z</time>
      </trkpt>
      <trkpt lat="39.9246730" lon="3.1079090">
        <ele>153.8</ele>
        <time>2021-07-25T09:03:18Z</time>
      </trkpt>
      <trkpt lat="39.9246900" lon="3.1079430">
        <ele>154.0</ele>
        <time>2021-07-25T09:03:19Z</time>
      </trkpt>
      <trkpt lat="39.9247710" lon="3.1081330">
        <ele>154.8</ele>
        <time>2021-07-25T09:03:24Z</time>
      </trkpt>
      <trkpt lat="39.9248040" lon="3.1082120">
        <ele>155.4</ele>
        <time>2021-07-25T09:03:26Z</time>
      </trkpt>
      <trkpt lat="39.9248260" lon="3.1082830">
        <ele>156.0</ele>
        <time>2021-07-25T09:03:28Z</time>
      </trkpt>
      <trkpt lat="39.9249200" lon="3.1084480">
        <ele>156.8</ele>
        <time>2021-07-25T09:03:33Z</time>
      </trkpt>
      <trkpt lat="39.9249460" lon="3.1084770">
        <ele>157.0</ele>
        <time>2021-07-25T09:03:34Z</time>
      </trkpt>
      <trkpt lat="39.9250370" lon="3.1085360">
        <ele>158.0</ele>
        <time>2021-07-25T09:03:37Z</time>
      </trkpt>
      <trkpt lat="39.9251030" lon="3.1085530">
        <ele>158.4</ele>
        <time>2021-07-25T09:03:39Z</time>
      </trkpt>
      <trkpt lat="39.9252030" lon="3.1085550">
        <ele>159.0</ele>
        <time>2021-07-25T09:03:42Z</time>
      </trkpt>
      <trkpt lat="39.9253350" lon="3.1085640">
        <ele>160.2</ele>
        <time>2021-07-25T09:03:46Z</time>
      </trkpt>
      <trkpt lat="39.9254620" lon="3.1086050">
        <ele>161.2</ele>
        <time>2021-07-25T09:03:50Z</time>
      </trkpt>
      <trkpt lat="39.9255150" lon="3.1086570">
        <ele>161.6</ele>
        <time>2021-07-25T09:03:52Z</time>
      </trkpt>
      <trkpt lat="39.9255640" lon="3.1087110">
        <ele>162.4</ele>
        <time>2021-07-25T09:03:54Z</time>
      </trkpt>
      <trkpt lat="39.9256360" lon="3.1088330">
        <ele>163.2</ele>
        <time>2021-07-25T09:03:58Z</time>
      </trkpt>
      <trkpt lat="39.9256650" lon="3.1089020">
        <ele>163.4</ele>
        <time>2021-07-25T09:04:00Z</time>
      </trkpt>
      <trkpt lat="39.9257200" lon="3.1090420">
        <ele>164.6</ele>
        <time>2021-07-25T09:04:04Z</time>
      </trkpt>
      <trkpt lat="39.9257710" lon="3.1091440">
        <ele>165.6</ele>
        <time>2021-07-25T09:04:07Z</time>
      </trkpt>
      <trkpt lat="39.9258060" lon="3.1092120">
        <ele>165.6</ele>
        <time>2021-07-25T09:04:08Z</time>
      </trkpt>
      <trkpt lat="39.9258990" lon="3.1093400">
        <ele>166.8</ele>
        <time>2021-07-25T09:04:13Z</time>
      </trkpt>
      <trkpt lat="39.9259550" lon="3.1093870">
        <ele>167.0</ele>
        <time>2021-07-25T09:04:14Z</time>
      </trkpt>
      <trkpt lat="39.9260860" lon="3.1094340">
        <ele>167.8</ele>
        <time>2021-07-25T09:04:18Z</time>
      </trkpt>
      <trkpt lat="39.9260860" lon="3.1094340">
        <ele>168.2</ele>
        <time>2021-07-25T09:04:19Z</time>
      </trkpt>
      <trkpt lat="39.9262680" lon="3.1094210">
        <ele>168.6</ele>
        <time>2021-07-25T09:04:23Z</time>
      </trkpt>
      <trkpt lat="39.9263010" lon="3.1094250">
        <ele>169.0</ele>
        <time>2021-07-25T09:04:25Z</time>
      </trkpt>
      <trkpt lat="39.9264680" lon="3.1094470">
        <ele>170.0</ele>
        <time>2021-07-25T09:04:29Z</time>
      </trkpt>
      <trkpt lat="39.9265560" lon="3.1094950">
        <ele>171.0</ele>
        <time>2021-07-25T09:04:32Z</time>
      </trkpt>
      <trkpt lat="39.9265560" lon="3.1094950">
        <ele>171.2</ele>
        <time>2021-07-25T09:04:33Z</time>
      </trkpt>
      <trkpt lat="39.9266580" lon="3.1096070">
        <ele>172.8</ele>
        <time>2021-07-25T09:04:37Z</time>
      </trkpt>
      <trkpt lat="39.9267650" lon="3.1097260">
        <ele>173.6</ele>
        <time>2021-07-25T09:04:40Z</time>
      </trkpt>
      <trkpt lat="39.9268280" lon="3.1097750">
        <ele>174.0</ele>
        <time>2021-07-25T09:04:42Z</time>
      </trkpt>
      <trkpt lat="39.9269040" lon="3.1098040">
        <ele>175.2</ele>
        <time>2021-07-25T09:04:45Z</time>
      </trkpt>
      <trkpt lat="39.9269880" lon="3.1098140">
        <ele>175.4</ele>
        <time>2021-07-25T09:04:46Z</time>
      </trkpt>
      <trkpt lat="39.9271550" lon="3.1097260">
        <ele>176.2</ele>
        <time>2021-07-25T09:04:50Z</time>
      </trkpt>
      <trkpt lat="39.9272970" lon="3.1096990">
        <ele>177.0</ele>
        <time>2021-07-25T09:04:54Z</time>
      </trkpt>
      <trkpt lat="39.9273530" lon="3.1097270">
        <ele>177.4</ele>
        <time>2021-07-25T09:04:56Z</time>
      </trkpt>
      <trkpt lat="39.9274850" lon="3.1097910">
        <ele>178.8</ele>
        <time>2021-07-25T09:05:00Z</time>
      </trkpt>
      <trkpt lat="39.9275490" lon="3.1098220">
        <ele>180.0</ele>
        <time>2021-07-25T09:05:03Z</time>
      </trkpt>
      <trkpt lat="39.9276750" lon="3.1098790">
        <ele>181.0</ele>
        <time>2021-07-25T09:05:06Z</time>
      </trkpt>
      <trkpt lat="39.9278010" lon="3.1099280">
        <ele>181.6</ele>
        <time>2021-07-25T09:05:10Z</time>
      </trkpt>
      <trkpt lat="39.9278670" lon="3.1099540">
        <ele>182.2</ele>
        <time>2021-07-25T09:05:12Z</time>
      </trkpt>
      <trkpt lat="39.9279290" lon="3.1099940">
        <ele>182.6</ele>
        <time>2021-07-25T09:05:14Z</time>
      </trkpt>
      <trkpt lat="39.9280140" lon="3.1100390">
        <ele>183.4</ele>
        <time>2021-07-25T09:05:17Z</time>
      </trkpt>
      <trkpt lat="39.9281820" lon="3.1100720">
        <ele>184.8</ele>
        <time>2021-07-25T09:05:22Z</time>
      </trkpt>
      <trkpt lat="39.9283180" lon="3.1100730">
        <ele>185.8</ele>
        <time>2021-07-25T09:05:27Z</time>
      </trkpt>
      <trkpt lat="39.9284530" lon="3.1100850">
        <ele>186.8</ele>
        <time>2021-07-25T09:05:31Z</time>
      </trkpt>
      <trkpt lat="39.9285710" lon="3.1101300">
        <ele>187.2</ele>
        <time>2021-07-25T09:05:34Z</time>
      </trkpt>
      <trkpt lat="39.9286150" lon="3.1101840">
        <ele>187.8</ele>
        <time>2021-07-25T09:05:36Z</time>
      </trkpt>
      <trkpt lat="39.9286510" lon="3.1102410">
        <ele>189.0</ele>
        <time>2021-07-25T09:05:39Z</time>
      </trkpt>
      <trkpt lat="39.9287590" lon="3.1104430">
        <ele>190.0</ele>
        <time>2021-07-25T09:05:44Z</time>
      </trkpt>
      <trkpt lat="39.9288590" lon="3.1106440">
        <ele>191.0</ele>
        <time>2021-07-25T09:05:50Z</time>
      </trkpt>
      <trkpt lat="39.9288790" lon="3.1106870">
        <ele>191.4</ele>
        <time>2021-07-25T09:05:52Z</time>
      </trkpt>
      <trkpt lat="39.9289080" lon="3.1108020">
        <ele>191.6</ele>
        <time>2021-07-25T09:05:56Z</time>
      </trkpt>
      <trkpt lat="39.9289220" lon="3.1108490">
        <ele>191.8</ele>
        <time>2021-07-25T09:05:58Z</time>
      </trkpt>
      <trkpt lat="39.9289540" lon="3.1108680">
        <ele>192.2</ele>
        <time>2021-07-25T09:06:00Z</time>
      </trkpt>
      <trkpt lat="39.9289540" lon="3.1108680">
        <ele>192.2</ele>
        <time>2021-07-25T09:06:01Z</time>
      </trkpt>
      <trkpt lat="39.9289640" lon="3.1108670">
        <ele>192.4</ele>
        <time>2021-07-25T09:06:03Z</time>
      </trkpt>
      <trkpt lat="39.9289620" lon="3.1108270">
        <ele>192.0</ele>
        <time>2021-07-25T09:06:12Z</time>
      </trkpt>
      <trkpt lat="39.9289620" lon="3.1108270">
        <ele>192.0</ele>
        <time>2021-07-25T09:06:13Z</time>
      </trkpt>
      <trkpt lat="39.9289690" lon="3.1107510">
        <ele>192.0</ele>
        <time>2021-07-25T09:06:16Z</time>
      </trkpt>
      <trkpt lat="39.9289590" lon="3.1107190">
        <ele>191.8</ele>
        <time>2021-07-25T09:06:18Z</time>
      </trkpt>
      <trkpt lat="39.9289600" lon="3.1107120">
        <ele>191.6</ele>
        <time>2021-07-25T09:06:21Z</time>
      </trkpt>
      <trkpt lat="39.9289670" lon="3.1106810">
        <ele>191.8</ele>
        <time>2021-07-25T09:06:57Z</time>
      </trkpt>
      <trkpt lat="39.9289670" lon="3.1106660">
        <ele>191.6</ele>
        <time>2021-07-25T09:06:59Z</time>
      </trkpt>
      <trkpt lat="39.9289670" lon="3.1106660">
        <ele>191.6</ele>
        <time>2021-07-25T09:07:01Z</time>
      </trkpt>
      <trkpt lat="39.9289680" lon="3.1106710">
        <ele>191.6</ele>
        <time>2021-07-25T09:07:05Z</time>
      </trkpt>
      <trkpt lat="39.9289660" lon="3.1106820">
        <ele>191.6</ele>
        <time>2021-07-25T09:07:12Z</time>
      </trkpt>
      <trkpt lat="39.9289660" lon="3.1106820">
        <ele>191.6</ele>
        <time>2021-07-25T09:07:13Z</time>
      </trkpt>
      <trkpt lat="39.9289420" lon="3.1107010">
        <ele>191.6</ele>
        <time>2021-07-25T09:07:30Z</time>
      </trkpt>
      <trkpt lat="39.9289110" lon="3.1107620">
        <ele>191.6</ele>
        <time>2021-07-25T09:07:32Z</time>
      </trkpt>
      <trkpt lat="39.9288690" lon="3.1109060">
        <ele>191.8</ele>
        <time>2021-07-25T09:07:37Z</time>
      </trkpt>
      <trkpt lat="39.9287450" lon="3.1111370">
        <ele>191.2</ele>
        <time>2021-07-25T09:07:41Z</time>
      </trkpt>
      <trkpt lat="39.9287230" lon="3.1112050">
        <ele>190.4</ele>
        <time>2021-07-25T09:07:43Z</time>
      </trkpt>
      <trkpt lat="39.9287190" lon="3.1112890">
        <ele>190.4</ele>
        <time>2021-07-25T09:07:44Z</time>
      </trkpt>
      <trkpt lat="39.9287430" lon="3.1115120">
        <ele>190.0</ele>
        <time>2021-07-25T09:07:45Z</time>
      </trkpt>
      <trkpt lat="39.9287700" lon="3.1116510">
        <ele>189.6</ele>
        <time>2021-07-25T09:07:47Z</time>
      </trkpt>
      <trkpt lat="39.9288370" lon="3.1119570">
        <ele>188.4</ele>
        <time>2021-07-25T09:07:50Z</time>
      </trkpt>
      <trkpt lat="39.9288950" lon="3.1121830">
        <ele>187.2</ele>
        <time>2021-07-25T09:07:52Z</time>
      </trkpt>
      <trkpt lat="39.9289530" lon="3.1124250">
        <ele>185.2</ele>
        <time>2021-07-25T09:07:55Z</time>
      </trkpt>
      <trkpt lat="39.9289820" lon="3.1125790">
        <ele>184.0</ele>
        <time>2021-07-25T09:07:56Z</time>
      </trkpt>
      <trkpt lat="39.9290400" lon="3.1128870">
        <ele>182.4</ele>
        <time>2021-07-25T09:07:58Z</time>
      </trkpt>
      <trkpt lat="39.9290500" lon="3.1129800">
        <ele>181.8</ele>
        <time>2021-07-25T09:07:59Z</time>
      </trkpt>
      <trkpt lat="39.9290780" lon="3.1130370">
        <ele>181.2</ele>
        <time>2021-07-25T09:08:00Z</time>
      </trkpt>
      <trkpt lat="39.9291260" lon="3.1130500">
        <ele>180.6</ele>
        <time>2021-07-25T09:08:01Z</time>
      </trkpt>
      <trkpt lat="39.9291730" lon="3.1130630">
        <ele>179.8</ele>
        <time>2021-07-25T09:08:02Z</time>
      </trkpt>
      <trkpt lat="39.9291860" lon="3.1129990">
        <ele>179.4</ele>
        <time>2021-07-25T09:08:03Z</time>
      </trkpt>
      <trkpt lat="39.9291990" lon="3.1129350">
        <ele>179.0</ele>
        <time>2021-07-25T09:08:04Z</time>
      </trkpt>
      <trkpt lat="39.9292240" lon="3.1128070">
        <ele>178.4</ele>
        <time>2021-07-25T09:08:05Z</time>
      </trkpt>
      <trkpt lat="39.9292110" lon="3.1127120">
        <ele>177.2</ele>
        <time>2021-07-25T09:08:07Z</time>
      </trkpt>
      <trkpt lat="39.9291560" lon="3.1123220">
        <ele>176.0</ele>
        <time>2021-07-25T09:08:10Z</time>
      </trkpt>
      <trkpt lat="39.9291450" lon="3.1122170">
        <ele>175.8</ele>
        <time>2021-07-25T09:08:11Z</time>
      </trkpt>
      <trkpt lat="39.9291470" lon="3.1119280">
        <ele>175.4</ele>
        <time>2021-07-25T09:08:14Z</time>
      </trkpt>
      <trkpt lat="39.9291860" lon="3.1119070">
        <ele>175.2</ele>
        <time>2021-07-25T09:08:15Z</time>
      </trkpt>
      <trkpt lat="39.9292250" lon="3.1118860">
        <ele>174.8</ele>
        <time>2021-07-25T09:08:16Z</time>
      </trkpt>
      <trkpt lat="39.9293020" lon="3.1118440">
        <ele>174.4</ele>
        <time>2021-07-25T09:08:17Z</time>
      </trkpt>
      <trkpt lat="39.9293340" lon="3.1119160">
        <ele>173.4</ele>
        <time>2021-07-25T09:08:19Z</time>
      </trkpt>
      <trkpt lat="39.9293350" lon="3.1120210">
        <ele>173.0</ele>
        <time>2021-07-25T09:08:20Z</time>
      </trkpt>
      <trkpt lat="39.9293380" lon="3.1122110">
        <ele>172.6</ele>
        <time>2021-07-25T09:08:21Z</time>
      </trkpt>
      <trkpt lat="39.9293390" lon="3.1122950">
        <ele>172.2</ele>
        <time>2021-07-25T09:08:22Z</time>
      </trkpt>
      <trkpt lat="39.9293440" lon="3.1126310">
        <ele>171.4</ele>
        <time>2021-07-25T09:08:24Z</time>
      </trkpt>
      <trkpt lat="39.9293530" lon="3.1127550">
        <ele>170.4</ele>
        <time>2021-07-25T09:08:25Z</time>
      </trkpt>
      <trkpt lat="39.9293610" lon="3.1128800">
        <ele>168.8</ele>
        <time>2021-07-25T09:08:27Z</time>
      </trkpt>
      <trkpt lat="39.9293920" lon="3.1133810">
        <ele>167.2</ele>
        <time>2021-07-25T09:08:30Z</time>
      </trkpt>
      <trkpt lat="39.9293910" lon="3.1136310">
        <ele>165.6</ele>
        <time>2021-07-25T09:08:32Z</time>
      </trkpt>
      <trkpt lat="39.9294150" lon="3.1138990">
        <ele>164.2</ele>
        <time>2021-07-25T09:08:34Z</time>
      </trkpt>
      <trkpt lat="39.9294550" lon="3.1140240">
        <ele>163.8</ele>
        <time>2021-07-25T09:08:35Z</time>
      </trkpt>
      <trkpt lat="39.9294990" lon="3.1141440">
        <ele>163.2</ele>
        <time>2021-07-25T09:08:36Z</time>
      </trkpt>
      <trkpt lat="39.9295410" lon="3.1143730">
        <ele>161.6</ele>
        <time>2021-07-25T09:08:38Z</time>
      </trkpt>
      <trkpt lat="39.9295680" lon="3.1144320">
        <ele>160.6</ele>
        <time>2021-07-25T09:08:39Z</time>
      </trkpt>
      <trkpt lat="39.9295940" lon="3.1144920">
        <ele>160.0</ele>
        <time>2021-07-25T09:08:40Z</time>
      </trkpt>
      <trkpt lat="39.9296990" lon="3.1147290">
        <ele>158.8</ele>
        <time>2021-07-25T09:08:42Z</time>
      </trkpt>
      <trkpt lat="39.9298560" lon="3.1148590">
        <ele>157.6</ele>
        <time>2021-07-25T09:08:44Z</time>
      </trkpt>
      <trkpt lat="39.9300240" lon="3.1150150">
        <ele>156.4</ele>
        <time>2021-07-25T09:08:46Z</time>
      </trkpt>
      <trkpt lat="39.9301080" lon="3.1151030">
        <ele>155.8</ele>
        <time>2021-07-25T09:08:47Z</time>
      </trkpt>
      <trkpt lat="39.9301900" lon="3.1151990">
        <ele>155.0</ele>
        <time>2021-07-25T09:08:48Z</time>
      </trkpt>
      <trkpt lat="39.9303330" lon="3.1153930">
        <ele>153.0</ele>
        <time>2021-07-25T09:08:50Z</time>
      </trkpt>
      <trkpt lat="39.9303660" lon="3.1154770">
        <ele>152.6</ele>
        <time>2021-07-25T09:08:51Z</time>
      </trkpt>
      <trkpt lat="39.9303980" lon="3.1155610">
        <ele>152.2</ele>
        <time>2021-07-25T09:08:52Z</time>
      </trkpt>
      <trkpt lat="39.9304620" lon="3.1157290">
        <ele>151.8</ele>
        <time>2021-07-25T09:08:53Z</time>
      </trkpt>
      <trkpt lat="39.9304710" lon="3.1158550">
        <ele>149.8</ele>
        <time>2021-07-25T09:08:55Z</time>
      </trkpt>
      <trkpt lat="39.9304810" lon="3.1159850">
        <ele>149.0</ele>
        <time>2021-07-25T09:08:56Z</time>
      </trkpt>
      <trkpt lat="39.9305180" lon="3.1162100">
        <ele>148.2</ele>
        <time>2021-07-25T09:08:57Z</time>
      </trkpt>
      <trkpt lat="39.9305460" lon="3.1163050">
        <ele>147.0</ele>
        <time>2021-07-25T09:08:58Z</time>
      </trkpt>
      <trkpt lat="39.9306010" lon="3.1164950">
        <ele>146.0</ele>
        <time>2021-07-25T09:08:59Z</time>
      </trkpt>
      <trkpt lat="39.9306520" lon="3.1166200">
        <ele>145.2</ele>
        <time>2021-07-25T09:09:00Z</time>
      </trkpt>
      <trkpt lat="39.9306640" lon="3.1167090">
        <ele>144.8</ele>
        <time>2021-07-25T09:09:01Z</time>
      </trkpt>
      <trkpt lat="39.9306760" lon="3.1167990">
        <ele>144.6</ele>
        <time>2021-07-25T09:09:02Z</time>
      </trkpt>
      <trkpt lat="39.9307240" lon="3.1171570">
        <ele>143.8</ele>
        <time>2021-07-25T09:09:04Z</time>
      </trkpt>
      <trkpt lat="39.9306940" lon="3.1174230">
        <ele>142.6</ele>
        <time>2021-07-25T09:09:06Z</time>
      </trkpt>
      <trkpt lat="39.9306360" lon="3.1176650">
        <ele>142.2</ele>
        <time>2021-07-25T09:09:08Z</time>
      </trkpt>
      <trkpt lat="39.9305320" lon="3.1180710">
        <ele>142.4</ele>
        <time>2021-07-25T09:09:13Z</time>
      </trkpt>
      <trkpt lat="39.9303790" lon="3.1184490">
        <ele>142.6</ele>
        <time>2021-07-25T09:09:17Z</time>
      </trkpt>
      <trkpt lat="39.9303780" lon="3.1185270">
        <ele>142.4</ele>
        <time>2021-07-25T09:09:18Z</time>
      </trkpt>
      <trkpt lat="39.9303990" lon="3.1186910">
        <ele>142.4</ele>
        <time>2021-07-25T09:09:20Z</time>
      </trkpt>
      <trkpt lat="39.9304160" lon="3.1189470">
        <ele>141.8</ele>
        <time>2021-07-25T09:09:23Z</time>
      </trkpt>
      <trkpt lat="39.9304210" lon="3.1192140">
        <ele>141.6</ele>
        <time>2021-07-25T09:09:27Z</time>
      </trkpt>
      <trkpt lat="39.9304240" lon="3.1195450">
        <ele>141.4</ele>
        <time>2021-07-25T09:09:30Z</time>
      </trkpt>
      <trkpt lat="39.9304670" lon="3.1197110">
        <ele>141.4</ele>
        <time>2021-07-25T09:09:32Z</time>
      </trkpt>
      <trkpt lat="39.9305500" lon="3.1198670">
        <ele>141.4</ele>
        <time>2021-07-25T09:09:34Z</time>
      </trkpt>
      <trkpt lat="39.9305960" lon="3.1199440">
        <ele>141.4</ele>
        <time>2021-07-25T09:09:35Z</time>
      </trkpt>
      <trkpt lat="39.9306720" lon="3.1202130">
        <ele>141.2</ele>
        <time>2021-07-25T09:09:38Z</time>
      </trkpt>
      <trkpt lat="39.9306980" lon="3.1202880">
        <ele>141.0</ele>
        <time>2021-07-25T09:09:39Z</time>
      </trkpt>
      <trkpt lat="39.9307240" lon="3.1203640">
        <ele>140.6</ele>
        <time>2021-07-25T09:09:40Z</time>
      </trkpt>
      <trkpt lat="39.9308270" lon="3.1206650">
        <ele>139.0</ele>
        <time>2021-07-25T09:09:42Z</time>
      </trkpt>
      <trkpt lat="39.9308520" lon="3.1207830">
        <ele>138.0</ele>
        <time>2021-07-25T09:09:43Z</time>
      </trkpt>
      <trkpt lat="39.9308680" lon="3.1208940">
        <ele>137.4</ele>
        <time>2021-07-25T09:09:44Z</time>
      </trkpt>
      <trkpt lat="39.9308260" lon="3.1209760">
        <ele>136.8</ele>
        <time>2021-07-25T09:09:45Z</time>
      </trkpt>
      <trkpt lat="39.9307840" lon="3.1210580">
        <ele>136.0</ele>
        <time>2021-07-25T09:09:46Z</time>
      </trkpt>
      <trkpt lat="39.9306990" lon="3.1212210">
        <ele>135.4</ele>
        <time>2021-07-25T09:09:47Z</time>
      </trkpt>
      <trkpt lat="39.9306780" lon="3.1213180">
        <ele>134.8</ele>
        <time>2021-07-25T09:09:48Z</time>
      </trkpt>
      <trkpt lat="39.9307200" lon="3.1215490">
        <ele>141.8</ele>
        <time>2021-07-25T09:09:50Z</time>
      </trkpt>
      <trkpt lat="39.9307600" lon="3.1216100">
        <ele>132.4</ele>
        <time>2021-07-25T09:09:51Z</time>
      </trkpt>
      <trkpt lat="39.9307990" lon="3.1216720">
        <ele>131.8</ele>
        <time>2021-07-25T09:09:52Z</time>
      </trkpt>
      <trkpt lat="39.9309570" lon="3.1219180">
        <ele>130.2</ele>
        <time>2021-07-25T09:09:54Z</time>
      </trkpt>
      <trkpt lat="39.9311260" lon="3.1219750">
        <ele>128.8</ele>
        <time>2021-07-25T09:09:56Z</time>
      </trkpt>
      <trkpt lat="39.9311880" lon="3.1220830">
        <ele>127.2</ele>
        <time>2021-07-25T09:09:58Z</time>
      </trkpt>
      <trkpt lat="39.9311380" lon="3.1222420">
        <ele>125.8</ele>
        <time>2021-07-25T09:10:00Z</time>
      </trkpt>
      <trkpt lat="39.9309740" lon="3.1223550">
        <ele>124.2</ele>
        <time>2021-07-25T09:10:02Z</time>
      </trkpt>
      <trkpt lat="39.9309270" lon="3.1223920">
        <ele>123.6</ele>
        <time>2021-07-25T09:10:03Z</time>
      </trkpt>
      <trkpt lat="39.9308800" lon="3.1224290">
        <ele>123.2</ele>
        <time>2021-07-25T09:10:04Z</time>
      </trkpt>
      <trkpt lat="39.9306910" lon="3.1225760">
        <ele>121.8</ele>
        <time>2021-07-25T09:10:06Z</time>
      </trkpt>
      <trkpt lat="39.9305660" lon="3.1227320">
        <ele>120.4</ele>
        <time>2021-07-25T09:10:09Z</time>
      </trkpt>
      <trkpt lat="39.9305080" lon="3.1228630">
        <ele>120.0</ele>
        <time>2021-07-25T09:10:10Z</time>
      </trkpt>
      <trkpt lat="39.9303910" lon="3.1231260">
        <ele>119.2</ele>
        <time>2021-07-25T09:10:12Z</time>
      </trkpt>
      <trkpt lat="39.9304030" lon="3.1233880">
        <ele>118.2</ele>
        <time>2021-07-25T09:10:14Z</time>
      </trkpt>
      <trkpt lat="39.9304090" lon="3.1236170">
        <ele>116.8</ele>
        <time>2021-07-25T09:10:16Z</time>
      </trkpt>
      <trkpt lat="39.9304100" lon="3.1238380">
        <ele>114.6</ele>
        <time>2021-07-25T09:10:18Z</time>
      </trkpt>
      <trkpt lat="39.9303890" lon="3.1240810">
        <ele>113.2</ele>
        <time>2021-07-25T09:10:20Z</time>
      </trkpt>
      <trkpt lat="39.9303670" lon="3.1242960">
        <ele>112.8</ele>
        <time>2021-07-25T09:10:21Z</time>
      </trkpt>
      <trkpt lat="39.9303450" lon="3.1245110">
        <ele>112.0</ele>
        <time>2021-07-25T09:10:24Z</time>
      </trkpt>
      <trkpt lat="39.9303820" lon="3.1246960">
        <ele>111.8</ele>
        <time>2021-07-25T09:10:26Z</time>
      </trkpt>
      <trkpt lat="39.9304490" lon="3.1248400">
        <ele>111.2</ele>
        <time>2021-07-25T09:10:28Z</time>
      </trkpt>
      <trkpt lat="39.9305550" lon="3.1247530">
        <ele>110.6</ele>
        <time>2021-07-25T09:10:30Z</time>
      </trkpt>
      <trkpt lat="39.9305520" lon="3.1245620">
        <ele>110.0</ele>
        <time>2021-07-25T09:10:32Z</time>
      </trkpt>
      <trkpt lat="39.9305530" lon="3.1244490">
        <ele>109.4</ele>
        <time>2021-07-25T09:10:33Z</time>
      </trkpt>
      <trkpt lat="39.9305560" lon="3.1242160">
        <ele>108.0</ele>
        <time>2021-07-25T09:10:35Z</time>
      </trkpt>
      <trkpt lat="39.9305600" lon="3.1240950">
        <ele>107.6</ele>
        <time>2021-07-25T09:10:36Z</time>
      </trkpt>
      <trkpt lat="39.9306030" lon="3.1238630">
        <ele>106.6</ele>
        <time>2021-07-25T09:10:38Z</time>
      </trkpt>
      <trkpt lat="39.9306650" lon="3.1236370">
        <ele>105.2</ele>
        <time>2021-07-25T09:10:40Z</time>
      </trkpt>
      <trkpt lat="39.9307300" lon="3.1234420">
        <ele>103.4</ele>
        <time>2021-07-25T09:10:42Z</time>
      </trkpt>
      <trkpt lat="39.9307610" lon="3.1233830">
        <ele>102.4</ele>
        <time>2021-07-25T09:10:43Z</time>
      </trkpt>
      <trkpt lat="39.9307910" lon="3.1233240">
        <ele>101.6</ele>
        <time>2021-07-25T09:10:44Z</time>
      </trkpt>
      <trkpt lat="39.9308510" lon="3.1232060">
        <ele>101.0</ele>
        <time>2021-07-25T09:10:45Z</time>
      </trkpt>
      <trkpt lat="39.9309530" lon="3.1231480">
        <ele>100.2</ele>
        <time>2021-07-25T09:10:47Z</time>
      </trkpt>
      <trkpt lat="39.9310130" lon="3.1231510">
        <ele>99.8</ele>
        <time>2021-07-25T09:10:48Z</time>
      </trkpt>
      <trkpt lat="39.9310860" lon="3.1231600">
        <ele>99.4</ele>
        <time>2021-07-25T09:10:49Z</time>
      </trkpt>
      <trkpt lat="39.9311580" lon="3.1231700">
        <ele>99.0</ele>
        <time>2021-07-25T09:10:50Z</time>
      </trkpt>
      <trkpt lat="39.9313020" lon="3.1231890">
        <ele>98.8</ele>
        <time>2021-07-25T09:10:51Z</time>
      </trkpt>
      <trkpt lat="39.9315950" lon="3.1231490">
        <ele>97.4</ele>
        <time>2021-07-25T09:10:54Z</time>
      </trkpt>
      <trkpt lat="39.9317040" lon="3.1231840">
        <ele>97.2</ele>
        <time>2021-07-25T09:10:55Z</time>
      </trkpt>
      <trkpt lat="39.9318680" lon="3.1233160">
        <ele>95.6</ele>
        <time>2021-07-25T09:10:57Z</time>
      </trkpt>
      <trkpt lat="39.9319440" lon="3.1235050">
        <ele>94.8</ele>
        <time>2021-07-25T09:10:59Z</time>
      </trkpt>
      <trkpt lat="39.9319640" lon="3.1236230">
        <ele>94.0</ele>
        <time>2021-07-25T09:11:00Z</time>
      </trkpt>
      <trkpt lat="39.9320000" lon="3.1238940">
        <ele>92.4</ele>
        <time>2021-07-25T09:11:02Z</time>
      </trkpt>
      <trkpt lat="39.9320430" lon="3.1241680">
        <ele>91.0</ele>
        <time>2021-07-25T09:11:04Z</time>
      </trkpt>
      <trkpt lat="39.9320910" lon="3.1244250">
        <ele>89.0</ele>
        <time>2021-07-25T09:11:06Z</time>
      </trkpt>
      <trkpt lat="39.9321510" lon="3.1246980">
        <ele>87.2</ele>
        <time>2021-07-25T09:11:08Z</time>
      </trkpt>
      <trkpt lat="39.9322290" lon="3.1249290">
        <ele>85.2</ele>
        <time>2021-07-25T09:11:10Z</time>
      </trkpt>
      <trkpt lat="39.9322780" lon="3.1250360">
        <ele>84.6</ele>
        <time>2021-07-25T09:11:11Z</time>
      </trkpt>
      <trkpt lat="39.9323340" lon="3.1251410">
        <ele>84.0</ele>
        <time>2021-07-25T09:11:12Z</time>
      </trkpt>
      <trkpt lat="39.9324870" lon="3.1252890">
        <ele>82.2</ele>
        <time>2021-07-25T09:11:14Z</time>
      </trkpt>
      <trkpt lat="39.9325860" lon="3.1253290">
        <ele>81.6</ele>
        <time>2021-07-25T09:11:15Z</time>
      </trkpt>
      <trkpt lat="39.9326830" lon="3.1253640">
        <ele>81.0</ele>
        <time>2021-07-25T09:11:16Z</time>
      </trkpt>
      <trkpt lat="39.9329850" lon="3.1254240">
        <ele>79.4</ele>
        <time>2021-07-25T09:11:19Z</time>
      </trkpt>
      <trkpt lat="39.9331920" lon="3.1254430">
        <ele>77.6</ele>
        <time>2021-07-25T09:11:21Z</time>
      </trkpt>
      <trkpt lat="39.9332920" lon="3.1254490">
        <ele>76.4</ele>
        <time>2021-07-25T09:11:22Z</time>
      </trkpt>
      <trkpt lat="39.9334750" lon="3.1254680">
        <ele>75.2</ele>
        <time>2021-07-25T09:11:24Z</time>
      </trkpt>
      <trkpt lat="39.9335560" lon="3.1254800">
        <ele>74.6</ele>
        <time>2021-07-25T09:11:25Z</time>
      </trkpt>
      <trkpt lat="39.9336980" lon="3.1255850">
        <ele>73.8</ele>
        <time>2021-07-25T09:11:27Z</time>
      </trkpt>
      <trkpt lat="39.9337340" lon="3.1256700">
        <ele>73.2</ele>
        <time>2021-07-25T09:11:28Z</time>
      </trkpt>
      <trkpt lat="39.9337460" lon="3.1258600">
        <ele>72.4</ele>
        <time>2021-07-25T09:11:30Z</time>
      </trkpt>
      <trkpt lat="39.9337260" lon="3.1259620">
        <ele>71.8</ele>
        <time>2021-07-25T09:11:31Z</time>
      </trkpt>
      <trkpt lat="39.9336430" lon="3.1261500">
        <ele>71.2</ele>
        <time>2021-07-25T09:11:33Z</time>
      </trkpt>
      <trkpt lat="39.9335940" lon="3.1262470">
        <ele>71.0</ele>
        <time>2021-07-25T09:11:34Z</time>
      </trkpt>
      <trkpt lat="39.9334860" lon="3.1264440">
        <ele>70.4</ele>
        <time>2021-07-25T09:11:36Z</time>
      </trkpt>
      <trkpt lat="39.9334300" lon="3.1265390">
        <ele>70.0</ele>
        <time>2021-07-25T09:11:37Z</time>
      </trkpt>
      <trkpt lat="39.9333750" lon="3.1266350">
        <ele>69.0</ele>
        <time>2021-07-25T09:11:38Z</time>
      </trkpt>
      <trkpt lat="39.9333130" lon="3.1267200">
        <ele>68.4</ele>
        <time>2021-07-25T09:11:39Z</time>
      </trkpt>
      <trkpt lat="39.9332010" lon="3.1268940">
        <ele>67.0</ele>
        <time>2021-07-25T09:11:41Z</time>
      </trkpt>
      <trkpt lat="39.9330930" lon="3.1270540">
        <ele>65.2</ele>
        <time>2021-07-25T09:11:43Z</time>
      </trkpt>
      <trkpt lat="39.9330320" lon="3.1271260">
        <ele>64.2</ele>
        <time>2021-07-25T09:11:44Z</time>
      </trkpt>
      <trkpt lat="39.9329680" lon="3.1271990">
        <ele>63.6</ele>
        <time>2021-07-25T09:11:45Z</time>
      </trkpt>
      <trkpt lat="39.9329010" lon="3.1272750">
        <ele>62.8</ele>
        <time>2021-07-25T09:11:46Z</time>
      </trkpt>
      <trkpt lat="39.9327620" lon="3.1274230">
        <ele>62.2</ele>
        <time>2021-07-25T09:11:48Z</time>
      </trkpt>
      <trkpt lat="39.9326970" lon="3.1275030">
        <ele>61.6</ele>
        <time>2021-07-25T09:11:49Z</time>
      </trkpt>
      <trkpt lat="39.9326340" lon="3.1275870">
        <ele>61.0</ele>
        <time>2021-07-25T09:11:50Z</time>
      </trkpt>
      <trkpt lat="39.9325710" lon="3.1276720">
        <ele>60.4</ele>
        <time>2021-07-25T09:11:51Z</time>
      </trkpt>
      <trkpt lat="39.9324470" lon="3.1278620">
        <ele>59.6</ele>
        <time>2021-07-25T09:11:53Z</time>
      </trkpt>
      <trkpt lat="39.9323920" lon="3.1279680">
        <ele>58.8</ele>
        <time>2021-07-25T09:11:54Z</time>
      </trkpt>
      <trkpt lat="39.9323480" lon="3.1280840">
        <ele>58.0</ele>
        <time>2021-07-25T09:11:55Z</time>
      </trkpt>
      <trkpt lat="39.9323160" lon="3.1282120">
        <ele>56.6</ele>
        <time>2021-07-25T09:11:57Z</time>
      </trkpt>
      <trkpt lat="39.9322810" lon="3.1284070">
        <ele>56.0</ele>
        <time>2021-07-25T09:11:58Z</time>
      </trkpt>
      <trkpt lat="39.9322450" lon="3.1286020">
        <ele>55.2</ele>
        <time>2021-07-25T09:11:59Z</time>
      </trkpt>
      <trkpt lat="39.9322030" lon="3.1289540">
        <ele>53.0</ele>
        <time>2021-07-25T09:12:02Z</time>
      </trkpt>
      <trkpt lat="39.9322070" lon="3.1290660">
        <ele>52.2</ele>
        <time>2021-07-25T09:12:03Z</time>
      </trkpt>
      <trkpt lat="39.9322340" lon="3.1291750">
        <ele>51.2</ele>
        <time>2021-07-25T09:12:04Z</time>
      </trkpt>
      <trkpt lat="39.9322770" lon="3.1292780">
        <ele>50.6</ele>
        <time>2021-07-25T09:12:05Z</time>
      </trkpt>
      <trkpt lat="39.9323340" lon="3.1293800">
        <ele>50.0</ele>
        <time>2021-07-25T09:12:06Z</time>
      </trkpt>
      <trkpt lat="39.9323980" lon="3.1294770">
        <ele>49.8</ele>
        <time>2021-07-25T09:12:07Z</time>
      </trkpt>
      <trkpt lat="39.9325180" lon="3.1297010">
        <ele>48.4</ele>
        <time>2021-07-25T09:12:09Z</time>
      </trkpt>
      <trkpt lat="39.9326390" lon="3.1299290">
        <ele>47.0</ele>
        <time>2021-07-25T09:12:11Z</time>
      </trkpt>
      <trkpt lat="39.9327850" lon="3.1302640">
        <ele>45.2</ele>
        <time>2021-07-25T09:12:14Z</time>
      </trkpt>
      <trkpt lat="39.9328680" lon="3.1304500">
        <ele>44.0</ele>
        <time>2021-07-25T09:12:16Z</time>
      </trkpt>
      <trkpt lat="39.9329530" lon="3.1306150">
        <ele>42.2</ele>
        <time>2021-07-25T09:12:18Z</time>
      </trkpt>
      <trkpt lat="39.9330080" lon="3.1306700">
        <ele>41.4</ele>
        <time>2021-07-25T09:12:19Z</time>
      </trkpt>
      <trkpt lat="39.9330640" lon="3.1307250">
        <ele>40.8</ele>
        <time>2021-07-25T09:12:20Z</time>
      </trkpt>
      <trkpt lat="39.9331690" lon="3.1308180">
        <ele>39.6</ele>
        <time>2021-07-25T09:12:22Z</time>
      </trkpt>
      <trkpt lat="39.9332040" lon="3.1308520">
        <ele>39.0</ele>
        <time>2021-07-25T09:12:23Z</time>
      </trkpt>
      <trkpt lat="39.9332230" lon="3.1309560">
        <ele>38.0</ele>
        <time>2021-07-25T09:12:25Z</time>
      </trkpt>
      <trkpt lat="39.9331810" lon="3.1310050">
        <ele>37.6</ele>
        <time>2021-07-25T09:12:26Z</time>
      </trkpt>
      <trkpt lat="39.9330740" lon="3.1309890">
        <ele>37.0</ele>
        <time>2021-07-25T09:12:28Z</time>
      </trkpt>
      <trkpt lat="39.9329690" lon="3.1308660">
        <ele>36.4</ele>
        <time>2021-07-25T09:12:30Z</time>
      </trkpt>
      <trkpt lat="39.9329220" lon="3.1307920">
        <ele>36.0</ele>
        <time>2021-07-25T09:12:31Z</time>
      </trkpt>
      <trkpt lat="39.9328710" lon="3.1307210">
        <ele>35.6</ele>
        <time>2021-07-25T09:12:32Z</time>
      </trkpt>
      <trkpt lat="39.9328150" lon="3.1306380">
        <ele>35.0</ele>
        <time>2021-07-25T09:12:33Z</time>
      </trkpt>
      <trkpt lat="39.9327090" lon="3.1304650">
        <ele>34.0</ele>
        <time>2021-07-25T09:12:35Z</time>
      </trkpt>
      <trkpt lat="39.9326560" lon="3.1303820">
        <ele>33.6</ele>
        <time>2021-07-25T09:12:36Z</time>
      </trkpt>
      <trkpt lat="39.9324810" lon="3.1301680">
        <ele>31.6</ele>
        <time>2021-07-25T09:12:39Z</time>
      </trkpt>
      <trkpt lat="39.9324110" lon="3.1300920">
        <ele>31.2</ele>
        <time>2021-07-25T09:12:40Z</time>
      </trkpt>
      <trkpt lat="39.9323410" lon="3.1300230">
        <ele>30.6</ele>
        <time>2021-07-25T09:12:41Z</time>
      </trkpt>
      <trkpt lat="39.9322000" lon="3.1298910">
        <ele>29.4</ele>
        <time>2021-07-25T09:12:43Z</time>
      </trkpt>
      <trkpt lat="39.9320760" lon="3.1297720">
        <ele>28.8</ele>
        <time>2021-07-25T09:12:45Z</time>
      </trkpt>
      <trkpt lat="39.9320100" lon="3.1297080">
        <ele>28.4</ele>
        <time>2021-07-25T09:12:46Z</time>
      </trkpt>
      <trkpt lat="39.9319420" lon="3.1296530">
        <ele>27.6</ele>
        <time>2021-07-25T09:12:47Z</time>
      </trkpt>
      <trkpt lat="39.9318660" lon="3.1295970">
        <ele>27.0</ele>
        <time>2021-07-25T09:12:48Z</time>
      </trkpt>
      <trkpt lat="39.9317190" lon="3.1294920">
        <ele>25.4</ele>
        <time>2021-07-25T09:12:50Z</time>
      </trkpt>
      <trkpt lat="39.9315740" lon="3.1294080">
        <ele>23.6</ele>
        <time>2021-07-25T09:12:52Z</time>
      </trkpt>
      <trkpt lat="39.9314150" lon="3.1293850">
        <ele>23.0</ele>
        <time>2021-07-25T09:12:54Z</time>
      </trkpt>
      <trkpt lat="39.9313310" lon="3.1294050">
        <ele>22.4</ele>
        <time>2021-07-25T09:12:55Z</time>
      </trkpt>
      <trkpt lat="39.9311720" lon="3.1294960">
        <ele>21.0</ele>
        <time>2021-07-25T09:12:57Z</time>
      </trkpt>
      <trkpt lat="39.9310930" lon="3.1295720">
        <ele>20.4</ele>
        <time>2021-07-25T09:12:58Z</time>
      </trkpt>
      <trkpt lat="39.9309450" lon="3.1296780">
        <ele>20.0</ele>
        <time>2021-07-25T09:13:00Z</time>
      </trkpt>
      <trkpt lat="39.9308000" lon="3.1297710">
        <ele>18.8</ele>
        <time>2021-07-25T09:13:02Z</time>
      </trkpt>
      <trkpt lat="39.9307250" lon="3.1298160">
        <ele>18.0</ele>
        <time>2021-07-25T09:13:03Z</time>
      </trkpt>
      <trkpt lat="39.9304910" lon="3.1299890">
        <ele>16.4</ele>
        <time>2021-07-25T09:13:06Z</time>
      </trkpt>
      <trkpt lat="39.9303450" lon="3.1300970">
        <ele>15.4</ele>
        <time>2021-07-25T09:13:08Z</time>
      </trkpt>
      <trkpt lat="39.9302780" lon="3.1301530">
        <ele>14.6</ele>
        <time>2021-07-25T09:13:09Z</time>
      </trkpt>
      <trkpt lat="39.9300680" lon="3.1303170">
        <ele>13.4</ele>
        <time>2021-07-25T09:13:12Z</time>
      </trkpt>
      <trkpt lat="39.9300050" lon="3.1303900">
        <ele>13.2</ele>
        <time>2021-07-25T09:13:13Z</time>
      </trkpt>
      <trkpt lat="39.9299080" lon="3.1305920">
        <ele>12.2</ele>
        <time>2021-07-25T09:13:15Z</time>
      </trkpt>
      <trkpt lat="39.9298780" lon="3.1307070">
        <ele>11.8</ele>
        <time>2021-07-25T09:13:16Z</time>
      </trkpt>
      <trkpt lat="39.9298500" lon="3.1308200">
        <ele>11.4</ele>
        <time>2021-07-25T09:13:17Z</time>
      </trkpt>
      <trkpt lat="39.9298160" lon="3.1309410">
        <ele>10.8</ele>
        <time>2021-07-25T09:13:18Z</time>
      </trkpt>
      <trkpt lat="39.9297570" lon="3.1311950">
        <ele>9.2</ele>
        <time>2021-07-25T09:13:20Z</time>
      </trkpt>
      <trkpt lat="39.9297270" lon="3.1313160">
        <ele>8.4</ele>
        <time>2021-07-25T09:13:21Z</time>
      </trkpt>
      <trkpt lat="39.9296970" lon="3.1314300">
        <ele>7.2</ele>
        <time>2021-07-25T09:13:22Z</time>
      </trkpt>
      <trkpt lat="39.9296410" lon="3.1316740">
        <ele>6.2</ele>
        <time>2021-07-25T09:13:24Z</time>
      </trkpt>
      <trkpt lat="39.9295880" lon="3.1319240">
        <ele>5.2</ele>
        <time>2021-07-25T09:13:26Z</time>
      </trkpt>
      <trkpt lat="39.9295600" lon="3.1320470">
        <ele>5.0</ele>
        <time>2021-07-25T09:13:27Z</time>
      </trkpt>
      <trkpt lat="39.9295050" lon="3.1322830">
        <ele>3.8</ele>
        <time>2021-07-25T09:13:29Z</time>
      </trkpt>
      <trkpt lat="39.9294780" lon="3.1323900">
        <ele>2.6</ele>
        <time>2021-07-25T09:13:30Z</time>
      </trkpt>
      <trkpt lat="39.9294570" lon="3.1324940">
        <ele>2.0</ele>
        <time>2021-07-25T09:13:31Z</time>
      </trkpt>
      <trkpt lat="39.9294290" lon="3.1325920">
        <ele>1.6</ele>
        <time>2021-07-25T09:13:32Z</time>
      </trkpt>
      <trkpt lat="39.9293720" lon="3.1327830">
        <ele>0.6</ele>
        <time>2021-07-25T09:13:34Z</time>
      </trkpt>
      <trkpt lat="39.9293340" lon="3.1329510">
        <ele>-0.2</ele>
        <time>2021-07-25T09:13:36Z</time>
      </trkpt>
      <trkpt lat="39.9293200" lon="3.1330130">
        <ele>-0.6</ele>
        <time>2021-07-25T09:13:37Z</time>
      </trkpt>
      <trkpt lat="39.9292670" lon="3.1331360">
        <ele>-1.4</ele>
        <time>2021-07-25T09:13:40Z</time>
      </trkpt>
      <trkpt lat="39.9292590" lon="3.1331650">
        <ele>-1.6</ele>
        <time>2021-07-25T09:13:41Z</time>
      </trkpt>
      <trkpt lat="39.9292520" lon="3.1332210">
        <ele>-2.0</ele>
        <time>2021-07-25T09:13:44Z</time>
      </trkpt>
      <trkpt lat="39.9292120" lon="3.1333390">
        <ele>-2.8</ele>
        <time>2021-07-25T09:13:48Z</time>
      </trkpt>
      <trkpt lat="39.9291670" lon="3.1335230">
        <ele>-3.0</ele>
        <time>2021-07-25T09:13:51Z</time>
      </trkpt>
      <trkpt lat="39.9291720" lon="3.1336460">
        <ele>-3.4</ele>
        <time>2021-07-25T09:13:53Z</time>
      </trkpt>
      <trkpt lat="39.9291990" lon="3.1337380">
        <ele>-4.0</ele>
        <time>2021-07-25T09:13:55Z</time>
      </trkpt>
      <trkpt lat="39.9292250" lon="3.1337860">
        <ele>-4.2</ele>
        <time>2021-07-25T09:13:57Z</time>
      </trkpt>
      <trkpt lat="39.9293280" lon="3.1338470">
        <ele>-4.6</ele>
        <time>2021-07-25T09:14:02Z</time>
      </trkpt>
      <trkpt lat="39.9294790" lon="3.1338840">
        <ele>-5.0</ele>
        <time>2021-07-25T09:14:07Z</time>
      </trkpt>
      <trkpt lat="39.9295070" lon="3.1338920">
        <ele>-5.0</ele>
        <time>2021-07-25T09:14:08Z</time>
      </trkpt>
      <trkpt lat="39.9295800" lon="3.1339270">
        <ele>-4.8</ele>
        <time>2021-07-25T09:14:13Z</time>
      </trkpt>
      <trkpt lat="39.9297780" lon="3.1339240">
        <ele>-4.2</ele>
        <time>2021-07-25T09:14:44Z</time>
      </trkpt>
      <trkpt lat="39.9298090" lon="3.1339400">
        <ele>-4.2</ele>
        <time>2021-07-25T09:14:45Z</time>
      </trkpt>
      <trkpt lat="39.9300020" lon="3.1339720">
        <ele>-3.8</ele>
        <time>2021-07-25T09:14:51Z</time>
      </trkpt>
      <trkpt lat="39.9301590" lon="3.1340140">
        <ele>-3.4</ele>
        <time>2021-07-25T09:14:56Z</time>
      </trkpt>
      <trkpt lat="39.9301860" lon="3.1340210">
        <ele>-3.4</ele>
        <time>2021-07-25T09:14:57Z</time>
      </trkpt>
      <trkpt lat="39.9303260" lon="3.1340560">
        <ele>-3.4</ele>
        <time>2021-07-25T09:15:02Z</time>
      </trkpt>
      <trkpt lat="39.9304560" lon="3.1341610">
        <ele>-2.6</ele>
        <time>2021-07-25T09:15:07Z</time>
      </trkpt>
      <trkpt lat="39.9306710" lon="3.1343460">
        <ele>-2.2</ele>
        <time>2021-07-25T09:15:13Z</time>
      </trkpt>
      <trkpt lat="39.9307510" lon="3.1343780">
        <ele>-2.0</ele>
        <time>2021-07-25T09:15:15Z</time>
      </trkpt>
      <trkpt lat="39.9308760" lon="3.1344500">
        <ele>-1.6</ele>
        <time>2021-07-25T09:15:19Z</time>
      </trkpt>
      <trkpt lat="39.9311060" lon="3.1345800">
        <ele>-1.0</ele>
        <time>2021-07-25T09:15:25Z</time>
      </trkpt>
      <trkpt lat="39.9311820" lon="3.1346170">
        <ele>-0.8</ele>
        <time>2021-07-25T09:15:27Z</time>
      </trkpt>
      <trkpt lat="39.9313080" lon="3.1346650">
        <ele>0.0</ele>
        <time>2021-07-25T09:15:31Z</time>
      </trkpt>
      <trkpt lat="39.9315070" lon="3.1347640">
        <ele>0.2</ele>
        <time>2021-07-25T09:15:37Z</time>
      </trkpt>
      <trkpt lat="39.9317580" lon="3.1348360">
        <ele>0.8</ele>
        <time>2021-07-25T09:15:43Z</time>
      </trkpt>
      <trkpt lat="39.9317960" lon="3.1348510">
        <ele>1.0</ele>
        <time>2021-07-25T09:15:44Z</time>
      </trkpt>
      <trkpt lat="39.9319730" lon="3.1349430">
        <ele>1.6</ele>
        <time>2021-07-25T09:15:50Z</time>
      </trkpt>
      <trkpt lat="39.9321090" lon="3.1350150">
        <ele>2.2</ele>
        <time>2021-07-25T09:15:54Z</time>
      </trkpt>
      <trkpt lat="39.9322450" lon="3.1350780">
        <ele>2.6</ele>
        <time>2021-07-25T09:15:58Z</time>
      </trkpt>
      <trkpt lat="39.9323910" lon="3.1351440">
        <ele>3.6</ele>
        <time>2021-07-25T09:16:03Z</time>
      </trkpt>
      <trkpt lat="39.9324490" lon="3.1351740">
        <ele>3.8</ele>
        <time>2021-07-25T09:16:05Z</time>
      </trkpt>
      <trkpt lat="39.9326070" lon="3.1352510">
        <ele>4.8</ele>
        <time>2021-07-25T09:16:11Z</time>
      </trkpt>
      <trkpt lat="39.9326440" lon="3.1352620">
        <ele>5.0</ele>
        <time>2021-07-25T09:16:12Z</time>
      </trkpt>
      <trkpt lat="39.9328390" lon="3.1353840">
        <ele>6.2</ele>
        <time>2021-07-25T09:16:18Z</time>
      </trkpt>
      <trkpt lat="39.9328760" lon="3.1353950">
        <ele>6.2</ele>
        <time>2021-07-25T09:16:19Z</time>
      </trkpt>
      <trkpt lat="39.9331020" lon="3.1355330">
        <ele>7.2</ele>
        <time>2021-07-25T09:16:26Z</time>
      </trkpt>
      <trkpt lat="39.9331620" lon="3.1355760">
        <ele>7.4</ele>
        <time>2021-07-25T09:16:28Z</time>
      </trkpt>
      <trkpt lat="39.9332670" lon="3.1357100">
        <ele>8.2</ele>
        <time>2021-07-25T09:16:32Z</time>
      </trkpt>
      <trkpt lat="39.9333620" lon="3.1359320">
        <ele>8.8</ele>
        <time>2021-07-25T09:16:37Z</time>
      </trkpt>
      <trkpt lat="39.9333720" lon="3.1359790">
        <ele>9.0</ele>
        <time>2021-07-25T09:16:38Z</time>
      </trkpt>
      <trkpt lat="39.9334040" lon="3.1364100">
        <ele>9.6</ele>
        <time>2021-07-25T09:16:45Z</time>
      </trkpt>
      <trkpt lat="39.9334280" lon="3.1367090">
        <ele>10.4</ele>
        <time>2021-07-25T09:16:51Z</time>
      </trkpt>
      <trkpt lat="39.9334320" lon="3.1367580">
        <ele>10.6</ele>
        <time>2021-07-25T09:16:52Z</time>
      </trkpt>
      <trkpt lat="39.9334410" lon="3.1370570">
        <ele>11.6</ele>
        <time>2021-07-25T09:16:59Z</time>
      </trkpt>
      <trkpt lat="39.9334390" lon="3.1370980">
        <ele>11.8</ele>
        <time>2021-07-25T09:17:00Z</time>
      </trkpt>
      <trkpt lat="39.9334480" lon="3.1372470">
        <ele>12.4</ele>
        <time>2021-07-25T09:17:04Z</time>
      </trkpt>
      <trkpt lat="39.9334660" lon="3.1374000">
        <ele>13.2</ele>
        <time>2021-07-25T09:17:08Z</time>
      </trkpt>
      <trkpt lat="39.9335090" lon="3.1375120">
        <ele>13.6</ele>
        <time>2021-07-25T09:17:11Z</time>
      </trkpt>
      <trkpt lat="39.9335970" lon="3.1376860">
        <ele>14.4</ele>
        <time>2021-07-25T09:17:16Z</time>
      </trkpt>
      <trkpt lat="39.9336180" lon="3.1377190">
        <ele>14.4</ele>
        <time>2021-07-25T09:17:17Z</time>
      </trkpt>
      <trkpt lat="39.9337250" lon="3.1378870">
        <ele>15.4</ele>
        <time>2021-07-25T09:17:22Z</time>
      </trkpt>
      <trkpt lat="39.9337800" lon="3.1379920">
        <ele>15.8</ele>
        <time>2021-07-25T09:17:25Z</time>
      </trkpt>
      <trkpt lat="39.9338350" lon="3.1380890">
        <ele>16.8</ele>
        <time>2021-07-25T09:17:28Z</time>
      </trkpt>
      <trkpt lat="39.9339040" lon="3.1382110">
        <ele>17.8</ele>
        <time>2021-07-25T09:17:32Z</time>
      </trkpt>
      <trkpt lat="39.9339920" lon="3.1383580">
        <ele>19.0</ele>
        <time>2021-07-25T09:17:37Z</time>
      </trkpt>
      <trkpt lat="39.9340300" lon="3.1384390">
        <ele>19.4</ele>
        <time>2021-07-25T09:17:39Z</time>
      </trkpt>
      <trkpt lat="39.9340880" lon="3.1385360">
        <ele>20.0</ele>
        <time>2021-07-25T09:17:42Z</time>
      </trkpt>
      <trkpt lat="39.9341710" lon="3.1386580">
        <ele>20.8</ele>
        <time>2021-07-25T09:17:46Z</time>
      </trkpt>
      <trkpt lat="39.9342300" lon="3.1387600">
        <ele>21.4</ele>
        <time>2021-07-25T09:17:49Z</time>
      </trkpt>
      <trkpt lat="39.9343390" lon="3.1389400">
        <ele>22.6</ele>
        <time>2021-07-25T09:17:54Z</time>
      </trkpt>
      <trkpt lat="39.9344390" lon="3.1391190">
        <ele>23.8</ele>
        <time>2021-07-25T09:17:59Z</time>
      </trkpt>
      <trkpt lat="39.9345510" lon="3.1392910">
        <ele>25.0</ele>
        <time>2021-07-25T09:18:04Z</time>
      </trkpt>
      <trkpt lat="39.9345770" lon="3.1393340">
        <ele>25.0</ele>
        <time>2021-07-25T09:18:05Z</time>
      </trkpt>
      <trkpt lat="39.9347410" lon="3.1396010">
        <ele>24.6</ele>
        <time>2021-07-25T09:18:11Z</time>
      </trkpt>
      <trkpt lat="39.9348720" lon="3.1398880">
        <ele>25.0</ele>
        <time>2021-07-25T09:18:17Z</time>
      </trkpt>
      <trkpt lat="39.9350250" lon="3.1403160">
        <ele>25.8</ele>
        <time>2021-07-25T09:18:25Z</time>
      </trkpt>
      <trkpt lat="39.9351470" lon="3.1406600">
        <ele>26.4</ele>
        <time>2021-07-25T09:18:32Z</time>
      </trkpt>
      <trkpt lat="39.9351670" lon="3.1407060">
        <ele>26.6</ele>
        <time>2021-07-25T09:18:33Z</time>
      </trkpt>
      <trkpt lat="39.9352780" lon="3.1409010">
        <ele>27.4</ele>
        <time>2021-07-25T09:18:38Z</time>
      </trkpt>
      <trkpt lat="39.9353310" lon="3.1409540">
        <ele>27.8</ele>
        <time>2021-07-25T09:18:40Z</time>
      </trkpt>
      <trkpt lat="39.9354170" lon="3.1410320">
        <ele>28.6</ele>
        <time>2021-07-25T09:18:43Z</time>
      </trkpt>
      <trkpt lat="39.9355760" lon="3.1411870">
        <ele>29.2</ele>
        <time>2021-07-25T09:18:48Z</time>
      </trkpt>
      <trkpt lat="39.9356990" lon="3.1413070">
        <ele>29.8</ele>
        <time>2021-07-25T09:18:52Z</time>
      </trkpt>
      <trkpt lat="39.9357580" lon="3.1413610">
        <ele>30.0</ele>
        <time>2021-07-25T09:18:54Z</time>
      </trkpt>
      <trkpt lat="39.9359570" lon="3.1415560">
        <ele>30.4</ele>
        <time>2021-07-25T09:19:00Z</time>
      </trkpt>
      <trkpt lat="39.9361740" lon="3.1417820">
        <ele>30.4</ele>
        <time>2021-07-25T09:19:06Z</time>
      </trkpt>
      <trkpt lat="39.9364130" lon="3.1420340">
        <ele>30.6</ele>
        <time>2021-07-25T09:19:13Z</time>
      </trkpt>
      <trkpt lat="39.9367270" lon="3.1423450">
        <ele>31.0</ele>
        <time>2021-07-25T09:19:21Z</time>
      </trkpt>
      <trkpt lat="39.9369820" lon="3.1425850">
        <ele>31.8</ele>
        <time>2021-07-25T09:19:28Z</time>
      </trkpt>
      <trkpt lat="39.9370570" lon="3.1426590">
        <ele>32.4</ele>
        <time>2021-07-25T09:19:30Z</time>
      </trkpt>
      <trkpt lat="39.9372640" lon="3.1428580">
        <ele>33.2</ele>
        <time>2021-07-25T09:19:36Z</time>
      </trkpt>
      <trkpt lat="39.9373670" lon="3.1429500">
        <ele>33.4</ele>
        <time>2021-07-25T09:19:39Z</time>
      </trkpt>
      <trkpt lat="39.9374400" lon="3.1430190">
        <ele>33.6</ele>
        <time>2021-07-25T09:19:41Z</time>
      </trkpt>
      <trkpt lat="39.9376580" lon="3.1432440">
        <ele>34.6</ele>
        <time>2021-07-25T09:19:48Z</time>
      </trkpt>
      <trkpt lat="39.9378310" lon="3.1434220">
        <ele>35.6</ele>
        <time>2021-07-25T09:19:54Z</time>
      </trkpt>
      <trkpt lat="39.9378640" lon="3.1434500">
        <ele>36.0</ele>
        <time>2021-07-25T09:19:55Z</time>
      </trkpt>
      <trkpt lat="39.9379720" lon="3.1435580">
        <ele>36.8</ele>
        <time>2021-07-25T09:19:59Z</time>
      </trkpt>
      <trkpt lat="39.9380290" lon="3.1436090">
        <ele>37.2</ele>
        <time>2021-07-25T09:20:01Z</time>
      </trkpt>
      <trkpt lat="39.9381010" lon="3.1436790">
        <ele>38.0</ele>
        <time>2021-07-25T09:20:04Z</time>
      </trkpt>
      <trkpt lat="39.9381840" lon="3.1437490">
        <ele>38.6</ele>
        <time>2021-07-25T09:20:07Z</time>
      </trkpt>
      <trkpt lat="39.9382580" lon="3.1438530">
        <ele>39.2</ele>
        <time>2021-07-25T09:20:10Z</time>
      </trkpt>
      <trkpt lat="39.9383850" lon="3.1440090">
        <ele>40.0</ele>
        <time>2021-07-25T09:20:14Z</time>
      </trkpt>
      <trkpt lat="39.9384430" lon="3.1440880">
        <ele>40.4</ele>
        <time>2021-07-25T09:20:16Z</time>
      </trkpt>
      <trkpt lat="39.9385480" lon="3.1442250">
        <ele>41.4</ele>
        <time>2021-07-25T09:20:20Z</time>
      </trkpt>
      <trkpt lat="39.9385690" lon="3.1442590">
        <ele>41.8</ele>
        <time>2021-07-25T09:20:21Z</time>
      </trkpt>
      <trkpt lat="39.9386890" lon="3.1444400">
        <ele>42.4</ele>
        <time>2021-07-25T09:20:26Z</time>
      </trkpt>
      <trkpt lat="39.9387120" lon="3.1444790">
        <ele>42.6</ele>
        <time>2021-07-25T09:20:27Z</time>
      </trkpt>
      <trkpt lat="39.9388660" lon="3.1447460">
        <ele>43.2</ele>
        <time>2021-07-25T09:20:33Z</time>
      </trkpt>
      <trkpt lat="39.9390700" lon="3.1451150">
        <ele>43.4</ele>
        <time>2021-07-25T09:20:40Z</time>
      </trkpt>
      <trkpt lat="39.9391050" lon="3.1451710">
        <ele>43.4</ele>
        <time>2021-07-25T09:20:41Z</time>
      </trkpt>
      <trkpt lat="39.9392840" lon="3.1454710">
        <ele>42.8</ele>
        <time>2021-07-25T09:20:46Z</time>
      </trkpt>
      <trkpt lat="39.9395550" lon="3.1459430">
        <ele>42.6</ele>
        <time>2021-07-25T09:20:53Z</time>
      </trkpt>
      <trkpt lat="39.9397600" lon="3.1463360">
        <ele>43.2</ele>
        <time>2021-07-25T09:21:00Z</time>
      </trkpt>
      <trkpt lat="39.9398530" lon="3.1464980">
        <ele>43.6</ele>
        <time>2021-07-25T09:21:03Z</time>
      </trkpt>
      <trkpt lat="39.9399130" lon="3.1466140">
        <ele>44.2</ele>
        <time>2021-07-25T09:21:05Z</time>
      </trkpt>
      <trkpt lat="39.9401280" lon="3.1469980">
        <ele>44.6</ele>
        <time>2021-07-25T09:21:12Z</time>
      </trkpt>
      <trkpt lat="39.9402230" lon="3.1471630">
        <ele>44.8</ele>
        <time>2021-07-25T09:21:15Z</time>
      </trkpt>
      <trkpt lat="39.9402910" lon="3.1472880">
        <ele>44.8</ele>
        <time>2021-07-25T09:21:17Z</time>
      </trkpt>
      <trkpt lat="39.9405190" lon="3.1476830">
        <ele>45.2</ele>
        <time>2021-07-25T09:21:24Z</time>
      </trkpt>
      <trkpt lat="39.9405500" lon="3.1477390">
        <ele>45.4</ele>
        <time>2021-07-25T09:21:25Z</time>
      </trkpt>
      <trkpt lat="39.9407170" lon="3.1480210">
        <ele>45.8</ele>
        <time>2021-07-25T09:21:30Z</time>
      </trkpt>
      <trkpt lat="39.9407490" lon="3.1480740">
        <ele>46.0</ele>
        <time>2021-07-25T09:21:31Z</time>
      </trkpt>
      <trkpt lat="39.9409410" lon="3.1484060">
        <ele>46.6</ele>
        <time>2021-07-25T09:21:37Z</time>
      </trkpt>
      <trkpt lat="39.9411100" lon="3.1486950">
        <ele>46.0</ele>
        <time>2021-07-25T09:21:42Z</time>
      </trkpt>
      <trkpt lat="39.9413000" lon="3.1490550">
        <ele>46.2</ele>
        <time>2021-07-25T09:21:48Z</time>
      </trkpt>
      <trkpt lat="39.9414460" lon="3.1493310">
        <ele>46.6</ele>
        <time>2021-07-25T09:21:53Z</time>
      </trkpt>
      <trkpt lat="39.9414670" lon="3.1493730">
        <ele>46.6</ele>
        <time>2021-07-25T09:21:54Z</time>
      </trkpt>
      <trkpt lat="39.9415230" lon="3.1494810">
        <ele>46.8</ele>
        <time>2021-07-25T09:21:56Z</time>
      </trkpt>
      <trkpt lat="39.9415830" lon="3.1495760">
        <ele>47.4</ele>
        <time>2021-07-25T09:21:58Z</time>
      </trkpt>
      <trkpt lat="39.9416120" lon="3.1496250">
        <ele>47.8</ele>
        <time>2021-07-25T09:21:59Z</time>
      </trkpt>
      <trkpt lat="39.9417360" lon="3.1498530">
        <ele>48.8</ele>
        <time>2021-07-25T09:22:04Z</time>
      </trkpt>
      <trkpt lat="39.9417930" lon="3.1499380">
        <ele>49.0</ele>
        <time>2021-07-25T09:22:06Z</time>
      </trkpt>
      <trkpt lat="39.9419030" lon="3.1501290">
        <ele>49.8</ele>
        <time>2021-07-25T09:22:10Z</time>
      </trkpt>
      <trkpt lat="39.9419800" lon="3.1502510">
        <ele>50.2</ele>
        <time>2021-07-25T09:22:13Z</time>
      </trkpt>
      <trkpt lat="39.9420260" lon="3.1503400">
        <ele>50.6</ele>
        <time>2021-07-25T09:22:15Z</time>
      </trkpt>
      <trkpt lat="39.9421420" lon="3.1505490">
        <ele>51.6</ele>
        <time>2021-07-25T09:22:20Z</time>
      </trkpt>
      <trkpt lat="39.9422190" lon="3.1506830">
        <ele>52.2</ele>
        <time>2021-07-25T09:22:23Z</time>
      </trkpt>
      <trkpt lat="39.9422910" lon="3.1508090">
        <ele>52.4</ele>
        <time>2021-07-25T09:22:26Z</time>
      </trkpt>
      <trkpt lat="39.9423360" lon="3.1508900">
        <ele>52.8</ele>
        <time>2021-07-25T09:22:28Z</time>
      </trkpt>
      <trkpt lat="39.9424610" lon="3.1511030">
        <ele>53.0</ele>
        <time>2021-07-25T09:22:33Z</time>
      </trkpt>
      <trkpt lat="39.9425720" lon="3.1513180">
        <ele>53.4</ele>
        <time>2021-07-25T09:22:38Z</time>
      </trkpt>
      <trkpt lat="39.9426490" lon="3.1514620">
        <ele>53.6</ele>
        <time>2021-07-25T09:22:41Z</time>
      </trkpt>
      <trkpt lat="39.9428150" lon="3.1517500">
        <ele>53.8</ele>
        <time>2021-07-25T09:22:47Z</time>
      </trkpt>
      <trkpt lat="39.9429320" lon="3.1519740">
        <ele>54.4</ele>
        <time>2021-07-25T09:22:51Z</time>
      </trkpt>
      <trkpt lat="39.9430230" lon="3.1521120">
        <ele>54.2</ele>
        <time>2021-07-25T09:22:54Z</time>
      </trkpt>
      <trkpt lat="39.9431080" lon="3.1522650">
        <ele>54.4</ele>
        <time>2021-07-25T09:22:58Z</time>
      </trkpt>
      <trkpt lat="39.9431480" lon="3.1523510">
        <ele>54.6</ele>
        <time>2021-07-25T09:23:00Z</time>
      </trkpt>
      <trkpt lat="39.9433490" lon="3.1527000">
        <ele>54.8</ele>
        <time>2021-07-25T09:23:08Z</time>
      </trkpt>
      <trkpt lat="39.9434270" lon="3.1528510">
        <ele>55.0</ele>
        <time>2021-07-25T09:23:11Z</time>
      </trkpt>
      <trkpt lat="39.9435390" lon="3.1530480">
        <ele>55.2</ele>
        <time>2021-07-25T09:23:15Z</time>
      </trkpt>
      <trkpt lat="39.9437370" lon="3.1534170">
        <ele>55.6</ele>
        <time>2021-07-25T09:23:22Z</time>
      </trkpt>
      <trkpt lat="39.9438580" lon="3.1536310">
        <ele>55.8</ele>
        <time>2021-07-25T09:23:26Z</time>
      </trkpt>
      <trkpt lat="39.9438840" lon="3.1536780">
        <ele>55.8</ele>
        <time>2021-07-25T09:23:27Z</time>
      </trkpt>
      <trkpt lat="39.9439360" lon="3.1537670">
        <ele>56.0</ele>
        <time>2021-07-25T09:23:29Z</time>
      </trkpt>
      <trkpt lat="39.9440900" lon="3.1540170">
        <ele>56.8</ele>
        <time>2021-07-25T09:23:34Z</time>
      </trkpt>
      <trkpt lat="39.9442590" lon="3.1543000">
        <ele>57.8</ele>
        <time>2021-07-25T09:23:40Z</time>
      </trkpt>
      <trkpt lat="39.9442870" lon="3.1543480">
        <ele>57.8</ele>
        <time>2021-07-25T09:23:41Z</time>
      </trkpt>
      <trkpt lat="39.9444000" lon="3.1545530">
        <ele>58.6</ele>
        <time>2021-07-25T09:23:45Z</time>
      </trkpt>
      <trkpt lat="39.9444280" lon="3.1546010">
        <ele>58.6</ele>
        <time>2021-07-25T09:23:46Z</time>
      </trkpt>
      <trkpt lat="39.9445100" lon="3.1547440">
        <ele>59.0</ele>
        <time>2021-07-25T09:23:49Z</time>
      </trkpt>
      <trkpt lat="39.9445930" lon="3.1549070">
        <ele>59.2</ele>
        <time>2021-07-25T09:23:52Z</time>
      </trkpt>
      <trkpt lat="39.9447360" lon="3.1551260">
        <ele>60.0</ele>
        <time>2021-07-25T09:23:56Z</time>
      </trkpt>
      <trkpt lat="39.9447700" lon="3.1551780">
        <ele>60.2</ele>
        <time>2021-07-25T09:23:57Z</time>
      </trkpt>
      <trkpt lat="39.9449360" lon="3.1554940">
        <ele>60.0</ele>
        <time>2021-07-25T09:24:03Z</time>
      </trkpt>
      <trkpt lat="39.9450730" lon="3.1557230">
        <ele>60.2</ele>
        <time>2021-07-25T09:24:08Z</time>
      </trkpt>
      <trkpt lat="39.9452130" lon="3.1559780">
        <ele>60.4</ele>
        <time>2021-07-25T09:24:13Z</time>
      </trkpt>
      <trkpt lat="39.9452430" lon="3.1560350">
        <ele>60.4</ele>
        <time>2021-07-25T09:24:14Z</time>
      </trkpt>
      <trkpt lat="39.9453080" lon="3.1561590">
        <ele>60.8</ele>
        <time>2021-07-25T09:24:16Z</time>
      </trkpt>
      <trkpt lat="39.9454140" lon="3.1563610">
        <ele>60.6</ele>
        <time>2021-07-25T09:24:19Z</time>
      </trkpt>
      <trkpt lat="39.9456150" lon="3.1567300">
        <ele>60.2</ele>
        <time>2021-07-25T09:24:25Z</time>
      </trkpt>
      <trkpt lat="39.9458500" lon="3.1571540">
        <ele>60.4</ele>
        <time>2021-07-25T09:24:32Z</time>
      </trkpt>
      <trkpt lat="39.9459330" lon="3.1573040">
        <ele>60.4</ele>
        <time>2021-07-25T09:24:35Z</time>
      </trkpt>
      <trkpt lat="39.9459870" lon="3.1574140">
        <ele>60.8</ele>
        <time>2021-07-25T09:24:37Z</time>
      </trkpt>
      <trkpt lat="39.9461400" lon="3.1576870">
        <ele>61.4</ele>
        <time>2021-07-25T09:24:43Z</time>
      </trkpt>
      <trkpt lat="39.9461670" lon="3.1577340">
        <ele>61.2</ele>
        <time>2021-07-25T09:24:44Z</time>
      </trkpt>
      <trkpt lat="39.9463560" lon="3.1580600">
        <ele>61.4</ele>
        <time>2021-07-25T09:24:50Z</time>
      </trkpt>
      <trkpt lat="39.9464910" lon="3.1582830">
        <ele>62.0</ele>
        <time>2021-07-25T09:24:55Z</time>
      </trkpt>
      <trkpt lat="39.9465870" lon="3.1584380">
        <ele>62.6</ele>
        <time>2021-07-25T09:24:58Z</time>
      </trkpt>
      <trkpt lat="39.9466650" lon="3.1585870">
        <ele>63.0</ele>
        <time>2021-07-25T09:25:01Z</time>
      </trkpt>
      <trkpt lat="39.9467650" lon="3.1587580">
        <ele>63.8</ele>
        <time>2021-07-25T09:25:05Z</time>
      </trkpt>
      <trkpt lat="39.9467930" lon="3.1587990">
        <ele>64.0</ele>
        <time>2021-07-25T09:25:06Z</time>
      </trkpt>
      <trkpt lat="39.9469170" lon="3.1589950">
        <ele>65.2</ele>
        <time>2021-07-25T09:25:11Z</time>
      </trkpt>
      <trkpt lat="39.9469620" lon="3.1590790">
        <ele>65.2</ele>
        <time>2021-07-25T09:25:13Z</time>
      </trkpt>
      <trkpt lat="39.9470220" lon="3.1592030">
        <ele>66.0</ele>
        <time>2021-07-25T09:25:16Z</time>
      </trkpt>
      <trkpt lat="39.9471240" lon="3.1594020">
        <ele>67.2</ele>
        <time>2021-07-25T09:25:21Z</time>
      </trkpt>
      <trkpt lat="39.9471390" lon="3.1594360">
        <ele>67.2</ele>
        <time>2021-07-25T09:25:22Z</time>
      </trkpt>
      <trkpt lat="39.9472600" lon="3.1596280">
        <ele>67.8</ele>
        <time>2021-07-25T09:25:27Z</time>
      </trkpt>
      <trkpt lat="39.9472740" lon="3.1596680">
        <ele>68.0</ele>
        <time>2021-07-25T09:25:28Z</time>
      </trkpt>
      <trkpt lat="39.9474040" lon="3.1598820">
        <ele>69.0</ele>
        <time>2021-07-25T09:25:34Z</time>
      </trkpt>
      <trkpt lat="39.9474810" lon="3.1600280">
        <ele>70.0</ele>
        <time>2021-07-25T09:25:38Z</time>
      </trkpt>
      <trkpt lat="39.9475440" lon="3.1601360">
        <ele>70.2</ele>
        <time>2021-07-25T09:25:41Z</time>
      </trkpt>
      <trkpt lat="39.9476610" lon="3.1603580">
        <ele>70.6</ele>
        <time>2021-07-25T09:25:47Z</time>
      </trkpt>
      <trkpt lat="39.9476780" lon="3.1603880">
        <ele>70.8</ele>
        <time>2021-07-25T09:25:48Z</time>
      </trkpt>
      <trkpt lat="39.9477160" lon="3.1605780">
        <ele>71.8</ele>
        <time>2021-07-25T09:25:53Z</time>
      </trkpt>
      <trkpt lat="39.9477550" lon="3.1607370">
        <ele>72.4</ele>
        <time>2021-07-25T09:25:58Z</time>
      </trkpt>
      <trkpt lat="39.9477590" lon="3.1608130">
        <ele>72.6</ele>
        <time>2021-07-25T09:26:00Z</time>
      </trkpt>
      <trkpt lat="39.9477520" lon="3.1609560">
        <ele>72.8</ele>
        <time>2021-07-25T09:26:03Z</time>
      </trkpt>
      <trkpt lat="39.9477190" lon="3.1611610">
        <ele>73.0</ele>
        <time>2021-07-25T09:26:08Z</time>
      </trkpt>
      <trkpt lat="39.9476740" lon="3.1613000">
        <ele>73.4</ele>
        <time>2021-07-25T09:26:11Z</time>
      </trkpt>
      <trkpt lat="39.9476380" lon="3.1614450">
        <ele>73.4</ele>
        <time>2021-07-25T09:26:14Z</time>
      </trkpt>
      <trkpt lat="39.9475790" lon="3.1616010">
        <ele>74.2</ele>
        <time>2021-07-25T09:26:18Z</time>
      </trkpt>
      <trkpt lat="39.9475600" lon="3.1617000">
        <ele>74.4</ele>
        <time>2021-07-25T09:26:20Z</time>
      </trkpt>
      <trkpt lat="39.9475160" lon="3.1620310">
        <ele>75.2</ele>
        <time>2021-07-25T09:26:25Z</time>
      </trkpt>
      <trkpt lat="39.9475680" lon="3.1622260">
        <ele>76.2</ele>
        <time>2021-07-25T09:26:28Z</time>
      </trkpt>
      <trkpt lat="39.9476190" lon="3.1623470">
        <ele>76.6</ele>
        <time>2021-07-25T09:26:30Z</time>
      </trkpt>
      <trkpt lat="39.9477050" lon="3.1625340">
        <ele>77.2</ele>
        <time>2021-07-25T09:26:34Z</time>
      </trkpt>
      <trkpt lat="39.9477520" lon="3.1626080">
        <ele>77.4</ele>
        <time>2021-07-25T09:26:36Z</time>
      </trkpt>
      <trkpt lat="39.9478710" lon="3.1627330">
        <ele>78.0</ele>
        <time>2021-07-25T09:26:41Z</time>
      </trkpt>
      <trkpt lat="39.9479070" lon="3.1627810">
        <ele>78.6</ele>
        <time>2021-07-25T09:26:43Z</time>
      </trkpt>
      <trkpt lat="39.9479230" lon="3.1627940">
        <ele>79.0</ele>
        <time>2021-07-25T09:26:44Z</time>
      </trkpt>
      <trkpt lat="39.9479970" lon="3.1628830">
        <ele>80.0</ele>
        <time>2021-07-25T09:26:48Z</time>
      </trkpt>
      <trkpt lat="39.9481210" lon="3.1630040">
        <ele>81.0</ele>
        <time>2021-07-25T09:26:54Z</time>
      </trkpt>
      <trkpt lat="39.9481510" lon="3.1630170">
        <ele>81.2</ele>
        <time>2021-07-25T09:26:55Z</time>
      </trkpt>
      <trkpt lat="39.9482360" lon="3.1631150">
        <ele>82.2</ele>
        <time>2021-07-25T09:26:58Z</time>
      </trkpt>
      <trkpt lat="39.9483050" lon="3.1632120">
        <ele>82.6</ele>
        <time>2021-07-25T09:27:01Z</time>
      </trkpt>
      <trkpt lat="39.9483430" lon="3.1632740">
        <ele>83.2</ele>
        <time>2021-07-25T09:27:03Z</time>
      </trkpt>
      <trkpt lat="39.9483910" lon="3.1634120">
        <ele>84.0</ele>
        <time>2021-07-25T09:27:06Z</time>
      </trkpt>
      <trkpt lat="39.9484400" lon="3.1635390">
        <ele>84.0</ele>
        <time>2021-07-25T09:27:08Z</time>
      </trkpt>
      <trkpt lat="39.9484970" lon="3.1637160">
        <ele>83.8</ele>
        <time>2021-07-25T09:27:11Z</time>
      </trkpt>
      <trkpt lat="39.9485820" lon="3.1641650">
        <ele>83.0</ele>
        <time>2021-07-25T09:27:17Z</time>
      </trkpt>
      <trkpt lat="39.9486560" lon="3.1645370">
        <ele>82.6</ele>
        <time>2021-07-25T09:27:22Z</time>
      </trkpt>
      <trkpt lat="39.9486690" lon="3.1646190">
        <ele>82.4</ele>
        <time>2021-07-25T09:27:23Z</time>
      </trkpt>
      <trkpt lat="39.9487990" lon="3.1651050">
        <ele>81.4</ele>
        <time>2021-07-25T09:27:28Z</time>
      </trkpt>
      <trkpt lat="39.9488240" lon="3.1652050">
        <ele>81.2</ele>
        <time>2021-07-25T09:27:29Z</time>
      </trkpt>
      <trkpt lat="39.9488730" lon="3.1654120">
        <ele>80.0</ele>
        <time>2021-07-25T09:27:31Z</time>
      </trkpt>
      <trkpt lat="39.9489570" lon="3.1657270">
        <ele>78.6</ele>
        <time>2021-07-25T09:27:34Z</time>
      </trkpt>
      <trkpt lat="39.9489850" lon="3.1658330">
        <ele>78.0</ele>
        <time>2021-07-25T09:27:35Z</time>
      </trkpt>
      <trkpt lat="39.9490360" lon="3.1660580">
        <ele>77.2</ele>
        <time>2021-07-25T09:27:37Z</time>
      </trkpt>
      <trkpt lat="39.9490830" lon="3.1664100">
        <ele>76.4</ele>
        <time>2021-07-25T09:27:40Z</time>
      </trkpt>
      <trkpt lat="39.9490960" lon="3.1665270">
        <ele>76.0</ele>
        <time>2021-07-25T09:27:41Z</time>
      </trkpt>
      <trkpt lat="39.9491280" lon="3.1667630">
        <ele>74.8</ele>
        <time>2021-07-25T09:27:43Z</time>
      </trkpt>
      <trkpt lat="39.9491560" lon="3.1671130">
        <ele>73.8</ele>
        <time>2021-07-25T09:27:46Z</time>
      </trkpt>
      <trkpt lat="39.9491660" lon="3.1672310">
        <ele>72.8</ele>
        <time>2021-07-25T09:27:47Z</time>
      </trkpt>
      <trkpt lat="39.9491770" lon="3.1673480">
        <ele>72.2</ele>
        <time>2021-07-25T09:27:48Z</time>
      </trkpt>
      <trkpt lat="39.9492310" lon="3.1676930">
        <ele>70.8</ele>
        <time>2021-07-25T09:27:51Z</time>
      </trkpt>
      <trkpt lat="39.9492890" lon="3.1680270">
        <ele>69.4</ele>
        <time>2021-07-25T09:27:54Z</time>
      </trkpt>
      <trkpt lat="39.9493400" lon="3.1683610">
        <ele>68.2</ele>
        <time>2021-07-25T09:27:57Z</time>
      </trkpt>
      <trkpt lat="39.9493920" lon="3.1687920">
        <ele>67.6</ele>
        <time>2021-07-25T09:28:01Z</time>
      </trkpt>
      <trkpt lat="39.9493900" lon="3.1690020">
        <ele>67.4</ele>
        <time>2021-07-25T09:28:03Z</time>
      </trkpt>
      <trkpt lat="39.9493610" lon="3.1692000">
        <ele>67.2</ele>
        <time>2021-07-25T09:28:05Z</time>
      </trkpt>
      <trkpt lat="39.9493360" lon="3.1692970">
        <ele>66.8</ele>
        <time>2021-07-25T09:28:06Z</time>
      </trkpt>
      <trkpt lat="39.9492480" lon="3.1697560">
        <ele>66.4</ele>
        <time>2021-07-25T09:28:11Z</time>
      </trkpt>
      <trkpt lat="39.9492060" lon="3.1699710">
        <ele>67.0</ele>
        <time>2021-07-25T09:28:14Z</time>
      </trkpt>
      <trkpt lat="39.9492000" lon="3.1700290">
        <ele>67.2</ele>
        <time>2021-07-25T09:28:15Z</time>
      </trkpt>
      <trkpt lat="39.9492010" lon="3.1701330">
        <ele>68.0</ele>
        <time>2021-07-25T09:28:17Z</time>
      </trkpt>
      <trkpt lat="39.9492020" lon="3.1702660">
        <ele>68.6</ele>
        <time>2021-07-25T09:28:20Z</time>
      </trkpt>
      <trkpt lat="39.9492080" lon="3.1703510">
        <ele>69.2</ele>
        <time>2021-07-25T09:28:22Z</time>
      </trkpt>
      <trkpt lat="39.9492220" lon="3.1704520">
        <ele>70.8</ele>
        <time>2021-07-25T09:28:25Z</time>
      </trkpt>
      <trkpt lat="39.9492270" lon="3.1704900">
        <ele>70.8</ele>
        <time>2021-07-25T09:28:26Z</time>
      </trkpt>
      <trkpt lat="39.9492410" lon="3.1706490">
        <ele>71.6</ele>
        <time>2021-07-25T09:28:30Z</time>
      </trkpt>
      <trkpt lat="39.9492270" lon="3.1708060">
        <ele>72.8</ele>
        <time>2021-07-25T09:28:34Z</time>
      </trkpt>
      <trkpt lat="39.9491970" lon="3.1709510">
        <ele>74.0</ele>
        <time>2021-07-25T09:28:38Z</time>
      </trkpt>
      <trkpt lat="39.9491890" lon="3.1709840">
        <ele>74.2</ele>
        <time>2021-07-25T09:28:39Z</time>
      </trkpt>
      <trkpt lat="39.9491580" lon="3.1710740">
        <ele>75.2</ele>
        <time>2021-07-25T09:28:42Z</time>
      </trkpt>
      <trkpt lat="39.9491070" lon="3.1711990">
        <ele>76.0</ele>
        <time>2021-07-25T09:28:46Z</time>
      </trkpt>
      <trkpt lat="39.9490750" lon="3.1712550">
        <ele>76.4</ele>
        <time>2021-07-25T09:28:48Z</time>
      </trkpt>
      <trkpt lat="39.9490540" lon="3.1712770">
        <ele>76.8</ele>
        <time>2021-07-25T09:28:49Z</time>
      </trkpt>
      <trkpt lat="39.9490040" lon="3.1713110">
        <ele>77.2</ele>
        <time>2021-07-25T09:28:51Z</time>
      </trkpt>
      <trkpt lat="39.9489560" lon="3.1713280">
        <ele>77.6</ele>
        <time>2021-07-25T09:28:53Z</time>
      </trkpt>
      <trkpt lat="39.9488650" lon="3.1713350">
        <ele>78.4</ele>
        <time>2021-07-25T09:28:56Z</time>
      </trkpt>
      <trkpt lat="39.9488350" lon="3.1713400">
        <ele>78.6</ele>
        <time>2021-07-25T09:28:57Z</time>
      </trkpt>
      <trkpt lat="39.9487550" lon="3.1713370">
        <ele>79.6</ele>
        <time>2021-07-25T09:29:00Z</time>
      </trkpt>
      <trkpt lat="39.9487050" lon="3.1713290">
        <ele>80.0</ele>
        <time>2021-07-25T09:29:02Z</time>
      </trkpt>
      <trkpt lat="39.9485830" lon="3.1713340">
        <ele>80.8</ele>
        <time>2021-07-25T09:29:06Z</time>
      </trkpt>
      <trkpt lat="39.9485520" lon="3.1713300">
        <ele>81.0</ele>
        <time>2021-07-25T09:29:07Z</time>
      </trkpt>
      <trkpt lat="39.9484010" lon="3.1713430">
        <ele>82.0</ele>
        <time>2021-07-25T09:29:12Z</time>
      </trkpt>
      <trkpt lat="39.9483710" lon="3.1713560">
        <ele>82.2</ele>
        <time>2021-07-25T09:29:13Z</time>
      </trkpt>
      <trkpt lat="39.9482500" lon="3.1714510">
        <ele>83.2</ele>
        <time>2021-07-25T09:29:17Z</time>
      </trkpt>
      <trkpt lat="39.9482230" lon="3.1714800">
        <ele>83.8</ele>
        <time>2021-07-25T09:29:18Z</time>
      </trkpt>
      <trkpt lat="39.9482070" lon="3.1715100">
        <ele>84.0</ele>
        <time>2021-07-25T09:29:19Z</time>
      </trkpt>
      <trkpt lat="39.9481950" lon="3.1715860">
        <ele>84.4</ele>
        <time>2021-07-25T09:29:21Z</time>
      </trkpt>
      <trkpt lat="39.9481790" lon="3.1716910">
        <ele>85.6</ele>
        <time>2021-07-25T09:29:24Z</time>
      </trkpt>
      <trkpt lat="39.9481770" lon="3.1717650">
        <ele>86.6</ele>
        <time>2021-07-25T09:29:26Z</time>
      </trkpt>
      <trkpt lat="39.9481780" lon="3.1718010">
        <ele>87.0</ele>
        <time>2021-07-25T09:29:27Z</time>
      </trkpt>
      <trkpt lat="39.9482160" lon="3.1718950">
        <ele>88.2</ele>
        <time>2021-07-25T09:29:31Z</time>
      </trkpt>
      <trkpt lat="39.9483100" lon="3.1720090">
        <ele>89.2</ele>
        <time>2021-07-25T09:29:35Z</time>
      </trkpt>
      <trkpt lat="39.9484060" lon="3.1720630">
        <ele>90.4</ele>
        <time>2021-07-25T09:29:39Z</time>
      </trkpt>
      <trkpt lat="39.9484580" lon="3.1720900">
        <ele>91.0</ele>
        <time>2021-07-25T09:29:41Z</time>
      </trkpt>
      <trkpt lat="39.9485290" lon="3.1721280">
        <ele>91.8</ele>
        <time>2021-07-25T09:29:44Z</time>
      </trkpt>
      <trkpt lat="39.9485990" lon="3.1721620">
        <ele>93.0</ele>
        <time>2021-07-25T09:29:47Z</time>
      </trkpt>
      <trkpt lat="39.9486220" lon="3.1721760">
        <ele>93.4</ele>
        <time>2021-07-25T09:29:48Z</time>
      </trkpt>
      <trkpt lat="39.9487290" lon="3.1722320">
        <ele>94.2</ele>
        <time>2021-07-25T09:29:53Z</time>
      </trkpt>
      <trkpt lat="39.9487550" lon="3.1722450">
        <ele>94.6</ele>
        <time>2021-07-25T09:29:54Z</time>
      </trkpt>
      <trkpt lat="39.9488600" lon="3.1723000">
        <ele>95.4</ele>
        <time>2021-07-25T09:29:58Z</time>
      </trkpt>
      <trkpt lat="39.9489200" lon="3.1723810">
        <ele>96.0</ele>
        <time>2021-07-25T09:30:01Z</time>
      </trkpt>
      <trkpt lat="39.9489440" lon="3.1724480">
        <ele>96.4</ele>
        <time>2021-07-25T09:30:03Z</time>
      </trkpt>
      <trkpt lat="39.9489480" lon="3.1725560">
        <ele>97.4</ele>
        <time>2021-07-25T09:30:06Z</time>
      </trkpt>
      <trkpt lat="39.9489500" lon="3.1725910">
        <ele>97.6</ele>
        <time>2021-07-25T09:30:07Z</time>
      </trkpt>
      <trkpt lat="39.9489290" lon="3.1727270">
        <ele>98.6</ele>
        <time>2021-07-25T09:30:11Z</time>
      </trkpt>
      <trkpt lat="39.9489230" lon="3.1727630">
        <ele>99.0</ele>
        <time>2021-07-25T09:30:12Z</time>
      </trkpt>
      <trkpt lat="39.9489050" lon="3.1728720">
        <ele>100.0</ele>
        <time>2021-07-25T09:30:15Z</time>
      </trkpt>
      <trkpt lat="39.9488840" lon="3.1729780">
        <ele>101.2</ele>
        <time>2021-07-25T09:30:18Z</time>
      </trkpt>
      <trkpt lat="39.9488750" lon="3.1730840">
        <ele>101.8</ele>
        <time>2021-07-25T09:30:21Z</time>
      </trkpt>
      <trkpt lat="39.9488570" lon="3.1732270">
        <ele>102.4</ele>
        <time>2021-07-25T09:30:25Z</time>
      </trkpt>
      <trkpt lat="39.9488510" lon="3.1733370">
        <ele>102.8</ele>
        <time>2021-07-25T09:30:28Z</time>
      </trkpt>
      <trkpt lat="39.9488490" lon="3.1735290">
        <ele>103.4</ele>
        <time>2021-07-25T09:30:33Z</time>
      </trkpt>
      <trkpt lat="39.9488600" lon="3.1736080">
        <ele>103.6</ele>
        <time>2021-07-25T09:30:35Z</time>
      </trkpt>
      <trkpt lat="39.9489340" lon="3.1739060">
        <ele>104.4</ele>
        <time>2021-07-25T09:30:42Z</time>
      </trkpt>
      <trkpt lat="39.9489940" lon="3.1741100">
        <ele>105.6</ele>
        <time>2021-07-25T09:30:47Z</time>
      </trkpt>
      <trkpt lat="39.9490030" lon="3.1741510">
        <ele>105.8</ele>
        <time>2021-07-25T09:30:48Z</time>
      </trkpt>
      <trkpt lat="39.9490820" lon="3.1743850">
        <ele>106.4</ele>
        <time>2021-07-25T09:30:54Z</time>
      </trkpt>
      <trkpt lat="39.9491280" lon="3.1745480">
        <ele>106.8</ele>
        <time>2021-07-25T09:30:58Z</time>
      </trkpt>
      <trkpt lat="39.9491600" lon="3.1746630">
        <ele>107.2</ele>
        <time>2021-07-25T09:31:01Z</time>
      </trkpt>
      <trkpt lat="39.9492280" lon="3.1747880">
        <ele>108.0</ele>
        <time>2021-07-25T09:31:05Z</time>
      </trkpt>
      <trkpt lat="39.9492830" lon="3.1748960">
        <ele>108.6</ele>
        <time>2021-07-25T09:31:08Z</time>
      </trkpt>
      <trkpt lat="39.9493330" lon="3.1750060">
        <ele>109.0</ele>
        <time>2021-07-25T09:31:11Z</time>
      </trkpt>
      <trkpt lat="39.9493880" lon="3.1751700">
        <ele>110.0</ele>
        <time>2021-07-25T09:31:15Z</time>
      </trkpt>
      <trkpt lat="39.9494080" lon="3.1752530">
        <ele>110.2</ele>
        <time>2021-07-25T09:31:17Z</time>
      </trkpt>
      <trkpt lat="39.9494590" lon="3.1754690">
        <ele>110.8</ele>
        <time>2021-07-25T09:31:22Z</time>
      </trkpt>
      <trkpt lat="39.9494860" lon="3.1755880">
        <ele>111.4</ele>
        <time>2021-07-25T09:31:25Z</time>
      </trkpt>
      <trkpt lat="39.9495360" lon="3.1757900">
        <ele>112.4</ele>
        <time>2021-07-25T09:31:30Z</time>
      </trkpt>
      <trkpt lat="39.9495490" lon="3.1758270">
        <ele>112.6</ele>
        <time>2021-07-25T09:31:31Z</time>
      </trkpt>
      <trkpt lat="39.9495860" lon="3.1760080">
        <ele>113.8</ele>
        <time>2021-07-25T09:31:35Z</time>
      </trkpt>
      <trkpt lat="39.9496110" lon="3.1761010">
        <ele>114.2</ele>
        <time>2021-07-25T09:31:37Z</time>
      </trkpt>
      <trkpt lat="39.9496690" lon="3.1763430">
        <ele>115.0</ele>
        <time>2021-07-25T09:31:42Z</time>
      </trkpt>
      <trkpt lat="39.9496760" lon="3.1764390">
        <ele>115.2</ele>
        <time>2021-07-25T09:31:44Z</time>
      </trkpt>
      <trkpt lat="39.9496440" lon="3.1766530">
        <ele>116.0</ele>
        <time>2021-07-25T09:31:49Z</time>
      </trkpt>
      <trkpt lat="39.9496370" lon="3.1766920">
        <ele>116.2</ele>
        <time>2021-07-25T09:31:50Z</time>
      </trkpt>
      <trkpt lat="39.9495900" lon="3.1768510">
        <ele>117.2</ele>
        <time>2021-07-25T09:31:55Z</time>
      </trkpt>
      <trkpt lat="39.9495850" lon="3.1768820">
        <ele>117.4</ele>
        <time>2021-07-25T09:31:56Z</time>
      </trkpt>
      <trkpt lat="39.9495240" lon="3.1770440">
        <ele>118.2</ele>
        <time>2021-07-25T09:32:01Z</time>
      </trkpt>
      <trkpt lat="39.9494950" lon="3.1771280">
        <ele>118.4</ele>
        <time>2021-07-25T09:32:03Z</time>
      </trkpt>
      <trkpt lat="39.9495050" lon="3.1773210">
        <ele>119.2</ele>
        <time>2021-07-25T09:32:08Z</time>
      </trkpt>
      <trkpt lat="39.9495060" lon="3.1773570">
        <ele>119.4</ele>
        <time>2021-07-25T09:32:09Z</time>
      </trkpt>
      <trkpt lat="39.9495590" lon="3.1776100">
        <ele>119.8</ele>
        <time>2021-07-25T09:32:16Z</time>
      </trkpt>
      <trkpt lat="39.9496220" lon="3.1777380">
        <ele>120.0</ele>
        <time>2021-07-25T09:32:20Z</time>
      </trkpt>
      <trkpt lat="39.9496740" lon="3.1778140">
        <ele>120.2</ele>
        <time>2021-07-25T09:32:22Z</time>
      </trkpt>
      <trkpt lat="39.9497710" lon="3.1779560">
        <ele>121.0</ele>
        <time>2021-07-25T09:32:27Z</time>
      </trkpt>
      <trkpt lat="39.9499160" lon="3.1781410">
        <ele>122.2</ele>
        <time>2021-07-25T09:32:33Z</time>
      </trkpt>
      <trkpt lat="39.9499390" lon="3.1781740">
        <ele>122.4</ele>
        <time>2021-07-25T09:32:34Z</time>
      </trkpt>
      <trkpt lat="39.9500240" lon="3.1782980">
        <ele>123.2</ele>
        <time>2021-07-25T09:32:38Z</time>
      </trkpt>
      <trkpt lat="39.9500840" lon="3.1784050">
        <ele>124.2</ele>
        <time>2021-07-25T09:32:42Z</time>
      </trkpt>
      <trkpt lat="39.9500740" lon="3.1786350">
        <ele>125.6</ele>
        <time>2021-07-25T09:32:48Z</time>
      </trkpt>
      <trkpt lat="39.9500640" lon="3.1788650">
        <ele>126.4</ele>
        <time>2021-07-25T09:32:55Z</time>
      </trkpt>
      <trkpt lat="39.9500540" lon="3.1790940">
        <ele>127.6</ele>
        <time>2021-07-25T09:33:02Z</time>
      </trkpt>
      <trkpt lat="39.9500440" lon="3.1793240">
        <ele>128.4</ele>
        <time>2021-07-25T09:33:07Z</time>
      </trkpt>
      <trkpt lat="39.9500330" lon="3.1795540">
        <ele>129.8</ele>
        <time>2021-07-25T09:33:11Z</time>
      </trkpt>
      <trkpt lat="39.9500230" lon="3.1797840">
        <ele>130.8</ele>
        <time>2021-07-25T09:33:15Z</time>
      </trkpt>
      <trkpt lat="39.9500130" lon="3.1800130">
        <ele>132.0</ele>
        <time>2021-07-25T09:33:23Z</time>
      </trkpt>
      <trkpt lat="39.9500030" lon="3.1802430">
        <ele>132.8</ele>
        <time>2021-07-25T09:33:27Z</time>
      </trkpt>
      <trkpt lat="39.9500020" lon="3.1802690">
        <ele>133.0</ele>
        <time>2021-07-25T09:33:28Z</time>
      </trkpt>
      <trkpt lat="39.9500270" lon="3.1802980">
        <ele>133.2</ele>
        <time>2021-07-25T09:33:29Z</time>
      </trkpt>
      <trkpt lat="39.9501210" lon="3.1804780">
        <ele>134.2</ele>
        <time>2021-07-25T09:33:34Z</time>
      </trkpt>
      <trkpt lat="39.9502020" lon="3.1807080">
        <ele>135.2</ele>
        <time>2021-07-25T09:33:40Z</time>
      </trkpt>
      <trkpt lat="39.9502380" lon="3.1809140">
        <ele>136.6</ele>
        <time>2021-07-25T09:33:45Z</time>
      </trkpt>
      <trkpt lat="39.9502880" lon="3.1811190">
        <ele>137.8</ele>
        <time>2021-07-25T09:33:50Z</time>
      </trkpt>
      <trkpt lat="39.9503020" lon="3.1811620">
        <ele>138.0</ele>
        <time>2021-07-25T09:33:51Z</time>
      </trkpt>
      <trkpt lat="39.9503090" lon="3.1812020">
        <ele>138.2</ele>
        <time>2021-07-25T09:33:52Z</time>
      </trkpt>
      <trkpt lat="39.9503480" lon="3.1813190">
        <ele>139.0</ele>
        <time>2021-07-25T09:33:55Z</time>
      </trkpt>
      <trkpt lat="39.9503540" lon="3.1814270">
        <ele>139.4</ele>
        <time>2021-07-25T09:33:58Z</time>
      </trkpt>
      <trkpt lat="39.9503670" lon="3.1814990">
        <ele>140.0</ele>
        <time>2021-07-25T09:34:00Z</time>
      </trkpt>
      <trkpt lat="39.9504040" lon="3.1816670">
        <ele>141.0</ele>
        <time>2021-07-25T09:34:05Z</time>
      </trkpt>
      <trkpt lat="39.9504600" lon="3.1818790">
        <ele>142.2</ele>
        <time>2021-07-25T09:34:11Z</time>
      </trkpt>
      <trkpt lat="39.9504660" lon="3.1819150">
        <ele>142.4</ele>
        <time>2021-07-25T09:34:12Z</time>
      </trkpt>
      <trkpt lat="39.9505000" lon="3.1820530">
        <ele>143.2</ele>
        <time>2021-07-25T09:34:16Z</time>
      </trkpt>
      <trkpt lat="39.9505220" lon="3.1821640">
        <ele>144.0</ele>
        <time>2021-07-25T09:34:19Z</time>
      </trkpt>
      <trkpt lat="39.9505470" lon="3.1822340">
        <ele>144.6</ele>
        <time>2021-07-25T09:34:21Z</time>
      </trkpt>
      <trkpt lat="39.9505820" lon="3.1823770">
        <ele>145.2</ele>
        <time>2021-07-25T09:34:25Z</time>
      </trkpt>
      <trkpt lat="39.9505900" lon="3.1824120">
        <ele>145.8</ele>
        <time>2021-07-25T09:34:26Z</time>
      </trkpt>
      <trkpt lat="39.9506640" lon="3.1827040">
        <ele>147.0</ele>
        <time>2021-07-25T09:34:34Z</time>
      </trkpt>
      <trkpt lat="39.9506740" lon="3.1827420">
        <ele>147.4</ele>
        <time>2021-07-25T09:34:35Z</time>
      </trkpt>
      <trkpt lat="39.9507030" lon="3.1828550">
        <ele>148.2</ele>
        <time>2021-07-25T09:34:38Z</time>
      </trkpt>
      <trkpt lat="39.9507490" lon="3.1830660">
        <ele>149.2</ele>
        <time>2021-07-25T09:34:44Z</time>
      </trkpt>
      <trkpt lat="39.9508630" lon="3.1833110">
        <ele>150.4</ele>
        <time>2021-07-25T09:34:51Z</time>
      </trkpt>
      <trkpt lat="39.9510080" lon="3.1835770">
        <ele>151.4</ele>
        <time>2021-07-25T09:34:58Z</time>
      </trkpt>
      <trkpt lat="39.9510270" lon="3.1836140">
        <ele>151.6</ele>
        <time>2021-07-25T09:34:59Z</time>
      </trkpt>
      <trkpt lat="39.9511170" lon="3.1837950">
        <ele>152.6</ele>
        <time>2021-07-25T09:35:04Z</time>
      </trkpt>
      <trkpt lat="39.9511340" lon="3.1838330">
        <ele>152.8</ele>
        <time>2021-07-25T09:35:05Z</time>
      </trkpt>
      <trkpt lat="39.9512830" lon="3.1841180">
        <ele>153.6</ele>
        <time>2021-07-25T09:35:13Z</time>
      </trkpt>
      <trkpt lat="39.9514130" lon="3.1843230">
        <ele>154.6</ele>
        <time>2021-07-25T09:35:19Z</time>
      </trkpt>
      <trkpt lat="39.9514640" lon="3.1843910">
        <ele>155.0</ele>
        <time>2021-07-25T09:35:21Z</time>
      </trkpt>
      <trkpt lat="39.9515630" lon="3.1845210">
        <ele>155.8</ele>
        <time>2021-07-25T09:35:25Z</time>
      </trkpt>
      <trkpt lat="39.9516410" lon="3.1846130">
        <ele>156.2</ele>
        <time>2021-07-25T09:35:28Z</time>
      </trkpt>
      <trkpt lat="39.9517430" lon="3.1847540">
        <ele>156.8</ele>
        <time>2021-07-25T09:35:32Z</time>
      </trkpt>
      <trkpt lat="39.9517910" lon="3.1848250">
        <ele>157.2</ele>
        <time>2021-07-25T09:35:34Z</time>
      </trkpt>
      <trkpt lat="39.9518500" lon="3.1849690">
        <ele>157.8</ele>
        <time>2021-07-25T09:35:38Z</time>
      </trkpt>
      <trkpt lat="39.9518570" lon="3.1850100">
        <ele>158.0</ele>
        <time>2021-07-25T09:35:39Z</time>
      </trkpt>
      <trkpt lat="39.9518860" lon="3.1852740">
        <ele>159.0</ele>
        <time>2021-07-25T09:35:45Z</time>
      </trkpt>
      <trkpt lat="39.9518870" lon="3.1853210">
        <ele>159.2</ele>
        <time>2021-07-25T09:35:46Z</time>
      </trkpt>
      <trkpt lat="39.9519020" lon="3.1855200">
        <ele>160.0</ele>
        <time>2021-07-25T09:35:51Z</time>
      </trkpt>
      <trkpt lat="39.9519200" lon="3.1855580">
        <ele>160.4</ele>
        <time>2021-07-25T09:35:52Z</time>
      </trkpt>
      <trkpt lat="39.9519860" lon="3.1856650">
        <ele>161.0</ele>
        <time>2021-07-25T09:35:55Z</time>
      </trkpt>
      <trkpt lat="39.9520920" lon="3.1858250">
        <ele>161.6</ele>
        <time>2021-07-25T09:36:00Z</time>
      </trkpt>
      <trkpt lat="39.9521740" lon="3.1859110">
        <ele>161.8</ele>
        <time>2021-07-25T09:36:03Z</time>
      </trkpt>
      <trkpt lat="39.9523140" lon="3.1860660">
        <ele>162.6</ele>
        <time>2021-07-25T09:36:08Z</time>
      </trkpt>
      <trkpt lat="39.9523690" lon="3.1861150">
        <ele>163.2</ele>
        <time>2021-07-25T09:36:10Z</time>
      </trkpt>
      <trkpt lat="39.9524550" lon="3.1861950">
        <ele>163.8</ele>
        <time>2021-07-25T09:36:13Z</time>
      </trkpt>
      <trkpt lat="39.9525320" lon="3.1862400">
        <ele>164.8</ele>
        <time>2021-07-25T09:36:16Z</time>
      </trkpt>
      <trkpt lat="39.9525960" lon="3.1862690">
        <ele>165.2</ele>
        <time>2021-07-25T09:36:18Z</time>
      </trkpt>
      <trkpt lat="39.9527130" lon="3.1863010">
        <ele>165.6</ele>
        <time>2021-07-25T09:36:22Z</time>
      </trkpt>
      <trkpt lat="39.9527210" lon="3.1863040">
        <ele>166.2</ele>
        <time>2021-07-25T09:36:24Z</time>
      </trkpt>
      <trkpt lat="39.9527210" lon="3.1863040">
        <ele>166.0</ele>
        <time>2021-07-25T09:43:18Z</time>
      </trkpt>
      <trkpt lat="39.9527690" lon="3.1867690">
        <ele>166.8</ele>
        <time>2021-07-25T09:43:24Z</time>
      </trkpt>
      <trkpt lat="39.9528640" lon="3.1870790">
        <ele>166.6</ele>
        <time>2021-07-25T09:43:29Z</time>
      </trkpt>
      <trkpt lat="39.9528850" lon="3.1871870">
        <ele>166.4</ele>
        <time>2021-07-25T09:43:31Z</time>
      </trkpt>
      <trkpt lat="39.9529440" lon="3.1873760">
        <ele>166.6</ele>
        <time>2021-07-25T09:43:34Z</time>
      </trkpt>
      <trkpt lat="39.9529670" lon="3.1874250">
        <ele>166.6</ele>
        <time>2021-07-25T09:43:35Z</time>
      </trkpt>
      <trkpt lat="39.9531340" lon="3.1877530">
        <ele>166.6</ele>
        <time>2021-07-25T09:43:42Z</time>
      </trkpt>
      <trkpt lat="39.9531530" lon="3.1878040">
        <ele>166.6</ele>
        <time>2021-07-25T09:43:43Z</time>
      </trkpt>
      <trkpt lat="39.9531630" lon="3.1879760">
        <ele>166.4</ele>
        <time>2021-07-25T09:43:46Z</time>
      </trkpt>
      <trkpt lat="39.9531530" lon="3.1880310">
        <ele>166.6</ele>
        <time>2021-07-25T09:43:47Z</time>
      </trkpt>
      <trkpt lat="39.9530790" lon="3.1883710">
        <ele>166.4</ele>
        <time>2021-07-25T09:43:53Z</time>
      </trkpt>
      <trkpt lat="39.9530450" lon="3.1886980">
        <ele>166.0</ele>
        <time>2021-07-25T09:43:58Z</time>
      </trkpt>
      <trkpt lat="39.9530560" lon="3.1887640">
        <ele>166.0</ele>
        <time>2021-07-25T09:43:59Z</time>
      </trkpt>
      <trkpt lat="39.9531460" lon="3.1889250">
        <ele>165.4</ele>
        <time>2021-07-25T09:44:02Z</time>
      </trkpt>
      <trkpt lat="39.9531920" lon="3.1889610">
        <ele>164.8</ele>
        <time>2021-07-25T09:44:03Z</time>
      </trkpt>
      <trkpt lat="39.9533610" lon="3.1890290">
        <ele>164.2</ele>
        <time>2021-07-25T09:44:06Z</time>
      </trkpt>
      <trkpt lat="39.9534260" lon="3.1890460">
        <ele>163.8</ele>
        <time>2021-07-25T09:44:07Z</time>
      </trkpt>
      <trkpt lat="39.9537630" lon="3.1891260">
        <ele>162.8</ele>
        <time>2021-07-25T09:44:12Z</time>
      </trkpt>
      <trkpt lat="39.9538970" lon="3.1891600">
        <ele>161.8</ele>
        <time>2021-07-25T09:44:14Z</time>
      </trkpt>
      <trkpt lat="39.9539640" lon="3.1891830">
        <ele>161.2</ele>
        <time>2021-07-25T09:44:15Z</time>
      </trkpt>
      <trkpt lat="39.9540750" lon="3.1892930">
        <ele>160.4</ele>
        <time>2021-07-25T09:44:17Z</time>
      </trkpt>
      <trkpt lat="39.9541330" lon="3.1895600">
        <ele>159.8</ele>
        <time>2021-07-25T09:44:20Z</time>
      </trkpt>
      <trkpt lat="39.9540780" lon="3.1897200">
        <ele>159.4</ele>
        <time>2021-07-25T09:44:22Z</time>
      </trkpt>
      <trkpt lat="39.9540340" lon="3.1897800">
        <ele>159.2</ele>
        <time>2021-07-25T09:44:23Z</time>
      </trkpt>
      <trkpt lat="39.9539380" lon="3.1898770">
        <ele>159.4</ele>
        <time>2021-07-25T09:44:25Z</time>
      </trkpt>
      <trkpt lat="39.9538080" lon="3.1899970">
        <ele>160.0</ele>
        <time>2021-07-25T09:44:28Z</time>
      </trkpt>
      <trkpt lat="39.9536450" lon="3.1901410">
        <ele>160.6</ele>
        <time>2021-07-25T09:44:32Z</time>
      </trkpt>
      <trkpt lat="39.9535690" lon="3.1902120">
        <ele>161.8</ele>
        <time>2021-07-25T09:44:34Z</time>
      </trkpt>
      <trkpt lat="39.9534620" lon="3.1903130">
        <ele>162.2</ele>
        <time>2021-07-25T09:44:37Z</time>
      </trkpt>
      <trkpt lat="39.9532800" lon="3.1905620">
        <ele>162.8</ele>
        <time>2021-07-25T09:44:43Z</time>
      </trkpt>
      <trkpt lat="39.9532530" lon="3.1906040">
        <ele>163.0</ele>
        <time>2021-07-25T09:44:44Z</time>
      </trkpt>
      <trkpt lat="39.9531780" lon="3.1907340">
        <ele>163.8</ele>
        <time>2021-07-25T09:44:47Z</time>
      </trkpt>
      <trkpt lat="39.9530800" lon="3.1909100">
        <ele>164.8</ele>
        <time>2021-07-25T09:44:51Z</time>
      </trkpt>
      <trkpt lat="39.9530560" lon="3.1909560">
        <ele>165.0</ele>
        <time>2021-07-25T09:44:52Z</time>
      </trkpt>
      <trkpt lat="39.9529170" lon="3.1912210">
        <ele>166.0</ele>
        <time>2021-07-25T09:44:58Z</time>
      </trkpt>
      <trkpt lat="39.9527730" lon="3.1914790">
        <ele>167.0</ele>
        <time>2021-07-25T09:45:04Z</time>
      </trkpt>
      <trkpt lat="39.9527350" lon="3.1915690">
        <ele>167.6</ele>
        <time>2021-07-25T09:45:06Z</time>
      </trkpt>
      <trkpt lat="39.9527230" lon="3.1916190">
        <ele>167.6</ele>
        <time>2021-07-25T09:45:07Z</time>
      </trkpt>
      <trkpt lat="39.9527410" lon="3.1918220">
        <ele>168.0</ele>
        <time>2021-07-25T09:45:11Z</time>
      </trkpt>
      <trkpt lat="39.9527600" lon="3.1918690">
        <ele>168.2</ele>
        <time>2021-07-25T09:45:12Z</time>
      </trkpt>
      <trkpt lat="39.9527820" lon="3.1919150">
        <ele>168.4</ele>
        <time>2021-07-25T09:45:13Z</time>
      </trkpt>
      <trkpt lat="39.9528500" lon="3.1920490">
        <ele>168.8</ele>
        <time>2021-07-25T09:45:16Z</time>
      </trkpt>
      <trkpt lat="39.9529110" lon="3.1921930">
        <ele>168.8</ele>
        <time>2021-07-25T09:45:19Z</time>
      </trkpt>
      <trkpt lat="39.9529120" lon="3.1923020">
        <ele>168.8</ele>
        <time>2021-07-25T09:45:21Z</time>
      </trkpt>
      <trkpt lat="39.9528130" lon="3.1924780">
        <ele>169.4</ele>
        <time>2021-07-25T09:45:25Z</time>
      </trkpt>
      <trkpt lat="39.9526600" lon="3.1925660">
        <ele>170.6</ele>
        <time>2021-07-25T09:45:29Z</time>
      </trkpt>
      <trkpt lat="39.9525840" lon="3.1926050">
        <ele>171.2</ele>
        <time>2021-07-25T09:45:31Z</time>
      </trkpt>
      <trkpt lat="39.9525040" lon="3.1926380">
        <ele>171.4</ele>
        <time>2021-07-25T09:45:33Z</time>
      </trkpt>
      <trkpt lat="39.9524620" lon="3.1926510">
        <ele>171.8</ele>
        <time>2021-07-25T09:45:34Z</time>
      </trkpt>
      <trkpt lat="39.9524210" lon="3.1926600">
        <ele>172.0</ele>
        <time>2021-07-25T09:45:35Z</time>
      </trkpt>
      <trkpt lat="39.9523800" lon="3.1926690">
        <ele>172.2</ele>
        <time>2021-07-25T09:45:36Z</time>
      </trkpt>
      <trkpt lat="39.9522960" lon="3.1926880">
        <ele>172.6</ele>
        <time>2021-07-25T09:45:38Z</time>
      </trkpt>
      <trkpt lat="39.9522540" lon="3.1926920">
        <ele>172.8</ele>
        <time>2021-07-25T09:45:39Z</time>
      </trkpt>
      <trkpt lat="39.9521700" lon="3.1927010">
        <ele>173.2</ele>
        <time>2021-07-25T09:45:41Z</time>
      </trkpt>
      <trkpt lat="39.9520540" lon="3.1927260">
        <ele>173.8</ele>
        <time>2021-07-25T09:45:44Z</time>
      </trkpt>
      <trkpt lat="39.9519040" lon="3.1927720">
        <ele>174.6</ele>
        <time>2021-07-25T09:45:48Z</time>
      </trkpt>
      <trkpt lat="39.9518330" lon="3.1928040">
        <ele>174.8</ele>
        <time>2021-07-25T09:45:50Z</time>
      </trkpt>
      <trkpt lat="39.9517510" lon="3.1928880">
        <ele>175.4</ele>
        <time>2021-07-25T09:45:53Z</time>
      </trkpt>
      <trkpt lat="39.9516510" lon="3.1930310">
        <ele>176.2</ele>
        <time>2021-07-25T09:45:57Z</time>
      </trkpt>
      <trkpt lat="39.9516300" lon="3.1930630">
        <ele>176.2</ele>
        <time>2021-07-25T09:45:58Z</time>
      </trkpt>
      <trkpt lat="39.9514850" lon="3.1932390">
        <ele>177.2</ele>
        <time>2021-07-25T09:46:04Z</time>
      </trkpt>
      <trkpt lat="39.9514550" lon="3.1932560">
        <ele>177.4</ele>
        <time>2021-07-25T09:46:05Z</time>
      </trkpt>
      <trkpt lat="39.9513150" lon="3.1933580">
        <ele>178.4</ele>
        <time>2021-07-25T09:46:10Z</time>
      </trkpt>
      <trkpt lat="39.9512170" lon="3.1934520">
        <ele>179.6</ele>
        <time>2021-07-25T09:46:14Z</time>
      </trkpt>
      <trkpt lat="39.9511930" lon="3.1934790">
        <ele>179.6</ele>
        <time>2021-07-25T09:46:15Z</time>
      </trkpt>
      <trkpt lat="39.9510960" lon="3.1936480">
        <ele>179.8</ele>
        <time>2021-07-25T09:46:20Z</time>
      </trkpt>
      <trkpt lat="39.9511010" lon="3.1938570">
        <ele>180.6</ele>
        <time>2021-07-25T09:46:25Z</time>
      </trkpt>
      <trkpt lat="39.9512280" lon="3.1940760">
        <ele>181.6</ele>
        <time>2021-07-25T09:46:31Z</time>
      </trkpt>
      <trkpt lat="39.9512760" lon="3.1941430">
        <ele>181.6</ele>
        <time>2021-07-25T09:46:33Z</time>
      </trkpt>
      <trkpt lat="39.9513960" lon="3.1943240">
        <ele>182.2</ele>
        <time>2021-07-25T09:46:38Z</time>
      </trkpt>
      <trkpt lat="39.9514180" lon="3.1943700">
        <ele>182.2</ele>
        <time>2021-07-25T09:46:39Z</time>
      </trkpt>
      <trkpt lat="39.9514460" lon="3.1945280">
        <ele>182.6</ele>
        <time>2021-07-25T09:46:42Z</time>
      </trkpt>
      <trkpt lat="39.9514390" lon="3.1945810">
        <ele>182.8</ele>
        <time>2021-07-25T09:46:43Z</time>
      </trkpt>
      <trkpt lat="39.9513950" lon="3.1946710">
        <ele>183.2</ele>
        <time>2021-07-25T09:46:45Z</time>
      </trkpt>
      <trkpt lat="39.9512650" lon="3.1947930">
        <ele>183.6</ele>
        <time>2021-07-25T09:46:49Z</time>
      </trkpt>
      <trkpt lat="39.9512320" lon="3.1948140">
        <ele>183.8</ele>
        <time>2021-07-25T09:46:50Z</time>
      </trkpt>
      <trkpt lat="39.9511990" lon="3.1948370">
        <ele>184.0</ele>
        <time>2021-07-25T09:46:51Z</time>
      </trkpt>
      <trkpt lat="39.9510280" lon="3.1949400">
        <ele>184.4</ele>
        <time>2021-07-25T09:46:56Z</time>
      </trkpt>
      <trkpt lat="39.9508770" lon="3.1950720">
        <ele>184.8</ele>
        <time>2021-07-25T09:47:01Z</time>
      </trkpt>
      <trkpt lat="39.9508530" lon="3.1951160">
        <ele>185.0</ele>
        <time>2021-07-25T09:47:02Z</time>
      </trkpt>
      <trkpt lat="39.9507840" lon="3.1953110">
        <ele>185.8</ele>
        <time>2021-07-25T09:47:06Z</time>
      </trkpt>
      <trkpt lat="39.9507770" lon="3.1953610">
        <ele>186.0</ele>
        <time>2021-07-25T09:47:07Z</time>
      </trkpt>
      <trkpt lat="39.9507880" lon="3.1955600">
        <ele>186.8</ele>
        <time>2021-07-25T09:47:11Z</time>
      </trkpt>
      <trkpt lat="39.9507970" lon="3.1956580">
        <ele>187.4</ele>
        <time>2021-07-25T09:47:13Z</time>
      </trkpt>
      <trkpt lat="39.9508230" lon="3.1958630">
        <ele>188.4</ele>
        <time>2021-07-25T09:47:17Z</time>
      </trkpt>
      <trkpt lat="39.9508340" lon="3.1959590">
        <ele>188.8</ele>
        <time>2021-07-25T09:47:19Z</time>
      </trkpt>
      <trkpt lat="39.9508480" lon="3.1960550">
        <ele>189.4</ele>
        <time>2021-07-25T09:47:21Z</time>
      </trkpt>
      <trkpt lat="39.9508790" lon="3.1962550">
        <ele>190.6</ele>
        <time>2021-07-25T09:47:25Z</time>
      </trkpt>
      <trkpt lat="39.9509180" lon="3.1964530">
        <ele>191.4</ele>
        <time>2021-07-25T09:47:29Z</time>
      </trkpt>
      <trkpt lat="39.9509760" lon="3.1966380">
        <ele>191.8</ele>
        <time>2021-07-25T09:47:33Z</time>
      </trkpt>
      <trkpt lat="39.9510370" lon="3.1968200">
        <ele>192.8</ele>
        <time>2021-07-25T09:47:37Z</time>
      </trkpt>
      <trkpt lat="39.9511760" lon="3.1970980">
        <ele>194.0</ele>
        <time>2021-07-25T09:47:44Z</time>
      </trkpt>
      <trkpt lat="39.9513130" lon="3.1973670">
        <ele>195.2</ele>
        <time>2021-07-25T09:47:51Z</time>
      </trkpt>
      <trkpt lat="39.9513770" lon="3.1975330">
        <ele>196.2</ele>
        <time>2021-07-25T09:47:55Z</time>
      </trkpt>
      <trkpt lat="39.9514270" lon="3.1977060">
        <ele>197.6</ele>
        <time>2021-07-25T09:47:59Z</time>
      </trkpt>
      <trkpt lat="39.9514620" lon="3.1978830">
        <ele>198.6</ele>
        <time>2021-07-25T09:48:03Z</time>
      </trkpt>
      <trkpt lat="39.9514940" lon="3.1980590">
        <ele>199.4</ele>
        <time>2021-07-25T09:48:07Z</time>
      </trkpt>
      <trkpt lat="39.9515060" lon="3.1981010">
        <ele>199.6</ele>
        <time>2021-07-25T09:48:08Z</time>
      </trkpt>
      <trkpt lat="39.9515670" lon="3.1982010">
        <ele>200.4</ele>
        <time>2021-07-25T09:48:11Z</time>
      </trkpt>
      <trkpt lat="39.9515980" lon="3.1982270">
        <ele>200.8</ele>
        <time>2021-07-25T09:48:12Z</time>
      </trkpt>
      <trkpt lat="39.9517020" lon="3.1982900">
        <ele>201.2</ele>
        <time>2021-07-25T09:48:15Z</time>
      </trkpt>
      <trkpt lat="39.9518340" lon="3.1983270">
        <ele>201.0</ele>
        <time>2021-07-25T09:48:18Z</time>
      </trkpt>
      <trkpt lat="39.9519310" lon="3.1983420">
        <ele>200.8</ele>
        <time>2021-07-25T09:48:20Z</time>
      </trkpt>
      <trkpt lat="39.9522580" lon="3.1983760">
        <ele>199.8</ele>
        <time>2021-07-25T09:48:26Z</time>
      </trkpt>
      <trkpt lat="39.9523770" lon="3.1983880">
        <ele>199.6</ele>
        <time>2021-07-25T09:48:28Z</time>
      </trkpt>
      <trkpt lat="39.9526710" lon="3.1984140">
        <ele>199.4</ele>
        <time>2021-07-25T09:48:33Z</time>
      </trkpt>
      <trkpt lat="39.9527990" lon="3.1984470">
        <ele>199.0</ele>
        <time>2021-07-25T09:48:35Z</time>
      </trkpt>
      <trkpt lat="39.9529490" lon="3.1985930">
        <ele>198.8</ele>
        <time>2021-07-25T09:48:38Z</time>
      </trkpt>
      <trkpt lat="39.9530230" lon="3.1987280">
        <ele>198.8</ele>
        <time>2021-07-25T09:48:40Z</time>
      </trkpt>
      <trkpt lat="39.9530500" lon="3.1988740">
        <ele>198.8</ele>
        <time>2021-07-25T09:48:42Z</time>
      </trkpt>
      <trkpt lat="39.9529910" lon="3.1991650">
        <ele>199.0</ele>
        <time>2021-07-25T09:48:46Z</time>
      </trkpt>
      <trkpt lat="39.9529220" lon="3.1992980">
        <ele>199.0</ele>
        <time>2021-07-25T09:48:48Z</time>
      </trkpt>
      <trkpt lat="39.9528330" lon="3.1995150">
        <ele>199.2</ele>
        <time>2021-07-25T09:48:51Z</time>
      </trkpt>
      <trkpt lat="39.9527860" lon="3.1997490">
        <ele>199.4</ele>
        <time>2021-07-25T09:48:54Z</time>
      </trkpt>
      <trkpt lat="39.9527750" lon="3.1999150">
        <ele>199.2</ele>
        <time>2021-07-25T09:48:56Z</time>
      </trkpt>
      <trkpt lat="39.9527990" lon="3.2001610">
        <ele>198.8</ele>
        <time>2021-07-25T09:48:59Z</time>
      </trkpt>
      <trkpt lat="39.9528200" lon="3.2002470">
        <ele>198.6</ele>
        <time>2021-07-25T09:49:00Z</time>
      </trkpt>
      <trkpt lat="39.9529670" lon="3.2007230">
        <ele>198.4</ele>
        <time>2021-07-25T09:49:06Z</time>
      </trkpt>
      <trkpt lat="39.9530760" lon="3.2010370">
        <ele>197.6</ele>
        <time>2021-07-25T09:49:10Z</time>
      </trkpt>
      <trkpt lat="39.9531140" lon="3.2011120">
        <ele>197.4</ele>
        <time>2021-07-25T09:49:11Z</time>
      </trkpt>
      <trkpt lat="39.9531600" lon="3.2011870">
        <ele>197.4</ele>
        <time>2021-07-25T09:49:12Z</time>
      </trkpt>
      <trkpt lat="39.9533180" lon="3.2014070">
        <ele>196.4</ele>
        <time>2021-07-25T09:49:15Z</time>
      </trkpt>
      <trkpt lat="39.9533610" lon="3.2014850">
        <ele>196.4</ele>
        <time>2021-07-25T09:49:16Z</time>
      </trkpt>
      <trkpt lat="39.9533940" lon="3.2015760">
        <ele>195.6</ele>
        <time>2021-07-25T09:49:17Z</time>
      </trkpt>
      <trkpt lat="39.9534110" lon="3.2016760">
        <ele>195.2</ele>
        <time>2021-07-25T09:49:18Z</time>
      </trkpt>
      <trkpt lat="39.9534250" lon="3.2018990">
        <ele>193.8</ele>
        <time>2021-07-25T09:49:20Z</time>
      </trkpt>
      <trkpt lat="39.9534280" lon="3.2020190">
        <ele>192.8</ele>
        <time>2021-07-25T09:49:21Z</time>
      </trkpt>
      <trkpt lat="39.9534300" lon="3.2022650">
        <ele>191.0</ele>
        <time>2021-07-25T09:49:23Z</time>
      </trkpt>
      <trkpt lat="39.9534270" lon="3.2024850">
        <ele>189.2</ele>
        <time>2021-07-25T09:49:25Z</time>
      </trkpt>
      <trkpt lat="39.9534380" lon="3.2026680">
        <ele>188.0</ele>
        <time>2021-07-25T09:49:27Z</time>
      </trkpt>
      <trkpt lat="39.9535060" lon="3.2028160">
        <ele>187.0</ele>
        <time>2021-07-25T09:49:29Z</time>
      </trkpt>
      <trkpt lat="39.9535630" lon="3.2028620">
        <ele>186.4</ele>
        <time>2021-07-25T09:49:30Z</time>
      </trkpt>
      <trkpt lat="39.9537100" lon="3.2028670">
        <ele>185.6</ele>
        <time>2021-07-25T09:49:32Z</time>
      </trkpt>
      <trkpt lat="39.9537800" lon="3.2028340">
        <ele>184.8</ele>
        <time>2021-07-25T09:49:33Z</time>
      </trkpt>
      <trkpt lat="39.9538630" lon="3.2026830">
        <ele>183.0</ele>
        <time>2021-07-25T09:49:35Z</time>
      </trkpt>
      <trkpt lat="39.9538800" lon="3.2026000">
        <ele>182.0</ele>
        <time>2021-07-25T09:49:36Z</time>
      </trkpt>
      <trkpt lat="39.9538490" lon="3.2024020">
        <ele>180.6</ele>
        <time>2021-07-25T09:49:38Z</time>
      </trkpt>
      <trkpt lat="39.9538450" lon="3.2020880">
        <ele>179.4</ele>
        <time>2021-07-25T09:49:41Z</time>
      </trkpt>
      <trkpt lat="39.9539580" lon="3.2019590">
        <ele>178.2</ele>
        <time>2021-07-25T09:49:43Z</time>
      </trkpt>
      <trkpt lat="39.9541020" lon="3.2019620">
        <ele>177.6</ele>
        <time>2021-07-25T09:49:45Z</time>
      </trkpt>
      <trkpt lat="39.9541720" lon="3.2019940">
        <ele>176.4</ele>
        <time>2021-07-25T09:49:46Z</time>
      </trkpt>
      <trkpt lat="39.9543060" lon="3.2020250">
        <ele>175.6</ele>
        <time>2021-07-25T09:49:48Z</time>
      </trkpt>
      <trkpt lat="39.9543750" lon="3.2019990">
        <ele>175.0</ele>
        <time>2021-07-25T09:49:49Z</time>
      </trkpt>
      <trkpt lat="39.9544410" lon="3.2019390">
        <ele>174.4</ele>
        <time>2021-07-25T09:49:50Z</time>
      </trkpt>
      <trkpt lat="39.9544840" lon="3.2018330">
        <ele>174.0</ele>
        <time>2021-07-25T09:49:51Z</time>
      </trkpt>
      <trkpt lat="39.9545250" lon="3.2017270">
        <ele>173.4</ele>
        <time>2021-07-25T09:49:52Z</time>
      </trkpt>
      <trkpt lat="39.9546000" lon="3.2014930">
        <ele>172.0</ele>
        <time>2021-07-25T09:49:54Z</time>
      </trkpt>
      <trkpt lat="39.9546540" lon="3.2013820">
        <ele>171.6</ele>
        <time>2021-07-25T09:49:55Z</time>
      </trkpt>
      <trkpt lat="39.9548100" lon="3.2012070">
        <ele>170.8</ele>
        <time>2021-07-25T09:49:57Z</time>
      </trkpt>
      <trkpt lat="39.9549010" lon="3.2011320">
        <ele>170.4</ele>
        <time>2021-07-25T09:49:58Z</time>
      </trkpt>
      <trkpt lat="39.9549900" lon="3.2010540">
        <ele>169.6</ele>
        <time>2021-07-25T09:49:59Z</time>
      </trkpt>
      <trkpt lat="39.9551650" lon="3.2009120">
        <ele>167.8</ele>
        <time>2021-07-25T09:50:01Z</time>
      </trkpt>
      <trkpt lat="39.9552570" lon="3.2008860">
        <ele>167.2</ele>
        <time>2021-07-25T09:50:02Z</time>
      </trkpt>
      <trkpt lat="39.9553510" lon="3.2009090">
        <ele>166.8</ele>
        <time>2021-07-25T09:50:03Z</time>
      </trkpt>
      <trkpt lat="39.9554330" lon="3.2009740">
        <ele>166.4</ele>
        <time>2021-07-25T09:50:04Z</time>
      </trkpt>
      <trkpt lat="39.9554870" lon="3.2010790">
        <ele>165.8</ele>
        <time>2021-07-25T09:50:05Z</time>
      </trkpt>
      <trkpt lat="39.9555070" lon="3.2012110">
        <ele>165.2</ele>
        <time>2021-07-25T09:50:06Z</time>
      </trkpt>
      <trkpt lat="39.9554920" lon="3.2013460">
        <ele>164.2</ele>
        <time>2021-07-25T09:50:07Z</time>
      </trkpt>
      <trkpt lat="39.9554630" lon="3.2014750">
        <ele>163.4</ele>
        <time>2021-07-25T09:50:08Z</time>
      </trkpt>
      <trkpt lat="39.9554430" lon="3.2015990">
        <ele>163.0</ele>
        <time>2021-07-25T09:50:09Z</time>
      </trkpt>
      <trkpt lat="39.9554460" lon="3.2018390">
        <ele>162.6</ele>
        <time>2021-07-25T09:50:11Z</time>
      </trkpt>
      <trkpt lat="39.9554570" lon="3.2019560">
        <ele>162.8</ele>
        <time>2021-07-25T09:50:12Z</time>
      </trkpt>
      <trkpt lat="39.9555150" lon="3.2025180">
        <ele>162.8</ele>
        <time>2021-07-25T09:50:17Z</time>
      </trkpt>
      <trkpt lat="39.9555060" lon="3.2026230">
        <ele>162.8</ele>
        <time>2021-07-25T09:50:18Z</time>
      </trkpt>
      <trkpt lat="39.9553820" lon="3.2028840">
        <ele>163.0</ele>
        <time>2021-07-25T09:50:21Z</time>
      </trkpt>
      <trkpt lat="39.9551840" lon="3.2030590">
        <ele>163.0</ele>
        <time>2021-07-25T09:50:24Z</time>
      </trkpt>
      <trkpt lat="39.9551160" lon="3.2031120">
        <ele>163.0</ele>
        <time>2021-07-25T09:50:25Z</time>
      </trkpt>
      <trkpt lat="39.9548050" lon="3.2033910">
        <ele>162.4</ele>
        <time>2021-07-25T09:50:30Z</time>
      </trkpt>
      <trkpt lat="39.9546970" lon="3.2035260">
        <ele>162.0</ele>
        <time>2021-07-25T09:50:32Z</time>
      </trkpt>
      <trkpt lat="39.9546460" lon="3.2036000">
        <ele>161.8</ele>
        <time>2021-07-25T09:50:33Z</time>
      </trkpt>
      <trkpt lat="39.9544450" lon="3.2039530">
        <ele>161.0</ele>
        <time>2021-07-25T09:50:37Z</time>
      </trkpt>
      <trkpt lat="39.9543950" lon="3.2040480">
        <ele>160.8</ele>
        <time>2021-07-25T09:50:38Z</time>
      </trkpt>
      <trkpt lat="39.9541400" lon="3.2045370">
        <ele>159.6</ele>
        <time>2021-07-25T09:50:43Z</time>
      </trkpt>
      <trkpt lat="39.9540220" lon="3.2048300">
        <ele>158.6</ele>
        <time>2021-07-25T09:50:46Z</time>
      </trkpt>
      <trkpt lat="39.9539930" lon="3.2049320">
        <ele>158.4</ele>
        <time>2021-07-25T09:50:47Z</time>
      </trkpt>
      <trkpt lat="39.9539650" lon="3.2050330">
        <ele>158.2</ele>
        <time>2021-07-25T09:50:48Z</time>
      </trkpt>
      <trkpt lat="39.9539020" lon="3.2053030">
        <ele>157.8</ele>
        <time>2021-07-25T09:50:51Z</time>
      </trkpt>
      <trkpt lat="39.9538040" lon="3.2056540">
        <ele>159.0</ele>
        <time>2021-07-25T09:50:56Z</time>
      </trkpt>
      <trkpt lat="39.9537550" lon="3.2057660">
        <ele>159.8</ele>
        <time>2021-07-25T09:50:58Z</time>
      </trkpt>
      <trkpt lat="39.9537140" lon="3.2058700">
        <ele>160.4</ele>
        <time>2021-07-25T09:51:00Z</time>
      </trkpt>
      <trkpt lat="39.9536770" lon="3.2059700">
        <ele>161.0</ele>
        <time>2021-07-25T09:51:02Z</time>
      </trkpt>
      <trkpt lat="39.9536380" lon="3.2060680">
        <ele>161.6</ele>
        <time>2021-07-25T09:51:04Z</time>
      </trkpt>
      <trkpt lat="39.9536160" lon="3.2061700">
        <ele>162.6</ele>
        <time>2021-07-25T09:51:06Z</time>
      </trkpt>
      <trkpt lat="39.9536160" lon="3.2062770">
        <ele>163.2</ele>
        <time>2021-07-25T09:51:08Z</time>
      </trkpt>
      <trkpt lat="39.9536370" lon="3.2064540">
        <ele>163.4</ele>
        <time>2021-07-25T09:51:11Z</time>
      </trkpt>
      <trkpt lat="39.9536610" lon="3.2066330">
        <ele>163.8</ele>
        <time>2021-07-25T09:51:14Z</time>
      </trkpt>
      <trkpt lat="39.9536830" lon="3.2067430">
        <ele>164.2</ele>
        <time>2021-07-25T09:51:16Z</time>
      </trkpt>
      <trkpt lat="39.9537110" lon="3.2068960">
        <ele>164.8</ele>
        <time>2021-07-25T09:51:19Z</time>
      </trkpt>
      <trkpt lat="39.9537440" lon="3.2071310">
        <ele>166.0</ele>
        <time>2021-07-25T09:51:24Z</time>
      </trkpt>
      <trkpt lat="39.9537510" lon="3.2071740">
        <ele>166.2</ele>
        <time>2021-07-25T09:51:25Z</time>
      </trkpt>
      <trkpt lat="39.9538000" lon="3.2073320">
        <ele>167.0</ele>
        <time>2021-07-25T09:51:29Z</time>
      </trkpt>
      <trkpt lat="39.9538360" lon="3.2074030">
        <ele>167.4</ele>
        <time>2021-07-25T09:51:31Z</time>
      </trkpt>
      <trkpt lat="39.9539540" lon="3.2075490">
        <ele>168.2</ele>
        <time>2021-07-25T09:51:36Z</time>
      </trkpt>
      <trkpt lat="39.9540640" lon="3.2076820">
        <ele>169.4</ele>
        <time>2021-07-25T09:51:41Z</time>
      </trkpt>
      <trkpt lat="39.9541430" lon="3.2077470">
        <ele>170.2</ele>
        <time>2021-07-25T09:51:44Z</time>
      </trkpt>
      <trkpt lat="39.9542060" lon="3.2077860">
        <ele>170.6</ele>
        <time>2021-07-25T09:51:46Z</time>
      </trkpt>
      <trkpt lat="39.9543070" lon="3.2078460">
        <ele>170.6</ele>
        <time>2021-07-25T09:51:49Z</time>
      </trkpt>
      <trkpt lat="39.9545960" lon="3.2079930">
        <ele>171.2</ele>
        <time>2021-07-25T09:51:57Z</time>
      </trkpt>
      <trkpt lat="39.9547030" lon="3.2080590">
        <ele>171.6</ele>
        <time>2021-07-25T09:52:00Z</time>
      </trkpt>
      <trkpt lat="39.9547800" lon="3.2080950">
        <ele>171.8</ele>
        <time>2021-07-25T09:52:02Z</time>
      </trkpt>
      <trkpt lat="39.9550160" lon="3.2082190">
        <ele>172.8</ele>
        <time>2021-07-25T09:52:08Z</time>
      </trkpt>
      <trkpt lat="39.9550530" lon="3.2082380">
        <ele>173.0</ele>
        <time>2021-07-25T09:52:09Z</time>
      </trkpt>
      <trkpt lat="39.9552930" lon="3.2083150">
        <ele>173.4</ele>
        <time>2021-07-25T09:52:15Z</time>
      </trkpt>
      <trkpt lat="39.9554510" lon="3.2082990">
        <ele>174.0</ele>
        <time>2021-07-25T09:52:19Z</time>
      </trkpt>
      <trkpt lat="39.9555300" lon="3.2082810">
        <ele>174.0</ele>
        <time>2021-07-25T09:52:21Z</time>
      </trkpt>
      <trkpt lat="39.9556500" lon="3.2082540">
        <ele>174.4</ele>
        <time>2021-07-25T09:52:24Z</time>
      </trkpt>
      <trkpt lat="39.9558120" lon="3.2081900">
        <ele>174.4</ele>
        <time>2021-07-25T09:52:28Z</time>
      </trkpt>
      <trkpt lat="39.9561020" lon="3.2080790">
        <ele>173.6</ele>
        <time>2021-07-25T09:52:34Z</time>
      </trkpt>
      <trkpt lat="39.9563370" lon="3.2081170">
        <ele>173.0</ele>
        <time>2021-07-25T09:52:38Z</time>
      </trkpt>
      <trkpt lat="39.9563960" lon="3.2081450">
        <ele>173.0</ele>
        <time>2021-07-25T09:52:39Z</time>
      </trkpt>
      <trkpt lat="39.9567540" lon="3.2082850">
        <ele>173.2</ele>
        <time>2021-07-25T09:52:45Z</time>
      </trkpt>
      <trkpt lat="39.9568690" lon="3.2083310">
        <ele>172.8</ele>
        <time>2021-07-25T09:52:47Z</time>
      </trkpt>
      <trkpt lat="39.9569250" lon="3.2083450">
        <ele>172.6</ele>
        <time>2021-07-25T09:52:48Z</time>
      </trkpt>
      <trkpt lat="39.9570380" lon="3.2083370">
        <ele>172.4</ele>
        <time>2021-07-25T09:52:50Z</time>
      </trkpt>
      <trkpt lat="39.9571820" lon="3.2082420">
        <ele>171.8</ele>
        <time>2021-07-25T09:52:53Z</time>
      </trkpt>
      <trkpt lat="39.9572200" lon="3.2081930">
        <ele>171.4</ele>
        <time>2021-07-25T09:52:54Z</time>
      </trkpt>
      <trkpt lat="39.9572620" lon="3.2079690">
        <ele>170.8</ele>
        <time>2021-07-25T09:52:57Z</time>
      </trkpt>
      <trkpt lat="39.9572640" lon="3.2078800">
        <ele>170.6</ele>
        <time>2021-07-25T09:52:58Z</time>
      </trkpt>
      <trkpt lat="39.9572690" lon="3.2075740">
        <ele>170.0</ele>
        <time>2021-07-25T09:53:01Z</time>
      </trkpt>
      <trkpt lat="39.9573660" lon="3.2073860">
        <ele>169.2</ele>
        <time>2021-07-25T09:53:03Z</time>
      </trkpt>
      <trkpt lat="39.9575330" lon="3.2073380">
        <ele>168.6</ele>
        <time>2021-07-25T09:53:05Z</time>
      </trkpt>
      <trkpt lat="39.9576880" lon="3.2074730">
        <ele>168.4</ele>
        <time>2021-07-25T09:53:07Z</time>
      </trkpt>
      <trkpt lat="39.9577690" lon="3.2076780">
        <ele>168.4</ele>
        <time>2021-07-25T09:53:09Z</time>
      </trkpt>
      <trkpt lat="39.9578040" lon="3.2077760">
        <ele>168.2</ele>
        <time>2021-07-25T09:53:10Z</time>
      </trkpt>
      <trkpt lat="39.9578380" lon="3.2078700">
        <ele>168.2</ele>
        <time>2021-07-25T09:53:11Z</time>
      </trkpt>
      <trkpt lat="39.9579120" lon="3.2081370">
        <ele>168.0</ele>
        <time>2021-07-25T09:53:14Z</time>
      </trkpt>
      <trkpt lat="39.9579210" lon="3.2082220">
        <ele>168.0</ele>
        <time>2021-07-25T09:53:15Z</time>
      </trkpt>
      <trkpt lat="39.9578930" lon="3.2085100">
        <ele>168.2</ele>
        <time>2021-07-25T09:53:19Z</time>
      </trkpt>
      <trkpt lat="39.9578610" lon="3.2086320">
        <ele>168.6</ele>
        <time>2021-07-25T09:53:21Z</time>
      </trkpt>
      <trkpt lat="39.9578400" lon="3.2086860">
        <ele>169.4</ele>
        <time>2021-07-25T09:53:22Z</time>
      </trkpt>
      <trkpt lat="39.9577930" lon="3.2087870">
        <ele>170.6</ele>
        <time>2021-07-25T09:53:24Z</time>
      </trkpt>
      <trkpt lat="39.9577210" lon="3.2089110">
        <ele>171.8</ele>
        <time>2021-07-25T09:53:27Z</time>
      </trkpt>
      <trkpt lat="39.9576740" lon="3.2089850">
        <ele>173.0</ele>
        <time>2021-07-25T09:53:29Z</time>
      </trkpt>
      <trkpt lat="39.9576490" lon="3.2090170">
        <ele>173.8</ele>
        <time>2021-07-25T09:53:30Z</time>
      </trkpt>
      <trkpt lat="39.9576270" lon="3.2090490">
        <ele>174.0</ele>
        <time>2021-07-25T09:53:31Z</time>
      </trkpt>
      <trkpt lat="39.9574950" lon="3.2091940">
        <ele>174.8</ele>
        <time>2021-07-25T09:53:36Z</time>
      </trkpt>
      <trkpt lat="39.9574670" lon="3.2092180">
        <ele>175.4</ele>
        <time>2021-07-25T09:53:37Z</time>
      </trkpt>
      <trkpt lat="39.9573350" lon="3.2093440">
        <ele>176.4</ele>
        <time>2021-07-25T09:53:42Z</time>
      </trkpt>
      <trkpt lat="39.9573110" lon="3.2093720">
        <ele>176.6</ele>
        <time>2021-07-25T09:53:43Z</time>
      </trkpt>
      <trkpt lat="39.9572140" lon="3.2094740">
        <ele>177.8</ele>
        <time>2021-07-25T09:53:47Z</time>
      </trkpt>
      <trkpt lat="39.9571230" lon="3.2095800">
        <ele>178.4</ele>
        <time>2021-07-25T09:53:51Z</time>
      </trkpt>
      <trkpt lat="39.9570430" lon="3.2097080">
        <ele>178.8</ele>
        <time>2021-07-25T09:53:55Z</time>
      </trkpt>
      <trkpt lat="39.9570050" lon="3.2097740">
        <ele>179.2</ele>
        <time>2021-07-25T09:53:57Z</time>
      </trkpt>
      <trkpt lat="39.9568780" lon="3.2099660">
        <ele>179.8</ele>
        <time>2021-07-25T09:54:03Z</time>
      </trkpt>
      <trkpt lat="39.9568550" lon="3.2099970">
        <ele>180.0</ele>
        <time>2021-07-25T09:54:04Z</time>
      </trkpt>
      <trkpt lat="39.9567010" lon="3.2102490">
        <ele>181.2</ele>
        <time>2021-07-25T09:54:10Z</time>
      </trkpt>
      <trkpt lat="39.9566700" lon="3.2103000">
        <ele>181.4</ele>
        <time>2021-07-25T09:54:11Z</time>
      </trkpt>
      <trkpt lat="39.9564890" lon="3.2105750">
        <ele>181.4</ele>
        <time>2021-07-25T09:54:16Z</time>
      </trkpt>
      <trkpt lat="39.9562650" lon="3.2108710">
        <ele>180.2</ele>
        <time>2021-07-25T09:54:21Z</time>
      </trkpt>
      <trkpt lat="39.9562040" lon="3.2109340">
        <ele>180.0</ele>
        <time>2021-07-25T09:54:22Z</time>
      </trkpt>
      <trkpt lat="39.9560660" lon="3.2110650">
        <ele>179.0</ele>
        <time>2021-07-25T09:54:24Z</time>
      </trkpt>
      <trkpt lat="39.9559160" lon="3.2112130">
        <ele>177.6</ele>
        <time>2021-07-25T09:54:26Z</time>
      </trkpt>
      <trkpt lat="39.9558340" lon="3.2112870">
        <ele>176.8</ele>
        <time>2021-07-25T09:54:27Z</time>
      </trkpt>
      <trkpt lat="39.9557490" lon="3.2113560">
        <ele>176.0</ele>
        <time>2021-07-25T09:54:28Z</time>
      </trkpt>
      <trkpt lat="39.9555760" lon="3.2114720">
        <ele>174.6</ele>
        <time>2021-07-25T09:54:30Z</time>
      </trkpt>
      <trkpt lat="39.9554960" lon="3.2115220">
        <ele>173.4</ele>
        <time>2021-07-25T09:54:31Z</time>
      </trkpt>
      <trkpt lat="39.9554240" lon="3.2115640">
        <ele>172.4</ele>
        <time>2021-07-25T09:54:32Z</time>
      </trkpt>
      <trkpt lat="39.9553140" lon="3.2116720">
        <ele>170.4</ele>
        <time>2021-07-25T09:54:34Z</time>
      </trkpt>
      <trkpt lat="39.9552890" lon="3.2117480">
        <ele>169.8</ele>
        <time>2021-07-25T09:54:35Z</time>
      </trkpt>
      <trkpt lat="39.9553080" lon="3.2118390">
        <ele>169.4</ele>
        <time>2021-07-25T09:54:36Z</time>
      </trkpt>
      <trkpt lat="39.9553570" lon="3.2119120">
        <ele>169.0</ele>
        <time>2021-07-25T09:54:37Z</time>
      </trkpt>
      <trkpt lat="39.9555100" lon="3.2119780">
        <ele>167.8</ele>
        <time>2021-07-25T09:54:39Z</time>
      </trkpt>
      <trkpt lat="39.9556890" lon="3.2119220">
        <ele>166.6</ele>
        <time>2021-07-25T09:54:41Z</time>
      </trkpt>
      <trkpt lat="39.9557830" lon="3.2118730">
        <ele>165.6</ele>
        <time>2021-07-25T09:54:42Z</time>
      </trkpt>
      <trkpt lat="39.9558780" lon="3.2118210">
        <ele>164.8</ele>
        <time>2021-07-25T09:54:43Z</time>
      </trkpt>
      <trkpt lat="39.9560750" lon="3.2117090">
        <ele>163.4</ele>
        <time>2021-07-25T09:54:45Z</time>
      </trkpt>
      <trkpt lat="39.9561790" lon="3.2116510">
        <ele>162.2</ele>
        <time>2021-07-25T09:54:46Z</time>
      </trkpt>
      <trkpt lat="39.9562850" lon="3.2116050">
        <ele>160.8</ele>
        <time>2021-07-25T09:54:47Z</time>
      </trkpt>
      <trkpt lat="39.9564050" lon="3.2115980">
        <ele>159.4</ele>
        <time>2021-07-25T09:54:48Z</time>
      </trkpt>
      <trkpt lat="39.9565250" lon="3.2116120">
        <ele>158.2</ele>
        <time>2021-07-25T09:54:49Z</time>
      </trkpt>
      <trkpt lat="39.9566460" lon="3.2116370">
        <ele>157.2</ele>
        <time>2021-07-25T09:54:50Z</time>
      </trkpt>
      <trkpt lat="39.9568880" lon="3.2116940">
        <ele>155.8</ele>
        <time>2021-07-25T09:54:52Z</time>
      </trkpt>
      <trkpt lat="39.9569970" lon="3.2117200">
        <ele>154.8</ele>
        <time>2021-07-25T09:54:53Z</time>
      </trkpt>
      <trkpt lat="39.9571000" lon="3.2117460">
        <ele>153.6</ele>
        <time>2021-07-25T09:54:54Z</time>
      </trkpt>
      <trkpt lat="39.9571960" lon="3.2117700">
        <ele>152.6</ele>
        <time>2021-07-25T09:54:55Z</time>
      </trkpt>
      <trkpt lat="39.9572950" lon="3.2117850">
        <ele>151.4</ele>
        <time>2021-07-25T09:54:56Z</time>
      </trkpt>
      <trkpt lat="39.9573960" lon="3.2117770">
        <ele>150.2</ele>
        <time>2021-07-25T09:54:57Z</time>
      </trkpt>
      <trkpt lat="39.9574960" lon="3.2117410">
        <ele>148.8</ele>
        <time>2021-07-25T09:54:58Z</time>
      </trkpt>
      <trkpt lat="39.9577020" lon="3.2116270">
        <ele>147.6</ele>
        <time>2021-07-25T09:55:00Z</time>
      </trkpt>
      <trkpt lat="39.9578060" lon="3.2115610">
        <ele>146.2</ele>
        <time>2021-07-25T09:55:01Z</time>
      </trkpt>
      <trkpt lat="39.9579120" lon="3.2114980">
        <ele>145.0</ele>
        <time>2021-07-25T09:55:02Z</time>
      </trkpt>
      <trkpt lat="39.9581320" lon="3.2113730">
        <ele>143.6</ele>
        <time>2021-07-25T09:55:04Z</time>
      </trkpt>
      <trkpt lat="39.9582510" lon="3.2113250">
        <ele>142.4</ele>
        <time>2021-07-25T09:55:05Z</time>
      </trkpt>
      <trkpt lat="39.9583750" lon="3.2112930">
        <ele>141.0</ele>
        <time>2021-07-25T09:55:06Z</time>
      </trkpt>
      <trkpt lat="39.9584960" lon="3.2112740">
        <ele>139.8</ele>
        <time>2021-07-25T09:55:07Z</time>
      </trkpt>
      <trkpt lat="39.9586090" lon="3.2112610">
        <ele>138.6</ele>
        <time>2021-07-25T09:55:08Z</time>
      </trkpt>
      <trkpt lat="39.9587170" lon="3.2112440">
        <ele>137.2</ele>
        <time>2021-07-25T09:55:09Z</time>
      </trkpt>
      <trkpt lat="39.9589120" lon="3.2111740">
        <ele>135.8</ele>
        <time>2021-07-25T09:55:11Z</time>
      </trkpt>
      <trkpt lat="39.9589900" lon="3.2110880">
        <ele>135.2</ele>
        <time>2021-07-25T09:55:12Z</time>
      </trkpt>
      <trkpt lat="39.9590620" lon="3.2109800">
        <ele>134.4</ele>
        <time>2021-07-25T09:55:13Z</time>
      </trkpt>
      <trkpt lat="39.9591290" lon="3.2108620">
        <ele>132.2</ele>
        <time>2021-07-25T09:55:14Z</time>
      </trkpt>
      <trkpt lat="39.9591970" lon="3.2107390">
        <ele>130.8</ele>
        <time>2021-07-25T09:55:15Z</time>
      </trkpt>
      <trkpt lat="39.9592710" lon="3.2106130">
        <ele>129.4</ele>
        <time>2021-07-25T09:55:16Z</time>
      </trkpt>
      <trkpt lat="39.9594180" lon="3.2103590">
        <ele>127.4</ele>
        <time>2021-07-25T09:55:18Z</time>
      </trkpt>
      <trkpt lat="39.9595050" lon="3.2102450">
        <ele>126.2</ele>
        <time>2021-07-25T09:55:19Z</time>
      </trkpt>
      <trkpt lat="39.9596080" lon="3.2101540">
        <ele>125.4</ele>
        <time>2021-07-25T09:55:20Z</time>
      </trkpt>
      <trkpt lat="39.9597250" lon="3.2100800">
        <ele>124.0</ele>
        <time>2021-07-25T09:55:21Z</time>
      </trkpt>
      <trkpt lat="39.9598340" lon="3.2100130">
        <ele>122.6</ele>
        <time>2021-07-25T09:55:22Z</time>
      </trkpt>
      <trkpt lat="39.9599340" lon="3.2099560">
        <ele>121.6</ele>
        <time>2021-07-25T09:55:23Z</time>
      </trkpt>
      <trkpt lat="39.9600210" lon="3.2099130">
        <ele>120.8</ele>
        <time>2021-07-25T09:55:24Z</time>
      </trkpt>
      <trkpt lat="39.9601150" lon="3.2099010">
        <ele>119.8</ele>
        <time>2021-07-25T09:55:25Z</time>
      </trkpt>
      <trkpt lat="39.9602040" lon="3.2099290">
        <ele>119.0</ele>
        <time>2021-07-25T09:55:26Z</time>
      </trkpt>
      <trkpt lat="39.9602820" lon="3.2100070">
        <ele>118.6</ele>
        <time>2021-07-25T09:55:27Z</time>
      </trkpt>
      <trkpt lat="39.9603460" lon="3.2101150">
        <ele>118.0</ele>
        <time>2021-07-25T09:55:28Z</time>
      </trkpt>
      <trkpt lat="39.9603990" lon="3.2103610">
        <ele>116.8</ele>
        <time>2021-07-25T09:55:30Z</time>
      </trkpt>
      <trkpt lat="39.9604240" lon="3.2106680">
        <ele>116.6</ele>
        <time>2021-07-25T09:55:33Z</time>
      </trkpt>
      <trkpt lat="39.9604880" lon="3.2108110">
        <ele>117.0</ele>
        <time>2021-07-25T09:55:35Z</time>
      </trkpt>
      <trkpt lat="39.9605500" lon="3.2109200">
        <ele>118.0</ele>
        <time>2021-07-25T09:55:37Z</time>
      </trkpt>
      <trkpt lat="39.9605810" lon="3.2109690">
        <ele>118.6</ele>
        <time>2021-07-25T09:55:38Z</time>
      </trkpt>
      <trkpt lat="39.9606310" lon="3.2110670">
        <ele>119.2</ele>
        <time>2021-07-25T09:55:40Z</time>
      </trkpt>
      <trkpt lat="39.9606660" lon="3.2111650">
        <ele>119.8</ele>
        <time>2021-07-25T09:55:42Z</time>
      </trkpt>
      <trkpt lat="39.9606670" lon="3.2113210">
        <ele>120.4</ele>
        <time>2021-07-25T09:55:45Z</time>
      </trkpt>
      <trkpt lat="39.9606540" lon="3.2113700">
        <ele>120.6</ele>
        <time>2021-07-25T09:55:46Z</time>
      </trkpt>
      <trkpt lat="39.9606380" lon="3.2114160">
        <ele>120.6</ele>
        <time>2021-07-25T09:55:47Z</time>
      </trkpt>
      <trkpt lat="39.9605590" lon="3.2115960">
        <ele>121.6</ele>
        <time>2021-07-25T09:55:51Z</time>
      </trkpt>
      <trkpt lat="39.9605390" lon="3.2116410">
        <ele>121.8</ele>
        <time>2021-07-25T09:55:52Z</time>
      </trkpt>
      <trkpt lat="39.9604960" lon="3.2117240">
        <ele>122.6</ele>
        <time>2021-07-25T09:55:54Z</time>
      </trkpt>
      <trkpt lat="39.9604160" lon="3.2118850">
        <ele>123.4</ele>
        <time>2021-07-25T09:55:58Z</time>
      </trkpt>
      <trkpt lat="39.9604020" lon="3.2119250">
        <ele>123.8</ele>
        <time>2021-07-25T09:55:59Z</time>
      </trkpt>
      <trkpt lat="39.9603730" lon="3.2120860">
        <ele>125.0</ele>
        <time>2021-07-25T09:56:03Z</time>
      </trkpt>
      <trkpt lat="39.9603850" lon="3.2121230">
        <ele>125.2</ele>
        <time>2021-07-25T09:56:04Z</time>
      </trkpt>
      <trkpt lat="39.9604110" lon="3.2121520">
        <ele>125.4</ele>
        <time>2021-07-25T09:56:05Z</time>
      </trkpt>
      <trkpt lat="39.9604730" lon="3.2121660">
        <ele>126.0</ele>
        <time>2021-07-25T09:56:07Z</time>
      </trkpt>
      <trkpt lat="39.9605620" lon="3.2120980">
        <ele>126.6</ele>
        <time>2021-07-25T09:56:10Z</time>
      </trkpt>
      <trkpt lat="39.9605880" lon="3.2120650">
        <ele>127.0</ele>
        <time>2021-07-25T09:56:11Z</time>
      </trkpt>
      <trkpt lat="39.9606330" lon="3.2119960">
        <ele>128.0</ele>
        <time>2021-07-25T09:56:13Z</time>
      </trkpt>
      <trkpt lat="39.9607240" lon="3.2118530">
        <ele>128.8</ele>
        <time>2021-07-25T09:56:17Z</time>
      </trkpt>
      <trkpt lat="39.9608260" lon="3.2116130">
        <ele>129.4</ele>
        <time>2021-07-25T09:56:23Z</time>
      </trkpt>
      <trkpt lat="39.9608520" lon="3.2115240">
        <ele>130.4</ele>
        <time>2021-07-25T09:56:25Z</time>
      </trkpt>
      <trkpt lat="39.9608670" lon="3.2114850">
        <ele>130.6</ele>
        <time>2021-07-25T09:56:26Z</time>
      </trkpt>
      <trkpt lat="39.9609140" lon="3.2113600">
        <ele>131.8</ele>
        <time>2021-07-25T09:56:29Z</time>
      </trkpt>
      <trkpt lat="39.9609590" lon="3.2112940">
        <ele>132.6</ele>
        <time>2021-07-25T09:56:31Z</time>
      </trkpt>
      <trkpt lat="39.9609910" lon="3.2112810">
        <ele>133.0</ele>
        <time>2021-07-25T09:56:32Z</time>
      </trkpt>
      <trkpt lat="39.9610570" lon="3.2112980">
        <ele>132.8</ele>
        <time>2021-07-25T09:56:34Z</time>
      </trkpt>
      <trkpt lat="39.9611090" lon="3.2114100">
        <ele>132.8</ele>
        <time>2021-07-25T09:56:37Z</time>
      </trkpt>
      <trkpt lat="39.9610790" lon="3.2115380">
        <ele>133.2</ele>
        <time>2021-07-25T09:56:40Z</time>
      </trkpt>
      <trkpt lat="39.9610210" lon="3.2115980">
        <ele>133.6</ele>
        <time>2021-07-25T09:56:42Z</time>
      </trkpt>
      <trkpt lat="39.9609910" lon="3.2116280">
        <ele>134.2</ele>
        <time>2021-07-25T09:56:43Z</time>
      </trkpt>
      <trkpt lat="39.9609060" lon="3.2117250">
        <ele>135.0</ele>
        <time>2021-07-25T09:56:46Z</time>
      </trkpt>
      <trkpt lat="39.9608800" lon="3.2117600">
        <ele>135.2</ele>
        <time>2021-07-25T09:56:47Z</time>
      </trkpt>
      <trkpt lat="39.9607880" lon="3.2119090">
        <ele>136.6</ele>
        <time>2021-07-25T09:56:51Z</time>
      </trkpt>
      <trkpt lat="39.9607400" lon="3.2119790">
        <ele>137.4</ele>
        <time>2021-07-25T09:56:53Z</time>
      </trkpt>
      <trkpt lat="39.9607210" lon="3.2120160">
        <ele>137.6</ele>
        <time>2021-07-25T09:56:54Z</time>
      </trkpt>
      <trkpt lat="39.9607050" lon="3.2121430">
        <ele>138.2</ele>
        <time>2021-07-25T09:56:57Z</time>
      </trkpt>
      <trkpt lat="39.9607160" lon="3.2122280">
        <ele>138.8</ele>
        <time>2021-07-25T09:56:59Z</time>
      </trkpt>
      <trkpt lat="39.9607460" lon="3.2123120">
        <ele>140.0</ele>
        <time>2021-07-25T09:57:01Z</time>
      </trkpt>
      <trkpt lat="39.9607640" lon="3.2123550">
        <ele>140.4</ele>
        <time>2021-07-25T09:57:02Z</time>
      </trkpt>
      <trkpt lat="39.9608190" lon="3.2124360">
        <ele>140.4</ele>
        <time>2021-07-25T09:57:04Z</time>
      </trkpt>
      <trkpt lat="39.9608800" lon="3.2125250">
        <ele>141.8</ele>
        <time>2021-07-25T09:57:06Z</time>
      </trkpt>
      <trkpt lat="39.9609500" lon="3.2126160">
        <ele>142.8</ele>
        <time>2021-07-25T09:57:08Z</time>
      </trkpt>
      <trkpt lat="39.9609790" lon="3.2126630">
        <ele>143.2</ele>
        <time>2021-07-25T09:57:09Z</time>
      </trkpt>
      <trkpt lat="39.9610380" lon="3.2127500">
        <ele>143.0</ele>
        <time>2021-07-25T09:57:11Z</time>
      </trkpt>
      <trkpt lat="39.9610710" lon="3.2127850">
        <ele>142.8</ele>
        <time>2021-07-25T09:57:12Z</time>
      </trkpt>
      <trkpt lat="39.9611440" lon="3.2128330">
        <ele>142.8</ele>
        <time>2021-07-25T09:57:14Z</time>
      </trkpt>
      <trkpt lat="39.9611850" lon="3.2128360">
        <ele>142.8</ele>
        <time>2021-07-25T09:57:15Z</time>
      </trkpt>
      <trkpt lat="39.9612680" lon="3.2127470">
        <ele>143.8</ele>
        <time>2021-07-25T09:57:18Z</time>
      </trkpt>
      <trkpt lat="39.9612680" lon="3.2126050">
        <ele>144.4</ele>
        <time>2021-07-25T09:57:21Z</time>
      </trkpt>
      <trkpt lat="39.9611880" lon="3.2124690">
        <ele>145.0</ele>
        <time>2021-07-25T09:57:24Z</time>
      </trkpt>
      <trkpt lat="39.9611300" lon="3.2123790">
        <ele>145.8</ele>
        <time>2021-07-25T09:57:26Z</time>
      </trkpt>
      <trkpt lat="39.9611110" lon="3.2122990">
        <ele>146.4</ele>
        <time>2021-07-25T09:57:28Z</time>
      </trkpt>
      <trkpt lat="39.9611500" lon="3.2122240">
        <ele>147.0</ele>
        <time>2021-07-25T09:57:30Z</time>
      </trkpt>
      <trkpt lat="39.9611870" lon="3.2121450">
        <ele>147.2</ele>
        <time>2021-07-25T09:57:32Z</time>
      </trkpt>
      <trkpt lat="39.9612940" lon="3.2119740">
        <ele>147.4</ele>
        <time>2021-07-25T09:57:36Z</time>
      </trkpt>
      <trkpt lat="39.9613810" lon="3.2118940">
        <ele>147.4</ele>
        <time>2021-07-25T09:57:39Z</time>
      </trkpt>
      <trkpt lat="39.9614000" lon="3.2118760">
        <ele>147.6</ele>
        <time>2021-07-25T09:57:40Z</time>
      </trkpt>
      <trkpt lat="39.9614100" lon="3.2118610">
        <ele>147.6</ele>
        <time>2021-07-25T09:57:41Z</time>
      </trkpt>
      <trkpt lat="39.9614100" lon="3.2118500">
        <ele>147.4</ele>
        <time>2021-07-25T09:57:43Z</time>
      </trkpt>
      <trkpt lat="39.9611410" lon="3.2123790">
        <ele>147.8</ele>
        <time>2021-07-25T10:10:20Z</time>
      </trkpt>
      <trkpt lat="39.9611780" lon="3.2124380">
        <ele>147.2</ele>
        <time>2021-07-25T10:10:22Z</time>
      </trkpt>
      <trkpt lat="39.9612030" lon="3.2124680">
        <ele>146.6</ele>
        <time>2021-07-25T10:10:23Z</time>
      </trkpt>
      <trkpt lat="39.9612850" lon="3.2126160">
        <ele>146.4</ele>
        <time>2021-07-25T10:10:27Z</time>
      </trkpt>
      <trkpt lat="39.9612840" lon="3.2126650">
        <ele>146.4</ele>
        <time>2021-07-25T10:10:28Z</time>
      </trkpt>
      <trkpt lat="39.9612400" lon="3.2127480">
        <ele>146.4</ele>
        <time>2021-07-25T10:10:30Z</time>
      </trkpt>
      <trkpt lat="39.9611430" lon="3.2127710">
        <ele>145.6</ele>
        <time>2021-07-25T10:10:32Z</time>
      </trkpt>
      <trkpt lat="39.9610950" lon="3.2127520">
        <ele>145.2</ele>
        <time>2021-07-25T10:10:33Z</time>
      </trkpt>
      <trkpt lat="39.9610230" lon="3.2126820">
        <ele>144.2</ele>
        <time>2021-07-25T10:10:35Z</time>
      </trkpt>
      <trkpt lat="39.9609510" lon="3.2126000">
        <ele>143.6</ele>
        <time>2021-07-25T10:10:37Z</time>
      </trkpt>
      <trkpt lat="39.9608750" lon="3.2125140">
        <ele>142.8</ele>
        <time>2021-07-25T10:10:39Z</time>
      </trkpt>
      <trkpt lat="39.9607390" lon="3.2123120">
        <ele>142.0</ele>
        <time>2021-07-25T10:10:43Z</time>
      </trkpt>
      <trkpt lat="39.9607160" lon="3.2122480">
        <ele>141.6</ele>
        <time>2021-07-25T10:10:44Z</time>
      </trkpt>
      <trkpt lat="39.9607090" lon="3.2120250">
        <ele>140.4</ele>
        <time>2021-07-25T10:10:47Z</time>
      </trkpt>
      <trkpt lat="39.9607360" lon="3.2119480">
        <ele>140.2</ele>
        <time>2021-07-25T10:10:48Z</time>
      </trkpt>
      <trkpt lat="39.9608230" lon="3.2118120">
        <ele>138.6</ele>
        <time>2021-07-25T10:10:50Z</time>
      </trkpt>
      <trkpt lat="39.9609230" lon="3.2116950">
        <ele>137.8</ele>
        <time>2021-07-25T10:10:52Z</time>
      </trkpt>
      <trkpt lat="39.9609730" lon="3.2116430">
        <ele>137.4</ele>
        <time>2021-07-25T10:10:53Z</time>
      </trkpt>
      <trkpt lat="39.9610620" lon="3.2115410">
        <ele>135.8</ele>
        <time>2021-07-25T10:10:55Z</time>
      </trkpt>
      <trkpt lat="39.9611200" lon="3.2113680">
        <ele>135.0</ele>
        <time>2021-07-25T10:10:58Z</time>
      </trkpt>
      <trkpt lat="39.9611020" lon="3.2113060">
        <ele>134.4</ele>
        <time>2021-07-25T10:10:59Z</time>
      </trkpt>
      <trkpt lat="39.9610170" lon="3.2112180">
        <ele>133.4</ele>
        <time>2021-07-25T10:11:01Z</time>
      </trkpt>
      <trkpt lat="39.9609010" lon="3.2112690">
        <ele>133.0</ele>
        <time>2021-07-25T10:11:03Z</time>
      </trkpt>
      <trkpt lat="39.9608160" lon="3.2114190">
        <ele>132.4</ele>
        <time>2021-07-25T10:11:05Z</time>
      </trkpt>
      <trkpt lat="39.9607790" lon="3.2115030">
        <ele>131.8</ele>
        <time>2021-07-25T10:11:06Z</time>
      </trkpt>
      <trkpt lat="39.9607410" lon="3.2115900">
        <ele>130.6</ele>
        <time>2021-07-25T10:11:07Z</time>
      </trkpt>
      <trkpt lat="39.9607000" lon="3.2116790">
        <ele>129.2</ele>
        <time>2021-07-25T10:11:08Z</time>
      </trkpt>
      <trkpt lat="39.9605530" lon="3.2120130">
        <ele>128.0</ele>
        <time>2021-07-25T10:11:12Z</time>
      </trkpt>
      <trkpt lat="39.9605160" lon="3.2120710">
        <ele>128.0</ele>
        <time>2021-07-25T10:11:13Z</time>
      </trkpt>
      <trkpt lat="39.9604210" lon="3.2121090">
        <ele>127.6</ele>
        <time>2021-07-25T10:11:15Z</time>
      </trkpt>
      <trkpt lat="39.9603730" lon="3.2120110">
        <ele>127.0</ele>
        <time>2021-07-25T10:11:17Z</time>
      </trkpt>
      <trkpt lat="39.9604520" lon="3.2117920">
        <ele>125.4</ele>
        <time>2021-07-25T10:11:20Z</time>
      </trkpt>
      <trkpt lat="39.9605260" lon="3.2116340">
        <ele>124.4</ele>
        <time>2021-07-25T10:11:22Z</time>
      </trkpt>
      <trkpt lat="39.9606360" lon="3.2113740">
        <ele>123.2</ele>
        <time>2021-07-25T10:11:25Z</time>
      </trkpt>
      <trkpt lat="39.9606570" lon="3.2112850">
        <ele>122.6</ele>
        <time>2021-07-25T10:11:26Z</time>
      </trkpt>
      <trkpt lat="39.9606540" lon="3.2111910">
        <ele>121.4</ele>
        <time>2021-07-25T10:11:27Z</time>
      </trkpt>
      <trkpt lat="39.9606300" lon="3.2110970">
        <ele>121.0</ele>
        <time>2021-07-25T10:11:28Z</time>
      </trkpt>
      <trkpt lat="39.9605380" lon="3.2109200">
        <ele>120.2</ele>
        <time>2021-07-25T10:11:30Z</time>
      </trkpt>
      <trkpt lat="39.9604840" lon="3.2108280">
        <ele>120.2</ele>
        <time>2021-07-25T10:11:31Z</time>
      </trkpt>
      <trkpt lat="39.9603950" lon="3.2106340">
        <ele>119.4</ele>
        <time>2021-07-25T10:11:33Z</time>
      </trkpt>
      <trkpt lat="39.9603710" lon="3.2105230">
        <ele>118.6</ele>
        <time>2021-07-25T10:11:34Z</time>
      </trkpt>
      <trkpt lat="39.9603720" lon="3.2102700">
        <ele>117.2</ele>
        <time>2021-07-25T10:11:36Z</time>
      </trkpt>
      <trkpt lat="39.9603500" lon="3.2101460">
        <ele>116.8</ele>
        <time>2021-07-25T10:11:37Z</time>
      </trkpt>
      <trkpt lat="39.9601790" lon="3.2098810">
        <ele>117.2</ele>
        <time>2021-07-25T10:11:40Z</time>
      </trkpt>
      <trkpt lat="39.9599870" lon="3.2098590">
        <ele>118.0</ele>
        <time>2021-07-25T10:11:43Z</time>
      </trkpt>
      <trkpt lat="39.9598700" lon="3.2099390">
        <ele>118.2</ele>
        <time>2021-07-25T10:11:46Z</time>
      </trkpt>
      <trkpt lat="39.9598380" lon="3.2099610">
        <ele>118.2</ele>
        <time>2021-07-25T10:11:47Z</time>
      </trkpt>
      <trkpt lat="39.9597240" lon="3.2100300">
        <ele>119.2</ele>
        <time>2021-07-25T10:11:51Z</time>
      </trkpt>
      <trkpt lat="39.9596730" lon="3.2100670">
        <ele>120.0</ele>
        <time>2021-07-25T10:11:53Z</time>
      </trkpt>
      <trkpt lat="39.9596500" lon="3.2100870">
        <ele>120.2</ele>
        <time>2021-07-25T10:11:54Z</time>
      </trkpt>
      <trkpt lat="39.9595110" lon="3.2101690">
        <ele>121.2</ele>
        <time>2021-07-25T10:12:00Z</time>
      </trkpt>
      <trkpt lat="39.9594910" lon="3.2101840">
        <ele>121.4</ele>
        <time>2021-07-25T10:12:01Z</time>
      </trkpt>
      <trkpt lat="39.9594200" lon="3.2102420">
        <ele>121.4</ele>
        <time>2021-07-25T10:12:05Z</time>
      </trkpt>
      <trkpt lat="39.9593120" lon="3.2103930">
        <ele>122.2</ele>
        <time>2021-07-25T10:12:12Z</time>
      </trkpt>
      <trkpt lat="39.9592960" lon="3.2104140">
        <ele>122.6</ele>
        <time>2021-07-25T10:12:13Z</time>
      </trkpt>
      <trkpt lat="39.9592430" lon="3.2105360">
        <ele>123.4</ele>
        <time>2021-07-25T10:12:18Z</time>
      </trkpt>
      <trkpt lat="39.9592310" lon="3.2105590">
        <ele>123.6</ele>
        <time>2021-07-25T10:12:19Z</time>
      </trkpt>
      <trkpt lat="39.9591510" lon="3.2106800">
        <ele>124.4</ele>
        <time>2021-07-25T10:12:24Z</time>
      </trkpt>
      <trkpt lat="39.9591240" lon="3.2107010">
        <ele>124.6</ele>
        <time>2021-07-25T10:12:25Z</time>
      </trkpt>
      <trkpt lat="39.9590580" lon="3.2108290">
        <ele>125.6</ele>
        <time>2021-07-25T10:12:30Z</time>
      </trkpt>
      <trkpt lat="39.9590340" lon="3.2108750">
        <ele>126.2</ele>
        <time>2021-07-25T10:12:32Z</time>
      </trkpt>
      <trkpt lat="39.9589980" lon="3.2109710">
        <ele>126.8</ele>
        <time>2021-07-25T10:12:36Z</time>
      </trkpt>
      <trkpt lat="39.9589840" lon="3.2109950">
        <ele>127.0</ele>
        <time>2021-07-25T10:12:37Z</time>
      </trkpt>
      <trkpt lat="39.9589340" lon="3.2110560">
        <ele>128.0</ele>
        <time>2021-07-25T10:12:40Z</time>
      </trkpt>
      <trkpt lat="39.9589030" lon="3.2110960">
        <ele>128.2</ele>
        <time>2021-07-25T10:12:42Z</time>
      </trkpt>
      <trkpt lat="39.9588480" lon="3.2111520">
        <ele>129.0</ele>
        <time>2021-07-25T10:12:45Z</time>
      </trkpt>
      <trkpt lat="39.9587970" lon="3.2111910">
        <ele>130.0</ele>
        <time>2021-07-25T10:12:48Z</time>
      </trkpt>
      <trkpt lat="39.9587770" lon="3.2111990">
        <ele>130.4</ele>
        <time>2021-07-25T10:12:49Z</time>
      </trkpt>
      <trkpt lat="39.9587080" lon="3.2112200">
        <ele>131.4</ele>
        <time>2021-07-25T10:12:52Z</time>
      </trkpt>
      <trkpt lat="39.9586840" lon="3.2112280">
        <ele>131.6</ele>
        <time>2021-07-25T10:12:53Z</time>
      </trkpt>
      <trkpt lat="39.9586170" lon="3.2112530">
        <ele>132.6</ele>
        <time>2021-07-25T10:12:56Z</time>
      </trkpt>
      <trkpt lat="39.9585300" lon="3.2112580">
        <ele>133.4</ele>
        <time>2021-07-25T10:13:00Z</time>
      </trkpt>
      <trkpt lat="39.9584870" lon="3.2112600">
        <ele>133.8</ele>
        <time>2021-07-25T10:13:02Z</time>
      </trkpt>
      <trkpt lat="39.9583760" lon="3.2112800">
        <ele>134.8</ele>
        <time>2021-07-25T10:13:07Z</time>
      </trkpt>
      <trkpt lat="39.9582290" lon="3.2112950">
        <ele>136.0</ele>
        <time>2021-07-25T10:13:13Z</time>
      </trkpt>
      <trkpt lat="39.9581860" lon="3.2113000">
        <ele>136.4</ele>
        <time>2021-07-25T10:13:15Z</time>
      </trkpt>
      <trkpt lat="39.9581240" lon="3.2113390">
        <ele>137.2</ele>
        <time>2021-07-25T10:13:18Z</time>
      </trkpt>
      <trkpt lat="39.9580340" lon="3.2113830">
        <ele>138.0</ele>
        <time>2021-07-25T10:13:22Z</time>
      </trkpt>
      <trkpt lat="39.9580130" lon="3.2113970">
        <ele>138.2</ele>
        <time>2021-07-25T10:13:23Z</time>
      </trkpt>
      <trkpt lat="39.9579080" lon="3.2114580">
        <ele>139.4</ele>
        <time>2021-07-25T10:13:28Z</time>
      </trkpt>
      <trkpt lat="39.9577950" lon="3.2115210">
        <ele>140.6</ele>
        <time>2021-07-25T10:13:33Z</time>
      </trkpt>
      <trkpt lat="39.9577290" lon="3.2115580">
        <ele>141.2</ele>
        <time>2021-07-25T10:13:36Z</time>
      </trkpt>
      <trkpt lat="39.9576840" lon="3.2115830">
        <ele>141.6</ele>
        <time>2021-07-25T10:13:38Z</time>
      </trkpt>
      <trkpt lat="39.9575790" lon="3.2116660">
        <ele>142.6</ele>
        <time>2021-07-25T10:13:43Z</time>
      </trkpt>
      <trkpt lat="39.9574640" lon="3.2117250">
        <ele>143.8</ele>
        <time>2021-07-25T10:13:48Z</time>
      </trkpt>
      <trkpt lat="39.9574170" lon="3.2117430">
        <ele>144.4</ele>
        <time>2021-07-25T10:13:50Z</time>
      </trkpt>
      <trkpt lat="39.9573690" lon="3.2117570">
        <ele>145.0</ele>
        <time>2021-07-25T10:13:52Z</time>
      </trkpt>
      <trkpt lat="39.9572750" lon="3.2117450">
        <ele>146.0</ele>
        <time>2021-07-25T10:13:56Z</time>
      </trkpt>
      <trkpt lat="39.9572530" lon="3.2117400">
        <ele>146.2</ele>
        <time>2021-07-25T10:13:57Z</time>
      </trkpt>
      <trkpt lat="39.9571810" lon="3.2117220">
        <ele>147.2</ele>
        <time>2021-07-25T10:14:00Z</time>
      </trkpt>
      <trkpt lat="39.9570500" lon="3.2116880">
        <ele>148.2</ele>
        <time>2021-07-25T10:14:05Z</time>
      </trkpt>
      <trkpt lat="39.9570240" lon="3.2116820">
        <ele>148.4</ele>
        <time>2021-07-25T10:14:06Z</time>
      </trkpt>
      <trkpt lat="39.9568930" lon="3.2116400">
        <ele>149.4</ele>
        <time>2021-07-25T10:14:11Z</time>
      </trkpt>
      <trkpt lat="39.9567920" lon="3.2116170">
        <ele>150.6</ele>
        <time>2021-07-25T10:14:15Z</time>
      </trkpt>
      <trkpt lat="39.9566660" lon="3.2115910">
        <ele>151.8</ele>
        <time>2021-07-25T10:14:20Z</time>
      </trkpt>
      <trkpt lat="39.9565920" lon="3.2115770">
        <ele>152.4</ele>
        <time>2021-07-25T10:14:23Z</time>
      </trkpt>
      <trkpt lat="39.9565430" lon="3.2115680">
        <ele>153.0</ele>
        <time>2021-07-25T10:14:25Z</time>
      </trkpt>
      <trkpt lat="39.9564730" lon="3.2115610">
        <ele>154.0</ele>
        <time>2021-07-25T10:14:28Z</time>
      </trkpt>
      <trkpt lat="39.9564240" lon="3.2115540">
        <ele>154.6</ele>
        <time>2021-07-25T10:14:30Z</time>
      </trkpt>
      <trkpt lat="39.9564010" lon="3.2115520">
        <ele>155.2</ele>
        <time>2021-07-25T10:14:31Z</time>
      </trkpt>
      <trkpt lat="39.9562740" lon="3.2115520">
        <ele>156.4</ele>
        <time>2021-07-25T10:14:36Z</time>
      </trkpt>
      <trkpt lat="39.9562200" lon="3.2115660">
        <ele>156.6</ele>
        <time>2021-07-25T10:14:38Z</time>
      </trkpt>
      <trkpt lat="39.9561420" lon="3.2116040">
        <ele>157.4</ele>
        <time>2021-07-25T10:14:41Z</time>
      </trkpt>
      <trkpt lat="39.9560500" lon="3.2116500">
        <ele>158.0</ele>
        <time>2021-07-25T10:14:45Z</time>
      </trkpt>
      <trkpt lat="39.9559750" lon="3.2116950">
        <ele>158.6</ele>
        <time>2021-07-25T10:14:48Z</time>
      </trkpt>
      <trkpt lat="39.9559010" lon="3.2117360">
        <ele>159.8</ele>
        <time>2021-07-25T10:14:51Z</time>
      </trkpt>
      <trkpt lat="39.9558770" lon="3.2117490">
        <ele>160.0</ele>
        <time>2021-07-25T10:14:52Z</time>
      </trkpt>
      <trkpt lat="39.9557790" lon="3.2118100">
        <ele>161.0</ele>
        <time>2021-07-25T10:14:56Z</time>
      </trkpt>
      <trkpt lat="39.9557070" lon="3.2118450">
        <ele>161.8</ele>
        <time>2021-07-25T10:14:59Z</time>
      </trkpt>
      <trkpt lat="39.9556840" lon="3.2118570">
        <ele>162.0</ele>
        <time>2021-07-25T10:15:00Z</time>
      </trkpt>
      <trkpt lat="39.9556220" lon="3.2119290">
        <ele>163.2</ele>
        <time>2021-07-25T10:15:04Z</time>
      </trkpt>
      <trkpt lat="39.9556110" lon="3.2119500">
        <ele>163.4</ele>
        <time>2021-07-25T10:15:05Z</time>
      </trkpt>
      <trkpt lat="39.9555410" lon="3.2119480">
        <ele>164.0</ele>
        <time>2021-07-25T10:15:08Z</time>
      </trkpt>
      <trkpt lat="39.9554500" lon="3.2119480">
        <ele>165.0</ele>
        <time>2021-07-25T10:15:12Z</time>
      </trkpt>
      <trkpt lat="39.9554520" lon="3.2119720">
        <ele>165.0</ele>
        <time>2021-07-25T10:15:13Z</time>
      </trkpt>
      <trkpt lat="39.9554730" lon="3.2119850">
        <ele>165.0</ele>
        <time>2021-07-25T10:15:14Z</time>
      </trkpt>
      <trkpt lat="39.9555440" lon="3.2119760">
        <ele>165.0</ele>
        <time>2021-07-25T10:15:16Z</time>
      </trkpt>
      <trkpt lat="39.9556940" lon="3.2119150">
        <ele>164.8</ele>
        <time>2021-07-25T10:15:19Z</time>
      </trkpt>
      <trkpt lat="39.9557520" lon="3.2118820">
        <ele>164.8</ele>
        <time>2021-07-25T10:15:20Z</time>
      </trkpt>
      <trkpt lat="39.9558750" lon="3.2118100">
        <ele>164.0</ele>
        <time>2021-07-25T10:15:22Z</time>
      </trkpt>
      <trkpt lat="39.9560060" lon="3.2117300">
        <ele>162.8</ele>
        <time>2021-07-25T10:15:24Z</time>
      </trkpt>
      <trkpt lat="39.9561360" lon="3.2116490">
        <ele>161.2</ele>
        <time>2021-07-25T10:15:26Z</time>
      </trkpt>
      <trkpt lat="39.9561980" lon="3.2116130">
        <ele>160.4</ele>
        <time>2021-07-25T10:15:27Z</time>
      </trkpt>
      <trkpt lat="39.9562600" lon="3.2115910">
        <ele>159.6</ele>
        <time>2021-07-25T10:15:28Z</time>
      </trkpt>
      <trkpt lat="39.9563150" lon="3.2115840">
        <ele>159.0</ele>
        <time>2021-07-25T10:15:29Z</time>
      </trkpt>
      <trkpt lat="39.9563570" lon="3.2115820">
        <ele>158.0</ele>
        <time>2021-07-25T10:15:30Z</time>
      </trkpt>
      <trkpt lat="39.9564030" lon="3.2115820">
        <ele>156.8</ele>
        <time>2021-07-25T10:15:32Z</time>
      </trkpt>
      <trkpt lat="39.9564060" lon="3.2115800">
        <ele>156.0</ele>
        <time>2021-07-25T10:15:34Z</time>
      </trkpt>
      <trkpt lat="39.9562430" lon="3.2115600">
        <ele>156.2</ele>
        <time>2021-07-25T10:15:58Z</time>
      </trkpt>
      <trkpt lat="39.9562210" lon="3.2115630">
        <ele>156.6</ele>
        <time>2021-07-25T10:15:59Z</time>
      </trkpt>
      <trkpt lat="39.9562000" lon="3.2115750">
        <ele>157.0</ele>
        <time>2021-07-25T10:16:00Z</time>
      </trkpt>
      <trkpt lat="39.9561310" lon="3.2116130">
        <ele>158.0</ele>
        <time>2021-07-25T10:16:03Z</time>
      </trkpt>
      <trkpt lat="39.9561050" lon="3.2116300">
        <ele>158.2</ele>
        <time>2021-07-25T10:16:04Z</time>
      </trkpt>
      <trkpt lat="39.9560120" lon="3.2116930">
        <ele>159.4</ele>
        <time>2021-07-25T10:16:07Z</time>
      </trkpt>
      <trkpt lat="39.9559600" lon="3.2117210">
        <ele>160.0</ele>
        <time>2021-07-25T10:16:09Z</time>
      </trkpt>
      <trkpt lat="39.9559010" lon="3.2117400">
        <ele>160.6</ele>
        <time>2021-07-25T10:16:11Z</time>
      </trkpt>
      <trkpt lat="39.9558240" lon="3.2117820">
        <ele>161.4</ele>
        <time>2021-07-25T10:16:14Z</time>
      </trkpt>
      <trkpt lat="39.9557990" lon="3.2117970">
        <ele>161.8</ele>
        <time>2021-07-25T10:16:15Z</time>
      </trkpt>
      <trkpt lat="39.9556980" lon="3.2118590">
        <ele>163.0</ele>
        <time>2021-07-25T10:16:19Z</time>
      </trkpt>
      <trkpt lat="39.9556490" lon="3.2118880">
        <ele>163.4</ele>
        <time>2021-07-25T10:16:21Z</time>
      </trkpt>
      <trkpt lat="39.9555770" lon="3.2119250">
        <ele>164.0</ele>
        <time>2021-07-25T10:16:24Z</time>
      </trkpt>
      <trkpt lat="39.9554700" lon="3.2119450">
        <ele>164.8</ele>
        <time>2021-07-25T10:16:28Z</time>
      </trkpt>
      <trkpt lat="39.9554440" lon="3.2119380">
        <ele>165.2</ele>
        <time>2021-07-25T10:16:29Z</time>
      </trkpt>
      <trkpt lat="39.9553510" lon="3.2118610">
        <ele>166.0</ele>
        <time>2021-07-25T10:16:33Z</time>
      </trkpt>
      <trkpt lat="39.9553350" lon="3.2118340">
        <ele>166.2</ele>
        <time>2021-07-25T10:16:34Z</time>
      </trkpt>
      <trkpt lat="39.9553010" lon="3.2117170">
        <ele>167.4</ele>
        <time>2021-07-25T10:16:38Z</time>
      </trkpt>
      <trkpt lat="39.9553400" lon="3.2116080">
        <ele>168.4</ele>
        <time>2021-07-25T10:16:42Z</time>
      </trkpt>
      <trkpt lat="39.9553570" lon="3.2115880">
        <ele>168.8</ele>
        <time>2021-07-25T10:16:43Z</time>
      </trkpt>
      <trkpt lat="39.9554450" lon="3.2115290">
        <ele>169.8</ele>
        <time>2021-07-25T10:16:47Z</time>
      </trkpt>
      <trkpt lat="39.9554940" lon="3.2115060">
        <ele>170.2</ele>
        <time>2021-07-25T10:16:49Z</time>
      </trkpt>
      <trkpt lat="39.9556140" lon="3.2114400">
        <ele>171.0</ele>
        <time>2021-07-25T10:16:54Z</time>
      </trkpt>
      <trkpt lat="39.9557000" lon="3.2113740">
        <ele>172.2</ele>
        <time>2021-07-25T10:16:58Z</time>
      </trkpt>
      <trkpt lat="39.9557440" lon="3.2113390">
        <ele>172.6</ele>
        <time>2021-07-25T10:17:00Z</time>
      </trkpt>
      <trkpt lat="39.9558060" lon="3.2112780">
        <ele>173.2</ele>
        <time>2021-07-25T10:17:03Z</time>
      </trkpt>
      <trkpt lat="39.9558420" lon="3.2112440">
        <ele>173.6</ele>
        <time>2021-07-25T10:17:05Z</time>
      </trkpt>
      <trkpt lat="39.9558920" lon="3.2112100">
        <ele>174.2</ele>
        <time>2021-07-25T10:17:08Z</time>
      </trkpt>
      <trkpt lat="39.9559070" lon="3.2112110">
        <ele>174.4</ele>
        <time>2021-07-25T10:17:10Z</time>
      </trkpt>
      <trkpt lat="39.9559090" lon="3.2112100">
        <ele>174.6</ele>
        <time>2021-07-25T10:17:11Z</time>
      </trkpt>
      <trkpt lat="39.9559100" lon="3.2111870">
        <ele>175.0</ele>
        <time>2021-07-25T10:17:22Z</time>
      </trkpt>
      <trkpt lat="39.9558940" lon="3.2111840">
        <ele>174.8</ele>
        <time>2021-07-25T10:17:25Z</time>
      </trkpt>
      <trkpt lat="39.9558870" lon="3.2111900">
        <ele>174.8</ele>
        <time>2021-07-25T10:17:27Z</time>
      </trkpt>
      <trkpt lat="39.9559310" lon="3.2112030">
        <ele>174.8</ele>
        <time>2021-07-25T10:18:15Z</time>
      </trkpt>
      <trkpt lat="39.9559490" lon="3.2111880">
        <ele>175.0</ele>
        <time>2021-07-25T10:18:16Z</time>
      </trkpt>
      <trkpt lat="39.9560060" lon="3.2111220">
        <ele>176.2</ele>
        <time>2021-07-25T10:18:19Z</time>
      </trkpt>
      <trkpt lat="39.9560930" lon="3.2110280">
        <ele>176.8</ele>
        <time>2021-07-25T10:18:23Z</time>
      </trkpt>
      <trkpt lat="39.9561180" lon="3.2110070">
        <ele>177.2</ele>
        <time>2021-07-25T10:18:24Z</time>
      </trkpt>
      <trkpt lat="39.9562380" lon="3.2109120">
        <ele>178.2</ele>
        <time>2021-07-25T10:18:29Z</time>
      </trkpt>
      <trkpt lat="39.9562600" lon="3.2108900">
        <ele>178.4</ele>
        <time>2021-07-25T10:18:30Z</time>
      </trkpt>
      <trkpt lat="39.9563630" lon="3.2107750">
        <ele>179.4</ele>
        <time>2021-07-25T10:18:35Z</time>
      </trkpt>
      <trkpt lat="39.9563820" lon="3.2107490">
        <ele>179.6</ele>
        <time>2021-07-25T10:18:36Z</time>
      </trkpt>
      <trkpt lat="39.9564320" lon="3.2106490">
        <ele>180.6</ele>
        <time>2021-07-25T10:18:40Z</time>
      </trkpt>
      <trkpt lat="39.9564510" lon="3.2106100">
        <ele>181.0</ele>
        <time>2021-07-25T10:18:42Z</time>
      </trkpt>
      <trkpt lat="39.9564590" lon="3.2106020">
        <ele>181.0</ele>
        <time>2021-07-25T10:18:44Z</time>
      </trkpt>
      <trkpt lat="39.9568310" lon="3.2100370">
        <ele>181.8</ele>
        <time>2021-07-25T10:20:06Z</time>
      </trkpt>
      <trkpt lat="39.9569430" lon="3.2098610">
        <ele>181.6</ele>
        <time>2021-07-25T10:20:10Z</time>
      </trkpt>
      <trkpt lat="39.9571080" lon="3.2096140">
        <ele>180.8</ele>
        <time>2021-07-25T10:20:14Z</time>
      </trkpt>
      <trkpt lat="39.9571560" lon="3.2095350">
        <ele>180.2</ele>
        <time>2021-07-25T10:20:15Z</time>
      </trkpt>
      <trkpt lat="39.9572720" lon="3.2093810">
        <ele>179.4</ele>
        <time>2021-07-25T10:20:17Z</time>
      </trkpt>
      <trkpt lat="39.9574190" lon="3.2092420">
        <ele>178.4</ele>
        <time>2021-07-25T10:20:19Z</time>
      </trkpt>
      <trkpt lat="39.9574960" lon="3.2091710">
        <ele>178.0</ele>
        <time>2021-07-25T10:20:20Z</time>
      </trkpt>
      <trkpt lat="39.9575690" lon="3.2090890">
        <ele>177.4</ele>
        <time>2021-07-25T10:20:21Z</time>
      </trkpt>
      <trkpt lat="39.9577000" lon="3.2088980">
        <ele>176.8</ele>
        <time>2021-07-25T10:20:23Z</time>
      </trkpt>
      <trkpt lat="39.9577600" lon="3.2087970">
        <ele>176.4</ele>
        <time>2021-07-25T10:20:24Z</time>
      </trkpt>
      <trkpt lat="39.9578140" lon="3.2087020">
        <ele>175.4</ele>
        <time>2021-07-25T10:20:25Z</time>
      </trkpt>
      <trkpt lat="39.9578550" lon="3.2086100">
        <ele>174.4</ele>
        <time>2021-07-25T10:20:26Z</time>
      </trkpt>
      <trkpt lat="39.9578840" lon="3.2085250">
        <ele>173.6</ele>
        <time>2021-07-25T10:20:27Z</time>
      </trkpt>
      <trkpt lat="39.9579190" lon="3.2083660">
        <ele>172.2</ele>
        <time>2021-07-25T10:20:29Z</time>
      </trkpt>
      <trkpt lat="39.9579220" lon="3.2081930">
        <ele>171.2</ele>
        <time>2021-07-25T10:20:31Z</time>
      </trkpt>
      <trkpt lat="39.9578860" lon="3.2080070">
        <ele>170.0</ele>
        <time>2021-07-25T10:20:33Z</time>
      </trkpt>
      <trkpt lat="39.9578230" lon="3.2078260">
        <ele>169.6</ele>
        <time>2021-07-25T10:20:35Z</time>
      </trkpt>
      <trkpt lat="39.9576680" lon="3.2074170">
        <ele>169.4</ele>
        <time>2021-07-25T10:20:40Z</time>
      </trkpt>
      <trkpt lat="39.9576300" lon="3.2073530">
        <ele>169.2</ele>
        <time>2021-07-25T10:20:41Z</time>
      </trkpt>
      <trkpt lat="39.9574580" lon="3.2072540">
        <ele>169.4</ele>
        <time>2021-07-25T10:20:44Z</time>
      </trkpt>
      <trkpt lat="39.9572970" lon="3.2073270">
        <ele>169.2</ele>
        <time>2021-07-25T10:20:47Z</time>
      </trkpt>
      <trkpt lat="39.9572180" lon="3.2075090">
        <ele>169.0</ele>
        <time>2021-07-25T10:20:50Z</time>
      </trkpt>
      <trkpt lat="39.9572000" lon="3.2077610">
        <ele>169.8</ele>
        <time>2021-07-25T10:20:54Z</time>
      </trkpt>
      <trkpt lat="39.9572000" lon="3.2078210">
        <ele>170.0</ele>
        <time>2021-07-25T10:20:55Z</time>
      </trkpt>
      <trkpt lat="39.9571810" lon="3.2079980">
        <ele>171.0</ele>
        <time>2021-07-25T10:20:58Z</time>
      </trkpt>
      <trkpt lat="39.9571150" lon="3.2081600">
        <ele>171.4</ele>
        <time>2021-07-25T10:21:01Z</time>
      </trkpt>
      <trkpt lat="39.9569310" lon="3.2082910">
        <ele>172.0</ele>
        <time>2021-07-25T10:21:05Z</time>
      </trkpt>
      <trkpt lat="39.9567610" lon="3.2082590">
        <ele>172.4</ele>
        <time>2021-07-25T10:21:08Z</time>
      </trkpt>
      <trkpt lat="39.9567060" lon="3.2082390">
        <ele>172.6</ele>
        <time>2021-07-25T10:21:09Z</time>
      </trkpt>
      <trkpt lat="39.9564960" lon="3.2081590">
        <ele>172.6</ele>
        <time>2021-07-25T10:21:13Z</time>
      </trkpt>
      <trkpt lat="39.9563400" lon="3.2081040">
        <ele>172.8</ele>
        <time>2021-07-25T10:21:16Z</time>
      </trkpt>
      <trkpt lat="39.9562370" lon="3.2080710">
        <ele>173.0</ele>
        <time>2021-07-25T10:21:18Z</time>
      </trkpt>
      <trkpt lat="39.9561370" lon="3.2080530">
        <ele>173.4</ele>
        <time>2021-07-25T10:21:20Z</time>
      </trkpt>
      <trkpt lat="39.9560390" lon="3.2080530">
        <ele>173.6</ele>
        <time>2021-07-25T10:21:22Z</time>
      </trkpt>
      <trkpt lat="39.9559890" lon="3.2080610">
        <ele>173.8</ele>
        <time>2021-07-25T10:21:23Z</time>
      </trkpt>
      <trkpt lat="39.9557810" lon="3.2081250">
        <ele>173.8</ele>
        <time>2021-07-25T10:21:27Z</time>
      </trkpt>
      <trkpt lat="39.9554520" lon="3.2082300">
        <ele>174.0</ele>
        <time>2021-07-25T10:21:33Z</time>
      </trkpt>
      <trkpt lat="39.9553300" lon="3.2082570">
        <ele>174.0</ele>
        <time>2021-07-25T10:21:35Z</time>
      </trkpt>
      <trkpt lat="39.9552000" lon="3.2082610">
        <ele>174.0</ele>
        <time>2021-07-25T10:21:37Z</time>
      </trkpt>
      <trkpt lat="39.9551320" lon="3.2082460">
        <ele>174.0</ele>
        <time>2021-07-25T10:21:38Z</time>
      </trkpt>
      <trkpt lat="39.9548720" lon="3.2081070">
        <ele>174.0</ele>
        <time>2021-07-25T10:21:42Z</time>
      </trkpt>
      <trkpt lat="39.9548050" lon="3.2080690">
        <ele>174.0</ele>
        <time>2021-07-25T10:21:43Z</time>
      </trkpt>
      <trkpt lat="39.9542690" lon="3.2077640">
        <ele>172.2</ele>
        <time>2021-07-25T10:21:51Z</time>
      </trkpt>
      <trkpt lat="39.9541410" lon="3.2076850">
        <ele>172.0</ele>
        <time>2021-07-25T10:21:53Z</time>
      </trkpt>
      <trkpt lat="39.9539690" lon="3.2075270">
        <ele>170.6</ele>
        <time>2021-07-25T10:21:56Z</time>
      </trkpt>
      <trkpt lat="39.9539120" lon="3.2074650">
        <ele>170.2</ele>
        <time>2021-07-25T10:21:57Z</time>
      </trkpt>
      <trkpt lat="39.9538070" lon="3.2073280">
        <ele>169.4</ele>
        <time>2021-07-25T10:21:59Z</time>
      </trkpt>
      <trkpt lat="39.9537410" lon="3.2071600">
        <ele>168.4</ele>
        <time>2021-07-25T10:22:01Z</time>
      </trkpt>
      <trkpt lat="39.9537240" lon="3.2070630">
        <ele>168.2</ele>
        <time>2021-07-25T10:22:02Z</time>
      </trkpt>
      <trkpt lat="39.9537100" lon="3.2069610">
        <ele>168.0</ele>
        <time>2021-07-25T10:22:03Z</time>
      </trkpt>
      <trkpt lat="39.9536760" lon="3.2067530">
        <ele>167.2</ele>
        <time>2021-07-25T10:22:05Z</time>
      </trkpt>
      <trkpt lat="39.9536230" lon="3.2064370">
        <ele>166.0</ele>
        <time>2021-07-25T10:22:08Z</time>
      </trkpt>
      <trkpt lat="39.9535900" lon="3.2061520">
        <ele>164.8</ele>
        <time>2021-07-25T10:22:11Z</time>
      </trkpt>
      <trkpt lat="39.9536480" lon="3.2058530">
        <ele>164.0</ele>
        <time>2021-07-25T10:22:14Z</time>
      </trkpt>
      <trkpt lat="39.9536890" lon="3.2057500">
        <ele>163.6</ele>
        <time>2021-07-25T10:22:15Z</time>
      </trkpt>
      <trkpt lat="39.9538190" lon="3.2054190">
        <ele>162.8</ele>
        <time>2021-07-25T10:22:18Z</time>
      </trkpt>
      <trkpt lat="39.9538550" lon="3.2052980">
        <ele>162.6</ele>
        <time>2021-07-25T10:22:19Z</time>
      </trkpt>
      <trkpt lat="39.9539180" lon="3.2050350">
        <ele>160.6</ele>
        <time>2021-07-25T10:22:21Z</time>
      </trkpt>
      <trkpt lat="39.9539930" lon="3.2047730">
        <ele>159.2</ele>
        <time>2021-07-25T10:22:23Z</time>
      </trkpt>
      <trkpt lat="39.9540920" lon="3.2045350">
        <ele>158.6</ele>
        <time>2021-07-25T10:22:25Z</time>
      </trkpt>
      <trkpt lat="39.9542040" lon="3.2043310">
        <ele>158.4</ele>
        <time>2021-07-25T10:22:27Z</time>
      </trkpt>
      <trkpt lat="39.9544920" lon="3.2037950">
        <ele>160.0</ele>
        <time>2021-07-25T10:22:33Z</time>
      </trkpt>
      <trkpt lat="39.9546600" lon="3.2034980">
        <ele>161.2</ele>
        <time>2021-07-25T10:22:37Z</time>
      </trkpt>
      <trkpt lat="39.9547510" lon="3.2033770">
        <ele>161.8</ele>
        <time>2021-07-25T10:22:39Z</time>
      </trkpt>
      <trkpt lat="39.9547980" lon="3.2033230">
        <ele>162.0</ele>
        <time>2021-07-25T10:22:40Z</time>
      </trkpt>
      <trkpt lat="39.9549020" lon="3.2032270">
        <ele>162.4</ele>
        <time>2021-07-25T10:22:42Z</time>
      </trkpt>
      <trkpt lat="39.9550090" lon="3.2031370">
        <ele>162.8</ele>
        <time>2021-07-25T10:22:44Z</time>
      </trkpt>
      <trkpt lat="39.9551170" lon="3.2030460">
        <ele>162.8</ele>
        <time>2021-07-25T10:22:46Z</time>
      </trkpt>
      <trkpt lat="39.9553340" lon="3.2028660">
        <ele>163.0</ele>
        <time>2021-07-25T10:22:50Z</time>
      </trkpt>
      <trkpt lat="39.9554320" lon="3.2027620">
        <ele>163.2</ele>
        <time>2021-07-25T10:22:52Z</time>
      </trkpt>
      <trkpt lat="39.9554730" lon="3.2027030">
        <ele>163.4</ele>
        <time>2021-07-25T10:22:53Z</time>
      </trkpt>
      <trkpt lat="39.9555270" lon="3.2025600">
        <ele>163.6</ele>
        <time>2021-07-25T10:22:55Z</time>
      </trkpt>
      <trkpt lat="39.9555130" lon="3.2023090">
        <ele>163.4</ele>
        <time>2021-07-25T10:22:58Z</time>
      </trkpt>
      <trkpt lat="39.9554960" lon="3.2022260">
        <ele>163.4</ele>
        <time>2021-07-25T10:22:59Z</time>
      </trkpt>
      <trkpt lat="39.9554240" lon="3.2017460">
        <ele>163.4</ele>
        <time>2021-07-25T10:23:05Z</time>
      </trkpt>
      <trkpt lat="39.9554220" lon="3.2015860">
        <ele>163.4</ele>
        <time>2021-07-25T10:23:07Z</time>
      </trkpt>
      <trkpt lat="39.9554460" lon="3.2014330">
        <ele>163.2</ele>
        <time>2021-07-25T10:23:09Z</time>
      </trkpt>
      <trkpt lat="39.9554870" lon="3.2011450">
        <ele>163.2</ele>
        <time>2021-07-25T10:23:13Z</time>
      </trkpt>
      <trkpt lat="39.9554840" lon="3.2010840">
        <ele>163.2</ele>
        <time>2021-07-25T10:23:14Z</time>
      </trkpt>
      <trkpt lat="39.9554000" lon="3.2009010">
        <ele>163.8</ele>
        <time>2021-07-25T10:23:18Z</time>
      </trkpt>
      <trkpt lat="39.9552700" lon="3.2008310">
        <ele>164.4</ele>
        <time>2021-07-25T10:23:22Z</time>
      </trkpt>
      <trkpt lat="39.9552340" lon="3.2008280">
        <ele>164.8</ele>
        <time>2021-07-25T10:23:23Z</time>
      </trkpt>
      <trkpt lat="39.9551240" lon="3.2008570">
        <ele>165.6</ele>
        <time>2021-07-25T10:23:26Z</time>
      </trkpt>
      <trkpt lat="39.9550900" lon="3.2008770">
        <ele>166.0</ele>
        <time>2021-07-25T10:23:27Z</time>
      </trkpt>
      <trkpt lat="39.9549890" lon="3.2009590">
        <ele>167.0</ele>
        <time>2021-07-25T10:23:30Z</time>
      </trkpt>
      <trkpt lat="39.9548600" lon="3.2010760">
        <ele>167.8</ele>
        <time>2021-07-25T10:23:34Z</time>
      </trkpt>
      <trkpt lat="39.9548300" lon="3.2011040">
        <ele>168.2</ele>
        <time>2021-07-25T10:23:35Z</time>
      </trkpt>
      <trkpt lat="39.9547160" lon="3.2012110">
        <ele>169.4</ele>
        <time>2021-07-25T10:23:39Z</time>
      </trkpt>
      <trkpt lat="39.9546900" lon="3.2012350">
        <ele>169.8</ele>
        <time>2021-07-25T10:23:40Z</time>
      </trkpt>
      <trkpt lat="39.9545850" lon="3.2013550">
        <ele>170.6</ele>
        <time>2021-07-25T10:23:44Z</time>
      </trkpt>
      <trkpt lat="39.9545630" lon="3.2013930">
        <ele>170.8</ele>
        <time>2021-07-25T10:23:45Z</time>
      </trkpt>
      <trkpt lat="39.9545430" lon="3.2014360">
        <ele>171.2</ele>
        <time>2021-07-25T10:23:46Z</time>
      </trkpt>
      <trkpt lat="39.9545090" lon="3.2015240">
        <ele>171.6</ele>
        <time>2021-07-25T10:23:48Z</time>
      </trkpt>
      <trkpt lat="39.9544460" lon="3.2017420">
        <ele>172.8</ele>
        <time>2021-07-25T10:23:53Z</time>
      </trkpt>
      <trkpt lat="39.9543620" lon="3.2019110">
        <ele>173.8</ele>
        <time>2021-07-25T10:23:58Z</time>
      </trkpt>
      <trkpt lat="39.9542260" lon="3.2019820">
        <ele>175.0</ele>
        <time>2021-07-25T10:24:03Z</time>
      </trkpt>
      <trkpt lat="39.9540770" lon="3.2019220">
        <ele>176.0</ele>
        <time>2021-07-25T10:24:08Z</time>
      </trkpt>
      <trkpt lat="39.9539510" lon="3.2018980">
        <ele>177.0</ele>
        <time>2021-07-25T10:24:13Z</time>
      </trkpt>
      <trkpt lat="39.9539260" lon="3.2019070">
        <ele>177.2</ele>
        <time>2021-07-25T10:24:14Z</time>
      </trkpt>
      <trkpt lat="39.9538520" lon="3.2019720">
        <ele>177.8</ele>
        <time>2021-07-25T10:24:17Z</time>
      </trkpt>
      <trkpt lat="39.9538040" lon="3.2020760">
        <ele>178.2</ele>
        <time>2021-07-25T10:24:20Z</time>
      </trkpt>
      <trkpt lat="39.9537870" lon="3.2021550">
        <ele>178.6</ele>
        <time>2021-07-25T10:24:22Z</time>
      </trkpt>
      <trkpt lat="39.9537880" lon="3.2023170">
        <ele>179.2</ele>
        <time>2021-07-25T10:24:26Z</time>
      </trkpt>
      <trkpt lat="39.9537940" lon="3.2023550">
        <ele>179.4</ele>
        <time>2021-07-25T10:24:27Z</time>
      </trkpt>
      <trkpt lat="39.9538140" lon="3.2025030">
        <ele>180.2</ele>
        <time>2021-07-25T10:24:31Z</time>
      </trkpt>
      <trkpt lat="39.9538180" lon="3.2025740">
        <ele>180.6</ele>
        <time>2021-07-25T10:24:33Z</time>
      </trkpt>
      <trkpt lat="39.9537910" lon="3.2026960">
        <ele>181.4</ele>
        <time>2021-07-25T10:24:37Z</time>
      </trkpt>
      <trkpt lat="39.9537560" lon="3.2027550">
        <ele>181.6</ele>
        <time>2021-07-25T10:24:39Z</time>
      </trkpt>
      <trkpt lat="39.9536590" lon="3.2028260">
        <ele>182.6</ele>
        <time>2021-07-25T10:24:43Z</time>
      </trkpt>
      <trkpt lat="39.9536320" lon="3.2028360">
        <ele>182.8</ele>
        <time>2021-07-25T10:24:44Z</time>
      </trkpt>
      <trkpt lat="39.9535550" lon="3.2028360">
        <ele>183.6</ele>
        <time>2021-07-25T10:24:47Z</time>
      </trkpt>
      <trkpt lat="39.9535140" lon="3.2028050">
        <ele>184.0</ele>
        <time>2021-07-25T10:24:49Z</time>
      </trkpt>
      <trkpt lat="39.9534610" lon="3.2027400">
        <ele>184.8</ele>
        <time>2021-07-25T10:24:52Z</time>
      </trkpt>
      <trkpt lat="39.9534400" lon="3.2026850">
        <ele>185.6</ele>
        <time>2021-07-25T10:24:54Z</time>
      </trkpt>
      <trkpt lat="39.9534300" lon="3.2026550">
        <ele>185.8</ele>
        <time>2021-07-25T10:24:55Z</time>
      </trkpt>
      <trkpt lat="39.9534220" lon="3.2026230">
        <ele>186.0</ele>
        <time>2021-07-25T10:24:56Z</time>
      </trkpt>
      <trkpt lat="39.9534090" lon="3.2025270">
        <ele>186.8</ele>
        <time>2021-07-25T10:24:59Z</time>
      </trkpt>
      <trkpt lat="39.9534100" lon="3.2024930">
        <ele>187.0</ele>
        <time>2021-07-25T10:25:00Z</time>
      </trkpt>
      <trkpt lat="39.9533990" lon="3.2023050">
        <ele>188.4</ele>
        <time>2021-07-25T10:25:05Z</time>
      </trkpt>
      <trkpt lat="39.9533910" lon="3.2021010">
        <ele>189.6</ele>
        <time>2021-07-25T10:25:10Z</time>
      </trkpt>
      <trkpt lat="39.9533910" lon="3.2019530">
        <ele>190.6</ele>
        <time>2021-07-25T10:25:14Z</time>
      </trkpt>
      <trkpt lat="39.9533900" lon="3.2018570">
        <ele>191.2</ele>
        <time>2021-07-25T10:25:17Z</time>
      </trkpt>
      <trkpt lat="39.9533930" lon="3.2017860">
        <ele>191.6</ele>
        <time>2021-07-25T10:25:19Z</time>
      </trkpt>
      <trkpt lat="39.9533780" lon="3.2015900">
        <ele>192.6</ele>
        <time>2021-07-25T10:25:25Z</time>
      </trkpt>
      <trkpt lat="39.9533450" lon="3.2014640">
        <ele>193.8</ele>
        <time>2021-07-25T10:25:29Z</time>
      </trkpt>
      <trkpt lat="39.9532960" lon="3.2013730">
        <ele>194.4</ele>
        <time>2021-07-25T10:25:32Z</time>
      </trkpt>
      <trkpt lat="39.9532570" lon="3.2013180">
        <ele>195.0</ele>
        <time>2021-07-25T10:25:34Z</time>
      </trkpt>
      <trkpt lat="39.9531160" lon="3.2011110">
        <ele>195.8</ele>
        <time>2021-07-25T10:25:41Z</time>
      </trkpt>
      <trkpt lat="39.9530980" lon="3.2010770">
        <ele>196.2</ele>
        <time>2021-07-25T10:25:42Z</time>
      </trkpt>
      <trkpt lat="39.9530220" lon="3.2008900">
        <ele>197.2</ele>
        <time>2021-07-25T10:25:47Z</time>
      </trkpt>
      <trkpt lat="39.9530090" lon="3.2008500">
        <ele>197.4</ele>
        <time>2021-07-25T10:25:48Z</time>
      </trkpt>
      <trkpt lat="39.9528850" lon="3.2004570">
        <ele>198.4</ele>
        <time>2021-07-25T10:25:57Z</time>
      </trkpt>
      <trkpt lat="39.9527920" lon="3.2001500">
        <ele>198.8</ele>
        <time>2021-07-25T10:26:03Z</time>
      </trkpt>
      <trkpt lat="39.9527640" lon="3.2000410">
        <ele>198.8</ele>
        <time>2021-07-25T10:26:05Z</time>
      </trkpt>
      <trkpt lat="39.9527460" lon="3.1998090">
        <ele>199.4</ele>
        <time>2021-07-25T10:26:09Z</time>
      </trkpt>
      <trkpt lat="39.9527580" lon="3.1996900">
        <ele>199.8</ele>
        <time>2021-07-25T10:26:11Z</time>
      </trkpt>
      <trkpt lat="39.9527660" lon="3.1996290">
        <ele>199.8</ele>
        <time>2021-07-25T10:26:12Z</time>
      </trkpt>
      <trkpt lat="39.9527910" lon="3.1995110">
        <ele>199.8</ele>
        <time>2021-07-25T10:26:14Z</time>
      </trkpt>
      <trkpt lat="39.9528100" lon="3.1994530">
        <ele>199.8</ele>
        <time>2021-07-25T10:26:15Z</time>
      </trkpt>
      <trkpt lat="39.9528980" lon="3.1992910">
        <ele>200.0</ele>
        <time>2021-07-25T10:26:18Z</time>
      </trkpt>
      <trkpt lat="39.9529850" lon="3.1991260">
        <ele>200.2</ele>
        <time>2021-07-25T10:26:21Z</time>
      </trkpt>
      <trkpt lat="39.9530190" lon="3.1989860">
        <ele>200.2</ele>
        <time>2021-07-25T10:26:23Z</time>
      </trkpt>
      <trkpt lat="39.9530290" lon="3.1989110">
        <ele>200.2</ele>
        <time>2021-07-25T10:26:24Z</time>
      </trkpt>
      <trkpt lat="39.9530170" lon="3.1987550">
        <ele>200.0</ele>
        <time>2021-07-25T10:26:26Z</time>
      </trkpt>
      <trkpt lat="39.9529220" lon="3.1985210">
        <ele>199.6</ele>
        <time>2021-07-25T10:26:29Z</time>
      </trkpt>
      <trkpt lat="39.9526930" lon="3.1983390">
        <ele>199.6</ele>
        <time>2021-07-25T10:26:33Z</time>
      </trkpt>
      <trkpt lat="39.9524280" lon="3.1983320">
        <ele>199.6</ele>
        <time>2021-07-25T10:26:37Z</time>
      </trkpt>
      <trkpt lat="39.9521290" lon="3.1983050">
        <ele>200.2</ele>
        <time>2021-07-25T10:26:42Z</time>
      </trkpt>
      <trkpt lat="39.9520710" lon="3.1983000">
        <ele>200.4</ele>
        <time>2021-07-25T10:26:43Z</time>
      </trkpt>
      <trkpt lat="39.9516620" lon="3.1982360">
        <ele>201.6</ele>
        <time>2021-07-25T10:26:50Z</time>
      </trkpt>
      <trkpt lat="39.9516060" lon="3.1982110">
        <ele>201.8</ele>
        <time>2021-07-25T10:26:51Z</time>
      </trkpt>
      <trkpt lat="39.9515120" lon="3.1981150">
        <ele>201.8</ele>
        <time>2021-07-25T10:26:53Z</time>
      </trkpt>
      <trkpt lat="39.9514380" lon="3.1978630">
        <ele>201.4</ele>
        <time>2021-07-25T10:26:56Z</time>
      </trkpt>
      <trkpt lat="39.9514250" lon="3.1977590">
        <ele>201.0</ele>
        <time>2021-07-25T10:26:57Z</time>
      </trkpt>
      <trkpt lat="39.9514050" lon="3.1976510">
        <ele>200.4</ele>
        <time>2021-07-25T10:26:58Z</time>
      </trkpt>
      <trkpt lat="39.9513400" lon="3.1974310">
        <ele>199.4</ele>
        <time>2021-07-25T10:27:00Z</time>
      </trkpt>
      <trkpt lat="39.9512990" lon="3.1973180">
        <ele>199.2</ele>
        <time>2021-07-25T10:27:01Z</time>
      </trkpt>
      <trkpt lat="39.9511940" lon="3.1971010">
        <ele>197.8</ele>
        <time>2021-07-25T10:27:03Z</time>
      </trkpt>
      <trkpt lat="39.9511380" lon="3.1969910">
        <ele>197.2</ele>
        <time>2021-07-25T10:27:04Z</time>
      </trkpt>
      <trkpt lat="39.9510820" lon="3.1968770">
        <ele>196.6</ele>
        <time>2021-07-25T10:27:05Z</time>
      </trkpt>
      <trkpt lat="39.9509760" lon="3.1966360">
        <ele>195.8</ele>
        <time>2021-07-25T10:27:07Z</time>
      </trkpt>
      <trkpt lat="39.9509320" lon="3.1965050">
        <ele>195.0</ele>
        <time>2021-07-25T10:27:08Z</time>
      </trkpt>
      <trkpt lat="39.9508920" lon="3.1963710">
        <ele>194.2</ele>
        <time>2021-07-25T10:27:09Z</time>
      </trkpt>
      <trkpt lat="39.9508600" lon="3.1962310">
        <ele>193.6</ele>
        <time>2021-07-25T10:27:10Z</time>
      </trkpt>
      <trkpt lat="39.9508020" lon="3.1958020">
        <ele>192.6</ele>
        <time>2021-07-25T10:27:13Z</time>
      </trkpt>
      <trkpt lat="39.9507650" lon="3.1955100">
        <ele>191.6</ele>
        <time>2021-07-25T10:27:15Z</time>
      </trkpt>
      <trkpt lat="39.9507560" lon="3.1953580">
        <ele>191.0</ele>
        <time>2021-07-25T10:27:16Z</time>
      </trkpt>
      <trkpt lat="39.9507670" lon="3.1952090">
        <ele>190.2</ele>
        <time>2021-07-25T10:27:17Z</time>
      </trkpt>
      <trkpt lat="39.9508770" lon="3.1949650">
        <ele>189.0</ele>
        <time>2021-07-25T10:27:19Z</time>
      </trkpt>
      <trkpt lat="39.9510470" lon="3.1948320">
        <ele>187.8</ele>
        <time>2021-07-25T10:27:21Z</time>
      </trkpt>
      <trkpt lat="39.9511440" lon="3.1947900">
        <ele>186.8</ele>
        <time>2021-07-25T10:27:22Z</time>
      </trkpt>
      <trkpt lat="39.9512390" lon="3.1947430">
        <ele>186.0</ele>
        <time>2021-07-25T10:27:23Z</time>
      </trkpt>
      <trkpt lat="39.9513300" lon="3.1946830">
        <ele>185.6</ele>
        <time>2021-07-25T10:27:24Z</time>
      </trkpt>
      <trkpt lat="39.9513960" lon="3.1945930">
        <ele>185.4</ele>
        <time>2021-07-25T10:27:25Z</time>
      </trkpt>
      <trkpt lat="39.9514250" lon="3.1943550">
        <ele>185.0</ele>
        <time>2021-07-25T10:27:27Z</time>
      </trkpt>
      <trkpt lat="39.9512820" lon="3.1940390">
        <ele>184.2</ele>
        <time>2021-07-25T10:27:30Z</time>
      </trkpt>
      <trkpt lat="39.9512160" lon="3.1939430">
        <ele>183.6</ele>
        <time>2021-07-25T10:27:31Z</time>
      </trkpt>
      <trkpt lat="39.9511550" lon="3.1938410">
        <ele>183.2</ele>
        <time>2021-07-25T10:27:32Z</time>
      </trkpt>
      <trkpt lat="39.9511080" lon="3.1937330">
        <ele>183.0</ele>
        <time>2021-07-25T10:27:33Z</time>
      </trkpt>
      <trkpt lat="39.9510920" lon="3.1936180">
        <ele>182.6</ele>
        <time>2021-07-25T10:27:34Z</time>
      </trkpt>
      <trkpt lat="39.9511860" lon="3.1934020">
        <ele>181.6</ele>
        <time>2021-07-25T10:27:36Z</time>
      </trkpt>
      <trkpt lat="39.9512690" lon="3.1933300">
        <ele>180.6</ele>
        <time>2021-07-25T10:27:37Z</time>
      </trkpt>
      <trkpt lat="39.9513600" lon="3.1932690">
        <ele>179.8</ele>
        <time>2021-07-25T10:27:38Z</time>
      </trkpt>
      <trkpt lat="39.9514550" lon="3.1932040">
        <ele>179.2</ele>
        <time>2021-07-25T10:27:39Z</time>
      </trkpt>
      <trkpt lat="39.9515450" lon="3.1931150">
        <ele>179.0</ele>
        <time>2021-07-25T10:27:40Z</time>
      </trkpt>
      <trkpt lat="39.9516240" lon="3.1930100">
        <ele>178.8</ele>
        <time>2021-07-25T10:27:41Z</time>
      </trkpt>
      <trkpt lat="39.9518400" lon="3.1927300">
        <ele>178.0</ele>
        <time>2021-07-25T10:27:44Z</time>
      </trkpt>
      <trkpt lat="39.9520300" lon="3.1926360">
        <ele>176.6</ele>
        <time>2021-07-25T10:27:46Z</time>
      </trkpt>
      <trkpt lat="39.9521360" lon="3.1926190">
        <ele>175.8</ele>
        <time>2021-07-25T10:27:47Z</time>
      </trkpt>
      <trkpt lat="39.9522440" lon="3.1926020">
        <ele>175.4</ele>
        <time>2021-07-25T10:27:48Z</time>
      </trkpt>
      <trkpt lat="39.9524670" lon="3.1925700">
        <ele>174.2</ele>
        <time>2021-07-25T10:27:50Z</time>
      </trkpt>
      <trkpt lat="39.9525730" lon="3.1925420">
        <ele>173.6</ele>
        <time>2021-07-25T10:27:51Z</time>
      </trkpt>
      <trkpt lat="39.9526730" lon="3.1925000">
        <ele>173.0</ele>
        <time>2021-07-25T10:27:52Z</time>
      </trkpt>
      <trkpt lat="39.9529090" lon="3.1922660">
        <ele>171.6</ele>
        <time>2021-07-25T10:27:55Z</time>
      </trkpt>
      <trkpt lat="39.9529000" lon="3.1920270">
        <ele>170.4</ele>
        <time>2021-07-25T10:27:57Z</time>
      </trkpt>
      <trkpt lat="39.9528070" lon="3.1918320">
        <ele>170.0</ele>
        <time>2021-07-25T10:27:59Z</time>
      </trkpt>
      <trkpt lat="39.9527680" lon="3.1917210">
        <ele>169.8</ele>
        <time>2021-07-25T10:28:00Z</time>
      </trkpt>
      <trkpt lat="39.9527780" lon="3.1913620">
        <ele>169.6</ele>
        <time>2021-07-25T10:28:03Z</time>
      </trkpt>
      <trkpt lat="39.9528840" lon="3.1911580">
        <ele>169.4</ele>
        <time>2021-07-25T10:28:05Z</time>
      </trkpt>
      <trkpt lat="39.9529440" lon="3.1910580">
        <ele>168.8</ele>
        <time>2021-07-25T10:28:06Z</time>
      </trkpt>
      <trkpt lat="39.9530040" lon="3.1909590">
        <ele>168.2</ele>
        <time>2021-07-25T10:28:07Z</time>
      </trkpt>
      <trkpt lat="39.9531180" lon="3.1907490">
        <ele>167.0</ele>
        <time>2021-07-25T10:28:09Z</time>
      </trkpt>
      <trkpt lat="39.9533040" lon="3.1904250">
        <ele>165.6</ele>
        <time>2021-07-25T10:28:12Z</time>
      </trkpt>
      <trkpt lat="39.9533740" lon="3.1903220">
        <ele>165.2</ele>
        <time>2021-07-25T10:28:13Z</time>
      </trkpt>
      <trkpt lat="39.9535330" lon="3.1901400">
        <ele>164.4</ele>
        <time>2021-07-25T10:28:15Z</time>
      </trkpt>
      <trkpt lat="39.9537140" lon="3.1899920">
        <ele>162.8</ele>
        <time>2021-07-25T10:28:17Z</time>
      </trkpt>
      <trkpt lat="39.9538920" lon="3.1898430">
        <ele>161.6</ele>
        <time>2021-07-25T10:28:19Z</time>
      </trkpt>
      <trkpt lat="39.9540550" lon="3.1896960">
        <ele>160.6</ele>
        <time>2021-07-25T10:28:21Z</time>
      </trkpt>
      <trkpt lat="39.9541150" lon="3.1896000">
        <ele>160.4</ele>
        <time>2021-07-25T10:28:22Z</time>
      </trkpt>
      <trkpt lat="39.9541430" lon="3.1893620">
        <ele>160.0</ele>
        <time>2021-07-25T10:28:24Z</time>
      </trkpt>
      <trkpt lat="39.9540620" lon="3.1891640">
        <ele>159.8</ele>
        <time>2021-07-25T10:28:26Z</time>
      </trkpt>
      <trkpt lat="39.9539250" lon="3.1890690">
        <ele>159.6</ele>
        <time>2021-07-25T10:28:28Z</time>
      </trkpt>
      <trkpt lat="39.9538520" lon="3.1890520">
        <ele>160.0</ele>
        <time>2021-07-25T10:28:29Z</time>
      </trkpt>
      <trkpt lat="39.9535960" lon="3.1889790">
        <ele>161.0</ele>
        <time>2021-07-25T10:28:33Z</time>
      </trkpt>
      <trkpt lat="39.9534860" lon="3.1889520">
        <ele>161.8</ele>
        <time>2021-07-25T10:28:35Z</time>
      </trkpt>
      <trkpt lat="39.9532930" lon="3.1889080">
        <ele>163.0</ele>
        <time>2021-07-25T10:28:39Z</time>
      </trkpt>
      <trkpt lat="39.9532500" lon="3.1888910">
        <ele>163.2</ele>
        <time>2021-07-25T10:28:40Z</time>
      </trkpt>
      <trkpt lat="39.9531700" lon="3.1888450">
        <ele>163.6</ele>
        <time>2021-07-25T10:28:42Z</time>
      </trkpt>
      <trkpt lat="39.9531050" lon="3.1887700">
        <ele>164.0</ele>
        <time>2021-07-25T10:28:44Z</time>
      </trkpt>
      <trkpt lat="39.9530530" lon="3.1885440">
        <ele>165.0</ele>
        <time>2021-07-25T10:28:48Z</time>
      </trkpt>
      <trkpt lat="39.9530560" lon="3.1884830">
        <ele>165.2</ele>
        <time>2021-07-25T10:28:49Z</time>
      </trkpt>
      <trkpt lat="39.9530850" lon="3.1883080">
        <ele>165.8</ele>
        <time>2021-07-25T10:28:52Z</time>
      </trkpt>
      <trkpt lat="39.9531090" lon="3.1881950">
        <ele>166.0</ele>
        <time>2021-07-25T10:28:54Z</time>
      </trkpt>
      <trkpt lat="39.9531200" lon="3.1881380">
        <ele>166.2</ele>
        <time>2021-07-25T10:28:55Z</time>
      </trkpt>
      <trkpt lat="39.9531640" lon="3.1878210">
        <ele>166.4</ele>
        <time>2021-07-25T10:29:00Z</time>
      </trkpt>
      <trkpt lat="39.9531530" lon="3.1877550">
        <ele>166.4</ele>
        <time>2021-07-25T10:29:01Z</time>
      </trkpt>
      <trkpt lat="39.9530610" lon="3.1875840">
        <ele>166.6</ele>
        <time>2021-07-25T10:29:04Z</time>
      </trkpt>
      <trkpt lat="39.9530280" lon="3.1875300">
        <ele>166.4</ele>
        <time>2021-07-25T10:29:05Z</time>
      </trkpt>
      <trkpt lat="39.9528860" lon="3.1871670">
        <ele>166.4</ele>
        <time>2021-07-25T10:29:11Z</time>
      </trkpt>
      <trkpt lat="39.9528050" lon="3.1865940">
        <ele>167.2</ele>
        <time>2021-07-25T10:29:20Z</time>
      </trkpt>
      <trkpt lat="39.9527920" lon="3.1864110">
        <ele>166.8</ele>
        <time>2021-07-25T10:29:23Z</time>
      </trkpt>
      <trkpt lat="39.9527520" lon="3.1862990">
        <ele>166.2</ele>
        <time>2021-07-25T10:29:25Z</time>
      </trkpt>
      <trkpt lat="39.9527130" lon="3.1862520">
        <ele>166.0</ele>
        <time>2021-07-25T10:29:26Z</time>
      </trkpt>
      <trkpt lat="39.9526040" lon="3.1861850">
        <ele>165.4</ele>
        <time>2021-07-25T10:29:28Z</time>
      </trkpt>
      <trkpt lat="39.9525420" lon="3.1861530">
        <ele>165.2</ele>
        <time>2021-07-25T10:29:29Z</time>
      </trkpt>
      <trkpt lat="39.9524760" lon="3.1861150">
        <ele>165.0</ele>
        <time>2021-07-25T10:29:30Z</time>
      </trkpt>
      <trkpt lat="39.9523500" lon="3.1860220">
        <ele>164.4</ele>
        <time>2021-07-25T10:29:32Z</time>
      </trkpt>
      <trkpt lat="39.9522880" lon="3.1859650">
        <ele>164.2</ele>
        <time>2021-07-25T10:29:33Z</time>
      </trkpt>
      <trkpt lat="39.9521680" lon="3.1858340">
        <ele>163.4</ele>
        <time>2021-07-25T10:29:35Z</time>
      </trkpt>
      <trkpt lat="39.9520460" lon="3.1856940">
        <ele>162.6</ele>
        <time>2021-07-25T10:29:37Z</time>
      </trkpt>
      <trkpt lat="39.9519890" lon="3.1856150">
        <ele>162.0</ele>
        <time>2021-07-25T10:29:38Z</time>
      </trkpt>
      <trkpt lat="39.9519400" lon="3.1855250">
        <ele>161.6</ele>
        <time>2021-07-25T10:29:39Z</time>
      </trkpt>
      <trkpt lat="39.9518880" lon="3.1853160">
        <ele>160.8</ele>
        <time>2021-07-25T10:29:41Z</time>
      </trkpt>
      <trkpt lat="39.9518620" lon="3.1850940">
        <ele>160.0</ele>
        <time>2021-07-25T10:29:43Z</time>
      </trkpt>
      <trkpt lat="39.9518430" lon="3.1849810">
        <ele>159.4</ele>
        <time>2021-07-25T10:29:44Z</time>
      </trkpt>
      <trkpt lat="39.9517550" lon="3.1847760">
        <ele>158.6</ele>
        <time>2021-07-25T10:29:46Z</time>
      </trkpt>
      <trkpt lat="39.9516220" lon="3.1846050">
        <ele>157.6</ele>
        <time>2021-07-25T10:29:48Z</time>
      </trkpt>
      <trkpt lat="39.9515540" lon="3.1845180">
        <ele>157.4</ele>
        <time>2021-07-25T10:29:49Z</time>
      </trkpt>
      <trkpt lat="39.9514210" lon="3.1843370">
        <ele>156.6</ele>
        <time>2021-07-25T10:29:51Z</time>
      </trkpt>
      <trkpt lat="39.9513570" lon="3.1842400">
        <ele>156.4</ele>
        <time>2021-07-25T10:29:52Z</time>
      </trkpt>
      <trkpt lat="39.9511710" lon="3.1839300">
        <ele>155.0</ele>
        <time>2021-07-25T10:29:55Z</time>
      </trkpt>
      <trkpt lat="39.9510560" lon="3.1837070">
        <ele>154.0</ele>
        <time>2021-07-25T10:29:57Z</time>
      </trkpt>
      <trkpt lat="39.9508850" lon="3.1833680">
        <ele>152.6</ele>
        <time>2021-07-25T10:30:00Z</time>
      </trkpt>
      <trkpt lat="39.9507320" lon="3.1830070">
        <ele>151.0</ele>
        <time>2021-07-25T10:30:03Z</time>
      </trkpt>
      <trkpt lat="39.9506920" lon="3.1828780">
        <ele>150.6</ele>
        <time>2021-07-25T10:30:04Z</time>
      </trkpt>
      <trkpt lat="39.9506580" lon="3.1827430">
        <ele>149.8</ele>
        <time>2021-07-25T10:30:05Z</time>
      </trkpt>
      <trkpt lat="39.9505880" lon="3.1824700">
        <ele>148.6</ele>
        <time>2021-07-25T10:30:07Z</time>
      </trkpt>
      <trkpt lat="39.9504760" lon="3.1820450">
        <ele>147.2</ele>
        <time>2021-07-25T10:30:10Z</time>
      </trkpt>
      <trkpt lat="39.9504000" lon="3.1817480">
        <ele>145.6</ele>
        <time>2021-07-25T10:30:12Z</time>
      </trkpt>
      <trkpt lat="39.9503220" lon="3.1814440">
        <ele>143.4</ele>
        <time>2021-07-25T10:30:14Z</time>
      </trkpt>
      <trkpt lat="39.9502890" lon="3.1812880">
        <ele>142.4</ele>
        <time>2021-07-25T10:30:15Z</time>
      </trkpt>
      <trkpt lat="39.9502560" lon="3.1811310">
        <ele>141.6</ele>
        <time>2021-07-25T10:30:16Z</time>
      </trkpt>
      <trkpt lat="39.9502240" lon="3.1809700">
        <ele>140.4</ele>
        <time>2021-07-25T10:30:17Z</time>
      </trkpt>
      <trkpt lat="39.9501550" lon="3.1806530">
        <ele>138.6</ele>
        <time>2021-07-25T10:30:19Z</time>
      </trkpt>
      <trkpt lat="39.9500690" lon="3.1803430">
        <ele>137.0</ele>
        <time>2021-07-25T10:30:21Z</time>
      </trkpt>
      <trkpt lat="39.9499250" lon="3.1798960">
        <ele>135.2</ele>
        <time>2021-07-25T10:30:24Z</time>
      </trkpt>
      <trkpt lat="39.9498270" lon="3.1796120">
        <ele>133.8</ele>
        <time>2021-07-25T10:30:26Z</time>
      </trkpt>
      <trkpt lat="39.9497780" lon="3.1794750">
        <ele>132.8</ele>
        <time>2021-07-25T10:30:27Z</time>
      </trkpt>
      <trkpt lat="39.9496780" lon="3.1791990">
        <ele>131.0</ele>
        <time>2021-07-25T10:30:29Z</time>
      </trkpt>
      <trkpt lat="39.9496300" lon="3.1790610">
        <ele>130.0</ele>
        <time>2021-07-25T10:30:30Z</time>
      </trkpt>
      <trkpt lat="39.9495350" lon="3.1787860">
        <ele>128.2</ele>
        <time>2021-07-25T10:30:32Z</time>
      </trkpt>
      <trkpt lat="39.9494870" lon="3.1786500">
        <ele>127.0</ele>
        <time>2021-07-25T10:30:33Z</time>
      </trkpt>
      <trkpt lat="39.9494400" lon="3.1785160">
        <ele>125.8</ele>
        <time>2021-07-25T10:30:34Z</time>
      </trkpt>
      <trkpt lat="39.9493930" lon="3.1783850">
        <ele>124.6</ele>
        <time>2021-07-25T10:30:35Z</time>
      </trkpt>
      <trkpt lat="39.9493000" lon="3.1781250">
        <ele>123.6</ele>
        <time>2021-07-25T10:30:37Z</time>
      </trkpt>
      <trkpt lat="39.9495230" lon="3.1776840">
        <ele>122.8</ele>
        <time>2021-07-25T10:30:39Z</time>
      </trkpt>
      <trkpt lat="39.9495310" lon="3.1775590">
        <ele>122.2</ele>
        <time>2021-07-25T10:30:40Z</time>
      </trkpt>
      <trkpt lat="39.9494940" lon="3.1773350">
        <ele>120.8</ele>
        <time>2021-07-25T10:30:42Z</time>
      </trkpt>
      <trkpt lat="39.9495180" lon="3.1772130">
        <ele>119.6</ele>
        <time>2021-07-25T10:30:43Z</time>
      </trkpt>
      <trkpt lat="39.9494900" lon="3.1771040">
        <ele>118.8</ele>
        <time>2021-07-25T10:30:44Z</time>
      </trkpt>
      <trkpt lat="39.9495330" lon="3.1769720">
        <ele>118.4</ele>
        <time>2021-07-25T10:30:45Z</time>
      </trkpt>
      <trkpt lat="39.9496400" lon="3.1765720">
        <ele>116.8</ele>
        <time>2021-07-25T10:30:48Z</time>
      </trkpt>
      <trkpt lat="39.9496700" lon="3.1764290">
        <ele>116.2</ele>
        <time>2021-07-25T10:30:49Z</time>
      </trkpt>
      <trkpt lat="39.9496500" lon="3.1761250">
        <ele>115.4</ele>
        <time>2021-07-25T10:30:51Z</time>
      </trkpt>
      <trkpt lat="39.9495830" lon="3.1758220">
        <ele>114.8</ele>
        <time>2021-07-25T10:30:53Z</time>
      </trkpt>
      <trkpt lat="39.9495470" lon="3.1756710">
        <ele>114.2</ele>
        <time>2021-07-25T10:30:54Z</time>
      </trkpt>
      <trkpt lat="39.9495050" lon="3.1755230">
        <ele>113.6</ele>
        <time>2021-07-25T10:30:55Z</time>
      </trkpt>
      <trkpt lat="39.9494690" lon="3.1753700">
        <ele>113.0</ele>
        <time>2021-07-25T10:30:56Z</time>
      </trkpt>
      <trkpt lat="39.9494120" lon="3.1750690">
        <ele>112.0</ele>
        <time>2021-07-25T10:30:58Z</time>
      </trkpt>
      <trkpt lat="39.9493700" lon="3.1749240">
        <ele>111.4</ele>
        <time>2021-07-25T10:30:59Z</time>
      </trkpt>
      <trkpt lat="39.9493160" lon="3.1747890">
        <ele>110.8</ele>
        <time>2021-07-25T10:31:00Z</time>
      </trkpt>
      <trkpt lat="39.9491780" lon="3.1745260">
        <ele>109.8</ele>
        <time>2021-07-25T10:31:02Z</time>
      </trkpt>
      <trkpt lat="39.9490670" lon="3.1742370">
        <ele>108.2</ele>
        <time>2021-07-25T10:31:04Z</time>
      </trkpt>
      <trkpt lat="39.9489700" lon="3.1739430">
        <ele>107.0</ele>
        <time>2021-07-25T10:31:06Z</time>
      </trkpt>
      <trkpt lat="39.9489250" lon="3.1737980">
        <ele>106.0</ele>
        <time>2021-07-25T10:31:07Z</time>
      </trkpt>
      <trkpt lat="39.9488590" lon="3.1735080">
        <ele>105.2</ele>
        <time>2021-07-25T10:31:09Z</time>
      </trkpt>
      <trkpt lat="39.9488410" lon="3.1733610">
        <ele>104.8</ele>
        <time>2021-07-25T10:31:10Z</time>
      </trkpt>
      <trkpt lat="39.9488610" lon="3.1730600">
        <ele>103.2</ele>
        <time>2021-07-25T10:31:12Z</time>
      </trkpt>
      <trkpt lat="39.9488870" lon="3.1729170">
        <ele>103.2</ele>
        <time>2021-07-25T10:31:13Z</time>
      </trkpt>
      <trkpt lat="39.9489470" lon="3.1725380">
        <ele>102.0</ele>
        <time>2021-07-25T10:31:16Z</time>
      </trkpt>
      <trkpt lat="39.9489480" lon="3.1724140">
        <ele>101.0</ele>
        <time>2021-07-25T10:31:17Z</time>
      </trkpt>
      <trkpt lat="39.9489010" lon="3.1723080">
        <ele>99.8</ele>
        <time>2021-07-25T10:31:18Z</time>
      </trkpt>
      <trkpt lat="39.9488240" lon="3.1722150">
        <ele>98.6</ele>
        <time>2021-07-25T10:31:19Z</time>
      </trkpt>
      <trkpt lat="39.9487190" lon="3.1721540">
        <ele>97.2</ele>
        <time>2021-07-25T10:31:20Z</time>
      </trkpt>
      <trkpt lat="39.9486100" lon="3.1721060">
        <ele>96.4</ele>
        <time>2021-07-25T10:31:21Z</time>
      </trkpt>
      <trkpt lat="39.9485070" lon="3.1720640">
        <ele>96.0</ele>
        <time>2021-07-25T10:31:22Z</time>
      </trkpt>
      <trkpt lat="39.9483270" lon="3.1719880">
        <ele>93.6</ele>
        <time>2021-07-25T10:31:24Z</time>
      </trkpt>
      <trkpt lat="39.9482510" lon="3.1719500">
        <ele>92.6</ele>
        <time>2021-07-25T10:31:25Z</time>
      </trkpt>
      <trkpt lat="39.9481890" lon="3.1718930">
        <ele>91.8</ele>
        <time>2021-07-25T10:31:26Z</time>
      </trkpt>
      <trkpt lat="39.9481510" lon="3.1718090">
        <ele>91.0</ele>
        <time>2021-07-25T10:31:27Z</time>
      </trkpt>
      <trkpt lat="39.9481200" lon="3.1716010">
        <ele>89.2</ele>
        <time>2021-07-25T10:31:29Z</time>
      </trkpt>
      <trkpt lat="39.9481890" lon="3.1714780">
        <ele>87.8</ele>
        <time>2021-07-25T10:31:30Z</time>
      </trkpt>
      <trkpt lat="39.9482730" lon="3.1713850">
        <ele>86.4</ele>
        <time>2021-07-25T10:31:31Z</time>
      </trkpt>
      <trkpt lat="39.9483730" lon="3.1713310">
        <ele>85.6</ele>
        <time>2021-07-25T10:31:32Z</time>
      </trkpt>
      <trkpt lat="39.9484760" lon="3.1713060">
        <ele>85.0</ele>
        <time>2021-07-25T10:31:33Z</time>
      </trkpt>
      <trkpt lat="39.9486880" lon="3.1713070">
        <ele>83.2</ele>
        <time>2021-07-25T10:31:35Z</time>
      </trkpt>
      <trkpt lat="39.9488960" lon="3.1713000">
        <ele>82.2</ele>
        <time>2021-07-25T10:31:37Z</time>
      </trkpt>
      <trkpt lat="39.9489930" lon="3.1712580">
        <ele>81.0</ele>
        <time>2021-07-25T10:31:38Z</time>
      </trkpt>
      <trkpt lat="39.9491390" lon="3.1710580">
        <ele>79.0</ele>
        <time>2021-07-25T10:31:40Z</time>
      </trkpt>
      <trkpt lat="39.9492170" lon="3.1707730">
        <ele>76.8</ele>
        <time>2021-07-25T10:31:42Z</time>
      </trkpt>
      <trkpt lat="39.9492310" lon="3.1706150">
        <ele>75.8</ele>
        <time>2021-07-25T10:31:43Z</time>
      </trkpt>
      <trkpt lat="39.9491920" lon="3.1702910">
        <ele>74.2</ele>
        <time>2021-07-25T10:31:45Z</time>
      </trkpt>
      <trkpt lat="39.9491690" lon="3.1701250">
        <ele>73.0</ele>
        <time>2021-07-25T10:31:46Z</time>
      </trkpt>
      <trkpt lat="39.9491610" lon="3.1699510">
        <ele>71.2</ele>
        <time>2021-07-25T10:31:47Z</time>
      </trkpt>
      <trkpt lat="39.9491700" lon="3.1697750">
        <ele>70.4</ele>
        <time>2021-07-25T10:31:48Z</time>
      </trkpt>
      <trkpt lat="39.9491900" lon="3.1696000">
        <ele>69.4</ele>
        <time>2021-07-25T10:31:49Z</time>
      </trkpt>
      <trkpt lat="39.9492170" lon="3.1694310">
        <ele>68.2</ele>
        <time>2021-07-25T10:31:50Z</time>
      </trkpt>
      <trkpt lat="39.9492800" lon="3.1691240">
        <ele>67.2</ele>
        <time>2021-07-25T10:31:52Z</time>
      </trkpt>
      <trkpt lat="39.9492990" lon="3.1689830">
        <ele>67.0</ele>
        <time>2021-07-25T10:31:53Z</time>
      </trkpt>
      <trkpt lat="39.9493040" lon="3.1687100">
        <ele>66.6</ele>
        <time>2021-07-25T10:31:55Z</time>
      </trkpt>
      <trkpt lat="39.9492780" lon="3.1684590">
        <ele>66.6</ele>
        <time>2021-07-25T10:31:57Z</time>
      </trkpt>
      <trkpt lat="39.9492400" lon="3.1682370">
        <ele>67.2</ele>
        <time>2021-07-25T10:31:59Z</time>
      </trkpt>
      <trkpt lat="39.9491680" lon="3.1677680">
        <ele>68.2</ele>
        <time>2021-07-25T10:32:04Z</time>
      </trkpt>
      <trkpt lat="39.9491530" lon="3.1676860">
        <ele>68.2</ele>
        <time>2021-07-25T10:32:05Z</time>
      </trkpt>
      <trkpt lat="39.9490820" lon="3.1673230">
        <ele>68.6</ele>
        <time>2021-07-25T10:32:10Z</time>
      </trkpt>
      <trkpt lat="39.9490460" lon="3.1670200">
        <ele>69.4</ele>
        <time>2021-07-25T10:32:15Z</time>
      </trkpt>
      <trkpt lat="39.9490390" lon="3.1669600">
        <ele>69.8</ele>
        <time>2021-07-25T10:32:16Z</time>
      </trkpt>
      <trkpt lat="39.9490220" lon="3.1668470">
        <ele>70.0</ele>
        <time>2021-07-25T10:32:18Z</time>
      </trkpt>
      <trkpt lat="39.9490070" lon="3.1667370">
        <ele>70.6</ele>
        <time>2021-07-25T10:32:20Z</time>
      </trkpt>
      <trkpt lat="39.9489900" lon="3.1666370">
        <ele>70.8</ele>
        <time>2021-07-25T10:32:22Z</time>
      </trkpt>
      <trkpt lat="39.9489670" lon="3.1664470">
        <ele>71.8</ele>
        <time>2021-07-25T10:32:26Z</time>
      </trkpt>
      <trkpt lat="39.9489590" lon="3.1663280">
        <ele>72.2</ele>
        <time>2021-07-25T10:32:29Z</time>
      </trkpt>
      <trkpt lat="39.9489540" lon="3.1662260">
        <ele>73.2</ele>
        <time>2021-07-25T10:32:32Z</time>
      </trkpt>
      <trkpt lat="39.9489350" lon="3.1661020">
        <ele>73.8</ele>
        <time>2021-07-25T10:32:36Z</time>
      </trkpt>
      <trkpt lat="39.9489230" lon="3.1660470">
        <ele>74.2</ele>
        <time>2021-07-25T10:32:38Z</time>
      </trkpt>
      <trkpt lat="39.9488930" lon="3.1659060">
        <ele>75.0</ele>
        <time>2021-07-25T10:32:43Z</time>
      </trkpt>
      <trkpt lat="39.9488780" lon="3.1658120">
        <ele>75.2</ele>
        <time>2021-07-25T10:32:46Z</time>
      </trkpt>
      <trkpt lat="39.9488720" lon="3.1657590">
        <ele>75.4</ele>
        <time>2021-07-25T10:32:48Z</time>
      </trkpt>
      <trkpt lat="39.9488730" lon="3.1657420">
        <ele>75.4</ele>
        <time>2021-07-25T10:32:49Z</time>
      </trkpt>
      <trkpt lat="39.9488770" lon="3.1657340">
        <ele>75.6</ele>
        <time>2021-07-25T10:32:50Z</time>
      </trkpt>
      <trkpt lat="39.9488060" lon="3.1655150">
        <ele>76.2</ele>
        <time>2021-07-25T10:33:38Z</time>
      </trkpt>
      <trkpt lat="39.9487540" lon="3.1652380">
        <ele>76.6</ele>
        <time>2021-07-25T10:33:44Z</time>
      </trkpt>
      <trkpt lat="39.9487120" lon="3.1650500">
        <ele>77.6</ele>
        <time>2021-07-25T10:33:48Z</time>
      </trkpt>
      <trkpt lat="39.9486670" lon="3.1648740">
        <ele>78.6</ele>
        <time>2021-07-25T10:33:52Z</time>
      </trkpt>
      <trkpt lat="39.9486590" lon="3.1648300">
        <ele>79.0</ele>
        <time>2021-07-25T10:33:53Z</time>
      </trkpt>
      <trkpt lat="39.9486230" lon="3.1646450">
        <ele>79.8</ele>
        <time>2021-07-25T10:33:57Z</time>
      </trkpt>
      <trkpt lat="39.9485830" lon="3.1644660">
        <ele>80.6</ele>
        <time>2021-07-25T10:34:01Z</time>
      </trkpt>
      <trkpt lat="39.9485770" lon="3.1644190">
        <ele>80.8</ele>
        <time>2021-07-25T10:34:02Z</time>
      </trkpt>
      <trkpt lat="39.9485290" lon="3.1641780">
        <ele>81.8</ele>
        <time>2021-07-25T10:34:07Z</time>
      </trkpt>
      <trkpt lat="39.9485220" lon="3.1641250">
        <ele>82.0</ele>
        <time>2021-07-25T10:34:08Z</time>
      </trkpt>
      <trkpt lat="39.9485080" lon="3.1640090">
        <ele>82.2</ele>
        <time>2021-07-25T10:34:10Z</time>
      </trkpt>
      <trkpt lat="39.9484890" lon="3.1638900">
        <ele>82.4</ele>
        <time>2021-07-25T10:34:12Z</time>
      </trkpt>
      <trkpt lat="39.9484680" lon="3.1637610">
        <ele>82.2</ele>
        <time>2021-07-25T10:34:14Z</time>
      </trkpt>
      <trkpt lat="39.9484570" lon="3.1636980">
        <ele>82.2</ele>
        <time>2021-07-25T10:34:15Z</time>
      </trkpt>
      <trkpt lat="39.9484110" lon="3.1634500">
        <ele>82.8</ele>
        <time>2021-07-25T10:34:19Z</time>
      </trkpt>
      <trkpt lat="39.9483260" lon="3.1632030">
        <ele>83.2</ele>
        <time>2021-07-25T10:34:23Z</time>
      </trkpt>
      <trkpt lat="39.9482880" lon="3.1631450">
        <ele>83.2</ele>
        <time>2021-07-25T10:34:24Z</time>
      </trkpt>
      <trkpt lat="39.9481930" lon="3.1630300">
        <ele>83.2</ele>
        <time>2021-07-25T10:34:26Z</time>
      </trkpt>
      <trkpt lat="39.9480710" lon="3.1628980">
        <ele>82.2</ele>
        <time>2021-07-25T10:34:28Z</time>
      </trkpt>
      <trkpt lat="39.9479990" lon="3.1628210">
        <ele>81.4</ele>
        <time>2021-07-25T10:34:29Z</time>
      </trkpt>
      <trkpt lat="39.9478520" lon="3.1626720">
        <ele>80.4</ele>
        <time>2021-07-25T10:34:31Z</time>
      </trkpt>
      <trkpt lat="39.9477040" lon="3.1625060">
        <ele>80.0</ele>
        <time>2021-07-25T10:34:33Z</time>
      </trkpt>
      <trkpt lat="39.9476370" lon="3.1624130">
        <ele>79.6</ele>
        <time>2021-07-25T10:34:34Z</time>
      </trkpt>
      <trkpt lat="39.9475790" lon="3.1623080">
        <ele>79.2</ele>
        <time>2021-07-25T10:34:35Z</time>
      </trkpt>
      <trkpt lat="39.9475420" lon="3.1621900">
        <ele>79.0</ele>
        <time>2021-07-25T10:34:36Z</time>
      </trkpt>
      <trkpt lat="39.9475370" lon="3.1619210">
        <ele>78.2</ele>
        <time>2021-07-25T10:34:38Z</time>
      </trkpt>
      <trkpt lat="39.9475530" lon="3.1617900">
        <ele>76.8</ele>
        <time>2021-07-25T10:34:39Z</time>
      </trkpt>
      <trkpt lat="39.9475910" lon="3.1615320">
        <ele>75.2</ele>
        <time>2021-07-25T10:34:41Z</time>
      </trkpt>
      <trkpt lat="39.9476080" lon="3.1614060">
        <ele>74.6</ele>
        <time>2021-07-25T10:34:42Z</time>
      </trkpt>
      <trkpt lat="39.9476260" lon="3.1612800">
        <ele>74.0</ele>
        <time>2021-07-25T10:34:43Z</time>
      </trkpt>
      <trkpt lat="39.9476630" lon="3.1608030">
        <ele>72.8</ele>
        <time>2021-07-25T10:34:47Z</time>
      </trkpt>
      <trkpt lat="39.9476540" lon="3.1605580">
        <ele>72.6</ele>
        <time>2021-07-25T10:34:49Z</time>
      </trkpt>
      <trkpt lat="39.9476040" lon="3.1603180">
        <ele>72.4</ele>
        <time>2021-07-25T10:34:51Z</time>
      </trkpt>
      <trkpt lat="39.9475240" lon="3.1601040">
        <ele>71.6</ele>
        <time>2021-07-25T10:34:53Z</time>
      </trkpt>
      <trkpt lat="39.9474660" lon="3.1599980">
        <ele>71.4</ele>
        <time>2021-07-25T10:34:54Z</time>
      </trkpt>
      <trkpt lat="39.9474040" lon="3.1598950">
        <ele>71.4</ele>
        <time>2021-07-25T10:34:55Z</time>
      </trkpt>
      <trkpt lat="39.9472870" lon="3.1596750">
        <ele>70.6</ele>
        <time>2021-07-25T10:34:57Z</time>
      </trkpt>
      <trkpt lat="39.9471740" lon="3.1594460">
        <ele>69.8</ele>
        <time>2021-07-25T10:34:59Z</time>
      </trkpt>
      <trkpt lat="39.9471140" lon="3.1593320">
        <ele>69.4</ele>
        <time>2021-07-25T10:35:00Z</time>
      </trkpt>
      <trkpt lat="39.9468210" lon="3.1587860">
        <ele>68.4</ele>
        <time>2021-07-25T10:35:05Z</time>
      </trkpt>
      <trkpt lat="39.9467660" lon="3.1586760">
        <ele>67.4</ele>
        <time>2021-07-25T10:35:06Z</time>
      </trkpt>
      <trkpt lat="39.9467130" lon="3.1585690">
        <ele>65.8</ele>
        <time>2021-07-25T10:35:07Z</time>
      </trkpt>
      <trkpt lat="39.9466590" lon="3.1584580">
        <ele>64.6</ele>
        <time>2021-07-25T10:35:08Z</time>
      </trkpt>
      <trkpt lat="39.9464860" lon="3.1581220">
        <ele>63.6</ele>
        <time>2021-07-25T10:35:11Z</time>
      </trkpt>
      <trkpt lat="39.9462510" lon="3.1576990">
        <ele>61.6</ele>
        <time>2021-07-25T10:35:15Z</time>
      </trkpt>
      <trkpt lat="39.9459390" lon="3.1571940">
        <ele>60.8</ele>
        <time>2021-07-25T10:35:20Z</time>
      </trkpt>
      <trkpt lat="39.9458240" lon="3.1570060">
        <ele>60.6</ele>
        <time>2021-07-25T10:35:22Z</time>
      </trkpt>
      <trkpt lat="39.9456590" lon="3.1567410">
        <ele>59.6</ele>
        <time>2021-07-25T10:35:25Z</time>
      </trkpt>
      <trkpt lat="39.9455550" lon="3.1565570">
        <ele>59.2</ele>
        <time>2021-07-25T10:35:27Z</time>
      </trkpt>
      <trkpt lat="39.9454170" lon="3.1563140">
        <ele>59.4</ele>
        <time>2021-07-25T10:35:30Z</time>
      </trkpt>
      <trkpt lat="39.9452120" lon="3.1559510">
        <ele>59.6</ele>
        <time>2021-07-25T10:35:35Z</time>
      </trkpt>
      <trkpt lat="39.9450570" lon="3.1556870">
        <ele>59.6</ele>
        <time>2021-07-25T10:35:39Z</time>
      </trkpt>
      <trkpt lat="39.9449810" lon="3.1555520">
        <ele>60.0</ele>
        <time>2021-07-25T10:35:41Z</time>
      </trkpt>
      <trkpt lat="39.9448620" lon="3.1553310">
        <ele>59.8</ele>
        <time>2021-07-25T10:35:44Z</time>
      </trkpt>
      <trkpt lat="39.9446500" lon="3.1549520">
        <ele>59.0</ele>
        <time>2021-07-25T10:35:49Z</time>
      </trkpt>
      <trkpt lat="39.9445650" lon="3.1547920">
        <ele>58.8</ele>
        <time>2021-07-25T10:35:51Z</time>
      </trkpt>
      <trkpt lat="39.9444020" lon="3.1544960">
        <ele>58.4</ele>
        <time>2021-07-25T10:35:55Z</time>
      </trkpt>
      <trkpt lat="39.9443140" lon="3.1543300">
        <ele>57.8</ele>
        <time>2021-07-25T10:35:57Z</time>
      </trkpt>
      <trkpt lat="39.9442260" lon="3.1541540">
        <ele>57.2</ele>
        <time>2021-07-25T10:35:59Z</time>
      </trkpt>
      <trkpt lat="39.9440340" lon="3.1538010">
        <ele>56.8</ele>
        <time>2021-07-25T10:36:03Z</time>
      </trkpt>
      <trkpt lat="39.9439850" lon="3.1537080">
        <ele>56.8</ele>
        <time>2021-07-25T10:36:04Z</time>
      </trkpt>
      <trkpt lat="39.9437360" lon="3.1532160">
        <ele>55.4</ele>
        <time>2021-07-25T10:36:09Z</time>
      </trkpt>
      <trkpt lat="39.9436810" lon="3.1531250">
        <ele>55.2</ele>
        <time>2021-07-25T10:36:10Z</time>
      </trkpt>
      <trkpt lat="39.9435710" lon="3.1529380">
        <ele>54.4</ele>
        <time>2021-07-25T10:36:12Z</time>
      </trkpt>
      <trkpt lat="39.9433610" lon="3.1525720">
        <ele>54.6</ele>
        <time>2021-07-25T10:36:16Z</time>
      </trkpt>
      <trkpt lat="39.9430470" lon="3.1520420">
        <ele>53.6</ele>
        <time>2021-07-25T10:36:22Z</time>
      </trkpt>
      <trkpt lat="39.9429480" lon="3.1518710">
        <ele>53.0</ele>
        <time>2021-07-25T10:36:24Z</time>
      </trkpt>
      <trkpt lat="39.9427590" lon="3.1515330">
        <ele>52.6</ele>
        <time>2021-07-25T10:36:28Z</time>
      </trkpt>
      <trkpt lat="39.9424320" lon="3.1509450">
        <ele>52.4</ele>
        <time>2021-07-25T10:36:35Z</time>
      </trkpt>
      <trkpt lat="39.9421380" lon="3.1504080">
        <ele>51.4</ele>
        <time>2021-07-25T10:36:41Z</time>
      </trkpt>
      <trkpt lat="39.9419270" lon="3.1500160">
        <ele>50.8</ele>
        <time>2021-07-25T10:36:45Z</time>
      </trkpt>
      <trkpt lat="39.9418710" lon="3.1499150">
        <ele>50.6</ele>
        <time>2021-07-25T10:36:46Z</time>
      </trkpt>
      <trkpt lat="39.9417590" lon="3.1497080">
        <ele>49.4</ele>
        <time>2021-07-25T10:36:48Z</time>
      </trkpt>
      <trkpt lat="39.9416470" lon="3.1495040">
        <ele>47.8</ele>
        <time>2021-07-25T10:36:50Z</time>
      </trkpt>
      <trkpt lat="39.9415900" lon="3.1493960">
        <ele>47.0</ele>
        <time>2021-07-25T10:36:51Z</time>
      </trkpt>
      <trkpt lat="39.9415340" lon="3.1492830">
        <ele>46.6</ele>
        <time>2021-07-25T10:36:52Z</time>
      </trkpt>
      <trkpt lat="39.9413560" lon="3.1489590">
        <ele>45.6</ele>
        <time>2021-07-25T10:36:55Z</time>
      </trkpt>
      <trkpt lat="39.9412930" lon="3.1488580">
        <ele>45.4</ele>
        <time>2021-07-25T10:36:56Z</time>
      </trkpt>
      <trkpt lat="39.9409720" lon="3.1483560">
        <ele>45.0</ele>
        <time>2021-07-25T10:37:01Z</time>
      </trkpt>
      <trkpt lat="39.9409180" lon="3.1482510">
        <ele>44.8</ele>
        <time>2021-07-25T10:37:02Z</time>
      </trkpt>
      <trkpt lat="39.9407640" lon="3.1479500">
        <ele>44.4</ele>
        <time>2021-07-25T10:37:05Z</time>
      </trkpt>
      <trkpt lat="39.9407090" lon="3.1478540">
        <ele>44.2</ele>
        <time>2021-07-25T10:37:06Z</time>
      </trkpt>
      <trkpt lat="39.9405110" lon="3.1475010">
        <ele>44.6</ele>
        <time>2021-07-25T10:37:10Z</time>
      </trkpt>
      <trkpt lat="39.9402750" lon="3.1470830">
        <ele>44.0</ele>
        <time>2021-07-25T10:37:15Z</time>
      </trkpt>
      <trkpt lat="39.9401400" lon="3.1468180">
        <ele>43.2</ele>
        <time>2021-07-25T10:37:18Z</time>
      </trkpt>
      <trkpt lat="39.9400940" lon="3.1467380">
        <ele>43.0</ele>
        <time>2021-07-25T10:37:19Z</time>
      </trkpt>
      <trkpt lat="39.9398470" lon="3.1463110">
        <ele>42.8</ele>
        <time>2021-07-25T10:37:24Z</time>
      </trkpt>
      <trkpt lat="39.9395500" lon="3.1458610">
        <ele>42.4</ele>
        <time>2021-07-25T10:37:29Z</time>
      </trkpt>
      <trkpt lat="39.9394880" lon="3.1457700">
        <ele>42.2</ele>
        <time>2021-07-25T10:37:30Z</time>
      </trkpt>
      <trkpt lat="39.9393740" lon="3.1455750">
        <ele>41.2</ele>
        <time>2021-07-25T10:37:32Z</time>
      </trkpt>
      <trkpt lat="39.9393120" lon="3.1454840">
        <ele>40.8</ele>
        <time>2021-07-25T10:37:33Z</time>
      </trkpt>
      <trkpt lat="39.9391200" lon="3.1451330">
        <ele>41.2</ele>
        <time>2021-07-25T10:37:37Z</time>
      </trkpt>
      <trkpt lat="39.9390680" lon="3.1450540">
        <ele>41.4</ele>
        <time>2021-07-25T10:37:38Z</time>
      </trkpt>
      <trkpt lat="39.9388730" lon="3.1447330">
        <ele>42.0</ele>
        <time>2021-07-25T10:37:42Z</time>
      </trkpt>
      <trkpt lat="39.9386370" lon="3.1443310">
        <ele>41.8</ele>
        <time>2021-07-25T10:37:47Z</time>
      </trkpt>
      <trkpt lat="39.9384100" lon="3.1440020">
        <ele>40.8</ele>
        <time>2021-07-25T10:37:51Z</time>
      </trkpt>
      <trkpt lat="39.9383320" lon="3.1439190">
        <ele>40.0</ele>
        <time>2021-07-25T10:37:52Z</time>
      </trkpt>
      <trkpt lat="39.9381030" lon="3.1436810">
        <ele>38.8</ele>
        <time>2021-07-25T10:37:55Z</time>
      </trkpt>
      <trkpt lat="39.9380180" lon="3.1435910">
        <ele>38.0</ele>
        <time>2021-07-25T10:37:56Z</time>
      </trkpt>
      <trkpt lat="39.9379270" lon="3.1435020">
        <ele>37.6</ele>
        <time>2021-07-25T10:37:57Z</time>
      </trkpt>
      <trkpt lat="39.9376470" lon="3.1432370">
        <ele>36.6</ele>
        <time>2021-07-25T10:38:00Z</time>
      </trkpt>
      <trkpt lat="39.9374580" lon="3.1430590">
        <ele>35.0</ele>
        <time>2021-07-25T10:38:02Z</time>
      </trkpt>
      <trkpt lat="39.9371860" lon="3.1427780">
        <ele>33.8</ele>
        <time>2021-07-25T10:38:05Z</time>
      </trkpt>
      <trkpt lat="39.9370020" lon="3.1426020">
        <ele>32.6</ele>
        <time>2021-07-25T10:38:07Z</time>
      </trkpt>
      <trkpt lat="39.9366620" lon="3.1422440">
        <ele>31.2</ele>
        <time>2021-07-25T10:38:11Z</time>
      </trkpt>
      <trkpt lat="39.9365750" lon="3.1421570">
        <ele>31.0</ele>
        <time>2021-07-25T10:38:12Z</time>
      </trkpt>
      <trkpt lat="39.9364080" lon="3.1419860">
        <ele>30.2</ele>
        <time>2021-07-25T10:38:14Z</time>
      </trkpt>
      <trkpt lat="39.9361020" lon="3.1416810">
        <ele>29.4</ele>
        <time>2021-07-25T10:38:18Z</time>
      </trkpt>
      <trkpt lat="39.9357510" lon="3.1413250">
        <ele>29.4</ele>
        <time>2021-07-25T10:38:23Z</time>
      </trkpt>
      <trkpt lat="39.9356200" lon="3.1411900">
        <ele>28.8</ele>
        <time>2021-07-25T10:38:25Z</time>
      </trkpt>
      <trkpt lat="39.9353380" lon="3.1409080">
        <ele>28.2</ele>
        <time>2021-07-25T10:38:29Z</time>
      </trkpt>
      <trkpt lat="39.9351940" lon="3.1407350">
        <ele>28.0</ele>
        <time>2021-07-25T10:38:31Z</time>
      </trkpt>
      <trkpt lat="39.9351360" lon="3.1406280">
        <ele>27.8</ele>
        <time>2021-07-25T10:38:32Z</time>
      </trkpt>
      <trkpt lat="39.9350870" lon="3.1405180">
        <ele>27.6</ele>
        <time>2021-07-25T10:38:33Z</time>
      </trkpt>
      <trkpt lat="39.9349650" lon="3.1401700">
        <ele>26.8</ele>
        <time>2021-07-25T10:38:36Z</time>
      </trkpt>
      <trkpt lat="39.9349250" lon="3.1400620">
        <ele>26.6</ele>
        <time>2021-07-25T10:38:37Z</time>
      </trkpt>
      <trkpt lat="39.9348090" lon="3.1397320">
        <ele>25.6</ele>
        <time>2021-07-25T10:38:40Z</time>
      </trkpt>
      <trkpt lat="39.9347230" lon="3.1395410">
        <ele>25.4</ele>
        <time>2021-07-25T10:38:42Z</time>
      </trkpt>
      <trkpt lat="39.9346160" lon="3.1393560">
        <ele>24.8</ele>
        <time>2021-07-25T10:38:44Z</time>
      </trkpt>
      <trkpt lat="39.9345670" lon="3.1392620">
        <ele>24.4</ele>
        <time>2021-07-25T10:38:45Z</time>
      </trkpt>
      <trkpt lat="39.9343710" lon="3.1388980">
        <ele>23.8</ele>
        <time>2021-07-25T10:38:49Z</time>
      </trkpt>
      <trkpt lat="39.9342610" lon="3.1386970">
        <ele>23.0</ele>
        <time>2021-07-25T10:38:51Z</time>
      </trkpt>
      <trkpt lat="39.9341350" lon="3.1384860">
        <ele>22.0</ele>
        <time>2021-07-25T10:38:53Z</time>
      </trkpt>
      <trkpt lat="39.9340670" lon="3.1383730">
        <ele>21.4</ele>
        <time>2021-07-25T10:38:54Z</time>
      </trkpt>
      <trkpt lat="39.9339950" lon="3.1382600">
        <ele>20.8</ele>
        <time>2021-07-25T10:38:55Z</time>
      </trkpt>
      <trkpt lat="39.9338540" lon="3.1380310">
        <ele>19.0</ele>
        <time>2021-07-25T10:38:57Z</time>
      </trkpt>
      <trkpt lat="39.9337080" lon="3.1377940">
        <ele>17.2</ele>
        <time>2021-07-25T10:38:59Z</time>
      </trkpt>
      <trkpt lat="39.9336360" lon="3.1376660">
        <ele>16.6</ele>
        <time>2021-07-25T10:39:00Z</time>
      </trkpt>
      <trkpt lat="39.9335680" lon="3.1375330">
        <ele>16.2</ele>
        <time>2021-07-25T10:39:01Z</time>
      </trkpt>
      <trkpt lat="39.9335100" lon="3.1373960">
        <ele>15.6</ele>
        <time>2021-07-25T10:39:02Z</time>
      </trkpt>
      <trkpt lat="39.9334690" lon="3.1372480">
        <ele>14.6</ele>
        <time>2021-07-25T10:39:03Z</time>
      </trkpt>
      <trkpt lat="39.9334550" lon="3.1369230">
        <ele>13.4</ele>
        <time>2021-07-25T10:39:05Z</time>
      </trkpt>
      <trkpt lat="39.9334540" lon="3.1367650">
        <ele>12.2</ele>
        <time>2021-07-25T10:39:06Z</time>
      </trkpt>
      <trkpt lat="39.9334490" lon="3.1366120">
        <ele>10.4</ele>
        <time>2021-07-25T10:39:07Z</time>
      </trkpt>
      <trkpt lat="39.9334440" lon="3.1364610">
        <ele>9.4</ele>
        <time>2021-07-25T10:39:08Z</time>
      </trkpt>
      <trkpt lat="39.9334230" lon="3.1361660">
        <ele>8.0</ele>
        <time>2021-07-25T10:39:10Z</time>
      </trkpt>
      <trkpt lat="39.9334000" lon="3.1360240">
        <ele>7.8</ele>
        <time>2021-07-25T10:39:11Z</time>
      </trkpt>
      <trkpt lat="39.9332370" lon="3.1356520">
        <ele>7.6</ele>
        <time>2021-07-25T10:39:14Z</time>
      </trkpt>
      <trkpt lat="39.9330550" lon="3.1354740">
        <ele>7.2</ele>
        <time>2021-07-25T10:39:16Z</time>
      </trkpt>
      <trkpt lat="39.9329540" lon="3.1354080">
        <ele>6.8</ele>
        <time>2021-07-25T10:39:17Z</time>
      </trkpt>
      <trkpt lat="39.9328450" lon="3.1353580">
        <ele>6.0</ele>
        <time>2021-07-25T10:39:18Z</time>
      </trkpt>
      <trkpt lat="39.9327370" lon="3.1353020">
        <ele>5.4</ele>
        <time>2021-07-25T10:39:19Z</time>
      </trkpt>
      <trkpt lat="39.9326270" lon="3.1352490">
        <ele>4.8</ele>
        <time>2021-07-25T10:39:20Z</time>
      </trkpt>
      <trkpt lat="39.9324090" lon="3.1351440">
        <ele>4.0</ele>
        <time>2021-07-25T10:39:22Z</time>
      </trkpt>
      <trkpt lat="39.9322920" lon="3.1351000">
        <ele>3.4</ele>
        <time>2021-07-25T10:39:23Z</time>
      </trkpt>
      <trkpt lat="39.9319510" lon="3.1349400">
        <ele>2.0</ele>
        <time>2021-07-25T10:39:26Z</time>
      </trkpt>
      <trkpt lat="39.9318400" lon="3.1348890">
        <ele>1.4</ele>
        <time>2021-07-25T10:39:27Z</time>
      </trkpt>
      <trkpt lat="39.9316130" lon="3.1347920">
        <ele>1.0</ele>
        <time>2021-07-25T10:39:29Z</time>
      </trkpt>
      <trkpt lat="39.9313910" lon="3.1346780">
        <ele>0.6</ele>
        <time>2021-07-25T10:39:31Z</time>
      </trkpt>
      <trkpt lat="39.9312870" lon="3.1346110">
        <ele>-0.4</ele>
        <time>2021-07-25T10:39:32Z</time>
      </trkpt>
      <trkpt lat="39.9310830" lon="3.1344720">
        <ele>-1.6</ele>
        <time>2021-07-25T10:39:34Z</time>
      </trkpt>
      <trkpt lat="39.9307870" lon="3.1342780">
        <ele>-2.6</ele>
        <time>2021-07-25T10:39:37Z</time>
      </trkpt>
      <trkpt lat="39.9303020" lon="3.1340280">
        <ele>-3.2</ele>
        <time>2021-07-25T10:39:42Z</time>
      </trkpt>
      <trkpt lat="39.9300210" lon="3.1339620">
        <ele>-4.0</ele>
        <time>2021-07-25T10:39:45Z</time>
      </trkpt>
      <trkpt lat="39.9299330" lon="3.1339490">
        <ele>-4.6</ele>
        <time>2021-07-25T10:39:46Z</time>
      </trkpt>
      <trkpt lat="39.9298530" lon="3.1339410">
        <ele>-5.4</ele>
        <time>2021-07-25T10:39:47Z</time>
      </trkpt>
      <trkpt lat="39.9297350" lon="3.1339210">
        <ele>-5.8</ele>
        <time>2021-07-25T10:39:49Z</time>
      </trkpt>
      <trkpt lat="39.9296160" lon="3.1338980">
        <ele>-6.0</ele>
        <time>2021-07-25T10:39:53Z</time>
      </trkpt>
      <trkpt lat="39.9295810" lon="3.1338750">
        <ele>-6.2</ele>
        <time>2021-07-25T10:39:55Z</time>
      </trkpt>
      <trkpt lat="39.9295750" lon="3.1338680">
        <ele>-6.4</ele>
        <time>2021-07-25T10:39:57Z</time>
      </trkpt>
      <trkpt lat="39.9295840" lon="3.1338800">
        <ele>-6.8</ele>
        <time>2021-07-25T10:40:33Z</time>
      </trkpt>
      <trkpt lat="39.9295840" lon="3.1338820">
        <ele>-6.8</ele>
        <time>2021-07-25T10:40:34Z</time>
      </trkpt>
      <trkpt lat="39.9295340" lon="3.1338810">
        <ele>-6.8</ele>
        <time>2021-07-25T10:40:39Z</time>
      </trkpt>
      <trkpt lat="39.9294830" lon="3.1338760">
        <ele>-6.8</ele>
        <time>2021-07-25T10:40:41Z</time>
      </trkpt>
      <trkpt lat="39.9293040" lon="3.1338070">
        <ele>-6.8</ele>
        <time>2021-07-25T10:40:46Z</time>
      </trkpt>
      <trkpt lat="39.9292660" lon="3.1337770">
        <ele>-6.8</ele>
        <time>2021-07-25T10:40:47Z</time>
      </trkpt>
      <trkpt lat="39.9291880" lon="3.1336460">
        <ele>-6.4</ele>
        <time>2021-07-25T10:40:50Z</time>
      </trkpt>
      <trkpt lat="39.9291730" lon="3.1334130">
        <ele>-6.4</ele>
        <time>2021-07-25T10:40:55Z</time>
      </trkpt>
      <trkpt lat="39.9292260" lon="3.1331610">
        <ele>-5.0</ele>
        <time>2021-07-25T10:41:01Z</time>
      </trkpt>
      <trkpt lat="39.9292390" lon="3.1331180">
        <ele>-4.8</ele>
        <time>2021-07-25T10:41:02Z</time>
      </trkpt>
      <trkpt lat="39.9292870" lon="3.1329700">
        <ele>-4.4</ele>
        <time>2021-07-25T10:41:06Z</time>
      </trkpt>
      <trkpt lat="39.9293380" lon="3.1327930">
        <ele>-3.8</ele>
        <time>2021-07-25T10:41:10Z</time>
      </trkpt>
      <trkpt lat="39.9293520" lon="3.1327480">
        <ele>-3.6</ele>
        <time>2021-07-25T10:41:11Z</time>
      </trkpt>
      <trkpt lat="39.9294040" lon="3.1324990">
        <ele>-2.6</ele>
        <time>2021-07-25T10:41:17Z</time>
      </trkpt>
      <trkpt lat="39.9294600" lon="3.1322520">
        <ele>-1.4</ele>
        <time>2021-07-25T10:41:23Z</time>
      </trkpt>
      <trkpt lat="39.9294700" lon="3.1322180">
        <ele>-1.2</ele>
        <time>2021-07-25T10:41:24Z</time>
      </trkpt>
      <trkpt lat="39.9295380" lon="3.1319820">
        <ele>-0.2</ele>
        <time>2021-07-25T10:41:30Z</time>
      </trkpt>
      <trkpt lat="39.9295900" lon="3.1317910">
        <ele>0.6</ele>
        <time>2021-07-25T10:41:35Z</time>
      </trkpt>
      <trkpt lat="39.9296100" lon="3.1317200">
        <ele>1.0</ele>
        <time>2021-07-25T10:41:37Z</time>
      </trkpt>
      <trkpt lat="39.9296330" lon="3.1315980">
        <ele>1.0</ele>
        <time>2021-07-25T10:41:40Z</time>
      </trkpt>
      <trkpt lat="39.9296890" lon="3.1313630">
        <ele>2.0</ele>
        <time>2021-07-25T10:41:46Z</time>
      </trkpt>
      <trkpt lat="39.9297400" lon="3.1311460">
        <ele>3.0</ele>
        <time>2021-07-25T10:41:51Z</time>
      </trkpt>
      <trkpt lat="39.9297500" lon="3.1311060">
        <ele>3.2</ele>
        <time>2021-07-25T10:41:52Z</time>
      </trkpt>
      <trkpt lat="39.9297920" lon="3.1309170">
        <ele>4.4</ele>
        <time>2021-07-25T10:41:57Z</time>
      </trkpt>
      <trkpt lat="39.9298030" lon="3.1308780">
        <ele>4.6</ele>
        <time>2021-07-25T10:41:58Z</time>
      </trkpt>
      <trkpt lat="39.9298540" lon="3.1306500">
        <ele>5.4</ele>
        <time>2021-07-25T10:42:04Z</time>
      </trkpt>
      <trkpt lat="39.9299070" lon="3.1304410">
        <ele>6.4</ele>
        <time>2021-07-25T10:42:10Z</time>
      </trkpt>
      <trkpt lat="39.9299200" lon="3.1304030">
        <ele>6.6</ele>
        <time>2021-07-25T10:42:11Z</time>
      </trkpt>
      <trkpt lat="39.9299950" lon="3.1303070">
        <ele>7.4</ele>
        <time>2021-07-25T10:42:15Z</time>
      </trkpt>
      <trkpt lat="39.9300200" lon="3.1302840">
        <ele>7.6</ele>
        <time>2021-07-25T10:42:16Z</time>
      </trkpt>
      <trkpt lat="39.9301490" lon="3.1301830">
        <ele>8.6</ele>
        <time>2021-07-25T10:42:21Z</time>
      </trkpt>
      <trkpt lat="39.9301750" lon="3.1301650">
        <ele>8.8</ele>
        <time>2021-07-25T10:42:22Z</time>
      </trkpt>
      <trkpt lat="39.9303110" lon="3.1300550">
        <ele>9.6</ele>
        <time>2021-07-25T10:42:27Z</time>
      </trkpt>
      <trkpt lat="39.9303640" lon="3.1300140">
        <ele>10.0</ele>
        <time>2021-07-25T10:42:29Z</time>
      </trkpt>
      <trkpt lat="39.9304970" lon="3.1299090">
        <ele>10.8</ele>
        <time>2021-07-25T10:42:34Z</time>
      </trkpt>
      <trkpt lat="39.9305790" lon="3.1298420">
        <ele>11.4</ele>
        <time>2021-07-25T10:42:37Z</time>
      </trkpt>
      <trkpt lat="39.9306840" lon="3.1297580">
        <ele>12.4</ele>
        <time>2021-07-25T10:42:41Z</time>
      </trkpt>
      <trkpt lat="39.9308130" lon="3.1296700">
        <ele>13.4</ele>
        <time>2021-07-25T10:42:46Z</time>
      </trkpt>
      <trkpt lat="39.9308390" lon="3.1296510">
        <ele>13.8</ele>
        <time>2021-07-25T10:42:47Z</time>
      </trkpt>
      <trkpt lat="39.9309320" lon="3.1295710">
        <ele>14.8</ele>
        <time>2021-07-25T10:42:51Z</time>
      </trkpt>
      <trkpt lat="39.9309550" lon="3.1295540">
        <ele>15.0</ele>
        <time>2021-07-25T10:42:52Z</time>
      </trkpt>
      <trkpt lat="39.9311060" lon="3.1294300">
        <ele>16.0</ele>
        <time>2021-07-25T10:42:59Z</time>
      </trkpt>
      <trkpt lat="39.9312550" lon="3.1293430">
        <ele>17.2</ele>
        <time>2021-07-25T10:43:05Z</time>
      </trkpt>
      <trkpt lat="39.9313950" lon="3.1293380">
        <ele>18.0</ele>
        <time>2021-07-25T10:43:10Z</time>
      </trkpt>
      <trkpt lat="39.9314200" lon="3.1293460">
        <ele>18.4</ele>
        <time>2021-07-25T10:43:11Z</time>
      </trkpt>
      <trkpt lat="39.9315160" lon="3.1293880">
        <ele>19.4</ele>
        <time>2021-07-25T10:43:15Z</time>
      </trkpt>
      <trkpt lat="39.9315430" lon="3.1294000">
        <ele>19.6</ele>
        <time>2021-07-25T10:43:16Z</time>
      </trkpt>
      <trkpt lat="39.9316290" lon="3.1294380">
        <ele>20.4</ele>
        <time>2021-07-25T10:43:19Z</time>
      </trkpt>
      <trkpt lat="39.9317010" lon="3.1294700">
        <ele>21.2</ele>
        <time>2021-07-25T10:43:22Z</time>
      </trkpt>
      <trkpt lat="39.9317480" lon="3.1294940">
        <ele>21.4</ele>
        <time>2021-07-25T10:43:24Z</time>
      </trkpt>
      <trkpt lat="39.9318320" lon="3.1295520">
        <ele>22.4</ele>
        <time>2021-07-25T10:43:28Z</time>
      </trkpt>
      <trkpt lat="39.9318470" lon="3.1295670">
        <ele>22.6</ele>
        <time>2021-07-25T10:43:29Z</time>
      </trkpt>
      <trkpt lat="39.9319430" lon="3.1296510">
        <ele>23.8</ele>
        <time>2021-07-25T10:43:34Z</time>
      </trkpt>
      <trkpt lat="39.9320500" lon="3.1297400">
        <ele>24.8</ele>
        <time>2021-07-25T10:43:38Z</time>
      </trkpt>
      <trkpt lat="39.9320970" lon="3.1297850">
        <ele>25.2</ele>
        <time>2021-07-25T10:43:40Z</time>
      </trkpt>
      <trkpt lat="39.9321660" lon="3.1298450">
        <ele>26.0</ele>
        <time>2021-07-25T10:43:43Z</time>
      </trkpt>
      <trkpt lat="39.9322600" lon="3.1299200">
        <ele>26.8</ele>
        <time>2021-07-25T10:43:47Z</time>
      </trkpt>
      <trkpt lat="39.9323040" lon="3.1299660">
        <ele>27.0</ele>
        <time>2021-07-25T10:43:49Z</time>
      </trkpt>
      <trkpt lat="39.9324020" lon="3.1300490">
        <ele>27.8</ele>
        <time>2021-07-25T10:43:53Z</time>
      </trkpt>
      <trkpt lat="39.9324260" lon="3.1300720">
        <ele>28.0</ele>
        <time>2021-07-25T10:43:54Z</time>
      </trkpt>
      <trkpt lat="39.9325030" lon="3.1301700">
        <ele>29.0</ele>
        <time>2021-07-25T10:43:58Z</time>
      </trkpt>
      <trkpt lat="39.9325370" lon="3.1302220">
        <ele>29.6</ele>
        <time>2021-07-25T10:44:00Z</time>
      </trkpt>
      <trkpt lat="39.9325860" lon="3.1302950">
        <ele>30.2</ele>
        <time>2021-07-25T10:44:03Z</time>
      </trkpt>
      <trkpt lat="39.9326150" lon="3.1303460">
        <ele>30.6</ele>
        <time>2021-07-25T10:44:05Z</time>
      </trkpt>
      <trkpt lat="39.9327020" lon="3.1304620">
        <ele>31.6</ele>
        <time>2021-07-25T10:44:10Z</time>
      </trkpt>
      <trkpt lat="39.9327810" lon="3.1305770">
        <ele>32.4</ele>
        <time>2021-07-25T10:44:15Z</time>
      </trkpt>
      <trkpt lat="39.9327980" lon="3.1305990">
        <ele>32.6</ele>
        <time>2021-07-25T10:44:16Z</time>
      </trkpt>
      <trkpt lat="39.9328930" lon="3.1307000">
        <ele>33.8</ele>
        <time>2021-07-25T10:44:21Z</time>
      </trkpt>
      <trkpt lat="39.9329850" lon="3.1307510">
        <ele>34.6</ele>
        <time>2021-07-25T10:44:25Z</time>
      </trkpt>
      <trkpt lat="39.9330100" lon="3.1307500">
        <ele>35.0</ele>
        <time>2021-07-25T10:44:26Z</time>
      </trkpt>
      <trkpt lat="39.9330940" lon="3.1306680">
        <ele>35.6</ele>
        <time>2021-07-25T10:44:30Z</time>
      </trkpt>
      <trkpt lat="39.9330640" lon="3.1305460">
        <ele>35.6</ele>
        <time>2021-07-25T10:44:34Z</time>
      </trkpt>
      <trkpt lat="39.9330000" lon="3.1304950">
        <ele>35.8</ele>
        <time>2021-07-25T10:44:37Z</time>
      </trkpt>
      <trkpt lat="39.9329660" lon="3.1304620">
        <ele>36.0</ele>
        <time>2021-07-25T10:44:39Z</time>
      </trkpt>
      <trkpt lat="39.9328950" lon="3.1303650">
        <ele>37.4</ele>
        <time>2021-07-25T10:44:43Z</time>
      </trkpt>
      <trkpt lat="39.9328700" lon="3.1303000">
        <ele>37.6</ele>
        <time>2021-07-25T10:44:45Z</time>
      </trkpt>
      <trkpt lat="39.9328370" lon="3.1301830">
        <ele>38.4</ele>
        <time>2021-07-25T10:44:48Z</time>
      </trkpt>
      <trkpt lat="39.9327930" lon="3.1300910">
        <ele>39.0</ele>
        <time>2021-07-25T10:44:51Z</time>
      </trkpt>
      <trkpt lat="39.9327660" lon="3.1300300">
        <ele>39.6</ele>
        <time>2021-07-25T10:44:53Z</time>
      </trkpt>
      <trkpt lat="39.9326970" lon="3.1298730">
        <ele>40.6</ele>
        <time>2021-07-25T10:44:58Z</time>
      </trkpt>
      <trkpt lat="39.9326040" lon="3.1296810">
        <ele>41.8</ele>
        <time>2021-07-25T10:45:04Z</time>
      </trkpt>
      <trkpt lat="39.9325890" lon="3.1296480">
        <ele>42.2</ele>
        <time>2021-07-25T10:45:05Z</time>
      </trkpt>
      <trkpt lat="39.9325160" lon="3.1294740">
        <ele>43.0</ele>
        <time>2021-07-25T10:45:10Z</time>
      </trkpt>
      <trkpt lat="39.9325010" lon="3.1294440">
        <ele>43.2</ele>
        <time>2021-07-25T10:45:11Z</time>
      </trkpt>
      <trkpt lat="39.9324270" lon="3.1293140">
        <ele>44.2</ele>
        <time>2021-07-25T10:45:16Z</time>
      </trkpt>
      <trkpt lat="39.9323750" lon="3.1292370">
        <ele>44.8</ele>
        <time>2021-07-25T10:45:19Z</time>
      </trkpt>
      <trkpt lat="39.9323430" lon="3.1291820">
        <ele>45.2</ele>
        <time>2021-07-25T10:45:21Z</time>
      </trkpt>
      <trkpt lat="39.9322920" lon="3.1290810">
        <ele>46.2</ele>
        <time>2021-07-25T10:45:25Z</time>
      </trkpt>
      <trkpt lat="39.9322760" lon="3.1290550">
        <ele>46.2</ele>
        <time>2021-07-25T10:45:26Z</time>
      </trkpt>
      <trkpt lat="39.9322060" lon="3.1289030">
        <ele>47.4</ele>
        <time>2021-07-25T10:45:31Z</time>
      </trkpt>
      <trkpt lat="39.9321970" lon="3.1288710">
        <ele>47.8</ele>
        <time>2021-07-25T10:45:32Z</time>
      </trkpt>
      <trkpt lat="39.9322030" lon="3.1286870">
        <ele>48.6</ele>
        <time>2021-07-25T10:45:37Z</time>
      </trkpt>
      <trkpt lat="39.9322110" lon="3.1286180">
        <ele>49.2</ele>
        <time>2021-07-25T10:45:39Z</time>
      </trkpt>
      <trkpt lat="39.9322210" lon="3.1285560">
        <ele>49.6</ele>
        <time>2021-07-25T10:45:41Z</time>
      </trkpt>
      <trkpt lat="39.9322380" lon="3.1284540">
        <ele>50.4</ele>
        <time>2021-07-25T10:45:44Z</time>
      </trkpt>
      <trkpt lat="39.9322470" lon="3.1283740">
        <ele>50.8</ele>
        <time>2021-07-25T10:45:46Z</time>
      </trkpt>
      <trkpt lat="39.9322660" lon="3.1282230">
        <ele>51.8</ele>
        <time>2021-07-25T10:45:50Z</time>
      </trkpt>
      <trkpt lat="39.9322690" lon="3.1281830">
        <ele>52.0</ele>
        <time>2021-07-25T10:45:51Z</time>
      </trkpt>
      <trkpt lat="39.9322970" lon="3.1280060">
        <ele>52.8</ele>
        <time>2021-07-25T10:45:56Z</time>
      </trkpt>
      <trkpt lat="39.9323040" lon="3.1279700">
        <ele>53.0</ele>
        <time>2021-07-25T10:45:57Z</time>
      </trkpt>
      <trkpt lat="39.9323560" lon="3.1277800">
        <ele>54.0</ele>
        <time>2021-07-25T10:46:02Z</time>
      </trkpt>
      <trkpt lat="39.9323710" lon="3.1277470">
        <ele>54.2</ele>
        <time>2021-07-25T10:46:03Z</time>
      </trkpt>
      <trkpt lat="39.9324550" lon="3.1275990">
        <ele>55.2</ele>
        <time>2021-07-25T10:46:08Z</time>
      </trkpt>
      <trkpt lat="39.9324890" lon="3.1275460">
        <ele>55.6</ele>
        <time>2021-07-25T10:46:10Z</time>
      </trkpt>
      <trkpt lat="39.9325390" lon="3.1274640">
        <ele>56.4</ele>
        <time>2021-07-25T10:46:13Z</time>
      </trkpt>
      <trkpt lat="39.9326190" lon="3.1273580">
        <ele>57.0</ele>
        <time>2021-07-25T10:46:17Z</time>
      </trkpt>
      <trkpt lat="39.9326800" lon="3.1272780">
        <ele>57.4</ele>
        <time>2021-07-25T10:46:20Z</time>
      </trkpt>
      <trkpt lat="39.9327430" lon="3.1272020">
        <ele>58.2</ele>
        <time>2021-07-25T10:46:23Z</time>
      </trkpt>
      <trkpt lat="39.9327810" lon="3.1271550">
        <ele>58.6</ele>
        <time>2021-07-25T10:46:25Z</time>
      </trkpt>
      <trkpt lat="39.9328620" lon="3.1270660">
        <ele>59.4</ele>
        <time>2021-07-25T10:46:29Z</time>
      </trkpt>
      <trkpt lat="39.9328800" lon="3.1270450">
        <ele>59.8</ele>
        <time>2021-07-25T10:46:30Z</time>
      </trkpt>
      <trkpt lat="39.9329800" lon="3.1269320">
        <ele>61.0</ele>
        <time>2021-07-25T10:46:35Z</time>
      </trkpt>
      <trkpt lat="39.9330000" lon="3.1269150">
        <ele>61.2</ele>
        <time>2021-07-25T10:46:36Z</time>
      </trkpt>
      <trkpt lat="39.9330970" lon="3.1268040">
        <ele>62.2</ele>
        <time>2021-07-25T10:46:41Z</time>
      </trkpt>
      <trkpt lat="39.9331670" lon="3.1266810">
        <ele>63.2</ele>
        <time>2021-07-25T10:46:45Z</time>
      </trkpt>
      <trkpt lat="39.9331860" lon="3.1266550">
        <ele>63.2</ele>
        <time>2021-07-25T10:46:46Z</time>
      </trkpt>
      <trkpt lat="39.9332040" lon="3.1266230">
        <ele>63.4</ele>
        <time>2021-07-25T10:46:47Z</time>
      </trkpt>
      <trkpt lat="39.9332690" lon="3.1264960">
        <ele>64.4</ele>
        <time>2021-07-25T10:46:51Z</time>
      </trkpt>
      <trkpt lat="39.9333040" lon="3.1264280">
        <ele>64.6</ele>
        <time>2021-07-25T10:46:53Z</time>
      </trkpt>
      <trkpt lat="39.9333820" lon="3.1262600">
        <ele>65.4</ele>
        <time>2021-07-25T10:46:58Z</time>
      </trkpt>
      <trkpt lat="39.9334360" lon="3.1261760">
        <ele>66.0</ele>
        <time>2021-07-25T10:47:01Z</time>
      </trkpt>
      <trkpt lat="39.9334650" lon="3.1261170">
        <ele>66.4</ele>
        <time>2021-07-25T10:47:03Z</time>
      </trkpt>
      <trkpt lat="39.9335150" lon="3.1259940">
        <ele>67.2</ele>
        <time>2021-07-25T10:47:07Z</time>
      </trkpt>
      <trkpt lat="39.9335280" lon="3.1259580">
        <ele>67.6</ele>
        <time>2021-07-25T10:47:08Z</time>
      </trkpt>
      <trkpt lat="39.9335670" lon="3.1258580">
        <ele>68.6</ele>
        <time>2021-07-25T10:47:11Z</time>
      </trkpt>
      <trkpt lat="39.9336200" lon="3.1257250">
        <ele>69.2</ele>
        <time>2021-07-25T10:47:15Z</time>
      </trkpt>
      <trkpt lat="39.9336350" lon="3.1256220">
        <ele>69.8</ele>
        <time>2021-07-25T10:47:18Z</time>
      </trkpt>
      <trkpt lat="39.9336320" lon="3.1255100">
        <ele>70.4</ele>
        <time>2021-07-25T10:47:21Z</time>
      </trkpt>
      <trkpt lat="39.9335320" lon="3.1253240">
        <ele>70.6</ele>
        <time>2021-07-25T10:47:26Z</time>
      </trkpt>
      <trkpt lat="39.9334180" lon="3.1252590">
        <ele>71.0</ele>
        <time>2021-07-25T10:47:30Z</time>
      </trkpt>
      <trkpt lat="39.9333580" lon="3.1252410">
        <ele>71.4</ele>
        <time>2021-07-25T10:47:32Z</time>
      </trkpt>
      <trkpt lat="39.9332310" lon="3.1252290">
        <ele>72.0</ele>
        <time>2021-07-25T10:47:36Z</time>
      </trkpt>
      <trkpt lat="39.9331720" lon="3.1252290">
        <ele>72.2</ele>
        <time>2021-07-25T10:47:38Z</time>
      </trkpt>
      <trkpt lat="39.9330840" lon="3.1252300">
        <ele>73.0</ele>
        <time>2021-07-25T10:47:41Z</time>
      </trkpt>
      <trkpt lat="39.9329750" lon="3.1252200">
        <ele>74.0</ele>
        <time>2021-07-25T10:47:45Z</time>
      </trkpt>
      <trkpt lat="39.9329490" lon="3.1252140">
        <ele>74.2</ele>
        <time>2021-07-25T10:47:46Z</time>
      </trkpt>
      <trkpt lat="39.9328720" lon="3.1252100">
        <ele>74.8</ele>
        <time>2021-07-25T10:47:49Z</time>
      </trkpt>
      <trkpt lat="39.9327970" lon="3.1251980">
        <ele>75.2</ele>
        <time>2021-07-25T10:47:52Z</time>
      </trkpt>
      <trkpt lat="39.9326630" lon="3.1251820">
        <ele>76.2</ele>
        <time>2021-07-25T10:47:57Z</time>
      </trkpt>
      <trkpt lat="39.9326070" lon="3.1251730">
        <ele>76.6</ele>
        <time>2021-07-25T10:47:59Z</time>
      </trkpt>
      <trkpt lat="39.9324960" lon="3.1251420">
        <ele>77.6</ele>
        <time>2021-07-25T10:48:03Z</time>
      </trkpt>
      <trkpt lat="39.9324150" lon="3.1251070">
        <ele>78.4</ele>
        <time>2021-07-25T10:48:06Z</time>
      </trkpt>
      <trkpt lat="39.9323890" lon="3.1250970">
        <ele>78.6</ele>
        <time>2021-07-25T10:48:07Z</time>
      </trkpt>
      <trkpt lat="39.9322830" lon="3.1250430">
        <ele>79.8</ele>
        <time>2021-07-25T10:48:11Z</time>
      </trkpt>
      <trkpt lat="39.9322590" lon="3.1250250">
        <ele>80.0</ele>
        <time>2021-07-25T10:48:12Z</time>
      </trkpt>
      <trkpt lat="39.9321780" lon="3.1249330">
        <ele>80.8</ele>
        <time>2021-07-25T10:48:16Z</time>
      </trkpt>
      <trkpt lat="39.9321630" lon="3.1249070">
        <ele>81.0</ele>
        <time>2021-07-25T10:48:17Z</time>
      </trkpt>
      <trkpt lat="39.9320920" lon="3.1247620">
        <ele>82.0</ele>
        <time>2021-07-25T10:48:22Z</time>
      </trkpt>
      <trkpt lat="39.9320790" lon="3.1247300">
        <ele>82.2</ele>
        <time>2021-07-25T10:48:23Z</time>
      </trkpt>
      <trkpt lat="39.9320250" lon="3.1245310">
        <ele>83.2</ele>
        <time>2021-07-25T10:48:29Z</time>
      </trkpt>
      <trkpt lat="39.9319910" lon="3.1243600">
        <ele>84.2</ele>
        <time>2021-07-25T10:48:34Z</time>
      </trkpt>
      <trkpt lat="39.9319790" lon="3.1242960">
        <ele>84.6</ele>
        <time>2021-07-25T10:48:36Z</time>
      </trkpt>
      <trkpt lat="39.9319570" lon="3.1242000">
        <ele>85.2</ele>
        <time>2021-07-25T10:48:39Z</time>
      </trkpt>
      <trkpt lat="39.9319350" lon="3.1240650">
        <ele>86.6</ele>
        <time>2021-07-25T10:48:43Z</time>
      </trkpt>
      <trkpt lat="39.9319270" lon="3.1240330">
        <ele>86.8</ele>
        <time>2021-07-25T10:48:44Z</time>
      </trkpt>
      <trkpt lat="39.9319100" lon="3.1239280">
        <ele>87.6</ele>
        <time>2021-07-25T10:48:47Z</time>
      </trkpt>
      <trkpt lat="39.9318880" lon="3.1238270">
        <ele>88.2</ele>
        <time>2021-07-25T10:48:50Z</time>
      </trkpt>
      <trkpt lat="39.9318600" lon="3.1236950">
        <ele>88.8</ele>
        <time>2021-07-25T10:48:54Z</time>
      </trkpt>
      <trkpt lat="39.9318440" lon="3.1235990">
        <ele>89.2</ele>
        <time>2021-07-25T10:48:57Z</time>
      </trkpt>
      <trkpt lat="39.9318290" lon="3.1235120">
        <ele>90.0</ele>
        <time>2021-07-25T10:49:00Z</time>
      </trkpt>
      <trkpt lat="39.9318220" lon="3.1234200">
        <ele>90.4</ele>
        <time>2021-07-25T10:49:03Z</time>
      </trkpt>
      <trkpt lat="39.9317930" lon="3.1232920">
        <ele>91.0</ele>
        <time>2021-07-25T10:49:07Z</time>
      </trkpt>
      <trkpt lat="39.9317640" lon="3.1232350">
        <ele>91.6</ele>
        <time>2021-07-25T10:49:09Z</time>
      </trkpt>
      <trkpt lat="39.9317190" lon="3.1231850">
        <ele>92.2</ele>
        <time>2021-07-25T10:49:11Z</time>
      </trkpt>
      <trkpt lat="39.9316260" lon="3.1230920">
        <ele>92.8</ele>
        <time>2021-07-25T10:49:15Z</time>
      </trkpt>
      <trkpt lat="39.9315690" lon="3.1230630">
        <ele>93.2</ele>
        <time>2021-07-25T10:49:17Z</time>
      </trkpt>
      <trkpt lat="39.9314700" lon="3.1230530">
        <ele>93.6</ele>
        <time>2021-07-25T10:49:20Z</time>
      </trkpt>
      <trkpt lat="39.9313650" lon="3.1230710">
        <ele>94.2</ele>
        <time>2021-07-25T10:49:24Z</time>
      </trkpt>
      <trkpt lat="39.9313390" lon="3.1230770">
        <ele>94.4</ele>
        <time>2021-07-25T10:49:25Z</time>
      </trkpt>
      <trkpt lat="39.9311550" lon="3.1231170">
        <ele>95.2</ele>
        <time>2021-07-25T10:49:32Z</time>
      </trkpt>
      <trkpt lat="39.9310960" lon="3.1231240">
        <ele>95.4</ele>
        <time>2021-07-25T10:49:34Z</time>
      </trkpt>
      <trkpt lat="39.9309440" lon="3.1230930">
        <ele>96.2</ele>
        <time>2021-07-25T10:49:39Z</time>
      </trkpt>
      <trkpt lat="39.9309150" lon="3.1230860">
        <ele>96.4</ele>
        <time>2021-07-25T10:49:40Z</time>
      </trkpt>
      <trkpt lat="39.9308710" lon="3.1230730">
        <ele>97.0</ele>
        <time>2021-07-25T10:49:42Z</time>
      </trkpt>
      <trkpt lat="39.9308250" lon="3.1230680">
        <ele>97.2</ele>
        <time>2021-07-25T10:49:44Z</time>
      </trkpt>
      <trkpt lat="39.9307780" lon="3.1230730">
        <ele>97.6</ele>
        <time>2021-07-25T10:49:46Z</time>
      </trkpt>
      <trkpt lat="39.9306900" lon="3.1231380">
        <ele>98.4</ele>
        <time>2021-07-25T10:49:50Z</time>
      </trkpt>
      <trkpt lat="39.9306520" lon="3.1232030">
        <ele>98.6</ele>
        <time>2021-07-25T10:49:52Z</time>
      </trkpt>
      <trkpt lat="39.9306210" lon="3.1233140">
        <ele>99.2</ele>
        <time>2021-07-25T10:49:55Z</time>
      </trkpt>
      <trkpt lat="39.9305380" lon="3.1235200">
        <ele>99.6</ele>
        <time>2021-07-25T10:50:01Z</time>
      </trkpt>
      <trkpt lat="39.9304860" lon="3.1236570">
        <ele>100.2</ele>
        <time>2021-07-25T10:50:05Z</time>
      </trkpt>
      <trkpt lat="39.9304710" lon="3.1237220">
        <ele>100.6</ele>
        <time>2021-07-25T10:50:07Z</time>
      </trkpt>
      <trkpt lat="39.9304170" lon="3.1239150">
        <ele>101.6</ele>
        <time>2021-07-25T10:50:13Z</time>
      </trkpt>
      <trkpt lat="39.9304050" lon="3.1239470">
        <ele>101.8</ele>
        <time>2021-07-25T10:50:14Z</time>
      </trkpt>
      <trkpt lat="39.9303580" lon="3.1240900">
        <ele>102.8</ele>
        <time>2021-07-25T10:50:18Z</time>
      </trkpt>
      <trkpt lat="39.9303490" lon="3.1241270">
        <ele>103.0</ele>
        <time>2021-07-25T10:50:19Z</time>
      </trkpt>
      <trkpt lat="39.9303350" lon="3.1242410">
        <ele>103.8</ele>
        <time>2021-07-25T10:50:22Z</time>
      </trkpt>
      <trkpt lat="39.9303330" lon="3.1243680">
        <ele>104.8</ele>
        <time>2021-07-25T10:50:25Z</time>
      </trkpt>
      <trkpt lat="39.9303470" lon="3.1244790">
        <ele>105.0</ele>
        <time>2021-07-25T10:50:28Z</time>
      </trkpt>
      <trkpt lat="39.9303610" lon="3.1245420">
        <ele>105.4</ele>
        <time>2021-07-25T10:50:30Z</time>
      </trkpt>
      <trkpt lat="39.9303500" lon="3.1246570">
        <ele>106.4</ele>
        <time>2021-07-25T10:50:34Z</time>
      </trkpt>
      <trkpt lat="39.9303200" lon="3.1246640">
        <ele>106.8</ele>
        <time>2021-07-25T10:50:35Z</time>
      </trkpt>
      <trkpt lat="39.9302600" lon="3.1246060">
        <ele>107.4</ele>
        <time>2021-07-25T10:50:38Z</time>
      </trkpt>
      <trkpt lat="39.9302510" lon="3.1245710">
        <ele>107.6</ele>
        <time>2021-07-25T10:50:39Z</time>
      </trkpt>
      <trkpt lat="39.9302420" lon="3.1244180">
        <ele>108.2</ele>
        <time>2021-07-25T10:50:43Z</time>
      </trkpt>
      <trkpt lat="39.9302350" lon="3.1243860">
        <ele>108.6</ele>
        <time>2021-07-25T10:50:44Z</time>
      </trkpt>
      <trkpt lat="39.9302210" lon="3.1242370">
        <ele>109.6</ele>
        <time>2021-07-25T10:50:48Z</time>
      </trkpt>
      <trkpt lat="39.9302360" lon="3.1241880">
        <ele>109.8</ele>
        <time>2021-07-25T10:50:49Z</time>
      </trkpt>
      <trkpt lat="39.9302410" lon="3.1240310">
        <ele>110.2</ele>
        <time>2021-07-25T10:50:53Z</time>
      </trkpt>
      <trkpt lat="39.9302180" lon="3.1239070">
        <ele>110.8</ele>
        <time>2021-07-25T10:50:57Z</time>
      </trkpt>
      <trkpt lat="39.9302100" lon="3.1238730">
        <ele>111.0</ele>
        <time>2021-07-25T10:50:58Z</time>
      </trkpt>
      <trkpt lat="39.9301770" lon="3.1236260">
        <ele>111.8</ele>
        <time>2021-07-25T10:51:04Z</time>
      </trkpt>
      <trkpt lat="39.9302060" lon="3.1234330">
        <ele>112.6</ele>
        <time>2021-07-25T10:51:08Z</time>
      </trkpt>
      <trkpt lat="39.9302170" lon="3.1233400">
        <ele>113.0</ele>
        <time>2021-07-25T10:51:10Z</time>
      </trkpt>
      <trkpt lat="39.9302280" lon="3.1231670">
        <ele>113.6</ele>
        <time>2021-07-25T10:51:14Z</time>
      </trkpt>
      <trkpt lat="39.9302410" lon="3.1230810">
        <ele>114.0</ele>
        <time>2021-07-25T10:51:16Z</time>
      </trkpt>
      <trkpt lat="39.9302780" lon="3.1228850">
        <ele>114.8</ele>
        <time>2021-07-25T10:51:21Z</time>
      </trkpt>
      <trkpt lat="39.9303090" lon="3.1228190">
        <ele>115.4</ele>
        <time>2021-07-25T10:51:23Z</time>
      </trkpt>
      <trkpt lat="39.9303640" lon="3.1227520">
        <ele>115.8</ele>
        <time>2021-07-25T10:51:25Z</time>
      </trkpt>
      <trkpt lat="39.9304660" lon="3.1226310">
        <ele>116.6</ele>
        <time>2021-07-25T10:51:29Z</time>
      </trkpt>
      <trkpt lat="39.9305130" lon="3.1225780">
        <ele>117.0</ele>
        <time>2021-07-25T10:51:31Z</time>
      </trkpt>
      <trkpt lat="39.9306080" lon="3.1224750">
        <ele>117.6</ele>
        <time>2021-07-25T10:51:35Z</time>
      </trkpt>
      <trkpt lat="39.9306830" lon="3.1223930">
        <ele>118.0</ele>
        <time>2021-07-25T10:51:38Z</time>
      </trkpt>
      <trkpt lat="39.9307860" lon="3.1223100">
        <ele>118.8</ele>
        <time>2021-07-25T10:51:42Z</time>
      </trkpt>
      <trkpt lat="39.9308390" lon="3.1222820">
        <ele>119.2</ele>
        <time>2021-07-25T10:51:44Z</time>
      </trkpt>
      <trkpt lat="39.9309170" lon="3.1222430">
        <ele>119.8</ele>
        <time>2021-07-25T10:51:47Z</time>
      </trkpt>
      <trkpt lat="39.9309850" lon="3.1222140">
        <ele>120.8</ele>
        <time>2021-07-25T10:51:50Z</time>
      </trkpt>
      <trkpt lat="39.9310060" lon="3.1221980">
        <ele>121.0</ele>
        <time>2021-07-25T10:51:51Z</time>
      </trkpt>
      <trkpt lat="39.9310690" lon="3.1221360">
        <ele>121.6</ele>
        <time>2021-07-25T10:51:54Z</time>
      </trkpt>
      <trkpt lat="39.9310940" lon="3.1220720">
        <ele>122.0</ele>
        <time>2021-07-25T10:51:56Z</time>
      </trkpt>
      <trkpt lat="39.9311010" lon="3.1220380">
        <ele>122.4</ele>
        <time>2021-07-25T10:51:57Z</time>
      </trkpt>
      <trkpt lat="39.9310760" lon="3.1219100">
        <ele>123.2</ele>
        <time>2021-07-25T10:52:01Z</time>
      </trkpt>
      <trkpt lat="39.9310620" lon="3.1218860">
        <ele>123.4</ele>
        <time>2021-07-25T10:52:02Z</time>
      </trkpt>
      <trkpt lat="39.9310290" lon="3.1218420">
        <ele>124.0</ele>
        <time>2021-07-25T10:52:04Z</time>
      </trkpt>
      <trkpt lat="39.9309940" lon="3.1218000">
        <ele>124.4</ele>
        <time>2021-07-25T10:52:06Z</time>
      </trkpt>
      <trkpt lat="39.9309370" lon="3.1217410">
        <ele>125.0</ele>
        <time>2021-07-25T10:52:09Z</time>
      </trkpt>
      <trkpt lat="39.9308980" lon="3.1217180">
        <ele>125.4</ele>
        <time>2021-07-25T10:52:11Z</time>
      </trkpt>
      <trkpt lat="39.9308020" lon="3.1216830">
        <ele>126.0</ele>
        <time>2021-07-25T10:52:15Z</time>
      </trkpt>
      <trkpt lat="39.9307280" lon="3.1216360">
        <ele>126.6</ele>
        <time>2021-07-25T10:52:18Z</time>
      </trkpt>
      <trkpt lat="39.9306780" lon="3.1215760">
        <ele>127.2</ele>
        <time>2021-07-25T10:52:21Z</time>
      </trkpt>
      <trkpt lat="39.9306450" lon="3.1214800">
        <ele>127.8</ele>
        <time>2021-07-25T10:52:24Z</time>
      </trkpt>
      <trkpt lat="39.9306320" lon="3.1214050">
        <ele>128.4</ele>
        <time>2021-07-25T10:52:26Z</time>
      </trkpt>
      <trkpt lat="39.9306140" lon="3.1212940">
        <ele>129.0</ele>
        <time>2021-07-25T10:52:29Z</time>
      </trkpt>
      <trkpt lat="39.9306230" lon="3.1212520">
        <ele>129.4</ele>
        <time>2021-07-25T10:52:30Z</time>
      </trkpt>
      <trkpt lat="39.9306340" lon="3.1212130">
        <ele>129.6</ele>
        <time>2021-07-25T10:52:31Z</time>
      </trkpt>
      <trkpt lat="39.9306700" lon="3.1211270">
        <ele>130.2</ele>
        <time>2021-07-25T10:52:34Z</time>
      </trkpt>
      <trkpt lat="39.9307030" lon="3.1210690">
        <ele>130.8</ele>
        <time>2021-07-25T10:52:36Z</time>
      </trkpt>
      <trkpt lat="39.9307270" lon="3.1210120">
        <ele>131.4</ele>
        <time>2021-07-25T10:52:38Z</time>
      </trkpt>
      <trkpt lat="39.9307400" lon="3.1209070">
        <ele>132.0</ele>
        <time>2021-07-25T10:52:41Z</time>
      </trkpt>
      <trkpt lat="39.9307420" lon="3.1208340">
        <ele>132.8</ele>
        <time>2021-07-25T10:52:43Z</time>
      </trkpt>
      <trkpt lat="39.9307260" lon="3.1206590">
        <ele>133.8</ele>
        <time>2021-07-25T10:52:48Z</time>
      </trkpt>
      <trkpt lat="39.9306940" lon="3.1205280">
        <ele>135.0</ele>
        <time>2021-07-25T10:52:52Z</time>
      </trkpt>
      <trkpt lat="39.9306780" lon="3.1204990">
        <ele>135.2</ele>
        <time>2021-07-25T10:52:53Z</time>
      </trkpt>
      <trkpt lat="39.9306260" lon="3.1203670">
        <ele>136.2</ele>
        <time>2021-07-25T10:52:57Z</time>
      </trkpt>
      <trkpt lat="39.9306100" lon="3.1203260">
        <ele>136.4</ele>
        <time>2021-07-25T10:52:58Z</time>
      </trkpt>
      <trkpt lat="39.9306080" lon="3.1202480">
        <ele>137.2</ele>
        <time>2021-07-25T10:53:00Z</time>
      </trkpt>
      <trkpt lat="39.9305890" lon="3.1201510">
        <ele>138.0</ele>
        <time>2021-07-25T10:53:03Z</time>
      </trkpt>
      <trkpt lat="39.9305860" lon="3.1200910">
        <ele>138.4</ele>
        <time>2021-07-25T10:53:05Z</time>
      </trkpt>
      <trkpt lat="39.9305750" lon="3.1199390">
        <ele>139.6</ele>
        <time>2021-07-25T10:53:10Z</time>
      </trkpt>
      <trkpt lat="39.9304730" lon="3.1197190">
        <ele>140.2</ele>
        <time>2021-07-25T10:53:16Z</time>
      </trkpt>
      <trkpt lat="39.9304280" lon="3.1195430">
        <ele>140.6</ele>
        <time>2021-07-25T10:53:20Z</time>
      </trkpt>
      <trkpt lat="39.9304260" lon="3.1194870">
        <ele>140.8</ele>
        <time>2021-07-25T10:53:21Z</time>
      </trkpt>
      <trkpt lat="39.9303800" lon="3.1192480">
        <ele>140.8</ele>
        <time>2021-07-25T10:53:26Z</time>
      </trkpt>
      <trkpt lat="39.9303670" lon="3.1189480">
        <ele>140.8</ele>
        <time>2021-07-25T10:53:32Z</time>
      </trkpt>
      <trkpt lat="39.9303550" lon="3.1188350">
        <ele>141.0</ele>
        <time>2021-07-25T10:53:34Z</time>
      </trkpt>
      <trkpt lat="39.9303480" lon="3.1186490">
        <ele>141.2</ele>
        <time>2021-07-25T10:53:37Z</time>
      </trkpt>
      <trkpt lat="39.9303530" lon="3.1184560">
        <ele>141.2</ele>
        <time>2021-07-25T10:53:40Z</time>
      </trkpt>
      <trkpt lat="39.9303480" lon="3.1183410">
        <ele>141.6</ele>
        <time>2021-07-25T10:53:42Z</time>
      </trkpt>
      <trkpt lat="39.9303650" lon="3.1182750">
        <ele>141.6</ele>
        <time>2021-07-25T10:53:43Z</time>
      </trkpt>
      <trkpt lat="39.9304450" lon="3.1180770">
        <ele>141.8</ele>
        <time>2021-07-25T10:53:46Z</time>
      </trkpt>
      <trkpt lat="39.9305150" lon="3.1178850">
        <ele>141.8</ele>
        <time>2021-07-25T10:53:49Z</time>
      </trkpt>
      <trkpt lat="39.9305790" lon="3.1176720">
        <ele>141.6</ele>
        <time>2021-07-25T10:53:52Z</time>
      </trkpt>
      <trkpt lat="39.9305900" lon="3.1175340">
        <ele>141.4</ele>
        <time>2021-07-25T10:53:54Z</time>
      </trkpt>
      <trkpt lat="39.9306080" lon="3.1173920">
        <ele>141.2</ele>
        <time>2021-07-25T10:53:56Z</time>
      </trkpt>
      <trkpt lat="39.9306210" lon="3.1173180">
        <ele>141.2</ele>
        <time>2021-07-25T10:53:57Z</time>
      </trkpt>
      <trkpt lat="39.9306520" lon="3.1168900">
        <ele>141.6</ele>
        <time>2021-07-25T10:54:03Z</time>
      </trkpt>
      <trkpt lat="39.9305920" lon="3.1167170">
        <ele>141.8</ele>
        <time>2021-07-25T10:54:06Z</time>
      </trkpt>
      <trkpt lat="39.9305690" lon="3.1166540">
        <ele>141.8</ele>
        <time>2021-07-25T10:54:07Z</time>
      </trkpt>
      <trkpt lat="39.9305470" lon="3.1165280">
        <ele>142.2</ele>
        <time>2021-07-25T10:54:09Z</time>
      </trkpt>
      <trkpt lat="39.9305370" lon="3.1164130">
        <ele>142.8</ele>
        <time>2021-07-25T10:54:11Z</time>
      </trkpt>
      <trkpt lat="39.9305260" lon="3.1163600">
        <ele>142.8</ele>
        <time>2021-07-25T10:54:12Z</time>
      </trkpt>
      <trkpt lat="39.9304420" lon="3.1161290">
        <ele>143.8</ele>
        <time>2021-07-25T10:54:17Z</time>
      </trkpt>
      <trkpt lat="39.9304490" lon="3.1160800">
        <ele>144.0</ele>
        <time>2021-07-25T10:54:18Z</time>
      </trkpt>
      <trkpt lat="39.9304330" lon="3.1159370">
        <ele>144.6</ele>
        <time>2021-07-25T10:54:21Z</time>
      </trkpt>
      <trkpt lat="39.9304710" lon="3.1158220">
        <ele>145.2</ele>
        <time>2021-07-25T10:54:23Z</time>
      </trkpt>
      <trkpt lat="39.9304930" lon="3.1157270">
        <ele>145.8</ele>
        <time>2021-07-25T10:54:25Z</time>
      </trkpt>
      <trkpt lat="39.9304830" lon="3.1156500">
        <ele>146.4</ele>
        <time>2021-07-25T10:54:27Z</time>
      </trkpt>
      <trkpt lat="39.9304520" lon="3.1155320">
        <ele>147.4</ele>
        <time>2021-07-25T10:54:30Z</time>
      </trkpt>
      <trkpt lat="39.9304450" lon="3.1154880">
        <ele>147.8</ele>
        <time>2021-07-25T10:54:31Z</time>
      </trkpt>
      <trkpt lat="39.9303870" lon="3.1152840">
        <ele>148.6</ele>
        <time>2021-07-25T10:54:36Z</time>
      </trkpt>
      <trkpt lat="39.9303780" lon="3.1152430">
        <ele>148.8</ele>
        <time>2021-07-25T10:54:37Z</time>
      </trkpt>
      <trkpt lat="39.9303330" lon="3.1151320">
        <ele>150.0</ele>
        <time>2021-07-25T10:54:40Z</time>
      </trkpt>
      <trkpt lat="39.9303120" lon="3.1150970">
        <ele>150.4</ele>
        <time>2021-07-25T10:54:41Z</time>
      </trkpt>
      <trkpt lat="39.9302550" lon="3.1150140">
        <ele>151.2</ele>
        <time>2021-07-25T10:54:44Z</time>
      </trkpt>
      <trkpt lat="39.9301960" lon="3.1149570">
        <ele>151.4</ele>
        <time>2021-07-25T10:54:46Z</time>
      </trkpt>
      <trkpt lat="39.9301210" lon="3.1148650">
        <ele>152.2</ele>
        <time>2021-07-25T10:54:49Z</time>
      </trkpt>
      <trkpt lat="39.9300340" lon="3.1147950">
        <ele>153.2</ele>
        <time>2021-07-25T10:54:52Z</time>
      </trkpt>
      <trkpt lat="39.9298940" lon="3.1146770">
        <ele>154.2</ele>
        <time>2021-07-25T10:54:57Z</time>
      </trkpt>
      <trkpt lat="39.9297910" lon="3.1146040">
        <ele>155.2</ele>
        <time>2021-07-25T10:55:01Z</time>
      </trkpt>
      <trkpt lat="39.9297670" lon="3.1145820">
        <ele>155.6</ele>
        <time>2021-07-25T10:55:02Z</time>
      </trkpt>
      <trkpt lat="39.9296830" lon="3.1145080">
        <ele>156.4</ele>
        <time>2021-07-25T10:55:05Z</time>
      </trkpt>
      <trkpt lat="39.9296240" lon="3.1144430">
        <ele>156.6</ele>
        <time>2021-07-25T10:55:07Z</time>
      </trkpt>
      <trkpt lat="39.9295840" lon="3.1142590">
        <ele>157.2</ele>
        <time>2021-07-25T10:55:12Z</time>
      </trkpt>
      <trkpt lat="39.9295750" lon="3.1141910">
        <ele>157.4</ele>
        <time>2021-07-25T10:55:14Z</time>
      </trkpt>
      <trkpt lat="39.9295370" lon="3.1140260">
        <ele>158.4</ele>
        <time>2021-07-25T10:55:18Z</time>
      </trkpt>
      <trkpt lat="39.9295090" lon="3.1139510">
        <ele>158.6</ele>
        <time>2021-07-25T10:55:20Z</time>
      </trkpt>
      <trkpt lat="39.9294680" lon="3.1138020">
        <ele>159.4</ele>
        <time>2021-07-25T10:55:24Z</time>
      </trkpt>
      <trkpt lat="39.9294570" lon="3.1136740">
        <ele>159.8</ele>
        <time>2021-07-25T10:55:27Z</time>
      </trkpt>
      <trkpt lat="39.9294410" lon="3.1135160">
        <ele>160.8</ele>
        <time>2021-07-25T10:55:31Z</time>
      </trkpt>
      <trkpt lat="39.9294180" lon="3.1134890">
        <ele>161.0</ele>
        <time>2021-07-25T10:55:32Z</time>
      </trkpt>
      <trkpt lat="39.9294190" lon="3.1133910">
        <ele>162.0</ele>
        <time>2021-07-25T10:55:35Z</time>
      </trkpt>
      <trkpt lat="39.9294240" lon="3.1133610">
        <ele>162.2</ele>
        <time>2021-07-25T10:55:36Z</time>
      </trkpt>
      <trkpt lat="39.9294350" lon="3.1132190">
        <ele>163.0</ele>
        <time>2021-07-25T10:55:40Z</time>
      </trkpt>
      <trkpt lat="39.9294020" lon="3.1131640">
        <ele>163.4</ele>
        <time>2021-07-25T10:55:42Z</time>
      </trkpt>
      <trkpt lat="39.9293790" lon="3.1130270">
        <ele>164.0</ele>
        <time>2021-07-25T10:55:46Z</time>
      </trkpt>
      <trkpt lat="39.9293900" lon="3.1129490">
        <ele>164.4</ele>
        <time>2021-07-25T10:55:48Z</time>
      </trkpt>
      <trkpt lat="39.9293970" lon="3.1128200">
        <ele>165.0</ele>
        <time>2021-07-25T10:55:51Z</time>
      </trkpt>
      <trkpt lat="39.9294020" lon="3.1126740">
        <ele>165.6</ele>
        <time>2021-07-25T10:55:54Z</time>
      </trkpt>
      <trkpt lat="39.9294030" lon="3.1125770">
        <ele>166.0</ele>
        <time>2021-07-25T10:55:56Z</time>
      </trkpt>
      <trkpt lat="39.9293950" lon="3.1124940">
        <ele>166.6</ele>
        <time>2021-07-25T10:55:58Z</time>
      </trkpt>
      <trkpt lat="39.9293720" lon="3.1122960">
        <ele>167.6</ele>
        <time>2021-07-25T10:56:03Z</time>
      </trkpt>
      <trkpt lat="39.9293700" lon="3.1122600">
        <ele>168.0</ele>
        <time>2021-07-25T10:56:04Z</time>
      </trkpt>
      <trkpt lat="39.9293560" lon="3.1121530">
        <ele>168.6</ele>
        <time>2021-07-25T10:56:08Z</time>
      </trkpt>
      <trkpt lat="39.9293430" lon="3.1120610">
        <ele>169.2</ele>
        <time>2021-07-25T10:56:11Z</time>
      </trkpt>
      <trkpt lat="39.9293090" lon="3.1118530">
        <ele>170.2</ele>
        <time>2021-07-25T10:56:17Z</time>
      </trkpt>
      <trkpt lat="39.9292940" lon="3.1118140">
        <ele>170.4</ele>
        <time>2021-07-25T10:56:18Z</time>
      </trkpt>
      <trkpt lat="39.9292110" lon="3.1117420">
        <ele>171.8</ele>
        <time>2021-07-25T10:56:21Z</time>
      </trkpt>
      <trkpt lat="39.9291750" lon="3.1117390">
        <ele>172.0</ele>
        <time>2021-07-25T10:56:22Z</time>
      </trkpt>
      <trkpt lat="39.9291120" lon="3.1117720">
        <ele>172.6</ele>
        <time>2021-07-25T10:56:24Z</time>
      </trkpt>
      <trkpt lat="39.9290840" lon="3.1118130">
        <ele>172.8</ele>
        <time>2021-07-25T10:56:25Z</time>
      </trkpt>
      <trkpt lat="39.9290550" lon="3.1119170">
        <ele>173.0</ele>
        <time>2021-07-25T10:56:27Z</time>
      </trkpt>
      <trkpt lat="39.9290450" lon="3.1119780">
        <ele>173.0</ele>
        <time>2021-07-25T10:56:28Z</time>
      </trkpt>
      <trkpt lat="39.9290440" lon="3.1120410">
        <ele>173.0</ele>
        <time>2021-07-25T10:56:29Z</time>
      </trkpt>
      <trkpt lat="39.9290590" lon="3.1122380">
        <ele>173.4</ele>
        <time>2021-07-25T10:56:32Z</time>
      </trkpt>
      <trkpt lat="39.9290610" lon="3.1123720">
        <ele>173.6</ele>
        <time>2021-07-25T10:56:34Z</time>
      </trkpt>
      <trkpt lat="39.9290750" lon="3.1125020">
        <ele>174.0</ele>
        <time>2021-07-25T10:56:36Z</time>
      </trkpt>
      <trkpt lat="39.9290860" lon="3.1125650">
        <ele>174.2</ele>
        <time>2021-07-25T10:56:37Z</time>
      </trkpt>
      <trkpt lat="39.9291630" lon="3.1128920">
        <ele>174.8</ele>
        <time>2021-07-25T10:56:43Z</time>
      </trkpt>
      <trkpt lat="39.9291780" lon="3.1129740">
        <ele>175.0</ele>
        <time>2021-07-25T10:56:45Z</time>
      </trkpt>
      <trkpt lat="39.9291670" lon="3.1130090">
        <ele>175.2</ele>
        <time>2021-07-25T10:56:46Z</time>
      </trkpt>
      <trkpt lat="39.9291410" lon="3.1130120">
        <ele>175.8</ele>
        <time>2021-07-25T10:56:47Z</time>
      </trkpt>
      <trkpt lat="39.9291140" lon="3.1129500">
        <ele>176.4</ele>
        <time>2021-07-25T10:56:49Z</time>
      </trkpt>
      <trkpt lat="39.9290980" lon="3.1129030">
        <ele>176.8</ele>
        <time>2021-07-25T10:56:50Z</time>
      </trkpt>
      <trkpt lat="39.9290790" lon="3.1128550">
        <ele>177.0</ele>
        <time>2021-07-25T10:56:51Z</time>
      </trkpt>
      <trkpt lat="39.9290640" lon="3.1128020">
        <ele>177.6</ele>
        <time>2021-07-25T10:56:52Z</time>
      </trkpt>
      <trkpt lat="39.9290250" lon="3.1125990">
        <ele>178.8</ele>
        <time>2021-07-25T10:56:56Z</time>
      </trkpt>
      <trkpt lat="39.9289950" lon="3.1123790">
        <ele>179.8</ele>
        <time>2021-07-25T10:57:00Z</time>
      </trkpt>
      <trkpt lat="39.9289640" lon="3.1122330">
        <ele>180.6</ele>
        <time>2021-07-25T10:57:03Z</time>
      </trkpt>
      <trkpt lat="39.9289550" lon="3.1121850">
        <ele>181.0</ele>
        <time>2021-07-25T10:57:04Z</time>
      </trkpt>
      <trkpt lat="39.9289230" lon="3.1120350">
        <ele>182.0</ele>
        <time>2021-07-25T10:57:07Z</time>
      </trkpt>
      <trkpt lat="39.9288890" lon="3.1118920">
        <ele>183.2</ele>
        <time>2021-07-25T10:57:10Z</time>
      </trkpt>
      <trkpt lat="39.9288770" lon="3.1118440">
        <ele>183.6</ele>
        <time>2021-07-25T10:57:11Z</time>
      </trkpt>
      <trkpt lat="39.9288530" lon="3.1117490">
        <ele>184.4</ele>
        <time>2021-07-25T10:57:13Z</time>
      </trkpt>
      <trkpt lat="39.9288080" lon="3.1116140">
        <ele>185.6</ele>
        <time>2021-07-25T10:57:16Z</time>
      </trkpt>
      <trkpt lat="39.9287780" lon="3.1115210">
        <ele>185.8</ele>
        <time>2021-07-25T10:57:18Z</time>
      </trkpt>
      <trkpt lat="39.9287550" lon="3.1114200">
        <ele>186.6</ele>
        <time>2021-07-25T10:57:20Z</time>
      </trkpt>
      <trkpt lat="39.9287300" lon="3.1113190">
        <ele>187.4</ele>
        <time>2021-07-25T10:57:22Z</time>
      </trkpt>
      <trkpt lat="39.9287280" lon="3.1112640">
        <ele>187.6</ele>
        <time>2021-07-25T10:57:23Z</time>
      </trkpt>
      <trkpt lat="39.9287980" lon="3.1110560">
        <ele>188.8</ele>
        <time>2021-07-25T10:57:27Z</time>
      </trkpt>
      <trkpt lat="39.9288960" lon="3.1108730">
        <ele>190.2</ele>
        <time>2021-07-25T10:57:31Z</time>
      </trkpt>
      <trkpt lat="39.9289310" lon="3.1107900">
        <ele>191.0</ele>
        <time>2021-07-25T10:57:33Z</time>
      </trkpt>
      <trkpt lat="39.9289470" lon="3.1107510">
        <ele>191.0</ele>
        <time>2021-07-25T10:57:34Z</time>
      </trkpt>
      <trkpt lat="39.9288510" lon="3.1105350">
        <ele>190.8</ele>
        <time>2021-07-25T10:58:42Z</time>
      </trkpt>
      <trkpt lat="39.9288400" lon="3.1105120">
        <ele>190.8</ele>
        <time>2021-07-25T10:58:43Z</time>
      </trkpt>
      <trkpt lat="39.9287090" lon="3.1103100">
        <ele>190.0</ele>
        <time>2021-07-25T10:58:47Z</time>
      </trkpt>
      <trkpt lat="39.9285570" lon="3.1100650">
        <ele>189.6</ele>
        <time>2021-07-25T10:58:51Z</time>
      </trkpt>
      <trkpt lat="39.9284450" lon="3.1100070">
        <ele>189.0</ele>
        <time>2021-07-25T10:58:53Z</time>
      </trkpt>
      <trkpt lat="39.9283790" lon="3.1099940">
        <ele>188.6</ele>
        <time>2021-07-25T10:58:54Z</time>
      </trkpt>
      <trkpt lat="39.9283080" lon="3.1099860">
        <ele>188.0</ele>
        <time>2021-07-25T10:58:55Z</time>
      </trkpt>
      <trkpt lat="39.9281530" lon="3.1099720">
        <ele>186.8</ele>
        <time>2021-07-25T10:58:57Z</time>
      </trkpt>
      <trkpt lat="39.9279890" lon="3.1099420">
        <ele>185.6</ele>
        <time>2021-07-25T10:58:59Z</time>
      </trkpt>
      <trkpt lat="39.9278210" lon="3.1098730">
        <ele>184.2</ele>
        <time>2021-07-25T10:59:01Z</time>
      </trkpt>
      <trkpt lat="39.9276390" lon="3.1097970">
        <ele>183.0</ele>
        <time>2021-07-25T10:59:03Z</time>
      </trkpt>
      <trkpt lat="39.9275420" lon="3.1097550">
        <ele>182.4</ele>
        <time>2021-07-25T10:59:04Z</time>
      </trkpt>
      <trkpt lat="39.9273460" lon="3.1096680">
        <ele>181.2</ele>
        <time>2021-07-25T10:59:06Z</time>
      </trkpt>
      <trkpt lat="39.9272550" lon="3.1096350">
        <ele>180.4</ele>
        <time>2021-07-25T10:59:07Z</time>
      </trkpt>
      <trkpt lat="39.9271600" lon="3.1096260">
        <ele>179.2</ele>
        <time>2021-07-25T10:59:08Z</time>
      </trkpt>
      <trkpt lat="39.9269750" lon="3.1096960">
        <ele>177.8</ele>
        <time>2021-07-25T10:59:10Z</time>
      </trkpt>
      <trkpt lat="39.9268860" lon="3.1097220">
        <ele>177.4</ele>
        <time>2021-07-25T10:59:11Z</time>
      </trkpt>
      <trkpt lat="39.9267210" lon="3.1096500">
        <ele>176.2</ele>
        <time>2021-07-25T10:59:13Z</time>
      </trkpt>
      <trkpt lat="39.9265770" lon="3.1094820">
        <ele>174.8</ele>
        <time>2021-07-25T10:59:15Z</time>
      </trkpt>
      <trkpt lat="39.9264920" lon="3.1094110">
        <ele>173.6</ele>
        <time>2021-07-25T10:59:16Z</time>
      </trkpt>
      <trkpt lat="39.9262860" lon="3.1093340">
        <ele>172.2</ele>
        <time>2021-07-25T10:59:18Z</time>
      </trkpt>
      <trkpt lat="39.9261730" lon="3.1093310">
        <ele>171.0</ele>
        <time>2021-07-25T10:59:19Z</time>
      </trkpt>
      <trkpt lat="39.9259460" lon="3.1093290">
        <ele>169.4</ele>
        <time>2021-07-25T10:59:21Z</time>
      </trkpt>
      <trkpt lat="39.9257580" lon="3.1091690">
        <ele>167.8</ele>
        <time>2021-07-25T10:59:23Z</time>
      </trkpt>
      <trkpt lat="39.9256940" lon="3.1090390">
        <ele>166.6</ele>
        <time>2021-07-25T10:59:24Z</time>
      </trkpt>
      <trkpt lat="39.9256390" lon="3.1089020">
        <ele>165.4</ele>
        <time>2021-07-25T10:59:25Z</time>
      </trkpt>
      <trkpt lat="39.9255800" lon="3.1087750">
        <ele>164.6</ele>
        <time>2021-07-25T10:59:26Z</time>
      </trkpt>
      <trkpt lat="39.9255170" lon="3.1086670">
        <ele>163.8</ele>
        <time>2021-07-25T10:59:27Z</time>
      </trkpt>
      <trkpt lat="39.9253700" lon="3.1084970">
        <ele>162.0</ele>
        <time>2021-07-25T10:59:29Z</time>
      </trkpt>
      <trkpt lat="39.9251610" lon="3.1084690">
        <ele>160.8</ele>
        <time>2021-07-25T10:59:31Z</time>
      </trkpt>
      <trkpt lat="39.9249370" lon="3.1084420">
        <ele>159.4</ele>
        <time>2021-07-25T10:59:33Z</time>
      </trkpt>
      <trkpt lat="39.9248370" lon="3.1083590">
        <ele>158.4</ele>
        <time>2021-07-25T10:59:34Z</time>
      </trkpt>
      <trkpt lat="39.9247040" lon="3.1080970">
        <ele>157.2</ele>
        <time>2021-07-25T10:59:36Z</time>
      </trkpt>
      <trkpt lat="39.9246540" lon="3.1079550">
        <ele>156.6</ele>
        <time>2021-07-25T10:59:37Z</time>
      </trkpt>
      <trkpt lat="39.9246070" lon="3.1078210">
        <ele>155.8</ele>
        <time>2021-07-25T10:59:38Z</time>
      </trkpt>
      <trkpt lat="39.9245590" lon="3.1076970">
        <ele>154.6</ele>
        <time>2021-07-25T10:59:39Z</time>
      </trkpt>
      <trkpt lat="39.9245020" lon="3.1075930">
        <ele>153.4</ele>
        <time>2021-07-25T10:59:40Z</time>
      </trkpt>
      <trkpt lat="39.9243480" lon="3.1074620">
        <ele>152.2</ele>
        <time>2021-07-25T10:59:42Z</time>
      </trkpt>
      <trkpt lat="39.9241510" lon="3.1074830">
        <ele>152.0</ele>
        <time>2021-07-25T10:59:44Z</time>
      </trkpt>
      <trkpt lat="39.9239410" lon="3.1075990">
        <ele>150.4</ele>
        <time>2021-07-25T10:59:46Z</time>
      </trkpt>
      <trkpt lat="39.9238290" lon="3.1076600">
        <ele>149.0</ele>
        <time>2021-07-25T10:59:47Z</time>
      </trkpt>
      <trkpt lat="39.9237140" lon="3.1077140">
        <ele>147.6</ele>
        <time>2021-07-25T10:59:48Z</time>
      </trkpt>
      <trkpt lat="39.9235970" lon="3.1077540">
        <ele>146.8</ele>
        <time>2021-07-25T10:59:49Z</time>
      </trkpt>
      <trkpt lat="39.9234790" lon="3.1077740">
        <ele>146.2</ele>
        <time>2021-07-25T10:59:50Z</time>
      </trkpt>
      <trkpt lat="39.9233590" lon="3.1077690">
        <ele>145.8</ele>
        <time>2021-07-25T10:59:51Z</time>
      </trkpt>
      <trkpt lat="39.9232390" lon="3.1077440">
        <ele>145.0</ele>
        <time>2021-07-25T10:59:52Z</time>
      </trkpt>
      <trkpt lat="39.9231210" lon="3.1077140">
        <ele>144.2</ele>
        <time>2021-07-25T10:59:53Z</time>
      </trkpt>
      <trkpt lat="39.9230010" lon="3.1076860">
        <ele>143.2</ele>
        <time>2021-07-25T10:59:54Z</time>
      </trkpt>
      <trkpt lat="39.9228840" lon="3.1076560">
        <ele>142.6</ele>
        <time>2021-07-25T10:59:55Z</time>
      </trkpt>
      <trkpt lat="39.9227680" lon="3.1076120">
        <ele>141.6</ele>
        <time>2021-07-25T10:59:56Z</time>
      </trkpt>
      <trkpt lat="39.9226530" lon="3.1075580">
        <ele>140.2</ele>
        <time>2021-07-25T10:59:57Z</time>
      </trkpt>
      <trkpt lat="39.9225390" lon="3.1074970">
        <ele>139.2</ele>
        <time>2021-07-25T10:59:58Z</time>
      </trkpt>
      <trkpt lat="39.9224260" lon="3.1074360">
        <ele>138.4</ele>
        <time>2021-07-25T10:59:59Z</time>
      </trkpt>
      <trkpt lat="39.9223090" lon="3.1073800">
        <ele>137.6</ele>
        <time>2021-07-25T11:00:00Z</time>
      </trkpt>
      <trkpt lat="39.9221850" lon="3.1073360">
        <ele>136.8</ele>
        <time>2021-07-25T11:00:01Z</time>
      </trkpt>
      <trkpt lat="39.9220570" lon="3.1072990">
        <ele>136.0</ele>
        <time>2021-07-25T11:00:02Z</time>
      </trkpt>
      <trkpt lat="39.9219250" lon="3.1072710">
        <ele>135.2</ele>
        <time>2021-07-25T11:00:03Z</time>
      </trkpt>
      <trkpt lat="39.9217910" lon="3.1072470">
        <ele>134.0</ele>
        <time>2021-07-25T11:00:04Z</time>
      </trkpt>
      <trkpt lat="39.9215240" lon="3.1071720">
        <ele>132.8</ele>
        <time>2021-07-25T11:00:06Z</time>
      </trkpt>
      <trkpt lat="39.9212780" lon="3.1070800">
        <ele>130.6</ele>
        <time>2021-07-25T11:00:08Z</time>
      </trkpt>
      <trkpt lat="39.9211600" lon="3.1070330">
        <ele>129.6</ele>
        <time>2021-07-25T11:00:09Z</time>
      </trkpt>
      <trkpt lat="39.9210360" lon="3.1070010">
        <ele>129.0</ele>
        <time>2021-07-25T11:00:10Z</time>
      </trkpt>
      <trkpt lat="39.9209070" lon="3.1069880">
        <ele>128.2</ele>
        <time>2021-07-25T11:00:11Z</time>
      </trkpt>
      <trkpt lat="39.9207740" lon="3.1069830">
        <ele>127.4</ele>
        <time>2021-07-25T11:00:12Z</time>
      </trkpt>
      <trkpt lat="39.9206370" lon="3.1069790">
        <ele>126.6</ele>
        <time>2021-07-25T11:00:13Z</time>
      </trkpt>
      <trkpt lat="39.9204950" lon="3.1069750">
        <ele>125.0</ele>
        <time>2021-07-25T11:00:14Z</time>
      </trkpt>
      <trkpt lat="39.9203500" lon="3.1069730">
        <ele>123.8</ele>
        <time>2021-07-25T11:00:15Z</time>
      </trkpt>
      <trkpt lat="39.9202040" lon="3.1069730">
        <ele>122.0</ele>
        <time>2021-07-25T11:00:16Z</time>
      </trkpt>
      <trkpt lat="39.9200580" lon="3.1069740">
        <ele>121.0</ele>
        <time>2021-07-25T11:00:17Z</time>
      </trkpt>
      <trkpt lat="39.9199100" lon="3.1069740">
        <ele>119.8</ele>
        <time>2021-07-25T11:00:18Z</time>
      </trkpt>
      <trkpt lat="39.9196140" lon="3.1069410">
        <ele>117.6</ele>
        <time>2021-07-25T11:00:20Z</time>
      </trkpt>
      <trkpt lat="39.9194690" lon="3.1068870">
        <ele>116.6</ele>
        <time>2021-07-25T11:00:21Z</time>
      </trkpt>
      <trkpt lat="39.9193300" lon="3.1068110">
        <ele>115.6</ele>
        <time>2021-07-25T11:00:22Z</time>
      </trkpt>
      <trkpt lat="39.9191930" lon="3.1067190">
        <ele>114.0</ele>
        <time>2021-07-25T11:00:23Z</time>
      </trkpt>
      <trkpt lat="39.9190550" lon="3.1066160">
        <ele>112.6</ele>
        <time>2021-07-25T11:00:24Z</time>
      </trkpt>
      <trkpt lat="39.9189200" lon="3.1065170">
        <ele>111.2</ele>
        <time>2021-07-25T11:00:25Z</time>
      </trkpt>
      <trkpt lat="39.9187890" lon="3.1064310">
        <ele>109.6</ele>
        <time>2021-07-25T11:00:26Z</time>
      </trkpt>
      <trkpt lat="39.9186590" lon="3.1063520">
        <ele>108.4</ele>
        <time>2021-07-25T11:00:27Z</time>
      </trkpt>
      <trkpt lat="39.9185310" lon="3.1062870">
        <ele>106.4</ele>
        <time>2021-07-25T11:00:28Z</time>
      </trkpt>
      <trkpt lat="39.9184010" lon="3.1062190">
        <ele>105.4</ele>
        <time>2021-07-25T11:00:29Z</time>
      </trkpt>
      <trkpt lat="39.9181680" lon="3.1060600">
        <ele>104.2</ele>
        <time>2021-07-25T11:00:31Z</time>
      </trkpt>
      <trkpt lat="39.9178480" lon="3.1058180">
        <ele>102.2</ele>
        <time>2021-07-25T11:00:34Z</time>
      </trkpt>
      <trkpt lat="39.9177470" lon="3.1057560">
        <ele>100.8</ele>
        <time>2021-07-25T11:00:35Z</time>
      </trkpt>
      <trkpt lat="39.9176480" lon="3.1057070">
        <ele>99.2</ele>
        <time>2021-07-25T11:00:36Z</time>
      </trkpt>
      <trkpt lat="39.9175520" lon="3.1056610">
        <ele>97.8</ele>
        <time>2021-07-25T11:00:37Z</time>
      </trkpt>
      <trkpt lat="39.9173660" lon="3.1055990">
        <ele>96.2</ele>
        <time>2021-07-25T11:00:39Z</time>
      </trkpt>
      <trkpt lat="39.9172770" lon="3.1055950">
        <ele>95.4</ele>
        <time>2021-07-25T11:00:40Z</time>
      </trkpt>
      <trkpt lat="39.9171960" lon="3.1056230">
        <ele>94.8</ele>
        <time>2021-07-25T11:00:41Z</time>
      </trkpt>
      <trkpt lat="39.9171230" lon="3.1056840">
        <ele>94.2</ele>
        <time>2021-07-25T11:00:42Z</time>
      </trkpt>
      <trkpt lat="39.9170690" lon="3.1057720">
        <ele>93.8</ele>
        <time>2021-07-25T11:00:43Z</time>
      </trkpt>
      <trkpt lat="39.9170380" lon="3.1058790">
        <ele>93.2</ele>
        <time>2021-07-25T11:00:44Z</time>
      </trkpt>
      <trkpt lat="39.9170460" lon="3.1061210">
        <ele>92.4</ele>
        <time>2021-07-25T11:00:46Z</time>
      </trkpt>
      <trkpt lat="39.9170610" lon="3.1062460">
        <ele>92.0</ele>
        <time>2021-07-25T11:00:47Z</time>
      </trkpt>
      <trkpt lat="39.9171120" lon="3.1064960">
        <ele>91.2</ele>
        <time>2021-07-25T11:00:49Z</time>
      </trkpt>
      <trkpt lat="39.9171770" lon="3.1067530">
        <ele>90.2</ele>
        <time>2021-07-25T11:00:51Z</time>
      </trkpt>
      <trkpt lat="39.9171650" lon="3.1070110">
        <ele>88.6</ele>
        <time>2021-07-25T11:00:53Z</time>
      </trkpt>
      <trkpt lat="39.9171030" lon="3.1071190">
        <ele>88.0</ele>
        <time>2021-07-25T11:00:54Z</time>
      </trkpt>
      <trkpt lat="39.9170350" lon="3.1072120">
        <ele>87.4</ele>
        <time>2021-07-25T11:00:55Z</time>
      </trkpt>
      <trkpt lat="39.9169640" lon="3.1073060">
        <ele>86.8</ele>
        <time>2021-07-25T11:00:56Z</time>
      </trkpt>
      <trkpt lat="39.9168940" lon="3.1074010">
        <ele>86.2</ele>
        <time>2021-07-25T11:00:57Z</time>
      </trkpt>
      <trkpt lat="39.9168250" lon="3.1074950">
        <ele>85.6</ele>
        <time>2021-07-25T11:00:58Z</time>
      </trkpt>
      <trkpt lat="39.9167550" lon="3.1075880">
        <ele>85.0</ele>
        <time>2021-07-25T11:00:59Z</time>
      </trkpt>
      <trkpt lat="39.9166180" lon="3.1077590">
        <ele>83.6</ele>
        <time>2021-07-25T11:01:01Z</time>
      </trkpt>
      <trkpt lat="39.9164790" lon="3.1079110">
        <ele>82.4</ele>
        <time>2021-07-25T11:01:03Z</time>
      </trkpt>
      <trkpt lat="39.9163070" lon="3.1079440">
        <ele>81.2</ele>
        <time>2021-07-25T11:01:05Z</time>
      </trkpt>
      <trkpt lat="39.9161510" lon="3.1078250">
        <ele>80.2</ele>
        <time>2021-07-25T11:01:07Z</time>
      </trkpt>
      <trkpt lat="39.9160840" lon="3.1077310">
        <ele>79.0</ele>
        <time>2021-07-25T11:01:08Z</time>
      </trkpt>
      <trkpt lat="39.9160140" lon="3.1076360">
        <ele>78.4</ele>
        <time>2021-07-25T11:01:09Z</time>
      </trkpt>
      <trkpt lat="39.9159400" lon="3.1075390">
        <ele>77.8</ele>
        <time>2021-07-25T11:01:10Z</time>
      </trkpt>
      <trkpt lat="39.9158620" lon="3.1074450">
        <ele>77.0</ele>
        <time>2021-07-25T11:01:11Z</time>
      </trkpt>
      <trkpt lat="39.9157790" lon="3.1073510">
        <ele>76.4</ele>
        <time>2021-07-25T11:01:12Z</time>
      </trkpt>
      <trkpt lat="39.9156940" lon="3.1072570">
        <ele>75.4</ele>
        <time>2021-07-25T11:01:13Z</time>
      </trkpt>
      <trkpt lat="39.9154340" lon="3.1069570">
        <ele>73.4</ele>
        <time>2021-07-25T11:01:16Z</time>
      </trkpt>
      <trkpt lat="39.9153430" lon="3.1068540">
        <ele>72.4</ele>
        <time>2021-07-25T11:01:17Z</time>
      </trkpt>
      <trkpt lat="39.9152490" lon="3.1067520">
        <ele>71.4</ele>
        <time>2021-07-25T11:01:18Z</time>
      </trkpt>
      <trkpt lat="39.9151530" lon="3.1066480">
        <ele>70.0</ele>
        <time>2021-07-25T11:01:19Z</time>
      </trkpt>
      <trkpt lat="39.9150560" lon="3.1065410">
        <ele>68.8</ele>
        <time>2021-07-25T11:01:20Z</time>
      </trkpt>
      <trkpt lat="39.9148660" lon="3.1063160">
        <ele>67.6</ele>
        <time>2021-07-25T11:01:22Z</time>
      </trkpt>
      <trkpt lat="39.9147800" lon="3.1061880">
        <ele>66.8</ele>
        <time>2021-07-25T11:01:23Z</time>
      </trkpt>
      <trkpt lat="39.9146970" lon="3.1060530">
        <ele>65.6</ele>
        <time>2021-07-25T11:01:24Z</time>
      </trkpt>
      <trkpt lat="39.9145050" lon="3.1058040">
        <ele>64.0</ele>
        <time>2021-07-25T11:01:26Z</time>
      </trkpt>
      <trkpt lat="39.9143960" lon="3.1056950">
        <ele>63.2</ele>
        <time>2021-07-25T11:01:27Z</time>
      </trkpt>
      <trkpt lat="39.9142860" lon="3.1055950">
        <ele>62.4</ele>
        <time>2021-07-25T11:01:28Z</time>
      </trkpt>
      <trkpt lat="39.9140810" lon="3.1054060">
        <ele>61.2</ele>
        <time>2021-07-25T11:01:30Z</time>
      </trkpt>
      <trkpt lat="39.9139860" lon="3.1053150">
        <ele>60.2</ele>
        <time>2021-07-25T11:01:31Z</time>
      </trkpt>
      <trkpt lat="39.9138920" lon="3.1052300">
        <ele>59.4</ele>
        <time>2021-07-25T11:01:32Z</time>
      </trkpt>
      <trkpt lat="39.9137990" lon="3.1051480">
        <ele>58.6</ele>
        <time>2021-07-25T11:01:33Z</time>
      </trkpt>
      <trkpt lat="39.9136060" lon="3.1050020">
        <ele>57.0</ele>
        <time>2021-07-25T11:01:35Z</time>
      </trkpt>
      <trkpt lat="39.9135040" lon="3.1049480">
        <ele>56.4</ele>
        <time>2021-07-25T11:01:36Z</time>
      </trkpt>
      <trkpt lat="39.9134010" lon="3.1049080">
        <ele>56.0</ele>
        <time>2021-07-25T11:01:37Z</time>
      </trkpt>
      <trkpt lat="39.9131870" lon="3.1048610">
        <ele>54.2</ele>
        <time>2021-07-25T11:01:39Z</time>
      </trkpt>
      <trkpt lat="39.9130780" lon="3.1048350">
        <ele>53.0</ele>
        <time>2021-07-25T11:01:40Z</time>
      </trkpt>
      <trkpt lat="39.9129780" lon="3.1047910">
        <ele>52.4</ele>
        <time>2021-07-25T11:01:41Z</time>
      </trkpt>
      <trkpt lat="39.9128840" lon="3.1047290">
        <ele>51.6</ele>
        <time>2021-07-25T11:01:42Z</time>
      </trkpt>
      <trkpt lat="39.9127150" lon="3.1045680">
        <ele>50.0</ele>
        <time>2021-07-25T11:01:44Z</time>
      </trkpt>
      <trkpt lat="39.9126230" lon="3.1044950">
        <ele>48.8</ele>
        <time>2021-07-25T11:01:45Z</time>
      </trkpt>
      <trkpt lat="39.9124130" lon="3.1043980">
        <ele>47.2</ele>
        <time>2021-07-25T11:01:47Z</time>
      </trkpt>
      <trkpt lat="39.9121940" lon="3.1043490">
        <ele>45.6</ele>
        <time>2021-07-25T11:01:49Z</time>
      </trkpt>
      <trkpt lat="39.9120840" lon="3.1043370">
        <ele>45.0</ele>
        <time>2021-07-25T11:01:50Z</time>
      </trkpt>
      <trkpt lat="39.9119780" lon="3.1043360">
        <ele>43.8</ele>
        <time>2021-07-25T11:01:51Z</time>
      </trkpt>
      <trkpt lat="39.9118790" lon="3.1043440">
        <ele>42.6</ele>
        <time>2021-07-25T11:01:52Z</time>
      </trkpt>
      <trkpt lat="39.9117020" lon="3.1043540">
        <ele>40.8</ele>
        <time>2021-07-25T11:01:54Z</time>
      </trkpt>
      <trkpt lat="39.9116290" lon="3.1043550">
        <ele>40.4</ele>
        <time>2021-07-25T11:01:55Z</time>
      </trkpt>
      <trkpt lat="39.9115660" lon="3.1043470">
        <ele>40.0</ele>
        <time>2021-07-25T11:01:56Z</time>
      </trkpt>
      <trkpt lat="39.9114890" lon="3.1042540">
        <ele>39.4</ele>
        <time>2021-07-25T11:01:58Z</time>
      </trkpt>
      <trkpt lat="39.9115450" lon="3.1041160">
        <ele>39.0</ele>
        <time>2021-07-25T11:02:00Z</time>
      </trkpt>
      <trkpt lat="39.9116170" lon="3.1040870">
        <ele>38.4</ele>
        <time>2021-07-25T11:02:01Z</time>
      </trkpt>
      <trkpt lat="39.9117600" lon="3.1040750">
        <ele>37.6</ele>
        <time>2021-07-25T11:02:03Z</time>
      </trkpt>
      <trkpt lat="39.9118400" lon="3.1040690">
        <ele>37.2</ele>
        <time>2021-07-25T11:02:04Z</time>
      </trkpt>
      <trkpt lat="39.9121510" lon="3.1040590">
        <ele>36.2</ele>
        <time>2021-07-25T11:02:08Z</time>
      </trkpt>
      <trkpt lat="39.9122300" lon="3.1040630">
        <ele>36.0</ele>
        <time>2021-07-25T11:02:09Z</time>
      </trkpt>
      <trkpt lat="39.9124720" lon="3.1040950">
        <ele>34.6</ele>
        <time>2021-07-25T11:02:12Z</time>
      </trkpt>
      <trkpt lat="39.9125480" lon="3.1041130">
        <ele>34.2</ele>
        <time>2021-07-25T11:02:13Z</time>
      </trkpt>
      <trkpt lat="39.9128550" lon="3.1041930">
        <ele>33.4</ele>
        <time>2021-07-25T11:02:17Z</time>
      </trkpt>
      <trkpt lat="39.9130080" lon="3.1042350">
        <ele>33.2</ele>
        <time>2021-07-25T11:02:19Z</time>
      </trkpt>
      <trkpt lat="39.9132390" lon="3.1042970">
        <ele>32.2</ele>
        <time>2021-07-25T11:02:22Z</time>
      </trkpt>
      <trkpt lat="39.9134670" lon="3.1043550">
        <ele>31.6</ele>
        <time>2021-07-25T11:02:25Z</time>
      </trkpt>
      <trkpt lat="39.9136900" lon="3.1044240">
        <ele>31.0</ele>
        <time>2021-07-25T11:02:28Z</time>
      </trkpt>
      <trkpt lat="39.9139210" lon="3.1044880">
        <ele>29.8</ele>
        <time>2021-07-25T11:02:31Z</time>
      </trkpt>
      <trkpt lat="39.9140750" lon="3.1045300">
        <ele>28.6</ele>
        <time>2021-07-25T11:02:33Z</time>
      </trkpt>
      <trkpt lat="39.9143180" lon="3.1045920">
        <ele>27.2</ele>
        <time>2021-07-25T11:02:36Z</time>
      </trkpt>
      <trkpt lat="39.9144000" lon="3.1046120">
        <ele>26.6</ele>
        <time>2021-07-25T11:02:37Z</time>
      </trkpt>
      <trkpt lat="39.9145670" lon="3.1046540">
        <ele>26.0</ele>
        <time>2021-07-25T11:02:39Z</time>
      </trkpt>
      <trkpt lat="39.9147290" lon="3.1046930">
        <ele>25.6</ele>
        <time>2021-07-25T11:02:41Z</time>
      </trkpt>
      <trkpt lat="39.9148110" lon="3.1046790">
        <ele>25.2</ele>
        <time>2021-07-25T11:02:42Z</time>
      </trkpt>
      <trkpt lat="39.9148820" lon="3.1046280">
        <ele>24.6</ele>
        <time>2021-07-25T11:02:43Z</time>
      </trkpt>
      <trkpt lat="39.9149230" lon="3.1045450">
        <ele>24.2</ele>
        <time>2021-07-25T11:02:44Z</time>
      </trkpt>
      <trkpt lat="39.9148850" lon="3.1043300">
        <ele>23.2</ele>
        <time>2021-07-25T11:02:46Z</time>
      </trkpt>
      <trkpt lat="39.9147240" lon="3.1041780">
        <ele>21.8</ele>
        <time>2021-07-25T11:02:48Z</time>
      </trkpt>
      <trkpt lat="39.9146270" lon="3.1041120">
        <ele>21.2</ele>
        <time>2021-07-25T11:02:49Z</time>
      </trkpt>
      <trkpt lat="39.9145240" lon="3.1040400">
        <ele>20.0</ele>
        <time>2021-07-25T11:02:50Z</time>
      </trkpt>
      <trkpt lat="39.9143090" lon="3.1038950">
        <ele>17.6</ele>
        <time>2021-07-25T11:02:52Z</time>
      </trkpt>
      <trkpt lat="39.9142000" lon="3.1038200">
        <ele>16.4</ele>
        <time>2021-07-25T11:02:53Z</time>
      </trkpt>
      <trkpt lat="39.9139790" lon="3.1036640">
        <ele>15.0</ele>
        <time>2021-07-25T11:02:55Z</time>
      </trkpt>
      <trkpt lat="39.9137580" lon="3.1035090">
        <ele>13.6</ele>
        <time>2021-07-25T11:02:57Z</time>
      </trkpt>
      <trkpt lat="39.9134230" lon="3.1032760">
        <ele>12.0</ele>
        <time>2021-07-25T11:03:00Z</time>
      </trkpt>
      <trkpt lat="39.9131990" lon="3.1031160">
        <ele>10.4</ele>
        <time>2021-07-25T11:03:02Z</time>
      </trkpt>
      <trkpt lat="39.9129730" lon="3.1029530">
        <ele>9.2</ele>
        <time>2021-07-25T11:03:04Z</time>
      </trkpt>
      <trkpt lat="39.9128570" lon="3.1028740">
        <ele>8.2</ele>
        <time>2021-07-25T11:03:05Z</time>
      </trkpt>
      <trkpt lat="39.9126260" lon="3.1027110">
        <ele>7.2</ele>
        <time>2021-07-25T11:03:07Z</time>
      </trkpt>
      <trkpt lat="39.9124240" lon="3.1025300">
        <ele>6.0</ele>
        <time>2021-07-25T11:03:09Z</time>
      </trkpt>
      <trkpt lat="39.9123420" lon="3.1024170">
        <ele>5.4</ele>
        <time>2021-07-25T11:03:10Z</time>
      </trkpt>
      <trkpt lat="39.9122390" lon="3.1021330">
        <ele>4.6</ele>
        <time>2021-07-25T11:03:12Z</time>
      </trkpt>
      <trkpt lat="39.9122230" lon="3.1018240">
        <ele>3.6</ele>
        <time>2021-07-25T11:03:14Z</time>
      </trkpt>
      <trkpt lat="39.9122410" lon="3.1016770">
        <ele>3.2</ele>
        <time>2021-07-25T11:03:15Z</time>
      </trkpt>
      <trkpt lat="39.9122980" lon="3.1014070">
        <ele>2.4</ele>
        <time>2021-07-25T11:03:17Z</time>
      </trkpt>
      <trkpt lat="39.9123590" lon="3.1011550">
        <ele>2.2</ele>
        <time>2021-07-25T11:03:19Z</time>
      </trkpt>
      <trkpt lat="39.9125240" lon="3.1005000">
        <ele>2.0</ele>
        <time>2021-07-25T11:03:25Z</time>
      </trkpt>
      <trkpt lat="39.9126310" lon="3.1000360">
        <ele>1.6</ele>
        <time>2021-07-25T11:03:30Z</time>
      </trkpt>
      <trkpt lat="39.9126860" lon="3.0998850">
        <ele>1.8</ele>
        <time>2021-07-25T11:03:32Z</time>
      </trkpt>
      <trkpt lat="39.9127770" lon="3.0997790">
        <ele>2.0</ele>
        <time>2021-07-25T11:03:34Z</time>
      </trkpt>
      <trkpt lat="39.9128730" lon="3.0996880">
        <ele>2.0</ele>
        <time>2021-07-25T11:03:36Z</time>
      </trkpt>
      <trkpt lat="39.9129450" lon="3.0995820">
        <ele>2.0</ele>
        <time>2021-07-25T11:03:38Z</time>
      </trkpt>
      <trkpt lat="39.9129880" lon="3.0994750">
        <ele>1.8</ele>
        <time>2021-07-25T11:03:41Z</time>
      </trkpt>
      <trkpt lat="39.9129910" lon="3.0994630">
        <ele>1.8</ele>
        <time>2021-07-25T11:03:43Z</time>
      </trkpt>
      <trkpt lat="39.9129630" lon="3.0993730">
        <ele>1.8</ele>
        <time>2021-07-25T11:05:00Z</time>
      </trkpt>
      <trkpt lat="39.9129610" lon="3.0993440">
        <ele>1.8</ele>
        <time>2021-07-25T11:05:01Z</time>
      </trkpt>
      <trkpt lat="39.9129730" lon="3.0991480">
        <ele>2.0</ele>
        <time>2021-07-25T11:05:06Z</time>
      </trkpt>
      <trkpt lat="39.9129850" lon="3.0991000">
        <ele>2.0</ele>
        <time>2021-07-25T11:05:07Z</time>
      </trkpt>
      <trkpt lat="39.9130100" lon="3.0989970">
        <ele>1.8</ele>
        <time>2021-07-25T11:05:09Z</time>
      </trkpt>
      <trkpt lat="39.9130640" lon="3.0987690">
        <ele>1.8</ele>
        <time>2021-07-25T11:05:13Z</time>
      </trkpt>
      <trkpt lat="39.9131500" lon="3.0984000">
        <ele>2.0</ele>
        <time>2021-07-25T11:05:19Z</time>
      </trkpt>
      <trkpt lat="39.9132730" lon="3.0978700">
        <ele>2.2</ele>
        <time>2021-07-25T11:05:27Z</time>
      </trkpt>
      <trkpt lat="39.9134060" lon="3.0973150">
        <ele>2.2</ele>
        <time>2021-07-25T11:05:35Z</time>
      </trkpt>
      <trkpt lat="39.9135080" lon="3.0968770">
        <ele>2.0</ele>
        <time>2021-07-25T11:05:41Z</time>
      </trkpt>
      <trkpt lat="39.9136290" lon="3.0963590">
        <ele>1.8</ele>
        <time>2021-07-25T11:05:48Z</time>
      </trkpt>
      <trkpt lat="39.9137560" lon="3.0956900">
        <ele>2.2</ele>
        <time>2021-07-25T11:05:57Z</time>
      </trkpt>
      <trkpt lat="39.9138190" lon="3.0952180">
        <ele>1.2</ele>
        <time>2021-07-25T11:06:03Z</time>
      </trkpt>
      <trkpt lat="39.9138600" lon="3.0946130">
        <ele>1.0</ele>
        <time>2021-07-25T11:06:10Z</time>
      </trkpt>
      <trkpt lat="39.9138450" lon="3.0939100">
        <ele>1.2</ele>
        <time>2021-07-25T11:06:18Z</time>
      </trkpt>
      <trkpt lat="39.9138190" lon="3.0934140">
        <ele>1.0</ele>
        <time>2021-07-25T11:06:24Z</time>
      </trkpt>
      <trkpt lat="39.9137960" lon="3.0929310">
        <ele>1.2</ele>
        <time>2021-07-25T11:06:30Z</time>
      </trkpt>
      <trkpt lat="39.9137830" lon="3.0926940">
        <ele>1.2</ele>
        <time>2021-07-25T11:06:33Z</time>
      </trkpt>
      <trkpt lat="39.9137640" lon="3.0923780">
        <ele>2.2</ele>
        <time>2021-07-25T11:06:37Z</time>
      </trkpt>
      <trkpt lat="39.9137230" lon="3.0917530">
        <ele>3.4</ele>
        <time>2021-07-25T11:06:45Z</time>
      </trkpt>
      <trkpt lat="39.9136960" lon="3.0912020">
        <ele>4.4</ele>
        <time>2021-07-25T11:06:52Z</time>
      </trkpt>
      <trkpt lat="39.9136640" lon="3.0906540">
        <ele>5.8</ele>
        <time>2021-07-25T11:06:59Z</time>
      </trkpt>
      <trkpt lat="39.9136590" lon="3.0905730">
        <ele>5.8</ele>
        <time>2021-07-25T11:07:00Z</time>
      </trkpt>
      <trkpt lat="39.9136270" lon="3.0900620">
        <ele>4.8</ele>
        <time>2021-07-25T11:07:06Z</time>
      </trkpt>
      <trkpt lat="39.9136110" lon="3.0897930">
        <ele>4.2</ele>
        <time>2021-07-25T11:07:09Z</time>
      </trkpt>
      <trkpt lat="39.9135890" lon="3.0894120">
        <ele>3.4</ele>
        <time>2021-07-25T11:07:13Z</time>
      </trkpt>
      <trkpt lat="39.9135580" lon="3.0888340">
        <ele>2.8</ele>
        <time>2021-07-25T11:07:19Z</time>
      </trkpt>
      <trkpt lat="39.9135190" lon="3.0880900">
        <ele>2.4</ele>
        <time>2021-07-25T11:07:27Z</time>
      </trkpt>
      <trkpt lat="39.9135070" lon="3.0878200">
        <ele>1.8</ele>
        <time>2021-07-25T11:07:30Z</time>
      </trkpt>
      <trkpt lat="39.9134920" lon="3.0875560">
        <ele>3.2</ele>
        <time>2021-07-25T11:07:33Z</time>
      </trkpt>
      <trkpt lat="39.9134620" lon="3.0872000">
        <ele>3.4</ele>
        <time>2021-07-25T11:07:37Z</time>
      </trkpt>
      <trkpt lat="39.9134300" lon="3.0869280">
        <ele>3.4</ele>
        <time>2021-07-25T11:07:40Z</time>
      </trkpt>
      <trkpt lat="39.9132930" lon="3.0861800">
        <ele>2.4</ele>
        <time>2021-07-25T11:07:48Z</time>
      </trkpt>
      <trkpt lat="39.9132720" lon="3.0860850">
        <ele>2.4</ele>
        <time>2021-07-25T11:07:49Z</time>
      </trkpt>
      <trkpt lat="39.9130820" lon="3.0854160">
        <ele>1.4</ele>
        <time>2021-07-25T11:07:56Z</time>
      </trkpt>
      <trkpt lat="39.9130500" lon="3.0853190">
        <ele>1.4</ele>
        <time>2021-07-25T11:07:57Z</time>
      </trkpt>
      <trkpt lat="39.9129050" lon="3.0849320">
        <ele>1.4</ele>
        <time>2021-07-25T11:08:01Z</time>
      </trkpt>
      <trkpt lat="39.9127910" lon="3.0846450">
        <ele>0.8</ele>
        <time>2021-07-25T11:08:04Z</time>
      </trkpt>
      <trkpt lat="39.9127660" lon="3.0845440">
        <ele>0.6</ele>
        <time>2021-07-25T11:08:05Z</time>
      </trkpt>
      <trkpt lat="39.9127580" lon="3.0842440">
        <ele>1.0</ele>
        <time>2021-07-25T11:08:08Z</time>
      </trkpt>
      <trkpt lat="39.9126790" lon="3.0839810">
        <ele>2.0</ele>
        <time>2021-07-25T11:08:11Z</time>
      </trkpt>
      <trkpt lat="39.9125100" lon="3.0838000">
        <ele>2.0</ele>
        <time>2021-07-25T11:08:14Z</time>
      </trkpt>
      <trkpt lat="39.9123880" lon="3.0836880">
        <ele>1.6</ele>
        <time>2021-07-25T11:08:16Z</time>
      </trkpt>
      <trkpt lat="39.9123000" lon="3.0835300">
        <ele>1.2</ele>
        <time>2021-07-25T11:08:18Z</time>
      </trkpt>
      <trkpt lat="39.9120520" lon="3.0830500">
        <ele>1.0</ele>
        <time>2021-07-25T11:08:24Z</time>
      </trkpt>
      <trkpt lat="39.9119260" lon="3.0828120">
        <ele>-0.2</ele>
        <time>2021-07-25T11:08:27Z</time>
      </trkpt>
      <trkpt lat="39.9117470" lon="3.0825030">
        <ele>0.8</ele>
        <time>2021-07-25T11:08:31Z</time>
      </trkpt>
      <trkpt lat="39.9117000" lon="3.0824260">
        <ele>1.2</ele>
        <time>2021-07-25T11:08:32Z</time>
      </trkpt>
      <trkpt lat="39.9116100" lon="3.0822750">
        <ele>2.0</ele>
        <time>2021-07-25T11:08:34Z</time>
      </trkpt>
      <trkpt lat="39.9114780" lon="3.0820490">
        <ele>3.2</ele>
        <time>2021-07-25T11:08:37Z</time>
      </trkpt>
      <trkpt lat="39.9113870" lon="3.0819040">
        <ele>3.4</ele>
        <time>2021-07-25T11:08:39Z</time>
      </trkpt>
      <trkpt lat="39.9110120" lon="3.0813080">
        <ele>2.2</ele>
        <time>2021-07-25T11:08:47Z</time>
      </trkpt>
      <trkpt lat="39.9109630" lon="3.0812330">
        <ele>2.0</ele>
        <time>2021-07-25T11:08:48Z</time>
      </trkpt>
      <trkpt lat="39.9106540" lon="3.0807850">
        <ele>1.2</ele>
        <time>2021-07-25T11:08:54Z</time>
      </trkpt>
      <trkpt lat="39.9104900" lon="3.0805630">
        <ele>1.4</ele>
        <time>2021-07-25T11:08:57Z</time>
      </trkpt>
      <trkpt lat="39.9103240" lon="3.0803440">
        <ele>0.0</ele>
        <time>2021-07-25T11:09:00Z</time>
      </trkpt>
      <trkpt lat="39.9099810" lon="3.0798940">
        <ele>0.4</ele>
        <time>2021-07-25T11:09:06Z</time>
      </trkpt>
      <trkpt lat="39.9095510" lon="3.0793690">
        <ele>-0.4</ele>
        <time>2021-07-25T11:09:13Z</time>
      </trkpt>
      <trkpt lat="39.9094920" lon="3.0792930">
        <ele>-0.2</ele>
        <time>2021-07-25T11:09:14Z</time>
      </trkpt>
      <trkpt lat="39.9094380" lon="3.0792110">
        <ele>-0.4</ele>
        <time>2021-07-25T11:09:15Z</time>
      </trkpt>
      <trkpt lat="39.9093640" lon="3.0790270">
        <ele>-1.0</ele>
        <time>2021-07-25T11:09:17Z</time>
      </trkpt>
      <trkpt lat="39.9093330" lon="3.0788240">
        <ele>-0.8</ele>
        <time>2021-07-25T11:09:19Z</time>
      </trkpt>
      <trkpt lat="39.9092990" lon="3.0786370">
        <ele>-0.8</ele>
        <time>2021-07-25T11:09:21Z</time>
      </trkpt>
      <trkpt lat="39.9091470" lon="3.0784330">
        <ele>-0.4</ele>
        <time>2021-07-25T11:09:24Z</time>
      </trkpt>
      <trkpt lat="39.9089170" lon="3.0784220">
        <ele>-0.4</ele>
        <time>2021-07-25T11:09:27Z</time>
      </trkpt>
      <trkpt lat="39.9087590" lon="3.0784050">
        <ele>-1.2</ele>
        <time>2021-07-25T11:09:29Z</time>
      </trkpt>
      <trkpt lat="39.9086050" lon="3.0783300">
        <ele>-1.6</ele>
        <time>2021-07-25T11:09:31Z</time>
      </trkpt>
      <trkpt lat="39.9084680" lon="3.0782110">
        <ele>-1.8</ele>
        <time>2021-07-25T11:09:33Z</time>
      </trkpt>
      <trkpt lat="39.9084030" lon="3.0781460">
        <ele>-2.4</ele>
        <time>2021-07-25T11:09:34Z</time>
      </trkpt>
      <trkpt lat="39.9082680" lon="3.0780200">
        <ele>-2.8</ele>
        <time>2021-07-25T11:09:36Z</time>
      </trkpt>
      <trkpt lat="39.9078580" lon="3.0776480">
        <ele>-2.4</ele>
        <time>2021-07-25T11:09:42Z</time>
      </trkpt>
      <trkpt lat="39.9073860" lon="3.0772560">
        <ele>-2.6</ele>
        <time>2021-07-25T11:09:49Z</time>
      </trkpt>
      <trkpt lat="39.9073190" lon="3.0772080">
        <ele>-3.0</ele>
        <time>2021-07-25T11:09:50Z</time>
      </trkpt>
      <trkpt lat="39.9069330" lon="3.0769370">
        <ele>-3.2</ele>
        <time>2021-07-25T11:09:56Z</time>
      </trkpt>
      <trkpt lat="39.9068690" lon="3.0768880">
        <ele>-3.4</ele>
        <time>2021-07-25T11:09:57Z</time>
      </trkpt>
      <trkpt lat="39.9064860" lon="3.0766090">
        <ele>-4.4</ele>
        <time>2021-07-25T11:10:03Z</time>
      </trkpt>
      <trkpt lat="39.9060460" lon="3.0762930">
        <ele>-4.4</ele>
        <time>2021-07-25T11:10:10Z</time>
      </trkpt>
      <trkpt lat="39.9059830" lon="3.0762530">
        <ele>-4.4</ele>
        <time>2021-07-25T11:10:11Z</time>
      </trkpt>
      <trkpt lat="39.9057390" lon="3.0760890">
        <ele>-4.0</ele>
        <time>2021-07-25T11:10:15Z</time>
      </trkpt>
      <trkpt lat="39.9054130" lon="3.0758510">
        <ele>-4.8</ele>
        <time>2021-07-25T11:10:21Z</time>
      </trkpt>
      <trkpt lat="39.9050610" lon="3.0755930">
        <ele>-4.8</ele>
        <time>2021-07-25T11:10:28Z</time>
      </trkpt>
      <trkpt lat="39.9048710" lon="3.0754180">
        <ele>-4.8</ele>
        <time>2021-07-25T11:10:33Z</time>
      </trkpt>
      <trkpt lat="39.9048380" lon="3.0753440">
        <ele>-4.8</ele>
        <time>2021-07-25T11:10:37Z</time>
      </trkpt>
      <trkpt lat="39.9048270" lon="3.0752900">
        <ele>-4.6</ele>
        <time>2021-07-25T11:11:04Z</time>
      </trkpt>
      <trkpt lat="39.9048160" lon="3.0752170">
        <ele>-4.6</ele>
        <time>2021-07-25T11:11:06Z</time>
      </trkpt>
      <trkpt lat="39.9047720" lon="3.0750650">
        <ele>-4.0</ele>
        <time>2021-07-25T11:11:09Z</time>
      </trkpt>
      <trkpt lat="39.9047440" lon="3.0750160">
        <ele>-4.0</ele>
        <time>2021-07-25T11:11:10Z</time>
      </trkpt>
      <trkpt lat="39.9046240" lon="3.0749070">
        <ele>-4.4</ele>
        <time>2021-07-25T11:11:13Z</time>
      </trkpt>
      <trkpt lat="39.9045780" lon="3.0748790">
        <ele>-4.4</ele>
        <time>2021-07-25T11:11:14Z</time>
      </trkpt>
      <trkpt lat="39.9044370" lon="3.0747740">
        <ele>-4.2</ele>
        <time>2021-07-25T11:11:17Z</time>
      </trkpt>
      <trkpt lat="39.9043580" lon="3.0746660">
        <ele>-4.0</ele>
        <time>2021-07-25T11:11:19Z</time>
      </trkpt>
      <trkpt lat="39.9042810" lon="3.0744660">
        <ele>-4.0</ele>
        <time>2021-07-25T11:11:22Z</time>
      </trkpt>
      <trkpt lat="39.9042590" lon="3.0743960">
        <ele>-3.8</ele>
        <time>2021-07-25T11:11:23Z</time>
      </trkpt>
      <trkpt lat="39.9040460" lon="3.0736890">
        <ele>-3.8</ele>
        <time>2021-07-25T11:11:33Z</time>
      </trkpt>
      <trkpt lat="39.9040250" lon="3.0736200">
        <ele>-3.8</ele>
        <time>2021-07-25T11:11:34Z</time>
      </trkpt>
      <trkpt lat="39.9038380" lon="3.0730020">
        <ele>-4.0</ele>
        <time>2021-07-25T11:11:43Z</time>
      </trkpt>
      <trkpt lat="39.9036700" lon="3.0724420">
        <ele>-3.8</ele>
        <time>2021-07-25T11:11:51Z</time>
      </trkpt>
      <trkpt lat="39.9035260" lon="3.0719540">
        <ele>-2.6</ele>
        <time>2021-07-25T11:11:58Z</time>
      </trkpt>
      <trkpt lat="39.9034830" lon="3.0718150">
        <ele>-2.6</ele>
        <time>2021-07-25T11:12:00Z</time>
      </trkpt>
      <trkpt lat="39.9034400" lon="3.0716770">
        <ele>-2.6</ele>
        <time>2021-07-25T11:12:02Z</time>
      </trkpt>
      <trkpt lat="39.9032530" lon="3.0710440">
        <ele>-2.4</ele>
        <time>2021-07-25T11:12:11Z</time>
      </trkpt>
      <trkpt lat="39.9030890" lon="3.0704750">
        <ele>-2.4</ele>
        <time>2021-07-25T11:12:19Z</time>
      </trkpt>
      <trkpt lat="39.9029420" lon="3.0699900">
        <ele>-1.8</ele>
        <time>2021-07-25T11:12:26Z</time>
      </trkpt>
      <trkpt lat="39.9028460" lon="3.0696540">
        <ele>-1.6</ele>
        <time>2021-07-25T11:12:31Z</time>
      </trkpt>
      <trkpt lat="39.9028220" lon="3.0695130">
        <ele>-1.4</ele>
        <time>2021-07-25T11:12:33Z</time>
      </trkpt>
      <trkpt lat="39.9028180" lon="3.0694410">
        <ele>-1.4</ele>
        <time>2021-07-25T11:12:34Z</time>
      </trkpt>
      <trkpt lat="39.9028300" lon="3.0692280">
        <ele>-1.4</ele>
        <time>2021-07-25T11:12:37Z</time>
      </trkpt>
      <trkpt lat="39.9028170" lon="3.0691590">
        <ele>-1.4</ele>
        <time>2021-07-25T11:12:38Z</time>
      </trkpt>
      <trkpt lat="39.9027070" lon="3.0690040">
        <ele>-1.4</ele>
        <time>2021-07-25T11:12:41Z</time>
      </trkpt>
      <trkpt lat="39.9026650" lon="3.0689560">
        <ele>-1.2</ele>
        <time>2021-07-25T11:12:42Z</time>
      </trkpt>
      <trkpt lat="39.9025830" lon="3.0687650">
        <ele>-1.2</ele>
        <time>2021-07-25T11:12:45Z</time>
      </trkpt>
      <trkpt lat="39.9025380" lon="3.0686300">
        <ele>-1.2</ele>
        <time>2021-07-25T11:12:47Z</time>
      </trkpt>
      <trkpt lat="39.9024800" lon="3.0684220">
        <ele>-1.0</ele>
        <time>2021-07-25T11:12:50Z</time>
      </trkpt>
      <trkpt lat="39.9024570" lon="3.0683530">
        <ele>-1.0</ele>
        <time>2021-07-25T11:12:51Z</time>
      </trkpt>
      <trkpt lat="39.9022660" lon="3.0677060">
        <ele>-0.6</ele>
        <time>2021-07-25T11:13:00Z</time>
      </trkpt>
      <trkpt lat="39.9021170" lon="3.0672100">
        <ele>-0.4</ele>
        <time>2021-07-25T11:13:07Z</time>
      </trkpt>
      <trkpt lat="39.9020960" lon="3.0671390">
        <ele>0.0</ele>
        <time>2021-07-25T11:13:08Z</time>
      </trkpt>
      <trkpt lat="39.9019590" lon="3.0666940">
        <ele>0.4</ele>
        <time>2021-07-25T11:13:14Z</time>
      </trkpt>
      <trkpt lat="39.9018250" lon="3.0662250">
        <ele>0.6</ele>
        <time>2021-07-25T11:13:20Z</time>
      </trkpt>
      <trkpt lat="39.9017740" lon="3.0660570">
        <ele>0.8</ele>
        <time>2021-07-25T11:13:22Z</time>
      </trkpt>
      <trkpt lat="39.9015660" lon="3.0653940">
        <ele>1.0</ele>
        <time>2021-07-25T11:13:30Z</time>
      </trkpt>
      <trkpt lat="39.9013870" lon="3.0647850">
        <ele>1.2</ele>
        <time>2021-07-25T11:13:37Z</time>
      </trkpt>
      <trkpt lat="39.9011630" lon="3.0640540">
        <ele>1.6</ele>
        <time>2021-07-25T11:13:45Z</time>
      </trkpt>
      <trkpt lat="39.9011350" lon="3.0639640">
        <ele>2.2</ele>
        <time>2021-07-25T11:13:46Z</time>
      </trkpt>
      <trkpt lat="39.9009260" lon="3.0632740">
        <ele>2.6</ele>
        <time>2021-07-25T11:13:54Z</time>
      </trkpt>
      <trkpt lat="39.9009020" lon="3.0631920">
        <ele>2.6</ele>
        <time>2021-07-25T11:13:55Z</time>
      </trkpt>
      <trkpt lat="39.9008030" lon="3.0628630">
        <ele>3.2</ele>
        <time>2021-07-25T11:13:59Z</time>
      </trkpt>
      <trkpt lat="39.9006580" lon="3.0623700">
        <ele>3.6</ele>
        <time>2021-07-25T11:14:05Z</time>
      </trkpt>
      <trkpt lat="39.9004620" lon="3.0617110">
        <ele>4.0</ele>
        <time>2021-07-25T11:14:13Z</time>
      </trkpt>
      <trkpt lat="39.9004100" lon="3.0615440">
        <ele>4.0</ele>
        <time>2021-07-25T11:14:15Z</time>
      </trkpt>
      <trkpt lat="39.9002650" lon="3.0610580">
        <ele>4.2</ele>
        <time>2021-07-25T11:14:21Z</time>
      </trkpt>
      <trkpt lat="39.9002400" lon="3.0609760">
        <ele>4.4</ele>
        <time>2021-07-25T11:14:22Z</time>
      </trkpt>
      <trkpt lat="39.9000410" lon="3.0603170">
        <ele>4.4</ele>
        <time>2021-07-25T11:14:30Z</time>
      </trkpt>
      <trkpt lat="39.8999920" lon="3.0601550">
        <ele>4.6</ele>
        <time>2021-07-25T11:14:32Z</time>
      </trkpt>
      <trkpt lat="39.8997750" lon="3.0594320">
        <ele>5.2</ele>
        <time>2021-07-25T11:14:41Z</time>
      </trkpt>
      <trkpt lat="39.8995520" lon="3.0587060">
        <ele>5.6</ele>
        <time>2021-07-25T11:14:50Z</time>
      </trkpt>
      <trkpt lat="39.8995280" lon="3.0586270">
        <ele>5.8</ele>
        <time>2021-07-25T11:14:51Z</time>
      </trkpt>
      <trkpt lat="39.8993240" lon="3.0579230">
        <ele>6.8</ele>
        <time>2021-07-25T11:15:00Z</time>
      </trkpt>
      <trkpt lat="39.8993010" lon="3.0578450">
        <ele>6.8</ele>
        <time>2021-07-25T11:15:01Z</time>
      </trkpt>
      <trkpt lat="39.8992770" lon="3.0577680">
        <ele>7.0</ele>
        <time>2021-07-25T11:15:02Z</time>
      </trkpt>
      <trkpt lat="39.8990620" lon="3.0570750">
        <ele>7.4</ele>
        <time>2021-07-25T11:15:11Z</time>
      </trkpt>
      <trkpt lat="39.8988810" lon="3.0564640">
        <ele>7.6</ele>
        <time>2021-07-25T11:15:19Z</time>
      </trkpt>
      <trkpt lat="39.8988570" lon="3.0563860">
        <ele>8.0</ele>
        <time>2021-07-25T11:15:20Z</time>
      </trkpt>
      <trkpt lat="39.8986430" lon="3.0556690">
        <ele>8.0</ele>
        <time>2021-07-25T11:15:29Z</time>
      </trkpt>
      <trkpt lat="39.8986190" lon="3.0555900">
        <ele>8.0</ele>
        <time>2021-07-25T11:15:30Z</time>
      </trkpt>
      <trkpt lat="39.8984070" lon="3.0548810">
        <ele>8.4</ele>
        <time>2021-07-25T11:15:39Z</time>
      </trkpt>
      <trkpt lat="39.8983360" lon="3.0546450">
        <ele>9.0</ele>
        <time>2021-07-25T11:15:42Z</time>
      </trkpt>
      <trkpt lat="39.8982660" lon="3.0544100">
        <ele>9.2</ele>
        <time>2021-07-25T11:15:45Z</time>
      </trkpt>
      <trkpt lat="39.8980740" lon="3.0537850">
        <ele>9.6</ele>
        <time>2021-07-25T11:15:53Z</time>
      </trkpt>
      <trkpt lat="39.8978660" lon="3.0530870">
        <ele>10.0</ele>
        <time>2021-07-25T11:16:02Z</time>
      </trkpt>
      <trkpt lat="39.8978420" lon="3.0530120">
        <ele>10.2</ele>
        <time>2021-07-25T11:16:03Z</time>
      </trkpt>
      <trkpt lat="39.8976580" lon="3.0524030">
        <ele>10.8</ele>
        <time>2021-07-25T11:16:11Z</time>
      </trkpt>
      <trkpt lat="39.8974540" lon="3.0517160">
        <ele>11.2</ele>
        <time>2021-07-25T11:16:20Z</time>
      </trkpt>
      <trkpt lat="39.8974080" lon="3.0515630">
        <ele>11.4</ele>
        <time>2021-07-25T11:16:22Z</time>
      </trkpt>
      <trkpt lat="39.8972170" lon="3.0509440">
        <ele>12.4</ele>
        <time>2021-07-25T11:16:30Z</time>
      </trkpt>
      <trkpt lat="39.8971020" lon="3.0505670">
        <ele>12.4</ele>
        <time>2021-07-25T11:16:35Z</time>
      </trkpt>
      <trkpt lat="39.8970130" lon="3.0502720">
        <ele>12.8</ele>
        <time>2021-07-25T11:16:39Z</time>
      </trkpt>
      <trkpt lat="39.8968170" lon="3.0496020">
        <ele>12.8</ele>
        <time>2021-07-25T11:16:48Z</time>
      </trkpt>
      <trkpt lat="39.8966630" lon="3.0490850">
        <ele>13.2</ele>
        <time>2021-07-25T11:16:55Z</time>
      </trkpt>
      <trkpt lat="39.8964580" lon="3.0484110">
        <ele>13.4</ele>
        <time>2021-07-25T11:17:04Z</time>
      </trkpt>
      <trkpt lat="39.8964360" lon="3.0483370">
        <ele>13.4</ele>
        <time>2021-07-25T11:17:05Z</time>
      </trkpt>
      <trkpt lat="39.8962290" lon="3.0476640">
        <ele>14.4</ele>
        <time>2021-07-25T11:17:14Z</time>
      </trkpt>
      <trkpt lat="39.8961860" lon="3.0475120">
        <ele>14.6</ele>
        <time>2021-07-25T11:17:16Z</time>
      </trkpt>
      <trkpt lat="39.8960500" lon="3.0470680">
        <ele>14.6</ele>
        <time>2021-07-25T11:17:22Z</time>
      </trkpt>
      <trkpt lat="39.8958900" lon="3.0465560">
        <ele>15.8</ele>
        <time>2021-07-25T11:17:29Z</time>
      </trkpt>
      <trkpt lat="39.8958430" lon="3.0464130">
        <ele>16.2</ele>
        <time>2021-07-25T11:17:31Z</time>
      </trkpt>
      <trkpt lat="39.8956420" lon="3.0458220">
        <ele>16.6</ele>
        <time>2021-07-25T11:17:39Z</time>
      </trkpt>
      <trkpt lat="39.8955410" lon="3.0455260">
        <ele>17.0</ele>
        <time>2021-07-25T11:17:43Z</time>
      </trkpt>
      <trkpt lat="39.8953880" lon="3.0450770">
        <ele>18.0</ele>
        <time>2021-07-25T11:17:49Z</time>
      </trkpt>
      <trkpt lat="39.8953630" lon="3.0450020">
        <ele>18.0</ele>
        <time>2021-07-25T11:17:50Z</time>
      </trkpt>
      <trkpt lat="39.8952030" lon="3.0445580">
        <ele>19.4</ele>
        <time>2021-07-25T11:17:56Z</time>
      </trkpt>
      <trkpt lat="39.8950460" lon="3.0441140">
        <ele>20.2</ele>
        <time>2021-07-25T11:18:02Z</time>
      </trkpt>
      <trkpt lat="39.8949090" lon="3.0437480">
        <ele>20.6</ele>
        <time>2021-07-25T11:18:07Z</time>
      </trkpt>
      <trkpt lat="39.8948620" lon="3.0436000">
        <ele>20.8</ele>
        <time>2021-07-25T11:18:09Z</time>
      </trkpt>
      <trkpt lat="39.8946720" lon="3.0430530">
        <ele>21.4</ele>
        <time>2021-07-25T11:18:16Z</time>
      </trkpt>
      <trkpt lat="39.8944410" lon="3.0424290">
        <ele>21.2</ele>
        <time>2021-07-25T11:18:24Z</time>
      </trkpt>
      <trkpt lat="39.8942290" lon="3.0418820">
        <ele>21.2</ele>
        <time>2021-07-25T11:18:31Z</time>
      </trkpt>
      <trkpt lat="39.8940470" lon="3.0414210">
        <ele>21.4</ele>
        <time>2021-07-25T11:18:37Z</time>
      </trkpt>
      <trkpt lat="39.8938190" lon="3.0407710">
        <ele>21.4</ele>
        <time>2021-07-25T11:18:45Z</time>
      </trkpt>
      <trkpt lat="39.8937320" lon="3.0405260">
        <ele>22.0</ele>
        <time>2021-07-25T11:18:48Z</time>
      </trkpt>
      <trkpt lat="39.8936070" lon="3.0401980">
        <ele>21.6</ele>
        <time>2021-07-25T11:18:52Z</time>
      </trkpt>
      <trkpt lat="39.8933790" lon="3.0395230">
        <ele>21.2</ele>
        <time>2021-07-25T11:19:00Z</time>
      </trkpt>
      <trkpt lat="39.8932370" lon="3.0390160">
        <ele>21.2</ele>
        <time>2021-07-25T11:19:06Z</time>
      </trkpt>
      <trkpt lat="39.8931550" lon="3.0387550">
        <ele>21.0</ele>
        <time>2021-07-25T11:19:09Z</time>
      </trkpt>
      <trkpt lat="39.8930770" lon="3.0384950">
        <ele>21.2</ele>
        <time>2021-07-25T11:19:12Z</time>
      </trkpt>
      <trkpt lat="39.8929520" lon="3.0380760">
        <ele>21.6</ele>
        <time>2021-07-25T11:19:17Z</time>
      </trkpt>
      <trkpt lat="39.8929270" lon="3.0379920">
        <ele>21.6</ele>
        <time>2021-07-25T11:19:18Z</time>
      </trkpt>
      <trkpt lat="39.8927570" lon="3.0374140">
        <ele>22.2</ele>
        <time>2021-07-25T11:19:25Z</time>
      </trkpt>
      <trkpt lat="39.8927370" lon="3.0373330">
        <ele>22.2</ele>
        <time>2021-07-25T11:19:26Z</time>
      </trkpt>
      <trkpt lat="39.8925810" lon="3.0368620">
        <ele>22.4</ele>
        <time>2021-07-25T11:19:32Z</time>
      </trkpt>
      <trkpt lat="39.8925590" lon="3.0367800">
        <ele>22.6</ele>
        <time>2021-07-25T11:19:33Z</time>
      </trkpt>
      <trkpt lat="39.8924680" lon="3.0364570">
        <ele>23.2</ele>
        <time>2021-07-25T11:19:37Z</time>
      </trkpt>
      <trkpt lat="39.8922590" lon="3.0358330">
        <ele>23.0</ele>
        <time>2021-07-25T11:19:45Z</time>
      </trkpt>
      <trkpt lat="39.8920590" lon="3.0353020">
        <ele>23.6</ele>
        <time>2021-07-25T11:19:52Z</time>
      </trkpt>
      <trkpt lat="39.8918040" lon="3.0348040">
        <ele>23.8</ele>
        <time>2021-07-25T11:19:59Z</time>
      </trkpt>
      <trkpt lat="39.8915860" lon="3.0343770">
        <ele>24.2</ele>
        <time>2021-07-25T11:20:05Z</time>
      </trkpt>
      <trkpt lat="39.8915490" lon="3.0343110">
        <ele>24.4</ele>
        <time>2021-07-25T11:20:06Z</time>
      </trkpt>
      <trkpt lat="39.8913880" lon="3.0340530">
        <ele>24.8</ele>
        <time>2021-07-25T11:20:10Z</time>
      </trkpt>
      <trkpt lat="39.8912590" lon="3.0338660">
        <ele>25.4</ele>
        <time>2021-07-25T11:20:13Z</time>
      </trkpt>
      <trkpt lat="39.8908660" lon="3.0332990">
        <ele>25.0</ele>
        <time>2021-07-25T11:20:22Z</time>
      </trkpt>
      <trkpt lat="39.8904990" lon="3.0328130">
        <ele>25.2</ele>
        <time>2021-07-25T11:20:30Z</time>
      </trkpt>
      <trkpt lat="39.8901070" lon="3.0323280">
        <ele>25.8</ele>
        <time>2021-07-25T11:20:38Z</time>
      </trkpt>
      <trkpt lat="39.8899610" lon="3.0321500">
        <ele>26.0</ele>
        <time>2021-07-25T11:20:41Z</time>
      </trkpt>
      <trkpt lat="39.8898630" lon="3.0320320">
        <ele>26.4</ele>
        <time>2021-07-25T11:20:43Z</time>
      </trkpt>
      <trkpt lat="39.8895780" lon="3.0316800">
        <ele>27.4</ele>
        <time>2021-07-25T11:20:49Z</time>
      </trkpt>
      <trkpt lat="39.8893810" lon="3.0314440">
        <ele>27.4</ele>
        <time>2021-07-25T11:20:53Z</time>
      </trkpt>
      <trkpt lat="39.8891830" lon="3.0312020">
        <ele>27.8</ele>
        <time>2021-07-25T11:20:57Z</time>
      </trkpt>
      <trkpt lat="39.8887310" lon="3.0306790">
        <ele>28.4</ele>
        <time>2021-07-25T11:21:06Z</time>
      </trkpt>
      <trkpt lat="39.8886770" lon="3.0306250">
        <ele>28.6</ele>
        <time>2021-07-25T11:21:07Z</time>
      </trkpt>
      <trkpt lat="39.8883680" lon="3.0302860">
        <ele>29.4</ele>
        <time>2021-07-25T11:21:13Z</time>
      </trkpt>
      <trkpt lat="39.8879900" lon="3.0298540">
        <ele>29.2</ele>
        <time>2021-07-25T11:21:21Z</time>
      </trkpt>
      <trkpt lat="39.8879340" lon="3.0297720">
        <ele>29.2</ele>
        <time>2021-07-25T11:21:24Z</time>
      </trkpt>
      <trkpt lat="39.8878120" lon="3.0297470">
        <ele>29.6</ele>
        <time>2021-07-25T11:21:28Z</time>
      </trkpt>
      <trkpt lat="39.8876730" lon="3.0299060">
        <ele>30.6</ele>
        <time>2021-07-25T11:21:32Z</time>
      </trkpt>
      <trkpt lat="39.8876340" lon="3.0300340">
        <ele>29.8</ele>
        <time>2021-07-25T11:21:34Z</time>
      </trkpt>
      <trkpt lat="39.8876110" lon="3.0300990">
        <ele>29.6</ele>
        <time>2021-07-25T11:21:35Z</time>
      </trkpt>
      <trkpt lat="39.8875830" lon="3.0301600">
        <ele>29.4</ele>
        <time>2021-07-25T11:21:36Z</time>
      </trkpt>
      <trkpt lat="39.8874800" lon="3.0302650">
        <ele>29.2</ele>
        <time>2021-07-25T11:21:39Z</time>
      </trkpt>
      <trkpt lat="39.8874320" lon="3.0302130">
        <ele>28.8</ele>
        <time>2021-07-25T11:21:42Z</time>
      </trkpt>
      <trkpt lat="39.8875030" lon="3.0301280">
        <ele>29.0</ele>
        <time>2021-07-25T11:21:45Z</time>
      </trkpt>
      <trkpt lat="39.8875070" lon="3.0300430">
        <ele>29.2</ele>
        <time>2021-07-25T11:21:47Z</time>
      </trkpt>
      <trkpt lat="39.8873560" lon="3.0297160">
        <ele>30.2</ele>
        <time>2021-07-25T11:31:01Z</time>
      </trkpt>
      <trkpt lat="39.8873540" lon="3.0295690">
        <ele>30.4</ele>
        <time>2021-07-25T11:31:06Z</time>
      </trkpt>
      <trkpt lat="39.8873080" lon="3.0294230">
        <ele>30.6</ele>
        <time>2021-07-25T11:31:11Z</time>
      </trkpt>
      <trkpt lat="39.8872830" lon="3.0293510">
        <ele>30.4</ele>
        <time>2021-07-25T11:31:13Z</time>
      </trkpt>
      <trkpt lat="39.8872340" lon="3.0292380">
        <ele>30.4</ele>
        <time>2021-07-25T11:31:17Z</time>
      </trkpt>
      <trkpt lat="39.8871710" lon="3.0291560">
        <ele>30.6</ele>
        <time>2021-07-25T11:31:21Z</time>
      </trkpt>
      <trkpt lat="39.8870860" lon="3.0291640">
        <ele>30.4</ele>
        <time>2021-07-25T11:31:24Z</time>
      </trkpt>
      <trkpt lat="39.8870560" lon="3.0291830">
        <ele>30.2</ele>
        <time>2021-07-25T11:31:25Z</time>
      </trkpt>
      <trkpt lat="39.8869230" lon="3.0292420">
        <ele>30.2</ele>
        <time>2021-07-25T11:31:30Z</time>
      </trkpt>
      <trkpt lat="39.8868890" lon="3.0292130">
        <ele>30.4</ele>
        <time>2021-07-25T11:31:32Z</time>
      </trkpt>
      <trkpt lat="39.8868880" lon="3.0291950">
        <ele>30.6</ele>
        <time>2021-07-25T11:31:34Z</time>
      </trkpt>
      <trkpt lat="39.8868870" lon="3.0291920">
        <ele>30.6</ele>
        <time>2021-07-25T11:31:35Z</time>
      </trkpt>
      <trkpt lat="39.8866490" lon="3.0296360">
        <ele>29.4</ele>
        <time>2021-07-25T12:02:43Z</time>
      </trkpt>
      <trkpt lat="39.8866690" lon="3.0296160">
        <ele>29.4</ele>
        <time>2021-07-25T12:02:44Z</time>
      </trkpt>
      <trkpt lat="39.8868110" lon="3.0295100">
        <ele>30.0</ele>
        <time>2021-07-25T12:02:49Z</time>
      </trkpt>
      <trkpt lat="39.8870090" lon="3.0293660">
        <ele>30.4</ele>
        <time>2021-07-25T12:02:55Z</time>
      </trkpt>
      <trkpt lat="39.8870430" lon="3.0293370">
        <ele>30.4</ele>
        <time>2021-07-25T12:02:56Z</time>
      </trkpt>
      <trkpt lat="39.8871790" lon="3.0291690">
        <ele>30.0</ele>
        <time>2021-07-25T12:03:01Z</time>
      </trkpt>
      <trkpt lat="39.8872100" lon="3.0290420">
        <ele>30.2</ele>
        <time>2021-07-25T12:03:06Z</time>
      </trkpt>
      <trkpt lat="39.8872130" lon="3.0290460">
        <ele>30.4</ele>
        <time>2021-07-25T12:03:08Z</time>
      </trkpt>
      <trkpt lat="39.8872120" lon="3.0290480">
        <ele>30.4</ele>
        <time>2021-07-25T12:03:09Z</time>
      </trkpt>
      <trkpt lat="39.8872060" lon="3.0290310">
        <ele>30.2</ele>
        <time>2021-07-25T12:03:11Z</time>
      </trkpt>
      <trkpt lat="39.8871740" lon="3.0289810">
        <ele>30.2</ele>
        <time>2021-07-25T12:03:14Z</time>
      </trkpt>
      <trkpt lat="39.8871130" lon="3.0288840">
        <ele>30.4</ele>
        <time>2021-07-25T12:03:17Z</time>
      </trkpt>
      <trkpt lat="39.8870610" lon="3.0288150">
        <ele>30.2</ele>
        <time>2021-07-25T12:03:19Z</time>
      </trkpt>
      <trkpt lat="39.8869040" lon="3.0286020">
        <ele>31.0</ele>
        <time>2021-07-25T12:03:26Z</time>
      </trkpt>
      <trkpt lat="39.8869270" lon="3.0285000">
        <ele>30.6</ele>
        <time>2021-07-25T12:03:29Z</time>
      </trkpt>
      <trkpt lat="39.8868890" lon="3.0283820">
        <ele>30.6</ele>
        <time>2021-07-25T12:03:33Z</time>
      </trkpt>
      <trkpt lat="39.8868100" lon="3.0282340">
        <ele>30.8</ele>
        <time>2021-07-25T12:03:37Z</time>
      </trkpt>
      <trkpt lat="39.8867680" lon="3.0281500">
        <ele>31.2</ele>
        <time>2021-07-25T12:03:39Z</time>
      </trkpt>
      <trkpt lat="39.8867490" lon="3.0281060">
        <ele>31.2</ele>
        <time>2021-07-25T12:03:40Z</time>
      </trkpt>
      <trkpt lat="39.8866940" lon="3.0279800">
        <ele>31.0</ele>
        <time>2021-07-25T12:03:43Z</time>
      </trkpt>
      <trkpt lat="39.8866140" lon="3.0277840">
        <ele>31.0</ele>
        <time>2021-07-25T12:03:48Z</time>
      </trkpt>
      <trkpt lat="39.8866190" lon="3.0275120">
        <ele>31.6</ele>
        <time>2021-07-25T12:04:09Z</time>
      </trkpt>
      <trkpt lat="39.8866090" lon="3.0274100">
        <ele>31.8</ele>
        <time>2021-07-25T12:04:11Z</time>
      </trkpt>
      <trkpt lat="39.8865500" lon="3.0272710">
        <ele>31.6</ele>
        <time>2021-07-25T12:04:14Z</time>
      </trkpt>
      <trkpt lat="39.8865290" lon="3.0272220">
        <ele>31.6</ele>
        <time>2021-07-25T12:04:15Z</time>
      </trkpt>
      <trkpt lat="39.8864270" lon="3.0269470">
        <ele>32.2</ele>
        <time>2021-07-25T12:04:20Z</time>
      </trkpt>
      <trkpt lat="39.8863580" lon="3.0267770">
        <ele>32.2</ele>
        <time>2021-07-25T12:04:23Z</time>
      </trkpt>
      <trkpt lat="39.8861920" lon="3.0263760">
        <ele>32.2</ele>
        <time>2021-07-25T12:04:30Z</time>
      </trkpt>
      <trkpt lat="39.8860200" lon="3.0259530">
        <ele>32.8</ele>
        <time>2021-07-25T12:04:38Z</time>
      </trkpt>
      <trkpt lat="39.8858770" lon="3.0255940">
        <ele>33.2</ele>
        <time>2021-07-25T12:04:45Z</time>
      </trkpt>
      <trkpt lat="39.8858380" lon="3.0254900">
        <ele>33.4</ele>
        <time>2021-07-25T12:04:47Z</time>
      </trkpt>
      <trkpt lat="39.8856870" lon="3.0251250">
        <ele>33.4</ele>
        <time>2021-07-25T12:04:54Z</time>
      </trkpt>
      <trkpt lat="39.8855180" lon="3.0247170">
        <ele>33.8</ele>
        <time>2021-07-25T12:05:02Z</time>
      </trkpt>
      <trkpt lat="39.8853750" lon="3.0243630">
        <ele>34.2</ele>
        <time>2021-07-25T12:05:09Z</time>
      </trkpt>
      <trkpt lat="39.8853160" lon="3.0242090">
        <ele>34.4</ele>
        <time>2021-07-25T12:05:12Z</time>
      </trkpt>
      <trkpt lat="39.8851610" lon="3.0237950">
        <ele>35.0</ele>
        <time>2021-07-25T12:05:20Z</time>
      </trkpt>
      <trkpt lat="39.8851410" lon="3.0237410">
        <ele>35.0</ele>
        <time>2021-07-25T12:05:21Z</time>
      </trkpt>
      <trkpt lat="39.8850060" lon="3.0232830">
        <ele>35.0</ele>
        <time>2021-07-25T12:05:29Z</time>
      </trkpt>
      <trkpt lat="39.8849750" lon="3.0231670">
        <ele>35.4</ele>
        <time>2021-07-25T12:05:31Z</time>
      </trkpt>
      <trkpt lat="39.8848940" lon="3.0228350">
        <ele>35.8</ele>
        <time>2021-07-25T12:05:37Z</time>
      </trkpt>
      <trkpt lat="39.8848210" lon="3.0225000">
        <ele>35.8</ele>
        <time>2021-07-25T12:05:44Z</time>
      </trkpt>
      <trkpt lat="39.8847260" lon="3.0222190">
        <ele>35.6</ele>
        <time>2021-07-25T12:05:50Z</time>
      </trkpt>
      <trkpt lat="39.8847010" lon="3.0221710">
        <ele>35.8</ele>
        <time>2021-07-25T12:05:51Z</time>
      </trkpt>
      <trkpt lat="39.8846200" lon="3.0220230">
        <ele>35.8</ele>
        <time>2021-07-25T12:05:54Z</time>
      </trkpt>
      <trkpt lat="39.8845550" lon="3.0218580">
        <ele>35.8</ele>
        <time>2021-07-25T12:05:57Z</time>
      </trkpt>
      <trkpt lat="39.8845410" lon="3.0218010">
        <ele>35.8</ele>
        <time>2021-07-25T12:05:58Z</time>
      </trkpt>
      <trkpt lat="39.8844850" lon="3.0215650">
        <ele>35.8</ele>
        <time>2021-07-25T12:06:02Z</time>
      </trkpt>
      <trkpt lat="39.8844440" lon="3.0214570">
        <ele>36.0</ele>
        <time>2021-07-25T12:06:04Z</time>
      </trkpt>
      <trkpt lat="39.8844040" lon="3.0213460">
        <ele>36.2</ele>
        <time>2021-07-25T12:06:06Z</time>
      </trkpt>
      <trkpt lat="39.8843020" lon="3.0210080">
        <ele>36.8</ele>
        <time>2021-07-25T12:06:12Z</time>
      </trkpt>
      <trkpt lat="39.8842710" lon="3.0208960">
        <ele>37.0</ele>
        <time>2021-07-25T12:06:14Z</time>
      </trkpt>
      <trkpt lat="39.8842160" lon="3.0206670">
        <ele>37.2</ele>
        <time>2021-07-25T12:06:18Z</time>
      </trkpt>
      <trkpt lat="39.8841460" lon="3.0203130">
        <ele>37.4</ele>
        <time>2021-07-25T12:06:24Z</time>
      </trkpt>
      <trkpt lat="39.8840530" lon="3.0197830">
        <ele>37.8</ele>
        <time>2021-07-25T12:06:33Z</time>
      </trkpt>
      <trkpt lat="39.8839390" lon="3.0191310">
        <ele>38.0</ele>
        <time>2021-07-25T12:06:44Z</time>
      </trkpt>
      <trkpt lat="39.8838960" lon="3.0188950">
        <ele>38.2</ele>
        <time>2021-07-25T12:06:48Z</time>
      </trkpt>
      <trkpt lat="39.8838370" lon="3.0185380">
        <ele>38.8</ele>
        <time>2021-07-25T12:06:54Z</time>
      </trkpt>
      <trkpt lat="39.8837530" lon="3.0180700">
        <ele>39.2</ele>
        <time>2021-07-25T12:07:02Z</time>
      </trkpt>
      <trkpt lat="39.8837310" lon="3.0179550">
        <ele>39.4</ele>
        <time>2021-07-25T12:07:04Z</time>
      </trkpt>
      <trkpt lat="39.8836620" lon="3.0175600">
        <ele>39.8</ele>
        <time>2021-07-25T12:07:11Z</time>
      </trkpt>
      <trkpt lat="39.8835620" lon="3.0169710">
        <ele>40.6</ele>
        <time>2021-07-25T12:07:21Z</time>
      </trkpt>
      <trkpt lat="39.8834970" lon="3.0166070">
        <ele>40.6</ele>
        <time>2021-07-25T12:07:27Z</time>
      </trkpt>
      <trkpt lat="39.8834730" lon="3.0164880">
        <ele>41.0</ele>
        <time>2021-07-25T12:07:29Z</time>
      </trkpt>
      <trkpt lat="39.8833940" lon="3.0160590">
        <ele>41.4</ele>
        <time>2021-07-25T12:07:36Z</time>
      </trkpt>
      <trkpt lat="39.8833620" lon="3.0158730">
        <ele>41.4</ele>
        <time>2021-07-25T12:07:39Z</time>
      </trkpt>
      <trkpt lat="39.8832590" lon="3.0152600">
        <ele>41.6</ele>
        <time>2021-07-25T12:07:49Z</time>
      </trkpt>
      <trkpt lat="39.8831370" lon="3.0145180">
        <ele>42.2</ele>
        <time>2021-07-25T12:08:01Z</time>
      </trkpt>
      <trkpt lat="39.8831000" lon="3.0140190">
        <ele>42.4</ele>
        <time>2021-07-25T12:08:09Z</time>
      </trkpt>
      <trkpt lat="39.8830980" lon="3.0139560">
        <ele>42.4</ele>
        <time>2021-07-25T12:08:10Z</time>
      </trkpt>
      <trkpt lat="39.8830850" lon="3.0132010">
        <ele>43.0</ele>
        <time>2021-07-25T12:08:22Z</time>
      </trkpt>
      <trkpt lat="39.8830840" lon="3.0131380">
        <ele>43.0</ele>
        <time>2021-07-25T12:08:23Z</time>
      </trkpt>
      <trkpt lat="39.8830820" lon="3.0128820">
        <ele>43.6</ele>
        <time>2021-07-25T12:08:27Z</time>
      </trkpt>
      <trkpt lat="39.8830730" lon="3.0124320">
        <ele>43.4</ele>
        <time>2021-07-25T12:08:34Z</time>
      </trkpt>
      <trkpt lat="39.8830680" lon="3.0118500">
        <ele>44.4</ele>
        <time>2021-07-25T12:08:43Z</time>
      </trkpt>
      <trkpt lat="39.8830670" lon="3.0117840">
        <ele>44.4</ele>
        <time>2021-07-25T12:08:44Z</time>
      </trkpt>
      <trkpt lat="39.8830520" lon="3.0111830">
        <ele>45.2</ele>
        <time>2021-07-25T12:08:53Z</time>
      </trkpt>
      <trkpt lat="39.8830450" lon="3.0107110">
        <ele>45.2</ele>
        <time>2021-07-25T12:09:00Z</time>
      </trkpt>
      <trkpt lat="39.8830430" lon="3.0105080">
        <ele>45.6</ele>
        <time>2021-07-25T12:09:03Z</time>
      </trkpt>
      <trkpt lat="39.8830350" lon="3.0099610">
        <ele>45.6</ele>
        <time>2021-07-25T12:09:11Z</time>
      </trkpt>
      <trkpt lat="39.8830260" lon="3.0094180">
        <ele>46.0</ele>
        <time>2021-07-25T12:09:19Z</time>
      </trkpt>
      <trkpt lat="39.8830260" lon="3.0093520">
        <ele>46.0</ele>
        <time>2021-07-25T12:09:20Z</time>
      </trkpt>
      <trkpt lat="39.8830210" lon="3.0090160">
        <ele>46.4</ele>
        <time>2021-07-25T12:09:25Z</time>
      </trkpt>
      <trkpt lat="39.8830110" lon="3.0087520">
        <ele>46.6</ele>
        <time>2021-07-25T12:09:29Z</time>
      </trkpt>
      <trkpt lat="39.8829810" lon="3.0085560">
        <ele>47.0</ele>
        <time>2021-07-25T12:09:32Z</time>
      </trkpt>
      <trkpt lat="39.8829200" lon="3.0083710">
        <ele>47.2</ele>
        <time>2021-07-25T12:09:35Z</time>
      </trkpt>
      <trkpt lat="39.8828680" lon="3.0082520">
        <ele>46.8</ele>
        <time>2021-07-25T12:09:37Z</time>
      </trkpt>
      <trkpt lat="39.8827130" lon="3.0079550">
        <ele>46.8</ele>
        <time>2021-07-25T12:09:42Z</time>
      </trkpt>
      <trkpt lat="39.8825160" lon="3.0075920">
        <ele>46.6</ele>
        <time>2021-07-25T12:09:48Z</time>
      </trkpt>
      <trkpt lat="39.8821980" lon="3.0070120">
        <ele>46.8</ele>
        <time>2021-07-25T12:09:58Z</time>
      </trkpt>
      <trkpt lat="39.8821090" lon="3.0068420">
        <ele>46.8</ele>
        <time>2021-07-25T12:10:01Z</time>
      </trkpt>
      <trkpt lat="39.8818070" lon="3.0062730">
        <ele>47.2</ele>
        <time>2021-07-25T12:10:11Z</time>
      </trkpt>
      <trkpt lat="39.8816260" lon="3.0059340">
        <ele>47.6</ele>
        <time>2021-07-25T12:10:17Z</time>
      </trkpt>
      <trkpt lat="39.8813890" lon="3.0054870">
        <ele>47.8</ele>
        <time>2021-07-25T12:10:25Z</time>
      </trkpt>
      <trkpt lat="39.8811870" lon="3.0051080">
        <ele>48.0</ele>
        <time>2021-07-25T12:10:32Z</time>
      </trkpt>
      <trkpt lat="39.8810340" lon="3.0048410">
        <ele>48.4</ele>
        <time>2021-07-25T12:10:37Z</time>
      </trkpt>
      <trkpt lat="39.8810060" lon="3.0047840">
        <ele>48.4</ele>
        <time>2021-07-25T12:10:38Z</time>
      </trkpt>
      <trkpt lat="39.8808360" lon="3.0044500">
        <ele>48.8</ele>
        <time>2021-07-25T12:10:44Z</time>
      </trkpt>
      <trkpt lat="39.8806090" lon="3.0040750">
        <ele>49.0</ele>
        <time>2021-07-25T12:10:51Z</time>
      </trkpt>
      <trkpt lat="39.8805420" lon="3.0039700">
        <ele>49.0</ele>
        <time>2021-07-25T12:10:53Z</time>
      </trkpt>
      <trkpt lat="39.8804080" lon="3.0037640">
        <ele>49.0</ele>
        <time>2021-07-25T12:10:57Z</time>
      </trkpt>
      <trkpt lat="39.8802820" lon="3.0035600">
        <ele>49.4</ele>
        <time>2021-07-25T12:11:01Z</time>
      </trkpt>
      <trkpt lat="39.8802080" lon="3.0033950">
        <ele>50.0</ele>
        <time>2021-07-25T12:11:04Z</time>
      </trkpt>
      <trkpt lat="39.8800010" lon="3.0029340">
        <ele>50.0</ele>
        <time>2021-07-25T12:11:12Z</time>
      </trkpt>
      <trkpt lat="39.8798270" lon="3.0025790">
        <ele>50.2</ele>
        <time>2021-07-25T12:11:18Z</time>
      </trkpt>
      <trkpt lat="39.8797970" lon="3.0025200">
        <ele>50.4</ele>
        <time>2021-07-25T12:11:19Z</time>
      </trkpt>
      <trkpt lat="39.8795260" lon="3.0019960">
        <ele>51.0</ele>
        <time>2021-07-25T12:11:28Z</time>
      </trkpt>
      <trkpt lat="39.8792180" lon="3.0014080">
        <ele>51.2</ele>
        <time>2021-07-25T12:11:38Z</time>
      </trkpt>
      <trkpt lat="39.8789370" lon="3.0008870">
        <ele>52.0</ele>
        <time>2021-07-25T12:11:47Z</time>
      </trkpt>
      <trkpt lat="39.8788750" lon="3.0007750">
        <ele>52.2</ele>
        <time>2021-07-25T12:11:49Z</time>
      </trkpt>
      <trkpt lat="39.8787310" lon="3.0004930">
        <ele>52.4</ele>
        <time>2021-07-25T12:11:54Z</time>
      </trkpt>
      <trkpt lat="39.8785240" lon="3.0001010">
        <ele>52.6</ele>
        <time>2021-07-25T12:12:01Z</time>
      </trkpt>
      <trkpt lat="39.8784930" lon="3.0000450">
        <ele>52.6</ele>
        <time>2021-07-25T12:12:02Z</time>
      </trkpt>
      <trkpt lat="39.8783430" lon="2.9997590">
        <ele>53.2</ele>
        <time>2021-07-25T12:12:07Z</time>
      </trkpt>
      <trkpt lat="39.8782520" lon="2.9995890">
        <ele>53.4</ele>
        <time>2021-07-25T12:12:10Z</time>
      </trkpt>
      <trkpt lat="39.8780120" lon="2.9991500">
        <ele>53.8</ele>
        <time>2021-07-25T12:12:18Z</time>
      </trkpt>
      <trkpt lat="39.8778440" lon="2.9988050">
        <ele>54.2</ele>
        <time>2021-07-25T12:12:24Z</time>
      </trkpt>
      <trkpt lat="39.8777460" lon="2.9986260">
        <ele>54.2</ele>
        <time>2021-07-25T12:12:27Z</time>
      </trkpt>
      <trkpt lat="39.8776200" lon="2.9983980">
        <ele>54.4</ele>
        <time>2021-07-25T12:12:31Z</time>
      </trkpt>
      <trkpt lat="39.8774040" lon="2.9979910">
        <ele>55.0</ele>
        <time>2021-07-25T12:12:38Z</time>
      </trkpt>
      <trkpt lat="39.8772510" lon="2.9976930">
        <ele>55.0</ele>
        <time>2021-07-25T12:12:43Z</time>
      </trkpt>
      <trkpt lat="39.8771880" lon="2.9975780">
        <ele>55.2</ele>
        <time>2021-07-25T12:12:45Z</time>
      </trkpt>
      <trkpt lat="39.8770680" lon="2.9973510">
        <ele>55.4</ele>
        <time>2021-07-25T12:12:49Z</time>
      </trkpt>
      <trkpt lat="39.8767710" lon="2.9967920">
        <ele>55.6</ele>
        <time>2021-07-25T12:12:59Z</time>
      </trkpt>
      <trkpt lat="39.8764780" lon="2.9962380">
        <ele>56.4</ele>
        <time>2021-07-25T12:13:09Z</time>
      </trkpt>
      <trkpt lat="39.8764490" lon="2.9961840">
        <ele>56.6</ele>
        <time>2021-07-25T12:13:10Z</time>
      </trkpt>
      <trkpt lat="39.8761570" lon="2.9956330">
        <ele>56.6</ele>
        <time>2021-07-25T12:13:20Z</time>
      </trkpt>
      <trkpt lat="39.8759860" lon="2.9953090">
        <ele>57.4</ele>
        <time>2021-07-25T12:13:26Z</time>
      </trkpt>
      <trkpt lat="39.8758410" lon="2.9950400">
        <ele>58.0</ele>
        <time>2021-07-25T12:13:31Z</time>
      </trkpt>
      <trkpt lat="39.8757580" lon="2.9948810">
        <ele>58.4</ele>
        <time>2021-07-25T12:13:34Z</time>
      </trkpt>
      <trkpt lat="39.8755950" lon="2.9945740">
        <ele>59.0</ele>
        <time>2021-07-25T12:13:40Z</time>
      </trkpt>
      <trkpt lat="39.8754900" lon="2.9943770">
        <ele>59.4</ele>
        <time>2021-07-25T12:13:44Z</time>
      </trkpt>
      <trkpt lat="39.8753870" lon="2.9941960">
        <ele>60.6</ele>
        <time>2021-07-25T12:13:48Z</time>
      </trkpt>
      <trkpt lat="39.8752670" lon="2.9939650">
        <ele>61.8</ele>
        <time>2021-07-25T12:13:53Z</time>
      </trkpt>
      <trkpt lat="39.8752140" lon="2.9938820">
        <ele>62.0</ele>
        <time>2021-07-25T12:13:55Z</time>
      </trkpt>
      <trkpt lat="39.8750960" lon="2.9936600">
        <ele>63.0</ele>
        <time>2021-07-25T12:14:00Z</time>
      </trkpt>
      <trkpt lat="39.8750470" lon="2.9935740">
        <ele>63.2</ele>
        <time>2021-07-25T12:14:02Z</time>
      </trkpt>
      <trkpt lat="39.8750230" lon="2.9935310">
        <ele>63.4</ele>
        <time>2021-07-25T12:14:03Z</time>
      </trkpt>
      <trkpt lat="39.8749750" lon="2.9934410">
        <ele>64.0</ele>
        <time>2021-07-25T12:14:05Z</time>
      </trkpt>
      <trkpt lat="39.8749270" lon="2.9933520">
        <ele>64.2</ele>
        <time>2021-07-25T12:14:07Z</time>
      </trkpt>
      <trkpt lat="39.8748890" lon="2.9932550">
        <ele>64.4</ele>
        <time>2021-07-25T12:14:09Z</time>
      </trkpt>
      <trkpt lat="39.8747990" lon="2.9929300">
        <ele>65.0</ele>
        <time>2021-07-25T12:14:15Z</time>
      </trkpt>
      <trkpt lat="39.8747500" lon="2.9926770">
        <ele>64.8</ele>
        <time>2021-07-25T12:14:19Z</time>
      </trkpt>
      <trkpt lat="39.8746870" lon="2.9924140">
        <ele>65.4</ele>
        <time>2021-07-25T12:14:23Z</time>
      </trkpt>
      <trkpt lat="39.8745930" lon="2.9920090">
        <ele>65.4</ele>
        <time>2021-07-25T12:14:29Z</time>
      </trkpt>
      <trkpt lat="39.8745680" lon="2.9918710">
        <ele>65.4</ele>
        <time>2021-07-25T12:14:31Z</time>
      </trkpt>
      <trkpt lat="39.8745240" lon="2.9916650">
        <ele>65.4</ele>
        <time>2021-07-25T12:14:34Z</time>
      </trkpt>
      <trkpt lat="39.8744050" lon="2.9910910">
        <ele>65.6</ele>
        <time>2021-07-25T12:14:42Z</time>
      </trkpt>
      <trkpt lat="39.8742980" lon="2.9905860">
        <ele>65.8</ele>
        <time>2021-07-25T12:14:49Z</time>
      </trkpt>
      <trkpt lat="39.8742830" lon="2.9905160">
        <ele>66.0</ele>
        <time>2021-07-25T12:14:50Z</time>
      </trkpt>
      <trkpt lat="39.8741820" lon="2.9901050">
        <ele>66.0</ele>
        <time>2021-07-25T12:14:56Z</time>
      </trkpt>
      <trkpt lat="39.8741590" lon="2.9900400">
        <ele>66.0</ele>
        <time>2021-07-25T12:14:57Z</time>
      </trkpt>
      <trkpt lat="39.8739800" lon="2.9895540">
        <ele>66.6</ele>
        <time>2021-07-25T12:15:04Z</time>
      </trkpt>
      <trkpt lat="39.8737720" lon="2.9890520">
        <ele>66.8</ele>
        <time>2021-07-25T12:15:11Z</time>
      </trkpt>
      <trkpt lat="39.8735500" lon="2.9884440">
        <ele>66.6</ele>
        <time>2021-07-25T12:15:19Z</time>
      </trkpt>
      <trkpt lat="39.8733870" lon="2.9880160">
        <ele>66.8</ele>
        <time>2021-07-25T12:15:25Z</time>
      </trkpt>
      <trkpt lat="39.8733150" lon="2.9878110">
        <ele>67.0</ele>
        <time>2021-07-25T12:15:28Z</time>
      </trkpt>
      <trkpt lat="39.8731910" lon="2.9874840">
        <ele>67.4</ele>
        <time>2021-07-25T12:15:33Z</time>
      </trkpt>
      <trkpt lat="39.8729920" lon="2.9869830">
        <ele>68.0</ele>
        <time>2021-07-25T12:15:41Z</time>
      </trkpt>
      <trkpt lat="39.8729440" lon="2.9868600">
        <ele>68.2</ele>
        <time>2021-07-25T12:15:43Z</time>
      </trkpt>
      <trkpt lat="39.8728550" lon="2.9866140">
        <ele>69.4</ele>
        <time>2021-07-25T12:15:47Z</time>
      </trkpt>
      <trkpt lat="39.8728110" lon="2.9864940">
        <ele>69.6</ele>
        <time>2021-07-25T12:15:49Z</time>
      </trkpt>
      <trkpt lat="39.8726810" lon="2.9861410">
        <ele>70.6</ele>
        <time>2021-07-25T12:15:55Z</time>
      </trkpt>
      <trkpt lat="39.8726600" lon="2.9860830">
        <ele>70.6</ele>
        <time>2021-07-25T12:15:56Z</time>
      </trkpt>
      <trkpt lat="39.8725050" lon="2.9856640">
        <ele>71.0</ele>
        <time>2021-07-25T12:16:03Z</time>
      </trkpt>
      <trkpt lat="39.8724850" lon="2.9856000">
        <ele>71.0</ele>
        <time>2021-07-25T12:16:04Z</time>
      </trkpt>
      <trkpt lat="39.8724160" lon="2.9854190">
        <ele>71.0</ele>
        <time>2021-07-25T12:16:07Z</time>
      </trkpt>
      <trkpt lat="39.8723910" lon="2.9853620">
        <ele>71.2</ele>
        <time>2021-07-25T12:16:08Z</time>
      </trkpt>
      <trkpt lat="39.8722260" lon="2.9849250">
        <ele>71.4</ele>
        <time>2021-07-25T12:16:15Z</time>
      </trkpt>
      <trkpt lat="39.8721830" lon="2.9848070">
        <ele>71.6</ele>
        <time>2021-07-25T12:16:17Z</time>
      </trkpt>
      <trkpt lat="39.8721410" lon="2.9846800">
        <ele>71.6</ele>
        <time>2021-07-25T12:16:19Z</time>
      </trkpt>
      <trkpt lat="39.8721120" lon="2.9846100">
        <ele>71.4</ele>
        <time>2021-07-25T12:16:20Z</time>
      </trkpt>
      <trkpt lat="39.8719880" lon="2.9843090">
        <ele>70.6</ele>
        <time>2021-07-25T12:16:24Z</time>
      </trkpt>
      <trkpt lat="39.8719310" lon="2.9841530">
        <ele>70.4</ele>
        <time>2021-07-25T12:16:26Z</time>
      </trkpt>
      <trkpt lat="39.8719010" lon="2.9840760">
        <ele>70.2</ele>
        <time>2021-07-25T12:16:27Z</time>
      </trkpt>
      <trkpt lat="39.8717130" lon="2.9836110">
        <ele>70.0</ele>
        <time>2021-07-25T12:16:33Z</time>
      </trkpt>
      <trkpt lat="39.8715080" lon="2.9832930">
        <ele>69.8</ele>
        <time>2021-07-25T12:16:38Z</time>
      </trkpt>
      <trkpt lat="39.8714140" lon="2.9831820">
        <ele>69.2</ele>
        <time>2021-07-25T12:16:40Z</time>
      </trkpt>
      <trkpt lat="39.8713120" lon="2.9830550">
        <ele>69.0</ele>
        <time>2021-07-25T12:16:42Z</time>
      </trkpt>
      <trkpt lat="39.8709980" lon="2.9826770">
        <ele>69.4</ele>
        <time>2021-07-25T12:16:48Z</time>
      </trkpt>
      <trkpt lat="39.8707180" lon="2.9823170">
        <ele>70.0</ele>
        <time>2021-07-25T12:16:54Z</time>
      </trkpt>
      <trkpt lat="39.8705830" lon="2.9821650">
        <ele>70.4</ele>
        <time>2021-07-25T12:16:57Z</time>
      </trkpt>
      <trkpt lat="39.8704930" lon="2.9820590">
        <ele>70.6</ele>
        <time>2021-07-25T12:16:59Z</time>
      </trkpt>
      <trkpt lat="39.8704530" lon="2.9819960">
        <ele>70.6</ele>
        <time>2021-07-25T12:17:00Z</time>
      </trkpt>
      <trkpt lat="39.8703060" lon="2.9817240">
        <ele>70.6</ele>
        <time>2021-07-25T12:17:04Z</time>
      </trkpt>
      <trkpt lat="39.8701240" lon="2.9812860">
        <ele>71.4</ele>
        <time>2021-07-25T12:17:10Z</time>
      </trkpt>
      <trkpt lat="39.8700950" lon="2.9812150">
        <ele>71.8</ele>
        <time>2021-07-25T12:17:11Z</time>
      </trkpt>
      <trkpt lat="39.8699490" lon="2.9808630">
        <ele>72.4</ele>
        <time>2021-07-25T12:17:16Z</time>
      </trkpt>
      <trkpt lat="39.8699150" lon="2.9807930">
        <ele>72.2</ele>
        <time>2021-07-25T12:17:17Z</time>
      </trkpt>
      <trkpt lat="39.8698830" lon="2.9807200">
        <ele>72.2</ele>
        <time>2021-07-25T12:17:18Z</time>
      </trkpt>
      <trkpt lat="39.8698130" lon="2.9805760">
        <ele>72.0</ele>
        <time>2021-07-25T12:17:20Z</time>
      </trkpt>
      <trkpt lat="39.8697800" lon="2.9805070">
        <ele>72.0</ele>
        <time>2021-07-25T12:17:21Z</time>
      </trkpt>
      <trkpt lat="39.8695970" lon="2.9800970">
        <ele>72.4</ele>
        <time>2021-07-25T12:17:27Z</time>
      </trkpt>
      <trkpt lat="39.8694980" lon="2.9798860">
        <ele>72.6</ele>
        <time>2021-07-25T12:17:30Z</time>
      </trkpt>
      <trkpt lat="39.8693720" lon="2.9796010">
        <ele>73.4</ele>
        <time>2021-07-25T12:17:34Z</time>
      </trkpt>
      <trkpt lat="39.8693460" lon="2.9795290">
        <ele>73.4</ele>
        <time>2021-07-25T12:17:35Z</time>
      </trkpt>
      <trkpt lat="39.8693220" lon="2.9794540">
        <ele>73.6</ele>
        <time>2021-07-25T12:17:36Z</time>
      </trkpt>
      <trkpt lat="39.8692800" lon="2.9792300">
        <ele>73.8</ele>
        <time>2021-07-25T12:17:39Z</time>
      </trkpt>
      <trkpt lat="39.8691650" lon="2.9787100">
        <ele>74.0</ele>
        <time>2021-07-25T12:17:46Z</time>
      </trkpt>
      <trkpt lat="39.8690270" lon="2.9780880">
        <ele>74.8</ele>
        <time>2021-07-25T12:17:54Z</time>
      </trkpt>
      <trkpt lat="39.8690100" lon="2.9780100">
        <ele>74.8</ele>
        <time>2021-07-25T12:17:55Z</time>
      </trkpt>
      <trkpt lat="39.8689010" lon="2.9775570">
        <ele>75.2</ele>
        <time>2021-07-25T12:18:01Z</time>
      </trkpt>
      <trkpt lat="39.8687570" lon="2.9769610">
        <ele>75.2</ele>
        <time>2021-07-25T12:18:09Z</time>
      </trkpt>
      <trkpt lat="39.8687060" lon="2.9767380">
        <ele>75.8</ele>
        <time>2021-07-25T12:18:12Z</time>
      </trkpt>
      <trkpt lat="39.8686540" lon="2.9765230">
        <ele>76.2</ele>
        <time>2021-07-25T12:18:15Z</time>
      </trkpt>
      <trkpt lat="39.8685950" lon="2.9762980">
        <ele>76.8</ele>
        <time>2021-07-25T12:18:18Z</time>
      </trkpt>
      <trkpt lat="39.8685240" lon="2.9759880">
        <ele>77.0</ele>
        <time>2021-07-25T12:18:22Z</time>
      </trkpt>
      <trkpt lat="39.8684090" lon="2.9754560">
        <ele>77.6</ele>
        <time>2021-07-25T12:18:29Z</time>
      </trkpt>
      <trkpt lat="39.8683180" lon="2.9750810">
        <ele>78.0</ele>
        <time>2021-07-25T12:18:34Z</time>
      </trkpt>
      <trkpt lat="39.8682850" lon="2.9749320">
        <ele>78.0</ele>
        <time>2021-07-25T12:18:36Z</time>
      </trkpt>
      <trkpt lat="39.8681530" lon="2.9743610">
        <ele>78.4</ele>
        <time>2021-07-25T12:18:44Z</time>
      </trkpt>
      <trkpt lat="39.8680280" lon="2.9738980">
        <ele>78.6</ele>
        <time>2021-07-25T12:18:51Z</time>
      </trkpt>
      <trkpt lat="39.8680110" lon="2.9738300">
        <ele>79.0</ele>
        <time>2021-07-25T12:18:52Z</time>
      </trkpt>
      <trkpt lat="39.8678960" lon="2.9733550">
        <ele>80.0</ele>
        <time>2021-07-25T12:18:59Z</time>
      </trkpt>
      <trkpt lat="39.8678820" lon="2.9732860">
        <ele>80.2</ele>
        <time>2021-07-25T12:19:00Z</time>
      </trkpt>
      <trkpt lat="39.8678110" lon="2.9730100">
        <ele>81.2</ele>
        <time>2021-07-25T12:19:04Z</time>
      </trkpt>
      <trkpt lat="39.8677950" lon="2.9729380">
        <ele>81.2</ele>
        <time>2021-07-25T12:19:05Z</time>
      </trkpt>
      <trkpt lat="39.8677520" lon="2.9727240">
        <ele>81.2</ele>
        <time>2021-07-25T12:19:08Z</time>
      </trkpt>
      <trkpt lat="39.8676670" lon="2.9723740">
        <ele>81.6</ele>
        <time>2021-07-25T12:19:13Z</time>
      </trkpt>
      <trkpt lat="39.8676260" lon="2.9721660">
        <ele>81.6</ele>
        <time>2021-07-25T12:19:16Z</time>
      </trkpt>
      <trkpt lat="39.8676150" lon="2.9719500">
        <ele>82.0</ele>
        <time>2021-07-25T12:19:19Z</time>
      </trkpt>
      <trkpt lat="39.8676210" lon="2.9718800">
        <ele>82.2</ele>
        <time>2021-07-25T12:19:20Z</time>
      </trkpt>
      <trkpt lat="39.8676450" lon="2.9717360">
        <ele>82.4</ele>
        <time>2021-07-25T12:19:22Z</time>
      </trkpt>
      <trkpt lat="39.8676830" lon="2.9715900">
        <ele>82.2</ele>
        <time>2021-07-25T12:19:24Z</time>
      </trkpt>
      <trkpt lat="39.8677680" lon="2.9712820">
        <ele>83.4</ele>
        <time>2021-07-25T12:19:28Z</time>
      </trkpt>
      <trkpt lat="39.8678320" lon="2.9710640">
        <ele>83.8</ele>
        <time>2021-07-25T12:19:31Z</time>
      </trkpt>
      <trkpt lat="39.8679240" lon="2.9707030">
        <ele>84.4</ele>
        <time>2021-07-25T12:19:36Z</time>
      </trkpt>
      <trkpt lat="39.8679560" lon="2.9705680">
        <ele>84.4</ele>
        <time>2021-07-25T12:19:38Z</time>
      </trkpt>
      <trkpt lat="39.8679780" lon="2.9704960">
        <ele>84.4</ele>
        <time>2021-07-25T12:19:39Z</time>
      </trkpt>
      <trkpt lat="39.8680570" lon="2.9701990">
        <ele>84.6</ele>
        <time>2021-07-25T12:19:43Z</time>
      </trkpt>
      <trkpt lat="39.8681960" lon="2.9695660">
        <ele>85.2</ele>
        <time>2021-07-25T12:19:51Z</time>
      </trkpt>
      <trkpt lat="39.8682150" lon="2.9694900">
        <ele>85.6</ele>
        <time>2021-07-25T12:19:52Z</time>
      </trkpt>
      <trkpt lat="39.8683350" lon="2.9689640">
        <ele>85.4</ele>
        <time>2021-07-25T12:19:59Z</time>
      </trkpt>
      <trkpt lat="39.8684580" lon="2.9684320">
        <ele>85.8</ele>
        <time>2021-07-25T12:20:06Z</time>
      </trkpt>
      <trkpt lat="39.8685640" lon="2.9679670">
        <ele>86.4</ele>
        <time>2021-07-25T12:20:12Z</time>
      </trkpt>
      <trkpt lat="39.8686130" lon="2.9677440">
        <ele>86.8</ele>
        <time>2021-07-25T12:20:15Z</time>
      </trkpt>
      <trkpt lat="39.8686610" lon="2.9675190">
        <ele>87.4</ele>
        <time>2021-07-25T12:20:18Z</time>
      </trkpt>
      <trkpt lat="39.8687540" lon="2.9671660">
        <ele>88.0</ele>
        <time>2021-07-25T12:20:23Z</time>
      </trkpt>
      <trkpt lat="39.8688770" lon="2.9666760">
        <ele>88.2</ele>
        <time>2021-07-25T12:20:30Z</time>
      </trkpt>
      <trkpt lat="39.8689530" lon="2.9663920">
        <ele>88.6</ele>
        <time>2021-07-25T12:20:34Z</time>
      </trkpt>
      <trkpt lat="39.8690040" lon="2.9661580">
        <ele>88.6</ele>
        <time>2021-07-25T12:20:37Z</time>
      </trkpt>
      <trkpt lat="39.8690400" lon="2.9660010">
        <ele>88.4</ele>
        <time>2021-07-25T12:20:39Z</time>
      </trkpt>
      <trkpt lat="39.8690930" lon="2.9657620">
        <ele>88.4</ele>
        <time>2021-07-25T12:20:42Z</time>
      </trkpt>
      <trkpt lat="39.8692170" lon="2.9652220">
        <ele>89.4</ele>
        <time>2021-07-25T12:20:49Z</time>
      </trkpt>
      <trkpt lat="39.8692700" lon="2.9649940">
        <ele>89.8</ele>
        <time>2021-07-25T12:20:52Z</time>
      </trkpt>
      <trkpt lat="39.8693710" lon="2.9645460">
        <ele>90.6</ele>
        <time>2021-07-25T12:20:58Z</time>
      </trkpt>
      <trkpt lat="39.8694190" lon="2.9643210">
        <ele>90.8</ele>
        <time>2021-07-25T12:21:01Z</time>
      </trkpt>
      <trkpt lat="39.8694520" lon="2.9641760">
        <ele>90.4</ele>
        <time>2021-07-25T12:21:03Z</time>
      </trkpt>
      <trkpt lat="39.8694820" lon="2.9640260">
        <ele>90.0</ele>
        <time>2021-07-25T12:21:05Z</time>
      </trkpt>
      <trkpt lat="39.8696040" lon="2.9635120">
        <ele>90.6</ele>
        <time>2021-07-25T12:21:12Z</time>
      </trkpt>
      <trkpt lat="39.8696920" lon="2.9631430">
        <ele>91.6</ele>
        <time>2021-07-25T12:21:17Z</time>
      </trkpt>
      <trkpt lat="39.8697240" lon="2.9629930">
        <ele>91.8</ele>
        <time>2021-07-25T12:21:19Z</time>
      </trkpt>
      <trkpt lat="39.8697580" lon="2.9628520">
        <ele>92.0</ele>
        <time>2021-07-25T12:21:21Z</time>
      </trkpt>
      <trkpt lat="39.8697960" lon="2.9627170">
        <ele>92.4</ele>
        <time>2021-07-25T12:21:23Z</time>
      </trkpt>
      <trkpt lat="39.8698320" lon="2.9625770">
        <ele>93.0</ele>
        <time>2021-07-25T12:21:25Z</time>
      </trkpt>
      <trkpt lat="39.8698850" lon="2.9622890">
        <ele>93.6</ele>
        <time>2021-07-25T12:21:29Z</time>
      </trkpt>
      <trkpt lat="39.8698900" lon="2.9622120">
        <ele>93.6</ele>
        <time>2021-07-25T12:21:30Z</time>
      </trkpt>
      <trkpt lat="39.8698590" lon="2.9617280">
        <ele>93.0</ele>
        <time>2021-07-25T12:21:36Z</time>
      </trkpt>
      <trkpt lat="39.8697870" lon="2.9609780">
        <ele>93.4</ele>
        <time>2021-07-25T12:21:45Z</time>
      </trkpt>
      <trkpt lat="39.8697640" lon="2.9607350">
        <ele>93.6</ele>
        <time>2021-07-25T12:21:48Z</time>
      </trkpt>
      <trkpt lat="39.8697180" lon="2.9602680">
        <ele>94.2</ele>
        <time>2021-07-25T12:21:54Z</time>
      </trkpt>
      <trkpt lat="39.8696960" lon="2.9600430">
        <ele>94.6</ele>
        <time>2021-07-25T12:21:57Z</time>
      </trkpt>
      <trkpt lat="39.8696350" lon="2.9593800">
        <ele>95.0</ele>
        <time>2021-07-25T12:22:06Z</time>
      </trkpt>
      <trkpt lat="39.8695940" lon="2.9589390">
        <ele>95.2</ele>
        <time>2021-07-25T12:22:12Z</time>
      </trkpt>
      <trkpt lat="39.8695420" lon="2.9584210">
        <ele>95.6</ele>
        <time>2021-07-25T12:22:19Z</time>
      </trkpt>
      <trkpt lat="39.8694810" lon="2.9578090">
        <ele>96.2</ele>
        <time>2021-07-25T12:22:27Z</time>
      </trkpt>
      <trkpt lat="39.8694750" lon="2.9577310">
        <ele>96.2</ele>
        <time>2021-07-25T12:22:28Z</time>
      </trkpt>
      <trkpt lat="39.8694460" lon="2.9573550">
        <ele>97.2</ele>
        <time>2021-07-25T12:22:33Z</time>
      </trkpt>
      <trkpt lat="39.8693850" lon="2.9568060">
        <ele>98.2</ele>
        <time>2021-07-25T12:22:41Z</time>
      </trkpt>
      <trkpt lat="39.8693690" lon="2.9567410">
        <ele>98.2</ele>
        <time>2021-07-25T12:22:42Z</time>
      </trkpt>
      <trkpt lat="39.8692720" lon="2.9564170">
        <ele>98.8</ele>
        <time>2021-07-25T12:22:47Z</time>
      </trkpt>
      <trkpt lat="39.8691240" lon="2.9559450">
        <ele>99.0</ele>
        <time>2021-07-25T12:22:54Z</time>
      </trkpt>
      <trkpt lat="39.8690770" lon="2.9558170">
        <ele>99.2</ele>
        <time>2021-07-25T12:22:56Z</time>
      </trkpt>
      <trkpt lat="39.8689240" lon="2.9553650">
        <ele>99.2</ele>
        <time>2021-07-25T12:23:03Z</time>
      </trkpt>
      <trkpt lat="39.8687970" lon="2.9549770">
        <ele>99.6</ele>
        <time>2021-07-25T12:23:09Z</time>
      </trkpt>
      <trkpt lat="39.8686350" lon="2.9544030">
        <ele>99.8</ele>
        <time>2021-07-25T12:23:17Z</time>
      </trkpt>
      <trkpt lat="39.8684980" lon="2.9539650">
        <ele>99.6</ele>
        <time>2021-07-25T12:23:23Z</time>
      </trkpt>
      <trkpt lat="39.8683850" lon="2.9535340">
        <ele>100.0</ele>
        <time>2021-07-25T12:23:29Z</time>
      </trkpt>
      <trkpt lat="39.8683730" lon="2.9534620">
        <ele>100.0</ele>
        <time>2021-07-25T12:23:30Z</time>
      </trkpt>
      <trkpt lat="39.8683610" lon="2.9533180">
        <ele>100.4</ele>
        <time>2021-07-25T12:23:32Z</time>
      </trkpt>
      <trkpt lat="39.8683700" lon="2.9531100">
        <ele>100.8</ele>
        <time>2021-07-25T12:23:35Z</time>
      </trkpt>
      <trkpt lat="39.8684180" lon="2.9526310">
        <ele>101.2</ele>
        <time>2021-07-25T12:23:42Z</time>
      </trkpt>
      <trkpt lat="39.8684240" lon="2.9525690">
        <ele>101.2</ele>
        <time>2021-07-25T12:23:43Z</time>
      </trkpt>
      <trkpt lat="39.8684440" lon="2.9522990">
        <ele>102.2</ele>
        <time>2021-07-25T12:23:47Z</time>
      </trkpt>
      <trkpt lat="39.8684530" lon="2.9522360">
        <ele>102.2</ele>
        <time>2021-07-25T12:23:48Z</time>
      </trkpt>
      <trkpt lat="39.8684640" lon="2.9521080">
        <ele>102.4</ele>
        <time>2021-07-25T12:23:50Z</time>
      </trkpt>
      <trkpt lat="39.8684790" lon="2.9519210">
        <ele>102.8</ele>
        <time>2021-07-25T12:23:53Z</time>
      </trkpt>
      <trkpt lat="39.8684920" lon="2.9517350">
        <ele>103.4</ele>
        <time>2021-07-25T12:23:56Z</time>
      </trkpt>
      <trkpt lat="39.8685050" lon="2.9515610">
        <ele>103.8</ele>
        <time>2021-07-25T12:23:59Z</time>
      </trkpt>
      <trkpt lat="39.8685210" lon="2.9514510">
        <ele>104.0</ele>
        <time>2021-07-25T12:24:01Z</time>
      </trkpt>
      <trkpt lat="39.8685290" lon="2.9513970">
        <ele>104.2</ele>
        <time>2021-07-25T12:24:02Z</time>
      </trkpt>
      <trkpt lat="39.8685330" lon="2.9513400">
        <ele>104.4</ele>
        <time>2021-07-25T12:24:03Z</time>
      </trkpt>
      <trkpt lat="39.8685410" lon="2.9512850">
        <ele>104.6</ele>
        <time>2021-07-25T12:24:04Z</time>
      </trkpt>
      <trkpt lat="39.8685630" lon="2.9511820">
        <ele>105.2</ele>
        <time>2021-07-25T12:24:06Z</time>
      </trkpt>
      <trkpt lat="39.8685770" lon="2.9511320">
        <ele>105.4</ele>
        <time>2021-07-25T12:24:07Z</time>
      </trkpt>
      <trkpt lat="39.8686740" lon="2.9508970">
        <ele>106.4</ele>
        <time>2021-07-25T12:24:12Z</time>
      </trkpt>
      <trkpt lat="39.8687750" lon="2.9506780">
        <ele>107.4</ele>
        <time>2021-07-25T12:24:17Z</time>
      </trkpt>
      <trkpt lat="39.8688160" lon="2.9506020">
        <ele>108.0</ele>
        <time>2021-07-25T12:24:19Z</time>
      </trkpt>
      <trkpt lat="39.8688820" lon="2.9504460">
        <ele>108.6</ele>
        <time>2021-07-25T12:24:23Z</time>
      </trkpt>
      <trkpt lat="39.8688970" lon="2.9504050">
        <ele>109.0</ele>
        <time>2021-07-25T12:24:24Z</time>
      </trkpt>
      <trkpt lat="39.8689230" lon="2.9503160">
        <ele>109.6</ele>
        <time>2021-07-25T12:24:26Z</time>
      </trkpt>
      <trkpt lat="39.8689660" lon="2.9501410">
        <ele>110.6</ele>
        <time>2021-07-25T12:24:30Z</time>
      </trkpt>
      <trkpt lat="39.8689750" lon="2.9500980">
        <ele>110.6</ele>
        <time>2021-07-25T12:24:31Z</time>
      </trkpt>
      <trkpt lat="39.8690200" lon="2.9499400">
        <ele>111.8</ele>
        <time>2021-07-25T12:24:35Z</time>
      </trkpt>
      <trkpt lat="39.8690440" lon="2.9498690">
        <ele>112.4</ele>
        <time>2021-07-25T12:24:37Z</time>
      </trkpt>
      <trkpt lat="39.8690720" lon="2.9497580">
        <ele>112.8</ele>
        <time>2021-07-25T12:24:40Z</time>
      </trkpt>
      <trkpt lat="39.8691040" lon="2.9496050">
        <ele>114.0</ele>
        <time>2021-07-25T12:24:44Z</time>
      </trkpt>
      <trkpt lat="39.8691120" lon="2.9495680">
        <ele>114.2</ele>
        <time>2021-07-25T12:24:45Z</time>
      </trkpt>
      <trkpt lat="39.8691550" lon="2.9493640">
        <ele>115.0</ele>
        <time>2021-07-25T12:24:50Z</time>
      </trkpt>
      <trkpt lat="39.8691650" lon="2.9493240">
        <ele>115.2</ele>
        <time>2021-07-25T12:24:51Z</time>
      </trkpt>
      <trkpt lat="39.8691970" lon="2.9491480">
        <ele>116.2</ele>
        <time>2021-07-25T12:24:55Z</time>
      </trkpt>
      <trkpt lat="39.8692080" lon="2.9491090">
        <ele>116.8</ele>
        <time>2021-07-25T12:24:56Z</time>
      </trkpt>
      <trkpt lat="39.8692330" lon="2.9490350">
        <ele>117.4</ele>
        <time>2021-07-25T12:24:58Z</time>
      </trkpt>
      <trkpt lat="39.8692700" lon="2.9488710">
        <ele>118.6</ele>
        <time>2021-07-25T12:25:02Z</time>
      </trkpt>
      <trkpt lat="39.8692810" lon="2.9486340">
        <ele>119.6</ele>
        <time>2021-07-25T12:25:08Z</time>
      </trkpt>
      <trkpt lat="39.8692510" lon="2.9484320">
        <ele>120.2</ele>
        <time>2021-07-25T12:25:13Z</time>
      </trkpt>
      <trkpt lat="39.8692230" lon="2.9482740">
        <ele>121.0</ele>
        <time>2021-07-25T12:25:17Z</time>
      </trkpt>
      <trkpt lat="39.8692160" lon="2.9481820">
        <ele>121.4</ele>
        <time>2021-07-25T12:25:19Z</time>
      </trkpt>
      <trkpt lat="39.8692090" lon="2.9480450">
        <ele>122.0</ele>
        <time>2021-07-25T12:25:22Z</time>
      </trkpt>
      <trkpt lat="39.8691990" lon="2.9478760">
        <ele>122.8</ele>
        <time>2021-07-25T12:25:26Z</time>
      </trkpt>
      <trkpt lat="39.8691980" lon="2.9478330">
        <ele>123.2</ele>
        <time>2021-07-25T12:25:27Z</time>
      </trkpt>
      <trkpt lat="39.8691840" lon="2.9475690">
        <ele>124.4</ele>
        <time>2021-07-25T12:25:33Z</time>
      </trkpt>
      <trkpt lat="39.8691620" lon="2.9473490">
        <ele>125.2</ele>
        <time>2021-07-25T12:25:38Z</time>
      </trkpt>
      <trkpt lat="39.8691660" lon="2.9473030">
        <ele>125.4</ele>
        <time>2021-07-25T12:25:39Z</time>
      </trkpt>
      <trkpt lat="39.8691620" lon="2.9471840">
        <ele>126.2</ele>
        <time>2021-07-25T12:25:42Z</time>
      </trkpt>
      <trkpt lat="39.8691710" lon="2.9470500">
        <ele>126.8</ele>
        <time>2021-07-25T12:25:45Z</time>
      </trkpt>
      <trkpt lat="39.8691790" lon="2.9469640">
        <ele>127.4</ele>
        <time>2021-07-25T12:25:47Z</time>
      </trkpt>
      <trkpt lat="39.8692080" lon="2.9468010">
        <ele>127.8</ele>
        <time>2021-07-25T12:25:51Z</time>
      </trkpt>
      <trkpt lat="39.8692360" lon="2.9467230">
        <ele>128.4</ele>
        <time>2021-07-25T12:25:53Z</time>
      </trkpt>
      <trkpt lat="39.8692870" lon="2.9466290">
        <ele>129.4</ele>
        <time>2021-07-25T12:25:56Z</time>
      </trkpt>
      <trkpt lat="39.8693030" lon="2.9466000">
        <ele>129.6</ele>
        <time>2021-07-25T12:25:57Z</time>
      </trkpt>
      <trkpt lat="39.8693630" lon="2.9464890">
        <ele>130.6</ele>
        <time>2021-07-25T12:26:01Z</time>
      </trkpt>
      <trkpt lat="39.8693750" lon="2.9464590">
        <ele>130.8</ele>
        <time>2021-07-25T12:26:02Z</time>
      </trkpt>
      <trkpt lat="39.8694160" lon="2.9463180">
        <ele>131.4</ele>
        <time>2021-07-25T12:26:06Z</time>
      </trkpt>
      <trkpt lat="39.8694250" lon="2.9462400">
        <ele>132.0</ele>
        <time>2021-07-25T12:26:08Z</time>
      </trkpt>
      <trkpt lat="39.8694080" lon="2.9461310">
        <ele>132.6</ele>
        <time>2021-07-25T12:26:11Z</time>
      </trkpt>
      <trkpt lat="39.8693750" lon="2.9460190">
        <ele>133.6</ele>
        <time>2021-07-25T12:26:14Z</time>
      </trkpt>
      <trkpt lat="39.8693610" lon="2.9459850">
        <ele>133.8</ele>
        <time>2021-07-25T12:26:15Z</time>
      </trkpt>
      <trkpt lat="39.8692570" lon="2.9458560">
        <ele>134.6</ele>
        <time>2021-07-25T12:26:20Z</time>
      </trkpt>
      <trkpt lat="39.8692330" lon="2.9458380">
        <ele>134.8</ele>
        <time>2021-07-25T12:26:21Z</time>
      </trkpt>
      <trkpt lat="39.8691080" lon="2.9457380">
        <ele>135.6</ele>
        <time>2021-07-25T12:26:26Z</time>
      </trkpt>
      <trkpt lat="39.8690800" lon="2.9457190">
        <ele>135.8</ele>
        <time>2021-07-25T12:26:27Z</time>
      </trkpt>
      <trkpt lat="39.8689420" lon="2.9456290">
        <ele>136.6</ele>
        <time>2021-07-25T12:26:32Z</time>
      </trkpt>
      <trkpt lat="39.8689150" lon="2.9456120">
        <ele>136.8</ele>
        <time>2021-07-25T12:26:33Z</time>
      </trkpt>
      <trkpt lat="39.8687950" lon="2.9455330">
        <ele>137.6</ele>
        <time>2021-07-25T12:26:38Z</time>
      </trkpt>
      <trkpt lat="39.8687720" lon="2.9455170">
        <ele>138.0</ele>
        <time>2021-07-25T12:26:39Z</time>
      </trkpt>
      <trkpt lat="39.8686280" lon="2.9454320">
        <ele>138.6</ele>
        <time>2021-07-25T12:26:44Z</time>
      </trkpt>
      <trkpt lat="39.8685440" lon="2.9453790">
        <ele>139.2</ele>
        <time>2021-07-25T12:26:47Z</time>
      </trkpt>
      <trkpt lat="39.8684610" lon="2.9453230">
        <ele>140.2</ele>
        <time>2021-07-25T12:26:50Z</time>
      </trkpt>
      <trkpt lat="39.8684400" lon="2.9453030">
        <ele>140.4</ele>
        <time>2021-07-25T12:26:51Z</time>
      </trkpt>
      <trkpt lat="39.8683630" lon="2.9451760">
        <ele>141.2</ele>
        <time>2021-07-25T12:26:55Z</time>
      </trkpt>
      <trkpt lat="39.8683250" lon="2.9451020">
        <ele>141.6</ele>
        <time>2021-07-25T12:26:57Z</time>
      </trkpt>
      <trkpt lat="39.8682750" lon="2.9449810">
        <ele>142.2</ele>
        <time>2021-07-25T12:27:00Z</time>
      </trkpt>
      <trkpt lat="39.8682180" lon="2.9448090">
        <ele>143.0</ele>
        <time>2021-07-25T12:27:04Z</time>
      </trkpt>
      <trkpt lat="39.8682010" lon="2.9447680">
        <ele>143.2</ele>
        <time>2021-07-25T12:27:05Z</time>
      </trkpt>
      <trkpt lat="39.8681330" lon="2.9445970">
        <ele>144.2</ele>
        <time>2021-07-25T12:27:09Z</time>
      </trkpt>
      <trkpt lat="39.8681010" lon="2.9445120">
        <ele>144.8</ele>
        <time>2021-07-25T12:27:11Z</time>
      </trkpt>
      <trkpt lat="39.8680530" lon="2.9443840">
        <ele>145.6</ele>
        <time>2021-07-25T12:27:14Z</time>
      </trkpt>
      <trkpt lat="39.8679940" lon="2.9442160">
        <ele>146.4</ele>
        <time>2021-07-25T12:27:18Z</time>
      </trkpt>
      <trkpt lat="39.8679790" lon="2.9441730">
        <ele>146.4</ele>
        <time>2021-07-25T12:27:19Z</time>
      </trkpt>
      <trkpt lat="39.8679300" lon="2.9439170">
        <ele>147.4</ele>
        <time>2021-07-25T12:27:25Z</time>
      </trkpt>
      <trkpt lat="39.8679210" lon="2.9438760">
        <ele>147.6</ele>
        <time>2021-07-25T12:27:26Z</time>
      </trkpt>
      <trkpt lat="39.8678910" lon="2.9437140">
        <ele>148.2</ele>
        <time>2021-07-25T12:27:30Z</time>
      </trkpt>
      <trkpt lat="39.8678850" lon="2.9436750">
        <ele>148.6</ele>
        <time>2021-07-25T12:27:31Z</time>
      </trkpt>
      <trkpt lat="39.8678050" lon="2.9435220">
        <ele>149.2</ele>
        <time>2021-07-25T12:27:35Z</time>
      </trkpt>
      <trkpt lat="39.8677480" lon="2.9434690">
        <ele>149.8</ele>
        <time>2021-07-25T12:27:37Z</time>
      </trkpt>
      <trkpt lat="39.8676700" lon="2.9433950">
        <ele>150.4</ele>
        <time>2021-07-25T12:27:40Z</time>
      </trkpt>
      <trkpt lat="39.8676160" lon="2.9433470">
        <ele>150.6</ele>
        <time>2021-07-25T12:27:42Z</time>
      </trkpt>
      <trkpt lat="39.8674810" lon="2.9432350">
        <ele>151.8</ele>
        <time>2021-07-25T12:27:47Z</time>
      </trkpt>
      <trkpt lat="39.8673380" lon="2.9431200">
        <ele>152.8</ele>
        <time>2021-07-25T12:27:52Z</time>
      </trkpt>
      <trkpt lat="39.8672810" lon="2.9430740">
        <ele>153.6</ele>
        <time>2021-07-25T12:27:54Z</time>
      </trkpt>
      <trkpt lat="39.8672000" lon="2.9429970">
        <ele>154.0</ele>
        <time>2021-07-25T12:27:57Z</time>
      </trkpt>
      <trkpt lat="39.8671080" lon="2.9428720">
        <ele>154.8</ele>
        <time>2021-07-25T12:28:01Z</time>
      </trkpt>
      <trkpt lat="39.8670870" lon="2.9428380">
        <ele>155.0</ele>
        <time>2021-07-25T12:28:02Z</time>
      </trkpt>
      <trkpt lat="39.8670110" lon="2.9427010">
        <ele>156.0</ele>
        <time>2021-07-25T12:28:06Z</time>
      </trkpt>
      <trkpt lat="39.8669710" lon="2.9426370">
        <ele>156.8</ele>
        <time>2021-07-25T12:28:08Z</time>
      </trkpt>
      <trkpt lat="39.8669500" lon="2.9426050">
        <ele>157.0</ele>
        <time>2021-07-25T12:28:09Z</time>
      </trkpt>
      <trkpt lat="39.8668280" lon="2.9423950">
        <ele>158.0</ele>
        <time>2021-07-25T12:28:15Z</time>
      </trkpt>
      <trkpt lat="39.8668080" lon="2.9423590">
        <ele>158.2</ele>
        <time>2021-07-25T12:28:16Z</time>
      </trkpt>
      <trkpt lat="39.8667320" lon="2.9422240">
        <ele>159.4</ele>
        <time>2021-07-25T12:28:20Z</time>
      </trkpt>
      <trkpt lat="39.8666950" lon="2.9421590">
        <ele>159.8</ele>
        <time>2021-07-25T12:28:22Z</time>
      </trkpt>
      <trkpt lat="39.8666300" lon="2.9420170">
        <ele>160.6</ele>
        <time>2021-07-25T12:28:26Z</time>
      </trkpt>
      <trkpt lat="39.8665870" lon="2.9418990">
        <ele>161.6</ele>
        <time>2021-07-25T12:28:29Z</time>
      </trkpt>
      <trkpt lat="39.8665760" lon="2.9418590">
        <ele>161.6</ele>
        <time>2021-07-25T12:28:30Z</time>
      </trkpt>
      <trkpt lat="39.8665410" lon="2.9416080">
        <ele>162.6</ele>
        <time>2021-07-25T12:28:36Z</time>
      </trkpt>
      <trkpt lat="39.8665290" lon="2.9413890">
        <ele>163.8</ele>
        <time>2021-07-25T12:28:41Z</time>
      </trkpt>
      <trkpt lat="39.8665260" lon="2.9413030">
        <ele>164.2</ele>
        <time>2021-07-25T12:28:43Z</time>
      </trkpt>
      <trkpt lat="39.8665150" lon="2.9411730">
        <ele>165.0</ele>
        <time>2021-07-25T12:28:46Z</time>
      </trkpt>
      <trkpt lat="39.8664750" lon="2.9410470">
        <ele>165.8</ele>
        <time>2021-07-25T12:28:49Z</time>
      </trkpt>
      <trkpt lat="39.8664420" lon="2.9409680">
        <ele>166.2</ele>
        <time>2021-07-25T12:28:51Z</time>
      </trkpt>
      <trkpt lat="39.8663510" lon="2.9407860">
        <ele>167.0</ele>
        <time>2021-07-25T12:28:56Z</time>
      </trkpt>
      <trkpt lat="39.8663310" lon="2.9407520">
        <ele>167.2</ele>
        <time>2021-07-25T12:28:57Z</time>
      </trkpt>
      <trkpt lat="39.8662510" lon="2.9405680">
        <ele>168.4</ele>
        <time>2021-07-25T12:29:02Z</time>
      </trkpt>
      <trkpt lat="39.8662360" lon="2.9405310">
        <ele>168.6</ele>
        <time>2021-07-25T12:29:03Z</time>
      </trkpt>
      <trkpt lat="39.8661770" lon="2.9403730">
        <ele>169.4</ele>
        <time>2021-07-25T12:29:07Z</time>
      </trkpt>
      <trkpt lat="39.8661210" lon="2.9402040">
        <ele>170.4</ele>
        <time>2021-07-25T12:29:11Z</time>
      </trkpt>
      <trkpt lat="39.8660510" lon="2.9399460">
        <ele>171.6</ele>
        <time>2021-07-25T12:29:17Z</time>
      </trkpt>
      <trkpt lat="39.8660390" lon="2.9399070">
        <ele>172.0</ele>
        <time>2021-07-25T12:29:18Z</time>
      </trkpt>
      <trkpt lat="39.8660020" lon="2.9397880">
        <ele>172.4</ele>
        <time>2021-07-25T12:29:21Z</time>
      </trkpt>
      <trkpt lat="39.8659540" lon="2.9396290">
        <ele>173.6</ele>
        <time>2021-07-25T12:29:25Z</time>
      </trkpt>
      <trkpt lat="39.8659430" lon="2.9395870">
        <ele>174.0</ele>
        <time>2021-07-25T12:29:26Z</time>
      </trkpt>
      <trkpt lat="39.8658890" lon="2.9393890">
        <ele>174.8</ele>
        <time>2021-07-25T12:29:31Z</time>
      </trkpt>
      <trkpt lat="39.8658350" lon="2.9391980">
        <ele>176.0</ele>
        <time>2021-07-25T12:29:36Z</time>
      </trkpt>
      <trkpt lat="39.8658280" lon="2.9391570">
        <ele>176.4</ele>
        <time>2021-07-25T12:29:37Z</time>
      </trkpt>
      <trkpt lat="39.8658060" lon="2.9390420">
        <ele>177.2</ele>
        <time>2021-07-25T12:29:40Z</time>
      </trkpt>
      <trkpt lat="39.8657910" lon="2.9389390">
        <ele>177.8</ele>
        <time>2021-07-25T12:29:43Z</time>
      </trkpt>
      <trkpt lat="39.8658020" lon="2.9388580">
        <ele>178.0</ele>
        <time>2021-07-25T12:29:45Z</time>
      </trkpt>
      <trkpt lat="39.8658590" lon="2.9387210">
        <ele>179.0</ele>
        <time>2021-07-25T12:29:49Z</time>
      </trkpt>
      <trkpt lat="39.8659330" lon="2.9386610">
        <ele>180.2</ele>
        <time>2021-07-25T12:29:52Z</time>
      </trkpt>
      <trkpt lat="39.8659570" lon="2.9386540">
        <ele>180.6</ele>
        <time>2021-07-25T12:29:53Z</time>
      </trkpt>
      <trkpt lat="39.8659830" lon="2.9386490">
        <ele>181.2</ele>
        <time>2021-07-25T12:29:54Z</time>
      </trkpt>
      <trkpt lat="39.8660770" lon="2.9387010">
        <ele>182.4</ele>
        <time>2021-07-25T12:29:58Z</time>
      </trkpt>
      <trkpt lat="39.8661770" lon="2.9388940">
        <ele>183.6</ele>
        <time>2021-07-25T12:30:03Z</time>
      </trkpt>
      <trkpt lat="39.8661900" lon="2.9390740">
        <ele>184.6</ele>
        <time>2021-07-25T12:30:07Z</time>
      </trkpt>
      <trkpt lat="39.8661940" lon="2.9391200">
        <ele>184.8</ele>
        <time>2021-07-25T12:30:08Z</time>
      </trkpt>
      <trkpt lat="39.8661980" lon="2.9393370">
        <ele>185.6</ele>
        <time>2021-07-25T12:30:13Z</time>
      </trkpt>
      <trkpt lat="39.8662120" lon="2.9394640">
        <ele>186.2</ele>
        <time>2021-07-25T12:30:16Z</time>
      </trkpt>
      <trkpt lat="39.8662330" lon="2.9395390">
        <ele>186.6</ele>
        <time>2021-07-25T12:30:18Z</time>
      </trkpt>
      <trkpt lat="39.8662770" lon="2.9396270">
        <ele>187.4</ele>
        <time>2021-07-25T12:30:21Z</time>
      </trkpt>
      <trkpt lat="39.8663230" lon="2.9397010">
        <ele>187.8</ele>
        <time>2021-07-25T12:30:23Z</time>
      </trkpt>
      <trkpt lat="39.8663990" lon="2.9398510">
        <ele>188.4</ele>
        <time>2021-07-25T12:30:27Z</time>
      </trkpt>
      <trkpt lat="39.8664190" lon="2.9398880">
        <ele>188.6</ele>
        <time>2021-07-25T12:30:28Z</time>
      </trkpt>
      <trkpt lat="39.8665070" lon="2.9400150">
        <ele>189.4</ele>
        <time>2021-07-25T12:30:32Z</time>
      </trkpt>
      <trkpt lat="39.8665470" lon="2.9400850">
        <ele>189.8</ele>
        <time>2021-07-25T12:30:34Z</time>
      </trkpt>
      <trkpt lat="39.8666110" lon="2.9401980">
        <ele>190.6</ele>
        <time>2021-07-25T12:30:37Z</time>
      </trkpt>
      <trkpt lat="39.8666530" lon="2.9402670">
        <ele>190.8</ele>
        <time>2021-07-25T12:30:39Z</time>
      </trkpt>
      <trkpt lat="39.8667420" lon="2.9404040">
        <ele>191.4</ele>
        <time>2021-07-25T12:30:43Z</time>
      </trkpt>
      <trkpt lat="39.8667660" lon="2.9404370">
        <ele>191.6</ele>
        <time>2021-07-25T12:30:44Z</time>
      </trkpt>
      <trkpt lat="39.8668640" lon="2.9405860">
        <ele>192.8</ele>
        <time>2021-07-25T12:30:49Z</time>
      </trkpt>
      <trkpt lat="39.8669530" lon="2.9407250">
        <ele>194.0</ele>
        <time>2021-07-25T12:30:54Z</time>
      </trkpt>
      <trkpt lat="39.8670780" lon="2.9408650">
        <ele>195.2</ele>
        <time>2021-07-25T12:30:59Z</time>
      </trkpt>
      <trkpt lat="39.8671030" lon="2.9408860">
        <ele>195.2</ele>
        <time>2021-07-25T12:31:00Z</time>
      </trkpt>
      <trkpt lat="39.8672340" lon="2.9409910">
        <ele>196.4</ele>
        <time>2021-07-25T12:31:05Z</time>
      </trkpt>
      <trkpt lat="39.8673640" lon="2.9410700">
        <ele>197.0</ele>
        <time>2021-07-25T12:31:10Z</time>
      </trkpt>
      <trkpt lat="39.8674130" lon="2.9410930">
        <ele>197.6</ele>
        <time>2021-07-25T12:31:12Z</time>
      </trkpt>
      <trkpt lat="39.8674830" lon="2.9411370">
        <ele>198.0</ele>
        <time>2021-07-25T12:31:15Z</time>
      </trkpt>
      <trkpt lat="39.8675670" lon="2.9411750">
        <ele>198.6</ele>
        <time>2021-07-25T12:31:18Z</time>
      </trkpt>
      <trkpt lat="39.8675990" lon="2.9411830">
        <ele>198.8</ele>
        <time>2021-07-25T12:31:19Z</time>
      </trkpt>
      <trkpt lat="39.8677350" lon="2.9412430">
        <ele>199.6</ele>
        <time>2021-07-25T12:31:23Z</time>
      </trkpt>
      <trkpt lat="39.8677640" lon="2.9412620">
        <ele>199.8</ele>
        <time>2021-07-25T12:31:24Z</time>
      </trkpt>
      <trkpt lat="39.8678940" lon="2.9413260">
        <ele>200.8</ele>
        <time>2021-07-25T12:31:28Z</time>
      </trkpt>
      <trkpt lat="39.8680600" lon="2.9413940">
        <ele>201.8</ele>
        <time>2021-07-25T12:31:33Z</time>
      </trkpt>
      <trkpt lat="39.8682510" lon="2.9414210">
        <ele>202.6</ele>
        <time>2021-07-25T12:31:38Z</time>
      </trkpt>
      <trkpt lat="39.8684020" lon="2.9414580">
        <ele>203.8</ele>
        <time>2021-07-25T12:31:43Z</time>
      </trkpt>
      <trkpt lat="39.8684550" lon="2.9414760">
        <ele>204.4</ele>
        <time>2021-07-25T12:31:45Z</time>
      </trkpt>
      <trkpt lat="39.8685420" lon="2.9414930">
        <ele>205.0</ele>
        <time>2021-07-25T12:31:48Z</time>
      </trkpt>
      <trkpt lat="39.8686450" lon="2.9415160">
        <ele>205.6</ele>
        <time>2021-07-25T12:31:51Z</time>
      </trkpt>
      <trkpt lat="39.8687140" lon="2.9415380">
        <ele>206.2</ele>
        <time>2021-07-25T12:31:53Z</time>
      </trkpt>
      <trkpt lat="39.8688110" lon="2.9416090">
        <ele>207.2</ele>
        <time>2021-07-25T12:31:56Z</time>
      </trkpt>
      <trkpt lat="39.8688700" lon="2.9417620">
        <ele>208.2</ele>
        <time>2021-07-25T12:32:00Z</time>
      </trkpt>
      <trkpt lat="39.8688690" lon="2.9418050">
        <ele>208.4</ele>
        <time>2021-07-25T12:32:01Z</time>
      </trkpt>
      <trkpt lat="39.8688710" lon="2.9419210">
        <ele>209.2</ele>
        <time>2021-07-25T12:32:04Z</time>
      </trkpt>
      <trkpt lat="39.8688740" lon="2.9419950">
        <ele>209.8</ele>
        <time>2021-07-25T12:32:06Z</time>
      </trkpt>
      <trkpt lat="39.8688780" lon="2.9420710">
        <ele>210.2</ele>
        <time>2021-07-25T12:32:08Z</time>
      </trkpt>
      <trkpt lat="39.8688960" lon="2.9422280">
        <ele>211.4</ele>
        <time>2021-07-25T12:32:12Z</time>
      </trkpt>
      <trkpt lat="39.8689140" lon="2.9423420">
        <ele>212.4</ele>
        <time>2021-07-25T12:32:15Z</time>
      </trkpt>
      <trkpt lat="39.8689470" lon="2.9425020">
        <ele>213.2</ele>
        <time>2021-07-25T12:32:19Z</time>
      </trkpt>
      <trkpt lat="39.8689760" lon="2.9426200">
        <ele>213.2</ele>
        <time>2021-07-25T12:32:22Z</time>
      </trkpt>
      <trkpt lat="39.8690070" lon="2.9427800">
        <ele>214.0</ele>
        <time>2021-07-25T12:32:26Z</time>
      </trkpt>
      <trkpt lat="39.8690170" lon="2.9428170">
        <ele>214.2</ele>
        <time>2021-07-25T12:32:27Z</time>
      </trkpt>
      <trkpt lat="39.8690450" lon="2.9429230">
        <ele>215.6</ele>
        <time>2021-07-25T12:32:30Z</time>
      </trkpt>
      <trkpt lat="39.8690740" lon="2.9430210">
        <ele>216.2</ele>
        <time>2021-07-25T12:32:33Z</time>
      </trkpt>
      <trkpt lat="39.8690950" lon="2.9431310">
        <ele>216.8</ele>
        <time>2021-07-25T12:32:36Z</time>
      </trkpt>
      <trkpt lat="39.8691340" lon="2.9432290">
        <ele>217.4</ele>
        <time>2021-07-25T12:32:39Z</time>
      </trkpt>
      <trkpt lat="39.8691480" lon="2.9432600">
        <ele>218.0</ele>
        <time>2021-07-25T12:32:40Z</time>
      </trkpt>
      <trkpt lat="39.8691990" lon="2.9433790">
        <ele>219.2</ele>
        <time>2021-07-25T12:32:44Z</time>
      </trkpt>
      <trkpt lat="39.8692290" lon="2.9434390">
        <ele>219.4</ele>
        <time>2021-07-25T12:32:46Z</time>
      </trkpt>
      <trkpt lat="39.8692990" lon="2.9435060">
        <ele>220.2</ele>
        <time>2021-07-25T12:32:49Z</time>
      </trkpt>
      <trkpt lat="39.8693580" lon="2.9435370">
        <ele>220.6</ele>
        <time>2021-07-25T12:32:51Z</time>
      </trkpt>
      <trkpt lat="39.8695120" lon="2.9435490">
        <ele>221.0</ele>
        <time>2021-07-25T12:32:56Z</time>
      </trkpt>
      <trkpt lat="39.8695390" lon="2.9435470">
        <ele>221.2</ele>
        <time>2021-07-25T12:32:57Z</time>
      </trkpt>
      <trkpt lat="39.8696660" lon="2.9434720">
        <ele>222.6</ele>
        <time>2021-07-25T12:33:02Z</time>
      </trkpt>
      <trkpt lat="39.8697630" lon="2.9433360">
        <ele>223.6</ele>
        <time>2021-07-25T12:33:07Z</time>
      </trkpt>
      <trkpt lat="39.8697850" lon="2.9432680">
        <ele>224.0</ele>
        <time>2021-07-25T12:33:09Z</time>
      </trkpt>
      <trkpt lat="39.8698110" lon="2.9431640">
        <ele>225.0</ele>
        <time>2021-07-25T12:33:12Z</time>
      </trkpt>
      <trkpt lat="39.8697990" lon="2.9430520">
        <ele>225.4</ele>
        <time>2021-07-25T12:33:15Z</time>
      </trkpt>
      <trkpt lat="39.8697630" lon="2.9428990">
        <ele>226.2</ele>
        <time>2021-07-25T12:33:19Z</time>
      </trkpt>
      <trkpt lat="39.8697420" lon="2.9428260">
        <ele>226.4</ele>
        <time>2021-07-25T12:33:21Z</time>
      </trkpt>
      <trkpt lat="39.8696880" lon="2.9426840">
        <ele>227.2</ele>
        <time>2021-07-25T12:33:25Z</time>
      </trkpt>
      <trkpt lat="39.8696430" lon="2.9425450">
        <ele>228.2</ele>
        <time>2021-07-25T12:33:29Z</time>
      </trkpt>
      <trkpt lat="39.8695730" lon="2.9423250">
        <ele>229.2</ele>
        <time>2021-07-25T12:33:35Z</time>
      </trkpt>
      <trkpt lat="39.8695500" lon="2.9422630">
        <ele>230.0</ele>
        <time>2021-07-25T12:33:37Z</time>
      </trkpt>
      <trkpt lat="39.8695370" lon="2.9422340">
        <ele>230.4</ele>
        <time>2021-07-25T12:33:38Z</time>
      </trkpt>
      <trkpt lat="39.8694870" lon="2.9421000">
        <ele>231.0</ele>
        <time>2021-07-25T12:33:42Z</time>
      </trkpt>
      <trkpt lat="39.8694760" lon="2.9420680">
        <ele>231.4</ele>
        <time>2021-07-25T12:33:43Z</time>
      </trkpt>
      <trkpt lat="39.8694310" lon="2.9419450">
        <ele>232.4</ele>
        <time>2021-07-25T12:33:47Z</time>
      </trkpt>
      <trkpt lat="39.8694190" lon="2.9419110">
        <ele>232.6</ele>
        <time>2021-07-25T12:33:48Z</time>
      </trkpt>
      <trkpt lat="39.8693770" lon="2.9417790">
        <ele>233.6</ele>
        <time>2021-07-25T12:33:52Z</time>
      </trkpt>
      <trkpt lat="39.8693670" lon="2.9417450">
        <ele>233.8</ele>
        <time>2021-07-25T12:33:53Z</time>
      </trkpt>
      <trkpt lat="39.8693340" lon="2.9415910">
        <ele>234.6</ele>
        <time>2021-07-25T12:33:57Z</time>
      </trkpt>
      <trkpt lat="39.8693220" lon="2.9414830">
        <ele>235.4</ele>
        <time>2021-07-25T12:34:00Z</time>
      </trkpt>
      <trkpt lat="39.8693200" lon="2.9414510">
        <ele>236.0</ele>
        <time>2021-07-25T12:34:01Z</time>
      </trkpt>
      <trkpt lat="39.8693190" lon="2.9412920">
        <ele>237.0</ele>
        <time>2021-07-25T12:34:05Z</time>
      </trkpt>
      <trkpt lat="39.8693150" lon="2.9412190">
        <ele>237.2</ele>
        <time>2021-07-25T12:34:07Z</time>
      </trkpt>
      <trkpt lat="39.8692790" lon="2.9411000">
        <ele>238.0</ele>
        <time>2021-07-25T12:34:10Z</time>
      </trkpt>
      <trkpt lat="39.8692540" lon="2.9410680">
        <ele>238.2</ele>
        <time>2021-07-25T12:34:11Z</time>
      </trkpt>
      <trkpt lat="39.8691220" lon="2.9410130">
        <ele>239.0</ele>
        <time>2021-07-25T12:34:15Z</time>
      </trkpt>
      <trkpt lat="39.8690880" lon="2.9410040">
        <ele>239.2</ele>
        <time>2021-07-25T12:34:16Z</time>
      </trkpt>
      <trkpt lat="39.8689510" lon="2.9409670">
        <ele>240.0</ele>
        <time>2021-07-25T12:34:20Z</time>
      </trkpt>
      <trkpt lat="39.8688660" lon="2.9409240">
        <ele>240.4</ele>
        <time>2021-07-25T12:34:23Z</time>
      </trkpt>
      <trkpt lat="39.8687570" lon="2.9408880">
        <ele>241.2</ele>
        <time>2021-07-25T12:34:27Z</time>
      </trkpt>
      <trkpt lat="39.8687640" lon="2.9408960">
        <ele>241.6</ele>
        <time>2021-07-25T12:34:28Z</time>
      </trkpt>
      <trkpt lat="39.8688610" lon="2.9409490">
        <ele>241.4</ele>
        <time>2021-07-25T12:34:31Z</time>
      </trkpt>
      <trkpt lat="39.8689120" lon="2.9409660">
        <ele>241.2</ele>
        <time>2021-07-25T12:34:32Z</time>
      </trkpt>
      <trkpt lat="39.8690990" lon="2.9410160">
        <ele>240.6</ele>
        <time>2021-07-25T12:34:35Z</time>
      </trkpt>
      <trkpt lat="39.8692170" lon="2.9410770">
        <ele>240.0</ele>
        <time>2021-07-25T12:34:37Z</time>
      </trkpt>
      <trkpt lat="39.8692630" lon="2.9411400">
        <ele>239.6</ele>
        <time>2021-07-25T12:34:38Z</time>
      </trkpt>
      <trkpt lat="39.8693050" lon="2.9413130">
        <ele>238.6</ele>
        <time>2021-07-25T12:34:40Z</time>
      </trkpt>
      <trkpt lat="39.8693130" lon="2.9414110">
        <ele>238.0</ele>
        <time>2021-07-25T12:34:41Z</time>
      </trkpt>
      <trkpt lat="39.8693160" lon="2.9415100">
        <ele>237.6</ele>
        <time>2021-07-25T12:34:42Z</time>
      </trkpt>
      <trkpt lat="39.8693310" lon="2.9416960">
        <ele>236.4</ele>
        <time>2021-07-25T12:34:44Z</time>
      </trkpt>
      <trkpt lat="39.8693600" lon="2.9418590">
        <ele>235.2</ele>
        <time>2021-07-25T12:34:46Z</time>
      </trkpt>
      <trkpt lat="39.8694000" lon="2.9420050">
        <ele>234.0</ele>
        <time>2021-07-25T12:34:48Z</time>
      </trkpt>
      <trkpt lat="39.8694520" lon="2.9421840">
        <ele>232.4</ele>
        <time>2021-07-25T12:34:51Z</time>
      </trkpt>
      <trkpt lat="39.8695200" lon="2.9423640">
        <ele>231.2</ele>
        <time>2021-07-25T12:34:54Z</time>
      </trkpt>
      <trkpt lat="39.8695430" lon="2.9424370">
        <ele>230.8</ele>
        <time>2021-07-25T12:34:55Z</time>
      </trkpt>
      <trkpt lat="39.8695840" lon="2.9425850">
        <ele>229.8</ele>
        <time>2021-07-25T12:34:57Z</time>
      </trkpt>
      <trkpt lat="39.8696500" lon="2.9427940">
        <ele>228.4</ele>
        <time>2021-07-25T12:35:00Z</time>
      </trkpt>
      <trkpt lat="39.8697200" lon="2.9430270">
        <ele>227.0</ele>
        <time>2021-07-25T12:35:03Z</time>
      </trkpt>
      <trkpt lat="39.8697320" lon="2.9431100">
        <ele>226.6</ele>
        <time>2021-07-25T12:35:04Z</time>
      </trkpt>
      <trkpt lat="39.8697370" lon="2.9431980">
        <ele>225.4</ele>
        <time>2021-07-25T12:35:05Z</time>
      </trkpt>
      <trkpt lat="39.8697010" lon="2.9433710">
        <ele>224.4</ele>
        <time>2021-07-25T12:35:07Z</time>
      </trkpt>
      <trkpt lat="39.8696550" lon="2.9434490">
        <ele>224.0</ele>
        <time>2021-07-25T12:35:08Z</time>
      </trkpt>
      <trkpt lat="39.8695310" lon="2.9435350">
        <ele>223.4</ele>
        <time>2021-07-25T12:35:10Z</time>
      </trkpt>
      <trkpt lat="39.8694690" lon="2.9435390">
        <ele>222.8</ele>
        <time>2021-07-25T12:35:11Z</time>
      </trkpt>
      <trkpt lat="39.8693480" lon="2.9434920">
        <ele>221.0</ele>
        <time>2021-07-25T12:35:13Z</time>
      </trkpt>
      <trkpt lat="39.8692200" lon="2.9433250">
        <ele>219.6</ele>
        <time>2021-07-25T12:35:16Z</time>
      </trkpt>
      <trkpt lat="39.8691780" lon="2.9431920">
        <ele>218.8</ele>
        <time>2021-07-25T12:35:18Z</time>
      </trkpt>
      <trkpt lat="39.8691620" lon="2.9431310">
        <ele>218.4</ele>
        <time>2021-07-25T12:35:19Z</time>
      </trkpt>
      <trkpt lat="39.8691250" lon="2.9430250">
        <ele>217.0</ele>
        <time>2021-07-25T12:35:21Z</time>
      </trkpt>
      <trkpt lat="39.8690870" lon="2.9429950">
        <ele>216.2</ele>
        <time>2021-07-25T12:35:23Z</time>
      </trkpt>
      <trkpt lat="39.8690780" lon="2.9430120">
        <ele>216.2</ele>
        <time>2021-07-25T12:35:24Z</time>
      </trkpt>
      <trkpt lat="39.8691070" lon="2.9431060">
        <ele>216.0</ele>
        <time>2021-07-25T12:35:27Z</time>
      </trkpt>
      <trkpt lat="39.8691490" lon="2.9433040">
        <ele>217.2</ele>
        <time>2021-07-25T12:35:31Z</time>
      </trkpt>
      <trkpt lat="39.8692170" lon="2.9434400">
        <ele>218.0</ele>
        <time>2021-07-25T12:35:34Z</time>
      </trkpt>
      <trkpt lat="39.8692520" lon="2.9434750">
        <ele>218.4</ele>
        <time>2021-07-25T12:35:35Z</time>
      </trkpt>
      <trkpt lat="39.8693770" lon="2.9435500">
        <ele>219.2</ele>
        <time>2021-07-25T12:35:38Z</time>
      </trkpt>
      <trkpt lat="39.8694220" lon="2.9435680">
        <ele>219.6</ele>
        <time>2021-07-25T12:35:39Z</time>
      </trkpt>
      <trkpt lat="39.8694680" lon="2.9435770">
        <ele>220.0</ele>
        <time>2021-07-25T12:35:40Z</time>
      </trkpt>
      <trkpt lat="39.8695110" lon="2.9435800">
        <ele>220.4</ele>
        <time>2021-07-25T12:35:41Z</time>
      </trkpt>
      <trkpt lat="39.8696290" lon="2.9435320">
        <ele>221.4</ele>
        <time>2021-07-25T12:35:44Z</time>
      </trkpt>
      <trkpt lat="39.8696910" lon="2.9434520">
        <ele>222.4</ele>
        <time>2021-07-25T12:35:46Z</time>
      </trkpt>
      <trkpt lat="39.8697180" lon="2.9434090">
        <ele>222.6</ele>
        <time>2021-07-25T12:35:47Z</time>
      </trkpt>
      <trkpt lat="39.8697420" lon="2.9433660">
        <ele>222.8</ele>
        <time>2021-07-25T12:35:48Z</time>
      </trkpt>
      <trkpt lat="39.8697970" lon="2.9432260">
        <ele>223.8</ele>
        <time>2021-07-25T12:35:51Z</time>
      </trkpt>
      <trkpt lat="39.8698030" lon="2.9431330">
        <ele>224.4</ele>
        <time>2021-07-25T12:35:53Z</time>
      </trkpt>
      <trkpt lat="39.8697990" lon="2.9430450">
        <ele>225.0</ele>
        <time>2021-07-25T12:35:55Z</time>
      </trkpt>
      <trkpt lat="39.8697740" lon="2.9429140">
        <ele>225.4</ele>
        <time>2021-07-25T12:35:58Z</time>
      </trkpt>
      <trkpt lat="39.8697360" lon="2.9427880">
        <ele>226.0</ele>
        <time>2021-07-25T12:36:01Z</time>
      </trkpt>
      <trkpt lat="39.8696900" lon="2.9426680">
        <ele>227.0</ele>
        <time>2021-07-25T12:36:04Z</time>
      </trkpt>
      <trkpt lat="39.8696750" lon="2.9426280">
        <ele>227.2</ele>
        <time>2021-07-25T12:36:05Z</time>
      </trkpt>
      <trkpt lat="39.8696460" lon="2.9425480">
        <ele>228.0</ele>
        <time>2021-07-25T12:36:07Z</time>
      </trkpt>
      <trkpt lat="39.8695930" lon="2.9423860">
        <ele>229.2</ele>
        <time>2021-07-25T12:36:11Z</time>
      </trkpt>
      <trkpt lat="39.8695320" lon="2.9422040">
        <ele>230.4</ele>
        <time>2021-07-25T12:36:16Z</time>
      </trkpt>
      <trkpt lat="39.8694930" lon="2.9420920">
        <ele>231.2</ele>
        <time>2021-07-25T12:36:19Z</time>
      </trkpt>
      <trkpt lat="39.8694720" lon="2.9420190">
        <ele>231.2</ele>
        <time>2021-07-25T12:36:21Z</time>
      </trkpt>
      <trkpt lat="39.8694270" lon="2.9418820">
        <ele>232.4</ele>
        <time>2021-07-25T12:36:25Z</time>
      </trkpt>
      <trkpt lat="39.8693750" lon="2.9416710">
        <ele>233.6</ele>
        <time>2021-07-25T12:36:31Z</time>
      </trkpt>
      <trkpt lat="39.8693520" lon="2.9415650">
        <ele>234.6</ele>
        <time>2021-07-25T12:36:34Z</time>
      </trkpt>
      <trkpt lat="39.8693370" lon="2.9414630">
        <ele>235.4</ele>
        <time>2021-07-25T12:36:37Z</time>
      </trkpt>
      <trkpt lat="39.8693340" lon="2.9414270">
        <ele>235.6</ele>
        <time>2021-07-25T12:36:38Z</time>
      </trkpt>
      <trkpt lat="39.8693290" lon="2.9412810">
        <ele>237.0</ele>
        <time>2021-07-25T12:36:42Z</time>
      </trkpt>
      <trkpt lat="39.8693220" lon="2.9412420">
        <ele>237.2</ele>
        <time>2021-07-25T12:36:43Z</time>
      </trkpt>
      <trkpt lat="39.8692530" lon="2.9411000">
        <ele>238.0</ele>
        <time>2021-07-25T12:36:47Z</time>
      </trkpt>
      <trkpt lat="39.8692250" lon="2.9410800">
        <ele>238.2</ele>
        <time>2021-07-25T12:36:48Z</time>
      </trkpt>
      <trkpt lat="39.8691630" lon="2.9410480">
        <ele>239.0</ele>
        <time>2021-07-25T12:36:50Z</time>
      </trkpt>
      <trkpt lat="39.8690280" lon="2.9410000">
        <ele>240.0</ele>
        <time>2021-07-25T12:36:54Z</time>
      </trkpt>
      <trkpt lat="39.8689910" lon="2.9409880">
        <ele>240.2</ele>
        <time>2021-07-25T12:36:55Z</time>
      </trkpt>
      <trkpt lat="39.8688630" lon="2.9409430">
        <ele>240.6</ele>
        <time>2021-07-25T12:36:59Z</time>
      </trkpt>
      <trkpt lat="39.8687040" lon="2.9408600">
        <ele>241.2</ele>
        <time>2021-07-25T12:37:04Z</time>
      </trkpt>
      <trkpt lat="39.8686710" lon="2.9408400">
        <ele>241.4</ele>
        <time>2021-07-25T12:37:05Z</time>
      </trkpt>
      <trkpt lat="39.8684840" lon="2.9406910">
        <ele>242.2</ele>
        <time>2021-07-25T12:37:11Z</time>
      </trkpt>
      <trkpt lat="39.8683970" lon="2.9406120">
        <ele>243.2</ele>
        <time>2021-07-25T12:37:14Z</time>
      </trkpt>
      <trkpt lat="39.8682750" lon="2.9405080">
        <ele>244.0</ele>
        <time>2021-07-25T12:37:18Z</time>
      </trkpt>
      <trkpt lat="39.8682110" lon="2.9404430">
        <ele>244.2</ele>
        <time>2021-07-25T12:37:20Z</time>
      </trkpt>
      <trkpt lat="39.8681050" lon="2.9403360">
        <ele>244.8</ele>
        <time>2021-07-25T12:37:23Z</time>
      </trkpt>
      <trkpt lat="39.8680430" lon="2.9402550">
        <ele>245.2</ele>
        <time>2021-07-25T12:37:25Z</time>
      </trkpt>
      <trkpt lat="39.8678930" lon="2.9400660">
        <ele>246.2</ele>
        <time>2021-07-25T12:37:30Z</time>
      </trkpt>
      <trkpt lat="39.8677140" lon="2.9398660">
        <ele>247.0</ele>
        <time>2021-07-25T12:37:36Z</time>
      </trkpt>
      <trkpt lat="39.8676570" lon="2.9398010">
        <ele>247.2</ele>
        <time>2021-07-25T12:37:38Z</time>
      </trkpt>
      <trkpt lat="39.8675170" lon="2.9396380">
        <ele>248.2</ele>
        <time>2021-07-25T12:37:43Z</time>
      </trkpt>
      <trkpt lat="39.8674890" lon="2.9396040">
        <ele>248.4</ele>
        <time>2021-07-25T12:37:44Z</time>
      </trkpt>
      <trkpt lat="39.8673710" lon="2.9394210">
        <ele>249.4</ele>
        <time>2021-07-25T12:37:49Z</time>
      </trkpt>
      <trkpt lat="39.8673530" lon="2.9393790">
        <ele>249.6</ele>
        <time>2021-07-25T12:37:50Z</time>
      </trkpt>
      <trkpt lat="39.8673160" lon="2.9392510">
        <ele>250.6</ele>
        <time>2021-07-25T12:37:53Z</time>
      </trkpt>
      <trkpt lat="39.8672970" lon="2.9391180">
        <ele>251.6</ele>
        <time>2021-07-25T12:37:56Z</time>
      </trkpt>
      <trkpt lat="39.8673000" lon="2.9390680">
        <ele>251.6</ele>
        <time>2021-07-25T12:37:57Z</time>
      </trkpt>
      <trkpt lat="39.8672970" lon="2.9388800">
        <ele>252.8</ele>
        <time>2021-07-25T12:38:01Z</time>
      </trkpt>
      <trkpt lat="39.8672800" lon="2.9386970">
        <ele>253.8</ele>
        <time>2021-07-25T12:38:05Z</time>
      </trkpt>
      <trkpt lat="39.8672560" lon="2.9385190">
        <ele>255.0</ele>
        <time>2021-07-25T12:38:09Z</time>
      </trkpt>
      <trkpt lat="39.8672440" lon="2.9383540">
        <ele>256.0</ele>
        <time>2021-07-25T12:38:13Z</time>
      </trkpt>
      <trkpt lat="39.8672180" lon="2.9382340">
        <ele>256.8</ele>
        <time>2021-07-25T12:38:16Z</time>
      </trkpt>
      <trkpt lat="39.8671690" lon="2.9380670">
        <ele>257.0</ele>
        <time>2021-07-25T12:38:20Z</time>
      </trkpt>
      <trkpt lat="39.8671140" lon="2.9379540">
        <ele>257.4</ele>
        <time>2021-07-25T12:38:23Z</time>
      </trkpt>
      <trkpt lat="39.8670670" lon="2.9378440">
        <ele>258.2</ele>
        <time>2021-07-25T12:38:26Z</time>
      </trkpt>
      <trkpt lat="39.8670100" lon="2.9376630">
        <ele>259.6</ele>
        <time>2021-07-25T12:38:31Z</time>
      </trkpt>
      <trkpt lat="39.8669820" lon="2.9375490">
        <ele>260.6</ele>
        <time>2021-07-25T12:38:34Z</time>
      </trkpt>
      <trkpt lat="39.8669350" lon="2.9373930">
        <ele>261.2</ele>
        <time>2021-07-25T12:38:38Z</time>
      </trkpt>
      <trkpt lat="39.8669200" lon="2.9373530">
        <ele>261.6</ele>
        <time>2021-07-25T12:38:39Z</time>
      </trkpt>
      <trkpt lat="39.8669000" lon="2.9372260">
        <ele>262.6</ele>
        <time>2021-07-25T12:38:42Z</time>
      </trkpt>
      <trkpt lat="39.8668900" lon="2.9371470">
        <ele>263.0</ele>
        <time>2021-07-25T12:38:44Z</time>
      </trkpt>
      <trkpt lat="39.8668740" lon="2.9370310">
        <ele>263.6</ele>
        <time>2021-07-25T12:38:47Z</time>
      </trkpt>
      <trkpt lat="39.8668460" lon="2.9368780">
        <ele>264.4</ele>
        <time>2021-07-25T12:38:51Z</time>
      </trkpt>
      <trkpt lat="39.8668400" lon="2.9368400">
        <ele>264.6</ele>
        <time>2021-07-25T12:38:52Z</time>
      </trkpt>
      <trkpt lat="39.8668100" lon="2.9366850">
        <ele>265.8</ele>
        <time>2021-07-25T12:38:56Z</time>
      </trkpt>
      <trkpt lat="39.8667970" lon="2.9366110">
        <ele>266.2</ele>
        <time>2021-07-25T12:38:58Z</time>
      </trkpt>
      <trkpt lat="39.8667850" lon="2.9365300">
        <ele>266.8</ele>
        <time>2021-07-25T12:39:00Z</time>
      </trkpt>
      <trkpt lat="39.8667510" lon="2.9363600">
        <ele>267.8</ele>
        <time>2021-07-25T12:39:04Z</time>
      </trkpt>
      <trkpt lat="39.8667090" lon="2.9361590">
        <ele>268.8</ele>
        <time>2021-07-25T12:39:09Z</time>
      </trkpt>
      <trkpt lat="39.8666890" lon="2.9360800">
        <ele>269.2</ele>
        <time>2021-07-25T12:39:11Z</time>
      </trkpt>
      <trkpt lat="39.8666740" lon="2.9360080">
        <ele>269.8</ele>
        <time>2021-07-25T12:39:13Z</time>
      </trkpt>
      <trkpt lat="39.8666470" lon="2.9358530">
        <ele>271.0</ele>
        <time>2021-07-25T12:39:17Z</time>
      </trkpt>
      <trkpt lat="39.8666110" lon="2.9356550">
        <ele>272.0</ele>
        <time>2021-07-25T12:39:22Z</time>
      </trkpt>
      <trkpt lat="39.8666020" lon="2.9355780">
        <ele>272.6</ele>
        <time>2021-07-25T12:39:24Z</time>
      </trkpt>
      <trkpt lat="39.8666040" lon="2.9354950">
        <ele>273.0</ele>
        <time>2021-07-25T12:39:26Z</time>
      </trkpt>
      <trkpt lat="39.8666190" lon="2.9353030">
        <ele>274.0</ele>
        <time>2021-07-25T12:39:31Z</time>
      </trkpt>
      <trkpt lat="39.8666350" lon="2.9351420">
        <ele>275.2</ele>
        <time>2021-07-25T12:39:35Z</time>
      </trkpt>
      <trkpt lat="39.8666530" lon="2.9349860">
        <ele>276.2</ele>
        <time>2021-07-25T12:39:39Z</time>
      </trkpt>
      <trkpt lat="39.8666700" lon="2.9347920">
        <ele>277.4</ele>
        <time>2021-07-25T12:39:44Z</time>
      </trkpt>
      <trkpt lat="39.8666740" lon="2.9347140">
        <ele>278.0</ele>
        <time>2021-07-25T12:39:46Z</time>
      </trkpt>
      <trkpt lat="39.8666810" lon="2.9346010">
        <ele>278.6</ele>
        <time>2021-07-25T12:39:49Z</time>
      </trkpt>
      <trkpt lat="39.8666880" lon="2.9344440">
        <ele>279.4</ele>
        <time>2021-07-25T12:39:53Z</time>
      </trkpt>
      <trkpt lat="39.8666920" lon="2.9344050">
        <ele>279.6</ele>
        <time>2021-07-25T12:39:54Z</time>
      </trkpt>
      <trkpt lat="39.8667030" lon="2.9342540">
        <ele>280.4</ele>
        <time>2021-07-25T12:39:58Z</time>
      </trkpt>
      <trkpt lat="39.8667170" lon="2.9339970">
        <ele>281.6</ele>
        <time>2021-07-25T12:40:05Z</time>
      </trkpt>
      <trkpt lat="39.8667260" lon="2.9338510">
        <ele>282.8</ele>
        <time>2021-07-25T12:40:09Z</time>
      </trkpt>
      <trkpt lat="39.8667480" lon="2.9337460">
        <ele>283.6</ele>
        <time>2021-07-25T12:40:12Z</time>
      </trkpt>
      <trkpt lat="39.8667650" lon="2.9336740">
        <ele>284.0</ele>
        <time>2021-07-25T12:40:14Z</time>
      </trkpt>
      <trkpt lat="39.8668120" lon="2.9335280">
        <ele>285.0</ele>
        <time>2021-07-25T12:40:18Z</time>
      </trkpt>
      <trkpt lat="39.8669060" lon="2.9333670">
        <ele>286.0</ele>
        <time>2021-07-25T12:40:23Z</time>
      </trkpt>
      <trkpt lat="39.8669500" lon="2.9333070">
        <ele>286.6</ele>
        <time>2021-07-25T12:40:25Z</time>
      </trkpt>
      <trkpt lat="39.8669920" lon="2.9332450">
        <ele>287.2</ele>
        <time>2021-07-25T12:40:27Z</time>
      </trkpt>
      <trkpt lat="39.8670820" lon="2.9331220">
        <ele>288.2</ele>
        <time>2021-07-25T12:40:31Z</time>
      </trkpt>
      <trkpt lat="39.8671340" lon="2.9330690">
        <ele>288.8</ele>
        <time>2021-07-25T12:40:33Z</time>
      </trkpt>
      <trkpt lat="39.8671570" lon="2.9330410">
        <ele>289.2</ele>
        <time>2021-07-25T12:40:34Z</time>
      </trkpt>
      <trkpt lat="39.8672640" lon="2.9329120">
        <ele>290.2</ele>
        <time>2021-07-25T12:40:39Z</time>
      </trkpt>
      <trkpt lat="39.8673150" lon="2.9327810">
        <ele>291.4</ele>
        <time>2021-07-25T12:40:43Z</time>
      </trkpt>
      <trkpt lat="39.8673230" lon="2.9327450">
        <ele>291.6</ele>
        <time>2021-07-25T12:40:44Z</time>
      </trkpt>
      <trkpt lat="39.8673270" lon="2.9325790">
        <ele>292.4</ele>
        <time>2021-07-25T12:40:48Z</time>
      </trkpt>
      <trkpt lat="39.8673230" lon="2.9325370">
        <ele>292.6</ele>
        <time>2021-07-25T12:40:49Z</time>
      </trkpt>
      <trkpt lat="39.8672760" lon="2.9323300">
        <ele>293.4</ele>
        <time>2021-07-25T12:40:54Z</time>
      </trkpt>
      <trkpt lat="39.8672030" lon="2.9321130">
        <ele>294.8</ele>
        <time>2021-07-25T12:40:59Z</time>
      </trkpt>
      <trkpt lat="39.8671880" lon="2.9320690">
        <ele>295.0</ele>
        <time>2021-07-25T12:41:00Z</time>
      </trkpt>
      <trkpt lat="39.8671400" lon="2.9319360">
        <ele>295.8</ele>
        <time>2021-07-25T12:41:03Z</time>
      </trkpt>
      <trkpt lat="39.8670890" lon="2.9318060">
        <ele>296.6</ele>
        <time>2021-07-25T12:41:06Z</time>
      </trkpt>
      <trkpt lat="39.8670770" lon="2.9317670">
        <ele>297.2</ele>
        <time>2021-07-25T12:41:07Z</time>
      </trkpt>
      <trkpt lat="39.8670340" lon="2.9316370">
        <ele>298.2</ele>
        <time>2021-07-25T12:41:10Z</time>
      </trkpt>
      <trkpt lat="39.8670200" lon="2.9316000">
        <ele>298.4</ele>
        <time>2021-07-25T12:41:11Z</time>
      </trkpt>
      <trkpt lat="39.8669530" lon="2.9314620">
        <ele>299.4</ele>
        <time>2021-07-25T12:41:15Z</time>
      </trkpt>
      <trkpt lat="39.8669150" lon="2.9313970">
        <ele>299.8</ele>
        <time>2021-07-25T12:41:17Z</time>
      </trkpt>
      <trkpt lat="39.8668630" lon="2.9313460">
        <ele>300.4</ele>
        <time>2021-07-25T12:41:19Z</time>
      </trkpt>
      <trkpt lat="39.8667480" lon="2.9312710">
        <ele>301.0</ele>
        <time>2021-07-25T12:41:23Z</time>
      </trkpt>
      <trkpt lat="39.8666900" lon="2.9312380">
        <ele>301.6</ele>
        <time>2021-07-25T12:41:25Z</time>
      </trkpt>
      <trkpt lat="39.8665010" lon="2.9311830">
        <ele>302.8</ele>
        <time>2021-07-25T12:41:31Z</time>
      </trkpt>
      <trkpt lat="39.8663560" lon="2.9311400">
        <ele>303.6</ele>
        <time>2021-07-25T12:41:36Z</time>
      </trkpt>
      <trkpt lat="39.8663270" lon="2.9311290">
        <ele>303.8</ele>
        <time>2021-07-25T12:41:37Z</time>
      </trkpt>
      <trkpt lat="39.8661860" lon="2.9310730">
        <ele>304.8</ele>
        <time>2021-07-25T12:41:42Z</time>
      </trkpt>
      <trkpt lat="39.8661380" lon="2.9310460">
        <ele>305.2</ele>
        <time>2021-07-25T12:41:44Z</time>
      </trkpt>
      <trkpt lat="39.8660570" lon="2.9309660">
        <ele>306.0</ele>
        <time>2021-07-25T12:41:48Z</time>
      </trkpt>
      <trkpt lat="39.8660420" lon="2.9309390">
        <ele>306.4</ele>
        <time>2021-07-25T12:41:49Z</time>
      </trkpt>
      <trkpt lat="39.8660110" lon="2.9308570">
        <ele>307.0</ele>
        <time>2021-07-25T12:41:52Z</time>
      </trkpt>
      <trkpt lat="39.8659940" lon="2.9307920">
        <ele>308.2</ele>
        <time>2021-07-25T12:41:54Z</time>
      </trkpt>
      <trkpt lat="39.8659970" lon="2.9306950">
        <ele>309.2</ele>
        <time>2021-07-25T12:41:57Z</time>
      </trkpt>
      <trkpt lat="39.8660080" lon="2.9306400">
        <ele>309.6</ele>
        <time>2021-07-25T12:41:59Z</time>
      </trkpt>
      <trkpt lat="39.8660390" lon="2.9305360">
        <ele>310.4</ele>
        <time>2021-07-25T12:42:02Z</time>
      </trkpt>
      <trkpt lat="39.8660440" lon="2.9305040">
        <ele>310.8</ele>
        <time>2021-07-25T12:42:03Z</time>
      </trkpt>
      <trkpt lat="39.8660880" lon="2.9303560">
        <ele>311.8</ele>
        <time>2021-07-25T12:42:07Z</time>
      </trkpt>
      <trkpt lat="39.8660990" lon="2.9303130">
        <ele>311.8</ele>
        <time>2021-07-25T12:42:08Z</time>
      </trkpt>
      <trkpt lat="39.8661510" lon="2.9301370">
        <ele>312.6</ele>
        <time>2021-07-25T12:42:12Z</time>
      </trkpt>
      <trkpt lat="39.8661750" lon="2.9300130">
        <ele>313.6</ele>
        <time>2021-07-25T12:42:15Z</time>
      </trkpt>
      <trkpt lat="39.8661860" lon="2.9299720">
        <ele>313.6</ele>
        <time>2021-07-25T12:42:16Z</time>
      </trkpt>
      <trkpt lat="39.8662540" lon="2.9297970">
        <ele>314.8</ele>
        <time>2021-07-25T12:42:20Z</time>
      </trkpt>
      <trkpt lat="39.8662750" lon="2.9297550">
        <ele>315.2</ele>
        <time>2021-07-25T12:42:21Z</time>
      </trkpt>
      <trkpt lat="39.8663880" lon="2.9296040">
        <ele>316.0</ele>
        <time>2021-07-25T12:42:25Z</time>
      </trkpt>
      <trkpt lat="39.8664180" lon="2.9295680">
        <ele>316.2</ele>
        <time>2021-07-25T12:42:26Z</time>
      </trkpt>
      <trkpt lat="39.8665380" lon="2.9294070">
        <ele>317.2</ele>
        <time>2021-07-25T12:42:30Z</time>
      </trkpt>
      <trkpt lat="39.8666320" lon="2.9292270">
        <ele>318.0</ele>
        <time>2021-07-25T12:42:34Z</time>
      </trkpt>
      <trkpt lat="39.8666510" lon="2.9291780">
        <ele>318.0</ele>
        <time>2021-07-25T12:42:35Z</time>
      </trkpt>
      <trkpt lat="39.8666710" lon="2.9291290">
        <ele>318.2</ele>
        <time>2021-07-25T12:42:36Z</time>
      </trkpt>
      <trkpt lat="39.8667320" lon="2.9289800">
        <ele>318.4</ele>
        <time>2021-07-25T12:42:39Z</time>
      </trkpt>
      <trkpt lat="39.8667540" lon="2.9289340">
        <ele>318.4</ele>
        <time>2021-07-25T12:42:40Z</time>
      </trkpt>
      <trkpt lat="39.8668580" lon="2.9286870">
        <ele>318.8</ele>
        <time>2021-07-25T12:42:45Z</time>
      </trkpt>
      <trkpt lat="39.8668920" lon="2.9285870">
        <ele>319.0</ele>
        <time>2021-07-25T12:42:47Z</time>
      </trkpt>
      <trkpt lat="39.8669520" lon="2.9284390">
        <ele>320.0</ele>
        <time>2021-07-25T12:42:50Z</time>
      </trkpt>
      <trkpt lat="39.8669730" lon="2.9283900">
        <ele>320.2</ele>
        <time>2021-07-25T12:42:51Z</time>
      </trkpt>
      <trkpt lat="39.8670740" lon="2.9281220">
        <ele>321.2</ele>
        <time>2021-07-25T12:42:57Z</time>
      </trkpt>
      <trkpt lat="39.8671590" lon="2.9279140">
        <ele>322.4</ele>
        <time>2021-07-25T12:43:03Z</time>
      </trkpt>
      <trkpt lat="39.8671920" lon="2.9278590">
        <ele>322.8</ele>
        <time>2021-07-25T12:43:05Z</time>
      </trkpt>
      <trkpt lat="39.8672470" lon="2.9277450">
        <ele>323.4</ele>
        <time>2021-07-25T12:43:09Z</time>
      </trkpt>
      <trkpt lat="39.8673320" lon="2.9276470">
        <ele>324.2</ele>
        <time>2021-07-25T12:43:13Z</time>
      </trkpt>
      <trkpt lat="39.8673860" lon="2.9276280">
        <ele>324.6</ele>
        <time>2021-07-25T12:43:15Z</time>
      </trkpt>
      <trkpt lat="39.8674890" lon="2.9276490">
        <ele>325.0</ele>
        <time>2021-07-25T12:43:19Z</time>
      </trkpt>
      <trkpt lat="39.8675400" lon="2.9276780">
        <ele>325.4</ele>
        <time>2021-07-25T12:43:21Z</time>
      </trkpt>
      <trkpt lat="39.8676130" lon="2.9277800">
        <ele>326.4</ele>
        <time>2021-07-25T12:43:25Z</time>
      </trkpt>
      <trkpt lat="39.8676830" lon="2.9279310">
        <ele>327.4</ele>
        <time>2021-07-25T12:43:30Z</time>
      </trkpt>
      <trkpt lat="39.8676910" lon="2.9279630">
        <ele>327.6</ele>
        <time>2021-07-25T12:43:31Z</time>
      </trkpt>
      <trkpt lat="39.8677260" lon="2.9280820">
        <ele>328.6</ele>
        <time>2021-07-25T12:43:35Z</time>
      </trkpt>
      <trkpt lat="39.8677420" lon="2.9281480">
        <ele>329.2</ele>
        <time>2021-07-25T12:43:37Z</time>
      </trkpt>
      <trkpt lat="39.8677640" lon="2.9282150">
        <ele>329.8</ele>
        <time>2021-07-25T12:43:39Z</time>
      </trkpt>
      <trkpt lat="39.8678210" lon="2.9283660">
        <ele>330.8</ele>
        <time>2021-07-25T12:43:44Z</time>
      </trkpt>
      <trkpt lat="39.8678530" lon="2.9285110">
        <ele>331.8</ele>
        <time>2021-07-25T12:43:49Z</time>
      </trkpt>
      <trkpt lat="39.8678640" lon="2.9285420">
        <ele>332.0</ele>
        <time>2021-07-25T12:43:50Z</time>
      </trkpt>
      <trkpt lat="39.8679520" lon="2.9286800">
        <ele>332.8</ele>
        <time>2021-07-25T12:43:55Z</time>
      </trkpt>
      <trkpt lat="39.8679740" lon="2.9286980">
        <ele>333.0</ele>
        <time>2021-07-25T12:43:56Z</time>
      </trkpt>
      <trkpt lat="39.8680850" lon="2.9287410">
        <ele>333.6</ele>
        <time>2021-07-25T12:44:00Z</time>
      </trkpt>
      <trkpt lat="39.8681350" lon="2.9287510">
        <ele>334.0</ele>
        <time>2021-07-25T12:44:02Z</time>
      </trkpt>
      <trkpt lat="39.8681870" lon="2.9287440">
        <ele>334.4</ele>
        <time>2021-07-25T12:44:04Z</time>
      </trkpt>
      <trkpt lat="39.8682400" lon="2.9287190">
        <ele>334.8</ele>
        <time>2021-07-25T12:44:06Z</time>
      </trkpt>
      <trkpt lat="39.8682660" lon="2.9287050">
        <ele>335.0</ele>
        <time>2021-07-25T12:44:07Z</time>
      </trkpt>
      <trkpt lat="39.8683590" lon="2.9286020">
        <ele>336.0</ele>
        <time>2021-07-25T12:44:11Z</time>
      </trkpt>
      <trkpt lat="39.8684260" lon="2.9284260">
        <ele>337.2</ele>
        <time>2021-07-25T12:44:16Z</time>
      </trkpt>
      <trkpt lat="39.8684370" lon="2.9283870">
        <ele>337.4</ele>
        <time>2021-07-25T12:44:17Z</time>
      </trkpt>
      <trkpt lat="39.8684890" lon="2.9281870">
        <ele>338.2</ele>
        <time>2021-07-25T12:44:23Z</time>
      </trkpt>
      <trkpt lat="39.8685360" lon="2.9279620">
        <ele>339.2</ele>
        <time>2021-07-25T12:44:29Z</time>
      </trkpt>
      <trkpt lat="39.8685450" lon="2.9279310">
        <ele>339.4</ele>
        <time>2021-07-25T12:44:30Z</time>
      </trkpt>
      <trkpt lat="39.8685760" lon="2.9277770">
        <ele>340.4</ele>
        <time>2021-07-25T12:44:35Z</time>
      </trkpt>
      <trkpt lat="39.8686240" lon="2.9275700">
        <ele>341.8</ele>
        <time>2021-07-25T12:44:41Z</time>
      </trkpt>
      <trkpt lat="39.8686830" lon="2.9274170">
        <ele>343.0</ele>
        <time>2021-07-25T12:44:45Z</time>
      </trkpt>
      <trkpt lat="39.8686930" lon="2.9273820">
        <ele>343.4</ele>
        <time>2021-07-25T12:44:46Z</time>
      </trkpt>
      <trkpt lat="39.8687180" lon="2.9272750">
        <ele>344.4</ele>
        <time>2021-07-25T12:44:49Z</time>
      </trkpt>
      <trkpt lat="39.8687510" lon="2.9271360">
        <ele>345.4</ele>
        <time>2021-07-25T12:44:53Z</time>
      </trkpt>
      <trkpt lat="39.8687880" lon="2.9269470">
        <ele>346.2</ele>
        <time>2021-07-25T12:44:59Z</time>
      </trkpt>
      <trkpt lat="39.8688030" lon="2.9269150">
        <ele>346.4</ele>
        <time>2021-07-25T12:45:00Z</time>
      </trkpt>
      <trkpt lat="39.8688520" lon="2.9268070">
        <ele>347.4</ele>
        <time>2021-07-25T12:45:03Z</time>
      </trkpt>
      <trkpt lat="39.8689120" lon="2.9267120">
        <ele>348.2</ele>
        <time>2021-07-25T12:45:06Z</time>
      </trkpt>
      <trkpt lat="39.8689330" lon="2.9266830">
        <ele>348.6</ele>
        <time>2021-07-25T12:45:07Z</time>
      </trkpt>
      <trkpt lat="39.8690350" lon="2.9265380">
        <ele>349.4</ele>
        <time>2021-07-25T12:45:12Z</time>
      </trkpt>
      <trkpt lat="39.8690580" lon="2.9265040">
        <ele>349.8</ele>
        <time>2021-07-25T12:45:13Z</time>
      </trkpt>
      <trkpt lat="39.8691430" lon="2.9263780">
        <ele>350.6</ele>
        <time>2021-07-25T12:45:17Z</time>
      </trkpt>
      <trkpt lat="39.8691620" lon="2.9263470">
        <ele>350.8</ele>
        <time>2021-07-25T12:45:18Z</time>
      </trkpt>
      <trkpt lat="39.8692420" lon="2.9261950">
        <ele>352.0</ele>
        <time>2021-07-25T12:45:23Z</time>
      </trkpt>
      <trkpt lat="39.8692690" lon="2.9261380">
        <ele>352.4</ele>
        <time>2021-07-25T12:45:25Z</time>
      </trkpt>
      <trkpt lat="39.8693160" lon="2.9260070">
        <ele>353.4</ele>
        <time>2021-07-25T12:45:29Z</time>
      </trkpt>
      <trkpt lat="39.8693410" lon="2.9259450">
        <ele>353.8</ele>
        <time>2021-07-25T12:45:31Z</time>
      </trkpt>
      <trkpt lat="39.8693560" lon="2.9258840">
        <ele>354.4</ele>
        <time>2021-07-25T12:45:33Z</time>
      </trkpt>
      <trkpt lat="39.8693910" lon="2.9257580">
        <ele>355.2</ele>
        <time>2021-07-25T12:45:37Z</time>
      </trkpt>
      <trkpt lat="39.8693920" lon="2.9257260">
        <ele>355.4</ele>
        <time>2021-07-25T12:45:38Z</time>
      </trkpt>
      <trkpt lat="39.8694030" lon="2.9256320">
        <ele>356.0</ele>
        <time>2021-07-25T12:45:41Z</time>
      </trkpt>
      <trkpt lat="39.8694010" lon="2.9255210">
        <ele>356.4</ele>
        <time>2021-07-25T12:45:44Z</time>
      </trkpt>
      <trkpt lat="39.8693800" lon="2.9254430">
        <ele>357.0</ele>
        <time>2021-07-25T12:45:46Z</time>
      </trkpt>
      <trkpt lat="39.8693340" lon="2.9253360">
        <ele>357.6</ele>
        <time>2021-07-25T12:45:49Z</time>
      </trkpt>
      <trkpt lat="39.8692900" lon="2.9252680">
        <ele>358.0</ele>
        <time>2021-07-25T12:45:51Z</time>
      </trkpt>
      <trkpt lat="39.8692170" lon="2.9251800">
        <ele>358.6</ele>
        <time>2021-07-25T12:45:54Z</time>
      </trkpt>
      <trkpt lat="39.8691150" lon="2.9250800">
        <ele>359.0</ele>
        <time>2021-07-25T12:45:58Z</time>
      </trkpt>
      <trkpt lat="39.8690410" lon="2.9250090">
        <ele>359.8</ele>
        <time>2021-07-25T12:46:01Z</time>
      </trkpt>
      <trkpt lat="39.8689010" lon="2.9249270">
        <ele>360.2</ele>
        <time>2021-07-25T12:46:06Z</time>
      </trkpt>
      <trkpt lat="39.8688360" lon="2.9249090">
        <ele>360.6</ele>
        <time>2021-07-25T12:46:08Z</time>
      </trkpt>
      <trkpt lat="39.8686960" lon="2.9248600">
        <ele>361.2</ele>
        <time>2021-07-25T12:46:12Z</time>
      </trkpt>
      <trkpt lat="39.8686230" lon="2.9248360">
        <ele>361.6</ele>
        <time>2021-07-25T12:46:14Z</time>
      </trkpt>
      <trkpt lat="39.8684880" lon="2.9247920">
        <ele>362.8</ele>
        <time>2021-07-25T12:46:18Z</time>
      </trkpt>
      <trkpt lat="39.8684570" lon="2.9247790">
        <ele>363.0</ele>
        <time>2021-07-25T12:46:19Z</time>
      </trkpt>
      <trkpt lat="39.8683690" lon="2.9247430">
        <ele>363.8</ele>
        <time>2021-07-25T12:46:22Z</time>
      </trkpt>
      <trkpt lat="39.8683090" lon="2.9247260">
        <ele>364.2</ele>
        <time>2021-07-25T12:46:24Z</time>
      </trkpt>
      <trkpt lat="39.8682490" lon="2.9247070">
        <ele>365.0</ele>
        <time>2021-07-25T12:46:26Z</time>
      </trkpt>
      <trkpt lat="39.8681720" lon="2.9246650">
        <ele>365.8</ele>
        <time>2021-07-25T12:46:29Z</time>
      </trkpt>
      <trkpt lat="39.8681120" lon="2.9246420">
        <ele>366.2</ele>
        <time>2021-07-25T12:46:31Z</time>
      </trkpt>
      <trkpt lat="39.8679940" lon="2.9246000">
        <ele>367.0</ele>
        <time>2021-07-25T12:46:35Z</time>
      </trkpt>
      <trkpt lat="39.8678330" lon="2.9245530">
        <ele>367.8</ele>
        <time>2021-07-25T12:46:40Z</time>
      </trkpt>
      <trkpt lat="39.8677700" lon="2.9245380">
        <ele>368.4</ele>
        <time>2021-07-25T12:46:42Z</time>
      </trkpt>
      <trkpt lat="39.8676700" lon="2.9245120">
        <ele>369.0</ele>
        <time>2021-07-25T12:46:45Z</time>
      </trkpt>
      <trkpt lat="39.8675740" lon="2.9244820">
        <ele>369.4</ele>
        <time>2021-07-25T12:46:48Z</time>
      </trkpt>
      <trkpt lat="39.8674480" lon="2.9244500">
        <ele>370.0</ele>
        <time>2021-07-25T12:46:52Z</time>
      </trkpt>
      <trkpt lat="39.8673860" lon="2.9244300">
        <ele>370.4</ele>
        <time>2021-07-25T12:46:54Z</time>
      </trkpt>
      <trkpt lat="39.8672320" lon="2.9243780">
        <ele>371.4</ele>
        <time>2021-07-25T12:46:59Z</time>
      </trkpt>
      <trkpt lat="39.8671390" lon="2.9243590">
        <ele>372.2</ele>
        <time>2021-07-25T12:47:02Z</time>
      </trkpt>
      <trkpt lat="39.8670770" lon="2.9243530">
        <ele>372.6</ele>
        <time>2021-07-25T12:47:04Z</time>
      </trkpt>
      <trkpt lat="39.8668780" lon="2.9243420">
        <ele>373.8</ele>
        <time>2021-07-25T12:47:10Z</time>
      </trkpt>
      <trkpt lat="39.8665490" lon="2.9243360">
        <ele>374.8</ele>
        <time>2021-07-25T12:47:19Z</time>
      </trkpt>
      <trkpt lat="39.8664750" lon="2.9243050">
        <ele>375.0</ele>
        <time>2021-07-25T12:47:21Z</time>
      </trkpt>
      <trkpt lat="39.8664140" lon="2.9242350">
        <ele>375.2</ele>
        <time>2021-07-25T12:47:23Z</time>
      </trkpt>
      <trkpt lat="39.8663570" lon="2.9240790">
        <ele>375.6</ele>
        <time>2021-07-25T12:47:26Z</time>
      </trkpt>
      <trkpt lat="39.8663410" lon="2.9240190">
        <ele>375.8</ele>
        <time>2021-07-25T12:47:27Z</time>
      </trkpt>
      <trkpt lat="39.8663260" lon="2.9239590">
        <ele>375.8</ele>
        <time>2021-07-25T12:47:28Z</time>
      </trkpt>
      <trkpt lat="39.8662300" lon="2.9235020">
        <ele>376.0</ele>
        <time>2021-07-25T12:47:35Z</time>
      </trkpt>
      <trkpt lat="39.8661240" lon="2.9229820">
        <ele>376.8</ele>
        <time>2021-07-25T12:47:43Z</time>
      </trkpt>
      <trkpt lat="39.8660520" lon="2.9226350">
        <ele>377.2</ele>
        <time>2021-07-25T12:47:49Z</time>
      </trkpt>
      <trkpt lat="39.8660380" lon="2.9225840">
        <ele>377.2</ele>
        <time>2021-07-25T12:47:50Z</time>
      </trkpt>
      <trkpt lat="39.8660020" lon="2.9223860">
        <ele>378.0</ele>
        <time>2021-07-25T12:47:54Z</time>
      </trkpt>
      <trkpt lat="39.8659860" lon="2.9222330">
        <ele>378.6</ele>
        <time>2021-07-25T12:47:56Z</time>
      </trkpt>
      <trkpt lat="39.8659820" lon="2.9221780">
        <ele>379.0</ele>
        <time>2021-07-25T12:47:58Z</time>
      </trkpt>
      <trkpt lat="39.8659810" lon="2.9221210">
        <ele>379.2</ele>
        <time>2021-07-25T12:47:59Z</time>
      </trkpt>
      <trkpt lat="39.8659870" lon="2.9220070">
        <ele>379.6</ele>
        <time>2021-07-25T12:48:01Z</time>
      </trkpt>
      <trkpt lat="39.8659950" lon="2.9219510">
        <ele>379.8</ele>
        <time>2021-07-25T12:48:02Z</time>
      </trkpt>
      <trkpt lat="39.8660120" lon="2.9217830">
        <ele>380.2</ele>
        <time>2021-07-25T12:48:05Z</time>
      </trkpt>
      <trkpt lat="39.8660060" lon="2.9217090">
        <ele>381.0</ele>
        <time>2021-07-25T12:48:07Z</time>
      </trkpt>
      <trkpt lat="39.8659800" lon="2.9217320">
        <ele>381.4</ele>
        <time>2021-07-25T12:48:08Z</time>
      </trkpt>
      <trkpt lat="39.8659750" lon="2.9217730">
        <ele>381.8</ele>
        <time>2021-07-25T12:48:09Z</time>
      </trkpt>
      <trkpt lat="39.8659690" lon="2.9219420">
        <ele>381.8</ele>
        <time>2021-07-25T12:48:12Z</time>
      </trkpt>
      <trkpt lat="39.8659710" lon="2.9220100">
        <ele>381.6</ele>
        <time>2021-07-25T12:48:13Z</time>
      </trkpt>
      <trkpt lat="39.8659630" lon="2.9222180">
        <ele>380.4</ele>
        <time>2021-07-25T12:48:16Z</time>
      </trkpt>
      <trkpt lat="39.8659680" lon="2.9222760">
        <ele>380.0</ele>
        <time>2021-07-25T12:48:17Z</time>
      </trkpt>
      <trkpt lat="39.8659770" lon="2.9223240">
        <ele>379.8</ele>
        <time>2021-07-25T12:48:18Z</time>
      </trkpt>
      <trkpt lat="39.8660170" lon="2.9223660">
        <ele>378.8</ele>
        <time>2021-07-25T12:48:21Z</time>
      </trkpt>
      <trkpt lat="39.8660190" lon="2.9222790">
        <ele>378.6</ele>
        <time>2021-07-25T12:48:24Z</time>
      </trkpt>
      <trkpt lat="39.8659990" lon="2.9219690">
        <ele>379.2</ele>
        <time>2021-07-25T12:48:29Z</time>
      </trkpt>
      <trkpt lat="39.8660180" lon="2.9217820">
        <ele>380.0</ele>
        <time>2021-07-25T12:48:32Z</time>
      </trkpt>
      <trkpt lat="39.8660270" lon="2.9215930">
        <ele>381.2</ele>
        <time>2021-07-25T12:48:35Z</time>
      </trkpt>
      <trkpt lat="39.8660270" lon="2.9215370">
        <ele>381.4</ele>
        <time>2021-07-25T12:48:36Z</time>
      </trkpt>
      <trkpt lat="39.8660310" lon="2.9214270">
        <ele>382.2</ele>
        <time>2021-07-25T12:48:39Z</time>
      </trkpt>
      <trkpt lat="39.8660480" lon="2.9212310">
        <ele>382.8</ele>
        <time>2021-07-25T12:48:43Z</time>
      </trkpt>
      <trkpt lat="39.8660430" lon="2.9210380">
        <ele>383.2</ele>
        <time>2021-07-25T12:48:46Z</time>
      </trkpt>
      <trkpt lat="39.8660290" lon="2.9209920">
        <ele>383.2</ele>
        <time>2021-07-25T12:48:47Z</time>
      </trkpt>
      <trkpt lat="39.8660290" lon="2.9209920">
        <ele>383.4</ele>
        <time>2021-07-25T12:48:48Z</time>
      </trkpt>
      <trkpt lat="39.8659880" lon="2.9208870">
        <ele>382.6</ele>
        <time>2021-07-25T12:48:50Z</time>
      </trkpt>
      <trkpt lat="39.8659540" lon="2.9208310">
        <ele>382.0</ele>
        <time>2021-07-25T12:48:51Z</time>
      </trkpt>
      <trkpt lat="39.8659160" lon="2.9207710">
        <ele>381.8</ele>
        <time>2021-07-25T12:48:52Z</time>
      </trkpt>
      <trkpt lat="39.8657630" lon="2.9205750">
        <ele>380.8</ele>
        <time>2021-07-25T12:48:55Z</time>
      </trkpt>
      <trkpt lat="39.8656530" lon="2.9204350">
        <ele>380.0</ele>
        <time>2021-07-25T12:48:57Z</time>
      </trkpt>
      <trkpt lat="39.8655390" lon="2.9202840">
        <ele>379.4</ele>
        <time>2021-07-25T12:48:58Z</time>
      </trkpt>
      <trkpt lat="39.8654180" lon="2.9201250">
        <ele>378.2</ele>
        <time>2021-07-25T12:49:01Z</time>
      </trkpt>
      <trkpt lat="39.8653050" lon="2.9199570">
        <ele>377.0</ele>
        <time>2021-07-25T12:49:03Z</time>
      </trkpt>
      <trkpt lat="39.8651380" lon="2.9196880">
        <ele>375.6</ele>
        <time>2021-07-25T12:49:05Z</time>
      </trkpt>
      <trkpt lat="39.8650230" lon="2.9195120">
        <ele>374.6</ele>
        <time>2021-07-25T12:49:08Z</time>
      </trkpt>
      <trkpt lat="39.8649700" lon="2.9194240">
        <ele>374.4</ele>
        <time>2021-07-25T12:49:09Z</time>
      </trkpt>
      <trkpt lat="39.8648260" lon="2.9191920">
        <ele>374.4</ele>
        <time>2021-07-25T12:49:12Z</time>
      </trkpt>
      <trkpt lat="39.8645710" lon="2.9188410">
        <ele>375.8</ele>
        <time>2021-07-25T12:49:17Z</time>
      </trkpt>
      <trkpt lat="39.8644810" lon="2.9186740">
        <ele>376.4</ele>
        <time>2021-07-25T12:49:20Z</time>
      </trkpt>
      <trkpt lat="39.8644810" lon="2.9186740">
        <ele>376.8</ele>
        <time>2021-07-25T12:49:21Z</time>
      </trkpt>
      <trkpt lat="39.8644400" lon="2.9185660">
        <ele>377.2</ele>
        <time>2021-07-25T12:49:23Z</time>
      </trkpt>
      <trkpt lat="39.8644070" lon="2.9184640">
        <ele>377.8</ele>
        <time>2021-07-25T12:49:25Z</time>
      </trkpt>
      <trkpt lat="39.8643220" lon="2.9181840">
        <ele>378.8</ele>
        <time>2021-07-25T12:49:30Z</time>
      </trkpt>
      <trkpt lat="39.8643220" lon="2.9181840">
        <ele>379.2</ele>
        <time>2021-07-25T12:49:31Z</time>
      </trkpt>
      <trkpt lat="39.8642630" lon="2.9179770">
        <ele>380.0</ele>
        <time>2021-07-25T12:49:35Z</time>
      </trkpt>
      <trkpt lat="39.8642530" lon="2.9179400">
        <ele>380.6</ele>
        <time>2021-07-25T12:49:37Z</time>
      </trkpt>
      <trkpt lat="39.8642320" lon="2.9178670">
        <ele>381.0</ele>
        <time>2021-07-25T12:49:39Z</time>
      </trkpt>
      <trkpt lat="39.8642110" lon="2.9177940">
        <ele>381.2</ele>
        <time>2021-07-25T12:49:40Z</time>
      </trkpt>
      <trkpt lat="39.8641520" lon="2.9176610">
        <ele>382.2</ele>
        <time>2021-07-25T12:49:45Z</time>
      </trkpt>
      <trkpt lat="39.8641130" lon="2.9176020">
        <ele>382.6</ele>
        <time>2021-07-25T12:49:46Z</time>
      </trkpt>
      <trkpt lat="39.8640630" lon="2.9175530">
        <ele>383.4</ele>
        <time>2021-07-25T12:49:48Z</time>
      </trkpt>
      <trkpt lat="39.8639550" lon="2.9174860">
        <ele>384.0</ele>
        <time>2021-07-25T12:49:52Z</time>
      </trkpt>
      <trkpt lat="39.8638980" lon="2.9174600">
        <ele>384.6</ele>
        <time>2021-07-25T12:49:55Z</time>
      </trkpt>
      <trkpt lat="39.8637230" lon="2.9173920">
        <ele>385.6</ele>
        <time>2021-07-25T12:50:00Z</time>
      </trkpt>
      <trkpt lat="39.8637230" lon="2.9173920">
        <ele>385.8</ele>
        <time>2021-07-25T12:50:01Z</time>
      </trkpt>
      <trkpt lat="39.8635560" lon="2.9173170">
        <ele>386.8</ele>
        <time>2021-07-25T12:50:07Z</time>
      </trkpt>
      <trkpt lat="39.8633860" lon="2.9172480">
        <ele>387.6</ele>
        <time>2021-07-25T12:50:12Z</time>
      </trkpt>
      <trkpt lat="39.8633300" lon="2.9172200">
        <ele>387.8</ele>
        <time>2021-07-25T12:50:14Z</time>
      </trkpt>
      <trkpt lat="39.8632180" lon="2.9171370">
        <ele>389.0</ele>
        <time>2021-07-25T12:50:19Z</time>
      </trkpt>
      <trkpt lat="39.8631720" lon="2.9170770">
        <ele>389.4</ele>
        <time>2021-07-25T12:50:20Z</time>
      </trkpt>
      <trkpt lat="39.8631030" lon="2.9169370">
        <ele>390.2</ele>
        <time>2021-07-25T12:50:25Z</time>
      </trkpt>
      <trkpt lat="39.8630490" lon="2.9167910">
        <ele>390.8</ele>
        <time>2021-07-25T12:50:28Z</time>
      </trkpt>
      <trkpt lat="39.8629940" lon="2.9166650">
        <ele>391.4</ele>
        <time>2021-07-25T12:50:32Z</time>
      </trkpt>
      <trkpt lat="39.8629380" lon="2.9165910">
        <ele>392.4</ele>
        <time>2021-07-25T12:50:35Z</time>
      </trkpt>
      <trkpt lat="39.8629150" lon="2.9165700">
        <ele>393.0</ele>
        <time>2021-07-25T12:50:37Z</time>
      </trkpt>
      <trkpt lat="39.8627560" lon="2.9164390">
        <ele>393.4</ele>
        <time>2021-07-25T12:50:42Z</time>
      </trkpt>
      <trkpt lat="39.8626310" lon="2.9163670">
        <ele>394.0</ele>
        <time>2021-07-25T12:50:46Z</time>
      </trkpt>
      <trkpt lat="39.8625040" lon="2.9163380">
        <ele>394.6</ele>
        <time>2021-07-25T12:50:51Z</time>
      </trkpt>
      <trkpt lat="39.8624090" lon="2.9163420">
        <ele>394.6</ele>
        <time>2021-07-25T12:50:53Z</time>
      </trkpt>
      <trkpt lat="39.8621840" lon="2.9163880">
        <ele>395.4</ele>
        <time>2021-07-25T12:51:00Z</time>
      </trkpt>
      <trkpt lat="39.8621180" lon="2.9164020">
        <ele>395.8</ele>
        <time>2021-07-25T12:51:03Z</time>
      </trkpt>
      <trkpt lat="39.8619210" lon="2.9164500">
        <ele>396.4</ele>
        <time>2021-07-25T12:51:09Z</time>
      </trkpt>
      <trkpt lat="39.8617920" lon="2.9164830">
        <ele>396.8</ele>
        <time>2021-07-25T12:51:12Z</time>
      </trkpt>
      <trkpt lat="39.8616290" lon="2.9165120">
        <ele>397.4</ele>
        <time>2021-07-25T12:51:17Z</time>
      </trkpt>
      <trkpt lat="39.8615330" lon="2.9165380">
        <ele>398.2</ele>
        <time>2021-07-25T12:51:21Z</time>
      </trkpt>
      <trkpt lat="39.8614430" lon="2.9165430">
        <ele>398.6</ele>
        <time>2021-07-25T12:51:23Z</time>
      </trkpt>
      <trkpt lat="39.8613490" lon="2.9165490">
        <ele>399.2</ele>
        <time>2021-07-25T12:51:26Z</time>
      </trkpt>
      <trkpt lat="39.8612610" lon="2.9165260">
        <ele>399.6</ele>
        <time>2021-07-25T12:51:29Z</time>
      </trkpt>
      <trkpt lat="39.8612340" lon="2.9165110">
        <ele>400.2</ele>
        <time>2021-07-25T12:51:31Z</time>
      </trkpt>
      <trkpt lat="39.8611320" lon="2.9164240">
        <ele>400.8</ele>
        <time>2021-07-25T12:51:34Z</time>
      </trkpt>
      <trkpt lat="39.8610950" lon="2.9163810">
        <ele>401.0</ele>
        <time>2021-07-25T12:51:36Z</time>
      </trkpt>
      <trkpt lat="39.8610300" lon="2.9162560">
        <ele>401.6</ele>
        <time>2021-07-25T12:51:40Z</time>
      </trkpt>
      <trkpt lat="39.8609980" lon="2.9161940">
        <ele>402.0</ele>
        <time>2021-07-25T12:51:42Z</time>
      </trkpt>
      <trkpt lat="39.8609270" lon="2.9160330">
        <ele>402.8</ele>
        <time>2021-07-25T12:51:47Z</time>
      </trkpt>
      <trkpt lat="39.8608340" lon="2.9158980">
        <ele>403.8</ele>
        <time>2021-07-25T12:51:52Z</time>
      </trkpt>
      <trkpt lat="39.8608120" lon="2.9158800">
        <ele>404.0</ele>
        <time>2021-07-25T12:51:53Z</time>
      </trkpt>
      <trkpt lat="39.8607000" lon="2.9157960">
        <ele>405.2</ele>
        <time>2021-07-25T12:51:58Z</time>
      </trkpt>
      <trkpt lat="39.8606500" lon="2.9157640">
        <ele>405.8</ele>
        <time>2021-07-25T12:52:01Z</time>
      </trkpt>
      <trkpt lat="39.8605450" lon="2.9156930">
        <ele>406.4</ele>
        <time>2021-07-25T12:52:04Z</time>
      </trkpt>
      <trkpt lat="39.8603830" lon="2.9156030">
        <ele>407.6</ele>
        <time>2021-07-25T12:52:10Z</time>
      </trkpt>
      <trkpt lat="39.8602780" lon="2.9155400">
        <ele>408.6</ele>
        <time>2021-07-25T12:52:14Z</time>
      </trkpt>
      <trkpt lat="39.8601830" lon="2.9154880">
        <ele>409.8</ele>
        <time>2021-07-25T12:52:19Z</time>
      </trkpt>
      <trkpt lat="39.8600370" lon="2.9154320">
        <ele>410.8</ele>
        <time>2021-07-25T12:52:24Z</time>
      </trkpt>
      <trkpt lat="39.8599920" lon="2.9154350">
        <ele>411.4</ele>
        <time>2021-07-25T12:52:26Z</time>
      </trkpt>
      <trkpt lat="39.8599160" lon="2.9154490">
        <ele>412.0</ele>
        <time>2021-07-25T12:52:29Z</time>
      </trkpt>
      <trkpt lat="39.8598320" lon="2.9154760">
        <ele>412.6</ele>
        <time>2021-07-25T12:52:32Z</time>
      </trkpt>
      <trkpt lat="39.8597740" lon="2.9154950">
        <ele>413.2</ele>
        <time>2021-07-25T12:52:34Z</time>
      </trkpt>
      <trkpt lat="39.8595940" lon="2.9155200">
        <ele>414.0</ele>
        <time>2021-07-25T12:52:40Z</time>
      </trkpt>
      <trkpt lat="39.8595650" lon="2.9155090">
        <ele>414.2</ele>
        <time>2021-07-25T12:52:41Z</time>
      </trkpt>
      <trkpt lat="39.8594820" lon="2.9154380">
        <ele>414.8</ele>
        <time>2021-07-25T12:52:45Z</time>
      </trkpt>
      <trkpt lat="39.8594090" lon="2.9153060">
        <ele>415.2</ele>
        <time>2021-07-25T12:52:48Z</time>
      </trkpt>
      <trkpt lat="39.8593810" lon="2.9152310">
        <ele>415.4</ele>
        <time>2021-07-25T12:52:50Z</time>
      </trkpt>
      <trkpt lat="39.8592560" lon="2.9149890">
        <ele>416.2</ele>
        <time>2021-07-25T12:52:57Z</time>
      </trkpt>
      <trkpt lat="39.8591950" lon="2.9149110">
        <ele>416.2</ele>
        <time>2021-07-25T12:52:58Z</time>
      </trkpt>
      <trkpt lat="39.8590020" lon="2.9146650">
        <ele>416.4</ele>
        <time>2021-07-25T12:53:04Z</time>
      </trkpt>
      <trkpt lat="39.8588540" lon="2.9145230">
        <ele>417.0</ele>
        <time>2021-07-25T12:53:08Z</time>
      </trkpt>
      <trkpt lat="39.8587700" lon="2.9144610">
        <ele>417.0</ele>
        <time>2021-07-25T12:53:10Z</time>
      </trkpt>
      <trkpt lat="39.8584160" lon="2.9142330">
        <ele>417.2</ele>
        <time>2021-07-25T12:53:18Z</time>
      </trkpt>
      <trkpt lat="39.8582510" lon="2.9141300">
        <ele>418.0</ele>
        <time>2021-07-25T12:53:22Z</time>
      </trkpt>
      <trkpt lat="39.8581720" lon="2.9140840">
        <ele>418.4</ele>
        <time>2021-07-25T12:53:24Z</time>
      </trkpt>
      <trkpt lat="39.8580920" lon="2.9140450">
        <ele>418.8</ele>
        <time>2021-07-25T12:53:26Z</time>
      </trkpt>
      <trkpt lat="39.8578430" lon="2.9140080">
        <ele>419.2</ele>
        <time>2021-07-25T12:53:32Z</time>
      </trkpt>
      <trkpt lat="39.8578430" lon="2.9140080">
        <ele>419.4</ele>
        <time>2021-07-25T12:53:33Z</time>
      </trkpt>
      <trkpt lat="39.8577090" lon="2.9140330">
        <ele>419.6</ele>
        <time>2021-07-25T12:53:35Z</time>
      </trkpt>
      <trkpt lat="39.8575690" lon="2.9140520">
        <ele>419.8</ele>
        <time>2021-07-25T12:53:39Z</time>
      </trkpt>
      <trkpt lat="39.8572930" lon="2.9140740">
        <ele>420.4</ele>
        <time>2021-07-25T12:53:44Z</time>
      </trkpt>
      <trkpt lat="39.8572050" lon="2.9140690">
        <ele>420.6</ele>
        <time>2021-07-25T12:53:46Z</time>
      </trkpt>
      <trkpt lat="39.8570370" lon="2.9139650">
        <ele>421.2</ele>
        <time>2021-07-25T12:53:50Z</time>
      </trkpt>
      <trkpt lat="39.8569160" lon="2.9137730">
        <ele>421.4</ele>
        <time>2021-07-25T12:53:55Z</time>
      </trkpt>
      <trkpt lat="39.8568070" lon="2.9135860">
        <ele>421.8</ele>
        <time>2021-07-25T12:53:58Z</time>
      </trkpt>
      <trkpt lat="39.8567150" lon="2.9134030">
        <ele>422.4</ele>
        <time>2021-07-25T12:54:02Z</time>
      </trkpt>
      <trkpt lat="39.8566630" lon="2.9132560">
        <ele>422.8</ele>
        <time>2021-07-25T12:54:05Z</time>
      </trkpt>
      <trkpt lat="39.8566590" lon="2.9132040">
        <ele>423.0</ele>
        <time>2021-07-25T12:54:06Z</time>
      </trkpt>
      <trkpt lat="39.8566730" lon="2.9131030">
        <ele>423.8</ele>
        <time>2021-07-25T12:54:09Z</time>
      </trkpt>
      <trkpt lat="39.8567180" lon="2.9129660">
        <ele>424.0</ele>
        <time>2021-07-25T12:54:11Z</time>
      </trkpt>
      <trkpt lat="39.8567850" lon="2.9128310">
        <ele>424.8</ele>
        <time>2021-07-25T12:54:14Z</time>
      </trkpt>
      <trkpt lat="39.8568760" lon="2.9126490">
        <ele>426.0</ele>
        <time>2021-07-25T12:54:18Z</time>
      </trkpt>
      <trkpt lat="39.8570490" lon="2.9123990">
        <ele>427.2</ele>
        <time>2021-07-25T12:54:25Z</time>
      </trkpt>
      <trkpt lat="39.8571170" lon="2.9123320">
        <ele>427.4</ele>
        <time>2021-07-25T12:54:27Z</time>
      </trkpt>
      <trkpt lat="39.8574320" lon="2.9119910">
        <ele>428.0</ele>
        <time>2021-07-25T12:54:36Z</time>
      </trkpt>
      <trkpt lat="39.8576870" lon="2.9117230">
        <ele>428.0</ele>
        <time>2021-07-25T12:54:45Z</time>
      </trkpt>
      <trkpt lat="39.8577420" lon="2.9116650">
        <ele>428.2</ele>
        <time>2021-07-25T12:54:46Z</time>
      </trkpt>
      <trkpt lat="39.8578450" lon="2.9115600">
        <ele>429.4</ele>
        <time>2021-07-25T12:54:51Z</time>
      </trkpt>
      <trkpt lat="39.8578890" lon="2.9115140">
        <ele>429.6</ele>
        <time>2021-07-25T12:54:52Z</time>
      </trkpt>
      <trkpt lat="39.8579720" lon="2.9114310">
        <ele>430.6</ele>
        <time>2021-07-25T12:54:56Z</time>
      </trkpt>
      <trkpt lat="39.8580610" lon="2.9113510">
        <ele>431.4</ele>
        <time>2021-07-25T12:55:00Z</time>
      </trkpt>
      <trkpt lat="39.8581050" lon="2.9113050">
        <ele>431.8</ele>
        <time>2021-07-25T12:55:02Z</time>
      </trkpt>
      <trkpt lat="39.8582380" lon="2.9111840">
        <ele>433.0</ele>
        <time>2021-07-25T12:55:08Z</time>
      </trkpt>
      <trkpt lat="39.8583220" lon="2.9110950">
        <ele>434.2</ele>
        <time>2021-07-25T12:55:13Z</time>
      </trkpt>
      <trkpt lat="39.8583990" lon="2.9109980">
        <ele>434.8</ele>
        <time>2021-07-25T12:55:16Z</time>
      </trkpt>
      <trkpt lat="39.8584390" lon="2.9109370">
        <ele>435.0</ele>
        <time>2021-07-25T12:55:18Z</time>
      </trkpt>
      <trkpt lat="39.8584610" lon="2.9108580">
        <ele>435.8</ele>
        <time>2021-07-25T12:55:21Z</time>
      </trkpt>
      <trkpt lat="39.8584640" lon="2.9107840">
        <ele>436.2</ele>
        <time>2021-07-25T12:55:22Z</time>
      </trkpt>
      <trkpt lat="39.8584400" lon="2.9106490">
        <ele>437.0</ele>
        <time>2021-07-25T12:55:26Z</time>
      </trkpt>
      <trkpt lat="39.8584400" lon="2.9106490">
        <ele>437.2</ele>
        <time>2021-07-25T12:55:27Z</time>
      </trkpt>
      <trkpt lat="39.8583130" lon="2.9105160">
        <ele>438.4</ele>
        <time>2021-07-25T12:55:32Z</time>
      </trkpt>
      <trkpt lat="39.8581840" lon="2.9104600">
        <ele>439.4</ele>
        <time>2021-07-25T12:55:38Z</time>
      </trkpt>
      <trkpt lat="39.8581350" lon="2.9104590">
        <ele>439.8</ele>
        <time>2021-07-25T12:55:40Z</time>
      </trkpt>
      <trkpt lat="39.8580340" lon="2.9104610">
        <ele>440.6</ele>
        <time>2021-07-25T12:55:44Z</time>
      </trkpt>
      <trkpt lat="39.8579870" lon="2.9104600">
        <ele>441.0</ele>
        <time>2021-07-25T12:55:46Z</time>
      </trkpt>
      <trkpt lat="39.8579420" lon="2.9104620">
        <ele>441.6</ele>
        <time>2021-07-25T12:55:49Z</time>
      </trkpt>
      <trkpt lat="39.8578010" lon="2.9104830">
        <ele>442.2</ele>
        <time>2021-07-25T12:55:54Z</time>
      </trkpt>
      <trkpt lat="39.8577510" lon="2.9104840">
        <ele>442.6</ele>
        <time>2021-07-25T12:55:56Z</time>
      </trkpt>
      <trkpt lat="39.8576500" lon="2.9104810">
        <ele>443.6</ele>
        <time>2021-07-25T12:56:01Z</time>
      </trkpt>
      <trkpt lat="39.8575220" lon="2.9104630">
        <ele>444.4</ele>
        <time>2021-07-25T12:56:05Z</time>
      </trkpt>
      <trkpt lat="39.8574940" lon="2.9104560">
        <ele>444.8</ele>
        <time>2021-07-25T12:56:07Z</time>
      </trkpt>
      <trkpt lat="39.8573440" lon="2.9104070">
        <ele>445.8</ele>
        <time>2021-07-25T12:56:11Z</time>
      </trkpt>
      <trkpt lat="39.8573160" lon="2.9103990">
        <ele>446.0</ele>
        <time>2021-07-25T12:56:12Z</time>
      </trkpt>
      <trkpt lat="39.8572610" lon="2.9103890">
        <ele>446.8</ele>
        <time>2021-07-25T12:56:15Z</time>
      </trkpt>
      <trkpt lat="39.8571590" lon="2.9103880">
        <ele>447.8</ele>
        <time>2021-07-25T12:56:19Z</time>
      </trkpt>
      <trkpt lat="39.8570180" lon="2.9103590">
        <ele>448.8</ele>
        <time>2021-07-25T12:56:24Z</time>
      </trkpt>
      <trkpt lat="39.8569710" lon="2.9103490">
        <ele>449.2</ele>
        <time>2021-07-25T12:56:26Z</time>
      </trkpt>
      <trkpt lat="39.8568660" lon="2.9103100">
        <ele>450.0</ele>
        <time>2021-07-25T12:56:30Z</time>
      </trkpt>
      <trkpt lat="39.8568150" lon="2.9102800">
        <ele>450.8</ele>
        <time>2021-07-25T12:56:33Z</time>
      </trkpt>
      <trkpt lat="39.8567670" lon="2.9102400">
        <ele>451.0</ele>
        <time>2021-07-25T12:56:34Z</time>
      </trkpt>
      <trkpt lat="39.8566720" lon="2.9101540">
        <ele>452.2</ele>
        <time>2021-07-25T12:56:39Z</time>
      </trkpt>
      <trkpt lat="39.8566260" lon="2.9101090">
        <ele>452.4</ele>
        <time>2021-07-25T12:56:40Z</time>
      </trkpt>
      <trkpt lat="39.8565810" lon="2.9100550">
        <ele>453.2</ele>
        <time>2021-07-25T12:56:42Z</time>
      </trkpt>
      <trkpt lat="39.8564710" lon="2.9099350">
        <ele>454.4</ele>
        <time>2021-07-25T12:56:47Z</time>
      </trkpt>
      <trkpt lat="39.8564480" lon="2.9099110">
        <ele>454.6</ele>
        <time>2021-07-25T12:56:48Z</time>
      </trkpt>
      <trkpt lat="39.8563540" lon="2.9097930">
        <ele>455.4</ele>
        <time>2021-07-25T12:56:53Z</time>
      </trkpt>
      <trkpt lat="39.8563010" lon="2.9097180">
        <ele>456.4</ele>
        <time>2021-07-25T12:56:57Z</time>
      </trkpt>
      <trkpt lat="39.8562530" lon="2.9096750">
        <ele>456.6</ele>
        <time>2021-07-25T12:56:58Z</time>
      </trkpt>
      <trkpt lat="39.8560980" lon="2.9094960">
        <ele>457.0</ele>
        <time>2021-07-25T12:57:05Z</time>
      </trkpt>
      <trkpt lat="39.8559140" lon="2.9093030">
        <ele>457.0</ele>
        <time>2021-07-25T12:57:12Z</time>
      </trkpt>
      <trkpt lat="39.8558530" lon="2.9092390">
        <ele>457.4</ele>
        <time>2021-07-25T12:57:14Z</time>
      </trkpt>
      <trkpt lat="39.8556760" lon="2.9090410">
        <ele>457.6</ele>
        <time>2021-07-25T12:57:20Z</time>
      </trkpt>
      <trkpt lat="39.8554890" lon="2.9088490">
        <ele>458.4</ele>
        <time>2021-07-25T12:57:27Z</time>
      </trkpt>
      <trkpt lat="39.8553900" lon="2.9087460">
        <ele>458.6</ele>
        <time>2021-07-25T12:57:29Z</time>
      </trkpt>
      <trkpt lat="39.8551820" lon="2.9085480">
        <ele>458.6</ele>
        <time>2021-07-25T12:57:35Z</time>
      </trkpt>
      <trkpt lat="39.8550210" lon="2.9084000">
        <ele>459.4</ele>
        <time>2021-07-25T12:57:40Z</time>
      </trkpt>
      <trkpt lat="39.8549580" lon="2.9083480">
        <ele>460.0</ele>
        <time>2021-07-25T12:57:42Z</time>
      </trkpt>
      <trkpt lat="39.8547850" lon="2.9082010">
        <ele>460.6</ele>
        <time>2021-07-25T12:57:48Z</time>
      </trkpt>
      <trkpt lat="39.8547380" lon="2.9081550">
        <ele>461.2</ele>
        <time>2021-07-25T12:57:51Z</time>
      </trkpt>
      <trkpt lat="39.8546600" lon="2.9080810">
        <ele>461.8</ele>
        <time>2021-07-25T12:57:53Z</time>
      </trkpt>
      <trkpt lat="39.8545290" lon="2.9079560">
        <ele>463.0</ele>
        <time>2021-07-25T12:57:58Z</time>
      </trkpt>
      <trkpt lat="39.8544750" lon="2.9079060">
        <ele>463.4</ele>
        <time>2021-07-25T12:58:00Z</time>
      </trkpt>
      <trkpt lat="39.8544230" lon="2.9078610">
        <ele>464.0</ele>
        <time>2021-07-25T12:58:02Z</time>
      </trkpt>
      <trkpt lat="39.8543360" lon="2.9077580">
        <ele>465.0</ele>
        <time>2021-07-25T12:58:07Z</time>
      </trkpt>
      <trkpt lat="39.8542610" lon="2.9075720">
        <ele>466.4</ele>
        <time>2021-07-25T12:58:12Z</time>
      </trkpt>
      <trkpt lat="39.8542610" lon="2.9075720">
        <ele>466.6</ele>
        <time>2021-07-25T12:58:13Z</time>
      </trkpt>
      <trkpt lat="39.8542030" lon="2.9074460">
        <ele>467.4</ele>
        <time>2021-07-25T12:58:16Z</time>
      </trkpt>
      <trkpt lat="39.8541550" lon="2.9073160">
        <ele>468.6</ele>
        <time>2021-07-25T12:58:20Z</time>
      </trkpt>
      <trkpt lat="39.8541310" lon="2.9072610">
        <ele>469.0</ele>
        <time>2021-07-25T12:58:22Z</time>
      </trkpt>
      <trkpt lat="39.8541050" lon="2.9072030">
        <ele>469.6</ele>
        <time>2021-07-25T12:58:25Z</time>
      </trkpt>
      <trkpt lat="39.8540630" lon="2.9070760">
        <ele>470.0</ele>
        <time>2021-07-25T12:58:28Z</time>
      </trkpt>
      <trkpt lat="39.8540250" lon="2.9069190">
        <ele>470.8</ele>
        <time>2021-07-25T12:58:33Z</time>
      </trkpt>
      <trkpt lat="39.8540130" lon="2.9068350">
        <ele>471.0</ele>
        <time>2021-07-25T12:58:34Z</time>
      </trkpt>
      <trkpt lat="39.8540430" lon="2.9066740">
        <ele>472.0</ele>
        <time>2021-07-25T12:58:39Z</time>
      </trkpt>
      <trkpt lat="39.8540750" lon="2.9065980">
        <ele>472.2</ele>
        <time>2021-07-25T12:58:40Z</time>
      </trkpt>
      <trkpt lat="39.8541380" lon="2.9064520">
        <ele>473.2</ele>
        <time>2021-07-25T12:58:45Z</time>
      </trkpt>
      <trkpt lat="39.8541870" lon="2.9063490">
        <ele>473.8</ele>
        <time>2021-07-25T12:58:47Z</time>
      </trkpt>
      <trkpt lat="39.8542080" lon="2.9063170">
        <ele>474.4</ele>
        <time>2021-07-25T12:58:49Z</time>
      </trkpt>
      <trkpt lat="39.8543170" lon="2.9061210">
        <ele>475.4</ele>
        <time>2021-07-25T12:58:54Z</time>
      </trkpt>
      <trkpt lat="39.8543530" lon="2.9060650">
        <ele>476.0</ele>
        <time>2021-07-25T12:58:56Z</time>
      </trkpt>
      <trkpt lat="39.8543830" lon="2.9060070">
        <ele>476.4</ele>
        <time>2021-07-25T12:58:58Z</time>
      </trkpt>
      <trkpt lat="39.8544280" lon="2.9058740">
        <ele>477.8</ele>
        <time>2021-07-25T12:59:02Z</time>
      </trkpt>
      <trkpt lat="39.8544650" lon="2.9057720">
        <ele>479.0</ele>
        <time>2021-07-25T12:59:05Z</time>
      </trkpt>
      <trkpt lat="39.8544870" lon="2.9055970">
        <ele>480.0</ele>
        <time>2021-07-25T12:59:10Z</time>
      </trkpt>
      <trkpt lat="39.8544890" lon="2.9055640">
        <ele>480.2</ele>
        <time>2021-07-25T12:59:11Z</time>
      </trkpt>
      <trkpt lat="39.8545080" lon="2.9053580">
        <ele>481.2</ele>
        <time>2021-07-25T12:59:17Z</time>
      </trkpt>
      <trkpt lat="39.8545100" lon="2.9053310">
        <ele>481.2</ele>
        <time>2021-07-25T12:59:18Z</time>
      </trkpt>
      <trkpt lat="39.8545280" lon="2.9051850">
        <ele>482.2</ele>
        <time>2021-07-25T12:59:22Z</time>
      </trkpt>
      <trkpt lat="39.8545480" lon="2.9051110">
        <ele>482.4</ele>
        <time>2021-07-25T12:59:24Z</time>
      </trkpt>
      <trkpt lat="39.8545930" lon="2.9049820">
        <ele>483.2</ele>
        <time>2021-07-25T12:59:28Z</time>
      </trkpt>
      <trkpt lat="39.8546240" lon="2.9049330">
        <ele>483.8</ele>
        <time>2021-07-25T12:59:31Z</time>
      </trkpt>
      <trkpt lat="39.8547550" lon="2.9047540">
        <ele>484.2</ele>
        <time>2021-07-25T12:59:36Z</time>
      </trkpt>
      <trkpt lat="39.8547550" lon="2.9047540">
        <ele>484.8</ele>
        <time>2021-07-25T12:59:37Z</time>
      </trkpt>
      <trkpt lat="39.8547970" lon="2.9046940">
        <ele>485.4</ele>
        <time>2021-07-25T12:59:39Z</time>
      </trkpt>
      <trkpt lat="39.8548810" lon="2.9045780">
        <ele>486.2</ele>
        <time>2021-07-25T12:59:43Z</time>
      </trkpt>
      <trkpt lat="39.8549230" lon="2.9045190">
        <ele>486.4</ele>
        <time>2021-07-25T12:59:44Z</time>
      </trkpt>
      <trkpt lat="39.8549950" lon="2.9043900">
        <ele>487.0</ele>
        <time>2021-07-25T12:59:49Z</time>
      </trkpt>
      <trkpt lat="39.8550380" lon="2.9043310">
        <ele>487.2</ele>
        <time>2021-07-25T12:59:51Z</time>
      </trkpt>
      <trkpt lat="39.8551390" lon="2.9042630">
        <ele>488.2</ele>
        <time>2021-07-25T12:59:55Z</time>
      </trkpt>
      <trkpt lat="39.8551900" lon="2.9042460">
        <ele>488.2</ele>
        <time>2021-07-25T12:59:56Z</time>
      </trkpt>
      <trkpt lat="39.8553500" lon="2.9042210">
        <ele>489.4</ele>
        <time>2021-07-25T13:00:02Z</time>
      </trkpt>
      <trkpt lat="39.8554610" lon="2.9042000">
        <ele>490.4</ele>
        <time>2021-07-25T13:00:07Z</time>
      </trkpt>
      <trkpt lat="39.8556060" lon="2.9041790">
        <ele>491.0</ele>
        <time>2021-07-25T13:00:11Z</time>
      </trkpt>
      <trkpt lat="39.8556340" lon="2.9041730">
        <ele>491.4</ele>
        <time>2021-07-25T13:00:13Z</time>
      </trkpt>
      <trkpt lat="39.8557720" lon="2.9040930">
        <ele>492.4</ele>
        <time>2021-07-25T13:00:17Z</time>
      </trkpt>
      <trkpt lat="39.8557960" lon="2.9040720">
        <ele>492.6</ele>
        <time>2021-07-25T13:00:19Z</time>
      </trkpt>
      <trkpt lat="39.8559200" lon="2.9039370">
        <ele>493.6</ele>
        <time>2021-07-25T13:00:23Z</time>
      </trkpt>
      <trkpt lat="39.8559760" lon="2.9038500">
        <ele>495.0</ele>
        <time>2021-07-25T13:00:27Z</time>
      </trkpt>
      <trkpt lat="39.8560610" lon="2.9036330">
        <ele>496.0</ele>
        <time>2021-07-25T13:00:32Z</time>
      </trkpt>
      <trkpt lat="39.8561070" lon="2.9034910">
        <ele>497.2</ele>
        <time>2021-07-25T13:00:37Z</time>
      </trkpt>
      <trkpt lat="39.8561550" lon="2.9033300">
        <ele>498.4</ele>
        <time>2021-07-25T13:00:41Z</time>
      </trkpt>
      <trkpt lat="39.8561730" lon="2.9031520">
        <ele>499.4</ele>
        <time>2021-07-25T13:00:46Z</time>
      </trkpt>
      <trkpt lat="39.8561770" lon="2.9029810">
        <ele>500.4</ele>
        <time>2021-07-25T13:00:50Z</time>
      </trkpt>
      <trkpt lat="39.8561830" lon="2.9028850">
        <ele>501.0</ele>
        <time>2021-07-25T13:00:52Z</time>
      </trkpt>
      <trkpt lat="39.8561870" lon="2.9028360">
        <ele>501.2</ele>
        <time>2021-07-25T13:00:53Z</time>
      </trkpt>
      <trkpt lat="39.8561820" lon="2.9025560">
        <ele>502.4</ele>
        <time>2021-07-25T13:00:59Z</time>
      </trkpt>
      <trkpt lat="39.8561770" lon="2.9024230">
        <ele>503.0</ele>
        <time>2021-07-25T13:01:02Z</time>
      </trkpt>
      <trkpt lat="39.8561650" lon="2.9022930">
        <ele>504.0</ele>
        <time>2021-07-25T13:01:05Z</time>
      </trkpt>
      <trkpt lat="39.8561190" lon="2.9020600">
        <ele>505.0</ele>
        <time>2021-07-25T13:01:10Z</time>
      </trkpt>
      <trkpt lat="39.8561060" lon="2.9020100">
        <ele>505.2</ele>
        <time>2021-07-25T13:01:11Z</time>
      </trkpt>
      <trkpt lat="39.8560510" lon="2.9018660">
        <ele>506.0</ele>
        <time>2021-07-25T13:01:14Z</time>
      </trkpt>
      <trkpt lat="39.8560510" lon="2.9018660">
        <ele>506.0</ele>
        <time>2021-07-25T13:01:15Z</time>
      </trkpt>
      <trkpt lat="39.8559540" lon="2.9016870">
        <ele>506.2</ele>
        <time>2021-07-25T13:01:18Z</time>
      </trkpt>
      <trkpt lat="39.8556810" lon="2.9012260">
        <ele>506.8</ele>
        <time>2021-07-25T13:01:28Z</time>
      </trkpt>
      <trkpt lat="39.8556320" lon="2.9011300">
        <ele>507.0</ele>
        <time>2021-07-25T13:01:30Z</time>
      </trkpt>
      <trkpt lat="39.8555960" lon="2.9010620">
        <ele>507.2</ele>
        <time>2021-07-25T13:01:32Z</time>
      </trkpt>
      <trkpt lat="39.8555690" lon="2.9010560">
        <ele>507.2</ele>
        <time>2021-07-25T13:01:34Z</time>
      </trkpt>
      <trkpt lat="39.8555700" lon="2.9010820">
        <ele>507.0</ele>
        <time>2021-07-25T13:01:35Z</time>
      </trkpt>
      <trkpt lat="39.8556240" lon="2.9011920">
        <ele>507.0</ele>
        <time>2021-07-25T13:01:39Z</time>
      </trkpt>
      <trkpt lat="39.8557800" lon="2.9014820">
        <ele>506.8</ele>
        <time>2021-07-25T13:01:44Z</time>
      </trkpt>
      <trkpt lat="39.8559780" lon="2.9018280">
        <ele>506.6</ele>
        <time>2021-07-25T13:01:51Z</time>
      </trkpt>
      <trkpt lat="39.8560350" lon="2.9019580">
        <ele>506.6</ele>
        <time>2021-07-25T13:01:52Z</time>
      </trkpt>
      <trkpt lat="39.8560730" lon="2.9020630">
        <ele>506.0</ele>
        <time>2021-07-25T13:01:55Z</time>
      </trkpt>
      <trkpt lat="39.8561010" lon="2.9021230">
        <ele>505.8</ele>
        <time>2021-07-25T13:01:56Z</time>
      </trkpt>
      <trkpt lat="39.8561170" lon="2.9020710">
        <ele>505.6</ele>
        <time>2021-07-25T13:01:58Z</time>
      </trkpt>
      <trkpt lat="39.8561050" lon="2.9020190">
        <ele>505.4</ele>
        <time>2021-07-25T13:02:01Z</time>
      </trkpt>
      <trkpt lat="39.8560930" lon="2.9019670">
        <ele>505.4</ele>
        <time>2021-07-25T13:02:02Z</time>
      </trkpt>
      <trkpt lat="39.8560300" lon="2.9018000">
        <ele>505.4</ele>
        <time>2021-07-25T13:02:05Z</time>
      </trkpt>
      <trkpt lat="39.8559600" lon="2.9016640">
        <ele>505.4</ele>
        <time>2021-07-25T13:02:08Z</time>
      </trkpt>
      <trkpt lat="39.8558490" lon="2.9014980">
        <ele>506.0</ele>
        <time>2021-07-25T13:02:12Z</time>
      </trkpt>
      <trkpt lat="39.8557360" lon="2.9013400">
        <ele>506.6</ele>
        <time>2021-07-25T13:02:16Z</time>
      </trkpt>
      <trkpt lat="39.8556890" lon="2.9012610">
        <ele>506.8</ele>
        <time>2021-07-25T13:02:18Z</time>
      </trkpt>
      <trkpt lat="39.8555640" lon="2.9011170">
        <ele>507.0</ele>
        <time>2021-07-25T13:02:24Z</time>
      </trkpt>
      <trkpt lat="39.8555380" lon="2.9010790">
        <ele>507.2</ele>
        <time>2021-07-25T13:02:30Z</time>
      </trkpt>
      <trkpt lat="39.8555150" lon="2.9010660">
        <ele>506.6</ele>
        <time>2021-07-25T13:06:35Z</time>
      </trkpt>
      <trkpt lat="39.8555060" lon="2.9010340">
        <ele>506.2</ele>
        <time>2021-07-25T13:06:41Z</time>
      </trkpt>
      <trkpt lat="39.8556010" lon="2.9012380">
        <ele>507.2</ele>
        <time>2021-07-25T13:15:27Z</time>
      </trkpt>
      <trkpt lat="39.8557460" lon="2.9014060">
        <ele>507.0</ele>
        <time>2021-07-25T13:15:33Z</time>
      </trkpt>
      <trkpt lat="39.8559180" lon="2.9016710">
        <ele>506.8</ele>
        <time>2021-07-25T13:15:39Z</time>
      </trkpt>
      <trkpt lat="39.8560720" lon="2.9018330">
        <ele>506.2</ele>
        <time>2021-07-25T13:15:43Z</time>
      </trkpt>
      <trkpt lat="39.8560930" lon="2.9018840">
        <ele>506.0</ele>
        <time>2021-07-25T13:15:44Z</time>
      </trkpt>
      <trkpt lat="39.8561160" lon="2.9019440">
        <ele>505.8</ele>
        <time>2021-07-25T13:15:45Z</time>
      </trkpt>
      <trkpt lat="39.8561820" lon="2.9023670">
        <ele>504.8</ele>
        <time>2021-07-25T13:15:51Z</time>
      </trkpt>
      <trkpt lat="39.8561890" lon="2.9027650">
        <ele>503.2</ele>
        <time>2021-07-25T13:15:56Z</time>
      </trkpt>
      <trkpt lat="39.8561750" lon="2.9030330">
        <ele>502.0</ele>
        <time>2021-07-25T13:15:59Z</time>
      </trkpt>
      <trkpt lat="39.8561500" lon="2.9032400">
        <ele>501.4</ele>
        <time>2021-07-25T13:16:01Z</time>
      </trkpt>
      <trkpt lat="39.8561330" lon="2.9033420">
        <ele>501.0</ele>
        <time>2021-07-25T13:16:02Z</time>
      </trkpt>
      <trkpt lat="39.8560810" lon="2.9035620">
        <ele>499.6</ele>
        <time>2021-07-25T13:16:04Z</time>
      </trkpt>
      <trkpt lat="39.8560440" lon="2.9036780">
        <ele>499.0</ele>
        <time>2021-07-25T13:16:05Z</time>
      </trkpt>
      <trkpt lat="39.8559960" lon="2.9037900">
        <ele>498.4</ele>
        <time>2021-07-25T13:16:06Z</time>
      </trkpt>
      <trkpt lat="39.8558590" lon="2.9039980">
        <ele>497.0</ele>
        <time>2021-07-25T13:16:08Z</time>
      </trkpt>
      <trkpt lat="39.8556670" lon="2.9041360">
        <ele>495.0</ele>
        <time>2021-07-25T13:16:10Z</time>
      </trkpt>
      <trkpt lat="39.8555560" lon="2.9041640">
        <ele>494.2</ele>
        <time>2021-07-25T13:16:11Z</time>
      </trkpt>
      <trkpt lat="39.8554440" lon="2.9041810">
        <ele>493.6</ele>
        <time>2021-07-25T13:16:12Z</time>
      </trkpt>
      <trkpt lat="39.8552300" lon="2.9042260">
        <ele>492.4</ele>
        <time>2021-07-25T13:16:14Z</time>
      </trkpt>
      <trkpt lat="39.8551260" lon="2.9042670">
        <ele>491.4</ele>
        <time>2021-07-25T13:16:15Z</time>
      </trkpt>
      <trkpt lat="39.8550310" lon="2.9043340">
        <ele>490.4</ele>
        <time>2021-07-25T13:16:16Z</time>
      </trkpt>
      <trkpt lat="39.8548750" lon="2.9045330">
        <ele>489.0</ele>
        <time>2021-07-25T13:16:18Z</time>
      </trkpt>
      <trkpt lat="39.8547990" lon="2.9046400">
        <ele>488.6</ele>
        <time>2021-07-25T13:16:19Z</time>
      </trkpt>
      <trkpt lat="39.8546420" lon="2.9048450">
        <ele>487.8</ele>
        <time>2021-07-25T13:16:21Z</time>
      </trkpt>
      <trkpt lat="39.8545710" lon="2.9049550">
        <ele>487.0</ele>
        <time>2021-07-25T13:16:22Z</time>
      </trkpt>
      <trkpt lat="39.8545290" lon="2.9050970">
        <ele>486.2</ele>
        <time>2021-07-25T13:16:23Z</time>
      </trkpt>
      <trkpt lat="39.8545010" lon="2.9052470">
        <ele>485.0</ele>
        <time>2021-07-25T13:16:24Z</time>
      </trkpt>
      <trkpt lat="39.8544830" lon="2.9053980">
        <ele>483.6</ele>
        <time>2021-07-25T13:16:25Z</time>
      </trkpt>
      <trkpt lat="39.8544730" lon="2.9055550">
        <ele>482.6</ele>
        <time>2021-07-25T13:16:26Z</time>
      </trkpt>
      <trkpt lat="39.8544560" lon="2.9057010">
        <ele>481.8</ele>
        <time>2021-07-25T13:16:27Z</time>
      </trkpt>
      <trkpt lat="39.8543850" lon="2.9059430">
        <ele>480.6</ele>
        <time>2021-07-25T13:16:29Z</time>
      </trkpt>
      <trkpt lat="39.8542740" lon="2.9061650">
        <ele>479.6</ele>
        <time>2021-07-25T13:16:31Z</time>
      </trkpt>
      <trkpt lat="39.8542150" lon="2.9062680">
        <ele>478.2</ele>
        <time>2021-07-25T13:16:32Z</time>
      </trkpt>
      <trkpt lat="39.8541600" lon="2.9063760">
        <ele>476.6</ele>
        <time>2021-07-25T13:16:33Z</time>
      </trkpt>
      <trkpt lat="39.8541090" lon="2.9064880">
        <ele>475.2</ele>
        <time>2021-07-25T13:16:34Z</time>
      </trkpt>
      <trkpt lat="39.8540690" lon="2.9066110">
        <ele>474.6</ele>
        <time>2021-07-25T13:16:35Z</time>
      </trkpt>
      <trkpt lat="39.8540490" lon="2.9067430">
        <ele>474.2</ele>
        <time>2021-07-25T13:16:36Z</time>
      </trkpt>
      <trkpt lat="39.8541130" lon="2.9071640">
        <ele>472.4</ele>
        <time>2021-07-25T13:16:39Z</time>
      </trkpt>
      <trkpt lat="39.8541590" lon="2.9073090">
        <ele>471.4</ele>
        <time>2021-07-25T13:16:40Z</time>
      </trkpt>
      <trkpt lat="39.8542650" lon="2.9076000">
        <ele>469.8</ele>
        <time>2021-07-25T13:16:42Z</time>
      </trkpt>
      <trkpt lat="39.8544050" lon="2.9078740">
        <ele>468.2</ele>
        <time>2021-07-25T13:16:44Z</time>
      </trkpt>
      <trkpt lat="39.8545010" lon="2.9079820">
        <ele>467.0</ele>
        <time>2021-07-25T13:16:45Z</time>
      </trkpt>
      <trkpt lat="39.8547160" lon="2.9081750">
        <ele>465.6</ele>
        <time>2021-07-25T13:16:47Z</time>
      </trkpt>
      <trkpt lat="39.8550400" lon="2.9084500">
        <ele>463.6</ele>
        <time>2021-07-25T13:16:50Z</time>
      </trkpt>
      <trkpt lat="39.8551470" lon="2.9085400">
        <ele>462.8</ele>
        <time>2021-07-25T13:16:51Z</time>
      </trkpt>
      <trkpt lat="39.8552520" lon="2.9086310">
        <ele>462.0</ele>
        <time>2021-07-25T13:16:52Z</time>
      </trkpt>
      <trkpt lat="39.8554480" lon="2.9088140">
        <ele>460.6</ele>
        <time>2021-07-25T13:16:54Z</time>
      </trkpt>
      <trkpt lat="39.8556330" lon="2.9089990">
        <ele>459.2</ele>
        <time>2021-07-25T13:16:56Z</time>
      </trkpt>
      <trkpt lat="39.8558870" lon="2.9092590">
        <ele>458.2</ele>
        <time>2021-07-25T13:16:59Z</time>
      </trkpt>
      <trkpt lat="39.8561130" lon="2.9095140">
        <ele>458.0</ele>
        <time>2021-07-25T13:17:02Z</time>
      </trkpt>
      <trkpt lat="39.8564810" lon="2.9099020">
        <ele>457.2</ele>
        <time>2021-07-25T13:17:07Z</time>
      </trkpt>
      <trkpt lat="39.8566370" lon="2.9100710">
        <ele>456.0</ele>
        <time>2021-07-25T13:17:09Z</time>
      </trkpt>
      <trkpt lat="39.8568950" lon="2.9103180">
        <ele>454.8</ele>
        <time>2021-07-25T13:17:12Z</time>
      </trkpt>
      <trkpt lat="39.8571980" lon="2.9104590">
        <ele>452.4</ele>
        <time>2021-07-25T13:17:15Z</time>
      </trkpt>
      <trkpt lat="39.8573040" lon="2.9104900">
        <ele>451.2</ele>
        <time>2021-07-25T13:17:16Z</time>
      </trkpt>
      <trkpt lat="39.8574160" lon="2.9105140">
        <ele>450.0</ele>
        <time>2021-07-25T13:17:17Z</time>
      </trkpt>
      <trkpt lat="39.8575300" lon="2.9105370">
        <ele>449.0</ele>
        <time>2021-07-25T13:17:18Z</time>
      </trkpt>
      <trkpt lat="39.8577630" lon="2.9105690">
        <ele>447.6</ele>
        <time>2021-07-25T13:17:20Z</time>
      </trkpt>
      <trkpt lat="39.8579950" lon="2.9105600">
        <ele>446.2</ele>
        <time>2021-07-25T13:17:22Z</time>
      </trkpt>
      <trkpt lat="39.8582060" lon="2.9105460">
        <ele>444.6</ele>
        <time>2021-07-25T13:17:24Z</time>
      </trkpt>
      <trkpt lat="39.8583960" lon="2.9105870">
        <ele>442.4</ele>
        <time>2021-07-25T13:17:26Z</time>
      </trkpt>
      <trkpt lat="39.8584820" lon="2.9106420">
        <ele>441.8</ele>
        <time>2021-07-25T13:17:27Z</time>
      </trkpt>
      <trkpt lat="39.8585640" lon="2.9107140">
        <ele>441.4</ele>
        <time>2021-07-25T13:17:28Z</time>
      </trkpt>
      <trkpt lat="39.8585610" lon="2.9108390">
        <ele>440.8</ele>
        <time>2021-07-25T13:17:29Z</time>
      </trkpt>
      <trkpt lat="39.8585150" lon="2.9109600">
        <ele>439.6</ele>
        <time>2021-07-25T13:17:30Z</time>
      </trkpt>
      <trkpt lat="39.8584600" lon="2.9110620">
        <ele>438.6</ele>
        <time>2021-07-25T13:17:31Z</time>
      </trkpt>
      <trkpt lat="39.8583710" lon="2.9111490">
        <ele>437.6</ele>
        <time>2021-07-25T13:17:32Z</time>
      </trkpt>
      <trkpt lat="39.8582770" lon="2.9112310">
        <ele>436.2</ele>
        <time>2021-07-25T13:17:33Z</time>
      </trkpt>
      <trkpt lat="39.8581790" lon="2.9113170">
        <ele>435.0</ele>
        <time>2021-07-25T13:17:34Z</time>
      </trkpt>
      <trkpt lat="39.8579920" lon="2.9115010">
        <ele>433.8</ele>
        <time>2021-07-25T13:17:36Z</time>
      </trkpt>
      <trkpt lat="39.8577940" lon="2.9116940">
        <ele>432.2</ele>
        <time>2021-07-25T13:17:38Z</time>
      </trkpt>
      <trkpt lat="39.8575950" lon="2.9118880">
        <ele>430.8</ele>
        <time>2021-07-25T13:17:40Z</time>
      </trkpt>
      <trkpt lat="39.8572050" lon="2.9122610">
        <ele>429.2</ele>
        <time>2021-07-25T13:17:44Z</time>
      </trkpt>
      <trkpt lat="39.8570270" lon="2.9124480">
        <ele>428.0</ele>
        <time>2021-07-25T13:17:46Z</time>
      </trkpt>
      <trkpt lat="39.8568820" lon="2.9126620">
        <ele>427.4</ele>
        <time>2021-07-25T13:17:48Z</time>
      </trkpt>
      <trkpt lat="39.8567200" lon="2.9130190">
        <ele>426.8</ele>
        <time>2021-07-25T13:17:51Z</time>
      </trkpt>
      <trkpt lat="39.8566870" lon="2.9131520">
        <ele>426.2</ele>
        <time>2021-07-25T13:17:52Z</time>
      </trkpt>
      <trkpt lat="39.8566820" lon="2.9132850">
        <ele>425.4</ele>
        <time>2021-07-25T13:17:53Z</time>
      </trkpt>
      <trkpt lat="39.8567120" lon="2.9134100">
        <ele>425.0</ele>
        <time>2021-07-25T13:17:54Z</time>
      </trkpt>
      <trkpt lat="39.8568200" lon="2.9136340">
        <ele>423.6</ele>
        <time>2021-07-25T13:17:56Z</time>
      </trkpt>
      <trkpt lat="39.8568790" lon="2.9137420">
        <ele>423.2</ele>
        <time>2021-07-25T13:17:57Z</time>
      </trkpt>
      <trkpt lat="39.8570010" lon="2.9139480">
        <ele>422.2</ele>
        <time>2021-07-25T13:17:59Z</time>
      </trkpt>
      <trkpt lat="39.8570640" lon="2.9140380">
        <ele>422.2</ele>
        <time>2021-07-25T13:18:00Z</time>
      </trkpt>
      <trkpt lat="39.8571430" lon="2.9141030">
        <ele>422.0</ele>
        <time>2021-07-25T13:18:01Z</time>
      </trkpt>
      <trkpt lat="39.8574070" lon="2.9141410">
        <ele>421.8</ele>
        <time>2021-07-25T13:18:04Z</time>
      </trkpt>
      <trkpt lat="39.8575020" lon="2.9141300">
        <ele>421.4</ele>
        <time>2021-07-25T13:18:05Z</time>
      </trkpt>
      <trkpt lat="39.8575970" lon="2.9141140">
        <ele>421.2</ele>
        <time>2021-07-25T13:18:06Z</time>
      </trkpt>
      <trkpt lat="39.8579820" lon="2.9140510">
        <ele>420.2</ele>
        <time>2021-07-25T13:18:10Z</time>
      </trkpt>
      <trkpt lat="39.8580760" lon="2.9140500">
        <ele>419.8</ele>
        <time>2021-07-25T13:18:11Z</time>
      </trkpt>
      <trkpt lat="39.8582620" lon="2.9140980">
        <ele>419.2</ele>
        <time>2021-07-25T13:18:13Z</time>
      </trkpt>
      <trkpt lat="39.8583520" lon="2.9141410">
        <ele>419.0</ele>
        <time>2021-07-25T13:18:14Z</time>
      </trkpt>
      <trkpt lat="39.8585180" lon="2.9142450">
        <ele>418.8</ele>
        <time>2021-07-25T13:18:16Z</time>
      </trkpt>
      <trkpt lat="39.8586020" lon="2.9142940">
        <ele>418.8</ele>
        <time>2021-07-25T13:18:17Z</time>
      </trkpt>
      <trkpt lat="39.8589340" lon="2.9145050">
        <ele>417.8</ele>
        <time>2021-07-25T13:18:21Z</time>
      </trkpt>
      <trkpt lat="39.8590100" lon="2.9145730">
        <ele>417.6</ele>
        <time>2021-07-25T13:18:22Z</time>
      </trkpt>
      <trkpt lat="39.8592550" lon="2.9149010">
        <ele>417.0</ele>
        <time>2021-07-25T13:18:26Z</time>
      </trkpt>
      <trkpt lat="39.8594350" lon="2.9152440">
        <ele>416.8</ele>
        <time>2021-07-25T13:18:30Z</time>
      </trkpt>
      <trkpt lat="39.8594700" lon="2.9153320">
        <ele>416.6</ele>
        <time>2021-07-25T13:18:31Z</time>
      </trkpt>
      <trkpt lat="39.8595440" lon="2.9154850">
        <ele>416.2</ele>
        <time>2021-07-25T13:18:33Z</time>
      </trkpt>
      <trkpt lat="39.8596050" lon="2.9155380">
        <ele>416.0</ele>
        <time>2021-07-25T13:18:34Z</time>
      </trkpt>
      <trkpt lat="39.8596790" lon="2.9155560">
        <ele>415.8</ele>
        <time>2021-07-25T13:18:35Z</time>
      </trkpt>
      <trkpt lat="39.8597590" lon="2.9155480">
        <ele>415.6</ele>
        <time>2021-07-25T13:18:36Z</time>
      </trkpt>
      <trkpt lat="39.8599200" lon="2.9154960">
        <ele>414.8</ele>
        <time>2021-07-25T13:18:38Z</time>
      </trkpt>
      <trkpt lat="39.8600870" lon="2.9154600">
        <ele>414.0</ele>
        <time>2021-07-25T13:18:40Z</time>
      </trkpt>
      <trkpt lat="39.8601740" lon="2.9154740">
        <ele>413.4</ele>
        <time>2021-07-25T13:18:41Z</time>
      </trkpt>
      <trkpt lat="39.8603480" lon="2.9155690">
        <ele>412.2</ele>
        <time>2021-07-25T13:18:43Z</time>
      </trkpt>
      <trkpt lat="39.8605260" lon="2.9156800">
        <ele>411.0</ele>
        <time>2021-07-25T13:18:45Z</time>
      </trkpt>
      <trkpt lat="39.8608030" lon="2.9158700">
        <ele>409.4</ele>
        <time>2021-07-25T13:18:48Z</time>
      </trkpt>
      <trkpt lat="39.8609730" lon="2.9160580">
        <ele>408.0</ele>
        <time>2021-07-25T13:18:50Z</time>
      </trkpt>
      <trkpt lat="39.8610350" lon="2.9161870">
        <ele>407.2</ele>
        <time>2021-07-25T13:18:51Z</time>
      </trkpt>
      <trkpt lat="39.8610900" lon="2.9163160">
        <ele>406.0</ele>
        <time>2021-07-25T13:18:52Z</time>
      </trkpt>
      <trkpt lat="39.8612190" lon="2.9165430">
        <ele>404.4</ele>
        <time>2021-07-25T13:18:54Z</time>
      </trkpt>
      <trkpt lat="39.8613080" lon="2.9166110">
        <ele>403.6</ele>
        <time>2021-07-25T13:18:55Z</time>
      </trkpt>
      <trkpt lat="39.8614100" lon="2.9166460">
        <ele>403.0</ele>
        <time>2021-07-25T13:18:56Z</time>
      </trkpt>
      <trkpt lat="39.8615190" lon="2.9166450">
        <ele>402.4</ele>
        <time>2021-07-25T13:18:57Z</time>
      </trkpt>
      <trkpt lat="39.8616350" lon="2.9166260">
        <ele>401.4</ele>
        <time>2021-07-25T13:18:58Z</time>
      </trkpt>
      <trkpt lat="39.8617490" lon="2.9165910">
        <ele>400.8</ele>
        <time>2021-07-25T13:18:59Z</time>
      </trkpt>
      <trkpt lat="39.8618620" lon="2.9165530">
        <ele>400.4</ele>
        <time>2021-07-25T13:19:00Z</time>
      </trkpt>
      <trkpt lat="39.8620870" lon="2.9164820">
        <ele>399.2</ele>
        <time>2021-07-25T13:19:02Z</time>
      </trkpt>
      <trkpt lat="39.8624150" lon="2.9163800">
        <ele>397.8</ele>
        <time>2021-07-25T13:19:05Z</time>
      </trkpt>
      <trkpt lat="39.8625180" lon="2.9163630">
        <ele>397.4</ele>
        <time>2021-07-25T13:19:06Z</time>
      </trkpt>
      <trkpt lat="39.8626250" lon="2.9163740">
        <ele>397.0</ele>
        <time>2021-07-25T13:19:07Z</time>
      </trkpt>
      <trkpt lat="39.8627280" lon="2.9164100">
        <ele>396.6</ele>
        <time>2021-07-25T13:19:08Z</time>
      </trkpt>
      <trkpt lat="39.8629150" lon="2.9165460">
        <ele>395.4</ele>
        <time>2021-07-25T13:19:10Z</time>
      </trkpt>
      <trkpt lat="39.8631300" lon="2.9168620">
        <ele>393.8</ele>
        <time>2021-07-25T13:19:13Z</time>
      </trkpt>
      <trkpt lat="39.8631870" lon="2.9169890">
        <ele>392.6</ele>
        <time>2021-07-25T13:19:14Z</time>
      </trkpt>
      <trkpt lat="39.8632570" lon="2.9171050">
        <ele>392.2</ele>
        <time>2021-07-25T13:19:15Z</time>
      </trkpt>
      <trkpt lat="39.8633420" lon="2.9172010">
        <ele>391.8</ele>
        <time>2021-07-25T13:19:16Z</time>
      </trkpt>
      <trkpt lat="39.8634400" lon="2.9172720">
        <ele>391.2</ele>
        <time>2021-07-25T13:19:17Z</time>
      </trkpt>
      <trkpt lat="39.8635430" lon="2.9173270">
        <ele>390.2</ele>
        <time>2021-07-25T13:19:18Z</time>
      </trkpt>
      <trkpt lat="39.8636540" lon="2.9173700">
        <ele>389.4</ele>
        <time>2021-07-25T13:19:19Z</time>
      </trkpt>
      <trkpt lat="39.8637640" lon="2.9174120">
        <ele>388.8</ele>
        <time>2021-07-25T13:19:20Z</time>
      </trkpt>
      <trkpt lat="39.8639770" lon="2.9175010">
        <ele>387.4</ele>
        <time>2021-07-25T13:19:22Z</time>
      </trkpt>
      <trkpt lat="39.8640740" lon="2.9175590">
        <ele>386.8</ele>
        <time>2021-07-25T13:19:23Z</time>
      </trkpt>
      <trkpt lat="39.8641610" lon="2.9176380">
        <ele>386.0</ele>
        <time>2021-07-25T13:19:24Z</time>
      </trkpt>
      <trkpt lat="39.8642860" lon="2.9178590">
        <ele>384.8</ele>
        <time>2021-07-25T13:19:26Z</time>
      </trkpt>
      <trkpt lat="39.8643670" lon="2.9181220">
        <ele>383.8</ele>
        <time>2021-07-25T13:19:28Z</time>
      </trkpt>
      <trkpt lat="39.8644500" lon="2.9183950">
        <ele>381.2</ele>
        <time>2021-07-25T13:19:30Z</time>
      </trkpt>
      <trkpt lat="39.8644890" lon="2.9185330">
        <ele>380.6</ele>
        <time>2021-07-25T13:19:31Z</time>
      </trkpt>
      <trkpt lat="39.8645340" lon="2.9186680">
        <ele>380.2</ele>
        <time>2021-07-25T13:19:32Z</time>
      </trkpt>
      <trkpt lat="39.8646520" lon="2.9189220">
        <ele>379.0</ele>
        <time>2021-07-25T13:19:34Z</time>
      </trkpt>
      <trkpt lat="39.8647210" lon="2.9190410">
        <ele>378.2</ele>
        <time>2021-07-25T13:19:35Z</time>
      </trkpt>
      <trkpt lat="39.8647990" lon="2.9191570">
        <ele>377.4</ele>
        <time>2021-07-25T13:19:36Z</time>
      </trkpt>
      <trkpt lat="39.8650340" lon="2.9195200">
        <ele>376.0</ele>
        <time>2021-07-25T13:19:39Z</time>
      </trkpt>
      <trkpt lat="39.8651860" lon="2.9197630">
        <ele>375.0</ele>
        <time>2021-07-25T13:19:41Z</time>
      </trkpt>
      <trkpt lat="39.8653250" lon="2.9199810">
        <ele>374.8</ele>
        <time>2021-07-25T13:19:43Z</time>
      </trkpt>
      <trkpt lat="39.8655090" lon="2.9202460">
        <ele>376.0</ele>
        <time>2021-07-25T13:19:46Z</time>
      </trkpt>
      <trkpt lat="39.8655600" lon="2.9203190">
        <ele>376.6</ele>
        <time>2021-07-25T13:19:47Z</time>
      </trkpt>
      <trkpt lat="39.8656090" lon="2.9203870">
        <ele>377.0</ele>
        <time>2021-07-25T13:19:48Z</time>
      </trkpt>
      <trkpt lat="39.8657390" lon="2.9205670">
        <ele>378.2</ele>
        <time>2021-07-25T13:19:51Z</time>
      </trkpt>
      <trkpt lat="39.8657830" lon="2.9206200">
        <ele>378.6</ele>
        <time>2021-07-25T13:19:52Z</time>
      </trkpt>
      <trkpt lat="39.8658220" lon="2.9206730">
        <ele>378.6</ele>
        <time>2021-07-25T13:19:53Z</time>
      </trkpt>
      <trkpt lat="39.8658940" lon="2.9207820">
        <ele>379.6</ele>
        <time>2021-07-25T13:19:55Z</time>
      </trkpt>
      <trkpt lat="39.8659700" lon="2.9208830">
        <ele>380.6</ele>
        <time>2021-07-25T13:19:57Z</time>
      </trkpt>
      <trkpt lat="39.8660400" lon="2.9210460">
        <ele>381.6</ele>
        <time>2021-07-25T13:20:00Z</time>
      </trkpt>
      <trkpt lat="39.8660580" lon="2.9211650">
        <ele>382.4</ele>
        <time>2021-07-25T13:20:02Z</time>
      </trkpt>
      <trkpt lat="39.8660600" lon="2.9212240">
        <ele>382.8</ele>
        <time>2021-07-25T13:20:03Z</time>
      </trkpt>
      <trkpt lat="39.8660530" lon="2.9213490">
        <ele>383.0</ele>
        <time>2021-07-25T13:20:05Z</time>
      </trkpt>
      <trkpt lat="39.8660440" lon="2.9214140">
        <ele>383.0</ele>
        <time>2021-07-25T13:20:06Z</time>
      </trkpt>
      <trkpt lat="39.8660350" lon="2.9214820">
        <ele>383.0</ele>
        <time>2021-07-25T13:20:07Z</time>
      </trkpt>
      <trkpt lat="39.8660300" lon="2.9215570">
        <ele>382.8</ele>
        <time>2021-07-25T13:20:08Z</time>
      </trkpt>
      <trkpt lat="39.8660070" lon="2.9218600">
        <ele>382.8</ele>
        <time>2021-07-25T13:20:12Z</time>
      </trkpt>
      <trkpt lat="39.8659900" lon="2.9221170">
        <ele>382.0</ele>
        <time>2021-07-25T13:20:15Z</time>
      </trkpt>
      <trkpt lat="39.8660100" lon="2.9223090">
        <ele>381.0</ele>
        <time>2021-07-25T13:20:17Z</time>
      </trkpt>
      <trkpt lat="39.8660250" lon="2.9224140">
        <ele>380.2</ele>
        <time>2021-07-25T13:20:18Z</time>
      </trkpt>
      <trkpt lat="39.8660850" lon="2.9227470">
        <ele>379.2</ele>
        <time>2021-07-25T13:20:21Z</time>
      </trkpt>
      <trkpt lat="39.8661350" lon="2.9229760">
        <ele>378.4</ele>
        <time>2021-07-25T13:20:23Z</time>
      </trkpt>
      <trkpt lat="39.8661790" lon="2.9232110">
        <ele>378.0</ele>
        <time>2021-07-25T13:20:25Z</time>
      </trkpt>
      <trkpt lat="39.8662700" lon="2.9236610">
        <ele>377.4</ele>
        <time>2021-07-25T13:20:29Z</time>
      </trkpt>
      <trkpt lat="39.8663590" lon="2.9240750">
        <ele>376.8</ele>
        <time>2021-07-25T13:20:33Z</time>
      </trkpt>
      <trkpt lat="39.8664160" lon="2.9242580">
        <ele>376.8</ele>
        <time>2021-07-25T13:20:35Z</time>
      </trkpt>
      <trkpt lat="39.8665980" lon="2.9244050">
        <ele>376.6</ele>
        <time>2021-07-25T13:20:38Z</time>
      </trkpt>
      <trkpt lat="39.8667420" lon="2.9244220">
        <ele>376.4</ele>
        <time>2021-07-25T13:20:40Z</time>
      </trkpt>
      <trkpt lat="39.8668970" lon="2.9244270">
        <ele>375.6</ele>
        <time>2021-07-25T13:20:42Z</time>
      </trkpt>
      <trkpt lat="39.8671520" lon="2.9244480">
        <ele>374.6</ele>
        <time>2021-07-25T13:20:45Z</time>
      </trkpt>
      <trkpt lat="39.8673360" lon="2.9244830">
        <ele>374.0</ele>
        <time>2021-07-25T13:20:47Z</time>
      </trkpt>
      <trkpt lat="39.8675290" lon="2.9245280">
        <ele>373.2</ele>
        <time>2021-07-25T13:20:49Z</time>
      </trkpt>
      <trkpt lat="39.8678260" lon="2.9246100">
        <ele>372.2</ele>
        <time>2021-07-25T13:20:52Z</time>
      </trkpt>
      <trkpt lat="39.8679250" lon="2.9246390">
        <ele>371.4</ele>
        <time>2021-07-25T13:20:53Z</time>
      </trkpt>
      <trkpt lat="39.8680260" lon="2.9246700">
        <ele>370.6</ele>
        <time>2021-07-25T13:20:54Z</time>
      </trkpt>
      <trkpt lat="39.8682330" lon="2.9247240">
        <ele>369.6</ele>
        <time>2021-07-25T13:20:56Z</time>
      </trkpt>
      <trkpt lat="39.8684450" lon="2.9247900">
        <ele>368.0</ele>
        <time>2021-07-25T13:20:58Z</time>
      </trkpt>
      <trkpt lat="39.8686640" lon="2.9248540">
        <ele>366.0</ele>
        <time>2021-07-25T13:21:00Z</time>
      </trkpt>
      <trkpt lat="39.8688770" lon="2.9249330">
        <ele>364.4</ele>
        <time>2021-07-25T13:21:02Z</time>
      </trkpt>
      <trkpt lat="39.8690850" lon="2.9250380">
        <ele>362.6</ele>
        <time>2021-07-25T13:21:04Z</time>
      </trkpt>
      <trkpt lat="39.8691830" lon="2.9251030">
        <ele>361.8</ele>
        <time>2021-07-25T13:21:05Z</time>
      </trkpt>
      <trkpt lat="39.8692710" lon="2.9251810">
        <ele>360.8</ele>
        <time>2021-07-25T13:21:06Z</time>
      </trkpt>
      <trkpt lat="39.8693450" lon="2.9252690">
        <ele>360.2</ele>
        <time>2021-07-25T13:21:07Z</time>
      </trkpt>
      <trkpt lat="39.8694100" lon="2.9253660">
        <ele>359.8</ele>
        <time>2021-07-25T13:21:08Z</time>
      </trkpt>
      <trkpt lat="39.8694670" lon="2.9256000">
        <ele>358.8</ele>
        <time>2021-07-25T13:21:10Z</time>
      </trkpt>
      <trkpt lat="39.8694630" lon="2.9257260">
        <ele>358.4</ele>
        <time>2021-07-25T13:21:11Z</time>
      </trkpt>
      <trkpt lat="39.8694110" lon="2.9259730">
        <ele>357.2</ele>
        <time>2021-07-25T13:21:13Z</time>
      </trkpt>
      <trkpt lat="39.8693700" lon="2.9260930">
        <ele>356.2</ele>
        <time>2021-07-25T13:21:14Z</time>
      </trkpt>
      <trkpt lat="39.8692380" lon="2.9263050">
        <ele>355.2</ele>
        <time>2021-07-25T13:21:16Z</time>
      </trkpt>
      <trkpt lat="39.8691650" lon="2.9264090">
        <ele>353.8</ele>
        <time>2021-07-25T13:21:17Z</time>
      </trkpt>
      <trkpt lat="39.8690190" lon="2.9266020">
        <ele>352.4</ele>
        <time>2021-07-25T13:21:19Z</time>
      </trkpt>
      <trkpt lat="39.8688840" lon="2.9267910">
        <ele>351.4</ele>
        <time>2021-07-25T13:21:21Z</time>
      </trkpt>
      <trkpt lat="39.8688330" lon="2.9269060">
        <ele>350.4</ele>
        <time>2021-07-25T13:21:22Z</time>
      </trkpt>
      <trkpt lat="39.8687560" lon="2.9271520">
        <ele>349.4</ele>
        <time>2021-07-25T13:21:24Z</time>
      </trkpt>
      <trkpt lat="39.8687250" lon="2.9272800">
        <ele>348.8</ele>
        <time>2021-07-25T13:21:25Z</time>
      </trkpt>
      <trkpt lat="39.8686590" lon="2.9275490">
        <ele>346.8</ele>
        <time>2021-07-25T13:21:27Z</time>
      </trkpt>
      <trkpt lat="39.8685950" lon="2.9278160">
        <ele>345.0</ele>
        <time>2021-07-25T13:21:29Z</time>
      </trkpt>
      <trkpt lat="39.8685680" lon="2.9279380">
        <ele>343.8</ele>
        <time>2021-07-25T13:21:30Z</time>
      </trkpt>
      <trkpt lat="39.8685420" lon="2.9280560">
        <ele>342.6</ele>
        <time>2021-07-25T13:21:31Z</time>
      </trkpt>
      <trkpt lat="39.8685170" lon="2.9281710">
        <ele>341.6</ele>
        <time>2021-07-25T13:21:32Z</time>
      </trkpt>
      <trkpt lat="39.8684710" lon="2.9283830">
        <ele>340.4</ele>
        <time>2021-07-25T13:21:34Z</time>
      </trkpt>
      <trkpt lat="39.8684100" lon="2.9285770">
        <ele>339.4</ele>
        <time>2021-07-25T13:21:36Z</time>
      </trkpt>
      <trkpt lat="39.8683580" lon="2.9286550">
        <ele>338.8</ele>
        <time>2021-07-25T13:21:37Z</time>
      </trkpt>
      <trkpt lat="39.8682900" lon="2.9287090">
        <ele>338.0</ele>
        <time>2021-07-25T13:21:38Z</time>
      </trkpt>
      <trkpt lat="39.8682130" lon="2.9287510">
        <ele>337.0</ele>
        <time>2021-07-25T13:21:39Z</time>
      </trkpt>
      <trkpt lat="39.8680460" lon="2.9287100">
        <ele>335.8</ele>
        <time>2021-07-25T13:21:41Z</time>
      </trkpt>
      <trkpt lat="39.8679210" lon="2.9285520">
        <ele>334.8</ele>
        <time>2021-07-25T13:21:43Z</time>
      </trkpt>
      <trkpt lat="39.8678170" lon="2.9282090">
        <ele>333.0</ele>
        <time>2021-07-25T13:21:46Z</time>
      </trkpt>
      <trkpt lat="39.8677850" lon="2.9280960">
        <ele>332.2</ele>
        <time>2021-07-25T13:21:47Z</time>
      </trkpt>
      <trkpt lat="39.8677540" lon="2.9279910">
        <ele>331.6</ele>
        <time>2021-07-25T13:21:48Z</time>
      </trkpt>
      <trkpt lat="39.8676830" lon="2.9277940">
        <ele>330.2</ele>
        <time>2021-07-25T13:21:50Z</time>
      </trkpt>
      <trkpt lat="39.8676330" lon="2.9277110">
        <ele>329.0</ele>
        <time>2021-07-25T13:21:51Z</time>
      </trkpt>
      <trkpt lat="39.8675020" lon="2.9276090">
        <ele>328.0</ele>
        <time>2021-07-25T13:21:53Z</time>
      </trkpt>
      <trkpt lat="39.8674310" lon="2.9275860">
        <ele>327.4</ele>
        <time>2021-07-25T13:21:54Z</time>
      </trkpt>
      <trkpt lat="39.8672950" lon="2.9275970">
        <ele>326.8</ele>
        <time>2021-07-25T13:21:56Z</time>
      </trkpt>
      <trkpt lat="39.8672390" lon="2.9276660">
        <ele>326.2</ele>
        <time>2021-07-25T13:21:57Z</time>
      </trkpt>
      <trkpt lat="39.8671970" lon="2.9277560">
        <ele>325.8</ele>
        <time>2021-07-25T13:21:58Z</time>
      </trkpt>
      <trkpt lat="39.8671160" lon="2.9279460">
        <ele>324.8</ele>
        <time>2021-07-25T13:22:00Z</time>
      </trkpt>
      <trkpt lat="39.8670700" lon="2.9280550">
        <ele>324.2</ele>
        <time>2021-07-25T13:22:01Z</time>
      </trkpt>
      <trkpt lat="39.8669810" lon="2.9282720">
        <ele>323.2</ele>
        <time>2021-07-25T13:22:03Z</time>
      </trkpt>
      <trkpt lat="39.8669010" lon="2.9284800">
        <ele>322.4</ele>
        <time>2021-07-25T13:22:05Z</time>
      </trkpt>
      <trkpt lat="39.8668640" lon="2.9285780">
        <ele>322.0</ele>
        <time>2021-07-25T13:22:06Z</time>
      </trkpt>
      <trkpt lat="39.8667620" lon="2.9288690">
        <ele>320.8</ele>
        <time>2021-07-25T13:22:09Z</time>
      </trkpt>
      <trkpt lat="39.8666870" lon="2.9290520">
        <ele>320.2</ele>
        <time>2021-07-25T13:22:11Z</time>
      </trkpt>
      <trkpt lat="39.8666100" lon="2.9292370">
        <ele>319.8</ele>
        <time>2021-07-25T13:22:13Z</time>
      </trkpt>
      <trkpt lat="39.8665610" lon="2.9293220">
        <ele>319.4</ele>
        <time>2021-07-25T13:22:14Z</time>
      </trkpt>
      <trkpt lat="39.8664400" lon="2.9294700">
        <ele>318.6</ele>
        <time>2021-07-25T13:22:16Z</time>
      </trkpt>
      <trkpt lat="39.8663710" lon="2.9295370">
        <ele>318.4</ele>
        <time>2021-07-25T13:22:17Z</time>
      </trkpt>
      <trkpt lat="39.8662010" lon="2.9297780">
        <ele>317.6</ele>
        <time>2021-07-25T13:22:20Z</time>
      </trkpt>
      <trkpt lat="39.8661370" lon="2.9300010">
        <ele>316.2</ele>
        <time>2021-07-25T13:22:22Z</time>
      </trkpt>
      <trkpt lat="39.8661080" lon="2.9301180">
        <ele>315.6</ele>
        <time>2021-07-25T13:22:23Z</time>
      </trkpt>
      <trkpt lat="39.8660490" lon="2.9303620">
        <ele>314.8</ele>
        <time>2021-07-25T13:22:25Z</time>
      </trkpt>
      <trkpt lat="39.8659920" lon="2.9305970">
        <ele>313.6</ele>
        <time>2021-07-25T13:22:27Z</time>
      </trkpt>
      <trkpt lat="39.8659710" lon="2.9307040">
        <ele>312.8</ele>
        <time>2021-07-25T13:22:28Z</time>
      </trkpt>
      <trkpt lat="39.8659650" lon="2.9308210">
        <ele>312.2</ele>
        <time>2021-07-25T13:22:29Z</time>
      </trkpt>
      <trkpt lat="39.8660070" lon="2.9309380">
        <ele>311.8</ele>
        <time>2021-07-25T13:22:30Z</time>
      </trkpt>
      <trkpt lat="39.8660590" lon="2.9310360">
        <ele>310.4</ele>
        <time>2021-07-25T13:22:31Z</time>
      </trkpt>
      <trkpt lat="39.8661200" lon="2.9311220">
        <ele>309.2</ele>
        <time>2021-07-25T13:22:32Z</time>
      </trkpt>
      <trkpt lat="39.8662060" lon="2.9311800">
        <ele>308.2</ele>
        <time>2021-07-25T13:22:33Z</time>
      </trkpt>
      <trkpt lat="39.8663080" lon="2.9312180">
        <ele>306.8</ele>
        <time>2021-07-25T13:22:34Z</time>
      </trkpt>
      <trkpt lat="39.8664250" lon="2.9312450">
        <ele>306.2</ele>
        <time>2021-07-25T13:22:35Z</time>
      </trkpt>
      <trkpt lat="39.8665390" lon="2.9312750">
        <ele>305.6</ele>
        <time>2021-07-25T13:22:36Z</time>
      </trkpt>
      <trkpt lat="39.8667620" lon="2.9313600">
        <ele>304.4</ele>
        <time>2021-07-25T13:22:38Z</time>
      </trkpt>
      <trkpt lat="39.8668560" lon="2.9314450">
        <ele>303.8</ele>
        <time>2021-07-25T13:22:39Z</time>
      </trkpt>
      <trkpt lat="39.8669370" lon="2.9315560">
        <ele>302.8</ele>
        <time>2021-07-25T13:22:40Z</time>
      </trkpt>
      <trkpt lat="39.8670050" lon="2.9316860">
        <ele>301.2</ele>
        <time>2021-07-25T13:22:41Z</time>
      </trkpt>
      <trkpt lat="39.8670600" lon="2.9318260">
        <ele>299.6</ele>
        <time>2021-07-25T13:22:42Z</time>
      </trkpt>
      <trkpt lat="39.8671740" lon="2.9321110">
        <ele>298.2</ele>
        <time>2021-07-25T13:22:44Z</time>
      </trkpt>
      <trkpt lat="39.8672770" lon="2.9324000">
        <ele>296.6</ele>
        <time>2021-07-25T13:22:46Z</time>
      </trkpt>
      <trkpt lat="39.8673140" lon="2.9325360">
        <ele>295.8</ele>
        <time>2021-07-25T13:22:47Z</time>
      </trkpt>
      <trkpt lat="39.8673300" lon="2.9326770">
        <ele>295.2</ele>
        <time>2021-07-25T13:22:48Z</time>
      </trkpt>
      <trkpt lat="39.8673160" lon="2.9328220">
        <ele>294.8</ele>
        <time>2021-07-25T13:22:49Z</time>
      </trkpt>
      <trkpt lat="39.8672700" lon="2.9329600">
        <ele>293.8</ele>
        <time>2021-07-25T13:22:50Z</time>
      </trkpt>
      <trkpt lat="39.8672000" lon="2.9330880">
        <ele>293.2</ele>
        <time>2021-07-25T13:22:51Z</time>
      </trkpt>
      <trkpt lat="39.8671150" lon="2.9332020">
        <ele>292.4</ele>
        <time>2021-07-25T13:22:52Z</time>
      </trkpt>
      <trkpt lat="39.8670230" lon="2.9333070">
        <ele>291.6</ele>
        <time>2021-07-25T13:22:53Z</time>
      </trkpt>
      <trkpt lat="39.8669380" lon="2.9334130">
        <ele>291.0</ele>
        <time>2021-07-25T13:22:54Z</time>
      </trkpt>
      <trkpt lat="39.8668630" lon="2.9335330">
        <ele>290.2</ele>
        <time>2021-07-25T13:22:55Z</time>
      </trkpt>
      <trkpt lat="39.8668020" lon="2.9336690">
        <ele>289.4</ele>
        <time>2021-07-25T13:22:56Z</time>
      </trkpt>
      <trkpt lat="39.8667600" lon="2.9338190">
        <ele>288.8</ele>
        <time>2021-07-25T13:22:57Z</time>
      </trkpt>
      <trkpt lat="39.8667350" lon="2.9339790">
        <ele>286.8</ele>
        <time>2021-07-25T13:22:58Z</time>
      </trkpt>
      <trkpt lat="39.8667080" lon="2.9343200">
        <ele>285.4</ele>
        <time>2021-07-25T13:23:00Z</time>
      </trkpt>
      <trkpt lat="39.8666750" lon="2.9346730">
        <ele>283.2</ele>
        <time>2021-07-25T13:23:02Z</time>
      </trkpt>
      <trkpt lat="39.8666420" lon="2.9350330">
        <ele>281.4</ele>
        <time>2021-07-25T13:23:04Z</time>
      </trkpt>
      <trkpt lat="39.8666180" lon="2.9354010">
        <ele>279.0</ele>
        <time>2021-07-25T13:23:06Z</time>
      </trkpt>
      <trkpt lat="39.8666190" lon="2.9355860">
        <ele>277.6</ele>
        <time>2021-07-25T13:23:07Z</time>
      </trkpt>
      <trkpt lat="39.8666310" lon="2.9357710">
        <ele>276.6</ele>
        <time>2021-07-25T13:23:08Z</time>
      </trkpt>
      <trkpt lat="39.8666580" lon="2.9359580">
        <ele>275.8</ele>
        <time>2021-07-25T13:23:09Z</time>
      </trkpt>
      <trkpt lat="39.8666920" lon="2.9361440">
        <ele>275.2</ele>
        <time>2021-07-25T13:23:10Z</time>
      </trkpt>
      <trkpt lat="39.8667590" lon="2.9365210">
        <ele>273.8</ele>
        <time>2021-07-25T13:23:12Z</time>
      </trkpt>
      <trkpt lat="39.8667920" lon="2.9367110">
        <ele>271.8</ele>
        <time>2021-07-25T13:23:13Z</time>
      </trkpt>
      <trkpt lat="39.8668280" lon="2.9369030">
        <ele>270.2</ele>
        <time>2021-07-25T13:23:14Z</time>
      </trkpt>
      <trkpt lat="39.8668660" lon="2.9370930">
        <ele>269.2</ele>
        <time>2021-07-25T13:23:15Z</time>
      </trkpt>
      <trkpt lat="39.8669470" lon="2.9374690">
        <ele>267.0</ele>
        <time>2021-07-25T13:23:17Z</time>
      </trkpt>
      <trkpt lat="39.8669920" lon="2.9376550">
        <ele>265.8</ele>
        <time>2021-07-25T13:23:18Z</time>
      </trkpt>
      <trkpt lat="39.8670450" lon="2.9378400">
        <ele>264.6</ele>
        <time>2021-07-25T13:23:19Z</time>
      </trkpt>
      <trkpt lat="39.8671050" lon="2.9380200">
        <ele>264.0</ele>
        <time>2021-07-25T13:23:20Z</time>
      </trkpt>
      <trkpt lat="39.8671640" lon="2.9381980">
        <ele>263.4</ele>
        <time>2021-07-25T13:23:21Z</time>
      </trkpt>
      <trkpt lat="39.8672200" lon="2.9383740">
        <ele>262.2</ele>
        <time>2021-07-25T13:23:22Z</time>
      </trkpt>
      <trkpt lat="39.8672610" lon="2.9385540">
        <ele>261.4</ele>
        <time>2021-07-25T13:23:23Z</time>
      </trkpt>
      <trkpt lat="39.8672840" lon="2.9387380">
        <ele>260.6</ele>
        <time>2021-07-25T13:23:24Z</time>
      </trkpt>
      <trkpt lat="39.8673030" lon="2.9390880">
        <ele>258.6</ele>
        <time>2021-07-25T13:23:26Z</time>
      </trkpt>
      <trkpt lat="39.8673140" lon="2.9392460">
        <ele>257.4</ele>
        <time>2021-07-25T13:23:27Z</time>
      </trkpt>
      <trkpt lat="39.8673410" lon="2.9393880">
        <ele>255.8</ele>
        <time>2021-07-25T13:23:28Z</time>
      </trkpt>
      <trkpt lat="39.8673920" lon="2.9395220">
        <ele>254.8</ele>
        <time>2021-07-25T13:23:29Z</time>
      </trkpt>
      <trkpt lat="39.8674580" lon="2.9396410">
        <ele>253.6</ele>
        <time>2021-07-25T13:23:30Z</time>
      </trkpt>
      <trkpt lat="39.8675360" lon="2.9397490">
        <ele>252.6</ele>
        <time>2021-07-25T13:23:31Z</time>
      </trkpt>
      <trkpt lat="39.8676170" lon="2.9398550">
        <ele>251.4</ele>
        <time>2021-07-25T13:23:32Z</time>
      </trkpt>
      <trkpt lat="39.8677020" lon="2.9399540">
        <ele>250.2</ele>
        <time>2021-07-25T13:23:33Z</time>
      </trkpt>
      <trkpt lat="39.8678710" lon="2.9401610">
        <ele>249.2</ele>
        <time>2021-07-25T13:23:35Z</time>
      </trkpt>
      <trkpt lat="39.8679550" lon="2.9402650">
        <ele>248.8</ele>
        <time>2021-07-25T13:23:36Z</time>
      </trkpt>
      <trkpt lat="39.8683200" lon="2.9406480">
        <ele>247.4</ele>
        <time>2021-07-25T13:23:40Z</time>
      </trkpt>
      <trkpt lat="39.8684210" lon="2.9407220">
        <ele>246.8</ele>
        <time>2021-07-25T13:23:41Z</time>
      </trkpt>
      <trkpt lat="39.8685280" lon="2.9407930">
        <ele>246.0</ele>
        <time>2021-07-25T13:23:42Z</time>
      </trkpt>
      <trkpt lat="39.8687550" lon="2.9409200">
        <ele>244.6</ele>
        <time>2021-07-25T13:23:44Z</time>
      </trkpt>
      <trkpt lat="39.8689850" lon="2.9410170">
        <ele>243.0</ele>
        <time>2021-07-25T13:23:46Z</time>
      </trkpt>
      <trkpt lat="39.8690930" lon="2.9410420">
        <ele>242.0</ele>
        <time>2021-07-25T13:23:47Z</time>
      </trkpt>
      <trkpt lat="39.8691890" lon="2.9410780">
        <ele>241.6</ele>
        <time>2021-07-25T13:23:48Z</time>
      </trkpt>
      <trkpt lat="39.8692790" lon="2.9411360">
        <ele>241.0</ele>
        <time>2021-07-25T13:23:49Z</time>
      </trkpt>
      <trkpt lat="39.8693920" lon="2.9413540">
        <ele>239.8</ele>
        <time>2021-07-25T13:23:51Z</time>
      </trkpt>
      <trkpt lat="39.8694120" lon="2.9416320">
        <ele>238.4</ele>
        <time>2021-07-25T13:23:53Z</time>
      </trkpt>
      <trkpt lat="39.8694320" lon="2.9417670">
        <ele>237.2</ele>
        <time>2021-07-25T13:23:54Z</time>
      </trkpt>
      <trkpt lat="39.8694620" lon="2.9419180">
        <ele>236.6</ele>
        <time>2021-07-25T13:23:55Z</time>
      </trkpt>
      <trkpt lat="39.8695000" lon="2.9420710">
        <ele>235.8</ele>
        <time>2021-07-25T13:23:56Z</time>
      </trkpt>
      <trkpt lat="39.8695430" lon="2.9422270">
        <ele>235.0</ele>
        <time>2021-07-25T13:23:57Z</time>
      </trkpt>
      <trkpt lat="39.8695870" lon="2.9423850">
        <ele>234.2</ele>
        <time>2021-07-25T13:23:58Z</time>
      </trkpt>
      <trkpt lat="39.8696830" lon="2.9426950">
        <ele>232.2</ele>
        <time>2021-07-25T13:24:00Z</time>
      </trkpt>
      <trkpt lat="39.8697280" lon="2.9428400">
        <ele>231.0</ele>
        <time>2021-07-25T13:24:01Z</time>
      </trkpt>
      <trkpt lat="39.8697670" lon="2.9429790">
        <ele>230.0</ele>
        <time>2021-07-25T13:24:02Z</time>
      </trkpt>
      <trkpt lat="39.8697930" lon="2.9431210">
        <ele>229.4</ele>
        <time>2021-07-25T13:24:03Z</time>
      </trkpt>
      <trkpt lat="39.8697930" lon="2.9432610">
        <ele>228.8</ele>
        <time>2021-07-25T13:24:04Z</time>
      </trkpt>
      <trkpt lat="39.8697500" lon="2.9433960">
        <ele>228.0</ele>
        <time>2021-07-25T13:24:05Z</time>
      </trkpt>
      <trkpt lat="39.8696720" lon="2.9435050">
        <ele>227.0</ele>
        <time>2021-07-25T13:24:06Z</time>
      </trkpt>
      <trkpt lat="39.8695730" lon="2.9435630">
        <ele>225.8</ele>
        <time>2021-07-25T13:24:07Z</time>
      </trkpt>
      <trkpt lat="39.8694630" lon="2.9435730">
        <ele>224.8</ele>
        <time>2021-07-25T13:24:08Z</time>
      </trkpt>
      <trkpt lat="39.8693580" lon="2.9435290">
        <ele>224.0</ele>
        <time>2021-07-25T13:24:09Z</time>
      </trkpt>
      <trkpt lat="39.8692780" lon="2.9434400">
        <ele>223.0</ele>
        <time>2021-07-25T13:24:10Z</time>
      </trkpt>
      <trkpt lat="39.8692190" lon="2.9433220">
        <ele>222.2</ele>
        <time>2021-07-25T13:24:11Z</time>
      </trkpt>
      <trkpt lat="39.8691760" lon="2.9431900">
        <ele>221.2</ele>
        <time>2021-07-25T13:24:12Z</time>
      </trkpt>
      <trkpt lat="39.8691400" lon="2.9430420">
        <ele>220.8</ele>
        <time>2021-07-25T13:24:13Z</time>
      </trkpt>
      <trkpt lat="39.8691050" lon="2.9428910">
        <ele>219.8</ele>
        <time>2021-07-25T13:24:14Z</time>
      </trkpt>
      <trkpt lat="39.8690280" lon="2.9425820">
        <ele>217.4</ele>
        <time>2021-07-25T13:24:16Z</time>
      </trkpt>
      <trkpt lat="39.8689640" lon="2.9422710">
        <ele>215.8</ele>
        <time>2021-07-25T13:24:18Z</time>
      </trkpt>
      <trkpt lat="39.8689480" lon="2.9421170">
        <ele>215.0</ele>
        <time>2021-07-25T13:24:19Z</time>
      </trkpt>
      <trkpt lat="39.8689420" lon="2.9419730">
        <ele>214.0</ele>
        <time>2021-07-25T13:24:20Z</time>
      </trkpt>
      <trkpt lat="39.8689450" lon="2.9418390">
        <ele>213.4</ele>
        <time>2021-07-25T13:24:21Z</time>
      </trkpt>
      <trkpt lat="39.8689270" lon="2.9417080">
        <ele>211.8</ele>
        <time>2021-07-25T13:24:22Z</time>
      </trkpt>
      <trkpt lat="39.8688860" lon="2.9415920">
        <ele>210.6</ele>
        <time>2021-07-25T13:24:23Z</time>
      </trkpt>
      <trkpt lat="39.8688190" lon="2.9414930">
        <ele>210.0</ele>
        <time>2021-07-25T13:24:24Z</time>
      </trkpt>
      <trkpt lat="39.8687340" lon="2.9414470">
        <ele>209.4</ele>
        <time>2021-07-25T13:24:25Z</time>
      </trkpt>
      <trkpt lat="39.8686390" lon="2.9414180">
        <ele>208.8</ele>
        <time>2021-07-25T13:24:26Z</time>
      </trkpt>
      <trkpt lat="39.8685400" lon="2.9414020">
        <ele>207.8</ele>
        <time>2021-07-25T13:24:27Z</time>
      </trkpt>
      <trkpt lat="39.8684370" lon="2.9413890">
        <ele>207.0</ele>
        <time>2021-07-25T13:24:28Z</time>
      </trkpt>
      <trkpt lat="39.8683310" lon="2.9413730">
        <ele>206.2</ele>
        <time>2021-07-25T13:24:29Z</time>
      </trkpt>
      <trkpt lat="39.8682260" lon="2.9413500">
        <ele>205.8</ele>
        <time>2021-07-25T13:24:30Z</time>
      </trkpt>
      <trkpt lat="39.8681160" lon="2.9413240">
        <ele>205.0</ele>
        <time>2021-07-25T13:24:31Z</time>
      </trkpt>
      <trkpt lat="39.8678960" lon="2.9412440">
        <ele>204.2</ele>
        <time>2021-07-25T13:24:33Z</time>
      </trkpt>
      <trkpt lat="39.8677850" lon="2.9412080">
        <ele>202.8</ele>
        <time>2021-07-25T13:24:34Z</time>
      </trkpt>
      <trkpt lat="39.8675700" lon="2.9411250">
        <ele>201.4</ele>
        <time>2021-07-25T13:24:36Z</time>
      </trkpt>
      <trkpt lat="39.8673530" lon="2.9410410">
        <ele>200.2</ele>
        <time>2021-07-25T13:24:38Z</time>
      </trkpt>
      <trkpt lat="39.8672490" lon="2.9410040">
        <ele>199.4</ele>
        <time>2021-07-25T13:24:39Z</time>
      </trkpt>
      <trkpt lat="39.8671470" lon="2.9409500">
        <ele>198.6</ele>
        <time>2021-07-25T13:24:40Z</time>
      </trkpt>
      <trkpt lat="39.8669640" lon="2.9407870">
        <ele>197.0</ele>
        <time>2021-07-25T13:24:42Z</time>
      </trkpt>
      <trkpt lat="39.8668190" lon="2.9405460">
        <ele>195.6</ele>
        <time>2021-07-25T13:24:44Z</time>
      </trkpt>
      <trkpt lat="39.8667430" lon="2.9404210">
        <ele>194.8</ele>
        <time>2021-07-25T13:24:45Z</time>
      </trkpt>
      <trkpt lat="39.8666670" lon="2.9402930">
        <ele>193.8</ele>
        <time>2021-07-25T13:24:46Z</time>
      </trkpt>
      <trkpt lat="39.8665080" lon="2.9400510">
        <ele>192.4</ele>
        <time>2021-07-25T13:24:48Z</time>
      </trkpt>
      <trkpt lat="39.8663690" lon="2.9398400">
        <ele>190.8</ele>
        <time>2021-07-25T13:24:50Z</time>
      </trkpt>
      <trkpt lat="39.8663080" lon="2.9397190">
        <ele>190.6</ele>
        <time>2021-07-25T13:24:51Z</time>
      </trkpt>
      <trkpt lat="39.8662330" lon="2.9394640">
        <ele>189.6</ele>
        <time>2021-07-25T13:24:53Z</time>
      </trkpt>
      <trkpt lat="39.8662320" lon="2.9391810">
        <ele>188.6</ele>
        <time>2021-07-25T13:24:55Z</time>
      </trkpt>
      <trkpt lat="39.8662300" lon="2.9390340">
        <ele>188.0</ele>
        <time>2021-07-25T13:24:56Z</time>
      </trkpt>
      <trkpt lat="39.8662220" lon="2.9388900">
        <ele>187.6</ele>
        <time>2021-07-25T13:24:57Z</time>
      </trkpt>
      <trkpt lat="39.8662060" lon="2.9387560">
        <ele>186.6</ele>
        <time>2021-07-25T13:24:58Z</time>
      </trkpt>
      <trkpt lat="39.8661370" lon="2.9385510">
        <ele>185.2</ele>
        <time>2021-07-25T13:25:00Z</time>
      </trkpt>
      <trkpt lat="39.8660150" lon="2.9385490">
        <ele>184.0</ele>
        <time>2021-07-25T13:25:02Z</time>
      </trkpt>
      <trkpt lat="39.8658810" lon="2.9388050">
        <ele>182.4</ele>
        <time>2021-07-25T13:25:04Z</time>
      </trkpt>
      <trkpt lat="39.8658860" lon="2.9390960">
        <ele>180.8</ele>
        <time>2021-07-25T13:25:06Z</time>
      </trkpt>
      <trkpt lat="39.8659170" lon="2.9392440">
        <ele>180.2</ele>
        <time>2021-07-25T13:25:07Z</time>
      </trkpt>
      <trkpt lat="39.8659480" lon="2.9393940">
        <ele>179.0</ele>
        <time>2021-07-25T13:25:08Z</time>
      </trkpt>
      <trkpt lat="39.8659810" lon="2.9395390">
        <ele>178.0</ele>
        <time>2021-07-25T13:25:09Z</time>
      </trkpt>
      <trkpt lat="39.8660490" lon="2.9398400">
        <ele>175.8</ele>
        <time>2021-07-25T13:25:11Z</time>
      </trkpt>
      <trkpt lat="39.8661130" lon="2.9401540">
        <ele>174.4</ele>
        <time>2021-07-25T13:25:13Z</time>
      </trkpt>
      <trkpt lat="39.8661520" lon="2.9403050">
        <ele>173.0</ele>
        <time>2021-07-25T13:25:14Z</time>
      </trkpt>
      <trkpt lat="39.8661960" lon="2.9404530">
        <ele>172.4</ele>
        <time>2021-07-25T13:25:15Z</time>
      </trkpt>
      <trkpt lat="39.8663060" lon="2.9407410">
        <ele>171.8</ele>
        <time>2021-07-25T13:25:17Z</time>
      </trkpt>
      <trkpt lat="39.8664270" lon="2.9410190">
        <ele>170.6</ele>
        <time>2021-07-25T13:25:19Z</time>
      </trkpt>
      <trkpt lat="39.8664770" lon="2.9411610">
        <ele>169.6</ele>
        <time>2021-07-25T13:25:20Z</time>
      </trkpt>
      <trkpt lat="39.8665340" lon="2.9414580">
        <ele>168.4</ele>
        <time>2021-07-25T13:25:22Z</time>
      </trkpt>
      <trkpt lat="39.8665570" lon="2.9417780">
        <ele>166.8</ele>
        <time>2021-07-25T13:25:24Z</time>
      </trkpt>
      <trkpt lat="39.8665890" lon="2.9419290">
        <ele>165.8</ele>
        <time>2021-07-25T13:25:25Z</time>
      </trkpt>
      <trkpt lat="39.8666400" lon="2.9420730">
        <ele>165.0</ele>
        <time>2021-07-25T13:25:26Z</time>
      </trkpt>
      <trkpt lat="39.8667790" lon="2.9423430">
        <ele>163.6</ele>
        <time>2021-07-25T13:25:28Z</time>
      </trkpt>
      <trkpt lat="39.8668540" lon="2.9424800">
        <ele>162.8</ele>
        <time>2021-07-25T13:25:29Z</time>
      </trkpt>
      <trkpt lat="39.8669300" lon="2.9426180">
        <ele>162.0</ele>
        <time>2021-07-25T13:25:30Z</time>
      </trkpt>
      <trkpt lat="39.8670920" lon="2.9428860">
        <ele>160.6</ele>
        <time>2021-07-25T13:25:32Z</time>
      </trkpt>
      <trkpt lat="39.8671860" lon="2.9430020">
        <ele>160.0</ele>
        <time>2021-07-25T13:25:33Z</time>
      </trkpt>
      <trkpt lat="39.8672890" lon="2.9431100">
        <ele>158.8</ele>
        <time>2021-07-25T13:25:34Z</time>
      </trkpt>
      <trkpt lat="39.8673980" lon="2.9432020">
        <ele>157.8</ele>
        <time>2021-07-25T13:25:35Z</time>
      </trkpt>
      <trkpt lat="39.8675120" lon="2.9432830">
        <ele>156.4</ele>
        <time>2021-07-25T13:25:36Z</time>
      </trkpt>
      <trkpt lat="39.8676220" lon="2.9433640">
        <ele>155.2</ele>
        <time>2021-07-25T13:25:37Z</time>
      </trkpt>
      <trkpt lat="39.8677220" lon="2.9434460">
        <ele>153.8</ele>
        <time>2021-07-25T13:25:38Z</time>
      </trkpt>
      <trkpt lat="39.8678090" lon="2.9435350">
        <ele>153.2</ele>
        <time>2021-07-25T13:25:39Z</time>
      </trkpt>
      <trkpt lat="39.8678840" lon="2.9436420">
        <ele>152.8</ele>
        <time>2021-07-25T13:25:40Z</time>
      </trkpt>
      <trkpt lat="39.8679860" lon="2.9439110">
        <ele>152.0</ele>
        <time>2021-07-25T13:25:42Z</time>
      </trkpt>
      <trkpt lat="39.8680220" lon="2.9440550">
        <ele>151.6</ele>
        <time>2021-07-25T13:25:43Z</time>
      </trkpt>
      <trkpt lat="39.8680540" lon="2.9442020">
        <ele>150.6</ele>
        <time>2021-07-25T13:25:44Z</time>
      </trkpt>
      <trkpt lat="39.8680930" lon="2.9443430">
        <ele>149.8</ele>
        <time>2021-07-25T13:25:45Z</time>
      </trkpt>
      <trkpt lat="39.8681420" lon="2.9444870">
        <ele>148.6</ele>
        <time>2021-07-25T13:25:46Z</time>
      </trkpt>
      <trkpt lat="39.8681880" lon="2.9446270">
        <ele>147.4</ele>
        <time>2021-07-25T13:25:47Z</time>
      </trkpt>
      <trkpt lat="39.8682700" lon="2.9449290">
        <ele>146.4</ele>
        <time>2021-07-25T13:25:49Z</time>
      </trkpt>
      <trkpt lat="39.8683230" lon="2.9450750">
        <ele>146.0</ele>
        <time>2021-07-25T13:25:50Z</time>
      </trkpt>
      <trkpt lat="39.8683890" lon="2.9452130">
        <ele>145.2</ele>
        <time>2021-07-25T13:25:51Z</time>
      </trkpt>
      <trkpt lat="39.8684790" lon="2.9453250">
        <ele>144.6</ele>
        <time>2021-07-25T13:25:52Z</time>
      </trkpt>
      <trkpt lat="39.8686960" lon="2.9455060">
        <ele>142.8</ele>
        <time>2021-07-25T13:25:54Z</time>
      </trkpt>
      <trkpt lat="39.8688090" lon="2.9455910">
        <ele>141.6</ele>
        <time>2021-07-25T13:25:55Z</time>
      </trkpt>
      <trkpt lat="39.8690330" lon="2.9457380">
        <ele>140.0</ele>
        <time>2021-07-25T13:25:57Z</time>
      </trkpt>
      <trkpt lat="39.8692450" lon="2.9458800">
        <ele>138.4</ele>
        <time>2021-07-25T13:25:59Z</time>
      </trkpt>
      <trkpt lat="39.8693260" lon="2.9459820">
        <ele>137.2</ele>
        <time>2021-07-25T13:26:00Z</time>
      </trkpt>
      <trkpt lat="39.8693930" lon="2.9461000">
        <ele>136.0</ele>
        <time>2021-07-25T13:26:01Z</time>
      </trkpt>
      <trkpt lat="39.8694160" lon="2.9462390">
        <ele>134.8</ele>
        <time>2021-07-25T13:26:02Z</time>
      </trkpt>
      <trkpt lat="39.8694030" lon="2.9463770">
        <ele>134.2</ele>
        <time>2021-07-25T13:26:03Z</time>
      </trkpt>
      <trkpt lat="39.8693680" lon="2.9464920">
        <ele>133.6</ele>
        <time>2021-07-25T13:26:04Z</time>
      </trkpt>
      <trkpt lat="39.8692510" lon="2.9467520">
        <ele>132.6</ele>
        <time>2021-07-25T13:26:06Z</time>
      </trkpt>
      <trkpt lat="39.8691820" lon="2.9470610">
        <ele>131.0</ele>
        <time>2021-07-25T13:26:08Z</time>
      </trkpt>
      <trkpt lat="39.8691770" lon="2.9474050">
        <ele>129.6</ele>
        <time>2021-07-25T13:26:10Z</time>
      </trkpt>
      <trkpt lat="39.8691810" lon="2.9475810">
        <ele>128.8</ele>
        <time>2021-07-25T13:26:11Z</time>
      </trkpt>
      <trkpt lat="39.8691840" lon="2.9477550">
        <ele>128.2</ele>
        <time>2021-07-25T13:26:12Z</time>
      </trkpt>
      <trkpt lat="39.8691840" lon="2.9479290">
        <ele>127.2</ele>
        <time>2021-07-25T13:26:13Z</time>
      </trkpt>
      <trkpt lat="39.8691910" lon="2.9481040">
        <ele>126.2</ele>
        <time>2021-07-25T13:26:14Z</time>
      </trkpt>
      <trkpt lat="39.8692010" lon="2.9484580">
        <ele>124.6</ele>
        <time>2021-07-25T13:26:16Z</time>
      </trkpt>
      <trkpt lat="39.8691990" lon="2.9486400">
        <ele>123.8</ele>
        <time>2021-07-25T13:26:17Z</time>
      </trkpt>
      <trkpt lat="39.8691930" lon="2.9488200">
        <ele>122.8</ele>
        <time>2021-07-25T13:26:18Z</time>
      </trkpt>
      <trkpt lat="39.8691770" lon="2.9490000">
        <ele>122.2</ele>
        <time>2021-07-25T13:26:19Z</time>
      </trkpt>
      <trkpt lat="39.8691430" lon="2.9491720">
        <ele>121.2</ele>
        <time>2021-07-25T13:26:20Z</time>
      </trkpt>
      <trkpt lat="39.8690740" lon="2.9494890">
        <ele>119.8</ele>
        <time>2021-07-25T13:26:22Z</time>
      </trkpt>
      <trkpt lat="39.8690020" lon="2.9498160">
        <ele>118.4</ele>
        <time>2021-07-25T13:26:24Z</time>
      </trkpt>
      <trkpt lat="39.8689200" lon="2.9501590">
        <ele>116.0</ele>
        <time>2021-07-25T13:26:26Z</time>
      </trkpt>
      <trkpt lat="39.8688730" lon="2.9503290">
        <ele>114.6</ele>
        <time>2021-07-25T13:26:27Z</time>
      </trkpt>
      <trkpt lat="39.8688210" lon="2.9504960">
        <ele>113.4</ele>
        <time>2021-07-25T13:26:28Z</time>
      </trkpt>
      <trkpt lat="39.8687570" lon="2.9506600">
        <ele>112.2</ele>
        <time>2021-07-25T13:26:29Z</time>
      </trkpt>
      <trkpt lat="39.8686850" lon="2.9508200">
        <ele>110.8</ele>
        <time>2021-07-25T13:26:30Z</time>
      </trkpt>
      <trkpt lat="39.8685560" lon="2.9511380">
        <ele>109.4</ele>
        <time>2021-07-25T13:26:32Z</time>
      </trkpt>
      <trkpt lat="39.8685130" lon="2.9513100">
        <ele>108.6</ele>
        <time>2021-07-25T13:26:33Z</time>
      </trkpt>
      <trkpt lat="39.8684850" lon="2.9514840">
        <ele>108.0</ele>
        <time>2021-07-25T13:26:34Z</time>
      </trkpt>
      <trkpt lat="39.8684520" lon="2.9518430">
        <ele>106.8</ele>
        <time>2021-07-25T13:26:36Z</time>
      </trkpt>
      <trkpt lat="39.8684400" lon="2.9520210">
        <ele>106.4</ele>
        <time>2021-07-25T13:26:37Z</time>
      </trkpt>
      <trkpt lat="39.8684080" lon="2.9523610">
        <ele>105.4</ele>
        <time>2021-07-25T13:26:39Z</time>
      </trkpt>
      <trkpt lat="39.8683700" lon="2.9528520">
        <ele>103.8</ele>
        <time>2021-07-25T13:26:42Z</time>
      </trkpt>
      <trkpt lat="39.8683570" lon="2.9534580">
        <ele>102.6</ele>
        <time>2021-07-25T13:26:46Z</time>
      </trkpt>
      <trkpt lat="39.8683780" lon="2.9536010">
        <ele>102.2</ele>
        <time>2021-07-25T13:26:47Z</time>
      </trkpt>
      <trkpt lat="39.8684890" lon="2.9540100">
        <ele>101.8</ele>
        <time>2021-07-25T13:26:50Z</time>
      </trkpt>
      <trkpt lat="39.8685280" lon="2.9541410">
        <ele>101.4</ele>
        <time>2021-07-25T13:26:51Z</time>
      </trkpt>
      <trkpt lat="39.8687090" lon="2.9547680">
        <ele>100.2</ele>
        <time>2021-07-25T13:26:56Z</time>
      </trkpt>
      <trkpt lat="39.8688710" lon="2.9553280">
        <ele>100.4</ele>
        <time>2021-07-25T13:27:01Z</time>
      </trkpt>
      <trkpt lat="39.8690200" lon="2.9558220">
        <ele>99.8</ele>
        <time>2021-07-25T13:27:06Z</time>
      </trkpt>
      <trkpt lat="39.8691130" lon="2.9561070">
        <ele>99.4</ele>
        <time>2021-07-25T13:27:09Z</time>
      </trkpt>
      <trkpt lat="39.8692080" lon="2.9563870">
        <ele>99.0</ele>
        <time>2021-07-25T13:27:12Z</time>
      </trkpt>
      <trkpt lat="39.8693720" lon="2.9569570">
        <ele>98.6</ele>
        <time>2021-07-25T13:27:18Z</time>
      </trkpt>
      <trkpt lat="39.8693910" lon="2.9570520">
        <ele>98.6</ele>
        <time>2021-07-25T13:27:19Z</time>
      </trkpt>
      <trkpt lat="39.8694430" lon="2.9575250">
        <ele>97.6</ele>
        <time>2021-07-25T13:27:24Z</time>
      </trkpt>
      <trkpt lat="39.8694540" lon="2.9576130">
        <ele>97.4</ele>
        <time>2021-07-25T13:27:25Z</time>
      </trkpt>
      <trkpt lat="39.8694790" lon="2.9579130">
        <ele>96.8</ele>
        <time>2021-07-25T13:27:29Z</time>
      </trkpt>
      <trkpt lat="39.8695000" lon="2.9580500">
        <ele>96.2</ele>
        <time>2021-07-25T13:27:32Z</time>
      </trkpt>
      <trkpt lat="39.8695060" lon="2.9581240">
        <ele>96.0</ele>
        <time>2021-07-25T13:27:34Z</time>
      </trkpt>
      <trkpt lat="39.8696940" lon="2.9602200">
        <ele>95.4</ele>
        <time>2021-07-25T13:29:38Z</time>
      </trkpt>
      <trkpt lat="39.8696980" lon="2.9602630">
        <ele>95.2</ele>
        <time>2021-07-25T13:29:39Z</time>
      </trkpt>
      <trkpt lat="39.8697570" lon="2.9609760">
        <ele>94.8</ele>
        <time>2021-07-25T13:29:47Z</time>
      </trkpt>
      <trkpt lat="39.8697730" lon="2.9611560">
        <ele>94.6</ele>
        <time>2021-07-25T13:29:49Z</time>
      </trkpt>
      <trkpt lat="39.8698220" lon="2.9617140">
        <ele>94.0</ele>
        <time>2021-07-25T13:29:55Z</time>
      </trkpt>
      <trkpt lat="39.8698250" lon="2.9624610">
        <ele>94.2</ele>
        <time>2021-07-25T13:30:03Z</time>
      </trkpt>
      <trkpt lat="39.8696990" lon="2.9630140">
        <ele>93.6</ele>
        <time>2021-07-25T13:30:09Z</time>
      </trkpt>
      <trkpt lat="39.8695830" lon="2.9635060">
        <ele>92.6</ele>
        <time>2021-07-25T13:30:14Z</time>
      </trkpt>
      <trkpt lat="39.8695590" lon="2.9636020">
        <ele>92.6</ele>
        <time>2021-07-25T13:30:15Z</time>
      </trkpt>
      <trkpt lat="39.8694000" lon="2.9642730">
        <ele>91.8</ele>
        <time>2021-07-25T13:30:22Z</time>
      </trkpt>
      <trkpt lat="39.8693550" lon="2.9644630">
        <ele>91.6</ele>
        <time>2021-07-25T13:30:24Z</time>
      </trkpt>
      <trkpt lat="39.8692190" lon="2.9650250">
        <ele>90.8</ele>
        <time>2021-07-25T13:30:30Z</time>
      </trkpt>
      <trkpt lat="39.8691280" lon="2.9654060">
        <ele>90.8</ele>
        <time>2021-07-25T13:30:34Z</time>
      </trkpt>
      <trkpt lat="39.8690590" lon="2.9656910">
        <ele>90.2</ele>
        <time>2021-07-25T13:30:37Z</time>
      </trkpt>
      <trkpt lat="39.8688970" lon="2.9663440">
        <ele>89.6</ele>
        <time>2021-07-25T13:30:44Z</time>
      </trkpt>
      <trkpt lat="39.8688760" lon="2.9664350">
        <ele>89.6</ele>
        <time>2021-07-25T13:30:45Z</time>
      </trkpt>
      <trkpt lat="39.8687520" lon="2.9669850">
        <ele>89.4</ele>
        <time>2021-07-25T13:30:51Z</time>
      </trkpt>
      <trkpt lat="39.8686110" lon="2.9675840">
        <ele>89.6</ele>
        <time>2021-07-25T13:30:57Z</time>
      </trkpt>
      <trkpt lat="39.8685400" lon="2.9679150">
        <ele>88.6</ele>
        <time>2021-07-25T13:31:00Z</time>
      </trkpt>
      <trkpt lat="39.8684540" lon="2.9682660">
        <ele>88.0</ele>
        <time>2021-07-25T13:31:03Z</time>
      </trkpt>
      <trkpt lat="39.8683370" lon="2.9687560">
        <ele>87.4</ele>
        <time>2021-07-25T13:31:07Z</time>
      </trkpt>
      <trkpt lat="39.8682800" lon="2.9690020">
        <ele>87.0</ele>
        <time>2021-07-25T13:31:09Z</time>
      </trkpt>
      <trkpt lat="39.8682180" lon="2.9692460">
        <ele>86.6</ele>
        <time>2021-07-25T13:31:11Z</time>
      </trkpt>
      <trkpt lat="39.8681100" lon="2.9697160">
        <ele>86.0</ele>
        <time>2021-07-25T13:31:15Z</time>
      </trkpt>
      <trkpt lat="39.8679380" lon="2.9703830">
        <ele>85.6</ele>
        <time>2021-07-25T13:31:21Z</time>
      </trkpt>
      <trkpt lat="39.8679160" lon="2.9704960">
        <ele>85.6</ele>
        <time>2021-07-25T13:31:22Z</time>
      </trkpt>
      <trkpt lat="39.8678890" lon="2.9706060">
        <ele>85.4</ele>
        <time>2021-07-25T13:31:23Z</time>
      </trkpt>
      <trkpt lat="39.8677610" lon="2.9711620">
        <ele>85.4</ele>
        <time>2021-07-25T13:31:28Z</time>
      </trkpt>
      <trkpt lat="39.8676330" lon="2.9717260">
        <ele>84.8</ele>
        <time>2021-07-25T13:31:33Z</time>
      </trkpt>
      <trkpt lat="39.8676120" lon="2.9718420">
        <ele>84.4</ele>
        <time>2021-07-25T13:31:34Z</time>
      </trkpt>
      <trkpt lat="39.8676020" lon="2.9719590">
        <ele>84.2</ele>
        <time>2021-07-25T13:31:35Z</time>
      </trkpt>
      <trkpt lat="39.8676060" lon="2.9721880">
        <ele>83.8</ele>
        <time>2021-07-25T13:31:37Z</time>
      </trkpt>
      <trkpt lat="39.8676230" lon="2.9723010">
        <ele>83.6</ele>
        <time>2021-07-25T13:31:38Z</time>
      </trkpt>
      <trkpt lat="39.8676430" lon="2.9724170">
        <ele>83.2</ele>
        <time>2021-07-25T13:31:39Z</time>
      </trkpt>
      <trkpt lat="39.8676950" lon="2.9726530">
        <ele>83.2</ele>
        <time>2021-07-25T13:31:41Z</time>
      </trkpt>
      <trkpt lat="39.8677840" lon="2.9730000">
        <ele>82.4</ele>
        <time>2021-07-25T13:31:44Z</time>
      </trkpt>
      <trkpt lat="39.8678850" lon="2.9734580">
        <ele>81.8</ele>
        <time>2021-07-25T13:31:48Z</time>
      </trkpt>
      <trkpt lat="39.8679360" lon="2.9736770">
        <ele>81.2</ele>
        <time>2021-07-25T13:31:50Z</time>
      </trkpt>
      <trkpt lat="39.8680070" lon="2.9740110">
        <ele>80.4</ele>
        <time>2021-07-25T13:31:53Z</time>
      </trkpt>
      <trkpt lat="39.8680320" lon="2.9741240">
        <ele>80.2</ele>
        <time>2021-07-25T13:31:54Z</time>
      </trkpt>
      <trkpt lat="39.8681810" lon="2.9748100">
        <ele>79.8</ele>
        <time>2021-07-25T13:32:00Z</time>
      </trkpt>
      <trkpt lat="39.8682120" lon="2.9749190">
        <ele>79.8</ele>
        <time>2021-07-25T13:32:01Z</time>
      </trkpt>
      <trkpt lat="39.8682650" lon="2.9751380">
        <ele>79.2</ele>
        <time>2021-07-25T13:32:03Z</time>
      </trkpt>
      <trkpt lat="39.8683560" lon="2.9755540">
        <ele>79.0</ele>
        <time>2021-07-25T13:32:07Z</time>
      </trkpt>
      <trkpt lat="39.8683740" lon="2.9756570">
        <ele>79.0</ele>
        <time>2021-07-25T13:32:08Z</time>
      </trkpt>
      <trkpt lat="39.8684960" lon="2.9761710">
        <ele>78.8</ele>
        <time>2021-07-25T13:32:13Z</time>
      </trkpt>
      <trkpt lat="39.8685690" lon="2.9764800">
        <ele>78.2</ele>
        <time>2021-07-25T13:32:16Z</time>
      </trkpt>
      <trkpt lat="39.8686700" lon="2.9768690">
        <ele>77.4</ele>
        <time>2021-07-25T13:32:20Z</time>
      </trkpt>
      <trkpt lat="39.8687190" lon="2.9770650">
        <ele>77.2</ele>
        <time>2021-07-25T13:32:22Z</time>
      </trkpt>
      <trkpt lat="39.8687930" lon="2.9773630">
        <ele>77.0</ele>
        <time>2021-07-25T13:32:25Z</time>
      </trkpt>
      <trkpt lat="39.8689200" lon="2.9778660">
        <ele>76.0</ele>
        <time>2021-07-25T13:32:30Z</time>
      </trkpt>
      <trkpt lat="39.8689710" lon="2.9780630">
        <ele>75.8</ele>
        <time>2021-07-25T13:32:32Z</time>
      </trkpt>
      <trkpt lat="39.8691480" lon="2.9787770">
        <ele>75.8</ele>
        <time>2021-07-25T13:32:39Z</time>
      </trkpt>
      <trkpt lat="39.8693100" lon="2.9794470">
        <ele>75.2</ele>
        <time>2021-07-25T13:32:46Z</time>
      </trkpt>
      <trkpt lat="39.8693940" lon="2.9797060">
        <ele>75.2</ele>
        <time>2021-07-25T13:32:49Z</time>
      </trkpt>
      <trkpt lat="39.8695010" lon="2.9799620">
        <ele>75.0</ele>
        <time>2021-07-25T13:32:52Z</time>
      </trkpt>
      <trkpt lat="39.8695800" lon="2.9801350">
        <ele>74.6</ele>
        <time>2021-07-25T13:32:54Z</time>
      </trkpt>
      <trkpt lat="39.8696530" lon="2.9803100">
        <ele>74.2</ele>
        <time>2021-07-25T13:32:56Z</time>
      </trkpt>
      <trkpt lat="39.8696900" lon="2.9803960">
        <ele>74.0</ele>
        <time>2021-07-25T13:32:57Z</time>
      </trkpt>
      <trkpt lat="39.8699070" lon="2.9809360">
        <ele>73.6</ele>
        <time>2021-07-25T13:33:03Z</time>
      </trkpt>
      <trkpt lat="39.8700150" lon="2.9812080">
        <ele>73.2</ele>
        <time>2021-07-25T13:33:06Z</time>
      </trkpt>
      <trkpt lat="39.8701210" lon="2.9814810">
        <ele>72.8</ele>
        <time>2021-07-25T13:33:09Z</time>
      </trkpt>
      <trkpt lat="39.8703400" lon="2.9820030">
        <ele>72.6</ele>
        <time>2021-07-25T13:33:15Z</time>
      </trkpt>
      <trkpt lat="39.8704930" lon="2.9822260">
        <ele>72.4</ele>
        <time>2021-07-25T13:33:18Z</time>
      </trkpt>
      <trkpt lat="39.8706010" lon="2.9823600">
        <ele>72.2</ele>
        <time>2021-07-25T13:33:20Z</time>
      </trkpt>
      <trkpt lat="39.8709890" lon="2.9828230">
        <ele>71.6</ele>
        <time>2021-07-25T13:33:27Z</time>
      </trkpt>
      <trkpt lat="39.8711510" lon="2.9830310">
        <ele>71.4</ele>
        <time>2021-07-25T13:33:30Z</time>
      </trkpt>
      <trkpt lat="39.8712020" lon="2.9830990">
        <ele>71.2</ele>
        <time>2021-07-25T13:33:31Z</time>
      </trkpt>
      <trkpt lat="39.8714570" lon="2.9834310">
        <ele>70.8</ele>
        <time>2021-07-25T13:33:36Z</time>
      </trkpt>
      <trkpt lat="39.8717200" lon="2.9838550">
        <ele>71.0</ele>
        <time>2021-07-25T13:33:42Z</time>
      </trkpt>
      <trkpt lat="39.8719280" lon="2.9843030">
        <ele>71.6</ele>
        <time>2021-07-25T13:33:48Z</time>
      </trkpt>
      <trkpt lat="39.8720820" lon="2.9846710">
        <ele>71.4</ele>
        <time>2021-07-25T13:33:53Z</time>
      </trkpt>
      <trkpt lat="39.8722510" lon="2.9850870">
        <ele>72.2</ele>
        <time>2021-07-25T13:33:59Z</time>
      </trkpt>
      <trkpt lat="39.8723320" lon="2.9852960">
        <ele>72.8</ele>
        <time>2021-07-25T13:34:02Z</time>
      </trkpt>
      <trkpt lat="39.8724180" lon="2.9855240">
        <ele>72.6</ele>
        <time>2021-07-25T13:34:05Z</time>
      </trkpt>
      <trkpt lat="39.8725680" lon="2.9859190">
        <ele>71.8</ele>
        <time>2021-07-25T13:34:10Z</time>
      </trkpt>
      <trkpt lat="39.8726280" lon="2.9860810">
        <ele>71.8</ele>
        <time>2021-07-25T13:34:12Z</time>
      </trkpt>
      <trkpt lat="39.8726560" lon="2.9861640">
        <ele>71.8</ele>
        <time>2021-07-25T13:34:13Z</time>
      </trkpt>
      <trkpt lat="39.8727840" lon="2.9864990">
        <ele>71.4</ele>
        <time>2021-07-25T13:34:17Z</time>
      </trkpt>
      <trkpt lat="39.8728850" lon="2.9867710">
        <ele>71.0</ele>
        <time>2021-07-25T13:34:20Z</time>
      </trkpt>
      <trkpt lat="39.8729540" lon="2.9869540">
        <ele>70.8</ele>
        <time>2021-07-25T13:34:22Z</time>
      </trkpt>
      <trkpt lat="39.8731040" lon="2.9873290">
        <ele>70.0</ele>
        <time>2021-07-25T13:34:26Z</time>
      </trkpt>
      <trkpt lat="39.8732150" lon="2.9876150">
        <ele>69.4</ele>
        <time>2021-07-25T13:34:29Z</time>
      </trkpt>
      <trkpt lat="39.8732950" lon="2.9878070">
        <ele>69.0</ele>
        <time>2021-07-25T13:34:31Z</time>
      </trkpt>
      <trkpt lat="39.8734830" lon="2.9882820">
        <ele>68.2</ele>
        <time>2021-07-25T13:34:36Z</time>
      </trkpt>
      <trkpt lat="39.8735180" lon="2.9883760">
        <ele>68.0</ele>
        <time>2021-07-25T13:34:37Z</time>
      </trkpt>
      <trkpt lat="39.8737290" lon="2.9889500">
        <ele>67.6</ele>
        <time>2021-07-25T13:34:43Z</time>
      </trkpt>
      <trkpt lat="39.8739440" lon="2.9894980">
        <ele>67.6</ele>
        <time>2021-07-25T13:34:49Z</time>
      </trkpt>
      <trkpt lat="39.8741890" lon="2.9902080">
        <ele>67.8</ele>
        <time>2021-07-25T13:34:57Z</time>
      </trkpt>
      <trkpt lat="39.8743630" lon="2.9909380">
        <ele>68.4</ele>
        <time>2021-07-25T13:35:05Z</time>
      </trkpt>
      <trkpt lat="39.8744800" lon="2.9914880">
        <ele>67.4</ele>
        <time>2021-07-25T13:35:11Z</time>
      </trkpt>
      <trkpt lat="39.8744960" lon="2.9915820">
        <ele>67.2</ele>
        <time>2021-07-25T13:35:12Z</time>
      </trkpt>
      <trkpt lat="39.8745950" lon="2.9921170">
        <ele>67.4</ele>
        <time>2021-07-25T13:35:18Z</time>
      </trkpt>
      <trkpt lat="39.8747380" lon="2.9927320">
        <ele>67.4</ele>
        <time>2021-07-25T13:35:25Z</time>
      </trkpt>
      <trkpt lat="39.8748480" lon="2.9931680">
        <ele>67.0</ele>
        <time>2021-07-25T13:35:30Z</time>
      </trkpt>
      <trkpt lat="39.8750210" lon="2.9935830">
        <ele>66.4</ele>
        <time>2021-07-25T13:35:35Z</time>
      </trkpt>
      <trkpt lat="39.8751600" lon="2.9938450">
        <ele>65.2</ele>
        <time>2021-07-25T13:35:38Z</time>
      </trkpt>
      <trkpt lat="39.8753150" lon="2.9941190">
        <ele>64.4</ele>
        <time>2021-07-25T13:35:41Z</time>
      </trkpt>
      <trkpt lat="39.8753670" lon="2.9942130">
        <ele>64.2</ele>
        <time>2021-07-25T13:35:42Z</time>
      </trkpt>
      <trkpt lat="39.8756290" lon="2.9946920">
        <ele>62.8</ele>
        <time>2021-07-25T13:35:47Z</time>
      </trkpt>
      <trkpt lat="39.8756810" lon="2.9947890">
        <ele>62.6</ele>
        <time>2021-07-25T13:35:48Z</time>
      </trkpt>
      <trkpt lat="39.8758390" lon="2.9950830">
        <ele>61.8</ele>
        <time>2021-07-25T13:35:51Z</time>
      </trkpt>
      <trkpt lat="39.8759950" lon="2.9953720">
        <ele>60.6</ele>
        <time>2021-07-25T13:35:54Z</time>
      </trkpt>
      <trkpt lat="39.8761510" lon="2.9956590">
        <ele>59.6</ele>
        <time>2021-07-25T13:35:57Z</time>
      </trkpt>
      <trkpt lat="39.8762020" lon="2.9957520">
        <ele>59.2</ele>
        <time>2021-07-25T13:35:58Z</time>
      </trkpt>
      <trkpt lat="39.8764430" lon="2.9962060">
        <ele>58.4</ele>
        <time>2021-07-25T13:36:03Z</time>
      </trkpt>
      <trkpt lat="39.8765350" lon="2.9963790">
        <ele>58.2</ele>
        <time>2021-07-25T13:36:05Z</time>
      </trkpt>
      <trkpt lat="39.8768490" lon="2.9969620">
        <ele>57.6</ele>
        <time>2021-07-25T13:36:12Z</time>
      </trkpt>
      <trkpt lat="39.8769350" lon="2.9971250">
        <ele>57.2</ele>
        <time>2021-07-25T13:36:14Z</time>
      </trkpt>
      <trkpt lat="39.8769790" lon="2.9972060">
        <ele>57.0</ele>
        <time>2021-07-25T13:36:15Z</time>
      </trkpt>
      <trkpt lat="39.8773120" lon="2.9978480">
        <ele>56.4</ele>
        <time>2021-07-25T13:36:23Z</time>
      </trkpt>
      <trkpt lat="39.8773930" lon="2.9980070">
        <ele>56.4</ele>
        <time>2021-07-25T13:36:25Z</time>
      </trkpt>
      <trkpt lat="39.8776400" lon="2.9984660">
        <ele>56.6</ele>
        <time>2021-07-25T13:36:31Z</time>
      </trkpt>
      <trkpt lat="39.8777220" lon="2.9986150">
        <ele>56.2</ele>
        <time>2021-07-25T13:36:33Z</time>
      </trkpt>
      <trkpt lat="39.8778380" lon="2.9988450">
        <ele>55.6</ele>
        <time>2021-07-25T13:36:36Z</time>
      </trkpt>
      <trkpt lat="39.8779880" lon="2.9991570">
        <ele>55.2</ele>
        <time>2021-07-25T13:36:40Z</time>
      </trkpt>
      <trkpt lat="39.8781490" lon="2.9994650">
        <ele>55.0</ele>
        <time>2021-07-25T13:36:44Z</time>
      </trkpt>
      <trkpt lat="39.8784480" lon="3.0000050">
        <ele>54.6</ele>
        <time>2021-07-25T13:36:51Z</time>
      </trkpt>
      <trkpt lat="39.8784910" lon="3.0000830">
        <ele>54.4</ele>
        <time>2021-07-25T13:36:52Z</time>
      </trkpt>
      <trkpt lat="39.8787490" lon="3.0005560">
        <ele>54.2</ele>
        <time>2021-07-25T13:36:58Z</time>
      </trkpt>
      <trkpt lat="39.8790790" lon="3.0011990">
        <ele>53.6</ele>
        <time>2021-07-25T13:37:06Z</time>
      </trkpt>
      <trkpt lat="39.8793760" lon="3.0017510">
        <ele>53.6</ele>
        <time>2021-07-25T13:37:13Z</time>
      </trkpt>
      <trkpt lat="39.8794180" lon="3.0018300">
        <ele>53.2</ele>
        <time>2021-07-25T13:37:14Z</time>
      </trkpt>
      <trkpt lat="39.8797490" lon="3.0024660">
        <ele>53.0</ele>
        <time>2021-07-25T13:37:22Z</time>
      </trkpt>
      <trkpt lat="39.8797890" lon="3.0025470">
        <ele>52.8</ele>
        <time>2021-07-25T13:37:23Z</time>
      </trkpt>
      <trkpt lat="39.8799570" lon="3.0028640">
        <ele>52.4</ele>
        <time>2021-07-25T13:37:27Z</time>
      </trkpt>
      <trkpt lat="39.8802530" lon="3.0034110">
        <ele>52.0</ele>
        <time>2021-07-25T13:37:34Z</time>
      </trkpt>
      <trkpt lat="39.8805880" lon="3.0040410">
        <ele>51.6</ele>
        <time>2021-07-25T13:37:42Z</time>
      </trkpt>
      <trkpt lat="39.8806290" lon="3.0041190">
        <ele>51.4</ele>
        <time>2021-07-25T13:37:43Z</time>
      </trkpt>
      <trkpt lat="39.8809420" lon="3.0047390">
        <ele>50.6</ele>
        <time>2021-07-25T13:37:51Z</time>
      </trkpt>
      <trkpt lat="39.8811430" lon="3.0051240">
        <ele>50.4</ele>
        <time>2021-07-25T13:37:56Z</time>
      </trkpt>
      <trkpt lat="39.8812310" lon="3.0052680">
        <ele>50.2</ele>
        <time>2021-07-25T13:37:58Z</time>
      </trkpt>
      <trkpt lat="39.8815080" lon="3.0057840">
        <ele>49.8</ele>
        <time>2021-07-25T13:38:05Z</time>
      </trkpt>
      <trkpt lat="39.8816680" lon="3.0060790">
        <ele>49.6</ele>
        <time>2021-07-25T13:38:09Z</time>
      </trkpt>
      <trkpt lat="39.8818170" lon="3.0063680">
        <ele>49.2</ele>
        <time>2021-07-25T13:38:13Z</time>
      </trkpt>
      <trkpt lat="39.8820940" lon="3.0068910">
        <ele>49.2</ele>
        <time>2021-07-25T13:38:20Z</time>
      </trkpt>
      <trkpt lat="39.8823730" lon="3.0074100">
        <ele>48.6</ele>
        <time>2021-07-25T13:38:27Z</time>
      </trkpt>
      <trkpt lat="39.8826460" lon="3.0079170">
        <ele>48.8</ele>
        <time>2021-07-25T13:38:34Z</time>
      </trkpt>
      <trkpt lat="39.8829380" lon="3.0085070">
        <ele>48.4</ele>
        <time>2021-07-25T13:38:42Z</time>
      </trkpt>
      <trkpt lat="39.8830010" lon="3.0087560">
        <ele>48.8</ele>
        <time>2021-07-25T13:38:45Z</time>
      </trkpt>
      <trkpt lat="39.8830160" lon="3.0089320">
        <ele>48.6</ele>
        <time>2021-07-25T13:38:47Z</time>
      </trkpt>
      <trkpt lat="39.8830280" lon="3.0095510">
        <ele>48.4</ele>
        <time>2021-07-25T13:38:54Z</time>
      </trkpt>
      <trkpt lat="39.8830350" lon="3.0099860">
        <ele>47.8</ele>
        <time>2021-07-25T13:38:59Z</time>
      </trkpt>
      <trkpt lat="39.8830370" lon="3.0101600">
        <ele>47.8</ele>
        <time>2021-07-25T13:39:01Z</time>
      </trkpt>
      <trkpt lat="39.8830480" lon="3.0107720">
        <ele>48.4</ele>
        <time>2021-07-25T13:39:08Z</time>
      </trkpt>
      <trkpt lat="39.8830580" lon="3.0114780">
        <ele>47.4</ele>
        <time>2021-07-25T13:39:16Z</time>
      </trkpt>
      <trkpt lat="39.8830680" lon="3.0120020">
        <ele>47.0</ele>
        <time>2021-07-25T13:39:22Z</time>
      </trkpt>
      <trkpt lat="39.8830710" lon="3.0121810">
        <ele>47.0</ele>
        <time>2021-07-25T13:39:24Z</time>
      </trkpt>
      <trkpt lat="39.8830720" lon="3.0128350">
        <ele>46.6</ele>
        <time>2021-07-25T13:39:31Z</time>
      </trkpt>
      <trkpt lat="39.8830760" lon="3.0131190">
        <ele>46.2</ele>
        <time>2021-07-25T13:39:34Z</time>
      </trkpt>
      <trkpt lat="39.8830900" lon="3.0135790">
        <ele>46.0</ele>
        <time>2021-07-25T13:39:39Z</time>
      </trkpt>
      <trkpt lat="39.8830870" lon="3.0137490">
        <ele>45.6</ele>
        <time>2021-07-25T13:39:41Z</time>
      </trkpt>
      <trkpt lat="39.8830550" lon="3.0138200">
        <ele>45.6</ele>
        <time>2021-07-25T13:39:42Z</time>
      </trkpt>
      <trkpt lat="39.8828850" lon="3.0139120">
        <ele>45.4</ele>
        <time>2021-07-25T13:39:45Z</time>
      </trkpt>
      <trkpt lat="39.8828250" lon="3.0139240">
        <ele>45.4</ele>
        <time>2021-07-25T13:39:46Z</time>
      </trkpt>
      <trkpt lat="39.8826550" lon="3.0139430">
        <ele>45.2</ele>
        <time>2021-07-25T13:39:49Z</time>
      </trkpt>
      <trkpt lat="39.8826030" lon="3.0139450">
        <ele>45.2</ele>
        <time>2021-07-25T13:39:50Z</time>
      </trkpt>
      <trkpt lat="39.8825510" lon="3.0139640">
        <ele>45.2</ele>
        <time>2021-07-25T13:39:51Z</time>
      </trkpt>
      <trkpt lat="39.8824090" lon="3.0140660">
        <ele>45.2</ele>
        <time>2021-07-25T13:39:54Z</time>
      </trkpt>
      <trkpt lat="39.8822730" lon="3.0141700">
        <ele>45.6</ele>
        <time>2021-07-25T13:39:57Z</time>
      </trkpt>
      <trkpt lat="39.8822300" lon="3.0142010">
        <ele>45.6</ele>
        <time>2021-07-25T13:39:58Z</time>
      </trkpt>
      <trkpt lat="39.8820350" lon="3.0143510">
        <ele>45.8</ele>
        <time>2021-07-25T13:40:03Z</time>
      </trkpt>
      <trkpt lat="39.8819410" lon="3.0144280">
        <ele>46.4</ele>
        <time>2021-07-25T13:40:06Z</time>
      </trkpt>
      <trkpt lat="39.8818780" lon="3.0144770">
        <ele>47.0</ele>
        <time>2021-07-25T13:40:08Z</time>
      </trkpt>
      <trkpt lat="39.8818120" lon="3.0145300">
        <ele>47.6</ele>
        <time>2021-07-25T13:40:10Z</time>
      </trkpt>
      <trkpt lat="39.8817480" lon="3.0145830">
        <ele>47.8</ele>
        <time>2021-07-25T13:40:12Z</time>
      </trkpt>
      <trkpt lat="39.8816670" lon="3.0147230">
        <ele>47.6</ele>
        <time>2021-07-25T13:40:15Z</time>
      </trkpt>
      <trkpt lat="39.8815950" lon="3.0148240">
        <ele>47.4</ele>
        <time>2021-07-25T13:40:17Z</time>
      </trkpt>
      <trkpt lat="39.8815010" lon="3.0149060">
        <ele>46.6</ele>
        <time>2021-07-25T13:40:19Z</time>
      </trkpt>
      <trkpt lat="39.8814520" lon="3.0149450">
        <ele>46.4</ele>
        <time>2021-07-25T13:40:20Z</time>
      </trkpt>
      <trkpt lat="39.8813440" lon="3.0150150">
        <ele>46.0</ele>
        <time>2021-07-25T13:40:22Z</time>
      </trkpt>
      <trkpt lat="39.8812860" lon="3.0150490">
        <ele>45.6</ele>
        <time>2021-07-25T13:40:23Z</time>
      </trkpt>
      <trkpt lat="39.8809910" lon="3.0152140">
        <ele>45.2</ele>
        <time>2021-07-25T13:40:28Z</time>
      </trkpt>
      <trkpt lat="39.8807880" lon="3.0153110">
        <ele>45.4</ele>
        <time>2021-07-25T13:40:32Z</time>
      </trkpt>
      <trkpt lat="39.8807430" lon="3.0153380">
        <ele>45.0</ele>
        <time>2021-07-25T13:40:33Z</time>
      </trkpt>
      <trkpt lat="39.8806060" lon="3.0153890">
        <ele>44.4</ele>
        <time>2021-07-25T13:40:36Z</time>
      </trkpt>
      <trkpt lat="39.8805230" lon="3.0154350">
        <ele>44.4</ele>
        <time>2021-07-25T13:40:38Z</time>
      </trkpt>
      <trkpt lat="39.8802400" lon="3.0156170">
        <ele>44.2</ele>
        <time>2021-07-25T13:40:45Z</time>
      </trkpt>
      <trkpt lat="39.8799820" lon="3.0157820">
        <ele>45.0</ele>
        <time>2021-07-25T13:40:52Z</time>
      </trkpt>
      <trkpt lat="39.8798180" lon="3.0159770">
        <ele>45.2</ele>
        <time>2021-07-25T13:40:56Z</time>
      </trkpt>
      <trkpt lat="39.8797370" lon="3.0160200">
        <ele>45.2</ele>
        <time>2021-07-25T13:40:58Z</time>
      </trkpt>
      <trkpt lat="39.8796140" lon="3.0160710">
        <ele>45.4</ele>
        <time>2021-07-25T13:41:01Z</time>
      </trkpt>
      <trkpt lat="39.8795430" lon="3.0161120">
        <ele>45.2</ele>
        <time>2021-07-25T13:41:03Z</time>
      </trkpt>
      <trkpt lat="39.8794310" lon="3.0161380">
        <ele>45.0</ele>
        <time>2021-07-25T13:41:06Z</time>
      </trkpt>
      <trkpt lat="39.8793870" lon="3.0161290">
        <ele>45.0</ele>
        <time>2021-07-25T13:41:07Z</time>
      </trkpt>
      <trkpt lat="39.8792650" lon="3.0160770">
        <ele>44.6</ele>
        <time>2021-07-25T13:41:10Z</time>
      </trkpt>
      <trkpt lat="39.8792190" lon="3.0160590">
        <ele>44.4</ele>
        <time>2021-07-25T13:41:11Z</time>
      </trkpt>
      <trkpt lat="39.8791310" lon="3.0160250">
        <ele>44.0</ele>
        <time>2021-07-25T13:41:13Z</time>
      </trkpt>
      <trkpt lat="39.8790580" lon="3.0160240">
        <ele>43.6</ele>
        <time>2021-07-25T13:41:15Z</time>
      </trkpt>
      <trkpt lat="39.8788250" lon="3.0160380">
        <ele>44.2</ele>
        <time>2021-07-25T13:41:21Z</time>
      </trkpt>
      <trkpt lat="39.8786900" lon="3.0159420">
        <ele>44.8</ele>
        <time>2021-07-25T13:41:25Z</time>
      </trkpt>
      <trkpt lat="39.8786540" lon="3.0159030">
        <ele>44.8</ele>
        <time>2021-07-25T13:41:26Z</time>
      </trkpt>
      <trkpt lat="39.8784610" lon="3.0156430">
        <ele>43.8</ele>
        <time>2021-07-25T13:41:32Z</time>
      </trkpt>
      <trkpt lat="39.8784030" lon="3.0155570">
        <ele>43.2</ele>
        <time>2021-07-25T13:41:35Z</time>
      </trkpt>
      <trkpt lat="39.8783770" lon="3.0155160">
        <ele>43.2</ele>
        <time>2021-07-25T13:41:36Z</time>
      </trkpt>
      <trkpt lat="39.8783670" lon="3.0155010">
        <ele>43.0</ele>
        <time>2021-07-25T13:41:37Z</time>
      </trkpt>
      <trkpt lat="39.8783680" lon="3.0154730">
        <ele>42.8</ele>
        <time>2021-07-25T13:41:40Z</time>
      </trkpt>
      <trkpt lat="39.8783670" lon="3.0154660">
        <ele>43.0</ele>
        <time>2021-07-25T13:41:41Z</time>
      </trkpt>
      <trkpt lat="39.8784000" lon="3.0152090">
        <ele>46.0</ele>
        <time>2021-07-25T13:41:55Z</time>
      </trkpt>
      <trkpt lat="39.8784130" lon="3.0151190">
        <ele>46.4</ele>
        <time>2021-07-25T13:41:57Z</time>
      </trkpt>
      <trkpt lat="39.8783470" lon="3.0149250">
        <ele>46.4</ele>
        <time>2021-07-25T13:42:01Z</time>
      </trkpt>
      <trkpt lat="39.8783120" lon="3.0147220">
        <ele>47.6</ele>
        <time>2021-07-25T13:42:06Z</time>
      </trkpt>
      <trkpt lat="39.8783050" lon="3.0146830">
        <ele>47.4</ele>
        <time>2021-07-25T13:42:07Z</time>
      </trkpt>
      <trkpt lat="39.8782330" lon="3.0145130">
        <ele>47.0</ele>
        <time>2021-07-25T13:42:13Z</time>
      </trkpt>
      <trkpt lat="39.8781670" lon="3.0144250">
        <ele>46.4</ele>
        <time>2021-07-25T13:42:38Z</time>
      </trkpt>
      <trkpt lat="39.8781540" lon="3.0143870">
        <ele>46.8</ele>
        <time>2021-07-25T13:42:40Z</time>
      </trkpt>
      <trkpt lat="39.8780780" lon="3.0143160">
        <ele>46.8</ele>
        <time>2021-07-25T13:42:43Z</time>
      </trkpt>
      <trkpt lat="39.8779760" lon="3.0142260">
        <ele>45.8</ele>
        <time>2021-07-25T13:42:47Z</time>
      </trkpt>
      <trkpt lat="39.8779630" lon="3.0142380">
        <ele>45.6</ele>
        <time>2021-07-25T13:42:48Z</time>
      </trkpt>
      <trkpt lat="39.8779480" lon="3.0142780">
        <ele>45.2</ele>
        <time>2021-07-25T13:42:50Z</time>
      </trkpt>
      <trkpt lat="39.8779000" lon="3.0144210">
        <ele>44.4</ele>
        <time>2021-07-25T13:42:53Z</time>
      </trkpt>
      <trkpt lat="39.8778750" lon="3.0144650">
        <ele>44.2</ele>
        <time>2021-07-25T13:42:54Z</time>
      </trkpt>
      <trkpt lat="39.8777330" lon="3.0146320">
        <ele>43.4</ele>
        <time>2021-07-25T13:42:58Z</time>
      </trkpt>
      <trkpt lat="39.8776260" lon="3.0147390">
        <ele>42.2</ele>
        <time>2021-07-25T13:43:01Z</time>
      </trkpt>
      <trkpt lat="39.8776080" lon="3.0147630">
        <ele>41.8</ele>
        <time>2021-07-25T13:43:02Z</time>
      </trkpt>
      <trkpt lat="39.8775740" lon="3.0147820">
        <ele>41.4</ele>
        <time>2021-07-25T13:43:04Z</time>
      </trkpt>
      <trkpt lat="39.8775470" lon="3.0147960">
        <ele>41.2</ele>
        <time>2021-07-25T13:43:06Z</time>
      </trkpt>
      <trkpt lat="39.8775360" lon="3.0148060">
        <ele>41.2</ele>
        <time>2021-07-25T13:43:07Z</time>
      </trkpt>
      <trkpt lat="39.8775430" lon="3.0148510">
        <ele>41.0</ele>
        <time>2021-07-25T13:43:09Z</time>
      </trkpt>
      <trkpt lat="39.8775320" lon="3.0149840">
        <ele>41.4</ele>
        <time>2021-07-25T13:43:14Z</time>
      </trkpt>
      <trkpt lat="39.8775520" lon="3.0150440">
        <ele>41.6</ele>
        <time>2021-07-25T13:43:16Z</time>
      </trkpt>
      <trkpt lat="39.8775700" lon="3.0150670">
        <ele>41.4</ele>
        <time>2021-07-25T13:43:17Z</time>
      </trkpt>
      <trkpt lat="39.8776210" lon="3.0151190">
        <ele>40.4</ele>
        <time>2021-07-25T13:43:21Z</time>
      </trkpt>
      <trkpt lat="39.8776570" lon="3.0151520">
        <ele>40.6</ele>
        <time>2021-07-25T13:44:37Z</time>
      </trkpt>
      <trkpt lat="39.8776550" lon="3.0151630">
        <ele>40.4</ele>
        <time>2021-07-25T13:44:38Z</time>
      </trkpt>
      <trkpt lat="39.8776310" lon="3.0151920">
        <ele>40.4</ele>
        <time>2021-07-25T13:44:40Z</time>
      </trkpt>
      <trkpt lat="39.8774780" lon="3.0153840">
        <ele>39.2</ele>
        <time>2021-07-25T13:44:51Z</time>
      </trkpt>
      <trkpt lat="39.8773490" lon="3.0155510">
        <ele>39.0</ele>
        <time>2021-07-25T13:44:57Z</time>
      </trkpt>
      <trkpt lat="39.8772430" lon="3.0156980">
        <ele>38.2</ele>
        <time>2021-07-25T13:45:03Z</time>
      </trkpt>
      <trkpt lat="39.8772340" lon="3.0157000">
        <ele>38.0</ele>
        <time>2021-07-25T13:45:04Z</time>
      </trkpt>
      <trkpt lat="39.8772210" lon="3.0156730">
        <ele>38.6</ele>
        <time>2021-07-25T13:45:07Z</time>
      </trkpt>
      <trkpt lat="39.8772260" lon="3.0156760">
        <ele>38.6</ele>
        <time>2021-07-25T13:45:08Z</time>
      </trkpt>
      <trkpt lat="39.8778720" lon="3.0148700">
        <ele>41.8</ele>
        <time>2021-07-25T13:47:51Z</time>
      </trkpt>
      <trkpt lat="39.8778680" lon="3.0148770">
        <ele>41.8</ele>
        <time>2021-07-25T13:47:52Z</time>
      </trkpt>
      <trkpt lat="39.8778570" lon="3.0148940">
        <ele>42.0</ele>
        <time>2021-07-25T13:47:54Z</time>
      </trkpt>
      <trkpt lat="39.8778450" lon="3.0149080">
        <ele>42.0</ele>
        <time>2021-07-25T13:47:55Z</time>
      </trkpt>
      <trkpt lat="39.8778140" lon="3.0149440">
        <ele>41.8</ele>
        <time>2021-07-25T13:47:57Z</time>
      </trkpt>
      <trkpt lat="39.8777760" lon="3.0149990">
        <ele>41.4</ele>
        <time>2021-07-25T13:47:59Z</time>
      </trkpt>
      <trkpt lat="39.8776690" lon="3.0150800">
        <ele>41.4</ele>
        <time>2021-07-25T13:48:03Z</time>
      </trkpt>
      <trkpt lat="39.8775780" lon="3.0151830">
        <ele>40.4</ele>
        <time>2021-07-25T13:48:06Z</time>
      </trkpt>
      <trkpt lat="39.8775540" lon="3.0152180">
        <ele>39.8</ele>
        <time>2021-07-25T13:48:07Z</time>
      </trkpt>
      <trkpt lat="39.8774230" lon="3.0153800">
        <ele>40.0</ele>
        <time>2021-07-25T13:48:12Z</time>
      </trkpt>
      <trkpt lat="39.8772800" lon="3.0156250">
        <ele>39.2</ele>
        <time>2021-07-25T13:48:19Z</time>
      </trkpt>
      <trkpt lat="39.8772240" lon="3.0156750">
        <ele>38.2</ele>
        <time>2021-07-25T13:48:22Z</time>
      </trkpt>
      <trkpt lat="39.8771790" lon="3.0157120">
        <ele>38.0</ele>
        <time>2021-07-25T13:48:24Z</time>
      </trkpt>
      <trkpt lat="39.8771010" lon="3.0158460">
        <ele>37.6</ele>
        <time>2021-07-25T13:48:28Z</time>
      </trkpt>
      <trkpt lat="39.8771030" lon="3.0158810">
        <ele>37.6</ele>
        <time>2021-07-25T13:48:29Z</time>
      </trkpt>
      <trkpt lat="39.8771250" lon="3.0160120">
        <ele>38.0</ele>
        <time>2021-07-25T13:48:34Z</time>
      </trkpt>
      <trkpt lat="39.8771450" lon="3.0160080">
        <ele>38.0</ele>
        <time>2021-07-25T13:48:35Z</time>
      </trkpt>
      <trkpt lat="39.8771670" lon="3.0160490">
        <ele>37.6</ele>
        <time>2021-07-25T13:48:38Z</time>
      </trkpt>
      <trkpt lat="39.8771660" lon="3.0160760">
        <ele>37.6</ele>
        <time>2021-07-25T13:48:39Z</time>
      </trkpt>
      <trkpt lat="39.8771580" lon="3.0161310">
        <ele>37.6</ele>
        <time>2021-07-25T13:48:42Z</time>
      </trkpt>
      <trkpt lat="39.8771070" lon="3.0162210">
        <ele>37.6</ele>
        <time>2021-07-25T13:48:46Z</time>
      </trkpt>
      <trkpt lat="39.8770460" lon="3.0163150">
        <ele>37.2</ele>
        <time>2021-07-25T13:48:51Z</time>
      </trkpt>
      <trkpt lat="39.8770090" lon="3.0163670">
        <ele>37.2</ele>
        <time>2021-07-25T13:48:54Z</time>
      </trkpt>
      <trkpt lat="39.8769900" lon="3.0163880">
        <ele>37.0</ele>
        <time>2021-07-25T13:48:56Z</time>
      </trkpt>
      <trkpt lat="39.8769840" lon="3.0164060">
        <ele>37.0</ele>
        <time>2021-07-25T13:49:00Z</time>
      </trkpt>
      <trkpt lat="39.8770030" lon="3.0164320">
        <ele>36.8</ele>
        <time>2021-07-25T13:49:07Z</time>
      </trkpt>
      <trkpt lat="39.8769950" lon="3.0164630">
        <ele>37.0</ele>
        <time>2021-07-25T13:49:11Z</time>
      </trkpt>
      <trkpt lat="39.8770590" lon="3.0164420">
        <ele>41.2</ele>
        <time>2021-07-25T14:26:21Z</time>
      </trkpt>
      <trkpt lat="39.8770540" lon="3.0164340">
        <ele>41.2</ele>
        <time>2021-07-25T14:26:22Z</time>
      </trkpt>
      <trkpt lat="39.8770310" lon="3.0164340">
        <ele>41.0</ele>
        <time>2021-07-25T14:26:30Z</time>
      </trkpt>
      <trkpt lat="39.8770300" lon="3.0164320">
        <ele>41.2</ele>
        <time>2021-07-25T14:26:31Z</time>
      </trkpt>
      <trkpt lat="39.8767940" lon="3.0164040">
        <ele>39.4</ele>
        <time>2021-07-25T14:27:02Z</time>
      </trkpt>
      <trkpt lat="39.8767700" lon="3.0163900">
        <ele>39.4</ele>
        <time>2021-07-25T14:27:03Z</time>
      </trkpt>
      <trkpt lat="39.8766830" lon="3.0163260">
        <ele>40.4</ele>
        <time>2021-07-25T14:27:07Z</time>
      </trkpt>
      <trkpt lat="39.8766720" lon="3.0163120">
        <ele>40.4</ele>
        <time>2021-07-25T14:27:08Z</time>
      </trkpt>
      <trkpt lat="39.8766430" lon="3.0162670">
        <ele>40.0</ele>
        <time>2021-07-25T14:27:12Z</time>
      </trkpt>
      <trkpt lat="39.8765800" lon="3.0162570">
        <ele>39.0</ele>
        <time>2021-07-25T14:27:15Z</time>
      </trkpt>
      <trkpt lat="39.8765560" lon="3.0162630">
        <ele>38.6</ele>
        <time>2021-07-25T14:27:16Z</time>
      </trkpt>
      <trkpt lat="39.8764450" lon="3.0163050">
        <ele>39.4</ele>
        <time>2021-07-25T14:27:20Z</time>
      </trkpt>
      <trkpt lat="39.8762480" lon="3.0163670">
        <ele>39.4</ele>
        <time>2021-07-25T14:27:27Z</time>
      </trkpt>
      <trkpt lat="39.8760590" lon="3.0164260">
        <ele>39.0</ele>
        <time>2021-07-25T14:27:34Z</time>
      </trkpt>
      <trkpt lat="39.8758790" lon="3.0164840">
        <ele>39.4</ele>
        <time>2021-07-25T14:27:40Z</time>
      </trkpt>
      <trkpt lat="39.8757740" lon="3.0165730">
        <ele>39.6</ele>
        <time>2021-07-25T14:27:44Z</time>
      </trkpt>
      <trkpt lat="39.8757280" lon="3.0166250">
        <ele>39.8</ele>
        <time>2021-07-25T14:27:46Z</time>
      </trkpt>
      <trkpt lat="39.8755910" lon="3.0167140">
        <ele>39.4</ele>
        <time>2021-07-25T14:27:51Z</time>
      </trkpt>
      <trkpt lat="39.8754330" lon="3.0168230">
        <ele>39.4</ele>
        <time>2021-07-25T14:27:58Z</time>
      </trkpt>
      <trkpt lat="39.8752310" lon="3.0169420">
        <ele>39.8</ele>
        <time>2021-07-25T14:28:05Z</time>
      </trkpt>
      <trkpt lat="39.8750410" lon="3.0170590">
        <ele>40.0</ele>
        <time>2021-07-25T14:28:11Z</time>
      </trkpt>
      <trkpt lat="39.8748600" lon="3.0171740">
        <ele>40.4</ele>
        <time>2021-07-25T14:28:17Z</time>
      </trkpt>
      <trkpt lat="39.8746650" lon="3.0173130">
        <ele>39.8</ele>
        <time>2021-07-25T14:28:24Z</time>
      </trkpt>
      <trkpt lat="39.8746060" lon="3.0174080">
        <ele>40.0</ele>
        <time>2021-07-25T14:28:27Z</time>
      </trkpt>
      <trkpt lat="39.8746080" lon="3.0174470">
        <ele>40.0</ele>
        <time>2021-07-25T14:28:28Z</time>
      </trkpt>
      <trkpt lat="39.8746840" lon="3.0175710">
        <ele>39.8</ele>
        <time>2021-07-25T14:28:32Z</time>
      </trkpt>
      <trkpt lat="39.8747030" lon="3.0176080">
        <ele>39.8</ele>
        <time>2021-07-25T14:28:33Z</time>
      </trkpt>
      <trkpt lat="39.8747910" lon="3.0177900">
        <ele>39.4</ele>
        <time>2021-07-25T14:28:38Z</time>
      </trkpt>
      <trkpt lat="39.8749140" lon="3.0180210">
        <ele>39.0</ele>
        <time>2021-07-25T14:28:44Z</time>
      </trkpt>
      <trkpt lat="39.8750230" lon="3.0182170">
        <ele>39.0</ele>
        <time>2021-07-25T14:28:49Z</time>
      </trkpt>
      <trkpt lat="39.8751600" lon="3.0184660">
        <ele>38.6</ele>
        <time>2021-07-25T14:28:55Z</time>
      </trkpt>
      <trkpt lat="39.8753060" lon="3.0187230">
        <ele>38.2</ele>
        <time>2021-07-25T14:29:01Z</time>
      </trkpt>
      <trkpt lat="39.8753220" lon="3.0187640">
        <ele>38.2</ele>
        <time>2021-07-25T14:29:02Z</time>
      </trkpt>
      <trkpt lat="39.8754010" lon="3.0189210">
        <ele>37.8</ele>
        <time>2021-07-25T14:29:06Z</time>
      </trkpt>
      <trkpt lat="39.8755840" lon="3.0191880">
        <ele>37.6</ele>
        <time>2021-07-25T14:29:13Z</time>
      </trkpt>
      <trkpt lat="39.8756910" lon="3.0193680">
        <ele>37.6</ele>
        <time>2021-07-25T14:29:17Z</time>
      </trkpt>
      <trkpt lat="39.8757590" lon="3.0194710">
        <ele>37.4</ele>
        <time>2021-07-25T14:29:19Z</time>
      </trkpt>
      <trkpt lat="39.8757910" lon="3.0195250">
        <ele>37.4</ele>
        <time>2021-07-25T14:29:20Z</time>
      </trkpt>
      <trkpt lat="39.8758490" lon="3.0196260">
        <ele>37.4</ele>
        <time>2021-07-25T14:29:22Z</time>
      </trkpt>
      <trkpt lat="39.8759050" lon="3.0197200">
        <ele>37.2</ele>
        <time>2021-07-25T14:29:24Z</time>
      </trkpt>
      <trkpt lat="39.8759960" lon="3.0199220">
        <ele>37.0</ele>
        <time>2021-07-25T14:29:28Z</time>
      </trkpt>
      <trkpt lat="39.8759870" lon="3.0199750">
        <ele>37.2</ele>
        <time>2021-07-25T14:29:29Z</time>
      </trkpt>
      <trkpt lat="39.8758940" lon="3.0200880">
        <ele>37.0</ele>
        <time>2021-07-25T14:29:32Z</time>
      </trkpt>
      <trkpt lat="39.8758570" lon="3.0201100">
        <ele>37.0</ele>
        <time>2021-07-25T14:29:33Z</time>
      </trkpt>
      <trkpt lat="39.8757260" lon="3.0202020">
        <ele>36.6</ele>
        <time>2021-07-25T14:29:37Z</time>
      </trkpt>
      <trkpt lat="39.8756380" lon="3.0202660">
        <ele>36.4</ele>
        <time>2021-07-25T14:29:40Z</time>
      </trkpt>
      <trkpt lat="39.8755020" lon="3.0203190">
        <ele>36.6</ele>
        <time>2021-07-25T14:29:45Z</time>
      </trkpt>
      <trkpt lat="39.8754960" lon="3.0203400">
        <ele>36.6</ele>
        <time>2021-07-25T14:29:46Z</time>
      </trkpt>
      <trkpt lat="39.8755240" lon="3.0203680">
        <ele>36.4</ele>
        <time>2021-07-25T14:29:48Z</time>
      </trkpt>
      <trkpt lat="39.8756110" lon="3.0202970">
        <ele>36.2</ele>
        <time>2021-07-25T14:29:52Z</time>
      </trkpt>
      <trkpt lat="39.8756340" lon="3.0202910">
        <ele>36.0</ele>
        <time>2021-07-25T14:29:53Z</time>
      </trkpt>
      <trkpt lat="39.8756660" lon="3.0203510">
        <ele>35.8</ele>
        <time>2021-07-25T14:29:55Z</time>
      </trkpt>
      <trkpt lat="39.8756750" lon="3.0205470">
        <ele>36.0</ele>
        <time>2021-07-25T14:29:59Z</time>
      </trkpt>
      <trkpt lat="39.8756830" lon="3.0205970">
        <ele>35.6</ele>
        <time>2021-07-25T14:30:00Z</time>
      </trkpt>
      <trkpt lat="39.8757030" lon="3.0207420">
        <ele>34.8</ele>
        <time>2021-07-25T14:30:03Z</time>
      </trkpt>
      <trkpt lat="39.8757260" lon="3.0209400">
        <ele>34.8</ele>
        <time>2021-07-25T14:30:07Z</time>
      </trkpt>
      <trkpt lat="39.8757260" lon="3.0210460">
        <ele>35.0</ele>
        <time>2021-07-25T14:30:09Z</time>
      </trkpt>
      <trkpt lat="39.8756780" lon="3.0212010">
        <ele>35.4</ele>
        <time>2021-07-25T14:30:12Z</time>
      </trkpt>
      <trkpt lat="39.8756390" lon="3.0213070">
        <ele>35.8</ele>
        <time>2021-07-25T14:30:14Z</time>
      </trkpt>
      <trkpt lat="39.8756110" lon="3.0214230">
        <ele>35.8</ele>
        <time>2021-07-25T14:30:16Z</time>
      </trkpt>
      <trkpt lat="39.8755940" lon="3.0215390">
        <ele>36.0</ele>
        <time>2021-07-25T14:30:18Z</time>
      </trkpt>
      <trkpt lat="39.8754670" lon="3.0218020">
        <ele>35.4</ele>
        <time>2021-07-25T14:30:23Z</time>
      </trkpt>
      <trkpt lat="39.8752760" lon="3.0220130">
        <ele>35.0</ele>
        <time>2021-07-25T14:30:28Z</time>
      </trkpt>
      <trkpt lat="39.8751990" lon="3.0220880">
        <ele>34.8</ele>
        <time>2021-07-25T14:30:30Z</time>
      </trkpt>
      <trkpt lat="39.8751190" lon="3.0221540">
        <ele>34.4</ele>
        <time>2021-07-25T14:30:32Z</time>
      </trkpt>
      <trkpt lat="39.8749990" lon="3.0222450">
        <ele>34.0</ele>
        <time>2021-07-25T14:30:35Z</time>
      </trkpt>
      <trkpt lat="39.8749130" lon="3.0223080">
        <ele>33.6</ele>
        <time>2021-07-25T14:30:37Z</time>
      </trkpt>
      <trkpt lat="39.8746330" lon="3.0225140">
        <ele>34.0</ele>
        <time>2021-07-25T14:30:43Z</time>
      </trkpt>
      <trkpt lat="39.8744930" lon="3.0226260">
        <ele>34.2</ele>
        <time>2021-07-25T14:30:46Z</time>
      </trkpt>
      <trkpt lat="39.8743560" lon="3.0227510">
        <ele>34.4</ele>
        <time>2021-07-25T14:30:49Z</time>
      </trkpt>
      <trkpt lat="39.8742210" lon="3.0229920">
        <ele>34.0</ele>
        <time>2021-07-25T14:30:53Z</time>
      </trkpt>
      <trkpt lat="39.8741490" lon="3.0232130">
        <ele>33.6</ele>
        <time>2021-07-25T14:30:56Z</time>
      </trkpt>
      <trkpt lat="39.8740780" lon="3.0234420">
        <ele>33.4</ele>
        <time>2021-07-25T14:30:59Z</time>
      </trkpt>
      <trkpt lat="39.8740300" lon="3.0235940">
        <ele>33.0</ele>
        <time>2021-07-25T14:31:01Z</time>
      </trkpt>
      <trkpt lat="39.8739360" lon="3.0238100">
        <ele>32.8</ele>
        <time>2021-07-25T14:31:04Z</time>
      </trkpt>
      <trkpt lat="39.8738610" lon="3.0239430">
        <ele>32.6</ele>
        <time>2021-07-25T14:31:06Z</time>
      </trkpt>
      <trkpt lat="39.8737840" lon="3.0240770">
        <ele>32.6</ele>
        <time>2021-07-25T14:31:08Z</time>
      </trkpt>
      <trkpt lat="39.8737510" lon="3.0241490">
        <ele>32.4</ele>
        <time>2021-07-25T14:31:09Z</time>
      </trkpt>
      <trkpt lat="39.8736880" lon="3.0243010">
        <ele>32.2</ele>
        <time>2021-07-25T14:31:11Z</time>
      </trkpt>
      <trkpt lat="39.8735660" lon="3.0246130">
        <ele>31.8</ele>
        <time>2021-07-25T14:31:15Z</time>
      </trkpt>
      <trkpt lat="39.8733920" lon="3.0250800">
        <ele>31.6</ele>
        <time>2021-07-25T14:31:21Z</time>
      </trkpt>
      <trkpt lat="39.8733470" lon="3.0252370">
        <ele>31.6</ele>
        <time>2021-07-25T14:31:23Z</time>
      </trkpt>
      <trkpt lat="39.8732630" lon="3.0254600">
        <ele>31.4</ele>
        <time>2021-07-25T14:31:26Z</time>
      </trkpt>
      <trkpt lat="39.8732370" lon="3.0255320">
        <ele>31.4</ele>
        <time>2021-07-25T14:31:27Z</time>
      </trkpt>
      <trkpt lat="39.8730810" lon="3.0259510">
        <ele>31.2</ele>
        <time>2021-07-25T14:31:33Z</time>
      </trkpt>
      <trkpt lat="39.8729360" lon="3.0264680">
        <ele>31.4</ele>
        <time>2021-07-25T14:31:40Z</time>
      </trkpt>
      <trkpt lat="39.8728670" lon="3.0269650">
        <ele>30.8</ele>
        <time>2021-07-25T14:31:46Z</time>
      </trkpt>
      <trkpt lat="39.8728330" lon="3.0275010">
        <ele>30.4</ele>
        <time>2021-07-25T14:31:52Z</time>
      </trkpt>
      <trkpt lat="39.8727390" lon="3.0280440">
        <ele>30.0</ele>
        <time>2021-07-25T14:31:58Z</time>
      </trkpt>
      <trkpt lat="39.8726320" lon="3.0283810">
        <ele>29.4</ele>
        <time>2021-07-25T14:32:02Z</time>
      </trkpt>
      <trkpt lat="39.8725660" lon="3.0285370">
        <ele>29.2</ele>
        <time>2021-07-25T14:32:04Z</time>
      </trkpt>
      <trkpt lat="39.8723930" lon="3.0289900">
        <ele>29.0</ele>
        <time>2021-07-25T14:32:10Z</time>
      </trkpt>
      <trkpt lat="39.8721580" lon="3.0295750">
        <ele>28.6</ele>
        <time>2021-07-25T14:32:18Z</time>
      </trkpt>
      <trkpt lat="39.8720720" lon="3.0298080">
        <ele>28.4</ele>
        <time>2021-07-25T14:32:21Z</time>
      </trkpt>
      <trkpt lat="39.8719870" lon="3.0300450">
        <ele>28.0</ele>
        <time>2021-07-25T14:32:24Z</time>
      </trkpt>
      <trkpt lat="39.8717610" lon="3.0305960">
        <ele>27.2</ele>
        <time>2021-07-25T14:32:31Z</time>
      </trkpt>
      <trkpt lat="39.8717290" lon="3.0306790">
        <ele>27.0</ele>
        <time>2021-07-25T14:32:32Z</time>
      </trkpt>
      <trkpt lat="39.8716840" lon="3.0308560">
        <ele>26.6</ele>
        <time>2021-07-25T14:32:34Z</time>
      </trkpt>
      <trkpt lat="39.8716750" lon="3.0310510">
        <ele>26.4</ele>
        <time>2021-07-25T14:32:36Z</time>
      </trkpt>
      <trkpt lat="39.8716840" lon="3.0311540">
        <ele>26.2</ele>
        <time>2021-07-25T14:32:37Z</time>
      </trkpt>
      <trkpt lat="39.8716960" lon="3.0312600">
        <ele>26.0</ele>
        <time>2021-07-25T14:32:38Z</time>
      </trkpt>
      <trkpt lat="39.8717110" lon="3.0315910">
        <ele>25.4</ele>
        <time>2021-07-25T14:32:41Z</time>
      </trkpt>
      <trkpt lat="39.8716440" lon="3.0319230">
        <ele>24.4</ele>
        <time>2021-07-25T14:32:44Z</time>
      </trkpt>
      <trkpt lat="39.8716100" lon="3.0320290">
        <ele>23.8</ele>
        <time>2021-07-25T14:32:45Z</time>
      </trkpt>
      <trkpt lat="39.8715410" lon="3.0322390">
        <ele>23.0</ele>
        <time>2021-07-25T14:32:47Z</time>
      </trkpt>
      <trkpt lat="39.8713630" lon="3.0327430">
        <ele>22.2</ele>
        <time>2021-07-25T14:32:52Z</time>
      </trkpt>
      <trkpt lat="39.8712410" lon="3.0331100">
        <ele>22.0</ele>
        <time>2021-07-25T14:32:56Z</time>
      </trkpt>
      <trkpt lat="39.8711760" lon="3.0332750">
        <ele>22.2</ele>
        <time>2021-07-25T14:32:58Z</time>
      </trkpt>
      <trkpt lat="39.8709730" lon="3.0338250">
        <ele>22.4</ele>
        <time>2021-07-25T14:33:05Z</time>
      </trkpt>
      <trkpt lat="39.8707640" lon="3.0344530">
        <ele>22.6</ele>
        <time>2021-07-25T14:33:13Z</time>
      </trkpt>
      <trkpt lat="39.8705840" lon="3.0349040">
        <ele>22.4</ele>
        <time>2021-07-25T14:33:19Z</time>
      </trkpt>
      <trkpt lat="39.8703790" lon="3.0354130">
        <ele>22.4</ele>
        <time>2021-07-25T14:33:26Z</time>
      </trkpt>
      <trkpt lat="39.8702950" lon="3.0356330">
        <ele>22.2</ele>
        <time>2021-07-25T14:33:29Z</time>
      </trkpt>
      <trkpt lat="39.8702290" lon="3.0358560">
        <ele>22.2</ele>
        <time>2021-07-25T14:33:32Z</time>
      </trkpt>
      <trkpt lat="39.8701070" lon="3.0363720">
        <ele>22.6</ele>
        <time>2021-07-25T14:33:39Z</time>
      </trkpt>
      <trkpt lat="39.8699560" lon="3.0370250">
        <ele>21.4</ele>
        <time>2021-07-25T14:33:47Z</time>
      </trkpt>
      <trkpt lat="39.8699380" lon="3.0371080">
        <ele>21.2</ele>
        <time>2021-07-25T14:33:48Z</time>
      </trkpt>
      <trkpt lat="39.8697750" lon="3.0378060">
        <ele>21.8</ele>
        <time>2021-07-25T14:33:57Z</time>
      </trkpt>
      <trkpt lat="39.8697160" lon="3.0380210">
        <ele>22.4</ele>
        <time>2021-07-25T14:34:00Z</time>
      </trkpt>
      <trkpt lat="39.8696230" lon="3.0382100">
        <ele>22.6</ele>
        <time>2021-07-25T14:34:03Z</time>
      </trkpt>
      <trkpt lat="39.8693820" lon="3.0385070">
        <ele>23.0</ele>
        <time>2021-07-25T14:34:09Z</time>
      </trkpt>
      <trkpt lat="39.8690940" lon="3.0389050">
        <ele>23.2</ele>
        <time>2021-07-25T14:34:17Z</time>
      </trkpt>
      <trkpt lat="39.8689050" lon="3.0392180">
        <ele>23.8</ele>
        <time>2021-07-25T14:34:23Z</time>
      </trkpt>
      <trkpt lat="39.8688220" lon="3.0393600">
        <ele>24.2</ele>
        <time>2021-07-25T14:34:26Z</time>
      </trkpt>
      <trkpt lat="39.8686860" lon="3.0395710">
        <ele>24.8</ele>
        <time>2021-07-25T14:34:31Z</time>
      </trkpt>
      <trkpt lat="39.8686610" lon="3.0396120">
        <ele>25.0</ele>
        <time>2021-07-25T14:34:32Z</time>
      </trkpt>
      <trkpt lat="39.8685280" lon="3.0397970">
        <ele>26.0</ele>
        <time>2021-07-25T14:34:37Z</time>
      </trkpt>
      <trkpt lat="39.8684970" lon="3.0398230">
        <ele>26.2</ele>
        <time>2021-07-25T14:34:38Z</time>
      </trkpt>
      <trkpt lat="39.8682960" lon="3.0398820">
        <ele>27.2</ele>
        <time>2021-07-25T14:34:44Z</time>
      </trkpt>
      <trkpt lat="39.8681460" lon="3.0399180">
        <ele>28.2</ele>
        <time>2021-07-25T14:34:48Z</time>
      </trkpt>
      <trkpt lat="39.8680670" lon="3.0399350">
        <ele>28.6</ele>
        <time>2021-07-25T14:34:50Z</time>
      </trkpt>
      <trkpt lat="39.8678720" lon="3.0399950">
        <ele>29.4</ele>
        <time>2021-07-25T14:34:55Z</time>
      </trkpt>
      <trkpt lat="39.8677640" lon="3.0400460">
        <ele>30.2</ele>
        <time>2021-07-25T14:34:58Z</time>
      </trkpt>
      <trkpt lat="39.8677310" lon="3.0400700">
        <ele>30.4</ele>
        <time>2021-07-25T14:34:59Z</time>
      </trkpt>
      <trkpt lat="39.8675750" lon="3.0402230">
        <ele>31.0</ele>
        <time>2021-07-25T14:35:04Z</time>
      </trkpt>
      <trkpt lat="39.8674450" lon="3.0403630">
        <ele>31.6</ele>
        <time>2021-07-25T14:35:08Z</time>
      </trkpt>
      <trkpt lat="39.8673120" lon="3.0404960">
        <ele>32.2</ele>
        <time>2021-07-25T14:35:12Z</time>
      </trkpt>
      <trkpt lat="39.8671790" lon="3.0406310">
        <ele>32.8</ele>
        <time>2021-07-25T14:35:16Z</time>
      </trkpt>
      <trkpt lat="39.8669560" lon="3.0408750">
        <ele>33.8</ele>
        <time>2021-07-25T14:35:23Z</time>
      </trkpt>
      <trkpt lat="39.8669240" lon="3.0409100">
        <ele>34.0</ele>
        <time>2021-07-25T14:35:24Z</time>
      </trkpt>
      <trkpt lat="39.8666890" lon="3.0411320">
        <ele>34.8</ele>
        <time>2021-07-25T14:35:31Z</time>
      </trkpt>
      <trkpt lat="39.8666550" lon="3.0411630">
        <ele>35.0</ele>
        <time>2021-07-25T14:35:32Z</time>
      </trkpt>
      <trkpt lat="39.8663570" lon="3.0414770">
        <ele>35.8</ele>
        <time>2021-07-25T14:35:41Z</time>
      </trkpt>
      <trkpt lat="39.8660800" lon="3.0417510">
        <ele>35.4</ele>
        <time>2021-07-25T14:35:47Z</time>
      </trkpt>
      <trkpt lat="39.8658680" lon="3.0419630">
        <ele>34.6</ele>
        <time>2021-07-25T14:35:51Z</time>
      </trkpt>
      <trkpt lat="39.8657130" lon="3.0421290">
        <ele>33.8</ele>
        <time>2021-07-25T14:35:54Z</time>
      </trkpt>
      <trkpt lat="39.8653580" lon="3.0425140">
        <ele>33.6</ele>
        <time>2021-07-25T14:36:01Z</time>
      </trkpt>
      <trkpt lat="39.8650590" lon="3.0428790">
        <ele>34.4</ele>
        <time>2021-07-25T14:36:08Z</time>
      </trkpt>
      <trkpt lat="39.8647420" lon="3.0432560">
        <ele>34.8</ele>
        <time>2021-07-25T14:36:16Z</time>
      </trkpt>
      <trkpt lat="39.8646630" lon="3.0433520">
        <ele>35.0</ele>
        <time>2021-07-25T14:36:18Z</time>
      </trkpt>
      <trkpt lat="39.8645150" lon="3.0435280">
        <ele>36.2</ele>
        <time>2021-07-25T14:36:22Z</time>
      </trkpt>
      <trkpt lat="39.8644400" lon="3.0436100">
        <ele>36.6</ele>
        <time>2021-07-25T14:36:24Z</time>
      </trkpt>
      <trkpt lat="39.8642410" lon="3.0438070">
        <ele>37.6</ele>
        <time>2021-07-25T14:36:29Z</time>
      </trkpt>
      <trkpt lat="39.8641610" lon="3.0438860">
        <ele>37.8</ele>
        <time>2021-07-25T14:36:31Z</time>
      </trkpt>
      <trkpt lat="39.8639380" lon="3.0441130">
        <ele>38.2</ele>
        <time>2021-07-25T14:36:37Z</time>
      </trkpt>
      <trkpt lat="39.8637000" lon="3.0444210">
        <ele>38.0</ele>
        <time>2021-07-25T14:36:43Z</time>
      </trkpt>
      <trkpt lat="39.8634460" lon="3.0447860">
        <ele>36.0</ele>
        <time>2021-07-25T14:36:48Z</time>
      </trkpt>
      <trkpt lat="39.8633900" lon="3.0448660">
        <ele>35.8</ele>
        <time>2021-07-25T14:36:49Z</time>
      </trkpt>
      <trkpt lat="39.8632190" lon="3.0451110">
        <ele>34.8</ele>
        <time>2021-07-25T14:36:52Z</time>
      </trkpt>
      <trkpt lat="39.8630480" lon="3.0453660">
        <ele>33.8</ele>
        <time>2021-07-25T14:36:55Z</time>
      </trkpt>
      <trkpt lat="39.8629390" lon="3.0455470">
        <ele>32.4</ele>
        <time>2021-07-25T14:36:57Z</time>
      </trkpt>
      <trkpt lat="39.8628260" lon="3.0457330">
        <ele>31.2</ele>
        <time>2021-07-25T14:36:59Z</time>
      </trkpt>
      <trkpt lat="39.8626080" lon="3.0461110">
        <ele>30.2</ele>
        <time>2021-07-25T14:37:03Z</time>
      </trkpt>
      <trkpt lat="39.8624960" lon="3.0462870">
        <ele>29.8</ele>
        <time>2021-07-25T14:37:05Z</time>
      </trkpt>
      <trkpt lat="39.8623820" lon="3.0464530">
        <ele>28.6</ele>
        <time>2021-07-25T14:37:07Z</time>
      </trkpt>
      <trkpt lat="39.8623150" lon="3.0465270">
        <ele>28.4</ele>
        <time>2021-07-25T14:37:08Z</time>
      </trkpt>
      <trkpt lat="39.8622410" lon="3.0465910">
        <ele>28.2</ele>
        <time>2021-07-25T14:37:09Z</time>
      </trkpt>
      <trkpt lat="39.8620210" lon="3.0467860">
        <ele>27.2</ele>
        <time>2021-07-25T14:37:12Z</time>
      </trkpt>
      <trkpt lat="39.8618950" lon="3.0469520">
        <ele>26.6</ele>
        <time>2021-07-25T14:37:14Z</time>
      </trkpt>
      <trkpt lat="39.8617130" lon="3.0472140">
        <ele>26.0</ele>
        <time>2021-07-25T14:37:17Z</time>
      </trkpt>
      <trkpt lat="39.8615320" lon="3.0474750">
        <ele>24.8</ele>
        <time>2021-07-25T14:37:20Z</time>
      </trkpt>
      <trkpt lat="39.8613530" lon="3.0477320">
        <ele>23.8</ele>
        <time>2021-07-25T14:37:23Z</time>
      </trkpt>
      <trkpt lat="39.8612330" lon="3.0479010">
        <ele>23.0</ele>
        <time>2021-07-25T14:37:25Z</time>
      </trkpt>
      <trkpt lat="39.8611160" lon="3.0480710">
        <ele>23.0</ele>
        <time>2021-07-25T14:37:27Z</time>
      </trkpt>
      <trkpt lat="39.8609420" lon="3.0483180">
        <ele>21.6</ele>
        <time>2021-07-25T14:37:30Z</time>
      </trkpt>
      <trkpt lat="39.8608280" lon="3.0484840">
        <ele>20.6</ele>
        <time>2021-07-25T14:37:32Z</time>
      </trkpt>
      <trkpt lat="39.8607700" lon="3.0485650">
        <ele>20.2</ele>
        <time>2021-07-25T14:37:33Z</time>
      </trkpt>
      <trkpt lat="39.8605940" lon="3.0488090">
        <ele>19.0</ele>
        <time>2021-07-25T14:37:36Z</time>
      </trkpt>
      <trkpt lat="39.8602940" lon="3.0492020">
        <ele>18.0</ele>
        <time>2021-07-25T14:37:41Z</time>
      </trkpt>
      <trkpt lat="39.8602330" lon="3.0492750">
        <ele>17.8</ele>
        <time>2021-07-25T14:37:42Z</time>
      </trkpt>
      <trkpt lat="39.8601170" lon="3.0494260">
        <ele>16.8</ele>
        <time>2021-07-25T14:37:44Z</time>
      </trkpt>
      <trkpt lat="39.8598920" lon="3.0497270">
        <ele>15.8</ele>
        <time>2021-07-25T14:37:48Z</time>
      </trkpt>
      <trkpt lat="39.8595770" lon="3.0501410">
        <ele>15.6</ele>
        <time>2021-07-25T14:37:54Z</time>
      </trkpt>
      <trkpt lat="39.8595230" lon="3.0502070">
        <ele>15.6</ele>
        <time>2021-07-25T14:37:55Z</time>
      </trkpt>
      <trkpt lat="39.8591230" lon="3.0507160">
        <ele>15.0</ele>
        <time>2021-07-25T14:38:03Z</time>
      </trkpt>
      <trkpt lat="39.8590730" lon="3.0507730">
        <ele>15.0</ele>
        <time>2021-07-25T14:38:04Z</time>
      </trkpt>
      <trkpt lat="39.8588640" lon="3.0510570">
        <ele>15.8</ele>
        <time>2021-07-25T14:38:09Z</time>
      </trkpt>
      <trkpt lat="39.8588240" lon="3.0511050">
        <ele>15.8</ele>
        <time>2021-07-25T14:38:10Z</time>
      </trkpt>
      <trkpt lat="39.8586690" lon="3.0513020">
        <ele>16.0</ele>
        <time>2021-07-25T14:38:14Z</time>
      </trkpt>
      <trkpt lat="39.8584720" lon="3.0515560">
        <ele>16.8</ele>
        <time>2021-07-25T14:38:19Z</time>
      </trkpt>
      <trkpt lat="39.8583420" lon="3.0517170">
        <ele>17.0</ele>
        <time>2021-07-25T14:38:22Z</time>
      </trkpt>
      <trkpt lat="39.8580520" lon="3.0520770">
        <ele>16.2</ele>
        <time>2021-07-25T14:38:28Z</time>
      </trkpt>
      <trkpt lat="39.8577640" lon="3.0524590">
        <ele>15.8</ele>
        <time>2021-07-25T14:38:34Z</time>
      </trkpt>
      <trkpt lat="39.8577170" lon="3.0525160">
        <ele>15.8</ele>
        <time>2021-07-25T14:38:35Z</time>
      </trkpt>
      <trkpt lat="39.8573420" lon="3.0529950">
        <ele>16.2</ele>
        <time>2021-07-25T14:38:44Z</time>
      </trkpt>
      <trkpt lat="39.8572780" lon="3.0530860">
        <ele>16.4</ele>
        <time>2021-07-25T14:38:46Z</time>
      </trkpt>
      <trkpt lat="39.8572070" lon="3.0532270">
        <ele>17.0</ele>
        <time>2021-07-25T14:38:49Z</time>
      </trkpt>
      <trkpt lat="39.8571860" lon="3.0532750">
        <ele>17.4</ele>
        <time>2021-07-25T14:38:50Z</time>
      </trkpt>
      <trkpt lat="39.8571690" lon="3.0533250">
        <ele>17.8</ele>
        <time>2021-07-25T14:38:51Z</time>
      </trkpt>
      <trkpt lat="39.8571350" lon="3.0534250">
        <ele>18.2</ele>
        <time>2021-07-25T14:38:53Z</time>
      </trkpt>
      <trkpt lat="39.8571090" lon="3.0535260">
        <ele>18.4</ele>
        <time>2021-07-25T14:38:55Z</time>
      </trkpt>
      <trkpt lat="39.8570820" lon="3.0536870">
        <ele>19.4</ele>
        <time>2021-07-25T14:38:58Z</time>
      </trkpt>
      <trkpt lat="39.8570670" lon="3.0538130">
        <ele>19.6</ele>
        <time>2021-07-25T14:39:00Z</time>
      </trkpt>
      <trkpt lat="39.8570620" lon="3.0538820">
        <ele>19.6</ele>
        <time>2021-07-25T14:39:01Z</time>
      </trkpt>
      <trkpt lat="39.8569900" lon="3.0542430">
        <ele>19.0</ele>
        <time>2021-07-25T14:39:06Z</time>
      </trkpt>
      <trkpt lat="39.8569190" lon="3.0544890">
        <ele>18.4</ele>
        <time>2021-07-25T14:39:09Z</time>
      </trkpt>
      <trkpt lat="39.8568850" lon="3.0545710">
        <ele>18.0</ele>
        <time>2021-07-25T14:39:10Z</time>
      </trkpt>
      <trkpt lat="39.8568450" lon="3.0546500">
        <ele>17.6</ele>
        <time>2021-07-25T14:39:11Z</time>
      </trkpt>
      <trkpt lat="39.8568020" lon="3.0547250">
        <ele>17.0</ele>
        <time>2021-07-25T14:39:12Z</time>
      </trkpt>
      <trkpt lat="39.8564980" lon="3.0552390">
        <ele>16.4</ele>
        <time>2021-07-25T14:39:19Z</time>
      </trkpt>
      <trkpt lat="39.8563210" lon="3.0555140">
        <ele>16.2</ele>
        <time>2021-07-25T14:39:23Z</time>
      </trkpt>
      <trkpt lat="39.8561010" lon="3.0558350">
        <ele>16.2</ele>
        <time>2021-07-25T14:39:28Z</time>
      </trkpt>
      <trkpt lat="39.8557940" lon="3.0563130">
        <ele>15.4</ele>
        <time>2021-07-25T14:39:35Z</time>
      </trkpt>
      <trkpt lat="39.8557500" lon="3.0563830">
        <ele>15.0</ele>
        <time>2021-07-25T14:39:36Z</time>
      </trkpt>
      <trkpt lat="39.8555220" lon="3.0567390">
        <ele>15.0</ele>
        <time>2021-07-25T14:39:41Z</time>
      </trkpt>
      <trkpt lat="39.8552250" lon="3.0572110">
        <ele>14.4</ele>
        <time>2021-07-25T14:39:48Z</time>
      </trkpt>
      <trkpt lat="39.8550550" lon="3.0574730">
        <ele>14.2</ele>
        <time>2021-07-25T14:39:52Z</time>
      </trkpt>
      <trkpt lat="39.8549270" lon="3.0576790">
        <ele>14.2</ele>
        <time>2021-07-25T14:39:55Z</time>
      </trkpt>
      <trkpt lat="39.8547200" lon="3.0580110">
        <ele>14.0</ele>
        <time>2021-07-25T14:40:00Z</time>
      </trkpt>
      <trkpt lat="39.8544250" lon="3.0584730">
        <ele>13.8</ele>
        <time>2021-07-25T14:40:07Z</time>
      </trkpt>
      <trkpt lat="39.8541020" lon="3.0589840">
        <ele>13.4</ele>
        <time>2021-07-25T14:40:15Z</time>
      </trkpt>
      <trkpt lat="39.8539770" lon="3.0591810">
        <ele>13.2</ele>
        <time>2021-07-25T14:40:18Z</time>
      </trkpt>
      <trkpt lat="39.8538460" lon="3.0593780">
        <ele>13.2</ele>
        <time>2021-07-25T14:40:21Z</time>
      </trkpt>
      <trkpt lat="39.8534630" lon="3.0599710">
        <ele>13.2</ele>
        <time>2021-07-25T14:40:30Z</time>
      </trkpt>
      <trkpt lat="39.8534140" lon="3.0600280">
        <ele>13.0</ele>
        <time>2021-07-25T14:40:31Z</time>
      </trkpt>
      <trkpt lat="39.8532490" lon="3.0601240">
        <ele>13.2</ele>
        <time>2021-07-25T14:40:34Z</time>
      </trkpt>
      <trkpt lat="39.8530900" lon="3.0602070">
        <ele>13.4</ele>
        <time>2021-07-25T14:40:37Z</time>
      </trkpt>
      <trkpt lat="39.8530270" lon="3.0603340">
        <ele>13.4</ele>
        <time>2021-07-25T14:40:39Z</time>
      </trkpt>
      <trkpt lat="39.8530080" lon="3.0604980">
        <ele>13.2</ele>
        <time>2021-07-25T14:40:41Z</time>
      </trkpt>
      <trkpt lat="39.8529890" lon="3.0606690">
        <ele>12.6</ele>
        <time>2021-07-25T14:40:43Z</time>
      </trkpt>
      <trkpt lat="39.8529370" lon="3.0609280">
        <ele>12.4</ele>
        <time>2021-07-25T14:40:46Z</time>
      </trkpt>
      <trkpt lat="39.8528720" lon="3.0611820">
        <ele>12.2</ele>
        <time>2021-07-25T14:40:49Z</time>
      </trkpt>
      <trkpt lat="39.8527220" lon="3.0618190">
        <ele>11.6</ele>
        <time>2021-07-25T14:40:57Z</time>
      </trkpt>
      <trkpt lat="39.8525760" lon="3.0624150">
        <ele>11.6</ele>
        <time>2021-07-25T14:41:05Z</time>
      </trkpt>
      <trkpt lat="39.8525580" lon="3.0624890">
        <ele>11.4</ele>
        <time>2021-07-25T14:41:06Z</time>
      </trkpt>
      <trkpt lat="39.8524300" lon="3.0630050">
        <ele>10.4</ele>
        <time>2021-07-25T14:41:13Z</time>
      </trkpt>
      <trkpt lat="39.8524120" lon="3.0630790">
        <ele>10.4</ele>
        <time>2021-07-25T14:41:14Z</time>
      </trkpt>
      <trkpt lat="39.8522350" lon="3.0638230">
        <ele>10.6</ele>
        <time>2021-07-25T14:41:24Z</time>
      </trkpt>
      <trkpt lat="39.8520740" lon="3.0645100">
        <ele>10.4</ele>
        <time>2021-07-25T14:41:33Z</time>
      </trkpt>
      <trkpt lat="39.8519090" lon="3.0651840">
        <ele>10.2</ele>
        <time>2021-07-25T14:41:42Z</time>
      </trkpt>
      <trkpt lat="39.8517610" lon="3.0657850">
        <ele>9.6</ele>
        <time>2021-07-25T14:41:50Z</time>
      </trkpt>
      <trkpt lat="39.8516170" lon="3.0663780">
        <ele>9.6</ele>
        <time>2021-07-25T14:41:58Z</time>
      </trkpt>
      <trkpt lat="39.8514730" lon="3.0669530">
        <ele>9.6</ele>
        <time>2021-07-25T14:42:06Z</time>
      </trkpt>
      <trkpt lat="39.8513350" lon="3.0675110">
        <ele>9.2</ele>
        <time>2021-07-25T14:42:14Z</time>
      </trkpt>
      <trkpt lat="39.8511870" lon="3.0681120">
        <ele>10.0</ele>
        <time>2021-07-25T14:42:23Z</time>
      </trkpt>
      <trkpt lat="39.8510580" lon="3.0686100">
        <ele>10.2</ele>
        <time>2021-07-25T14:42:30Z</time>
      </trkpt>
      <trkpt lat="39.8508910" lon="3.0690260">
        <ele>9.6</ele>
        <time>2021-07-25T14:42:36Z</time>
      </trkpt>
      <trkpt lat="39.8506680" lon="3.0695040">
        <ele>9.6</ele>
        <time>2021-07-25T14:42:43Z</time>
      </trkpt>
      <trkpt lat="39.8503820" lon="3.0701180">
        <ele>9.2</ele>
        <time>2021-07-25T14:42:52Z</time>
      </trkpt>
      <trkpt lat="39.8503510" lon="3.0701830">
        <ele>9.0</ele>
        <time>2021-07-25T14:42:53Z</time>
      </trkpt>
      <trkpt lat="39.8503210" lon="3.0702470">
        <ele>9.0</ele>
        <time>2021-07-25T14:42:54Z</time>
      </trkpt>
      <trkpt lat="39.8500530" lon="3.0708240">
        <ele>9.8</ele>
        <time>2021-07-25T14:43:03Z</time>
      </trkpt>
      <trkpt lat="39.8500240" lon="3.0708850">
        <ele>9.8</ele>
        <time>2021-07-25T14:43:04Z</time>
      </trkpt>
      <trkpt lat="39.8499320" lon="3.0710660">
        <ele>10.0</ele>
        <time>2021-07-25T14:43:07Z</time>
      </trkpt>
      <trkpt lat="39.8498660" lon="3.0711820">
        <ele>10.4</ele>
        <time>2021-07-25T14:43:09Z</time>
      </trkpt>
      <trkpt lat="39.8495900" lon="3.0715760">
        <ele>10.4</ele>
        <time>2021-07-25T14:43:16Z</time>
      </trkpt>
      <trkpt lat="39.8492920" lon="3.0719900">
        <ele>9.2</ele>
        <time>2021-07-25T14:43:22Z</time>
      </trkpt>
      <trkpt lat="39.8492400" lon="3.0720610">
        <ele>9.0</ele>
        <time>2021-07-25T14:43:23Z</time>
      </trkpt>
      <trkpt lat="39.8490420" lon="3.0723370">
        <ele>8.0</ele>
        <time>2021-07-25T14:43:27Z</time>
      </trkpt>
      <trkpt lat="39.8489450" lon="3.0724790">
        <ele>8.2</ele>
        <time>2021-07-25T14:43:29Z</time>
      </trkpt>
      <trkpt lat="39.8485630" lon="3.0730010">
        <ele>8.2</ele>
        <time>2021-07-25T14:43:37Z</time>
      </trkpt>
      <trkpt lat="39.8481530" lon="3.0735660">
        <ele>8.4</ele>
        <time>2021-07-25T14:43:46Z</time>
      </trkpt>
      <trkpt lat="39.8477680" lon="3.0741000">
        <ele>7.8</ele>
        <time>2021-07-25T14:43:55Z</time>
      </trkpt>
      <trkpt lat="39.8474440" lon="3.0745500">
        <ele>9.0</ele>
        <time>2021-07-25T14:44:03Z</time>
      </trkpt>
      <trkpt lat="39.8473310" lon="3.0747040">
        <ele>9.2</ele>
        <time>2021-07-25T14:44:06Z</time>
      </trkpt>
      <trkpt lat="39.8471800" lon="3.0749110">
        <ele>9.4</ele>
        <time>2021-07-25T14:44:10Z</time>
      </trkpt>
      <trkpt lat="39.8469100" lon="3.0753060">
        <ele>8.8</ele>
        <time>2021-07-25T14:44:17Z</time>
      </trkpt>
      <trkpt lat="39.8466480" lon="3.0756590">
        <ele>8.6</ele>
        <time>2021-07-25T14:44:23Z</time>
      </trkpt>
      <trkpt lat="39.8463630" lon="3.0760530">
        <ele>9.0</ele>
        <time>2021-07-25T14:44:30Z</time>
      </trkpt>
      <trkpt lat="39.8460440" lon="3.0764800">
        <ele>9.6</ele>
        <time>2021-07-25T14:44:38Z</time>
      </trkpt>
      <trkpt lat="39.8458580" lon="3.0767360">
        <ele>10.0</ele>
        <time>2021-07-25T14:44:43Z</time>
      </trkpt>
      <trkpt lat="39.8455860" lon="3.0771170">
        <ele>10.0</ele>
        <time>2021-07-25T14:44:50Z</time>
      </trkpt>
      <trkpt lat="39.8452030" lon="3.0776530">
        <ele>10.6</ele>
        <time>2021-07-25T14:45:00Z</time>
      </trkpt>
      <trkpt lat="39.8451650" lon="3.0777040">
        <ele>10.6</ele>
        <time>2021-07-25T14:45:01Z</time>
      </trkpt>
      <trkpt lat="39.8451260" lon="3.0777550">
        <ele>10.6</ele>
        <time>2021-07-25T14:45:02Z</time>
      </trkpt>
      <trkpt lat="39.8449060" lon="3.0780630">
        <ele>11.8</ele>
        <time>2021-07-25T14:45:08Z</time>
      </trkpt>
      <trkpt lat="39.8447980" lon="3.0782200">
        <ele>12.2</ele>
        <time>2021-07-25T14:45:11Z</time>
      </trkpt>
      <trkpt lat="39.8446540" lon="3.0784150">
        <ele>12.8</ele>
        <time>2021-07-25T14:45:15Z</time>
      </trkpt>
      <trkpt lat="39.8445410" lon="3.0785520">
        <ele>12.8</ele>
        <time>2021-07-25T14:45:18Z</time>
      </trkpt>
      <trkpt lat="39.8441620" lon="3.0789800">
        <ele>13.6</ele>
        <time>2021-07-25T14:45:28Z</time>
      </trkpt>
      <trkpt lat="39.8440460" lon="3.0791110">
        <ele>14.0</ele>
        <time>2021-07-25T14:45:31Z</time>
      </trkpt>
      <trkpt lat="39.8437800" lon="3.0794140">
        <ele>14.6</ele>
        <time>2021-07-25T14:45:38Z</time>
      </trkpt>
      <trkpt lat="39.8436670" lon="3.0795400">
        <ele>15.0</ele>
        <time>2021-07-25T14:45:41Z</time>
      </trkpt>
      <trkpt lat="39.8434780" lon="3.0797600">
        <ele>15.6</ele>
        <time>2021-07-25T14:45:46Z</time>
      </trkpt>
      <trkpt lat="39.8432820" lon="3.0799790">
        <ele>16.2</ele>
        <time>2021-07-25T14:45:51Z</time>
      </trkpt>
      <trkpt lat="39.8431590" lon="3.0801010">
        <ele>16.2</ele>
        <time>2021-07-25T14:45:54Z</time>
      </trkpt>
      <trkpt lat="39.8431200" lon="3.0801450">
        <ele>16.4</ele>
        <time>2021-07-25T14:45:55Z</time>
      </trkpt>
      <trkpt lat="39.8429220" lon="3.0803670">
        <ele>17.0</ele>
        <time>2021-07-25T14:46:00Z</time>
      </trkpt>
      <trkpt lat="39.8426980" lon="3.0806280">
        <ele>17.2</ele>
        <time>2021-07-25T14:46:06Z</time>
      </trkpt>
      <trkpt lat="39.8426230" lon="3.0807130">
        <ele>17.6</ele>
        <time>2021-07-25T14:46:08Z</time>
      </trkpt>
      <trkpt lat="39.8425870" lon="3.0807590">
        <ele>17.6</ele>
        <time>2021-07-25T14:46:09Z</time>
      </trkpt>
      <trkpt lat="39.8424320" lon="3.0809280">
        <ele>18.2</ele>
        <time>2021-07-25T14:46:13Z</time>
      </trkpt>
      <trkpt lat="39.8422390" lon="3.0811460">
        <ele>18.8</ele>
        <time>2021-07-25T14:46:18Z</time>
      </trkpt>
      <trkpt lat="39.8420780" lon="3.0812790">
        <ele>19.4</ele>
        <time>2021-07-25T14:46:22Z</time>
      </trkpt>
      <trkpt lat="39.8419860" lon="3.0813120">
        <ele>19.8</ele>
        <time>2021-07-25T14:46:24Z</time>
      </trkpt>
      <trkpt lat="39.8418410" lon="3.0813060">
        <ele>20.2</ele>
        <time>2021-07-25T14:46:27Z</time>
      </trkpt>
      <trkpt lat="39.8417080" lon="3.0812840">
        <ele>21.0</ele>
        <time>2021-07-25T14:46:30Z</time>
      </trkpt>
      <trkpt lat="39.8416100" lon="3.0812430">
        <ele>21.8</ele>
        <time>2021-07-25T14:46:33Z</time>
      </trkpt>
      <trkpt lat="39.8414870" lon="3.0811700">
        <ele>21.8</ele>
        <time>2021-07-25T14:46:37Z</time>
      </trkpt>
      <trkpt lat="39.8414190" lon="3.0811390">
        <ele>22.2</ele>
        <time>2021-07-25T14:47:26Z</time>
      </trkpt>
      <trkpt lat="39.8413520" lon="3.0811070">
        <ele>22.2</ele>
        <time>2021-07-25T14:47:27Z</time>
      </trkpt>
      <trkpt lat="39.8412010" lon="3.0811670">
        <ele>22.4</ele>
        <time>2021-07-25T14:47:30Z</time>
      </trkpt>
      <trkpt lat="39.8411680" lon="3.0812250">
        <ele>22.6</ele>
        <time>2021-07-25T14:47:31Z</time>
      </trkpt>
      <trkpt lat="39.8411420" lon="3.0813640">
        <ele>22.8</ele>
        <time>2021-07-25T14:47:33Z</time>
      </trkpt>
      <trkpt lat="39.8412200" lon="3.0816200">
        <ele>23.0</ele>
        <time>2021-07-25T14:47:37Z</time>
      </trkpt>
      <trkpt lat="39.8412990" lon="3.0817170">
        <ele>23.0</ele>
        <time>2021-07-25T14:47:39Z</time>
      </trkpt>
      <trkpt lat="39.8414230" lon="3.0818600">
        <ele>22.8</ele>
        <time>2021-07-25T14:47:42Z</time>
      </trkpt>
      <trkpt lat="39.8414590" lon="3.0819180">
        <ele>22.8</ele>
        <time>2021-07-25T14:47:43Z</time>
      </trkpt>
      <trkpt lat="39.8416610" lon="3.0823700">
        <ele>23.0</ele>
        <time>2021-07-25T14:47:50Z</time>
      </trkpt>
      <trkpt lat="39.8418750" lon="3.0829090">
        <ele>22.8</ele>
        <time>2021-07-25T14:47:58Z</time>
      </trkpt>
      <trkpt lat="39.8420980" lon="3.0835140">
        <ele>22.8</ele>
        <time>2021-07-25T14:48:07Z</time>
      </trkpt>
      <trkpt lat="39.8422570" lon="3.0839740">
        <ele>23.8</ele>
        <time>2021-07-25T14:48:14Z</time>
      </trkpt>
      <trkpt lat="39.8423240" lon="3.0841670">
        <ele>24.0</ele>
        <time>2021-07-25T14:48:17Z</time>
      </trkpt>
      <trkpt lat="39.8424690" lon="3.0846200">
        <ele>24.8</ele>
        <time>2021-07-25T14:48:24Z</time>
      </trkpt>
      <trkpt lat="39.8424860" lon="3.0846870">
        <ele>25.0</ele>
        <time>2021-07-25T14:48:25Z</time>
      </trkpt>
      <trkpt lat="39.8426590" lon="3.0852940">
        <ele>25.6</ele>
        <time>2021-07-25T14:48:34Z</time>
      </trkpt>
      <trkpt lat="39.8427200" lon="3.0854970">
        <ele>26.0</ele>
        <time>2021-07-25T14:48:37Z</time>
      </trkpt>
      <trkpt lat="39.8428100" lon="3.0857820">
        <ele>26.2</ele>
        <time>2021-07-25T14:48:41Z</time>
      </trkpt>
      <trkpt lat="39.8429770" lon="3.0862820">
        <ele>26.0</ele>
        <time>2021-07-25T14:48:48Z</time>
      </trkpt>
      <trkpt lat="39.8431810" lon="3.0869530">
        <ele>25.8</ele>
        <time>2021-07-25T14:48:57Z</time>
      </trkpt>
      <trkpt lat="39.8433490" lon="3.0875080">
        <ele>25.0</ele>
        <time>2021-07-25T14:49:04Z</time>
      </trkpt>
      <trkpt lat="39.8433990" lon="3.0876700">
        <ele>24.8</ele>
        <time>2021-07-25T14:49:06Z</time>
      </trkpt>
      <trkpt lat="39.8436020" lon="3.0883410">
        <ele>24.8</ele>
        <time>2021-07-25T14:49:14Z</time>
      </trkpt>
      <trkpt lat="39.8436560" lon="3.0885110">
        <ele>24.8</ele>
        <time>2021-07-25T14:49:16Z</time>
      </trkpt>
      <trkpt lat="39.8438040" lon="3.0890090">
        <ele>24.6</ele>
        <time>2021-07-25T14:49:22Z</time>
      </trkpt>
      <trkpt lat="39.8440040" lon="3.0896840">
        <ele>24.2</ele>
        <time>2021-07-25T14:49:30Z</time>
      </trkpt>
      <trkpt lat="39.8440310" lon="3.0897670">
        <ele>24.2</ele>
        <time>2021-07-25T14:49:31Z</time>
      </trkpt>
      <trkpt lat="39.8442140" lon="3.0903630">
        <ele>24.2</ele>
        <time>2021-07-25T14:49:38Z</time>
      </trkpt>
      <trkpt lat="39.8443620" lon="3.0910650">
        <ele>23.8</ele>
        <time>2021-07-25T14:49:46Z</time>
      </trkpt>
      <trkpt lat="39.8444550" lon="3.0917060">
        <ele>23.2</ele>
        <time>2021-07-25T14:49:53Z</time>
      </trkpt>
      <trkpt lat="39.8444810" lon="3.0919900">
        <ele>23.0</ele>
        <time>2021-07-25T14:49:56Z</time>
      </trkpt>
      <trkpt lat="39.8444800" lon="3.0926790">
        <ele>22.2</ele>
        <time>2021-07-25T14:50:03Z</time>
      </trkpt>
      <trkpt lat="39.8443930" lon="3.0931350">
        <ele>21.8</ele>
        <time>2021-07-25T14:50:08Z</time>
      </trkpt>
      <trkpt lat="39.8443040" lon="3.0933800">
        <ele>21.4</ele>
        <time>2021-07-25T14:50:12Z</time>
      </trkpt>
      <trkpt lat="39.8442620" lon="3.0935310">
        <ele>21.0</ele>
        <time>2021-07-25T14:50:14Z</time>
      </trkpt>
      <trkpt lat="39.8442510" lon="3.0936170">
        <ele>20.8</ele>
        <time>2021-07-25T14:50:15Z</time>
      </trkpt>
      <trkpt lat="39.8442500" lon="3.0937060">
        <ele>20.8</ele>
        <time>2021-07-25T14:50:16Z</time>
      </trkpt>
      <trkpt lat="39.8442650" lon="3.0939800">
        <ele>20.4</ele>
        <time>2021-07-25T14:50:19Z</time>
      </trkpt>
      <trkpt lat="39.8442540" lon="3.0941630">
        <ele>20.4</ele>
        <time>2021-07-25T14:50:21Z</time>
      </trkpt>
      <trkpt lat="39.8442240" lon="3.0943420">
        <ele>20.6</ele>
        <time>2021-07-25T14:50:23Z</time>
      </trkpt>
      <trkpt lat="39.8441370" lon="3.0946040">
        <ele>20.4</ele>
        <time>2021-07-25T14:50:26Z</time>
      </trkpt>
      <trkpt lat="39.8441050" lon="3.0946930">
        <ele>20.0</ele>
        <time>2021-07-25T14:50:27Z</time>
      </trkpt>
      <trkpt lat="39.8439320" lon="3.0951540">
        <ele>19.0</ele>
        <time>2021-07-25T14:50:32Z</time>
      </trkpt>
      <trkpt lat="39.8438570" lon="3.0953390">
        <ele>18.8</ele>
        <time>2021-07-25T14:50:34Z</time>
      </trkpt>
      <trkpt lat="39.8435790" lon="3.0960060">
        <ele>18.2</ele>
        <time>2021-07-25T14:50:41Z</time>
      </trkpt>
      <trkpt lat="39.8435360" lon="3.0961000">
        <ele>18.0</ele>
        <time>2021-07-25T14:50:42Z</time>
      </trkpt>
      <trkpt lat="39.8432810" lon="3.0966560">
        <ele>17.0</ele>
        <time>2021-07-25T14:50:48Z</time>
      </trkpt>
      <trkpt lat="39.8432490" lon="3.0967520">
        <ele>16.4</ele>
        <time>2021-07-25T14:50:49Z</time>
      </trkpt>
      <trkpt lat="39.8431520" lon="3.0970340">
        <ele>16.2</ele>
        <time>2021-07-25T14:50:52Z</time>
      </trkpt>
      <trkpt lat="39.8430740" lon="3.0972060">
        <ele>15.8</ele>
        <time>2021-07-25T14:50:54Z</time>
      </trkpt>
      <trkpt lat="39.8429920" lon="3.0973800">
        <ele>15.0</ele>
        <time>2021-07-25T14:50:56Z</time>
      </trkpt>
      <trkpt lat="39.8429430" lon="3.0974570">
        <ele>14.6</ele>
        <time>2021-07-25T14:50:57Z</time>
      </trkpt>
      <trkpt lat="39.8428300" lon="3.0975910">
        <ele>14.4</ele>
        <time>2021-07-25T14:50:59Z</time>
      </trkpt>
      <trkpt lat="39.8427050" lon="3.0976980">
        <ele>14.2</ele>
        <time>2021-07-25T14:51:01Z</time>
      </trkpt>
      <trkpt lat="39.8425860" lon="3.0978020">
        <ele>14.4</ele>
        <time>2021-07-25T14:51:03Z</time>
      </trkpt>
      <trkpt lat="39.8425030" lon="3.0980490">
        <ele>13.8</ele>
        <time>2021-07-25T14:51:06Z</time>
      </trkpt>
      <trkpt lat="39.8425520" lon="3.0982430">
        <ele>13.4</ele>
        <time>2021-07-25T14:51:08Z</time>
      </trkpt>
      <trkpt lat="39.8425680" lon="3.0983480">
        <ele>13.2</ele>
        <time>2021-07-25T14:51:09Z</time>
      </trkpt>
      <trkpt lat="39.8425290" lon="3.0986750">
        <ele>12.8</ele>
        <time>2021-07-25T14:51:12Z</time>
      </trkpt>
      <trkpt lat="39.8424980" lon="3.0987770">
        <ele>12.6</ele>
        <time>2021-07-25T14:51:13Z</time>
      </trkpt>
      <trkpt lat="39.8423560" lon="3.0992910">
        <ele>12.0</ele>
        <time>2021-07-25T14:51:18Z</time>
      </trkpt>
      <trkpt lat="39.8423000" lon="3.0994970">
        <ele>11.2</ele>
        <time>2021-07-25T14:51:20Z</time>
      </trkpt>
      <trkpt lat="39.8421770" lon="3.1000290">
        <ele>10.0</ele>
        <time>2021-07-25T14:51:25Z</time>
      </trkpt>
      <trkpt lat="39.8420300" lon="3.1007770">
        <ele>9.0</ele>
        <time>2021-07-25T14:51:32Z</time>
      </trkpt>
      <trkpt lat="39.8420130" lon="3.1008850">
        <ele>8.8</ele>
        <time>2021-07-25T14:51:33Z</time>
      </trkpt>
      <trkpt lat="39.8419690" lon="3.1012150">
        <ele>8.0</ele>
        <time>2021-07-25T14:51:36Z</time>
      </trkpt>
      <trkpt lat="39.8418990" lon="3.1018750">
        <ele>7.2</ele>
        <time>2021-07-25T14:51:42Z</time>
      </trkpt>
      <trkpt lat="39.8418890" lon="3.1019860">
        <ele>7.0</ele>
        <time>2021-07-25T14:51:43Z</time>
      </trkpt>
      <trkpt lat="39.8418600" lon="3.1024300">
        <ele>6.0</ele>
        <time>2021-07-25T14:51:47Z</time>
      </trkpt>
      <trkpt lat="39.8418530" lon="3.1025410">
        <ele>5.6</ele>
        <time>2021-07-25T14:51:48Z</time>
      </trkpt>
      <trkpt lat="39.8418230" lon="3.1030900">
        <ele>4.6</ele>
        <time>2021-07-25T14:51:53Z</time>
      </trkpt>
      <trkpt lat="39.8418110" lon="3.1035230">
        <ele>4.0</ele>
        <time>2021-07-25T14:51:57Z</time>
      </trkpt>
      <trkpt lat="39.8418100" lon="3.1041750">
        <ele>3.6</ele>
        <time>2021-07-25T14:52:03Z</time>
      </trkpt>
      <trkpt lat="39.8418200" lon="3.1044970">
        <ele>3.4</ele>
        <time>2021-07-25T14:52:06Z</time>
      </trkpt>
      <trkpt lat="39.8418600" lon="3.1052300">
        <ele>3.2</ele>
        <time>2021-07-25T14:52:13Z</time>
      </trkpt>
      <trkpt lat="39.8418780" lon="3.1054360">
        <ele>3.0</ele>
        <time>2021-07-25T14:52:15Z</time>
      </trkpt>
      <trkpt lat="39.8419000" lon="3.1056380">
        <ele>2.8</ele>
        <time>2021-07-25T14:52:17Z</time>
      </trkpt>
      <trkpt lat="39.8419810" lon="3.1063360">
        <ele>2.0</ele>
        <time>2021-07-25T14:52:24Z</time>
      </trkpt>
      <trkpt lat="39.8420520" lon="3.1068010">
        <ele>1.8</ele>
        <time>2021-07-25T14:52:29Z</time>
      </trkpt>
      <trkpt lat="39.8421000" lon="3.1070710">
        <ele>1.4</ele>
        <time>2021-07-25T14:52:32Z</time>
      </trkpt>
      <trkpt lat="39.8422480" lon="3.1077700">
        <ele>1.4</ele>
        <time>2021-07-25T14:52:40Z</time>
      </trkpt>
      <trkpt lat="39.8422690" lon="3.1078570">
        <ele>1.4</ele>
        <time>2021-07-25T14:52:41Z</time>
      </trkpt>
      <trkpt lat="39.8424150" lon="3.1084520">
        <ele>0.8</ele>
        <time>2021-07-25T14:52:48Z</time>
      </trkpt>
      <trkpt lat="39.8424830" lon="3.1087000">
        <ele>0.8</ele>
        <time>2021-07-25T14:52:51Z</time>
      </trkpt>
      <trkpt lat="39.8426230" lon="3.1091850">
        <ele>1.8</ele>
        <time>2021-07-25T14:52:57Z</time>
      </trkpt>
      <trkpt lat="39.8426920" lon="3.1094240">
        <ele>1.6</ele>
        <time>2021-07-25T14:53:00Z</time>
      </trkpt>
      <trkpt lat="39.8428050" lon="3.1098160">
        <ele>1.4</ele>
        <time>2021-07-25T14:53:05Z</time>
      </trkpt>
      <trkpt lat="39.8428750" lon="3.1100500">
        <ele>0.8</ele>
        <time>2021-07-25T14:53:08Z</time>
      </trkpt>
      <trkpt lat="39.8430290" lon="3.1105850">
        <ele>1.4</ele>
        <time>2021-07-25T14:53:15Z</time>
      </trkpt>
      <trkpt lat="39.8432050" lon="3.1111910">
        <ele>1.4</ele>
        <time>2021-07-25T14:53:23Z</time>
      </trkpt>
      <trkpt lat="39.8433870" lon="3.1118190">
        <ele>1.6</ele>
        <time>2021-07-25T14:53:31Z</time>
      </trkpt>
      <trkpt lat="39.8435980" lon="3.1125500">
        <ele>1.0</ele>
        <time>2021-07-25T14:53:40Z</time>
      </trkpt>
      <trkpt lat="39.8436210" lon="3.1126310">
        <ele>1.2</ele>
        <time>2021-07-25T14:53:41Z</time>
      </trkpt>
      <trkpt lat="39.8438270" lon="3.1133390">
        <ele>1.6</ele>
        <time>2021-07-25T14:53:50Z</time>
      </trkpt>
      <trkpt lat="39.8440350" lon="3.1140550">
        <ele>1.8</ele>
        <time>2021-07-25T14:53:59Z</time>
      </trkpt>
      <trkpt lat="39.8442260" lon="3.1147050">
        <ele>1.2</ele>
        <time>2021-07-25T14:54:07Z</time>
      </trkpt>
      <trkpt lat="39.8444390" lon="3.1154350">
        <ele>2.2</ele>
        <time>2021-07-25T14:54:16Z</time>
      </trkpt>
      <trkpt lat="39.8446340" lon="3.1160980">
        <ele>1.4</ele>
        <time>2021-07-25T14:54:24Z</time>
      </trkpt>
      <trkpt lat="39.8448390" lon="3.1167880">
        <ele>1.6</ele>
        <time>2021-07-25T14:54:32Z</time>
      </trkpt>
      <trkpt lat="39.8448660" lon="3.1168750">
        <ele>1.8</ele>
        <time>2021-07-25T14:54:33Z</time>
      </trkpt>
      <trkpt lat="39.8450690" lon="3.1175730">
        <ele>1.4</ele>
        <time>2021-07-25T14:54:41Z</time>
      </trkpt>
      <trkpt lat="39.8451180" lon="3.1177440">
        <ele>1.8</ele>
        <time>2021-07-25T14:54:43Z</time>
      </trkpt>
      <trkpt lat="39.8453080" lon="3.1184070">
        <ele>1.4</ele>
        <time>2021-07-25T14:54:51Z</time>
      </trkpt>
      <trkpt lat="39.8453320" lon="3.1184920">
        <ele>1.2</ele>
        <time>2021-07-25T14:54:52Z</time>
      </trkpt>
      <trkpt lat="39.8455070" lon="3.1191810">
        <ele>1.2</ele>
        <time>2021-07-25T14:55:00Z</time>
      </trkpt>
      <trkpt lat="39.8455260" lon="3.1192680">
        <ele>1.2</ele>
        <time>2021-07-25T14:55:01Z</time>
      </trkpt>
      <trkpt lat="39.8456640" lon="3.1199730">
        <ele>1.4</ele>
        <time>2021-07-25T14:55:09Z</time>
      </trkpt>
      <trkpt lat="39.8456930" lon="3.1201510">
        <ele>1.2</ele>
        <time>2021-07-25T14:55:11Z</time>
      </trkpt>
      <trkpt lat="39.8457900" lon="3.1208700">
        <ele>1.0</ele>
        <time>2021-07-25T14:55:19Z</time>
      </trkpt>
      <trkpt lat="39.8458070" lon="3.1210510">
        <ele>1.0</ele>
        <time>2021-07-25T14:55:21Z</time>
      </trkpt>
      <trkpt lat="39.8458630" lon="3.1217830">
        <ele>1.0</ele>
        <time>2021-07-25T14:55:29Z</time>
      </trkpt>
      <trkpt lat="39.8458680" lon="3.1218730">
        <ele>1.0</ele>
        <time>2021-07-25T14:55:30Z</time>
      </trkpt>
      <trkpt lat="39.8459050" lon="3.1225930">
        <ele>1.2</ele>
        <time>2021-07-25T14:55:38Z</time>
      </trkpt>
      <trkpt lat="39.8459400" lon="3.1233130">
        <ele>1.0</ele>
        <time>2021-07-25T14:55:46Z</time>
      </trkpt>
      <trkpt lat="39.8459440" lon="3.1234030">
        <ele>1.2</ele>
        <time>2021-07-25T14:55:47Z</time>
      </trkpt>
      <trkpt lat="39.8459710" lon="3.1240700">
        <ele>1.0</ele>
        <time>2021-07-25T14:55:55Z</time>
      </trkpt>
      <trkpt lat="39.8459740" lon="3.1242650">
        <ele>1.2</ele>
        <time>2021-07-25T14:55:59Z</time>
      </trkpt>
      <trkpt lat="39.8459630" lon="3.1243130">
        <ele>1.2</ele>
        <time>2021-07-25T14:56:00Z</time>
      </trkpt>
      <trkpt lat="39.8459210" lon="3.1244040">
        <ele>1.2</ele>
        <time>2021-07-25T14:56:03Z</time>
      </trkpt>
      <trkpt lat="39.8458370" lon="3.1245330">
        <ele>1.2</ele>
        <time>2021-07-25T14:56:07Z</time>
      </trkpt>
      <trkpt lat="39.8458110" lon="3.1247320">
        <ele>1.6</ele>
        <time>2021-07-25T14:56:10Z</time>
      </trkpt>
      <trkpt lat="39.8459030" lon="3.1249310">
        <ele>1.6</ele>
        <time>2021-07-25T14:56:13Z</time>
      </trkpt>
      <trkpt lat="39.8459480" lon="3.1249840">
        <ele>1.4</ele>
        <time>2021-07-25T14:56:14Z</time>
      </trkpt>
      <trkpt lat="39.8460300" lon="3.1250960">
        <ele>0.8</ele>
        <time>2021-07-25T14:56:16Z</time>
      </trkpt>
      <trkpt lat="39.8460560" lon="3.1251640">
        <ele>0.6</ele>
        <time>2021-07-25T14:56:17Z</time>
      </trkpt>
      <trkpt lat="39.8460690" lon="3.1252380">
        <ele>0.4</ele>
        <time>2021-07-25T14:56:18Z</time>
      </trkpt>
      <trkpt lat="39.8460770" lon="3.1253840">
        <ele>0.8</ele>
        <time>2021-07-25T14:56:20Z</time>
      </trkpt>
      <trkpt lat="39.8460730" lon="3.1256660">
        <ele>1.2</ele>
        <time>2021-07-25T14:56:24Z</time>
      </trkpt>
      <trkpt lat="39.8460300" lon="3.1262570">
        <ele>1.0</ele>
        <time>2021-07-25T14:56:33Z</time>
      </trkpt>
      <trkpt lat="39.8459750" lon="3.1268520">
        <ele>1.8</ele>
        <time>2021-07-25T14:56:41Z</time>
      </trkpt>
      <trkpt lat="39.8459650" lon="3.1269270">
        <ele>1.8</ele>
        <time>2021-07-25T14:56:42Z</time>
      </trkpt>
      <trkpt lat="39.8458990" lon="3.1276120">
        <ele>1.4</ele>
        <time>2021-07-25T14:56:51Z</time>
      </trkpt>
      <trkpt lat="39.8458360" lon="3.1282400">
        <ele>1.8</ele>
        <time>2021-07-25T14:56:59Z</time>
      </trkpt>
      <trkpt lat="39.8457980" lon="3.1288090">
        <ele>1.4</ele>
        <time>2021-07-25T14:57:06Z</time>
      </trkpt>
      <trkpt lat="39.8458120" lon="3.1292290">
        <ele>1.4</ele>
        <time>2021-07-25T14:57:11Z</time>
      </trkpt>
      <trkpt lat="39.8458930" lon="3.1299100">
        <ele>1.8</ele>
        <time>2021-07-25T14:57:19Z</time>
      </trkpt>
      <trkpt lat="39.8460380" lon="3.1305720">
        <ele>1.8</ele>
        <time>2021-07-25T14:57:27Z</time>
      </trkpt>
      <trkpt lat="39.8460690" lon="3.1307440">
        <ele>1.2</ele>
        <time>2021-07-25T14:57:29Z</time>
      </trkpt>
      <trkpt lat="39.8460520" lon="3.1309050">
        <ele>1.2</ele>
        <time>2021-07-25T14:57:31Z</time>
      </trkpt>
      <trkpt lat="39.8460180" lon="3.1310490">
        <ele>1.6</ele>
        <time>2021-07-25T14:57:33Z</time>
      </trkpt>
      <trkpt lat="39.8459890" lon="3.1311960">
        <ele>1.8</ele>
        <time>2021-07-25T14:57:35Z</time>
      </trkpt>
      <trkpt lat="39.8459620" lon="3.1312600">
        <ele>1.8</ele>
        <time>2021-07-25T14:57:36Z</time>
      </trkpt>
      <trkpt lat="39.8458330" lon="3.1314070">
        <ele>1.8</ele>
        <time>2021-07-25T14:57:39Z</time>
      </trkpt>
      <trkpt lat="39.8457900" lon="3.1314560">
        <ele>1.8</ele>
        <time>2021-07-25T14:57:40Z</time>
      </trkpt>
      <trkpt lat="39.8457450" lon="3.1315000">
        <ele>1.8</ele>
        <time>2021-07-25T14:57:41Z</time>
      </trkpt>
      <trkpt lat="39.8456040" lon="3.1316330">
        <ele>1.8</ele>
        <time>2021-07-25T14:57:44Z</time>
      </trkpt>
      <trkpt lat="39.8453550" lon="3.1318760">
        <ele>1.6</ele>
        <time>2021-07-25T14:57:49Z</time>
      </trkpt>
      <trkpt lat="39.8450450" lon="3.1321640">
        <ele>1.8</ele>
        <time>2021-07-25T14:57:55Z</time>
      </trkpt>
      <trkpt lat="39.8447010" lon="3.1325120">
        <ele>2.0</ele>
        <time>2021-07-25T14:58:02Z</time>
      </trkpt>
      <trkpt lat="39.8446050" lon="3.1326040">
        <ele>2.0</ele>
        <time>2021-07-25T14:58:04Z</time>
      </trkpt>
      <trkpt lat="39.8444590" lon="3.1327130">
        <ele>1.8</ele>
        <time>2021-07-25T14:58:07Z</time>
      </trkpt>
      <trkpt lat="39.8443110" lon="3.1327620">
        <ele>1.8</ele>
        <time>2021-07-25T14:58:10Z</time>
      </trkpt>
      <trkpt lat="39.8442730" lon="3.1328050">
        <ele>2.0</ele>
        <time>2021-07-25T14:58:11Z</time>
      </trkpt>
      <trkpt lat="39.8442000" lon="3.1329740">
        <ele>2.4</ele>
        <time>2021-07-25T14:58:14Z</time>
      </trkpt>
      <trkpt lat="39.8441700" lon="3.1330150">
        <ele>2.4</ele>
        <time>2021-07-25T14:58:15Z</time>
      </trkpt>
      <trkpt lat="39.8440240" lon="3.1331820">
        <ele>2.6</ele>
        <time>2021-07-25T14:58:20Z</time>
      </trkpt>
      <trkpt lat="39.8438380" lon="3.1333780">
        <ele>2.8</ele>
        <time>2021-07-25T14:58:25Z</time>
      </trkpt>
      <trkpt lat="39.8435900" lon="3.1336450">
        <ele>3.0</ele>
        <time>2021-07-25T14:58:31Z</time>
      </trkpt>
      <trkpt lat="39.8434540" lon="3.1337870">
        <ele>3.0</ele>
        <time>2021-07-25T14:58:34Z</time>
      </trkpt>
      <trkpt lat="39.8433690" lon="3.1338980">
        <ele>3.6</ele>
        <time>2021-07-25T14:58:36Z</time>
      </trkpt>
      <trkpt lat="39.8433250" lon="3.1339480">
        <ele>3.8</ele>
        <time>2021-07-25T14:58:37Z</time>
      </trkpt>
      <trkpt lat="39.8430500" lon="3.1342520">
        <ele>3.4</ele>
        <time>2021-07-25T14:58:43Z</time>
      </trkpt>
      <trkpt lat="39.8428830" lon="3.1344590">
        <ele>4.0</ele>
        <time>2021-07-25T14:58:47Z</time>
      </trkpt>
      <trkpt lat="39.8428580" lon="3.1345260">
        <ele>4.0</ele>
        <time>2021-07-25T14:58:48Z</time>
      </trkpt>
      <trkpt lat="39.8427580" lon="3.1347570">
        <ele>3.8</ele>
        <time>2021-07-25T14:58:52Z</time>
      </trkpt>
      <trkpt lat="39.8427170" lon="3.1347970">
        <ele>4.0</ele>
        <time>2021-07-25T14:58:53Z</time>
      </trkpt>
      <trkpt lat="39.8425030" lon="3.1350330">
        <ele>4.2</ele>
        <time>2021-07-25T14:58:58Z</time>
      </trkpt>
      <trkpt lat="39.8424630" lon="3.1350820">
        <ele>4.2</ele>
        <time>2021-07-25T14:58:59Z</time>
      </trkpt>
      <trkpt lat="39.8424210" lon="3.1352070">
        <ele>4.6</ele>
        <time>2021-07-25T14:59:01Z</time>
      </trkpt>
      <trkpt lat="39.8424380" lon="3.1352700">
        <ele>4.6</ele>
        <time>2021-07-25T14:59:02Z</time>
      </trkpt>
      <trkpt lat="39.8424680" lon="3.1353200">
        <ele>4.8</ele>
        <time>2021-07-25T14:59:03Z</time>
      </trkpt>
      <trkpt lat="39.8425820" lon="3.1354520">
        <ele>4.6</ele>
        <time>2021-07-25T14:59:06Z</time>
      </trkpt>
      <trkpt lat="39.8426580" lon="3.1355240">
        <ele>4.6</ele>
        <time>2021-07-25T14:59:08Z</time>
      </trkpt>
      <trkpt lat="39.8427490" lon="3.1355010">
        <ele>4.8</ele>
        <time>2021-07-25T14:59:10Z</time>
      </trkpt>
      <trkpt lat="39.8428610" lon="3.1353780">
        <ele>5.2</ele>
        <time>2021-07-25T14:59:13Z</time>
      </trkpt>
      <trkpt lat="39.8429010" lon="3.1353320">
        <ele>5.2</ele>
        <time>2021-07-25T14:59:14Z</time>
      </trkpt>
      <trkpt lat="39.8430070" lon="3.1352330">
        <ele>5.2</ele>
        <time>2021-07-25T14:59:18Z</time>
      </trkpt>
      <trkpt lat="39.8429130" lon="3.1352830">
        <ele>4.4</ele>
        <time>2021-07-25T14:59:43Z</time>
      </trkpt>
      <trkpt lat="39.8428930" lon="3.1352660">
        <ele>4.2</ele>
        <time>2021-07-25T14:59:44Z</time>
      </trkpt>
      <trkpt lat="39.8428900" lon="3.1351220">
        <ele>4.2</ele>
        <time>2021-07-25T14:59:48Z</time>
      </trkpt>
      <trkpt lat="39.8430150" lon="3.1349680">
        <ele>4.4</ele>
        <time>2021-07-25T14:59:52Z</time>
      </trkpt>
      <trkpt lat="39.8430510" lon="3.1349260">
        <ele>4.8</ele>
        <time>2021-07-25T14:59:53Z</time>
      </trkpt>
      <trkpt lat="39.8432580" lon="3.1347230">
        <ele>4.4</ele>
        <time>2021-07-25T14:59:58Z</time>
      </trkpt>
      <trkpt lat="39.8435780" lon="3.1343910">
        <ele>4.8</ele>
        <time>2021-07-25T15:00:06Z</time>
      </trkpt>
      <trkpt lat="39.8437740" lon="3.1341790">
        <ele>4.6</ele>
        <time>2021-07-25T15:00:11Z</time>
      </trkpt>
      <trkpt lat="39.8438140" lon="3.1340580">
        <ele>4.6</ele>
        <time>2021-07-25T15:00:13Z</time>
      </trkpt>
      <trkpt lat="39.8437480" lon="3.1338960">
        <ele>4.6</ele>
        <time>2021-07-25T15:00:16Z</time>
      </trkpt>
      <trkpt lat="39.8436450" lon="3.1338500">
        <ele>4.6</ele>
        <time>2021-07-25T15:00:19Z</time>
      </trkpt>
      <trkpt lat="39.8436020" lon="3.1338910">
        <ele>4.4</ele>
        <time>2021-07-25T15:00:21Z</time>
      </trkpt>
      <trkpt lat="39.8435880" lon="3.1339030">
        <ele>4.2</ele>
        <time>2021-07-25T15:00:22Z</time>
      </trkpt>
    </trkseg>
  </trk>
</gpx>
